<?xml version='1.0' encoding='UTF-8'?><gpx version="1.1" creator="JPX - https://github.com/jenetics/jpx" xmlns="http://www.topografix.com/GPX/1/1"><trk><trkseg><trkpt lat="43.0810673" lon="12.5052636"><ele>198.0</ele><time>2026-04-25T13:27:05.448Z</time></trkpt><trkpt lat="43.0809721" lon="12.5052231"><ele>198.0</ele><time>2026-04-25T13:27:06.448Z</time></trkpt><trkpt lat="43.0808868" lon="12.5051863"><ele>198.0</ele><time>2026-04-25T13:27:07.448Z</time></trkpt><trkpt lat="43.0808158" lon="12.5051501"><ele>198.0</ele><time>2026-04-25T13:27:08.448Z</time></trkpt><trkpt lat="43.0807437" lon="12.5051111"><ele>198.0</ele><time>2026-04-25T13:27:09.448Z</time></trkpt><trkpt lat="43.0806673" lon="12.505068"><ele>198.0</ele><time>2026-04-25T13:27:10.448Z</time></trkpt><trkpt lat="43.080583" lon="12.5050214"><ele>198.4</ele><time>2026-04-25T13:27:11.448Z</time></trkpt><trkpt lat="43.0804862" lon="12.504975"><ele>198.8</ele><time>2026-04-25T13:27:12.448Z</time></trkpt><trkpt lat="43.080382" lon="12.5049279"><ele>199.2</ele><time>2026-04-25T13:27:13.448Z</time></trkpt><trkpt lat="43.0802857" lon="12.5048815"><ele>199.6</ele><time>2026-04-25T13:27:14.448Z</time></trkpt><trkpt lat="43.08019" lon="12.5048328"><ele>200.0</ele><time>2026-04-25T13:27:15.448Z</time></trkpt><trkpt lat="43.0800922" lon="12.5047846"><ele>200.0</ele><time>2026-04-25T13:27:16.448Z</time></trkpt><trkpt lat="43.0799896" lon="12.50474"><ele>200.0</ele><time>2026-04-25T13:27:17.448Z</time></trkpt><trkpt lat="43.0798877" lon="12.5046939"><ele>200.0</ele><time>2026-04-25T13:27:18.448Z</time></trkpt><trkpt lat="43.0797878" lon="12.5046504"><ele>200.0</ele><time>2026-04-25T13:27:19.448Z</time></trkpt><trkpt lat="43.0796903" lon="12.5046061"><ele>200.0</ele><time>2026-04-25T13:27:20.448Z</time></trkpt><trkpt lat="43.0795939" lon="12.5045628"><ele>200.00000000000003</ele><time>2026-04-25T13:27:21.448Z</time></trkpt><trkpt lat="43.0795064" lon="12.5045142"><ele>200.0</ele><time>2026-04-25T13:27:22.448Z</time></trkpt><trkpt lat="43.0794274" lon="12.5044718"><ele>200.0</ele><time>2026-04-25T13:27:23.448Z</time></trkpt><trkpt lat="43.0793542" lon="12.5044372"><ele>200.0</ele><time>2026-04-25T13:27:24.449Z</time></trkpt><trkpt lat="43.0792909" lon="12.5044067"><ele>200.00000000000003</ele><time>2026-04-25T13:27:25.448Z</time></trkpt><trkpt lat="43.0792116" lon="12.5043562"><ele>200.0</ele><time>2026-04-25T13:27:27.448Z</time></trkpt><trkpt lat="43.0791301" lon="12.5043554"><ele>200.00000000000003</ele><time>2026-04-25T13:27:30.448Z</time></trkpt><trkpt lat="43.079064" lon="12.5043982"><ele>200.0</ele><time>2026-04-25T13:27:33.448Z</time></trkpt><trkpt lat="43.0790471" lon="12.5044894"><ele>200.0</ele><time>2026-04-25T13:27:35.448Z</time></trkpt><trkpt lat="43.0790535" lon="12.5046003"><ele>200.0</ele><time>2026-04-25T13:27:36.448Z</time></trkpt><trkpt lat="43.0790633" lon="12.5047188"><ele>200.00000000000003</ele><time>2026-04-25T13:27:37.448Z</time></trkpt><trkpt lat="43.0790713" lon="12.5048375"><ele>200.0</ele><time>2026-04-25T13:27:38.448Z</time></trkpt><trkpt lat="43.0790791" lon="12.5049608"><ele>199.8</ele><time>2026-04-25T13:27:39.448Z</time></trkpt><trkpt lat="43.0790825" lon="12.5050862"><ele>199.6</ele><time>2026-04-25T13:27:40.448Z</time></trkpt><trkpt lat="43.0790819" lon="12.5052155"><ele>199.39999999999998</ele><time>2026-04-25T13:27:41.449Z</time></trkpt><trkpt lat="43.0790805" lon="12.5053585"><ele>199.2</ele><time>2026-04-25T13:27:42.448Z</time></trkpt><trkpt lat="43.0790775" lon="12.505507"><ele>199.0</ele><time>2026-04-25T13:27:43.448Z</time></trkpt><trkpt lat="43.0790705" lon="12.505678"><ele>198.75</ele><time>2026-04-25T13:27:44.448Z</time></trkpt><trkpt lat="43.0790647" lon="12.505844"><ele>198.5</ele><time>2026-04-25T13:27:45.448Z</time></trkpt><trkpt lat="43.0790547" lon="12.5060046"><ele>198.25</ele><time>2026-04-25T13:27:46.448Z</time></trkpt><trkpt lat="43.0790491" lon="12.506169"><ele>198.0</ele><time>2026-04-25T13:27:47.448Z</time></trkpt><trkpt lat="43.0790426" lon="12.5063365"><ele>197.75</ele><time>2026-04-25T13:27:48.448Z</time></trkpt><trkpt lat="43.0790365" lon="12.5065143"><ele>197.5</ele><time>2026-04-25T13:27:49.449Z</time></trkpt><trkpt lat="43.0790278" lon="12.5066949"><ele>197.25</ele><time>2026-04-25T13:27:50.448Z</time></trkpt><trkpt lat="43.0790149" lon="12.5068789"><ele>197.0</ele><time>2026-04-25T13:27:51.448Z</time></trkpt><trkpt lat="43.0790023" lon="12.5070695"><ele>197.0</ele><time>2026-04-25T13:27:52.448Z</time></trkpt><trkpt lat="43.0789883" lon="12.5072572"><ele>197.0</ele><time>2026-04-25T13:27:53.448Z</time></trkpt><trkpt lat="43.0789832" lon="12.5074379"><ele>197.0</ele><time>2026-04-25T13:27:54.448Z</time></trkpt><trkpt lat="43.0789708" lon="12.5076164"><ele>197.0</ele><time>2026-04-25T13:27:55.448Z</time></trkpt><trkpt lat="43.0789602" lon="12.5077961"><ele>197.25</ele><time>2026-04-25T13:27:56.449Z</time></trkpt><trkpt lat="43.0789481" lon="12.5079775"><ele>197.5</ele><time>2026-04-25T13:27:57.448Z</time></trkpt><trkpt lat="43.0789322" lon="12.5081607"><ele>197.75</ele><time>2026-04-25T13:27:58.448Z</time></trkpt><trkpt lat="43.0789218" lon="12.5083432"><ele>198.0</ele><time>2026-04-25T13:27:59.448Z</time></trkpt><trkpt lat="43.0789077" lon="12.5085255"><ele>198.0</ele><time>2026-04-25T13:28:00.448Z</time></trkpt><trkpt lat="43.0788922" lon="12.5086976"><ele>198.0</ele><time>2026-04-25T13:28:01.448Z</time></trkpt><trkpt lat="43.0788727" lon="12.5088519"><ele>198.0</ele><time>2026-04-25T13:28:02.448Z</time></trkpt><trkpt lat="43.0788466" lon="12.5089947"><ele>198.0</ele><time>2026-04-25T13:28:03.448Z</time></trkpt><trkpt lat="43.0788001" lon="12.5091136"><ele>198.0</ele><time>2026-04-25T13:28:04.448Z</time></trkpt><trkpt lat="43.0787426" lon="12.5092045"><ele>197.66666666666666</ele><time>2026-04-25T13:28:05.448Z</time></trkpt><trkpt lat="43.0786695" lon="12.509275"><ele>197.33333333333331</ele><time>2026-04-25T13:28:06.448Z</time></trkpt><trkpt lat="43.0785923" lon="12.50934"><ele>197.0</ele><time>2026-04-25T13:28:07.449Z</time></trkpt><trkpt lat="43.0785176" lon="12.5093838"><ele>196.66666666666666</ele><time>2026-04-25T13:28:08.448Z</time></trkpt><trkpt lat="43.0784538" lon="12.509462"><ele>196.33333333333331</ele><time>2026-04-25T13:28:09.449Z</time></trkpt><trkpt lat="43.0784158" lon="12.5095441"><ele>196.0</ele><time>2026-04-25T13:28:10.449Z</time></trkpt><trkpt lat="43.0784041" lon="12.5096335"><ele>195.99999999999997</ele><time>2026-04-25T13:28:11.448Z</time></trkpt><trkpt lat="43.0784233" lon="12.5097216"><ele>196.0</ele><time>2026-04-25T13:28:12.448Z</time></trkpt><trkpt lat="43.0784691" lon="12.5098021"><ele>196.0</ele><time>2026-04-25T13:28:13.448Z</time></trkpt><trkpt lat="43.0785398" lon="12.5098567"><ele>196.0</ele><time>2026-04-25T13:28:14.448Z</time></trkpt><trkpt lat="43.0786209" lon="12.5099071"><ele>195.99999999999997</ele><time>2026-04-25T13:28:15.449Z</time></trkpt><trkpt lat="43.0786926" lon="12.5099819"><ele>196.0</ele><time>2026-04-25T13:28:16.448Z</time></trkpt><trkpt lat="43.0787516" lon="12.5100898"><ele>196.0</ele><time>2026-04-25T13:28:17.448Z</time></trkpt><trkpt lat="43.0788006" lon="12.5102141"><ele>196.0</ele><time>2026-04-25T13:28:18.448Z</time></trkpt><trkpt lat="43.0788239" lon="12.5103614"><ele>196.0</ele><time>2026-04-25T13:28:19.448Z</time></trkpt><trkpt lat="43.0788251" lon="12.510527"><ele>196.0</ele><time>2026-04-25T13:28:20.448Z</time></trkpt><trkpt lat="43.0788123" lon="12.5106947"><ele>196.0</ele><time>2026-04-25T13:28:21.448Z</time></trkpt><trkpt lat="43.0787956" lon="12.5108613"><ele>196.0</ele><time>2026-04-25T13:28:22.448Z</time></trkpt><trkpt lat="43.0787831" lon="12.5110284"><ele>196.0</ele><time>2026-04-25T13:28:23.448Z</time></trkpt><trkpt lat="43.0787696" lon="12.5112017"><ele>196.0</ele><time>2026-04-25T13:28:24.448Z</time></trkpt><trkpt lat="43.0787632" lon="12.5113793"><ele>196.25</ele><time>2026-04-25T13:28:25.449Z</time></trkpt><trkpt lat="43.0787562" lon="12.5115649"><ele>196.5</ele><time>2026-04-25T13:28:26.448Z</time></trkpt><trkpt lat="43.0787475" lon="12.5117597"><ele>196.75</ele><time>2026-04-25T13:28:27.448Z</time></trkpt><trkpt lat="43.0787358" lon="12.5119555"><ele>197.0</ele><time>2026-04-25T13:28:28.449Z</time></trkpt><trkpt lat="43.0787267" lon="12.5121452"><ele>197.0</ele><time>2026-04-25T13:28:29.449Z</time></trkpt><trkpt lat="43.0787144" lon="12.5123318"><ele>197.0</ele><time>2026-04-25T13:28:30.448Z</time></trkpt><trkpt lat="43.0787032" lon="12.5125183"><ele>197.0</ele><time>2026-04-25T13:28:31.449Z</time></trkpt><trkpt lat="43.0786967" lon="12.5127059"><ele>197.0</ele><time>2026-04-25T13:28:32.448Z</time></trkpt><trkpt lat="43.078687" lon="12.5128864"><ele>197.0</ele><time>2026-04-25T13:28:33.449Z</time></trkpt><trkpt lat="43.0786754" lon="12.5130655"><ele>197.0</ele><time>2026-04-25T13:28:34.448Z</time></trkpt><trkpt lat="43.0786661" lon="12.5132387"><ele>197.0</ele><time>2026-04-25T13:28:35.448Z</time></trkpt><trkpt lat="43.0786548" lon="12.5133933"><ele>197.0</ele><time>2026-04-25T13:28:36.449Z</time></trkpt><trkpt lat="43.0786375" lon="12.5135366"><ele>197.0</ele><time>2026-04-25T13:28:37.448Z</time></trkpt><trkpt lat="43.0786072" lon="12.5136662"><ele>197.0</ele><time>2026-04-25T13:28:38.448Z</time></trkpt><trkpt lat="43.0785461" lon="12.513771"><ele>197.0</ele><time>2026-04-25T13:28:39.448Z</time></trkpt><trkpt lat="43.0784696" lon="12.5138706"><ele>197.0</ele><time>2026-04-25T13:28:40.449Z</time></trkpt><trkpt lat="43.0783896" lon="12.5139713"><ele>197.0</ele><time>2026-04-25T13:28:41.448Z</time></trkpt><trkpt lat="43.0783102" lon="12.5140668"><ele>197.25</ele><time>2026-04-25T13:28:42.448Z</time></trkpt><trkpt lat="43.0782141" lon="12.5141274"><ele>197.5</ele><time>2026-04-25T13:28:43.448Z</time></trkpt><trkpt lat="43.0781096" lon="12.514174"><ele>197.75</ele><time>2026-04-25T13:28:44.448Z</time></trkpt><trkpt lat="43.0779892" lon="12.5141676"><ele>198.0</ele><time>2026-04-25T13:28:45.448Z</time></trkpt><trkpt lat="43.0778699" lon="12.5141556"><ele>198.0</ele><time>2026-04-25T13:28:46.448Z</time></trkpt><trkpt lat="43.0777417" lon="12.5141475"><ele>198.0</ele><time>2026-04-25T13:28:47.449Z</time></trkpt><trkpt lat="43.0776129" lon="12.5141384"><ele>198.0</ele><time>2026-04-25T13:28:48.449Z</time></trkpt><trkpt lat="43.0774865" lon="12.5141324"><ele>198.0</ele><time>2026-04-25T13:28:49.448Z</time></trkpt><trkpt lat="43.0773594" lon="12.5141225"><ele>197.75</ele><time>2026-04-25T13:28:50.448Z</time></trkpt><trkpt lat="43.0772357" lon="12.5141122"><ele>197.5</ele><time>2026-04-25T13:28:51.448Z</time></trkpt><trkpt lat="43.0771032" lon="12.5141006"><ele>197.25</ele><time>2026-04-25T13:28:52.448Z</time></trkpt><trkpt lat="43.0769668" lon="12.5140979"><ele>197.0</ele><time>2026-04-25T13:28:53.448Z</time></trkpt><trkpt lat="43.0768269" lon="12.5140886"><ele>197.0</ele><time>2026-04-25T13:28:54.448Z</time></trkpt><trkpt lat="43.0766848" lon="12.514071"><ele>197.0</ele><time>2026-04-25T13:28:55.448Z</time></trkpt><trkpt lat="43.076543" lon="12.5140472"><ele>197.0</ele><time>2026-04-25T13:28:56.449Z</time></trkpt><trkpt lat="43.0763965" lon="12.5140282"><ele>197.0</ele><time>2026-04-25T13:28:57.448Z</time></trkpt><trkpt lat="43.076246" lon="12.5139912"><ele>196.66666666666669</ele><time>2026-04-25T13:28:58.448Z</time></trkpt><trkpt lat="43.0760964" lon="12.5139483"><ele>196.33333333333331</ele><time>2026-04-25T13:28:59.448Z</time></trkpt><trkpt lat="43.0759431" lon="12.5138995"><ele>196.0</ele><time>2026-04-25T13:29:00.448Z</time></trkpt><trkpt lat="43.075794" lon="12.5138301"><ele>196.0</ele><time>2026-04-25T13:29:01.448Z</time></trkpt><trkpt lat="43.0756437" lon="12.5137617"><ele>196.0</ele><time>2026-04-25T13:29:02.448Z</time></trkpt><trkpt lat="43.0754918" lon="12.5136976"><ele>196.0</ele><time>2026-04-25T13:29:03.449Z</time></trkpt><trkpt lat="43.0753396" lon="12.5136385"><ele>195.66666666666666</ele><time>2026-04-25T13:29:04.448Z</time></trkpt><trkpt lat="43.0751857" lon="12.5135873"><ele>195.33333333333331</ele><time>2026-04-25T13:29:05.448Z</time></trkpt><trkpt lat="43.0750313" lon="12.5135306"><ele>195.0</ele><time>2026-04-25T13:29:06.448Z</time></trkpt><trkpt lat="43.0748759" lon="12.5134758"><ele>194.66666666666669</ele><time>2026-04-25T13:29:07.448Z</time></trkpt><trkpt lat="43.0747244" lon="12.5134217"><ele>194.33333333333334</ele><time>2026-04-25T13:29:08.449Z</time></trkpt><trkpt lat="43.0745686" lon="12.5133685"><ele>194.0</ele><time>2026-04-25T13:29:09.448Z</time></trkpt><trkpt lat="43.0744126" lon="12.5133151"><ele>194.0</ele><time>2026-04-25T13:29:10.449Z</time></trkpt><trkpt lat="43.074253" lon="12.5132604"><ele>194.0</ele><time>2026-04-25T13:29:11.448Z</time></trkpt><trkpt lat="43.0740919" lon="12.5132068"><ele>194.0</ele><time>2026-04-25T13:29:12.448Z</time></trkpt><trkpt lat="43.0739354" lon="12.5131548"><ele>194.0</ele><time>2026-04-25T13:29:13.448Z</time></trkpt><trkpt lat="43.0737816" lon="12.5131029"><ele>194.0</ele><time>2026-04-25T13:29:14.448Z</time></trkpt><trkpt lat="43.0736272" lon="12.5130519"><ele>194.0</ele><time>2026-04-25T13:29:15.448Z</time></trkpt><trkpt lat="43.0734764" lon="12.5130176"><ele>194.0</ele><time>2026-04-25T13:29:16.448Z</time></trkpt><trkpt lat="43.0733332" lon="12.5129709"><ele>194.0</ele><time>2026-04-25T13:29:17.448Z</time></trkpt><trkpt lat="43.0732007" lon="12.5129232"><ele>194.0</ele><time>2026-04-25T13:29:18.448Z</time></trkpt><trkpt lat="43.073075" lon="12.5128788"><ele>194.0</ele><time>2026-04-25T13:29:19.448Z</time></trkpt><trkpt lat="43.072957" lon="12.5128387"><ele>193.79999999999998</ele><time>2026-04-25T13:29:20.448Z</time></trkpt><trkpt lat="43.0728472" lon="12.512808"><ele>193.6</ele><time>2026-04-25T13:29:21.448Z</time></trkpt><trkpt lat="43.0727476" lon="12.5127835"><ele>193.4</ele><time>2026-04-25T13:29:22.448Z</time></trkpt><trkpt lat="43.0726543" lon="12.5127591"><ele>193.2</ele><time>2026-04-25T13:29:23.449Z</time></trkpt><trkpt lat="43.0725762" lon="12.5127498"><ele>193.0</ele><time>2026-04-25T13:29:24.448Z</time></trkpt><trkpt lat="43.0724994" lon="12.5127543"><ele>193.16666666666666</ele><time>2026-04-25T13:29:25.448Z</time></trkpt><trkpt lat="43.0724312" lon="12.5127747"><ele>193.33333333333331</ele><time>2026-04-25T13:29:26.448Z</time></trkpt><trkpt lat="43.0723748" lon="12.5128203"><ele>193.5</ele><time>2026-04-25T13:29:27.449Z</time></trkpt><trkpt lat="43.07234" lon="12.5129084"><ele>193.66666666666669</ele><time>2026-04-25T13:29:28.449Z</time></trkpt><trkpt lat="43.0723295" lon="12.5130024"><ele>193.83333333333334</ele><time>2026-04-25T13:29:29.448Z</time></trkpt><trkpt lat="43.0723361" lon="12.5131169"><ele>194.0</ele><time>2026-04-25T13:29:30.448Z</time></trkpt><trkpt lat="43.0723514" lon="12.513237"><ele>194.0</ele><time>2026-04-25T13:29:31.448Z</time></trkpt><trkpt lat="43.0723614" lon="12.5133632"><ele>194.0</ele><time>2026-04-25T13:29:32.449Z</time></trkpt><trkpt lat="43.0723652" lon="12.5134959"><ele>194.0</ele><time>2026-04-25T13:29:33.448Z</time></trkpt><trkpt lat="43.0723611" lon="12.5136292"><ele>194.0</ele><time>2026-04-25T13:29:34.448Z</time></trkpt><trkpt lat="43.072364" lon="12.5137673"><ele>194.0</ele><time>2026-04-25T13:29:35.448Z</time></trkpt><trkpt lat="43.072374" lon="12.5139084"><ele>194.0</ele><time>2026-04-25T13:29:36.448Z</time></trkpt><trkpt lat="43.072398" lon="12.5140474"><ele>194.0</ele><time>2026-04-25T13:29:37.448Z</time></trkpt><trkpt lat="43.0724373" lon="12.5141807"><ele>194.0</ele><time>2026-04-25T13:29:38.448Z</time></trkpt><trkpt lat="43.0725013" lon="12.514311"><ele>194.0</ele><time>2026-04-25T13:29:39.448Z</time></trkpt><trkpt lat="43.0725904" lon="12.5144123"><ele>194.0</ele><time>2026-04-25T13:29:40.448Z</time></trkpt><trkpt lat="43.0726845" lon="12.5145002"><ele>194.25</ele><time>2026-04-25T13:29:41.448Z</time></trkpt><trkpt lat="43.0727838" lon="12.5145865"><ele>194.5</ele><time>2026-04-25T13:29:42.448Z</time></trkpt><trkpt lat="43.0728852" lon="12.5146836"><ele>194.75</ele><time>2026-04-25T13:29:43.448Z</time></trkpt><trkpt lat="43.0729755" lon="12.5148004"><ele>195.0</ele><time>2026-04-25T13:29:44.448Z</time></trkpt><trkpt lat="43.0730593" lon="12.5149386"><ele>195.0</ele><time>2026-04-25T13:29:45.448Z</time></trkpt><trkpt lat="43.0731323" lon="12.5150908"><ele>195.0</ele><time>2026-04-25T13:29:46.449Z</time></trkpt><trkpt lat="43.0731845" lon="12.5152693"><ele>195.0</ele><time>2026-04-25T13:29:47.448Z</time></trkpt><trkpt lat="43.0731983" lon="12.5154584"><ele>195.0</ele><time>2026-04-25T13:29:48.448Z</time></trkpt><trkpt lat="43.073202" lon="12.5156626"><ele>195.0</ele><time>2026-04-25T13:29:49.448Z</time></trkpt><trkpt lat="43.0731733" lon="12.5158672"><ele>195.0</ele><time>2026-04-25T13:29:50.448Z</time></trkpt><trkpt lat="43.0731415" lon="12.5160746"><ele>195.0</ele><time>2026-04-25T13:29:51.448Z</time></trkpt><trkpt lat="43.0731025" lon="12.5162839"><ele>195.0</ele><time>2026-04-25T13:29:52.448Z</time></trkpt><trkpt lat="43.073072" lon="12.5164888"><ele>195.0</ele><time>2026-04-25T13:29:53.448Z</time></trkpt><trkpt lat="43.0730345" lon="12.5166979"><ele>195.0</ele><time>2026-04-25T13:29:54.448Z</time></trkpt><trkpt lat="43.0729951" lon="12.5169102"><ele>195.33333333333331</ele><time>2026-04-25T13:29:55.448Z</time></trkpt><trkpt lat="43.0729593" lon="12.5171277"><ele>195.66666666666666</ele><time>2026-04-25T13:29:56.449Z</time></trkpt><trkpt lat="43.0729279" lon="12.5173483"><ele>196.0</ele><time>2026-04-25T13:29:57.448Z</time></trkpt><trkpt lat="43.0728804" lon="12.5175726"><ele>196.0</ele><time>2026-04-25T13:29:58.449Z</time></trkpt><trkpt lat="43.0728382" lon="12.5178107"><ele>196.0</ele><time>2026-04-25T13:29:59.448Z</time></trkpt><trkpt lat="43.0727909" lon="12.5180494"><ele>196.0</ele><time>2026-04-25T13:30:00.449Z</time></trkpt><trkpt lat="43.0727508" lon="12.5182841"><ele>196.33333333333331</ele><time>2026-04-25T13:30:01.448Z</time></trkpt><trkpt lat="43.072704" lon="12.518523"><ele>196.66666666666669</ele><time>2026-04-25T13:30:02.448Z</time></trkpt><trkpt lat="43.0726712" lon="12.5187643"><ele>197.0</ele><time>2026-04-25T13:30:03.448Z</time></trkpt><trkpt lat="43.0726366" lon="12.5189967"><ele>197.0</ele><time>2026-04-25T13:30:04.448Z</time></trkpt><trkpt lat="43.0725867" lon="12.5192342"><ele>197.0</ele><time>2026-04-25T13:30:05.449Z</time></trkpt><trkpt lat="43.0725445" lon="12.5194825"><ele>197.0</ele><time>2026-04-25T13:30:06.449Z</time></trkpt><trkpt lat="43.0724939" lon="12.5197267"><ele>197.0</ele><time>2026-04-25T13:30:07.448Z</time></trkpt><trkpt lat="43.0724483" lon="12.5199804"><ele>197.0</ele><time>2026-04-25T13:30:08.448Z</time></trkpt><trkpt lat="43.0724024" lon="12.5202317"><ele>197.0</ele><time>2026-04-25T13:30:09.448Z</time></trkpt><trkpt lat="43.072353" lon="12.5204894"><ele>196.0</ele><time>2026-04-25T13:30:10.448Z</time></trkpt><trkpt lat="43.072304" lon="12.520751"><ele>195.0</ele><time>2026-04-25T13:30:11.448Z</time></trkpt><trkpt lat="43.0722562" lon="12.5210136"><ele>194.0</ele><time>2026-04-25T13:30:12.448Z</time></trkpt><trkpt lat="43.0722025" lon="12.521275"><ele>194.0</ele><time>2026-04-25T13:30:13.448Z</time></trkpt><trkpt lat="43.0721484" lon="12.5215408"><ele>194.0</ele><time>2026-04-25T13:30:14.448Z</time></trkpt><trkpt lat="43.0721041" lon="12.5218039"><ele>194.0</ele><time>2026-04-25T13:30:15.448Z</time></trkpt><trkpt lat="43.0720555" lon="12.5220676"><ele>194.66666666666669</ele><time>2026-04-25T13:30:16.448Z</time></trkpt><trkpt lat="43.0719985" lon="12.5223399"><ele>195.33333333333331</ele><time>2026-04-25T13:30:17.448Z</time></trkpt><trkpt lat="43.0719476" lon="12.5226098"><ele>196.0</ele><time>2026-04-25T13:30:18.448Z</time></trkpt><trkpt lat="43.0718817" lon="12.5228746"><ele>196.66666666666666</ele><time>2026-04-25T13:30:19.448Z</time></trkpt><trkpt lat="43.0718374" lon="12.5231473"><ele>197.33333333333331</ele><time>2026-04-25T13:30:20.448Z</time></trkpt><trkpt lat="43.0717887" lon="12.5234194"><ele>198.0</ele><time>2026-04-25T13:30:21.448Z</time></trkpt><trkpt lat="43.07174" lon="12.5236912"><ele>198.33333333333331</ele><time>2026-04-25T13:30:22.448Z</time></trkpt><trkpt lat="43.0716892" lon="12.5239609"><ele>198.66666666666666</ele><time>2026-04-25T13:30:23.448Z</time></trkpt><trkpt lat="43.0716317" lon="12.5242359"><ele>199.0</ele><time>2026-04-25T13:30:24.448Z</time></trkpt><trkpt lat="43.0715803" lon="12.5245123"><ele>198.33333333333331</ele><time>2026-04-25T13:30:25.448Z</time></trkpt><trkpt lat="43.071526" lon="12.5247855"><ele>197.66666666666669</ele><time>2026-04-25T13:30:26.448Z</time></trkpt><trkpt lat="43.0714692" lon="12.5250578"><ele>197.0</ele><time>2026-04-25T13:30:27.448Z</time></trkpt><trkpt lat="43.0714167" lon="12.5253258"><ele>196.33333333333334</ele><time>2026-04-25T13:30:28.448Z</time></trkpt><trkpt lat="43.0713534" lon="12.5255959"><ele>195.66666666666669</ele><time>2026-04-25T13:30:29.448Z</time></trkpt><trkpt lat="43.0712757" lon="12.5258576"><ele>195.0</ele><time>2026-04-25T13:30:30.448Z</time></trkpt><trkpt lat="43.071196" lon="12.5261232"><ele>195.33333333333331</ele><time>2026-04-25T13:30:31.448Z</time></trkpt><trkpt lat="43.0711113" lon="12.5263785"><ele>195.66666666666666</ele><time>2026-04-25T13:30:32.448Z</time></trkpt><trkpt lat="43.0710208" lon="12.5266365"><ele>196.0</ele><time>2026-04-25T13:30:33.449Z</time></trkpt><trkpt lat="43.0709244" lon="12.5268919"><ele>196.0</ele><time>2026-04-25T13:30:34.448Z</time></trkpt><trkpt lat="43.0708245" lon="12.5271435"><ele>196.0</ele><time>2026-04-25T13:30:35.448Z</time></trkpt><trkpt lat="43.0707189" lon="12.527392"><ele>196.0</ele><time>2026-04-25T13:30:36.448Z</time></trkpt><trkpt lat="43.0706067" lon="12.5276308"><ele>195.66666666666666</ele><time>2026-04-25T13:30:37.448Z</time></trkpt><trkpt lat="43.0705026" lon="12.5278749"><ele>195.33333333333331</ele><time>2026-04-25T13:30:38.449Z</time></trkpt><trkpt lat="43.0703972" lon="12.5281183"><ele>195.0</ele><time>2026-04-25T13:30:39.448Z</time></trkpt><trkpt lat="43.0702828" lon="12.5283636"><ele>196.0</ele><time>2026-04-25T13:30:40.448Z</time></trkpt><trkpt lat="43.070173" lon="12.5286076"><ele>197.0</ele><time>2026-04-25T13:30:41.448Z</time></trkpt><trkpt lat="43.0700657" lon="12.5288562"><ele>198.0</ele><time>2026-04-25T13:30:42.448Z</time></trkpt><trkpt lat="43.0699501" lon="12.5291011"><ele>198.0</ele><time>2026-04-25T13:30:43.448Z</time></trkpt><trkpt lat="43.0698391" lon="12.5293471"><ele>198.0</ele><time>2026-04-25T13:30:44.448Z</time></trkpt><trkpt lat="43.0697254" lon="12.5296005"><ele>198.0</ele><time>2026-04-25T13:30:45.449Z</time></trkpt><trkpt lat="43.0696155" lon="12.5298484"><ele>197.66666666666669</ele><time>2026-04-25T13:30:46.448Z</time></trkpt><trkpt lat="43.0695068" lon="12.5300972"><ele>197.33333333333334</ele><time>2026-04-25T13:30:47.449Z</time></trkpt><trkpt lat="43.0693914" lon="12.5303468"><ele>197.0</ele><time>2026-04-25T13:30:48.448Z</time></trkpt><trkpt lat="43.0692794" lon="12.5305996"><ele>197.0</ele><time>2026-04-25T13:30:49.448Z</time></trkpt><trkpt lat="43.0691653" lon="12.5308508"><ele>197.0</ele><time>2026-04-25T13:30:50.448Z</time></trkpt><trkpt lat="43.0690495" lon="12.5311012"><ele>197.0</ele><time>2026-04-25T13:30:51.448Z</time></trkpt><trkpt lat="43.0689371" lon="12.5313554"><ele>197.0</ele><time>2026-04-25T13:30:52.449Z</time></trkpt><trkpt lat="43.068826" lon="12.5315988"><ele>197.0</ele><time>2026-04-25T13:30:53.448Z</time></trkpt><trkpt lat="43.0687143" lon="12.5318506"><ele>197.0</ele><time>2026-04-25T13:30:54.449Z</time></trkpt><trkpt lat="43.0685986" lon="12.5321014"><ele>197.0</ele><time>2026-04-25T13:30:55.448Z</time></trkpt><trkpt lat="43.068486" lon="12.5323567"><ele>197.0</ele><time>2026-04-25T13:30:56.448Z</time></trkpt><trkpt lat="43.0683704" lon="12.5326132"><ele>197.0</ele><time>2026-04-25T13:30:57.448Z</time></trkpt><trkpt lat="43.0682578" lon="12.5328713"><ele>197.66666666666669</ele><time>2026-04-25T13:30:58.448Z</time></trkpt><trkpt lat="43.0681408" lon="12.5331283"><ele>198.33333333333331</ele><time>2026-04-25T13:30:59.448Z</time></trkpt><trkpt lat="43.0680249" lon="12.5333891"><ele>199.0</ele><time>2026-04-25T13:31:00.448Z</time></trkpt><trkpt lat="43.0679118" lon="12.5336538"><ele>199.0</ele><time>2026-04-25T13:31:01.448Z</time></trkpt><trkpt lat="43.0677938" lon="12.5339172"><ele>199.0</ele><time>2026-04-25T13:31:02.448Z</time></trkpt><trkpt lat="43.0676748" lon="12.5341786"><ele>199.0</ele><time>2026-04-25T13:31:03.449Z</time></trkpt><trkpt lat="43.0675595" lon="12.5344448"><ele>199.0</ele><time>2026-04-25T13:31:04.449Z</time></trkpt><trkpt lat="43.0674361" lon="12.5347063"><ele>198.0</ele><time>2026-04-25T13:31:05.448Z</time></trkpt><trkpt lat="43.0673169" lon="12.5349659"><ele>197.0</ele><time>2026-04-25T13:31:06.448Z</time></trkpt><trkpt lat="43.067197" lon="12.535235"><ele>196.5</ele><time>2026-04-25T13:31:07.448Z</time></trkpt><trkpt lat="43.0670755" lon="12.5354967"><ele>196.0</ele><time>2026-04-25T13:31:08.448Z</time></trkpt><trkpt lat="43.0669592" lon="12.5357693"><ele>196.0</ele><time>2026-04-25T13:31:09.448Z</time></trkpt><trkpt lat="43.0668352" lon="12.5360383"><ele>196.0</ele><time>2026-04-25T13:31:10.449Z</time></trkpt><trkpt lat="43.0667204" lon="12.5363057"><ele>196.0</ele><time>2026-04-25T13:31:11.448Z</time></trkpt><trkpt lat="43.0666025" lon="12.536579"><ele>196.0</ele><time>2026-04-25T13:31:12.449Z</time></trkpt><trkpt lat="43.0664799" lon="12.5368447"><ele>195.5</ele><time>2026-04-25T13:31:13.448Z</time></trkpt><trkpt lat="43.0663663" lon="12.5371169"><ele>195.0</ele><time>2026-04-25T13:31:14.449Z</time></trkpt><trkpt lat="43.0662363" lon="12.5373875"><ele>195.0</ele><time>2026-04-25T13:31:15.448Z</time></trkpt><trkpt lat="43.0661165" lon="12.5376634"><ele>195.0</ele><time>2026-04-25T13:31:16.448Z</time></trkpt><trkpt lat="43.0659908" lon="12.5379314"><ele>195.5</ele><time>2026-04-25T13:31:17.449Z</time></trkpt><trkpt lat="43.0658704" lon="12.5381986"><ele>196.0</ele><time>2026-04-25T13:31:18.448Z</time></trkpt><trkpt lat="43.0657475" lon="12.5384647"><ele>194.5</ele><time>2026-04-25T13:31:19.448Z</time></trkpt><trkpt lat="43.0656281" lon="12.5387355"><ele>193.0</ele><time>2026-04-25T13:31:20.449Z</time></trkpt><trkpt lat="43.0655035" lon="12.539003"><ele>193.0</ele><time>2026-04-25T13:31:21.448Z</time></trkpt><trkpt lat="43.0653792" lon="12.5392683"><ele>193.0</ele><time>2026-04-25T13:31:22.448Z</time></trkpt><trkpt lat="43.0652571" lon="12.5395347"><ele>194.0</ele><time>2026-04-25T13:31:23.448Z</time></trkpt><trkpt lat="43.0651374" lon="12.5398023"><ele>195.0</ele><time>2026-04-25T13:31:24.448Z</time></trkpt><trkpt lat="43.0650179" lon="12.5400707"><ele>195.0</ele><time>2026-04-25T13:31:25.448Z</time></trkpt><trkpt lat="43.0648934" lon="12.5403399"><ele>195.0</ele><time>2026-04-25T13:31:26.448Z</time></trkpt><trkpt lat="43.0647684" lon="12.540602"><ele>195.0</ele><time>2026-04-25T13:31:27.448Z</time></trkpt><trkpt lat="43.0646485" lon="12.5408713"><ele>195.0</ele><time>2026-04-25T13:31:28.448Z</time></trkpt><trkpt lat="43.0645312" lon="12.5411325"><ele>194.0</ele><time>2026-04-25T13:31:29.448Z</time></trkpt><trkpt lat="43.0644111" lon="12.5414049"><ele>193.0</ele><time>2026-04-25T13:31:30.448Z</time></trkpt><trkpt lat="43.064284" lon="12.5416758"><ele>193.0</ele><time>2026-04-25T13:31:31.448Z</time></trkpt><trkpt lat="43.0641612" lon="12.5419395"><ele>193.0</ele><time>2026-04-25T13:31:32.448Z</time></trkpt><trkpt lat="43.0640396" lon="12.5422135"><ele>191.0</ele><time>2026-04-25T13:31:33.448Z</time></trkpt><trkpt lat="43.0639203" lon="12.542487"><ele>189.0</ele><time>2026-04-25T13:31:34.448Z</time></trkpt><trkpt lat="43.0637915" lon="12.5427574"><ele>189.5</ele><time>2026-04-25T13:31:35.449Z</time></trkpt><trkpt lat="43.0636731" lon="12.5430338"><ele>190.0</ele><time>2026-04-25T13:31:36.448Z</time></trkpt><trkpt lat="43.0635507" lon="12.5433124"><ele>190.0</ele><time>2026-04-25T13:31:37.448Z</time></trkpt><trkpt lat="43.0634294" lon="12.5435845"><ele>190.0</ele><time>2026-04-25T13:31:38.448Z</time></trkpt><trkpt lat="43.0633056" lon="12.5438612"><ele>191.5</ele><time>2026-04-25T13:31:39.449Z</time></trkpt><trkpt lat="43.0631805" lon="12.5441349"><ele>193.0</ele><time>2026-04-25T13:31:40.448Z</time></trkpt><trkpt lat="43.0630607" lon="12.5444053"><ele>193.0</ele><time>2026-04-25T13:31:41.449Z</time></trkpt><trkpt lat="43.0629387" lon="12.5446801"><ele>193.0</ele><time>2026-04-25T13:31:42.448Z</time></trkpt><trkpt lat="43.062814" lon="12.5449584"><ele>193.0</ele><time>2026-04-25T13:31:43.448Z</time></trkpt><trkpt lat="43.0626902" lon="12.5452296"><ele>193.0</ele><time>2026-04-25T13:31:44.448Z</time></trkpt><trkpt lat="43.0625676" lon="12.5454991"><ele>193.0</ele><time>2026-04-25T13:31:45.448Z</time></trkpt><trkpt lat="43.0624477" lon="12.5457774"><ele>193.0</ele><time>2026-04-25T13:31:46.448Z</time></trkpt><trkpt lat="43.0623257" lon="12.5460495"><ele>191.5</ele><time>2026-04-25T13:31:47.448Z</time></trkpt><trkpt lat="43.0622017" lon="12.5463214"><ele>190.0</ele><time>2026-04-25T13:31:48.448Z</time></trkpt><trkpt lat="43.0620776" lon="12.5465876"><ele>190.0</ele><time>2026-04-25T13:31:49.448Z</time></trkpt><trkpt lat="43.0619589" lon="12.5468588"><ele>190.0</ele><time>2026-04-25T13:31:50.448Z</time></trkpt><trkpt lat="43.0618369" lon="12.5471243"><ele>192.0</ele><time>2026-04-25T13:31:51.448Z</time></trkpt><trkpt lat="43.0617135" lon="12.5473938"><ele>194.0</ele><time>2026-04-25T13:31:52.449Z</time></trkpt><trkpt lat="43.0615961" lon="12.5476697"><ele>195.5</ele><time>2026-04-25T13:31:53.449Z</time></trkpt><trkpt lat="43.0614727" lon="12.5479415"><ele>197.0</ele><time>2026-04-25T13:31:54.448Z</time></trkpt><trkpt lat="43.0613529" lon="12.5482145"><ele>197.0</ele><time>2026-04-25T13:31:55.448Z</time></trkpt><trkpt lat="43.0612286" lon="12.5484849"><ele>197.0</ele><time>2026-04-25T13:31:56.448Z</time></trkpt><trkpt lat="43.061106" lon="12.5487573"><ele>198.5</ele><time>2026-04-25T13:31:57.448Z</time></trkpt><trkpt lat="43.0609873" lon="12.5490281"><ele>200.0</ele><time>2026-04-25T13:31:58.448Z</time></trkpt><trkpt lat="43.0608744" lon="12.549309"><ele>198.0</ele><time>2026-04-25T13:31:59.448Z</time></trkpt><trkpt lat="43.0607603" lon="12.5496009"><ele>196.0</ele><time>2026-04-25T13:32:00.448Z</time></trkpt><trkpt lat="43.0606482" lon="12.5498829"><ele>196.0</ele><time>2026-04-25T13:32:01.449Z</time></trkpt><trkpt lat="43.0605385" lon="12.5501706"><ele>196.0</ele><time>2026-04-25T13:32:02.448Z</time></trkpt><trkpt lat="43.0604278" lon="12.5504581"><ele>196.5</ele><time>2026-04-25T13:32:03.448Z</time></trkpt><trkpt lat="43.0603183" lon="12.5507437"><ele>197.0</ele><time>2026-04-25T13:32:04.448Z</time></trkpt><trkpt lat="43.0602105" lon="12.5510276"><ele>198.0</ele><time>2026-04-25T13:32:05.448Z</time></trkpt><trkpt lat="43.0600966" lon="12.5513132"><ele>199.0</ele><time>2026-04-25T13:32:06.449Z</time></trkpt><trkpt lat="43.0599873" lon="12.5515989"><ele>199.0</ele><time>2026-04-25T13:32:07.448Z</time></trkpt><trkpt lat="43.0598783" lon="12.5518904"><ele>199.0</ele><time>2026-04-25T13:32:08.448Z</time></trkpt><trkpt lat="43.0597677" lon="12.5521771"><ele>198.5</ele><time>2026-04-25T13:32:09.449Z</time></trkpt><trkpt lat="43.0596606" lon="12.5524601"><ele>198.0</ele><time>2026-04-25T13:32:10.449Z</time></trkpt><trkpt lat="43.0595511" lon="12.5527473"><ele>198.0</ele><time>2026-04-25T13:32:11.448Z</time></trkpt><trkpt lat="43.0594409" lon="12.5530271"><ele>198.0</ele><time>2026-04-25T13:32:12.449Z</time></trkpt><trkpt lat="43.0593309" lon="12.5533134"><ele>198.0</ele><time>2026-04-25T13:32:13.448Z</time></trkpt><trkpt lat="43.0592243" lon="12.5535974"><ele>198.0</ele><time>2026-04-25T13:32:14.448Z</time></trkpt><trkpt lat="43.0591126" lon="12.5538818"><ele>198.5</ele><time>2026-04-25T13:32:15.449Z</time></trkpt><trkpt lat="43.0590019" lon="12.5541692"><ele>199.0</ele><time>2026-04-25T13:32:16.448Z</time></trkpt><trkpt lat="43.0588943" lon="12.5544629"><ele>199.5</ele><time>2026-04-25T13:32:17.448Z</time></trkpt><trkpt lat="43.0587821" lon="12.5547532"><ele>200.0</ele><time>2026-04-25T13:32:18.449Z</time></trkpt><trkpt lat="43.0586711" lon="12.5550509"><ele>200.0</ele><time>2026-04-25T13:32:19.448Z</time></trkpt><trkpt lat="43.0585593" lon="12.5553501"><ele>200.0</ele><time>2026-04-25T13:32:20.448Z</time></trkpt><trkpt lat="43.058445" lon="12.5556459"><ele>200.5</ele><time>2026-04-25T13:32:21.448Z</time></trkpt><trkpt lat="43.0583272" lon="12.5559442"><ele>201.0</ele><time>2026-04-25T13:32:22.448Z</time></trkpt><trkpt lat="43.0582138" lon="12.556243"><ele>201.0</ele><time>2026-04-25T13:32:23.448Z</time></trkpt><trkpt lat="43.0581027" lon="12.5565464"><ele>201.0</ele><time>2026-04-25T13:32:24.448Z</time></trkpt><trkpt lat="43.057985" lon="12.5568499"><ele>201.5</ele><time>2026-04-25T13:32:25.449Z</time></trkpt><trkpt lat="43.0578728" lon="12.5571597"><ele>202.0</ele><time>2026-04-25T13:32:26.448Z</time></trkpt><trkpt lat="43.057758" lon="12.5574681"><ele>202.0</ele><time>2026-04-25T13:32:27.448Z</time></trkpt><trkpt lat="43.0576398" lon="12.5577697"><ele>202.0</ele><time>2026-04-25T13:32:28.448Z</time></trkpt><trkpt lat="43.0575229" lon="12.5580678"><ele>201.5</ele><time>2026-04-25T13:32:29.448Z</time></trkpt><trkpt lat="43.0574041" lon="12.5583659"><ele>201.0</ele><time>2026-04-25T13:32:30.448Z</time></trkpt><trkpt lat="43.0572873" lon="12.5586637"><ele>201.5</ele><time>2026-04-25T13:32:31.448Z</time></trkpt><trkpt lat="43.0571711" lon="12.5589629"><ele>202.0</ele><time>2026-04-25T13:32:32.448Z</time></trkpt><trkpt lat="43.0570539" lon="12.5592674"><ele>203.0</ele><time>2026-04-25T13:32:33.448Z</time></trkpt><trkpt lat="43.0569245" lon="12.5595622"><ele>204.0</ele><time>2026-04-25T13:32:34.448Z</time></trkpt><trkpt lat="43.0568077" lon="12.5598685"><ele>204.0</ele><time>2026-04-25T13:32:35.448Z</time></trkpt><trkpt lat="43.0566852" lon="12.5601632"><ele>204.0</ele><time>2026-04-25T13:32:36.448Z</time></trkpt><trkpt lat="43.0565638" lon="12.5604595"><ele>204.0</ele><time>2026-04-25T13:32:37.448Z</time></trkpt><trkpt lat="43.0564382" lon="12.5607527"><ele>204.0</ele><time>2026-04-25T13:32:38.448Z</time></trkpt><trkpt lat="43.0563174" lon="12.5610471"><ele>203.5</ele><time>2026-04-25T13:32:39.448Z</time></trkpt><trkpt lat="43.0561924" lon="12.5613406"><ele>203.0</ele><time>2026-04-25T13:32:40.448Z</time></trkpt><trkpt lat="43.0560695" lon="12.5616345"><ele>203.0</ele><time>2026-04-25T13:32:41.448Z</time></trkpt><trkpt lat="43.0559463" lon="12.5619284"><ele>203.0</ele><time>2026-04-25T13:32:42.448Z</time></trkpt><trkpt lat="43.0558247" lon="12.5622273"><ele>203.0</ele><time>2026-04-25T13:32:43.448Z</time></trkpt><trkpt lat="43.0556979" lon="12.5625236"><ele>203.0</ele><time>2026-04-25T13:32:44.449Z</time></trkpt><trkpt lat="43.055578" lon="12.5628196"><ele>203.5</ele><time>2026-04-25T13:32:45.448Z</time></trkpt><trkpt lat="43.0554575" lon="12.5631099"><ele>204.0</ele><time>2026-04-25T13:32:46.448Z</time></trkpt><trkpt lat="43.0553379" lon="12.5633964"><ele>204.0</ele><time>2026-04-25T13:32:47.448Z</time></trkpt><trkpt lat="43.0552209" lon="12.563683"><ele>204.0</ele><time>2026-04-25T13:32:48.448Z</time></trkpt><trkpt lat="43.0551004" lon="12.563967"><ele>204.0</ele><time>2026-04-25T13:32:49.448Z</time></trkpt><trkpt lat="43.0549861" lon="12.5642523"><ele>204.0</ele><time>2026-04-25T13:32:50.448Z</time></trkpt><trkpt lat="43.0548702" lon="12.5645281"><ele>204.33333333333331</ele><time>2026-04-25T13:32:51.449Z</time></trkpt><trkpt lat="43.0547624" lon="12.5647978"><ele>204.66666666666666</ele><time>2026-04-25T13:32:52.449Z</time></trkpt><trkpt lat="43.0546469" lon="12.5650592"><ele>205.0</ele><time>2026-04-25T13:32:53.448Z</time></trkpt><trkpt lat="43.0545309" lon="12.5653251"><ele>205.0</ele><time>2026-04-25T13:32:54.448Z</time></trkpt><trkpt lat="43.0544197" lon="12.5655895"><ele>205.0</ele><time>2026-04-25T13:32:55.448Z</time></trkpt><trkpt lat="43.0543154" lon="12.5658537"><ele>205.0</ele><time>2026-04-25T13:32:56.448Z</time></trkpt><trkpt lat="43.0542011" lon="12.5661209"><ele>204.66666666666666</ele><time>2026-04-25T13:32:57.448Z</time></trkpt><trkpt lat="43.0540905" lon="12.5663808"><ele>204.33333333333331</ele><time>2026-04-25T13:32:58.448Z</time></trkpt><trkpt lat="43.0539803" lon="12.5666483"><ele>204.0</ele><time>2026-04-25T13:32:59.448Z</time></trkpt><trkpt lat="43.0538689" lon="12.5669152"><ele>204.5</ele><time>2026-04-25T13:33:00.448Z</time></trkpt><trkpt lat="43.053761" lon="12.5671818"><ele>205.0</ele><time>2026-04-25T13:33:01.448Z</time></trkpt><trkpt lat="43.0536492" lon="12.567454"><ele>205.0</ele><time>2026-04-25T13:33:02.448Z</time></trkpt><trkpt lat="43.0535382" lon="12.5677261"><ele>205.0</ele><time>2026-04-25T13:33:03.449Z</time></trkpt><trkpt lat="43.0534251" lon="12.5680009"><ele>205.5</ele><time>2026-04-25T13:33:04.448Z</time></trkpt><trkpt lat="43.0533119" lon="12.5682729"><ele>206.0</ele><time>2026-04-25T13:33:05.448Z</time></trkpt><trkpt lat="43.0531986" lon="12.5685498"><ele>205.5</ele><time>2026-04-25T13:33:06.448Z</time></trkpt><trkpt lat="43.0530904" lon="12.5688273"><ele>205.0</ele><time>2026-04-25T13:33:07.448Z</time></trkpt><trkpt lat="43.0529938" lon="12.569115"><ele>205.0</ele><time>2026-04-25T13:33:08.448Z</time></trkpt><trkpt lat="43.0529088" lon="12.5694115"><ele>205.0</ele><time>2026-04-25T13:33:09.448Z</time></trkpt><trkpt lat="43.05284" lon="12.5697194"><ele>205.0</ele><time>2026-04-25T13:33:10.448Z</time></trkpt><trkpt lat="43.0527765" lon="12.5700275"><ele>205.0</ele><time>2026-04-25T13:33:11.448Z</time></trkpt><trkpt lat="43.0527234" lon="12.5703356"><ele>204.5</ele><time>2026-04-25T13:33:12.448Z</time></trkpt><trkpt lat="43.0526811" lon="12.5706513"><ele>204.0</ele><time>2026-04-25T13:33:13.449Z</time></trkpt><trkpt lat="43.0526479" lon="12.5709704"><ele>205.0</ele><time>2026-04-25T13:33:14.448Z</time></trkpt><trkpt lat="43.0526265" lon="12.5712934"><ele>206.0</ele><time>2026-04-25T13:33:15.448Z</time></trkpt><trkpt lat="43.0526261" lon="12.5716185"><ele>206.0</ele><time>2026-04-25T13:33:16.448Z</time></trkpt><trkpt lat="43.0526292" lon="12.5719455"><ele>206.0</ele><time>2026-04-25T13:33:17.448Z</time></trkpt><trkpt lat="43.0526383" lon="12.5722699"><ele>207.0</ele><time>2026-04-25T13:33:18.448Z</time></trkpt><trkpt lat="43.0526517" lon="12.5725897"><ele>208.0</ele><time>2026-04-25T13:33:19.448Z</time></trkpt><trkpt lat="43.0526682" lon="12.5729115"><ele>208.5</ele><time>2026-04-25T13:33:20.448Z</time></trkpt><trkpt lat="43.052681" lon="12.5732338"><ele>209.0</ele><time>2026-04-25T13:33:21.448Z</time></trkpt><trkpt lat="43.0526944" lon="12.5735529"><ele>209.0</ele><time>2026-04-25T13:33:22.448Z</time></trkpt><trkpt lat="43.0527085" lon="12.5738667"><ele>209.0</ele><time>2026-04-25T13:33:23.449Z</time></trkpt><trkpt lat="43.0527203" lon="12.5741839"><ele>209.0</ele><time>2026-04-25T13:33:24.448Z</time></trkpt><trkpt lat="43.0527304" lon="12.5745004"><ele>209.0</ele><time>2026-04-25T13:33:25.448Z</time></trkpt><trkpt lat="43.0527454" lon="12.5748116"><ele>209.0</ele><time>2026-04-25T13:33:26.448Z</time></trkpt><trkpt lat="43.0527569" lon="12.5751215"><ele>209.0</ele><time>2026-04-25T13:33:27.448Z</time></trkpt><trkpt lat="43.0527715" lon="12.5754193"><ele>209.0</ele><time>2026-04-25T13:33:28.448Z</time></trkpt><trkpt lat="43.0527854" lon="12.5757085"><ele>209.0</ele><time>2026-04-25T13:33:29.449Z</time></trkpt><trkpt lat="43.052795" lon="12.5759979"><ele>209.0</ele><time>2026-04-25T13:33:30.448Z</time></trkpt><trkpt lat="43.052789" lon="12.5762696"><ele>209.0</ele><time>2026-04-25T13:33:31.449Z</time></trkpt><trkpt lat="43.0528021" lon="12.5765233"><ele>209.0</ele><time>2026-04-25T13:33:32.448Z</time></trkpt><trkpt lat="43.0528165" lon="12.5767723"><ele>209.0</ele><time>2026-04-25T13:33:33.448Z</time></trkpt><trkpt lat="43.0528224" lon="12.577036"><ele>209.0</ele><time>2026-04-25T13:33:34.448Z</time></trkpt><trkpt lat="43.0528328" lon="12.5773048"><ele>209.0</ele><time>2026-04-25T13:33:35.448Z</time></trkpt><trkpt lat="43.0528466" lon="12.5775697"><ele>209.0</ele><time>2026-04-25T13:33:36.448Z</time></trkpt><trkpt lat="43.052861" lon="12.5778426"><ele>209.0</ele><time>2026-04-25T13:33:37.448Z</time></trkpt><trkpt lat="43.0528788" lon="12.5781208"><ele>209.33333333333334</ele><time>2026-04-25T13:33:38.448Z</time></trkpt><trkpt lat="43.0528963" lon="12.5784062"><ele>209.66666666666669</ele><time>2026-04-25T13:33:39.449Z</time></trkpt><trkpt lat="43.0529102" lon="12.5786855"><ele>210.0</ele><time>2026-04-25T13:33:40.449Z</time></trkpt><trkpt lat="43.0529208" lon="12.5789638"><ele>210.0</ele><time>2026-04-25T13:33:41.448Z</time></trkpt><trkpt lat="43.0529351" lon="12.5792474"><ele>210.0</ele><time>2026-04-25T13:33:42.448Z</time></trkpt><trkpt lat="43.0529551" lon="12.5795392"><ele>210.0</ele><time>2026-04-25T13:33:43.448Z</time></trkpt><trkpt lat="43.0529676" lon="12.5798294"><ele>210.0</ele><time>2026-04-25T13:33:44.449Z</time></trkpt><trkpt lat="43.0529816" lon="12.5801343"><ele>210.0</ele><time>2026-04-25T13:33:45.448Z</time></trkpt><trkpt lat="43.0529747" lon="12.580428"><ele>210.0</ele><time>2026-04-25T13:33:46.448Z</time></trkpt><trkpt lat="43.052965" lon="12.5807274"><ele>210.0</ele><time>2026-04-25T13:33:47.448Z</time></trkpt><trkpt lat="43.0529427" lon="12.5810375"><ele>210.0</ele><time>2026-04-25T13:33:48.448Z</time></trkpt><trkpt lat="43.0529058" lon="12.5813528"><ele>211.5</ele><time>2026-04-25T13:33:49.448Z</time></trkpt><trkpt lat="43.0528487" lon="12.5816633"><ele>213.0</ele><time>2026-04-25T13:33:50.449Z</time></trkpt><trkpt lat="43.0527824" lon="12.5819759"><ele>213.0</ele><time>2026-04-25T13:33:51.448Z</time></trkpt><trkpt lat="43.0527053" lon="12.5822868"><ele>213.0</ele><time>2026-04-25T13:33:52.448Z</time></trkpt><trkpt lat="43.0526236" lon="12.5825993"><ele>212.5</ele><time>2026-04-25T13:33:53.448Z</time></trkpt><trkpt lat="43.052541" lon="12.5829144"><ele>212.0</ele><time>2026-04-25T13:33:54.448Z</time></trkpt><trkpt lat="43.0524603" lon="12.5832257"><ele>212.0</ele><time>2026-04-25T13:33:55.449Z</time></trkpt><trkpt lat="43.0523841" lon="12.5835382"><ele>212.0</ele><time>2026-04-25T13:33:56.448Z</time></trkpt><trkpt lat="43.0523089" lon="12.5838538"><ele>212.0</ele><time>2026-04-25T13:33:57.448Z</time></trkpt><trkpt lat="43.052231" lon="12.5841674"><ele>212.0</ele><time>2026-04-25T13:33:58.448Z</time></trkpt><trkpt lat="43.05215" lon="12.5844803"><ele>213.0</ele><time>2026-04-25T13:33:59.448Z</time></trkpt><trkpt lat="43.0520719" lon="12.5847887"><ele>214.0</ele><time>2026-04-25T13:34:00.448Z</time></trkpt><trkpt lat="43.0519924" lon="12.5850986"><ele>214.5</ele><time>2026-04-25T13:34:01.448Z</time></trkpt><trkpt lat="43.0519096" lon="12.5854067"><ele>215.0</ele><time>2026-04-25T13:34:02.448Z</time></trkpt><trkpt lat="43.0518281" lon="12.585717"><ele>215.0</ele><time>2026-04-25T13:34:03.448Z</time></trkpt><trkpt lat="43.0517529" lon="12.5860269"><ele>215.0</ele><time>2026-04-25T13:34:04.448Z</time></trkpt><trkpt lat="43.0516824" lon="12.5863364"><ele>214.5</ele><time>2026-04-25T13:34:05.448Z</time></trkpt><trkpt lat="43.0516118" lon="12.5866404"><ele>214.0</ele><time>2026-04-25T13:34:06.448Z</time></trkpt><trkpt lat="43.0515367" lon="12.5869436"><ele>212.5</ele><time>2026-04-25T13:34:07.448Z</time></trkpt><trkpt lat="43.0514628" lon="12.5872397"><ele>211.0</ele><time>2026-04-25T13:34:08.448Z</time></trkpt><trkpt lat="43.0513926" lon="12.5875387"><ele>211.0</ele><time>2026-04-25T13:34:09.448Z</time></trkpt><trkpt lat="43.0513223" lon="12.5878339"><ele>211.0</ele><time>2026-04-25T13:34:10.448Z</time></trkpt><trkpt lat="43.0512557" lon="12.5881298"><ele>211.0</ele><time>2026-04-25T13:34:11.448Z</time></trkpt><trkpt lat="43.0511814" lon="12.5884224"><ele>211.0</ele><time>2026-04-25T13:34:12.448Z</time></trkpt><trkpt lat="43.0511047" lon="12.58872"><ele>211.5</ele><time>2026-04-25T13:34:13.448Z</time></trkpt><trkpt lat="43.0510299" lon="12.589018"><ele>212.0</ele><time>2026-04-25T13:34:14.448Z</time></trkpt><trkpt lat="43.0509562" lon="12.5893172"><ele>213.5</ele><time>2026-04-25T13:34:15.448Z</time></trkpt><trkpt lat="43.0508826" lon="12.5896143"><ele>215.0</ele><time>2026-04-25T13:34:16.448Z</time></trkpt><trkpt lat="43.0508115" lon="12.5899142"><ele>215.0</ele><time>2026-04-25T13:34:17.448Z</time></trkpt><trkpt lat="43.0507439" lon="12.5902088"><ele>215.0</ele><time>2026-04-25T13:34:18.448Z</time></trkpt><trkpt lat="43.0506729" lon="12.5905052"><ele>215.0</ele><time>2026-04-25T13:34:19.448Z</time></trkpt><trkpt lat="43.0506029" lon="12.5908008"><ele>215.0</ele><time>2026-04-25T13:34:20.448Z</time></trkpt><trkpt lat="43.0505345" lon="12.5910959"><ele>214.0</ele><time>2026-04-25T13:34:21.449Z</time></trkpt><trkpt lat="43.0504628" lon="12.591391"><ele>213.0</ele><time>2026-04-25T13:34:22.448Z</time></trkpt><trkpt lat="43.0503901" lon="12.5916829"><ele>213.0</ele><time>2026-04-25T13:34:23.449Z</time></trkpt><trkpt lat="43.0503181" lon="12.5919798"><ele>213.0</ele><time>2026-04-25T13:34:24.448Z</time></trkpt><trkpt lat="43.0502494" lon="12.5922808"><ele>214.0</ele><time>2026-04-25T13:34:25.449Z</time></trkpt><trkpt lat="43.050182" lon="12.5925786"><ele>215.0</ele><time>2026-04-25T13:34:26.448Z</time></trkpt><trkpt lat="43.0501054" lon="12.5928758"><ele>216.0</ele><time>2026-04-25T13:34:27.448Z</time></trkpt><trkpt lat="43.0500291" lon="12.5931684"><ele>217.0</ele><time>2026-04-25T13:34:28.449Z</time></trkpt><trkpt lat="43.04996" lon="12.5934624"><ele>216.0</ele><time>2026-04-25T13:34:29.448Z</time></trkpt><trkpt lat="43.0498855" lon="12.5937591"><ele>215.0</ele><time>2026-04-25T13:34:30.448Z</time></trkpt><trkpt lat="43.0498156" lon="12.5940514"><ele>215.0</ele><time>2026-04-25T13:34:31.448Z</time></trkpt><trkpt lat="43.0497472" lon="12.5943477"><ele>215.0</ele><time>2026-04-25T13:34:32.448Z</time></trkpt><trkpt lat="43.0496761" lon="12.5946466"><ele>216.0</ele><time>2026-04-25T13:34:33.448Z</time></trkpt><trkpt lat="43.0496063" lon="12.5949406"><ele>217.0</ele><time>2026-04-25T13:34:34.448Z</time></trkpt><trkpt lat="43.0495362" lon="12.5952332"><ele>216.66666666666666</ele><time>2026-04-25T13:34:35.448Z</time></trkpt><trkpt lat="43.0494658" lon="12.5955235"><ele>216.33333333333331</ele><time>2026-04-25T13:34:36.448Z</time></trkpt><trkpt lat="43.0493965" lon="12.5958103"><ele>216.0</ele><time>2026-04-25T13:34:37.448Z</time></trkpt><trkpt lat="43.0493231" lon="12.5961065"><ele>217.0</ele><time>2026-04-25T13:34:38.448Z</time></trkpt><trkpt lat="43.0492534" lon="12.5963996"><ele>218.0</ele><time>2026-04-25T13:34:39.448Z</time></trkpt><trkpt lat="43.0491836" lon="12.5966915"><ele>216.5</ele><time>2026-04-25T13:34:40.449Z</time></trkpt><trkpt lat="43.0491096" lon="12.5969884"><ele>215.0</ele><time>2026-04-25T13:34:41.448Z</time></trkpt><trkpt lat="43.0490367" lon="12.5972924"><ele>215.0</ele><time>2026-04-25T13:34:42.448Z</time></trkpt><trkpt lat="43.0489734" lon="12.5975937"><ele>215.0</ele><time>2026-04-25T13:34:43.448Z</time></trkpt><trkpt lat="43.0489078" lon="12.5978977"><ele>214.5</ele><time>2026-04-25T13:34:44.448Z</time></trkpt><trkpt lat="43.0488441" lon="12.5982052"><ele>214.0</ele><time>2026-04-25T13:34:45.448Z</time></trkpt><trkpt lat="43.0487752" lon="12.5985166"><ele>215.5</ele><time>2026-04-25T13:34:46.448Z</time></trkpt><trkpt lat="43.0487042" lon="12.5988243"><ele>217.0</ele><time>2026-04-25T13:34:47.448Z</time></trkpt><trkpt lat="43.0486294" lon="12.599131"><ele>217.0</ele><time>2026-04-25T13:34:48.448Z</time></trkpt><trkpt lat="43.0485529" lon="12.5994386"><ele>217.0</ele><time>2026-04-25T13:34:49.448Z</time></trkpt><trkpt lat="43.0484734" lon="12.5997481"><ele>217.0</ele><time>2026-04-25T13:34:50.448Z</time></trkpt><trkpt lat="43.0483907" lon="12.6000523"><ele>217.0</ele><time>2026-04-25T13:34:51.448Z</time></trkpt><trkpt lat="43.0483082" lon="12.6003604"><ele>215.0</ele><time>2026-04-25T13:34:52.448Z</time></trkpt><trkpt lat="43.04822" lon="12.6006629"><ele>213.0</ele><time>2026-04-25T13:34:53.448Z</time></trkpt><trkpt lat="43.0481362" lon="12.6009632"><ele>213.0</ele><time>2026-04-25T13:34:54.448Z</time></trkpt><trkpt lat="43.048046" lon="12.6012687"><ele>213.0</ele><time>2026-04-25T13:34:55.448Z</time></trkpt><trkpt lat="43.0479468" lon="12.6015695"><ele>213.0</ele><time>2026-04-25T13:34:56.448Z</time></trkpt><trkpt lat="43.0478363" lon="12.6018647"><ele>213.0</ele><time>2026-04-25T13:34:57.448Z</time></trkpt><trkpt lat="43.0477257" lon="12.6021532"><ele>212.0</ele><time>2026-04-25T13:34:58.448Z</time></trkpt><trkpt lat="43.0476088" lon="12.6024435"><ele>211.0</ele><time>2026-04-25T13:34:59.448Z</time></trkpt><trkpt lat="43.0474887" lon="12.6027347"><ele>211.5</ele><time>2026-04-25T13:35:00.448Z</time></trkpt><trkpt lat="43.0473519" lon="12.6030105"><ele>212.0</ele><time>2026-04-25T13:35:01.448Z</time></trkpt><trkpt lat="43.0472156" lon="12.6032857"><ele>212.0</ele><time>2026-04-25T13:35:02.448Z</time></trkpt><trkpt lat="43.0470822" lon="12.6035562"><ele>212.0</ele><time>2026-04-25T13:35:03.448Z</time></trkpt><trkpt lat="43.0469549" lon="12.6038341"><ele>213.0</ele><time>2026-04-25T13:35:04.448Z</time></trkpt><trkpt lat="43.0468241" lon="12.6041099"><ele>214.0</ele><time>2026-04-25T13:35:05.449Z</time></trkpt><trkpt lat="43.0466965" lon="12.604382"><ele>214.0</ele><time>2026-04-25T13:35:06.448Z</time></trkpt><trkpt lat="43.0465686" lon="12.6046551"><ele>214.0</ele><time>2026-04-25T13:35:07.448Z</time></trkpt><trkpt lat="43.0464422" lon="12.6049217"><ele>214.0</ele><time>2026-04-25T13:35:08.448Z</time></trkpt><trkpt lat="43.04632" lon="12.6051923"><ele>214.0</ele><time>2026-04-25T13:35:09.448Z</time></trkpt><trkpt lat="43.0461891" lon="12.6054564"><ele>213.5</ele><time>2026-04-25T13:35:10.448Z</time></trkpt><trkpt lat="43.0460669" lon="12.6057241"><ele>213.0</ele><time>2026-04-25T13:35:11.448Z</time></trkpt><trkpt lat="43.0459414" lon="12.605988"><ele>212.5</ele><time>2026-04-25T13:35:12.448Z</time></trkpt><trkpt lat="43.0458129" lon="12.6062474"><ele>212.0</ele><time>2026-04-25T13:35:13.449Z</time></trkpt><trkpt lat="43.0456829" lon="12.6065085"><ele>212.0</ele><time>2026-04-25T13:35:14.448Z</time></trkpt><trkpt lat="43.0455553" lon="12.606771"><ele>212.0</ele><time>2026-04-25T13:35:15.449Z</time></trkpt><trkpt lat="43.0454304" lon="12.6070353"><ele>212.0</ele><time>2026-04-25T13:35:16.449Z</time></trkpt><trkpt lat="43.045304" lon="12.6073004"><ele>212.0</ele><time>2026-04-25T13:35:17.448Z</time></trkpt><trkpt lat="43.0451818" lon="12.6075659"><ele>212.5</ele><time>2026-04-25T13:35:18.448Z</time></trkpt><trkpt lat="43.0450574" lon="12.6078323"><ele>213.0</ele><time>2026-04-25T13:35:19.448Z</time></trkpt><trkpt lat="43.0449357" lon="12.6080979"><ele>212.0</ele><time>2026-04-25T13:35:20.448Z</time></trkpt><trkpt lat="43.0448108" lon="12.6083606"><ele>211.0</ele><time>2026-04-25T13:35:21.448Z</time></trkpt><trkpt lat="43.0446801" lon="12.6086196"><ele>211.0</ele><time>2026-04-25T13:35:22.448Z</time></trkpt><trkpt lat="43.0445557" lon="12.6088819"><ele>211.0</ele><time>2026-04-25T13:35:23.448Z</time></trkpt><trkpt lat="43.0444294" lon="12.6091427"><ele>211.0</ele><time>2026-04-25T13:35:24.448Z</time></trkpt><trkpt lat="43.0443027" lon="12.6094048"><ele>211.0</ele><time>2026-04-25T13:35:25.448Z</time></trkpt><trkpt lat="43.0441827" lon="12.6096769"><ele>210.0</ele><time>2026-04-25T13:35:26.448Z</time></trkpt><trkpt lat="43.0440588" lon="12.6099416"><ele>209.0</ele><time>2026-04-25T13:35:27.448Z</time></trkpt><trkpt lat="43.0439376" lon="12.6102044"><ele>209.5</ele><time>2026-04-25T13:35:28.448Z</time></trkpt><trkpt lat="43.0438074" lon="12.6104694"><ele>210.0</ele><time>2026-04-25T13:35:29.448Z</time></trkpt><trkpt lat="43.043681" lon="12.6107375"><ele>210.0</ele><time>2026-04-25T13:35:30.448Z</time></trkpt><trkpt lat="43.0435519" lon="12.6109972"><ele>210.0</ele><time>2026-04-25T13:35:31.449Z</time></trkpt><trkpt lat="43.0434238" lon="12.6112611"><ele>208.0</ele><time>2026-04-25T13:35:32.448Z</time></trkpt><trkpt lat="43.0432907" lon="12.61153"><ele>206.0</ele><time>2026-04-25T13:35:33.448Z</time></trkpt><trkpt lat="43.0431618" lon="12.6117979"><ele>206.0</ele><time>2026-04-25T13:35:34.448Z</time></trkpt><trkpt lat="43.0430378" lon="12.6120687"><ele>206.0</ele><time>2026-04-25T13:35:35.448Z</time></trkpt><trkpt lat="43.0429114" lon="12.6123381"><ele>206.0</ele><time>2026-04-25T13:35:36.449Z</time></trkpt><trkpt lat="43.0427757" lon="12.6126019"><ele>206.0</ele><time>2026-04-25T13:35:37.449Z</time></trkpt><trkpt lat="43.042644" lon="12.6128759"><ele>206.5</ele><time>2026-04-25T13:35:38.449Z</time></trkpt><trkpt lat="43.0425169" lon="12.6131406"><ele>207.0</ele><time>2026-04-25T13:35:39.449Z</time></trkpt><trkpt lat="43.0423913" lon="12.613417"><ele>205.5</ele><time>2026-04-25T13:35:40.448Z</time></trkpt><trkpt lat="43.042252" lon="12.6136893"><ele>204.0</ele><time>2026-04-25T13:35:41.448Z</time></trkpt><trkpt lat="43.0421205" lon="12.6139613"><ele>204.0</ele><time>2026-04-25T13:35:42.448Z</time></trkpt><trkpt lat="43.0419877" lon="12.6142405"><ele>204.0</ele><time>2026-04-25T13:35:43.448Z</time></trkpt><trkpt lat="43.0418605" lon="12.6145226"><ele>204.5</ele><time>2026-04-25T13:35:44.448Z</time></trkpt><trkpt lat="43.0417361" lon="12.614799"><ele>205.0</ele><time>2026-04-25T13:35:45.449Z</time></trkpt><trkpt lat="43.0416063" lon="12.6150834"><ele>205.5</ele><time>2026-04-25T13:35:46.448Z</time></trkpt><trkpt lat="43.0414813" lon="12.6153689"><ele>206.0</ele><time>2026-04-25T13:35:47.449Z</time></trkpt><trkpt lat="43.0413468" lon="12.6156481"><ele>206.0</ele><time>2026-04-25T13:35:48.449Z</time></trkpt><trkpt lat="43.041209" lon="12.6159265"><ele>206.0</ele><time>2026-04-25T13:35:49.448Z</time></trkpt><trkpt lat="43.0410741" lon="12.6162064"><ele>205.5</ele><time>2026-04-25T13:35:50.448Z</time></trkpt><trkpt lat="43.0409469" lon="12.6164867"><ele>205.0</ele><time>2026-04-25T13:35:51.448Z</time></trkpt><trkpt lat="43.0408109" lon="12.6167734"><ele>205.0</ele><time>2026-04-25T13:35:52.448Z</time></trkpt><trkpt lat="43.0406775" lon="12.6170507"><ele>205.0</ele><time>2026-04-25T13:35:53.448Z</time></trkpt><trkpt lat="43.0405391" lon="12.6173313"><ele>205.0</ele><time>2026-04-25T13:35:54.448Z</time></trkpt><trkpt lat="43.0404074" lon="12.6176098"><ele>205.0</ele><time>2026-04-25T13:35:55.448Z</time></trkpt><trkpt lat="43.0402742" lon="12.6178955"><ele>206.0</ele><time>2026-04-25T13:35:56.448Z</time></trkpt><trkpt lat="43.0401436" lon="12.6181813"><ele>207.0</ele><time>2026-04-25T13:35:57.448Z</time></trkpt><trkpt lat="43.0400163" lon="12.618456"><ele>205.5</ele><time>2026-04-25T13:35:58.448Z</time></trkpt><trkpt lat="43.0398803" lon="12.6187307"><ele>204.0</ele><time>2026-04-25T13:35:59.448Z</time></trkpt><trkpt lat="43.0397505" lon="12.6190037"><ele>204.0</ele><time>2026-04-25T13:36:00.449Z</time></trkpt><trkpt lat="43.0396188" lon="12.619279"><ele>204.0</ele><time>2026-04-25T13:36:01.448Z</time></trkpt><trkpt lat="43.0394917" lon="12.6195562"><ele>205.5</ele><time>2026-04-25T13:36:02.448Z</time></trkpt><trkpt lat="43.0393595" lon="12.6198298"><ele>207.0</ele><time>2026-04-25T13:36:03.448Z</time></trkpt><trkpt lat="43.0392251" lon="12.6201016"><ele>206.5</ele><time>2026-04-25T13:36:04.448Z</time></trkpt><trkpt lat="43.0390914" lon="12.6203769"><ele>206.0</ele><time>2026-04-25T13:36:05.448Z</time></trkpt><trkpt lat="43.0389654" lon="12.620661"><ele>206.0</ele><time>2026-04-25T13:36:06.448Z</time></trkpt><trkpt lat="43.0388306" lon="12.6209371"><ele>206.0</ele><time>2026-04-25T13:36:07.448Z</time></trkpt><trkpt lat="43.0386999" lon="12.6212188"><ele>206.5</ele><time>2026-04-25T13:36:08.448Z</time></trkpt><trkpt lat="43.0385683" lon="12.6214938"><ele>207.0</ele><time>2026-04-25T13:36:09.448Z</time></trkpt><trkpt lat="43.0384356" lon="12.6217671"><ele>207.0</ele><time>2026-04-25T13:36:10.448Z</time></trkpt><trkpt lat="43.038306" lon="12.6220429"><ele>207.0</ele><time>2026-04-25T13:36:11.448Z</time></trkpt><trkpt lat="43.0381762" lon="12.6223135"><ele>207.0</ele><time>2026-04-25T13:36:12.448Z</time></trkpt><trkpt lat="43.0380466" lon="12.6225881"><ele>207.0</ele><time>2026-04-25T13:36:13.448Z</time></trkpt><trkpt lat="43.0379153" lon="12.6228586"><ele>208.0</ele><time>2026-04-25T13:36:14.448Z</time></trkpt><trkpt lat="43.0377819" lon="12.6231309"><ele>209.0</ele><time>2026-04-25T13:36:15.448Z</time></trkpt><trkpt lat="43.0376548" lon="12.6234046"><ele>209.5</ele><time>2026-04-25T13:36:16.448Z</time></trkpt><trkpt lat="43.0375244" lon="12.6236791"><ele>210.0</ele><time>2026-04-25T13:36:17.448Z</time></trkpt><trkpt lat="43.0373964" lon="12.6239599"><ele>209.0</ele><time>2026-04-25T13:36:18.448Z</time></trkpt><trkpt lat="43.0372678" lon="12.6242325"><ele>208.0</ele><time>2026-04-25T13:36:19.448Z</time></trkpt><trkpt lat="43.0371333" lon="12.6245088"><ele>208.0</ele><time>2026-04-25T13:36:20.448Z</time></trkpt><trkpt lat="43.0370025" lon="12.6247876"><ele>208.0</ele><time>2026-04-25T13:36:21.448Z</time></trkpt><trkpt lat="43.0368722" lon="12.6250574"><ele>207.5</ele><time>2026-04-25T13:36:22.449Z</time></trkpt><trkpt lat="43.0367413" lon="12.6253362"><ele>207.0</ele><time>2026-04-25T13:36:23.448Z</time></trkpt><trkpt lat="43.0366108" lon="12.6256203"><ele>207.0</ele><time>2026-04-25T13:36:24.449Z</time></trkpt><trkpt lat="43.0364748" lon="12.6259004"><ele>207.0</ele><time>2026-04-25T13:36:25.448Z</time></trkpt><trkpt lat="43.0363379" lon="12.6261808"><ele>208.5</ele><time>2026-04-25T13:36:26.448Z</time></trkpt><trkpt lat="43.0362044" lon="12.6264641"><ele>210.0</ele><time>2026-04-25T13:36:27.448Z</time></trkpt><trkpt lat="43.0360718" lon="12.6267432"><ele>210.0</ele><time>2026-04-25T13:36:28.448Z</time></trkpt><trkpt lat="43.0359377" lon="12.6270192"><ele>210.0</ele><time>2026-04-25T13:36:29.448Z</time></trkpt><trkpt lat="43.0358053" lon="12.6272993"><ele>209.0</ele><time>2026-04-25T13:36:30.448Z</time></trkpt><trkpt lat="43.0356746" lon="12.6275813"><ele>208.0</ele><time>2026-04-25T13:36:31.448Z</time></trkpt><trkpt lat="43.035538" lon="12.6278598"><ele>208.0</ele><time>2026-04-25T13:36:32.448Z</time></trkpt><trkpt lat="43.0354006" lon="12.6281342"><ele>208.0</ele><time>2026-04-25T13:36:33.448Z</time></trkpt><trkpt lat="43.035248" lon="12.6283947"><ele>208.0</ele><time>2026-04-25T13:36:34.448Z</time></trkpt><trkpt lat="43.0350897" lon="12.6286483"><ele>208.0</ele><time>2026-04-25T13:36:35.448Z</time></trkpt><trkpt lat="43.0349211" lon="12.628891"><ele>208.0</ele><time>2026-04-25T13:36:36.448Z</time></trkpt><trkpt lat="43.0347436" lon="12.6291246"><ele>208.0</ele><time>2026-04-25T13:36:37.449Z</time></trkpt><trkpt lat="43.0345562" lon="12.6293452"><ele>210.0</ele><time>2026-04-25T13:36:38.448Z</time></trkpt><trkpt lat="43.0343599" lon="12.629555"><ele>212.0</ele><time>2026-04-25T13:36:39.449Z</time></trkpt><trkpt lat="43.0341624" lon="12.629758"><ele>209.0</ele><time>2026-04-25T13:36:40.449Z</time></trkpt><trkpt lat="43.0339575" lon="12.6299533"><ele>206.0</ele><time>2026-04-25T13:36:41.448Z</time></trkpt><trkpt lat="43.033751" lon="12.6301361"><ele>207.5</ele><time>2026-04-25T13:36:42.449Z</time></trkpt><trkpt lat="43.0335488" lon="12.6303265"><ele>209.0</ele><time>2026-04-25T13:36:43.449Z</time></trkpt><trkpt lat="43.0333466" lon="12.6305126"><ele>206.5</ele><time>2026-04-25T13:36:44.448Z</time></trkpt><trkpt lat="43.0331431" lon="12.6307006"><ele>204.0</ele><time>2026-04-25T13:36:45.449Z</time></trkpt><trkpt lat="43.0329432" lon="12.6308825"><ele>204.0</ele><time>2026-04-25T13:36:46.448Z</time></trkpt><trkpt lat="43.0327434" lon="12.6310646"><ele>204.0</ele><time>2026-04-25T13:36:47.448Z</time></trkpt><trkpt lat="43.0325417" lon="12.6312458"><ele>203.5</ele><time>2026-04-25T13:36:48.448Z</time></trkpt><trkpt lat="43.0323392" lon="12.6314289"><ele>203.0</ele><time>2026-04-25T13:36:49.448Z</time></trkpt><trkpt lat="43.0321357" lon="12.6316163"><ele>203.0</ele><time>2026-04-25T13:36:50.449Z</time></trkpt><trkpt lat="43.0319291" lon="12.6318044"><ele>203.0</ele><time>2026-04-25T13:36:51.448Z</time></trkpt><trkpt lat="43.0317213" lon="12.6319901"><ele>203.5</ele><time>2026-04-25T13:36:52.449Z</time></trkpt><trkpt lat="43.0315143" lon="12.6321808"><ele>204.0</ele><time>2026-04-25T13:36:53.448Z</time></trkpt><trkpt lat="43.0313084" lon="12.6323736"><ele>204.0</ele><time>2026-04-25T13:36:54.448Z</time></trkpt><trkpt lat="43.0310984" lon="12.6325707"><ele>204.0</ele><time>2026-04-25T13:36:55.448Z</time></trkpt><trkpt lat="43.0308888" lon="12.6327642"><ele>203.5</ele><time>2026-04-25T13:36:56.448Z</time></trkpt><trkpt lat="43.0306765" lon="12.6329583"><ele>203.0</ele><time>2026-04-25T13:36:57.448Z</time></trkpt><trkpt lat="43.0304695" lon="12.6331428"><ele>203.0</ele><time>2026-04-25T13:36:58.449Z</time></trkpt><trkpt lat="43.0302576" lon="12.6333303"><ele>203.0</ele><time>2026-04-25T13:36:59.448Z</time></trkpt><trkpt lat="43.0300467" lon="12.6335268"><ele>203.0</ele><time>2026-04-25T13:37:00.448Z</time></trkpt><trkpt lat="43.0298367" lon="12.6337168"><ele>203.0</ele><time>2026-04-25T13:37:01.448Z</time></trkpt><trkpt lat="43.0296295" lon="12.6339112"><ele>203.0</ele><time>2026-04-25T13:37:02.448Z</time></trkpt><trkpt lat="43.0294209" lon="12.6341125"><ele>203.0</ele><time>2026-04-25T13:37:03.448Z</time></trkpt><trkpt lat="43.0292137" lon="12.6343107"><ele>202.0</ele><time>2026-04-25T13:37:04.448Z</time></trkpt><trkpt lat="43.0290057" lon="12.6345072"><ele>201.0</ele><time>2026-04-25T13:37:05.449Z</time></trkpt><trkpt lat="43.0287942" lon="12.6346988"><ele>201.0</ele><time>2026-04-25T13:37:06.448Z</time></trkpt><trkpt lat="43.0285805" lon="12.6348922"><ele>201.0</ele><time>2026-04-25T13:37:07.449Z</time></trkpt><trkpt lat="43.0283734" lon="12.6350754"><ele>200.0</ele><time>2026-04-25T13:37:08.448Z</time></trkpt><trkpt lat="43.028164" lon="12.6352698"><ele>199.0</ele><time>2026-04-25T13:37:09.448Z</time></trkpt><trkpt lat="43.0279559" lon="12.6354631"><ele>199.0</ele><time>2026-04-25T13:37:10.449Z</time></trkpt><trkpt lat="43.0277431" lon="12.6356521"><ele>199.0</ele><time>2026-04-25T13:37:11.449Z</time></trkpt><trkpt lat="43.0275366" lon="12.6358461"><ele>199.5</ele><time>2026-04-25T13:37:12.448Z</time></trkpt><trkpt lat="43.0273279" lon="12.6360384"><ele>200.0</ele><time>2026-04-25T13:37:13.448Z</time></trkpt><trkpt lat="43.0271198" lon="12.6362369"><ele>200.0</ele><time>2026-04-25T13:37:14.448Z</time></trkpt><trkpt lat="43.0269122" lon="12.6364273"><ele>200.0</ele><time>2026-04-25T13:37:15.448Z</time></trkpt><trkpt lat="43.0267037" lon="12.6366214"><ele>198.5</ele><time>2026-04-25T13:37:16.448Z</time></trkpt><trkpt lat="43.0264868" lon="12.6368118"><ele>197.0</ele><time>2026-04-25T13:37:17.448Z</time></trkpt><trkpt lat="43.0262759" lon="12.6370029"><ele>197.0</ele><time>2026-04-25T13:37:18.448Z</time></trkpt><trkpt lat="43.0260652" lon="12.6372005"><ele>197.0</ele><time>2026-04-25T13:37:19.449Z</time></trkpt><trkpt lat="43.0258558" lon="12.6373972"><ele>196.0</ele><time>2026-04-25T13:37:20.448Z</time></trkpt><trkpt lat="43.0256442" lon="12.637597"><ele>195.0</ele><time>2026-04-25T13:37:21.448Z</time></trkpt><trkpt lat="43.0254345" lon="12.6377974"><ele>197.5</ele><time>2026-04-25T13:37:22.448Z</time></trkpt><trkpt lat="43.0252168" lon="12.6379998"><ele>200.0</ele><time>2026-04-25T13:37:23.448Z</time></trkpt><trkpt lat="43.025006" lon="12.6381897"><ele>199.0</ele><time>2026-04-25T13:37:24.448Z</time></trkpt><trkpt lat="43.0247914" lon="12.638379"><ele>198.0</ele><time>2026-04-25T13:37:25.448Z</time></trkpt><trkpt lat="43.0245783" lon="12.6385768"><ele>200.0</ele><time>2026-04-25T13:37:26.448Z</time></trkpt><trkpt lat="43.0243633" lon="12.6387622"><ele>202.0</ele><time>2026-04-25T13:37:27.448Z</time></trkpt><trkpt lat="43.0241492" lon="12.6389588"><ele>201.0</ele><time>2026-04-25T13:37:28.448Z</time></trkpt><trkpt lat="43.0239374" lon="12.6391542"><ele>200.0</ele><time>2026-04-25T13:37:29.448Z</time></trkpt><trkpt lat="43.0237259" lon="12.6393497"><ele>201.0</ele><time>2026-04-25T13:37:30.448Z</time></trkpt><trkpt lat="43.0235128" lon="12.6395486"><ele>202.0</ele><time>2026-04-25T13:37:31.448Z</time></trkpt><trkpt lat="43.0233088" lon="12.6397484"><ele>202.5</ele><time>2026-04-25T13:37:32.448Z</time></trkpt><trkpt lat="43.023098" lon="12.6399411"><ele>203.0</ele><time>2026-04-25T13:37:33.448Z</time></trkpt><trkpt lat="43.0228849" lon="12.6401379"><ele>203.5</ele><time>2026-04-25T13:37:34.448Z</time></trkpt><trkpt lat="43.0226764" lon="12.6403345"><ele>204.0</ele><time>2026-04-25T13:37:35.449Z</time></trkpt><trkpt lat="43.0224658" lon="12.6405346"><ele>204.0</ele><time>2026-04-25T13:37:36.448Z</time></trkpt><trkpt lat="43.0222564" lon="12.6407331"><ele>204.0</ele><time>2026-04-25T13:37:37.448Z</time></trkpt><trkpt lat="43.0220534" lon="12.6409366"><ele>205.5</ele><time>2026-04-25T13:37:38.449Z</time></trkpt><trkpt lat="43.0218476" lon="12.6411394"><ele>207.0</ele><time>2026-04-25T13:37:39.448Z</time></trkpt><trkpt lat="43.0216504" lon="12.6413453"><ele>208.0</ele><time>2026-04-25T13:37:40.448Z</time></trkpt><trkpt lat="43.0214573" lon="12.6415574"><ele>209.0</ele><time>2026-04-25T13:37:41.448Z</time></trkpt><trkpt lat="43.0212681" lon="12.6417819"><ele>209.5</ele><time>2026-04-25T13:37:42.448Z</time></trkpt><trkpt lat="43.021078" lon="12.6420047"><ele>210.0</ele><time>2026-04-25T13:37:43.448Z</time></trkpt><trkpt lat="43.0208902" lon="12.6422376"><ele>210.0</ele><time>2026-04-25T13:37:44.448Z</time></trkpt><trkpt lat="43.0207052" lon="12.6424719"><ele>210.0</ele><time>2026-04-25T13:37:45.448Z</time></trkpt><trkpt lat="43.0205233" lon="12.642707"><ele>210.5</ele><time>2026-04-25T13:37:46.448Z</time></trkpt><trkpt lat="43.0203428" lon="12.6429517"><ele>211.0</ele><time>2026-04-25T13:37:47.448Z</time></trkpt><trkpt lat="43.0201628" lon="12.6431949"><ele>210.0</ele><time>2026-04-25T13:37:48.449Z</time></trkpt><trkpt lat="43.0199813" lon="12.6434319"><ele>209.0</ele><time>2026-04-25T13:37:49.448Z</time></trkpt><trkpt lat="43.0197979" lon="12.6436804"><ele>209.0</ele><time>2026-04-25T13:37:50.448Z</time></trkpt><trkpt lat="43.0196145" lon="12.6439277"><ele>209.0</ele><time>2026-04-25T13:37:51.448Z</time></trkpt><trkpt lat="43.0194315" lon="12.6441687"><ele>209.0</ele><time>2026-04-25T13:37:52.448Z</time></trkpt><trkpt lat="43.0192453" lon="12.6444191"><ele>209.0</ele><time>2026-04-25T13:37:53.448Z</time></trkpt><trkpt lat="43.0190587" lon="12.6446745"><ele>209.0</ele><time>2026-04-25T13:37:54.448Z</time></trkpt><trkpt lat="43.0188668" lon="12.6449201"><ele>209.0</ele><time>2026-04-25T13:37:55.448Z</time></trkpt><trkpt lat="43.0186774" lon="12.6451749"><ele>209.5</ele><time>2026-04-25T13:37:56.448Z</time></trkpt><trkpt lat="43.0184955" lon="12.6454246"><ele>210.0</ele><time>2026-04-25T13:37:57.448Z</time></trkpt><trkpt lat="43.0183074" lon="12.6456763"><ele>209.5</ele><time>2026-04-25T13:37:58.448Z</time></trkpt><trkpt lat="43.0181179" lon="12.6459276"><ele>209.0</ele><time>2026-04-25T13:37:59.448Z</time></trkpt><trkpt lat="43.0179359" lon="12.646176"><ele>209.0</ele><time>2026-04-25T13:38:00.449Z</time></trkpt><trkpt lat="43.0177517" lon="12.6464287"><ele>209.0</ele><time>2026-04-25T13:38:01.448Z</time></trkpt><trkpt lat="43.0175672" lon="12.6466721"><ele>208.0</ele><time>2026-04-25T13:38:02.448Z</time></trkpt><trkpt lat="43.0173895" lon="12.646921"><ele>207.0</ele><time>2026-04-25T13:38:03.448Z</time></trkpt><trkpt lat="43.0172124" lon="12.6471722"><ele>207.0</ele><time>2026-04-25T13:38:04.448Z</time></trkpt><trkpt lat="43.0170332" lon="12.6474251"><ele>207.0</ele><time>2026-04-25T13:38:05.448Z</time></trkpt><trkpt lat="43.0168529" lon="12.6476724"><ele>207.0</ele><time>2026-04-25T13:38:06.448Z</time></trkpt><trkpt lat="43.0166746" lon="12.6479235"><ele>207.0</ele><time>2026-04-25T13:38:07.449Z</time></trkpt><trkpt lat="43.0164933" lon="12.6481678"><ele>207.0</ele><time>2026-04-25T13:38:08.448Z</time></trkpt><trkpt lat="43.0163183" lon="12.6484181"><ele>207.0</ele><time>2026-04-25T13:38:09.449Z</time></trkpt><trkpt lat="43.0161425" lon="12.6486632"><ele>207.0</ele><time>2026-04-25T13:38:10.449Z</time></trkpt><trkpt lat="43.0159597" lon="12.6489157"><ele>207.0</ele><time>2026-04-25T13:38:11.448Z</time></trkpt><trkpt lat="43.0157817" lon="12.6491652"><ele>205.5</ele><time>2026-04-25T13:38:12.448Z</time></trkpt><trkpt lat="43.0155995" lon="12.6494089"><ele>204.0</ele><time>2026-04-25T13:38:13.449Z</time></trkpt><trkpt lat="43.0154187" lon="12.6496539"><ele>204.0</ele><time>2026-04-25T13:38:14.449Z</time></trkpt><trkpt lat="43.0152392" lon="12.6499018"><ele>204.0</ele><time>2026-04-25T13:38:15.448Z</time></trkpt><trkpt lat="43.0150559" lon="12.6501518"><ele>203.0</ele><time>2026-04-25T13:38:16.448Z</time></trkpt><trkpt lat="43.0148732" lon="12.6503974"><ele>202.0</ele><time>2026-04-25T13:38:17.448Z</time></trkpt><trkpt lat="43.0146886" lon="12.6506479"><ele>202.0</ele><time>2026-04-25T13:38:18.448Z</time></trkpt><trkpt lat="43.0145004" lon="12.6509007"><ele>202.0</ele><time>2026-04-25T13:38:19.448Z</time></trkpt><trkpt lat="43.0143119" lon="12.6511529"><ele>201.0</ele><time>2026-04-25T13:38:20.448Z</time></trkpt><trkpt lat="43.0141182" lon="12.6513956"><ele>200.0</ele><time>2026-04-25T13:38:21.448Z</time></trkpt><trkpt lat="43.0139226" lon="12.6516327"><ele>200.0</ele><time>2026-04-25T13:38:22.449Z</time></trkpt><trkpt lat="43.0137174" lon="12.6518551"><ele>200.0</ele><time>2026-04-25T13:38:23.448Z</time></trkpt><trkpt lat="43.013512" lon="12.6520822"><ele>200.0</ele><time>2026-04-25T13:38:24.448Z</time></trkpt><trkpt lat="43.0133032" lon="12.6522978"><ele>200.0</ele><time>2026-04-25T13:38:25.448Z</time></trkpt><trkpt lat="43.0130957" lon="12.6525148"><ele>200.0</ele><time>2026-04-25T13:38:26.448Z</time></trkpt><trkpt lat="43.012885" lon="12.6527259"><ele>200.0</ele><time>2026-04-25T13:38:27.448Z</time></trkpt><trkpt lat="43.0126686" lon="12.6529269"><ele>201.0</ele><time>2026-04-25T13:38:28.449Z</time></trkpt><trkpt lat="43.0124546" lon="12.6531276"><ele>202.0</ele><time>2026-04-25T13:38:29.448Z</time></trkpt><trkpt lat="43.012241" lon="12.6533248"><ele>202.0</ele><time>2026-04-25T13:38:30.448Z</time></trkpt><trkpt lat="43.0120298" lon="12.6535134"><ele>202.0</ele><time>2026-04-25T13:38:31.448Z</time></trkpt><trkpt lat="43.0118197" lon="12.6537004"><ele>201.5</ele><time>2026-04-25T13:38:32.448Z</time></trkpt><trkpt lat="43.0116104" lon="12.6538967"><ele>201.0</ele><time>2026-04-25T13:38:33.448Z</time></trkpt><trkpt lat="43.0114067" lon="12.6540889"><ele>201.0</ele><time>2026-04-25T13:38:34.448Z</time></trkpt><trkpt lat="43.0112133" lon="12.6542696"><ele>201.0</ele><time>2026-04-25T13:38:35.448Z</time></trkpt><trkpt lat="43.0110242" lon="12.654444"><ele>201.0</ele><time>2026-04-25T13:38:36.448Z</time></trkpt><trkpt lat="43.0108572" lon="12.6545837"><ele>201.0</ele><time>2026-04-25T13:38:37.448Z</time></trkpt><trkpt lat="43.0106939" lon="12.6547355"><ele>201.0</ele><time>2026-04-25T13:38:38.448Z</time></trkpt><trkpt lat="43.0105237" lon="12.6548902"><ele>201.0</ele><time>2026-04-25T13:38:39.448Z</time></trkpt><trkpt lat="43.0103546" lon="12.6550406"><ele>201.0</ele><time>2026-04-25T13:38:40.448Z</time></trkpt><trkpt lat="43.0101867" lon="12.65519"><ele>201.0</ele><time>2026-04-25T13:38:41.448Z</time></trkpt><trkpt lat="43.0100199" lon="12.6553399"><ele>201.33333333333331</ele><time>2026-04-25T13:38:42.448Z</time></trkpt><trkpt lat="43.0098495" lon="12.6554988"><ele>201.66666666666666</ele><time>2026-04-25T13:38:43.448Z</time></trkpt><trkpt lat="43.0096753" lon="12.6556527"><ele>202.0</ele><time>2026-04-25T13:38:44.448Z</time></trkpt><trkpt lat="43.0095057" lon="12.655811"><ele>202.0</ele><time>2026-04-25T13:38:45.448Z</time></trkpt><trkpt lat="43.0093279" lon="12.6559697"><ele>202.0</ele><time>2026-04-25T13:38:46.448Z</time></trkpt><trkpt lat="43.0091488" lon="12.656127"><ele>202.0</ele><time>2026-04-25T13:38:47.448Z</time></trkpt><trkpt lat="43.0089717" lon="12.656275"><ele>202.33333333333331</ele><time>2026-04-25T13:38:48.448Z</time></trkpt><trkpt lat="43.0087913" lon="12.6564405"><ele>202.66666666666669</ele><time>2026-04-25T13:38:49.448Z</time></trkpt><trkpt lat="43.008606" lon="12.6565891"><ele>203.0</ele><time>2026-04-25T13:38:50.448Z</time></trkpt><trkpt lat="43.0084254" lon="12.6567447"><ele>203.0</ele><time>2026-04-25T13:38:51.448Z</time></trkpt><trkpt lat="43.0082337" lon="12.6569145"><ele>203.0</ele><time>2026-04-25T13:38:52.448Z</time></trkpt><trkpt lat="43.0080448" lon="12.6570877"><ele>203.0</ele><time>2026-04-25T13:38:53.448Z</time></trkpt><trkpt lat="43.0078553" lon="12.6572605"><ele>203.0</ele><time>2026-04-25T13:38:54.448Z</time></trkpt><trkpt lat="43.0076624" lon="12.6574377"><ele>202.0</ele><time>2026-04-25T13:38:55.449Z</time></trkpt><trkpt lat="43.0074691" lon="12.6576204"><ele>201.0</ele><time>2026-04-25T13:38:56.449Z</time></trkpt><trkpt lat="43.007279" lon="12.657797"><ele>204.0</ele><time>2026-04-25T13:38:57.448Z</time></trkpt><trkpt lat="43.0070752" lon="12.6579769"><ele>207.0</ele><time>2026-04-25T13:38:58.448Z</time></trkpt><trkpt lat="43.0068739" lon="12.6581547"><ele>207.0</ele><time>2026-04-25T13:38:59.448Z</time></trkpt><trkpt lat="43.0066748" lon="12.6583407"><ele>207.0</ele><time>2026-04-25T13:39:00.448Z</time></trkpt><trkpt lat="43.0064723" lon="12.6585256"><ele>207.5</ele><time>2026-04-25T13:39:01.448Z</time></trkpt><trkpt lat="43.0062636" lon="12.6587107"><ele>208.0</ele><time>2026-04-25T13:39:02.449Z</time></trkpt><trkpt lat="43.006052" lon="12.6588878"><ele>208.0</ele><time>2026-04-25T13:39:03.449Z</time></trkpt><trkpt lat="43.0058403" lon="12.6590614"><ele>208.0</ele><time>2026-04-25T13:39:04.448Z</time></trkpt><trkpt lat="43.0056253" lon="12.6592221"><ele>207.0</ele><time>2026-04-25T13:39:05.448Z</time></trkpt><trkpt lat="43.0054008" lon="12.659382"><ele>206.0</ele><time>2026-04-25T13:39:06.448Z</time></trkpt><trkpt lat="43.0051703" lon="12.6595292"><ele>205.0</ele><time>2026-04-25T13:39:07.448Z</time></trkpt><trkpt lat="43.0049389" lon="12.6596775"><ele>204.0</ele><time>2026-04-25T13:39:08.448Z</time></trkpt><trkpt lat="43.0047015" lon="12.6598126"><ele>204.0</ele><time>2026-04-25T13:39:09.448Z</time></trkpt><trkpt lat="43.0044661" lon="12.659939"><ele>204.0</ele><time>2026-04-25T13:39:10.448Z</time></trkpt><trkpt lat="43.0042238" lon="12.6600622"><ele>202.5</ele><time>2026-04-25T13:39:11.448Z</time></trkpt><trkpt lat="43.0039804" lon="12.6601831"><ele>201.0</ele><time>2026-04-25T13:39:12.448Z</time></trkpt><trkpt lat="43.0037417" lon="12.6602746"><ele>203.0</ele><time>2026-04-25T13:39:13.448Z</time></trkpt><trkpt lat="43.0034982" lon="12.6603604"><ele>205.0</ele><time>2026-04-25T13:39:14.448Z</time></trkpt><trkpt lat="43.0032472" lon="12.6604375"><ele>205.0</ele><time>2026-04-25T13:39:15.448Z</time></trkpt><trkpt lat="43.0029967" lon="12.6605031"><ele>205.0</ele><time>2026-04-25T13:39:16.448Z</time></trkpt><trkpt lat="43.0027462" lon="12.6605663"><ele>205.0</ele><time>2026-04-25T13:39:17.448Z</time></trkpt><trkpt lat="43.0024983" lon="12.6606315"><ele>205.0</ele><time>2026-04-25T13:39:18.449Z</time></trkpt><trkpt lat="43.0022471" lon="12.6606963"><ele>205.0</ele><time>2026-04-25T13:39:19.449Z</time></trkpt><trkpt lat="43.0019985" lon="12.6607541"><ele>205.0</ele><time>2026-04-25T13:39:20.449Z</time></trkpt><trkpt lat="43.0017447" lon="12.660816"><ele>206.5</ele><time>2026-04-25T13:39:21.448Z</time></trkpt><trkpt lat="43.0014937" lon="12.660879"><ele>208.0</ele><time>2026-04-25T13:39:22.448Z</time></trkpt><trkpt lat="43.0012388" lon="12.6609357"><ele>208.0</ele><time>2026-04-25T13:39:23.448Z</time></trkpt><trkpt lat="43.0009958" lon="12.6609952"><ele>208.0</ele><time>2026-04-25T13:39:24.448Z</time></trkpt><trkpt lat="43.0007395" lon="12.6610438"><ele>208.5</ele><time>2026-04-25T13:39:25.448Z</time></trkpt><trkpt lat="43.0004862" lon="12.6610947"><ele>209.0</ele><time>2026-04-25T13:39:26.449Z</time></trkpt><trkpt lat="43.0002331" lon="12.661163"><ele>209.0</ele><time>2026-04-25T13:39:27.448Z</time></trkpt><trkpt lat="42.9999799" lon="12.6612227"><ele>209.0</ele><time>2026-04-25T13:39:28.448Z</time></trkpt><trkpt lat="42.9997322" lon="12.6612741"><ele>209.0</ele><time>2026-04-25T13:39:29.448Z</time></trkpt><trkpt lat="42.9994775" lon="12.6613343"><ele>209.0</ele><time>2026-04-25T13:39:30.448Z</time></trkpt><trkpt lat="42.999225" lon="12.6613919"><ele>209.0</ele><time>2026-04-25T13:39:31.448Z</time></trkpt><trkpt lat="42.9989803" lon="12.6614499"><ele>209.0</ele><time>2026-04-25T13:39:32.448Z</time></trkpt><trkpt lat="42.998735" lon="12.6615094"><ele>209.0</ele><time>2026-04-25T13:39:33.448Z</time></trkpt><trkpt lat="42.9984844" lon="12.6615636"><ele>209.0</ele><time>2026-04-25T13:39:34.448Z</time></trkpt><trkpt lat="42.9982356" lon="12.6616059"><ele>209.5</ele><time>2026-04-25T13:39:35.448Z</time></trkpt><trkpt lat="42.9979933" lon="12.6616703"><ele>210.0</ele><time>2026-04-25T13:39:36.448Z</time></trkpt><trkpt lat="42.9977438" lon="12.6617306"><ele>209.0</ele><time>2026-04-25T13:39:37.448Z</time></trkpt><trkpt lat="42.9975005" lon="12.6617851"><ele>208.0</ele><time>2026-04-25T13:39:38.448Z</time></trkpt><trkpt lat="42.9972505" lon="12.6618402"><ele>208.0</ele><time>2026-04-25T13:39:39.448Z</time></trkpt><trkpt lat="42.9969965" lon="12.6618986"><ele>208.0</ele><time>2026-04-25T13:39:40.448Z</time></trkpt><trkpt lat="42.9967435" lon="12.6619596"><ele>208.0</ele><time>2026-04-25T13:39:41.449Z</time></trkpt><trkpt lat="42.9964954" lon="12.6620267"><ele>208.0</ele><time>2026-04-25T13:39:42.448Z</time></trkpt><trkpt lat="42.9962454" lon="12.6621007"><ele>208.0</ele><time>2026-04-25T13:39:43.448Z</time></trkpt><trkpt lat="42.9960009" lon="12.6621893"><ele>208.0</ele><time>2026-04-25T13:39:44.449Z</time></trkpt><trkpt lat="42.9957654" lon="12.6622915"><ele>208.5</ele><time>2026-04-25T13:39:45.448Z</time></trkpt><trkpt lat="42.9955277" lon="12.6623941"><ele>209.0</ele><time>2026-04-25T13:39:46.448Z</time></trkpt><trkpt lat="42.9952948" lon="12.6625104"><ele>209.0</ele><time>2026-04-25T13:39:47.448Z</time></trkpt><trkpt lat="42.9950643" lon="12.6626358"><ele>209.0</ele><time>2026-04-25T13:39:48.448Z</time></trkpt><trkpt lat="42.9948295" lon="12.6627683"><ele>209.0</ele><time>2026-04-25T13:39:49.448Z</time></trkpt><trkpt lat="42.9945876" lon="12.6629143"><ele>209.0</ele><time>2026-04-25T13:39:50.448Z</time></trkpt><trkpt lat="42.9943481" lon="12.6630583"><ele>209.0</ele><time>2026-04-25T13:39:51.448Z</time></trkpt><trkpt lat="42.994107" lon="12.6632041"><ele>209.0</ele><time>2026-04-25T13:39:52.448Z</time></trkpt><trkpt lat="42.9938637" lon="12.6633464"><ele>209.0</ele><time>2026-04-25T13:39:53.449Z</time></trkpt><trkpt lat="42.9936168" lon="12.663491"><ele>209.0</ele><time>2026-04-25T13:39:54.448Z</time></trkpt><trkpt lat="42.9933652" lon="12.6636334"><ele>209.5</ele><time>2026-04-25T13:39:55.448Z</time></trkpt><trkpt lat="42.9931225" lon="12.6637762"><ele>210.0</ele><time>2026-04-25T13:39:56.448Z</time></trkpt><trkpt lat="42.9928777" lon="12.6639247"><ele>210.0</ele><time>2026-04-25T13:39:57.449Z</time></trkpt><trkpt lat="42.9926291" lon="12.6640634"><ele>210.0</ele><time>2026-04-25T13:39:58.448Z</time></trkpt><trkpt lat="42.9923839" lon="12.6641958"><ele>210.5</ele><time>2026-04-25T13:39:59.448Z</time></trkpt><trkpt lat="42.9921361" lon="12.6643315"><ele>211.0</ele><time>2026-04-25T13:40:00.449Z</time></trkpt><trkpt lat="42.9918904" lon="12.6644582"><ele>212.0</ele><time>2026-04-25T13:40:01.448Z</time></trkpt><trkpt lat="42.9916435" lon="12.6645845"><ele>213.0</ele><time>2026-04-25T13:40:02.448Z</time></trkpt><trkpt lat="42.9913999" lon="12.6647161"><ele>213.0</ele><time>2026-04-25T13:40:03.448Z</time></trkpt><trkpt lat="42.9911603" lon="12.664855"><ele>213.0</ele><time>2026-04-25T13:40:04.449Z</time></trkpt><trkpt lat="42.9909351" lon="12.6649997"><ele>213.5</ele><time>2026-04-25T13:40:05.448Z</time></trkpt><trkpt lat="42.9906931" lon="12.6651371"><ele>214.0</ele><time>2026-04-25T13:40:06.449Z</time></trkpt><trkpt lat="42.9904546" lon="12.6652766"><ele>214.5</ele><time>2026-04-25T13:40:07.448Z</time></trkpt><trkpt lat="42.9902141" lon="12.6654208"><ele>215.0</ele><time>2026-04-25T13:40:08.448Z</time></trkpt><trkpt lat="42.9899732" lon="12.6655678"><ele>215.0</ele><time>2026-04-25T13:40:09.448Z</time></trkpt><trkpt lat="42.9897346" lon="12.6657037"><ele>215.0</ele><time>2026-04-25T13:40:10.449Z</time></trkpt><trkpt lat="42.9895008" lon="12.6658383"><ele>215.0</ele><time>2026-04-25T13:40:11.448Z</time></trkpt><trkpt lat="42.9892526" lon="12.6659701"><ele>215.0</ele><time>2026-04-25T13:40:12.449Z</time></trkpt><trkpt lat="42.9890159" lon="12.6661044"><ele>215.0</ele><time>2026-04-25T13:40:13.448Z</time></trkpt><trkpt lat="42.9887731" lon="12.6662541"><ele>215.0</ele><time>2026-04-25T13:40:14.448Z</time></trkpt><trkpt lat="42.9885323" lon="12.6663915"><ele>216.0</ele><time>2026-04-25T13:40:15.449Z</time></trkpt><trkpt lat="42.9882926" lon="12.6665384"><ele>217.0</ele><time>2026-04-25T13:40:16.448Z</time></trkpt><trkpt lat="42.9880534" lon="12.6666906"><ele>217.0</ele><time>2026-04-25T13:40:17.448Z</time></trkpt><trkpt lat="42.9878313" lon="12.6668426"><ele>217.0</ele><time>2026-04-25T13:40:18.448Z</time></trkpt><trkpt lat="42.9876206" lon="12.6670039"><ele>218.33333333333331</ele><time>2026-04-25T13:40:19.448Z</time></trkpt><trkpt lat="42.9874292" lon="12.6671682"><ele>219.66666666666669</ele><time>2026-04-25T13:40:20.448Z</time></trkpt><trkpt lat="42.9872556" lon="12.6673471"><ele>221.0</ele><time>2026-04-25T13:40:21.448Z</time></trkpt><trkpt lat="42.9870878" lon="12.6675289"><ele>221.0</ele><time>2026-04-25T13:40:22.449Z</time></trkpt><trkpt lat="42.9869271" lon="12.6677236"><ele>221.0</ele><time>2026-04-25T13:40:23.448Z</time></trkpt><trkpt lat="42.9867685" lon="12.6679329"><ele>221.0</ele><time>2026-04-25T13:40:24.448Z</time></trkpt><trkpt lat="42.9866072" lon="12.6681408"><ele>222.0</ele><time>2026-04-25T13:40:25.448Z</time></trkpt><trkpt lat="42.9864444" lon="12.6683515"><ele>223.0</ele><time>2026-04-25T13:40:26.448Z</time></trkpt><trkpt lat="42.9862842" lon="12.6685654"><ele>224.0</ele><time>2026-04-25T13:40:27.448Z</time></trkpt><trkpt lat="42.9861191" lon="12.6687834"><ele>224.0</ele><time>2026-04-25T13:40:28.448Z</time></trkpt><trkpt lat="42.9859535" lon="12.6690051"><ele>224.0</ele><time>2026-04-25T13:40:29.448Z</time></trkpt><trkpt lat="42.9857886" lon="12.6692367"><ele>224.5</ele><time>2026-04-25T13:40:30.448Z</time></trkpt><trkpt lat="42.9856203" lon="12.6694617"><ele>225.0</ele><time>2026-04-25T13:40:31.449Z</time></trkpt><trkpt lat="42.9854535" lon="12.6696974"><ele>225.0</ele><time>2026-04-25T13:40:32.448Z</time></trkpt><trkpt lat="42.985279" lon="12.6699269"><ele>225.0</ele><time>2026-04-25T13:40:33.448Z</time></trkpt><trkpt lat="42.985105" lon="12.6701612"><ele>223.5</ele><time>2026-04-25T13:40:34.448Z</time></trkpt><trkpt lat="42.9849269" lon="12.6703924"><ele>222.0</ele><time>2026-04-25T13:40:35.448Z</time></trkpt><trkpt lat="42.9847456" lon="12.6706364"><ele>222.0</ele><time>2026-04-25T13:40:36.448Z</time></trkpt><trkpt lat="42.9845595" lon="12.6708814"><ele>222.0</ele><time>2026-04-25T13:40:37.449Z</time></trkpt><trkpt lat="42.9843734" lon="12.6711283"><ele>222.5</ele><time>2026-04-25T13:40:38.448Z</time></trkpt><trkpt lat="42.9841859" lon="12.6713799"><ele>223.0</ele><time>2026-04-25T13:40:39.448Z</time></trkpt><trkpt lat="42.9839935" lon="12.6716278"><ele>223.5</ele><time>2026-04-25T13:40:40.448Z</time></trkpt><trkpt lat="42.9838056" lon="12.6718835"><ele>224.0</ele><time>2026-04-25T13:40:41.448Z</time></trkpt><trkpt lat="42.9836187" lon="12.6721445"><ele>224.0</ele><time>2026-04-25T13:40:42.448Z</time></trkpt><trkpt lat="42.98343" lon="12.672396"><ele>224.0</ele><time>2026-04-25T13:40:43.448Z</time></trkpt><trkpt lat="42.9832377" lon="12.6726524"><ele>224.5</ele><time>2026-04-25T13:40:44.448Z</time></trkpt><trkpt lat="42.9830418" lon="12.6729084"><ele>225.0</ele><time>2026-04-25T13:40:45.448Z</time></trkpt><trkpt lat="42.9828462" lon="12.673166"><ele>225.0</ele><time>2026-04-25T13:40:46.448Z</time></trkpt><trkpt lat="42.982653" lon="12.6734185"><ele>225.0</ele><time>2026-04-25T13:40:47.448Z</time></trkpt><trkpt lat="42.9824633" lon="12.6736809"><ele>223.0</ele><time>2026-04-25T13:40:48.449Z</time></trkpt><trkpt lat="42.9822646" lon="12.6739353"><ele>221.0</ele><time>2026-04-25T13:40:49.449Z</time></trkpt><trkpt lat="42.9820682" lon="12.6741921"><ele>222.0</ele><time>2026-04-25T13:40:50.449Z</time></trkpt><trkpt lat="42.9818745" lon="12.6744505"><ele>223.0</ele><time>2026-04-25T13:40:51.448Z</time></trkpt><trkpt lat="42.9816854" lon="12.6747114"><ele>222.0</ele><time>2026-04-25T13:40:52.449Z</time></trkpt><trkpt lat="42.9814922" lon="12.6749717"><ele>221.0</ele><time>2026-04-25T13:40:53.448Z</time></trkpt><trkpt lat="42.9813036" lon="12.6752367"><ele>221.5</ele><time>2026-04-25T13:40:54.448Z</time></trkpt><trkpt lat="42.9811212" lon="12.6754853"><ele>222.0</ele><time>2026-04-25T13:40:55.448Z</time></trkpt><trkpt lat="42.9809262" lon="12.6757405"><ele>222.0</ele><time>2026-04-25T13:40:56.449Z</time></trkpt><trkpt lat="42.980732" lon="12.6759916"><ele>222.0</ele><time>2026-04-25T13:40:57.448Z</time></trkpt><trkpt lat="42.9805455" lon="12.6762565"><ele>222.5</ele><time>2026-04-25T13:40:58.448Z</time></trkpt><trkpt lat="42.9803513" lon="12.6765075"><ele>223.0</ele><time>2026-04-25T13:40:59.448Z</time></trkpt><trkpt lat="42.9801668" lon="12.6767624"><ele>222.0</ele><time>2026-04-25T13:41:00.448Z</time></trkpt><trkpt lat="42.9799833" lon="12.6770203"><ele>221.0</ele><time>2026-04-25T13:41:01.448Z</time></trkpt><trkpt lat="42.979807" lon="12.6772902"><ele>221.0</ele><time>2026-04-25T13:41:02.448Z</time></trkpt><trkpt lat="42.9796411" lon="12.6775672"><ele>221.0</ele><time>2026-04-25T13:41:03.448Z</time></trkpt><trkpt lat="42.9794755" lon="12.6778516"><ele>221.0</ele><time>2026-04-25T13:41:04.448Z</time></trkpt><trkpt lat="42.9793168" lon="12.6781499"><ele>221.0</ele><time>2026-04-25T13:41:05.448Z</time></trkpt><trkpt lat="42.9791631" lon="12.6784437"><ele>221.5</ele><time>2026-04-25T13:41:06.448Z</time></trkpt><trkpt lat="42.9790161" lon="12.6787448"><ele>222.0</ele><time>2026-04-25T13:41:07.449Z</time></trkpt><trkpt lat="42.9788715" lon="12.6790506"><ele>222.0</ele><time>2026-04-25T13:41:08.448Z</time></trkpt><trkpt lat="42.9787278" lon="12.6793568"><ele>222.0</ele><time>2026-04-25T13:41:09.448Z</time></trkpt><trkpt lat="42.9785902" lon="12.6796718"><ele>222.0</ele><time>2026-04-25T13:41:10.448Z</time></trkpt><trkpt lat="42.9784427" lon="12.6799701"><ele>222.0</ele><time>2026-04-25T13:41:11.448Z</time></trkpt><trkpt lat="42.9783096" lon="12.6802646"><ele>222.5</ele><time>2026-04-25T13:41:12.448Z</time></trkpt><trkpt lat="42.9781795" lon="12.6805469"><ele>223.0</ele><time>2026-04-25T13:41:13.448Z</time></trkpt><trkpt lat="42.9780531" lon="12.6808218"><ele>223.0</ele><time>2026-04-25T13:41:14.448Z</time></trkpt><trkpt lat="42.9779327" lon="12.6810895"><ele>223.0</ele><time>2026-04-25T13:41:15.449Z</time></trkpt><trkpt lat="42.9778199" lon="12.6813485"><ele>223.33333333333331</ele><time>2026-04-25T13:41:16.448Z</time></trkpt><trkpt lat="42.9777042" lon="12.6816038"><ele>223.66666666666669</ele><time>2026-04-25T13:41:17.448Z</time></trkpt><trkpt lat="42.9775881" lon="12.6818456"><ele>224.0</ele><time>2026-04-25T13:41:18.448Z</time></trkpt><trkpt lat="42.9774754" lon="12.6821062"><ele>224.33333333333334</ele><time>2026-04-25T13:41:19.448Z</time></trkpt><trkpt lat="42.9773602" lon="12.6823651"><ele>224.66666666666669</ele><time>2026-04-25T13:41:20.448Z</time></trkpt><trkpt lat="42.9772427" lon="12.6826229"><ele>225.0</ele><time>2026-04-25T13:41:21.448Z</time></trkpt><trkpt lat="42.9771223" lon="12.6828805"><ele>225.33333333333331</ele><time>2026-04-25T13:41:22.448Z</time></trkpt><trkpt lat="42.9770001" lon="12.6831372"><ele>225.66666666666666</ele><time>2026-04-25T13:41:23.448Z</time></trkpt><trkpt lat="42.9768812" lon="12.6833916"><ele>226.0</ele><time>2026-04-25T13:41:24.448Z</time></trkpt><trkpt lat="42.976759" lon="12.6836499"><ele>226.0</ele><time>2026-04-25T13:41:25.448Z</time></trkpt><trkpt lat="42.976634" lon="12.6839148"><ele>226.0</ele><time>2026-04-25T13:41:26.448Z</time></trkpt><trkpt lat="42.9765083" lon="12.6841757"><ele>227.0</ele><time>2026-04-25T13:41:27.448Z</time></trkpt><trkpt lat="42.9763796" lon="12.6844429"><ele>228.0</ele><time>2026-04-25T13:41:28.448Z</time></trkpt><trkpt lat="42.9762539" lon="12.6847146"><ele>228.0</ele><time>2026-04-25T13:41:29.448Z</time></trkpt><trkpt lat="42.9761315" lon="12.6849761"><ele>228.0</ele><time>2026-04-25T13:41:30.448Z</time></trkpt><trkpt lat="42.9760059" lon="12.6852478"><ele>229.0</ele><time>2026-04-25T13:41:31.448Z</time></trkpt><trkpt lat="42.9758807" lon="12.6855242"><ele>230.0</ele><time>2026-04-25T13:41:32.448Z</time></trkpt><trkpt lat="42.9757572" lon="12.6858031"><ele>228.0</ele><time>2026-04-25T13:41:33.448Z</time></trkpt><trkpt lat="42.9756301" lon="12.6860763"><ele>226.0</ele><time>2026-04-25T13:41:34.449Z</time></trkpt><trkpt lat="42.9754989" lon="12.6863456"><ele>226.0</ele><time>2026-04-25T13:41:35.448Z</time></trkpt><trkpt lat="42.9753701" lon="12.6866235"><ele>226.0</ele><time>2026-04-25T13:41:36.448Z</time></trkpt><trkpt lat="42.975245" lon="12.6869055"><ele>227.0</ele><time>2026-04-25T13:41:37.448Z</time></trkpt><trkpt lat="42.9751159" lon="12.6871761"><ele>228.0</ele><time>2026-04-25T13:41:38.448Z</time></trkpt><trkpt lat="42.974986" lon="12.6874548"><ele>228.5</ele><time>2026-04-25T13:41:39.448Z</time></trkpt><trkpt lat="42.9748557" lon="12.6877377"><ele>229.0</ele><time>2026-04-25T13:41:40.448Z</time></trkpt><trkpt lat="42.9747243" lon="12.6880219"><ele>229.5</ele><time>2026-04-25T13:41:41.449Z</time></trkpt><trkpt lat="42.9745931" lon="12.6883035"><ele>230.0</ele><time>2026-04-25T13:41:42.448Z</time></trkpt><trkpt lat="42.9744665" lon="12.6885921"><ele>231.0</ele><time>2026-04-25T13:41:43.448Z</time></trkpt><trkpt lat="42.9743415" lon="12.6888723"><ele>232.0</ele><time>2026-04-25T13:41:44.448Z</time></trkpt><trkpt lat="42.9742123" lon="12.6891501"><ele>232.33333333333331</ele><time>2026-04-25T13:41:45.448Z</time></trkpt><trkpt lat="42.9740851" lon="12.6894092"><ele>232.66666666666669</ele><time>2026-04-25T13:41:46.448Z</time></trkpt><trkpt lat="42.9739664" lon="12.689657"><ele>233.0</ele><time>2026-04-25T13:41:47.449Z</time></trkpt><trkpt lat="42.9738527" lon="12.6898951"><ele>233.66666666666669</ele><time>2026-04-25T13:41:48.448Z</time></trkpt><trkpt lat="42.9737504" lon="12.6900757"><ele>234.33333333333331</ele><time>2026-04-25T13:41:49.448Z</time></trkpt><trkpt lat="42.973661" lon="12.6902436"><ele>235.0</ele><time>2026-04-25T13:41:50.448Z</time></trkpt><trkpt lat="42.9735894" lon="12.6903976"><ele>234.66666666666666</ele><time>2026-04-25T13:41:51.448Z</time></trkpt><trkpt lat="42.9735313" lon="12.6905212"><ele>234.33333333333331</ele><time>2026-04-25T13:41:52.448Z</time></trkpt><trkpt lat="42.9734785" lon="12.6906114"><ele>234.0</ele><time>2026-04-25T13:41:53.449Z</time></trkpt><trkpt lat="42.9734286" lon="12.6906782"><ele>233.66666666666669</ele><time>2026-04-25T13:41:54.448Z</time></trkpt><trkpt lat="42.9733775" lon="12.6907295"><ele>233.33333333333334</ele><time>2026-04-25T13:41:55.448Z</time></trkpt><trkpt lat="42.9733016" lon="12.6907884"><ele>233.0</ele><time>2026-04-25T13:41:58.448Z</time></trkpt><trkpt lat="42.9732398" lon="12.6908567"><ele>233.00000000000003</ele><time>2026-04-25T13:42:02.448Z</time></trkpt><trkpt lat="42.973176" lon="12.6908975"><ele>233.0</ele><time>2026-04-25T13:42:21.448Z</time></trkpt><trkpt lat="42.9731112" lon="12.6909386"><ele>233.0</ele><time>2026-04-25T13:42:28.448Z</time></trkpt><trkpt lat="42.9730942" lon="12.6910314"><ele>233.0</ele><time>2026-04-25T13:46:50.448Z</time></trkpt><trkpt lat="42.9730656" lon="12.6911708"><ele>233.00000000000003</ele><time>2026-04-25T13:46:53.449Z</time></trkpt><trkpt lat="42.9730509" lon="12.6912617"><ele>233.0</ele><time>2026-04-25T13:46:54.448Z</time></trkpt><trkpt lat="42.9730476" lon="12.6913596"><ele>233.16666666666669</ele><time>2026-04-25T13:46:55.448Z</time></trkpt><trkpt lat="42.9730287" lon="12.6914555"><ele>233.33333333333334</ele><time>2026-04-25T13:46:56.449Z</time></trkpt><trkpt lat="42.9730003" lon="12.6915551"><ele>233.5</ele><time>2026-04-25T13:46:57.448Z</time></trkpt><trkpt lat="42.9729643" lon="12.6916509"><ele>233.66666666666669</ele><time>2026-04-25T13:46:58.448Z</time></trkpt><trkpt lat="42.9729268" lon="12.691758"><ele>233.83333333333334</ele><time>2026-04-25T13:46:59.448Z</time></trkpt><trkpt lat="42.9728833" lon="12.6918801"><ele>234.0</ele><time>2026-04-25T13:47:00.448Z</time></trkpt><trkpt lat="42.972835" lon="12.6920124"><ele>234.0</ele><time>2026-04-25T13:47:01.448Z</time></trkpt><trkpt lat="42.9727788" lon="12.6921528"><ele>234.0</ele><time>2026-04-25T13:47:02.448Z</time></trkpt><trkpt lat="42.9727255" lon="12.6923016"><ele>234.0</ele><time>2026-04-25T13:47:03.448Z</time></trkpt><trkpt lat="42.9726681" lon="12.6924478"><ele>234.0</ele><time>2026-04-25T13:47:04.448Z</time></trkpt><trkpt lat="42.972607" lon="12.6926034"><ele>234.0</ele><time>2026-04-25T13:47:05.448Z</time></trkpt><trkpt lat="42.9725455" lon="12.6927671"><ele>234.0</ele><time>2026-04-25T13:47:06.449Z</time></trkpt><trkpt lat="42.9724849" lon="12.6929373"><ele>234.0</ele><time>2026-04-25T13:47:07.448Z</time></trkpt><trkpt lat="42.9724239" lon="12.6931187"><ele>234.0</ele><time>2026-04-25T13:47:08.448Z</time></trkpt><trkpt lat="42.9723619" lon="12.6933104"><ele>234.0</ele><time>2026-04-25T13:47:09.448Z</time></trkpt><trkpt lat="42.9722947" lon="12.6935107"><ele>234.0</ele><time>2026-04-25T13:47:10.448Z</time></trkpt><trkpt lat="42.972229" lon="12.6937113"><ele>234.0</ele><time>2026-04-25T13:47:11.449Z</time></trkpt><trkpt lat="42.9721593" lon="12.6939154"><ele>234.0</ele><time>2026-04-25T13:47:12.448Z</time></trkpt><trkpt lat="42.9720839" lon="12.694113"><ele>234.0</ele><time>2026-04-25T13:47:13.448Z</time></trkpt><trkpt lat="42.9720093" lon="12.6943117"><ele>234.0</ele><time>2026-04-25T13:47:14.448Z</time></trkpt><trkpt lat="42.9719377" lon="12.6945122"><ele>233.66666666666669</ele><time>2026-04-25T13:47:15.448Z</time></trkpt><trkpt lat="42.9718611" lon="12.6947219"><ele>233.33333333333334</ele><time>2026-04-25T13:47:16.448Z</time></trkpt><trkpt lat="42.9717881" lon="12.6949264"><ele>233.0</ele><time>2026-04-25T13:47:17.448Z</time></trkpt><trkpt lat="42.9717124" lon="12.6951388"><ele>233.0</ele><time>2026-04-25T13:47:18.448Z</time></trkpt><trkpt lat="42.9716386" lon="12.695348"><ele>233.0</ele><time>2026-04-25T13:47:19.448Z</time></trkpt><trkpt lat="42.9715645" lon="12.6955632"><ele>233.0</ele><time>2026-04-25T13:47:20.448Z</time></trkpt><trkpt lat="42.9714863" lon="12.6957758"><ele>233.0</ele><time>2026-04-25T13:47:21.448Z</time></trkpt><trkpt lat="42.9714067" lon="12.6959907"><ele>233.0</ele><time>2026-04-25T13:47:22.448Z</time></trkpt><trkpt lat="42.9713311" lon="12.6962059"><ele>233.0</ele><time>2026-04-25T13:47:23.448Z</time></trkpt><trkpt lat="42.9712536" lon="12.696422"><ele>234.0</ele><time>2026-04-25T13:47:24.448Z</time></trkpt><trkpt lat="42.9711787" lon="12.6966473"><ele>235.0</ele><time>2026-04-25T13:47:25.448Z</time></trkpt><trkpt lat="42.9711056" lon="12.6968649"><ele>236.0</ele><time>2026-04-25T13:47:26.448Z</time></trkpt><trkpt lat="42.9710287" lon="12.697078"><ele>236.0</ele><time>2026-04-25T13:47:27.448Z</time></trkpt><trkpt lat="42.9709534" lon="12.6972955"><ele>236.0</ele><time>2026-04-25T13:47:28.448Z</time></trkpt><trkpt lat="42.9708755" lon="12.6975233"><ele>236.0</ele><time>2026-04-25T13:47:29.449Z</time></trkpt><trkpt lat="42.9707945" lon="12.6977553"><ele>236.0</ele><time>2026-04-25T13:47:30.448Z</time></trkpt><trkpt lat="42.9707097" lon="12.6979895"><ele>236.0</ele><time>2026-04-25T13:47:31.448Z</time></trkpt><trkpt lat="42.9706197" lon="12.698234"><ele>236.0</ele><time>2026-04-25T13:47:32.448Z</time></trkpt><trkpt lat="42.970528" lon="12.698493"><ele>236.66666666666669</ele><time>2026-04-25T13:47:33.448Z</time></trkpt><trkpt lat="42.9704373" lon="12.6987614"><ele>237.33333333333331</ele><time>2026-04-25T13:47:34.448Z</time></trkpt><trkpt lat="42.9703533" lon="12.6990388"><ele>238.0</ele><time>2026-04-25T13:47:35.448Z</time></trkpt><trkpt lat="42.9702777" lon="12.6993361"><ele>237.5</ele><time>2026-04-25T13:47:36.449Z</time></trkpt><trkpt lat="42.9702161" lon="12.6996388"><ele>237.0</ele><time>2026-04-25T13:47:37.448Z</time></trkpt><trkpt lat="42.9701752" lon="12.699943"><ele>237.0</ele><time>2026-04-25T13:47:38.448Z</time></trkpt><trkpt lat="42.9701459" lon="12.7002538"><ele>237.0</ele><time>2026-04-25T13:47:39.448Z</time></trkpt><trkpt lat="42.9701374" lon="12.7005619"><ele>237.0</ele><time>2026-04-25T13:47:40.449Z</time></trkpt><trkpt lat="42.9701446" lon="12.7008736"><ele>237.0</ele><time>2026-04-25T13:47:41.449Z</time></trkpt><trkpt lat="42.9701687" lon="12.7011796"><ele>237.0</ele><time>2026-04-25T13:47:42.448Z</time></trkpt><trkpt lat="42.970211" lon="12.7014874"><ele>237.0</ele><time>2026-04-25T13:47:43.448Z</time></trkpt><trkpt lat="42.9702652" lon="12.7017927"><ele>238.5</ele><time>2026-04-25T13:47:44.449Z</time></trkpt><trkpt lat="42.9703293" lon="12.7020892"><ele>240.0</ele><time>2026-04-25T13:47:45.448Z</time></trkpt><trkpt lat="42.9704073" lon="12.7023836"><ele>240.0</ele><time>2026-04-25T13:47:46.448Z</time></trkpt><trkpt lat="42.9705086" lon="12.7026722"><ele>240.0</ele><time>2026-04-25T13:47:47.448Z</time></trkpt><trkpt lat="42.9706273" lon="12.7029597"><ele>241.5</ele><time>2026-04-25T13:47:48.448Z</time></trkpt><trkpt lat="42.9707567" lon="12.7032493"><ele>243.0</ele><time>2026-04-25T13:47:49.448Z</time></trkpt><trkpt lat="42.9708848" lon="12.7035427"><ele>245.0</ele><time>2026-04-25T13:47:50.448Z</time></trkpt><trkpt lat="42.9710062" lon="12.7038337"><ele>247.0</ele><time>2026-04-25T13:47:51.449Z</time></trkpt><trkpt lat="42.9711369" lon="12.7041243"><ele>246.5</ele><time>2026-04-25T13:47:52.448Z</time></trkpt><trkpt lat="42.9712661" lon="12.7044248"><ele>246.0</ele><time>2026-04-25T13:47:53.448Z</time></trkpt><trkpt lat="42.9713906" lon="12.7047209"><ele>246.0</ele><time>2026-04-25T13:47:54.448Z</time></trkpt><trkpt lat="42.9715172" lon="12.7050192"><ele>246.0</ele><time>2026-04-25T13:47:55.448Z</time></trkpt><trkpt lat="42.9716392" lon="12.7053145"><ele>247.0</ele><time>2026-04-25T13:47:56.448Z</time></trkpt><trkpt lat="42.9717599" lon="12.7056129"><ele>248.0</ele><time>2026-04-25T13:47:57.448Z</time></trkpt><trkpt lat="42.9718882" lon="12.7059025"><ele>244.5</ele><time>2026-04-25T13:47:58.448Z</time></trkpt><trkpt lat="42.9720122" lon="12.7061917"><ele>241.0</ele><time>2026-04-25T13:47:59.448Z</time></trkpt><trkpt lat="42.972137" lon="12.7064846"><ele>241.0</ele><time>2026-04-25T13:48:00.448Z</time></trkpt><trkpt lat="42.9722638" lon="12.7067739"><ele>241.0</ele><time>2026-04-25T13:48:01.449Z</time></trkpt><trkpt lat="42.9723852" lon="12.7070702"><ele>242.0</ele><time>2026-04-25T13:48:02.449Z</time></trkpt><trkpt lat="42.9724965" lon="12.707374"><ele>243.0</ele><time>2026-04-25T13:48:03.448Z</time></trkpt><trkpt lat="42.9726014" lon="12.7076897"><ele>243.5</ele><time>2026-04-25T13:48:04.448Z</time></trkpt><trkpt lat="42.9726967" lon="12.7080056"><ele>244.0</ele><time>2026-04-25T13:48:05.448Z</time></trkpt><trkpt lat="42.9727791" lon="12.7083349"><ele>245.5</ele><time>2026-04-25T13:48:06.448Z</time></trkpt><trkpt lat="42.9728583" lon="12.7086652"><ele>247.0</ele><time>2026-04-25T13:48:07.448Z</time></trkpt><trkpt lat="42.9729291" lon="12.7090034"><ele>247.0</ele><time>2026-04-25T13:48:08.449Z</time></trkpt><trkpt lat="42.9729906" lon="12.7093429"><ele>247.0</ele><time>2026-04-25T13:48:09.448Z</time></trkpt><trkpt lat="42.9730458" lon="12.7096759"><ele>247.0</ele><time>2026-04-25T13:48:10.449Z</time></trkpt><trkpt lat="42.9731072" lon="12.7100157"><ele>247.0</ele><time>2026-04-25T13:48:11.448Z</time></trkpt><trkpt lat="42.9731641" lon="12.710354"><ele>245.5</ele><time>2026-04-25T13:48:12.449Z</time></trkpt><trkpt lat="42.9732153" lon="12.7106899"><ele>244.0</ele><time>2026-04-25T13:48:13.448Z</time></trkpt><trkpt lat="42.9732712" lon="12.7110265"><ele>245.0</ele><time>2026-04-25T13:48:14.449Z</time></trkpt><trkpt lat="42.9733289" lon="12.711356"><ele>246.0</ele><time>2026-04-25T13:48:15.448Z</time></trkpt><trkpt lat="42.9733806" lon="12.7116845"><ele>246.5</ele><time>2026-04-25T13:48:16.449Z</time></trkpt><trkpt lat="42.9734261" lon="12.7120182"><ele>247.0</ele><time>2026-04-25T13:48:17.449Z</time></trkpt><trkpt lat="42.9734726" lon="12.7123452"><ele>247.0</ele><time>2026-04-25T13:48:18.448Z</time></trkpt><trkpt lat="42.9735165" lon="12.7126647"><ele>247.0</ele><time>2026-04-25T13:48:19.448Z</time></trkpt><trkpt lat="42.9735519" lon="12.7129682"><ele>247.0</ele><time>2026-04-25T13:48:20.449Z</time></trkpt><trkpt lat="42.9735876" lon="12.7132544"><ele>247.0</ele><time>2026-04-25T13:48:21.448Z</time></trkpt><trkpt lat="42.9736196" lon="12.7135273"><ele>247.0</ele><time>2026-04-25T13:48:22.448Z</time></trkpt><trkpt lat="42.9736382" lon="12.7137891"><ele>246.66666666666666</ele><time>2026-04-25T13:48:23.449Z</time></trkpt><trkpt lat="42.9736266" lon="12.7140441"><ele>246.33333333333331</ele><time>2026-04-25T13:48:24.448Z</time></trkpt><trkpt lat="42.9735984" lon="12.7142961"><ele>246.0</ele><time>2026-04-25T13:48:25.448Z</time></trkpt><trkpt lat="42.9735408" lon="12.71454"><ele>246.0</ele><time>2026-04-25T13:48:26.449Z</time></trkpt><trkpt lat="42.973474" lon="12.7147715"><ele>246.0</ele><time>2026-04-25T13:48:27.449Z</time></trkpt><trkpt lat="42.9733868" lon="12.7149878"><ele>246.0</ele><time>2026-04-25T13:48:28.448Z</time></trkpt><trkpt lat="42.9732801" lon="12.7151924"><ele>246.33333333333331</ele><time>2026-04-25T13:48:29.448Z</time></trkpt><trkpt lat="42.9731592" lon="12.7153813"><ele>246.66666666666666</ele><time>2026-04-25T13:48:30.448Z</time></trkpt><trkpt lat="42.973019" lon="12.7155566"><ele>247.0</ele><time>2026-04-25T13:48:31.448Z</time></trkpt><trkpt lat="42.9728617" lon="12.7157089"><ele>247.0</ele><time>2026-04-25T13:48:32.448Z</time></trkpt><trkpt lat="42.9726941" lon="12.7158439"><ele>247.0</ele><time>2026-04-25T13:48:33.448Z</time></trkpt><trkpt lat="42.9725044" lon="12.7159481"><ele>247.0</ele><time>2026-04-25T13:48:34.449Z</time></trkpt><trkpt lat="42.9723062" lon="12.7160447"><ele>246.0</ele><time>2026-04-25T13:48:35.448Z</time></trkpt><trkpt lat="42.9721081" lon="12.7161442"><ele>245.0</ele><time>2026-04-25T13:48:36.449Z</time></trkpt><trkpt lat="42.9719004" lon="12.716255"><ele>244.0</ele><time>2026-04-25T13:48:37.448Z</time></trkpt><trkpt lat="42.9716922" lon="12.7163633"><ele>244.0</ele><time>2026-04-25T13:48:38.448Z</time></trkpt><trkpt lat="42.9714749" lon="12.7164817"><ele>244.0</ele><time>2026-04-25T13:48:39.448Z</time></trkpt><trkpt lat="42.9712614" lon="12.7165929"><ele>244.0</ele><time>2026-04-25T13:48:40.448Z</time></trkpt><trkpt lat="42.9710392" lon="12.7167069"><ele>244.0</ele><time>2026-04-25T13:48:41.449Z</time></trkpt><trkpt lat="42.9708127" lon="12.7168106"><ele>244.0</ele><time>2026-04-25T13:48:42.448Z</time></trkpt><trkpt lat="42.9705867" lon="12.7169179"><ele>244.0</ele><time>2026-04-25T13:48:43.448Z</time></trkpt><trkpt lat="42.970363" lon="12.7170224"><ele>244.0</ele><time>2026-04-25T13:48:44.448Z</time></trkpt><trkpt lat="42.9701348" lon="12.7171333"><ele>244.0</ele><time>2026-04-25T13:48:45.448Z</time></trkpt><trkpt lat="42.9699063" lon="12.7172485"><ele>245.0</ele><time>2026-04-25T13:48:46.448Z</time></trkpt><trkpt lat="42.9696772" lon="12.7173587"><ele>246.0</ele><time>2026-04-25T13:48:47.448Z</time></trkpt><trkpt lat="42.9694478" lon="12.7174741"><ele>246.0</ele><time>2026-04-25T13:48:48.448Z</time></trkpt><trkpt lat="42.969214" lon="12.7175907"><ele>246.0</ele><time>2026-04-25T13:48:49.449Z</time></trkpt><trkpt lat="42.9689777" lon="12.7177016"><ele>244.5</ele><time>2026-04-25T13:48:50.448Z</time></trkpt><trkpt lat="42.9687384" lon="12.7178125"><ele>243.0</ele><time>2026-04-25T13:48:51.448Z</time></trkpt><trkpt lat="42.9684986" lon="12.7179301"><ele>243.5</ele><time>2026-04-25T13:48:52.448Z</time></trkpt><trkpt lat="42.9682635" lon="12.7180396"><ele>244.0</ele><time>2026-04-25T13:48:53.449Z</time></trkpt><trkpt lat="42.9680204" lon="12.718156"><ele>244.0</ele><time>2026-04-25T13:48:54.448Z</time></trkpt><trkpt lat="42.9677838" lon="12.7182732"><ele>244.0</ele><time>2026-04-25T13:48:55.448Z</time></trkpt><trkpt lat="42.9675466" lon="12.7183889"><ele>244.0</ele><time>2026-04-25T13:48:56.448Z</time></trkpt><trkpt lat="42.9673081" lon="12.7185014"><ele>244.0</ele><time>2026-04-25T13:48:57.448Z</time></trkpt><trkpt lat="42.9670689" lon="12.7186122"><ele>244.5</ele><time>2026-04-25T13:48:58.448Z</time></trkpt><trkpt lat="42.9668276" lon="12.71872"><ele>245.0</ele><time>2026-04-25T13:48:59.448Z</time></trkpt><trkpt lat="42.9665858" lon="12.718838"><ele>246.0</ele><time>2026-04-25T13:49:00.448Z</time></trkpt><trkpt lat="42.9663455" lon="12.7189549"><ele>247.0</ele><time>2026-04-25T13:49:01.448Z</time></trkpt><trkpt lat="42.9661003" lon="12.7190694"><ele>246.0</ele><time>2026-04-25T13:49:02.448Z</time></trkpt><trkpt lat="42.9658533" lon="12.719179"><ele>245.0</ele><time>2026-04-25T13:49:03.448Z</time></trkpt><trkpt lat="42.9656151" lon="12.719296"><ele>245.0</ele><time>2026-04-25T13:49:04.448Z</time></trkpt><trkpt lat="42.9653743" lon="12.7194132"><ele>245.0</ele><time>2026-04-25T13:49:05.448Z</time></trkpt><trkpt lat="42.9651349" lon="12.7195307"><ele>246.0</ele><time>2026-04-25T13:49:06.448Z</time></trkpt><trkpt lat="42.9648973" lon="12.7196505"><ele>247.0</ele><time>2026-04-25T13:49:07.449Z</time></trkpt><trkpt lat="42.9646606" lon="12.7197668"><ele>247.0</ele><time>2026-04-25T13:49:08.448Z</time></trkpt><trkpt lat="42.96442" lon="12.7198835"><ele>247.0</ele><time>2026-04-25T13:49:09.448Z</time></trkpt><trkpt lat="42.9641828" lon="12.7200081"><ele>247.0</ele><time>2026-04-25T13:49:10.449Z</time></trkpt><trkpt lat="42.963944" lon="12.7201261"><ele>247.0</ele><time>2026-04-25T13:49:11.448Z</time></trkpt><trkpt lat="42.9637056" lon="12.7202416"><ele>247.0</ele><time>2026-04-25T13:49:12.448Z</time></trkpt><trkpt lat="42.963471" lon="12.720355"><ele>247.0</ele><time>2026-04-25T13:49:13.448Z</time></trkpt><trkpt lat="42.9632272" lon="12.7204642"><ele>247.5</ele><time>2026-04-25T13:49:14.448Z</time></trkpt><trkpt lat="42.9629903" lon="12.7205724"><ele>248.0</ele><time>2026-04-25T13:49:15.448Z</time></trkpt><trkpt lat="42.9627451" lon="12.7206721"><ele>248.0</ele><time>2026-04-25T13:49:16.448Z</time></trkpt><trkpt lat="42.9625014" lon="12.7207724"><ele>248.0</ele><time>2026-04-25T13:49:17.448Z</time></trkpt><trkpt lat="42.9622485" lon="12.7208545"><ele>248.0</ele><time>2026-04-25T13:49:18.448Z</time></trkpt><trkpt lat="42.9619994" lon="12.7209379"><ele>248.0</ele><time>2026-04-25T13:49:19.448Z</time></trkpt><trkpt lat="42.9617473" lon="12.7210168"><ele>250.0</ele><time>2026-04-25T13:49:20.448Z</time></trkpt><trkpt lat="42.9614938" lon="12.7210864"><ele>252.0</ele><time>2026-04-25T13:49:21.448Z</time></trkpt><trkpt lat="42.961238" lon="12.7211452"><ele>252.0</ele><time>2026-04-25T13:49:22.448Z</time></trkpt><trkpt lat="42.9609834" lon="12.7211948"><ele>252.0</ele><time>2026-04-25T13:49:23.448Z</time></trkpt><trkpt lat="42.9607269" lon="12.7212376"><ele>255.5</ele><time>2026-04-25T13:49:24.448Z</time></trkpt><trkpt lat="42.9604702" lon="12.721285"><ele>259.0</ele><time>2026-04-25T13:49:25.449Z</time></trkpt><trkpt lat="42.9602146" lon="12.7213335"><ele>261.5</ele><time>2026-04-25T13:49:26.449Z</time></trkpt><trkpt lat="42.9599612" lon="12.7213758"><ele>264.0</ele><time>2026-04-25T13:49:27.448Z</time></trkpt><trkpt lat="42.9597128" lon="12.7214102"><ele>264.0</ele><time>2026-04-25T13:49:28.448Z</time></trkpt><trkpt lat="42.9594605" lon="12.7214514"><ele>264.0</ele><time>2026-04-25T13:49:29.448Z</time></trkpt><trkpt lat="42.9592092" lon="12.7214961"><ele>264.5</ele><time>2026-04-25T13:49:30.448Z</time></trkpt><trkpt lat="42.9589586" lon="12.721535"><ele>265.0</ele><time>2026-04-25T13:49:31.448Z</time></trkpt><trkpt lat="42.9587117" lon="12.7215828"><ele>265.0</ele><time>2026-04-25T13:49:32.448Z</time></trkpt><trkpt lat="42.9584611" lon="12.7216253"><ele>265.0</ele><time>2026-04-25T13:49:33.449Z</time></trkpt><trkpt lat="42.9582128" lon="12.7216765"><ele>266.0</ele><time>2026-04-25T13:49:34.448Z</time></trkpt><trkpt lat="42.9579722" lon="12.7217277"><ele>267.0</ele><time>2026-04-25T13:49:35.448Z</time></trkpt><trkpt lat="42.9577283" lon="12.7217716"><ele>267.0</ele><time>2026-04-25T13:49:36.448Z</time></trkpt><trkpt lat="42.9574831" lon="12.7218205"><ele>267.0</ele><time>2026-04-25T13:49:37.448Z</time></trkpt><trkpt lat="42.9572402" lon="12.7218592"><ele>268.5</ele><time>2026-04-25T13:49:38.448Z</time></trkpt><trkpt lat="42.956994" lon="12.7219001"><ele>270.0</ele><time>2026-04-25T13:49:39.449Z</time></trkpt><trkpt lat="42.9567491" lon="12.7219445"><ele>270.5</ele><time>2026-04-25T13:49:40.449Z</time></trkpt><trkpt lat="42.9565067" lon="12.7219825"><ele>271.0</ele><time>2026-04-25T13:49:41.448Z</time></trkpt><trkpt lat="42.9562677" lon="12.7220205"><ele>271.0</ele><time>2026-04-25T13:49:42.449Z</time></trkpt><trkpt lat="42.9560298" lon="12.7220686"><ele>271.0</ele><time>2026-04-25T13:49:43.448Z</time></trkpt><trkpt lat="42.9557892" lon="12.722108"><ele>272.0</ele><time>2026-04-25T13:49:44.448Z</time></trkpt><trkpt lat="42.9555479" lon="12.7221418"><ele>273.0</ele><time>2026-04-25T13:49:45.448Z</time></trkpt><trkpt lat="42.9553052" lon="12.7221706"><ele>273.0</ele><time>2026-04-25T13:49:46.448Z</time></trkpt><trkpt lat="42.9550592" lon="12.7221996"><ele>273.0</ele><time>2026-04-25T13:49:47.448Z</time></trkpt><trkpt lat="42.9548117" lon="12.7222293"><ele>274.0</ele><time>2026-04-25T13:49:48.449Z</time></trkpt><trkpt lat="42.9545632" lon="12.7222509"><ele>275.0</ele><time>2026-04-25T13:49:49.448Z</time></trkpt><trkpt lat="42.9543109" lon="12.7222725"><ele>275.0</ele><time>2026-04-25T13:49:50.449Z</time></trkpt><trkpt lat="42.9540565" lon="12.7222969"><ele>275.0</ele><time>2026-04-25T13:49:51.448Z</time></trkpt><trkpt lat="42.9538012" lon="12.7223233"><ele>275.0</ele><time>2026-04-25T13:49:52.449Z</time></trkpt><trkpt lat="42.953544" lon="12.7223378"><ele>275.0</ele><time>2026-04-25T13:49:53.448Z</time></trkpt><trkpt lat="42.9532863" lon="12.7223415"><ele>274.5</ele><time>2026-04-25T13:49:54.448Z</time></trkpt><trkpt lat="42.9530256" lon="12.7223366"><ele>274.0</ele><time>2026-04-25T13:49:55.448Z</time></trkpt><trkpt lat="42.9527624" lon="12.7223342"><ele>274.5</ele><time>2026-04-25T13:49:56.448Z</time></trkpt><trkpt lat="42.9525025" lon="12.7223299"><ele>275.0</ele><time>2026-04-25T13:49:57.448Z</time></trkpt><trkpt lat="42.9522444" lon="12.7223187"><ele>275.0</ele><time>2026-04-25T13:49:58.448Z</time></trkpt><trkpt lat="42.9519819" lon="12.7223056"><ele>275.0</ele><time>2026-04-25T13:49:59.448Z</time></trkpt><trkpt lat="42.9517218" lon="12.7222925"><ele>276.5</ele><time>2026-04-25T13:50:00.449Z</time></trkpt><trkpt lat="42.9514606" lon="12.7222745"><ele>278.0</ele><time>2026-04-25T13:50:01.448Z</time></trkpt><trkpt lat="42.9512028" lon="12.722256"><ele>278.0</ele><time>2026-04-25T13:50:02.448Z</time></trkpt><trkpt lat="42.9509446" lon="12.7222433"><ele>278.0</ele><time>2026-04-25T13:50:03.449Z</time></trkpt><trkpt lat="42.9506792" lon="12.7222265"><ele>274.0</ele><time>2026-04-25T13:50:04.448Z</time></trkpt><trkpt lat="42.9504186" lon="12.7222118"><ele>270.0</ele><time>2026-04-25T13:50:05.448Z</time></trkpt><trkpt lat="42.9501531" lon="12.7221917"><ele>269.5</ele><time>2026-04-25T13:50:06.448Z</time></trkpt><trkpt lat="42.9498921" lon="12.7221771"><ele>269.0</ele><time>2026-04-25T13:50:07.448Z</time></trkpt><trkpt lat="42.9496311" lon="12.7221654"><ele>269.0</ele><time>2026-04-25T13:50:08.449Z</time></trkpt><trkpt lat="42.949372" lon="12.7221613"><ele>269.0</ele><time>2026-04-25T13:50:09.448Z</time></trkpt><trkpt lat="42.9491155" lon="12.7221619"><ele>268.5</ele><time>2026-04-25T13:50:10.448Z</time></trkpt><trkpt lat="42.9488594" lon="12.7221638"><ele>268.0</ele><time>2026-04-25T13:50:11.449Z</time></trkpt><trkpt lat="42.948602" lon="12.7221651"><ele>267.5</ele><time>2026-04-25T13:50:12.448Z</time></trkpt><trkpt lat="42.9483497" lon="12.7221722"><ele>267.0</ele><time>2026-04-25T13:50:13.449Z</time></trkpt><trkpt lat="42.9480995" lon="12.7221826"><ele>267.0</ele><time>2026-04-25T13:50:14.448Z</time></trkpt><trkpt lat="42.9478525" lon="12.7221961"><ele>267.0</ele><time>2026-04-25T13:50:15.448Z</time></trkpt><trkpt lat="42.9476061" lon="12.7222122"><ele>266.5</ele><time>2026-04-25T13:50:16.448Z</time></trkpt><trkpt lat="42.9473599" lon="12.722225"><ele>266.0</ele><time>2026-04-25T13:50:17.448Z</time></trkpt><trkpt lat="42.9471137" lon="12.7222496"><ele>266.0</ele><time>2026-04-25T13:50:18.448Z</time></trkpt><trkpt lat="42.9468648" lon="12.7222706"><ele>266.0</ele><time>2026-04-25T13:50:19.448Z</time></trkpt><trkpt lat="42.946618" lon="12.7222916"><ele>265.0</ele><time>2026-04-25T13:50:20.448Z</time></trkpt><trkpt lat="42.946371" lon="12.722309"><ele>264.0</ele><time>2026-04-25T13:50:21.448Z</time></trkpt><trkpt lat="42.9461253" lon="12.7223237"><ele>264.0</ele><time>2026-04-25T13:50:22.448Z</time></trkpt><trkpt lat="42.9458793" lon="12.7223394"><ele>264.0</ele><time>2026-04-25T13:50:23.448Z</time></trkpt><trkpt lat="42.9456342" lon="12.7223569"><ele>261.5</ele><time>2026-04-25T13:50:24.448Z</time></trkpt><trkpt lat="42.9453905" lon="12.7223794"><ele>259.0</ele><time>2026-04-25T13:50:25.448Z</time></trkpt><trkpt lat="42.9451401" lon="12.7223979"><ele>259.5</ele><time>2026-04-25T13:50:26.448Z</time></trkpt><trkpt lat="42.9448965" lon="12.7224113"><ele>260.0</ele><time>2026-04-25T13:50:27.449Z</time></trkpt><trkpt lat="42.9446442" lon="12.722428"><ele>260.0</ele><time>2026-04-25T13:50:28.448Z</time></trkpt><trkpt lat="42.9443958" lon="12.7224395"><ele>260.0</ele><time>2026-04-25T13:50:29.448Z</time></trkpt><trkpt lat="42.9441436" lon="12.7224523"><ele>259.5</ele><time>2026-04-25T13:50:30.449Z</time></trkpt><trkpt lat="42.9438901" lon="12.7224642"><ele>259.0</ele><time>2026-04-25T13:50:31.448Z</time></trkpt><trkpt lat="42.9436357" lon="12.7224766"><ele>258.0</ele><time>2026-04-25T13:50:32.448Z</time></trkpt><trkpt lat="42.9433785" lon="12.7224901"><ele>257.0</ele><time>2026-04-25T13:50:33.449Z</time></trkpt><trkpt lat="42.9431244" lon="12.7224963"><ele>257.0</ele><time>2026-04-25T13:50:34.448Z</time></trkpt><trkpt lat="42.9428661" lon="12.7224992"><ele>257.0</ele><time>2026-04-25T13:50:35.448Z</time></trkpt><trkpt lat="42.9426078" lon="12.7224934"><ele>256.0</ele><time>2026-04-25T13:50:36.448Z</time></trkpt><trkpt lat="42.9423472" lon="12.7224929"><ele>255.0</ele><time>2026-04-25T13:50:37.448Z</time></trkpt><trkpt lat="42.9420871" lon="12.7224908"><ele>255.0</ele><time>2026-04-25T13:50:38.448Z</time></trkpt><trkpt lat="42.9418263" lon="12.7224877"><ele>255.0</ele><time>2026-04-25T13:50:39.449Z</time></trkpt><trkpt lat="42.9415688" lon="12.7224774"><ele>255.5</ele><time>2026-04-25T13:50:40.448Z</time></trkpt><trkpt lat="42.9413116" lon="12.7224732"><ele>256.0</ele><time>2026-04-25T13:50:41.448Z</time></trkpt><trkpt lat="42.9410569" lon="12.7224803"><ele>254.0</ele><time>2026-04-25T13:50:42.448Z</time></trkpt><trkpt lat="42.9408021" lon="12.7224847"><ele>252.0</ele><time>2026-04-25T13:50:43.448Z</time></trkpt><trkpt lat="42.9405521" lon="12.7224894"><ele>252.0</ele><time>2026-04-25T13:50:44.448Z</time></trkpt><trkpt lat="42.9403006" lon="12.7224908"><ele>252.0</ele><time>2026-04-25T13:50:45.448Z</time></trkpt><trkpt lat="42.9400423" lon="12.7224912"><ele>251.0</ele><time>2026-04-25T13:50:46.448Z</time></trkpt><trkpt lat="42.9397913" lon="12.7224945"><ele>250.0</ele><time>2026-04-25T13:50:47.448Z</time></trkpt><trkpt lat="42.9395404" lon="12.7225055"><ele>250.0</ele><time>2026-04-25T13:50:48.448Z</time></trkpt><trkpt lat="42.9392917" lon="12.7225248"><ele>250.0</ele><time>2026-04-25T13:50:49.448Z</time></trkpt><trkpt lat="42.9390452" lon="12.7225615"><ele>249.0</ele><time>2026-04-25T13:50:50.448Z</time></trkpt><trkpt lat="42.9387971" lon="12.7226142"><ele>248.0</ele><time>2026-04-25T13:50:51.448Z</time></trkpt><trkpt lat="42.93855" lon="12.7226818"><ele>248.0</ele><time>2026-04-25T13:50:52.448Z</time></trkpt><trkpt lat="42.9383067" lon="12.7227563"><ele>248.0</ele><time>2026-04-25T13:50:53.448Z</time></trkpt><trkpt lat="42.9380607" lon="12.7228362"><ele>248.0</ele><time>2026-04-25T13:50:54.448Z</time></trkpt><trkpt lat="42.9378181" lon="12.7229322"><ele>248.0</ele><time>2026-04-25T13:50:55.448Z</time></trkpt><trkpt lat="42.937576" lon="12.7230363"><ele>249.5</ele><time>2026-04-25T13:50:56.448Z</time></trkpt><trkpt lat="42.9373401" lon="12.7231631"><ele>251.0</ele><time>2026-04-25T13:50:57.449Z</time></trkpt><trkpt lat="42.9371095" lon="12.7233033"><ele>251.0</ele><time>2026-04-25T13:50:58.448Z</time></trkpt><trkpt lat="42.9368807" lon="12.7234533"><ele>251.0</ele><time>2026-04-25T13:50:59.448Z</time></trkpt><trkpt lat="42.9366501" lon="12.7236164"><ele>252.0</ele><time>2026-04-25T13:51:00.448Z</time></trkpt><trkpt lat="42.9364292" lon="12.7237834"><ele>253.0</ele><time>2026-04-25T13:51:01.448Z</time></trkpt><trkpt lat="42.9362133" lon="12.7239607"><ele>253.0</ele><time>2026-04-25T13:51:02.449Z</time></trkpt><trkpt lat="42.9359989" lon="12.724142"><ele>253.0</ele><time>2026-04-25T13:51:03.448Z</time></trkpt><trkpt lat="42.9357793" lon="12.7243216"><ele>255.5</ele><time>2026-04-25T13:51:04.448Z</time></trkpt><trkpt lat="42.9355601" lon="12.7245003"><ele>258.0</ele><time>2026-04-25T13:51:05.448Z</time></trkpt><trkpt lat="42.9353364" lon="12.7246795"><ele>258.0</ele><time>2026-04-25T13:51:06.448Z</time></trkpt><trkpt lat="42.9351135" lon="12.724864"><ele>258.0</ele><time>2026-04-25T13:51:07.448Z</time></trkpt><trkpt lat="42.9348942" lon="12.7250553"><ele>260.0</ele><time>2026-04-25T13:51:08.448Z</time></trkpt><trkpt lat="42.9346688" lon="12.7252475"><ele>262.0</ele><time>2026-04-25T13:51:09.448Z</time></trkpt><trkpt lat="42.9344447" lon="12.7254313"><ele>262.0</ele><time>2026-04-25T13:51:10.448Z</time></trkpt><trkpt lat="42.934222" lon="12.7256216"><ele>262.0</ele><time>2026-04-25T13:51:11.448Z</time></trkpt><trkpt lat="42.9340008" lon="12.7258134"><ele>257.5</ele><time>2026-04-25T13:51:12.448Z</time></trkpt><trkpt lat="42.9337723" lon="12.7259994"><ele>253.0</ele><time>2026-04-25T13:51:13.448Z</time></trkpt><trkpt lat="42.9335437" lon="12.7261833"><ele>246.5</ele><time>2026-04-25T13:51:14.448Z</time></trkpt><trkpt lat="42.9333133" lon="12.7263698"><ele>240.0</ele><time>2026-04-25T13:51:15.448Z</time></trkpt><trkpt lat="42.9330862" lon="12.7265639"><ele>240.0</ele><time>2026-04-25T13:51:16.449Z</time></trkpt><trkpt lat="42.9328614" lon="12.7267487"><ele>240.0</ele><time>2026-04-25T13:51:17.449Z</time></trkpt><trkpt lat="42.9326373" lon="12.7269289"><ele>240.5</ele><time>2026-04-25T13:51:18.448Z</time></trkpt><trkpt lat="42.9324112" lon="12.7271089"><ele>241.0</ele><time>2026-04-25T13:51:19.448Z</time></trkpt><trkpt lat="42.9321875" lon="12.7272836"><ele>241.0</ele><time>2026-04-25T13:51:20.448Z</time></trkpt><trkpt lat="42.9319625" lon="12.7274574"><ele>241.0</ele><time>2026-04-25T13:51:21.449Z</time></trkpt><trkpt lat="42.931735" lon="12.727614"><ele>241.5</ele><time>2026-04-25T13:51:22.448Z</time></trkpt><trkpt lat="42.9314972" lon="12.727758"><ele>242.0</ele><time>2026-04-25T13:51:23.448Z</time></trkpt><trkpt lat="42.9312588" lon="12.727896"><ele>242.0</ele><time>2026-04-25T13:51:24.448Z</time></trkpt><trkpt lat="42.9310149" lon="12.7280127"><ele>242.0</ele><time>2026-04-25T13:51:25.448Z</time></trkpt><trkpt lat="42.9307657" lon="12.7281167"><ele>241.0</ele><time>2026-04-25T13:51:26.449Z</time></trkpt><trkpt lat="42.9305171" lon="12.7282033"><ele>240.0</ele><time>2026-04-25T13:51:27.448Z</time></trkpt><trkpt lat="42.9302669" lon="12.7282831"><ele>238.5</ele><time>2026-04-25T13:51:28.448Z</time></trkpt><trkpt lat="42.9300128" lon="12.7283516"><ele>237.0</ele><time>2026-04-25T13:51:29.448Z</time></trkpt><trkpt lat="42.9297559" lon="12.7284108"><ele>237.0</ele><time>2026-04-25T13:51:30.448Z</time></trkpt><trkpt lat="42.9294959" lon="12.7284512"><ele>237.0</ele><time>2026-04-25T13:51:31.448Z</time></trkpt><trkpt lat="42.9292349" lon="12.7284771"><ele>235.5</ele><time>2026-04-25T13:51:32.448Z</time></trkpt><trkpt lat="42.9289793" lon="12.7284917"><ele>234.0</ele><time>2026-04-25T13:51:33.448Z</time></trkpt><trkpt lat="42.9287224" lon="12.7284968"><ele>234.0</ele><time>2026-04-25T13:51:34.448Z</time></trkpt><trkpt lat="42.9284642" lon="12.7284848"><ele>234.0</ele><time>2026-04-25T13:51:35.448Z</time></trkpt><trkpt lat="42.9282062" lon="12.7284605"><ele>233.5</ele><time>2026-04-25T13:51:36.448Z</time></trkpt><trkpt lat="42.9279441" lon="12.728429"><ele>233.0</ele><time>2026-04-25T13:51:37.449Z</time></trkpt><trkpt lat="42.9276818" lon="12.7283891"><ele>232.5</ele><time>2026-04-25T13:51:38.449Z</time></trkpt><trkpt lat="42.9274168" lon="12.7283388"><ele>232.0</ele><time>2026-04-25T13:51:39.448Z</time></trkpt><trkpt lat="42.9271555" lon="12.7282936"><ele>232.0</ele><time>2026-04-25T13:51:40.448Z</time></trkpt><trkpt lat="42.9268954" lon="12.7282492"><ele>232.0</ele><time>2026-04-25T13:51:41.448Z</time></trkpt><trkpt lat="42.9266334" lon="12.7282023"><ele>232.0</ele><time>2026-04-25T13:51:42.448Z</time></trkpt><trkpt lat="42.9263713" lon="12.728158"><ele>232.0</ele><time>2026-04-25T13:51:43.449Z</time></trkpt><trkpt lat="42.9261116" lon="12.7281098"><ele>231.0</ele><time>2026-04-25T13:51:44.448Z</time></trkpt><trkpt lat="42.9258489" lon="12.7280587"><ele>230.0</ele><time>2026-04-25T13:51:45.448Z</time></trkpt><trkpt lat="42.925586" lon="12.7280162"><ele>230.0</ele><time>2026-04-25T13:51:46.448Z</time></trkpt><trkpt lat="42.9253228" lon="12.7279699"><ele>230.0</ele><time>2026-04-25T13:51:47.448Z</time></trkpt><trkpt lat="42.9250611" lon="12.727918"><ele>230.0</ele><time>2026-04-25T13:51:48.448Z</time></trkpt><trkpt lat="42.924803" lon="12.7278672"><ele>230.0</ele><time>2026-04-25T13:51:49.448Z</time></trkpt><trkpt lat="42.9245479" lon="12.727827"><ele>230.0</ele><time>2026-04-25T13:51:50.448Z</time></trkpt><trkpt lat="42.9242884" lon="12.7277882"><ele>230.0</ele><time>2026-04-25T13:51:51.448Z</time></trkpt><trkpt lat="42.9240316" lon="12.7277504"><ele>229.0</ele><time>2026-04-25T13:51:52.448Z</time></trkpt><trkpt lat="42.9237784" lon="12.7277127"><ele>228.0</ele><time>2026-04-25T13:51:53.448Z</time></trkpt><trkpt lat="42.9235225" lon="12.7276676"><ele>227.5</ele><time>2026-04-25T13:51:54.448Z</time></trkpt><trkpt lat="42.9232674" lon="12.7276274"><ele>227.0</ele><time>2026-04-25T13:51:55.448Z</time></trkpt><trkpt lat="42.9230144" lon="12.727585"><ele>227.0</ele><time>2026-04-25T13:51:56.448Z</time></trkpt><trkpt lat="42.9227616" lon="12.7275389"><ele>227.0</ele><time>2026-04-25T13:51:57.448Z</time></trkpt><trkpt lat="42.9225083" lon="12.727498"><ele>226.5</ele><time>2026-04-25T13:51:58.448Z</time></trkpt><trkpt lat="42.9222535" lon="12.7274628"><ele>226.0</ele><time>2026-04-25T13:51:59.449Z</time></trkpt><trkpt lat="42.9220008" lon="12.727443"><ele>226.0</ele><time>2026-04-25T13:52:00.448Z</time></trkpt><trkpt lat="42.9217455" lon="12.7274322"><ele>226.0</ele><time>2026-04-25T13:52:01.448Z</time></trkpt><trkpt lat="42.9214931" lon="12.727426"><ele>225.0</ele><time>2026-04-25T13:52:02.448Z</time></trkpt><trkpt lat="42.9212396" lon="12.727426"><ele>224.0</ele><time>2026-04-25T13:52:03.448Z</time></trkpt><trkpt lat="42.9209858" lon="12.727437"><ele>224.0</ele><time>2026-04-25T13:52:04.448Z</time></trkpt><trkpt lat="42.9207314" lon="12.7274555"><ele>224.0</ele><time>2026-04-25T13:52:05.448Z</time></trkpt><trkpt lat="42.9204821" lon="12.7274774"><ele>224.0</ele><time>2026-04-25T13:52:06.448Z</time></trkpt><trkpt lat="42.9202277" lon="12.7275167"><ele>224.0</ele><time>2026-04-25T13:52:07.448Z</time></trkpt><trkpt lat="42.9199785" lon="12.7275599"><ele>223.5</ele><time>2026-04-25T13:52:08.448Z</time></trkpt><trkpt lat="42.9197261" lon="12.7276115"><ele>223.0</ele><time>2026-04-25T13:52:09.448Z</time></trkpt><trkpt lat="42.9194775" lon="12.7276564"><ele>223.0</ele><time>2026-04-25T13:52:10.448Z</time></trkpt><trkpt lat="42.9192273" lon="12.7277091"><ele>223.0</ele><time>2026-04-25T13:52:11.448Z</time></trkpt><trkpt lat="42.9189751" lon="12.727764"><ele>222.5</ele><time>2026-04-25T13:52:12.448Z</time></trkpt><trkpt lat="42.9187219" lon="12.7278191"><ele>222.0</ele><time>2026-04-25T13:52:13.448Z</time></trkpt><trkpt lat="42.9184721" lon="12.7278643"><ele>223.0</ele><time>2026-04-25T13:52:14.448Z</time></trkpt><trkpt lat="42.9182174" lon="12.727906"><ele>224.0</ele><time>2026-04-25T13:52:15.448Z</time></trkpt><trkpt lat="42.9179678" lon="12.727957"><ele>224.0</ele><time>2026-04-25T13:52:16.448Z</time></trkpt><trkpt lat="42.9177116" lon="12.7280071"><ele>224.0</ele><time>2026-04-25T13:52:17.448Z</time></trkpt><trkpt lat="42.9174596" lon="12.728067"><ele>223.0</ele><time>2026-04-25T13:52:18.448Z</time></trkpt><trkpt lat="42.9172032" lon="12.7281181"><ele>222.0</ele><time>2026-04-25T13:52:19.448Z</time></trkpt><trkpt lat="42.9169496" lon="12.7281698"><ele>222.5</ele><time>2026-04-25T13:52:20.448Z</time></trkpt><trkpt lat="42.9166943" lon="12.7282272"><ele>223.0</ele><time>2026-04-25T13:52:21.448Z</time></trkpt><trkpt lat="42.9164413" lon="12.7282738"><ele>223.0</ele><time>2026-04-25T13:52:22.449Z</time></trkpt><trkpt lat="42.9161838" lon="12.7283224"><ele>223.0</ele><time>2026-04-25T13:52:23.448Z</time></trkpt><trkpt lat="42.9159234" lon="12.7283745"><ele>223.0</ele><time>2026-04-25T13:52:24.449Z</time></trkpt><trkpt lat="42.9156616" lon="12.7284265"><ele>223.0</ele><time>2026-04-25T13:52:25.448Z</time></trkpt><trkpt lat="42.9153958" lon="12.7284641"><ele>223.0</ele><time>2026-04-25T13:52:26.448Z</time></trkpt><trkpt lat="42.9151343" lon="12.7284932"><ele>223.0</ele><time>2026-04-25T13:52:27.448Z</time></trkpt><trkpt lat="42.9148749" lon="12.7284976"><ele>222.5</ele><time>2026-04-25T13:52:28.448Z</time></trkpt><trkpt lat="42.9146126" lon="12.7284863"><ele>222.0</ele><time>2026-04-25T13:52:29.448Z</time></trkpt><trkpt lat="42.9143447" lon="12.7284585"><ele>221.5</ele><time>2026-04-25T13:52:30.448Z</time></trkpt><trkpt lat="42.9140787" lon="12.7284102"><ele>221.0</ele><time>2026-04-25T13:52:31.449Z</time></trkpt><trkpt lat="42.9138105" lon="12.7283514"><ele>221.0</ele><time>2026-04-25T13:52:32.448Z</time></trkpt><trkpt lat="42.9135459" lon="12.7282843"><ele>221.0</ele><time>2026-04-25T13:52:33.448Z</time></trkpt><trkpt lat="42.9132892" lon="12.7281947"><ele>222.0</ele><time>2026-04-25T13:52:34.449Z</time></trkpt><trkpt lat="42.913036" lon="12.7280865"><ele>223.0</ele><time>2026-04-25T13:52:35.449Z</time></trkpt><trkpt lat="42.9127788" lon="12.7279613"><ele>222.0</ele><time>2026-04-25T13:52:36.448Z</time></trkpt><trkpt lat="42.9125295" lon="12.7278105"><ele>221.0</ele><time>2026-04-25T13:52:37.448Z</time></trkpt><trkpt lat="42.9122836" lon="12.7276457"><ele>219.0</ele><time>2026-04-25T13:52:38.448Z</time></trkpt><trkpt lat="42.9120393" lon="12.7274736"><ele>217.0</ele><time>2026-04-25T13:52:39.448Z</time></trkpt><trkpt lat="42.9117979" lon="12.7272873"><ele>216.5</ele><time>2026-04-25T13:52:40.449Z</time></trkpt><trkpt lat="42.9115646" lon="12.7270895"><ele>216.0</ele><time>2026-04-25T13:52:41.448Z</time></trkpt><trkpt lat="42.9113412" lon="12.7268852"><ele>215.5</ele><time>2026-04-25T13:52:42.448Z</time></trkpt><trkpt lat="42.9111173" lon="12.72667"><ele>215.0</ele><time>2026-04-25T13:52:43.448Z</time></trkpt><trkpt lat="42.9108969" lon="12.7264475"><ele>215.0</ele><time>2026-04-25T13:52:44.449Z</time></trkpt><trkpt lat="42.9106853" lon="12.7262222"><ele>215.0</ele><time>2026-04-25T13:52:45.448Z</time></trkpt><trkpt lat="42.9104658" lon="12.7260052"><ele>214.0</ele><time>2026-04-25T13:52:46.448Z</time></trkpt><trkpt lat="42.9102491" lon="12.7257909"><ele>213.0</ele><time>2026-04-25T13:52:47.448Z</time></trkpt><trkpt lat="42.9100285" lon="12.7255767"><ele>213.0</ele><time>2026-04-25T13:52:48.449Z</time></trkpt><trkpt lat="42.9098129" lon="12.7253624"><ele>213.0</ele><time>2026-04-25T13:52:49.449Z</time></trkpt><trkpt lat="42.9095939" lon="12.7251482"><ele>213.0</ele><time>2026-04-25T13:52:50.448Z</time></trkpt><trkpt lat="42.9093768" lon="12.7249447"><ele>213.0</ele><time>2026-04-25T13:52:51.449Z</time></trkpt><trkpt lat="42.9091625" lon="12.7247345"><ele>213.0</ele><time>2026-04-25T13:52:52.448Z</time></trkpt><trkpt lat="42.9089516" lon="12.7245203"><ele>213.0</ele><time>2026-04-25T13:52:53.448Z</time></trkpt><trkpt lat="42.9087411" lon="12.7243058"><ele>212.5</ele><time>2026-04-25T13:52:54.448Z</time></trkpt><trkpt lat="42.9085309" lon="12.7240998"><ele>212.0</ele><time>2026-04-25T13:52:55.448Z</time></trkpt><trkpt lat="42.9083192" lon="12.7238899"><ele>211.0</ele><time>2026-04-25T13:52:56.448Z</time></trkpt><trkpt lat="42.9081096" lon="12.7236872"><ele>210.0</ele><time>2026-04-25T13:52:57.448Z</time></trkpt><trkpt lat="42.907901" lon="12.7234872"><ele>208.5</ele><time>2026-04-25T13:52:58.448Z</time></trkpt><trkpt lat="42.9076929" lon="12.7232847"><ele>207.0</ele><time>2026-04-25T13:52:59.448Z</time></trkpt><trkpt lat="42.9074805" lon="12.7230867"><ele>207.0</ele><time>2026-04-25T13:53:00.448Z</time></trkpt><trkpt lat="42.9072703" lon="12.7228903"><ele>207.0</ele><time>2026-04-25T13:53:01.449Z</time></trkpt><trkpt lat="42.9070588" lon="12.7226971"><ele>207.0</ele><time>2026-04-25T13:53:02.449Z</time></trkpt><trkpt lat="42.9068407" lon="12.7225109"><ele>207.0</ele><time>2026-04-25T13:53:03.448Z</time></trkpt><trkpt lat="42.9066236" lon="12.7223318"><ele>207.0</ele><time>2026-04-25T13:53:04.448Z</time></trkpt><trkpt lat="42.9064025" lon="12.7221605"><ele>207.0</ele><time>2026-04-25T13:53:05.448Z</time></trkpt><trkpt lat="42.9061766" lon="12.7220003"><ele>207.0</ele><time>2026-04-25T13:53:06.448Z</time></trkpt><trkpt lat="42.9059495" lon="12.72184"><ele>207.0</ele><time>2026-04-25T13:53:07.448Z</time></trkpt><trkpt lat="42.9057177" lon="12.721692"><ele>207.5</ele><time>2026-04-25T13:53:08.448Z</time></trkpt><trkpt lat="42.9054842" lon="12.7215525"><ele>208.0</ele><time>2026-04-25T13:53:09.448Z</time></trkpt><trkpt lat="42.9052461" lon="12.7214228"><ele>208.0</ele><time>2026-04-25T13:53:10.448Z</time></trkpt><trkpt lat="42.9050053" lon="12.7213028"><ele>208.0</ele><time>2026-04-25T13:53:11.448Z</time></trkpt><trkpt lat="42.9047611" lon="12.721199"><ele>208.0</ele><time>2026-04-25T13:53:12.449Z</time></trkpt><trkpt lat="42.9045122" lon="12.7211001"><ele>208.0</ele><time>2026-04-25T13:53:13.449Z</time></trkpt><trkpt lat="42.9042623" lon="12.7210131"><ele>207.5</ele><time>2026-04-25T13:53:14.448Z</time></trkpt><trkpt lat="42.9040113" lon="12.7209333"><ele>207.0</ele><time>2026-04-25T13:53:15.448Z</time></trkpt><trkpt lat="42.9037577" lon="12.7208646"><ele>207.0</ele><time>2026-04-25T13:53:16.448Z</time></trkpt><trkpt lat="42.9035" lon="12.7208021"><ele>207.0</ele><time>2026-04-25T13:53:17.448Z</time></trkpt><trkpt lat="42.9032405" lon="12.7207526"><ele>206.5</ele><time>2026-04-25T13:53:18.448Z</time></trkpt><trkpt lat="42.9029756" lon="12.7207153"><ele>206.0</ele><time>2026-04-25T13:53:19.448Z</time></trkpt><trkpt lat="42.9027104" lon="12.7206896"><ele>206.5</ele><time>2026-04-25T13:53:20.448Z</time></trkpt><trkpt lat="42.9024414" lon="12.7206656"><ele>207.0</ele><time>2026-04-25T13:53:21.449Z</time></trkpt><trkpt lat="42.9021736" lon="12.7206478"><ele>207.0</ele><time>2026-04-25T13:53:22.448Z</time></trkpt><trkpt lat="42.9019047" lon="12.7206343"><ele>207.0</ele><time>2026-04-25T13:53:23.449Z</time></trkpt><trkpt lat="42.9016332" lon="12.720624"><ele>207.5</ele><time>2026-04-25T13:53:24.448Z</time></trkpt><trkpt lat="42.9013648" lon="12.7206117"><ele>208.0</ele><time>2026-04-25T13:53:25.448Z</time></trkpt><trkpt lat="42.9010952" lon="12.7206013"><ele>207.5</ele><time>2026-04-25T13:53:26.448Z</time></trkpt><trkpt lat="42.9008258" lon="12.7205976"><ele>207.0</ele><time>2026-04-25T13:53:27.448Z</time></trkpt><trkpt lat="42.9005615" lon="12.7205991"><ele>207.0</ele><time>2026-04-25T13:53:28.448Z</time></trkpt><trkpt lat="42.9002963" lon="12.7206079"><ele>207.0</ele><time>2026-04-25T13:53:29.448Z</time></trkpt><trkpt lat="42.9000323" lon="12.7206197"><ele>207.0</ele><time>2026-04-25T13:53:30.448Z</time></trkpt><trkpt lat="42.8997689" lon="12.7206307"><ele>207.0</ele><time>2026-04-25T13:53:31.448Z</time></trkpt><trkpt lat="42.89951" lon="12.7206483"><ele>206.5</ele><time>2026-04-25T13:53:32.448Z</time></trkpt><trkpt lat="42.8992491" lon="12.7206641"><ele>206.0</ele><time>2026-04-25T13:53:33.448Z</time></trkpt><trkpt lat="42.8989864" lon="12.7206831"><ele>206.0</ele><time>2026-04-25T13:53:34.448Z</time></trkpt><trkpt lat="42.8987214" lon="12.7207088"><ele>206.0</ele><time>2026-04-25T13:53:35.448Z</time></trkpt><trkpt lat="42.8984558" lon="12.7207419"><ele>204.5</ele><time>2026-04-25T13:53:36.449Z</time></trkpt><trkpt lat="42.898191" lon="12.7207728"><ele>203.0</ele><time>2026-04-25T13:53:37.449Z</time></trkpt><trkpt lat="42.8979295" lon="12.7208032"><ele>203.0</ele><time>2026-04-25T13:53:38.448Z</time></trkpt><trkpt lat="42.8976617" lon="12.7208448"><ele>203.0</ele><time>2026-04-25T13:53:39.448Z</time></trkpt><trkpt lat="42.8974014" lon="12.7208918"><ele>205.0</ele><time>2026-04-25T13:53:40.448Z</time></trkpt><trkpt lat="42.8971396" lon="12.7209409"><ele>207.0</ele><time>2026-04-25T13:53:41.449Z</time></trkpt><trkpt lat="42.8968779" lon="12.7209874"><ele>206.5</ele><time>2026-04-25T13:53:42.448Z</time></trkpt><trkpt lat="42.8966182" lon="12.7210343"><ele>206.0</ele><time>2026-04-25T13:53:43.448Z</time></trkpt><trkpt lat="42.896354" lon="12.7210925"><ele>206.0</ele><time>2026-04-25T13:53:44.448Z</time></trkpt><trkpt lat="42.8960909" lon="12.7211512"><ele>206.0</ele><time>2026-04-25T13:53:45.448Z</time></trkpt><trkpt lat="42.8958254" lon="12.7212156"><ele>206.5</ele><time>2026-04-25T13:53:46.448Z</time></trkpt><trkpt lat="42.895561" lon="12.7212888"><ele>207.0</ele><time>2026-04-25T13:53:47.448Z</time></trkpt><trkpt lat="42.8952999" lon="12.7213635"><ele>207.0</ele><time>2026-04-25T13:53:48.448Z</time></trkpt><trkpt lat="42.8950355" lon="12.7214301"><ele>207.0</ele><time>2026-04-25T13:53:49.448Z</time></trkpt><trkpt lat="42.8947731" lon="12.7215078"><ele>207.0</ele><time>2026-04-25T13:53:50.449Z</time></trkpt><trkpt lat="42.894507" lon="12.7215932"><ele>207.0</ele><time>2026-04-25T13:53:51.448Z</time></trkpt><trkpt lat="42.8942429" lon="12.7216735"><ele>206.5</ele><time>2026-04-25T13:53:52.448Z</time></trkpt><trkpt lat="42.8939792" lon="12.7217557"><ele>206.0</ele><time>2026-04-25T13:53:53.448Z</time></trkpt><trkpt lat="42.8937182" lon="12.7218453"><ele>206.5</ele><time>2026-04-25T13:53:54.448Z</time></trkpt><trkpt lat="42.8934582" lon="12.7219429"><ele>207.0</ele><time>2026-04-25T13:53:55.449Z</time></trkpt><trkpt lat="42.8932" lon="12.7220365"><ele>208.0</ele><time>2026-04-25T13:53:56.448Z</time></trkpt><trkpt lat="42.8929401" lon="12.7221348"><ele>209.0</ele><time>2026-04-25T13:53:57.448Z</time></trkpt><trkpt lat="42.8926819" lon="12.7222342"><ele>207.0</ele><time>2026-04-25T13:53:58.448Z</time></trkpt><trkpt lat="42.892426" lon="12.7223396"><ele>205.0</ele><time>2026-04-25T13:53:59.448Z</time></trkpt><trkpt lat="42.8921692" lon="12.7224513"><ele>205.0</ele><time>2026-04-25T13:54:00.448Z</time></trkpt><trkpt lat="42.8919158" lon="12.7225656"><ele>205.0</ele><time>2026-04-25T13:54:01.448Z</time></trkpt><trkpt lat="42.8916592" lon="12.72269"><ele>205.5</ele><time>2026-04-25T13:54:02.448Z</time></trkpt><trkpt lat="42.8913992" lon="12.7228108"><ele>206.0</ele><time>2026-04-25T13:54:03.448Z</time></trkpt><trkpt lat="42.8911412" lon="12.7229356"><ele>205.0</ele><time>2026-04-25T13:54:04.448Z</time></trkpt><trkpt lat="42.8908897" lon="12.7230644"><ele>204.0</ele><time>2026-04-25T13:54:05.448Z</time></trkpt><trkpt lat="42.8906405" lon="12.7231982"><ele>204.0</ele><time>2026-04-25T13:54:06.448Z</time></trkpt><trkpt lat="42.8903887" lon="12.7233345"><ele>204.0</ele><time>2026-04-25T13:54:07.448Z</time></trkpt><trkpt lat="42.8901459" lon="12.7234673"><ele>205.5</ele><time>2026-04-25T13:54:08.448Z</time></trkpt><trkpt lat="42.8899015" lon="12.7236088"><ele>207.0</ele><time>2026-04-25T13:54:09.448Z</time></trkpt><trkpt lat="42.8896582" lon="12.7237519"><ele>207.0</ele><time>2026-04-25T13:54:10.449Z</time></trkpt><trkpt lat="42.8894105" lon="12.7238972"><ele>207.0</ele><time>2026-04-25T13:54:11.448Z</time></trkpt><trkpt lat="42.8891628" lon="12.7240381"><ele>206.5</ele><time>2026-04-25T13:54:12.448Z</time></trkpt><trkpt lat="42.8889118" lon="12.7241821"><ele>206.0</ele><time>2026-04-25T13:54:13.448Z</time></trkpt><trkpt lat="42.8886665" lon="12.7243204"><ele>206.5</ele><time>2026-04-25T13:54:14.448Z</time></trkpt><trkpt lat="42.8884198" lon="12.7244677"><ele>207.0</ele><time>2026-04-25T13:54:15.448Z</time></trkpt><trkpt lat="42.8881733" lon="12.7246144"><ele>207.0</ele><time>2026-04-25T13:54:16.448Z</time></trkpt><trkpt lat="42.8879289" lon="12.7247534"><ele>207.0</ele><time>2026-04-25T13:54:17.448Z</time></trkpt><trkpt lat="42.8876802" lon="12.7248929"><ele>208.0</ele><time>2026-04-25T13:54:18.448Z</time></trkpt><trkpt lat="42.8874311" lon="12.7250446"><ele>209.0</ele><time>2026-04-25T13:54:19.448Z</time></trkpt><trkpt lat="42.887187" lon="12.7251931"><ele>209.0</ele><time>2026-04-25T13:54:20.448Z</time></trkpt><trkpt lat="42.88694" lon="12.7253421"><ele>209.0</ele><time>2026-04-25T13:54:21.448Z</time></trkpt><trkpt lat="42.8866908" lon="12.7254917"><ele>208.0</ele><time>2026-04-25T13:54:22.448Z</time></trkpt><trkpt lat="42.8864417" lon="12.7256442"><ele>207.0</ele><time>2026-04-25T13:54:23.448Z</time></trkpt><trkpt lat="42.8861959" lon="12.7257959"><ele>207.0</ele><time>2026-04-25T13:54:24.448Z</time></trkpt><trkpt lat="42.8859474" lon="12.7259411"><ele>207.0</ele><time>2026-04-25T13:54:25.448Z</time></trkpt><trkpt lat="42.8856995" lon="12.7260915"><ele>207.0</ele><time>2026-04-25T13:54:26.448Z</time></trkpt><trkpt lat="42.8854519" lon="12.726241"><ele>207.0</ele><time>2026-04-25T13:54:27.449Z</time></trkpt><trkpt lat="42.8852026" lon="12.7263923"><ele>207.0</ele><time>2026-04-25T13:54:28.449Z</time></trkpt><trkpt lat="42.8849547" lon="12.7265358"><ele>207.0</ele><time>2026-04-25T13:54:29.448Z</time></trkpt><trkpt lat="42.8847055" lon="12.7266855"><ele>207.0</ele><time>2026-04-25T13:54:30.449Z</time></trkpt><trkpt lat="42.8844611" lon="12.7268351"><ele>207.0</ele><time>2026-04-25T13:54:31.448Z</time></trkpt><trkpt lat="42.884213" lon="12.7269913"><ele>208.0</ele><time>2026-04-25T13:54:32.448Z</time></trkpt><trkpt lat="42.8839614" lon="12.7271483"><ele>209.0</ele><time>2026-04-25T13:54:33.448Z</time></trkpt><trkpt lat="42.8837134" lon="12.727293"><ele>209.0</ele><time>2026-04-25T13:54:34.448Z</time></trkpt><trkpt lat="42.8834693" lon="12.7274428"><ele>209.0</ele><time>2026-04-25T13:54:35.448Z</time></trkpt><trkpt lat="42.8832222" lon="12.7275929"><ele>208.5</ele><time>2026-04-25T13:54:36.448Z</time></trkpt><trkpt lat="42.8829779" lon="12.7277477"><ele>208.0</ele><time>2026-04-25T13:54:37.448Z</time></trkpt><trkpt lat="42.8827346" lon="12.7279023"><ele>209.0</ele><time>2026-04-25T13:54:38.448Z</time></trkpt><trkpt lat="42.8824957" lon="12.728061"><ele>210.0</ele><time>2026-04-25T13:54:39.448Z</time></trkpt><trkpt lat="42.8822547" lon="12.7282091"><ele>210.0</ele><time>2026-04-25T13:54:40.448Z</time></trkpt><trkpt lat="42.8820151" lon="12.7283569"><ele>210.0</ele><time>2026-04-25T13:54:41.448Z</time></trkpt><trkpt lat="42.8817781" lon="12.7284963"><ele>209.5</ele><time>2026-04-25T13:54:42.449Z</time></trkpt><trkpt lat="42.8815381" lon="12.7286417"><ele>209.0</ele><time>2026-04-25T13:54:43.448Z</time></trkpt><trkpt lat="42.8812949" lon="12.7287809"><ele>209.0</ele><time>2026-04-25T13:54:44.448Z</time></trkpt><trkpt lat="42.8810583" lon="12.7289212"><ele>209.0</ele><time>2026-04-25T13:54:45.448Z</time></trkpt><trkpt lat="42.8808145" lon="12.7290551"><ele>208.0</ele><time>2026-04-25T13:54:46.448Z</time></trkpt><trkpt lat="42.8805688" lon="12.7291882"><ele>207.0</ele><time>2026-04-25T13:54:47.448Z</time></trkpt><trkpt lat="42.8803265" lon="12.7293238"><ele>207.5</ele><time>2026-04-25T13:54:48.448Z</time></trkpt><trkpt lat="42.8800823" lon="12.7294607"><ele>208.0</ele><time>2026-04-25T13:54:49.448Z</time></trkpt><trkpt lat="42.8798387" lon="12.7295826"><ele>208.0</ele><time>2026-04-25T13:54:50.448Z</time></trkpt><trkpt lat="42.8796035" lon="12.7297255"><ele>208.0</ele><time>2026-04-25T13:54:51.449Z</time></trkpt><trkpt lat="42.8793601" lon="12.7298592"><ele>208.0</ele><time>2026-04-25T13:54:52.448Z</time></trkpt><trkpt lat="42.8791149" lon="12.7299754"><ele>208.0</ele><time>2026-04-25T13:54:53.448Z</time></trkpt><trkpt lat="42.8788656" lon="12.7300782"><ele>208.0</ele><time>2026-04-25T13:54:54.448Z</time></trkpt><trkpt lat="42.8786157" lon="12.7301793"><ele>208.0</ele><time>2026-04-25T13:54:55.448Z</time></trkpt><trkpt lat="42.8783643" lon="12.7302619"><ele>208.0</ele><time>2026-04-25T13:54:56.448Z</time></trkpt><trkpt lat="42.8781119" lon="12.7303388"><ele>208.0</ele><time>2026-04-25T13:54:57.448Z</time></trkpt><trkpt lat="42.8778549" lon="12.7303935"><ele>208.0</ele><time>2026-04-25T13:54:58.449Z</time></trkpt><trkpt lat="42.8775975" lon="12.7304448"><ele>208.0</ele><time>2026-04-25T13:54:59.449Z</time></trkpt><trkpt lat="42.8773418" lon="12.7304691"><ele>208.0</ele><time>2026-04-25T13:55:00.448Z</time></trkpt><trkpt lat="42.8770877" lon="12.7304845"><ele>208.0</ele><time>2026-04-25T13:55:01.448Z</time></trkpt><trkpt lat="42.8768303" lon="12.7304869"><ele>208.0</ele><time>2026-04-25T13:55:02.448Z</time></trkpt><trkpt lat="42.8765702" lon="12.7304702"><ele>208.0</ele><time>2026-04-25T13:55:03.448Z</time></trkpt><trkpt lat="42.8763105" lon="12.7304323"><ele>208.0</ele><time>2026-04-25T13:55:04.448Z</time></trkpt><trkpt lat="42.8760588" lon="12.7303773"><ele>208.0</ele><time>2026-04-25T13:55:05.448Z</time></trkpt><trkpt lat="42.8758101" lon="12.7303065"><ele>208.5</ele><time>2026-04-25T13:55:06.448Z</time></trkpt><trkpt lat="42.8755616" lon="12.7302351"><ele>209.0</ele><time>2026-04-25T13:55:07.448Z</time></trkpt><trkpt lat="42.8753173" lon="12.7301479"><ele>209.5</ele><time>2026-04-25T13:55:08.448Z</time></trkpt><trkpt lat="42.8750674" lon="12.7300615"><ele>210.0</ele><time>2026-04-25T13:55:09.448Z</time></trkpt><trkpt lat="42.8748195" lon="12.7299505"><ele>210.0</ele><time>2026-04-25T13:55:10.448Z</time></trkpt><trkpt lat="42.8745751" lon="12.7298458"><ele>210.0</ele><time>2026-04-25T13:55:11.448Z</time></trkpt><trkpt lat="42.8743328" lon="12.7297335"><ele>211.0</ele><time>2026-04-25T13:55:12.449Z</time></trkpt><trkpt lat="42.8740846" lon="12.729622"><ele>212.0</ele><time>2026-04-25T13:55:13.448Z</time></trkpt><trkpt lat="42.8738378" lon="12.7295135"><ele>212.0</ele><time>2026-04-25T13:55:14.448Z</time></trkpt><trkpt lat="42.8735828" lon="12.7294188"><ele>212.0</ele><time>2026-04-25T13:55:15.449Z</time></trkpt><trkpt lat="42.8733204" lon="12.7293168"><ele>212.0</ele><time>2026-04-25T13:55:16.448Z</time></trkpt><trkpt lat="42.8730666" lon="12.7292362"><ele>212.0</ele><time>2026-04-25T13:55:17.448Z</time></trkpt><trkpt lat="42.8728102" lon="12.7291563"><ele>212.0</ele><time>2026-04-25T13:55:18.448Z</time></trkpt><trkpt lat="42.8725474" lon="12.7291032"><ele>212.0</ele><time>2026-04-25T13:55:19.448Z</time></trkpt><trkpt lat="42.8722846" lon="12.7290613"><ele>212.0</ele><time>2026-04-25T13:55:20.449Z</time></trkpt><trkpt lat="42.8720223" lon="12.7290334"><ele>212.0</ele><time>2026-04-25T13:55:21.448Z</time></trkpt><trkpt lat="42.8717604" lon="12.7290276"><ele>211.5</ele><time>2026-04-25T13:55:22.448Z</time></trkpt><trkpt lat="42.8714932" lon="12.7290393"><ele>211.0</ele><time>2026-04-25T13:55:23.448Z</time></trkpt><trkpt lat="42.8712263" lon="12.7290668"><ele>211.0</ele><time>2026-04-25T13:55:24.448Z</time></trkpt><trkpt lat="42.8709627" lon="12.7291065"><ele>211.0</ele><time>2026-04-25T13:55:25.448Z</time></trkpt><trkpt lat="42.8706953" lon="12.7291575"><ele>212.0</ele><time>2026-04-25T13:55:26.448Z</time></trkpt><trkpt lat="42.8704363" lon="12.7292245"><ele>213.0</ele><time>2026-04-25T13:55:27.448Z</time></trkpt><trkpt lat="42.8701826" lon="12.7293133"><ele>211.5</ele><time>2026-04-25T13:55:28.448Z</time></trkpt><trkpt lat="42.8699329" lon="12.7294062"><ele>210.0</ele><time>2026-04-25T13:55:29.448Z</time></trkpt><trkpt lat="42.8696897" lon="12.7295158"><ele>210.0</ele><time>2026-04-25T13:55:30.448Z</time></trkpt><trkpt lat="42.8694548" lon="12.7296391"><ele>210.0</ele><time>2026-04-25T13:55:31.448Z</time></trkpt><trkpt lat="42.8692177" lon="12.7297715"><ele>211.0</ele><time>2026-04-25T13:55:32.449Z</time></trkpt><trkpt lat="42.8689873" lon="12.729917"><ele>212.0</ele><time>2026-04-25T13:55:33.448Z</time></trkpt><trkpt lat="42.868762" lon="12.7300767"><ele>212.5</ele><time>2026-04-25T13:55:34.448Z</time></trkpt><trkpt lat="42.8685377" lon="12.7302406"><ele>213.0</ele><time>2026-04-25T13:55:35.449Z</time></trkpt><trkpt lat="42.868313" lon="12.7304137"><ele>213.0</ele><time>2026-04-25T13:55:36.448Z</time></trkpt><trkpt lat="42.8680948" lon="12.7305875"><ele>213.0</ele><time>2026-04-25T13:55:37.448Z</time></trkpt><trkpt lat="42.867872" lon="12.7307635"><ele>213.0</ele><time>2026-04-25T13:55:38.449Z</time></trkpt><trkpt lat="42.8676516" lon="12.7309391"><ele>213.0</ele><time>2026-04-25T13:55:39.448Z</time></trkpt><trkpt lat="42.8674349" lon="12.7311185"><ele>212.5</ele><time>2026-04-25T13:55:40.448Z</time></trkpt><trkpt lat="42.8672182" lon="12.7313003"><ele>212.0</ele><time>2026-04-25T13:55:41.448Z</time></trkpt><trkpt lat="42.8670013" lon="12.7314824"><ele>212.0</ele><time>2026-04-25T13:55:42.448Z</time></trkpt><trkpt lat="42.8667814" lon="12.7316726"><ele>212.0</ele><time>2026-04-25T13:55:43.448Z</time></trkpt><trkpt lat="42.8665631" lon="12.7318522"><ele>212.0</ele><time>2026-04-25T13:55:44.448Z</time></trkpt><trkpt lat="42.8663452" lon="12.7320424"><ele>212.0</ele><time>2026-04-25T13:55:45.448Z</time></trkpt><trkpt lat="42.8661292" lon="12.7322351"><ele>214.0</ele><time>2026-04-25T13:55:46.449Z</time></trkpt><trkpt lat="42.8659155" lon="12.7324267"><ele>216.0</ele><time>2026-04-25T13:55:47.448Z</time></trkpt><trkpt lat="42.8657049" lon="12.7326313"><ele>215.0</ele><time>2026-04-25T13:55:48.448Z</time></trkpt><trkpt lat="42.865505" lon="12.7328578"><ele>214.0</ele><time>2026-04-25T13:55:49.449Z</time></trkpt><trkpt lat="42.8653082" lon="12.7330752"><ele>214.0</ele><time>2026-04-25T13:55:50.448Z</time></trkpt><trkpt lat="42.8651133" lon="12.7333057"><ele>214.0</ele><time>2026-04-25T13:55:51.449Z</time></trkpt><trkpt lat="42.8649247" lon="12.7335391"><ele>213.5</ele><time>2026-04-25T13:55:52.448Z</time></trkpt><trkpt lat="42.8647379" lon="12.7337725"><ele>213.0</ele><time>2026-04-25T13:55:53.449Z</time></trkpt><trkpt lat="42.8645488" lon="12.734006"><ele>213.0</ele><time>2026-04-25T13:55:54.448Z</time></trkpt><trkpt lat="42.864358" lon="12.7342383"><ele>213.0</ele><time>2026-04-25T13:55:55.448Z</time></trkpt><trkpt lat="42.8641598" lon="12.7344686"><ele>213.0</ele><time>2026-04-25T13:55:56.448Z</time></trkpt><trkpt lat="42.863969" lon="12.7346971"><ele>213.0</ele><time>2026-04-25T13:55:57.448Z</time></trkpt><trkpt lat="42.8637702" lon="12.7349135"><ele>213.0</ele><time>2026-04-25T13:55:58.448Z</time></trkpt><trkpt lat="42.8635716" lon="12.7351349"><ele>213.0</ele><time>2026-04-25T13:55:59.448Z</time></trkpt><trkpt lat="42.8633716" lon="12.7353501"><ele>212.5</ele><time>2026-04-25T13:56:00.448Z</time></trkpt><trkpt lat="42.8631647" lon="12.7355563"><ele>212.0</ele><time>2026-04-25T13:56:01.449Z</time></trkpt><trkpt lat="42.8629539" lon="12.7357556"><ele>212.0</ele><time>2026-04-25T13:56:02.448Z</time></trkpt><trkpt lat="42.8627363" lon="12.7359502"><ele>212.0</ele><time>2026-04-25T13:56:03.449Z</time></trkpt><trkpt lat="42.8625182" lon="12.736147"><ele>214.0</ele><time>2026-04-25T13:56:04.448Z</time></trkpt><trkpt lat="42.8622944" lon="12.7363273"><ele>216.0</ele><time>2026-04-25T13:56:05.448Z</time></trkpt><trkpt lat="42.8620643" lon="12.7365082"><ele>216.0</ele><time>2026-04-25T13:56:06.448Z</time></trkpt><trkpt lat="42.8618276" lon="12.7366808"><ele>216.0</ele><time>2026-04-25T13:56:07.449Z</time></trkpt><trkpt lat="42.8615922" lon="12.7368486"><ele>215.5</ele><time>2026-04-25T13:56:08.448Z</time></trkpt><trkpt lat="42.8613526" lon="12.7370213"><ele>215.0</ele><time>2026-04-25T13:56:09.448Z</time></trkpt><trkpt lat="42.86111" lon="12.7371943"><ele>215.0</ele><time>2026-04-25T13:56:10.448Z</time></trkpt><trkpt lat="42.8608671" lon="12.7373587"><ele>215.0</ele><time>2026-04-25T13:56:11.449Z</time></trkpt><trkpt lat="42.8606324" lon="12.7375197"><ele>215.0</ele><time>2026-04-25T13:56:12.448Z</time></trkpt><trkpt lat="42.8603893" lon="12.7376769"><ele>215.0</ele><time>2026-04-25T13:56:13.448Z</time></trkpt><trkpt lat="42.8601468" lon="12.7378253"><ele>215.0</ele><time>2026-04-25T13:56:14.448Z</time></trkpt><trkpt lat="42.8599008" lon="12.7379872"><ele>215.0</ele><time>2026-04-25T13:56:15.448Z</time></trkpt><trkpt lat="42.8596585" lon="12.7381471"><ele>215.0</ele><time>2026-04-25T13:56:16.448Z</time></trkpt><trkpt lat="42.8594157" lon="12.7383016"><ele>215.0</ele><time>2026-04-25T13:56:17.449Z</time></trkpt><trkpt lat="42.8591743" lon="12.7384569"><ele>215.5</ele><time>2026-04-25T13:56:18.448Z</time></trkpt><trkpt lat="42.858934" lon="12.7386116"><ele>216.0</ele><time>2026-04-25T13:56:19.448Z</time></trkpt><trkpt lat="42.8586909" lon="12.73877"><ele>216.0</ele><time>2026-04-25T13:56:20.448Z</time></trkpt><trkpt lat="42.8584503" lon="12.7389375"><ele>216.0</ele><time>2026-04-25T13:56:21.448Z</time></trkpt><trkpt lat="42.8582123" lon="12.739099"><ele>216.0</ele><time>2026-04-25T13:56:22.448Z</time></trkpt><trkpt lat="42.8579731" lon="12.7392641"><ele>216.0</ele><time>2026-04-25T13:56:23.449Z</time></trkpt><trkpt lat="42.8577363" lon="12.7394316"><ele>216.0</ele><time>2026-04-25T13:56:24.448Z</time></trkpt><trkpt lat="42.8574996" lon="12.7395996"><ele>216.0</ele><time>2026-04-25T13:56:25.449Z</time></trkpt><trkpt lat="42.8572637" lon="12.7397669"><ele>216.0</ele><time>2026-04-25T13:56:26.448Z</time></trkpt><trkpt lat="42.8570344" lon="12.7399452"><ele>216.0</ele><time>2026-04-25T13:56:27.448Z</time></trkpt><trkpt lat="42.8568082" lon="12.740122"><ele>215.5</ele><time>2026-04-25T13:56:28.448Z</time></trkpt><trkpt lat="42.8565804" lon="12.7403006"><ele>215.0</ele><time>2026-04-25T13:56:29.448Z</time></trkpt><trkpt lat="42.8563565" lon="12.7404861"><ele>215.0</ele><time>2026-04-25T13:56:30.448Z</time></trkpt><trkpt lat="42.856138" lon="12.7406783"><ele>215.0</ele><time>2026-04-25T13:56:31.448Z</time></trkpt><trkpt lat="42.8559162" lon="12.7408699"><ele>216.5</ele><time>2026-04-25T13:56:32.448Z</time></trkpt><trkpt lat="42.8557004" lon="12.7410645"><ele>218.0</ele><time>2026-04-25T13:56:33.448Z</time></trkpt><trkpt lat="42.8554814" lon="12.7412535"><ele>218.0</ele><time>2026-04-25T13:56:34.448Z</time></trkpt><trkpt lat="42.8552686" lon="12.7414581"><ele>218.0</ele><time>2026-04-25T13:56:35.448Z</time></trkpt><trkpt lat="42.8550477" lon="12.7416554"><ele>218.0</ele><time>2026-04-25T13:56:36.449Z</time></trkpt><trkpt lat="42.8548301" lon="12.7418578"><ele>218.0</ele><time>2026-04-25T13:56:37.448Z</time></trkpt><trkpt lat="42.8546039" lon="12.7420419"><ele>217.5</ele><time>2026-04-25T13:56:38.448Z</time></trkpt><trkpt lat="42.8543862" lon="12.7422362"><ele>217.0</ele><time>2026-04-25T13:56:39.448Z</time></trkpt><trkpt lat="42.8541701" lon="12.7424387"><ele>217.0</ele><time>2026-04-25T13:56:40.448Z</time></trkpt><trkpt lat="42.8539604" lon="12.7426476"><ele>217.0</ele><time>2026-04-25T13:56:41.449Z</time></trkpt><trkpt lat="42.8537551" lon="12.7428548"><ele>217.0</ele><time>2026-04-25T13:56:42.448Z</time></trkpt><trkpt lat="42.8535448" lon="12.7430663"><ele>217.0</ele><time>2026-04-25T13:56:43.448Z</time></trkpt><trkpt lat="42.8533436" lon="12.7432885"><ele>216.5</ele><time>2026-04-25T13:56:44.448Z</time></trkpt><trkpt lat="42.8531422" lon="12.7435062"><ele>216.0</ele><time>2026-04-25T13:56:45.448Z</time></trkpt><trkpt lat="42.8529408" lon="12.7437272"><ele>216.0</ele><time>2026-04-25T13:56:46.448Z</time></trkpt><trkpt lat="42.8527411" lon="12.7439532"><ele>216.0</ele><time>2026-04-25T13:56:47.448Z</time></trkpt><trkpt lat="42.8525405" lon="12.7441675"><ele>216.0</ele><time>2026-04-25T13:56:48.448Z</time></trkpt><trkpt lat="42.8523403" lon="12.7443936"><ele>216.0</ele><time>2026-04-25T13:56:49.448Z</time></trkpt><trkpt lat="42.8521377" lon="12.7446138"><ele>216.0</ele><time>2026-04-25T13:56:50.448Z</time></trkpt><trkpt lat="42.8519418" lon="12.7448286"><ele>216.0</ele><time>2026-04-25T13:56:51.448Z</time></trkpt><trkpt lat="42.8517447" lon="12.7450448"><ele>216.0</ele><time>2026-04-25T13:56:52.448Z</time></trkpt><trkpt lat="42.8515454" lon="12.7452563"><ele>216.0</ele><time>2026-04-25T13:56:53.448Z</time></trkpt><trkpt lat="42.8513492" lon="12.7454663"><ele>216.0</ele><time>2026-04-25T13:56:54.448Z</time></trkpt><trkpt lat="42.8511512" lon="12.7456777"><ele>216.0</ele><time>2026-04-25T13:56:55.448Z</time></trkpt><trkpt lat="42.8509537" lon="12.7458791"><ele>216.5</ele><time>2026-04-25T13:56:56.448Z</time></trkpt><trkpt lat="42.8507526" lon="12.7460705"><ele>217.0</ele><time>2026-04-25T13:56:57.448Z</time></trkpt><trkpt lat="42.8505465" lon="12.7462522"><ele>217.0</ele><time>2026-04-25T13:56:58.448Z</time></trkpt><trkpt lat="42.8503357" lon="12.7464219"><ele>217.0</ele><time>2026-04-25T13:56:59.449Z</time></trkpt><trkpt lat="42.8501173" lon="12.7465784"><ele>217.0</ele><time>2026-04-25T13:57:00.448Z</time></trkpt><trkpt lat="42.8499023" lon="12.7467281"><ele>217.0</ele><time>2026-04-25T13:57:01.448Z</time></trkpt><trkpt lat="42.8496888" lon="12.7468825"><ele>216.5</ele><time>2026-04-25T13:57:02.448Z</time></trkpt><trkpt lat="42.849476" lon="12.7470225"><ele>216.0</ele><time>2026-04-25T13:57:03.449Z</time></trkpt><trkpt lat="42.8492588" lon="12.7471784"><ele>215.5</ele><time>2026-04-25T13:57:04.449Z</time></trkpt><trkpt lat="42.8490424" lon="12.7473397"><ele>215.0</ele><time>2026-04-25T13:57:05.448Z</time></trkpt><trkpt lat="42.8488319" lon="12.7475076"><ele>215.0</ele><time>2026-04-25T13:57:06.448Z</time></trkpt><trkpt lat="42.8486178" lon="12.7476626"><ele>215.0</ele><time>2026-04-25T13:57:07.448Z</time></trkpt><trkpt lat="42.8484042" lon="12.7478219"><ele>215.5</ele><time>2026-04-25T13:57:08.448Z</time></trkpt><trkpt lat="42.8481989" lon="12.7479835"><ele>216.0</ele><time>2026-04-25T13:57:09.448Z</time></trkpt><trkpt lat="42.8479875" lon="12.7481469"><ele>216.0</ele><time>2026-04-25T13:57:10.448Z</time></trkpt><trkpt lat="42.8477801" lon="12.7483148"><ele>216.0</ele><time>2026-04-25T13:57:11.448Z</time></trkpt><trkpt lat="42.8475779" lon="12.7484985"><ele>216.0</ele><time>2026-04-25T13:57:12.448Z</time></trkpt><trkpt lat="42.8473689" lon="12.748677"><ele>216.0</ele><time>2026-04-25T13:57:13.448Z</time></trkpt><trkpt lat="42.8471664" lon="12.7488644"><ele>216.0</ele><time>2026-04-25T13:57:14.448Z</time></trkpt><trkpt lat="42.8469605" lon="12.7490551"><ele>216.0</ele><time>2026-04-25T13:57:15.449Z</time></trkpt><trkpt lat="42.8467609" lon="12.7492358"><ele>215.5</ele><time>2026-04-25T13:57:16.448Z</time></trkpt><trkpt lat="42.8465596" lon="12.7494272"><ele>215.0</ele><time>2026-04-25T13:57:17.448Z</time></trkpt><trkpt lat="42.846354" lon="12.7496221"><ele>215.0</ele><time>2026-04-25T13:57:18.449Z</time></trkpt><trkpt lat="42.8461514" lon="12.7498201"><ele>215.0</ele><time>2026-04-25T13:57:19.448Z</time></trkpt><trkpt lat="42.8459431" lon="12.7500196"><ele>215.5</ele><time>2026-04-25T13:57:20.448Z</time></trkpt><trkpt lat="42.8457354" lon="12.7502184"><ele>216.0</ele><time>2026-04-25T13:57:21.448Z</time></trkpt><trkpt lat="42.8455319" lon="12.750416"><ele>216.0</ele><time>2026-04-25T13:57:22.448Z</time></trkpt><trkpt lat="42.845328" lon="12.7506142"><ele>216.0</ele><time>2026-04-25T13:57:23.448Z</time></trkpt><trkpt lat="42.8451249" lon="12.7508111"><ele>216.5</ele><time>2026-04-25T13:57:24.449Z</time></trkpt><trkpt lat="42.8449216" lon="12.7510116"><ele>217.0</ele><time>2026-04-25T13:57:25.448Z</time></trkpt><trkpt lat="42.8447174" lon="12.7512095"><ele>217.0</ele><time>2026-04-25T13:57:26.448Z</time></trkpt><trkpt lat="42.8445077" lon="12.7513921"><ele>217.0</ele><time>2026-04-25T13:57:27.448Z</time></trkpt><trkpt lat="42.8442966" lon="12.7515805"><ele>217.0</ele><time>2026-04-25T13:57:28.448Z</time></trkpt><trkpt lat="42.8440822" lon="12.7517699"><ele>217.0</ele><time>2026-04-25T13:57:29.448Z</time></trkpt><trkpt lat="42.8438688" lon="12.7519509"><ele>217.0</ele><time>2026-04-25T13:57:30.449Z</time></trkpt><trkpt lat="42.843651" lon="12.7521241"><ele>217.0</ele><time>2026-04-25T13:57:31.448Z</time></trkpt><trkpt lat="42.8434288" lon="12.752285"><ele>216.5</ele><time>2026-04-25T13:57:32.448Z</time></trkpt><trkpt lat="42.8432041" lon="12.7524509"><ele>216.0</ele><time>2026-04-25T13:57:33.448Z</time></trkpt><trkpt lat="42.8429778" lon="12.7526045"><ele>216.5</ele><time>2026-04-25T13:57:34.449Z</time></trkpt><trkpt lat="42.8427503" lon="12.7527414"><ele>217.0</ele><time>2026-04-25T13:57:35.448Z</time></trkpt><trkpt lat="42.842523" lon="12.7528779"><ele>217.0</ele><time>2026-04-25T13:57:36.448Z</time></trkpt><trkpt lat="42.8422913" lon="12.7530179"><ele>217.0</ele><time>2026-04-25T13:57:37.448Z</time></trkpt><trkpt lat="42.8420592" lon="12.7531517"><ele>217.0</ele><time>2026-04-25T13:57:38.449Z</time></trkpt><trkpt lat="42.8418249" lon="12.753275"><ele>217.0</ele><time>2026-04-25T13:57:39.448Z</time></trkpt><trkpt lat="42.8415889" lon="12.7533937"><ele>217.0</ele><time>2026-04-25T13:57:40.448Z</time></trkpt><trkpt lat="42.8413555" lon="12.7535071"><ele>217.0</ele><time>2026-04-25T13:57:41.449Z</time></trkpt><trkpt lat="42.8411189" lon="12.7536101"><ele>217.5</ele><time>2026-04-25T13:57:42.448Z</time></trkpt><trkpt lat="42.8408827" lon="12.7537163"><ele>218.0</ele><time>2026-04-25T13:57:43.448Z</time></trkpt><trkpt lat="42.8406464" lon="12.753824"><ele>218.0</ele><time>2026-04-25T13:57:44.449Z</time></trkpt><trkpt lat="42.8404107" lon="12.7539291"><ele>218.0</ele><time>2026-04-25T13:57:45.448Z</time></trkpt><trkpt lat="42.8401754" lon="12.7540205"><ele>218.5</ele><time>2026-04-25T13:57:46.448Z</time></trkpt><trkpt lat="42.8399332" lon="12.7541293"><ele>219.0</ele><time>2026-04-25T13:57:47.448Z</time></trkpt><trkpt lat="42.8396957" lon="12.7542368"><ele>219.0</ele><time>2026-04-25T13:57:48.448Z</time></trkpt><trkpt lat="42.8394508" lon="12.7543295"><ele>219.0</ele><time>2026-04-25T13:57:49.448Z</time></trkpt><trkpt lat="42.8392115" lon="12.7544305"><ele>219.0</ele><time>2026-04-25T13:57:50.448Z</time></trkpt><trkpt lat="42.8389719" lon="12.7545339"><ele>219.0</ele><time>2026-04-25T13:57:51.448Z</time></trkpt><trkpt lat="42.8387406" lon="12.754647"><ele>219.0</ele><time>2026-04-25T13:57:52.448Z</time></trkpt><trkpt lat="42.8385086" lon="12.754769"><ele>219.0</ele><time>2026-04-25T13:57:53.448Z</time></trkpt><trkpt lat="42.8382766" lon="12.7548944"><ele>218.0</ele><time>2026-04-25T13:57:54.448Z</time></trkpt><trkpt lat="42.8380448" lon="12.7550169"><ele>217.0</ele><time>2026-04-25T13:57:55.448Z</time></trkpt><trkpt lat="42.8378155" lon="12.7551486"><ele>218.0</ele><time>2026-04-25T13:57:56.448Z</time></trkpt><trkpt lat="42.8375904" lon="12.7552757"><ele>219.0</ele><time>2026-04-25T13:57:57.448Z</time></trkpt><trkpt lat="42.8373682" lon="12.755421"><ele>219.0</ele><time>2026-04-25T13:57:58.448Z</time></trkpt><trkpt lat="42.8371444" lon="12.7555723"><ele>219.0</ele><time>2026-04-25T13:57:59.448Z</time></trkpt><trkpt lat="42.8369209" lon="12.7557189"><ele>218.5</ele><time>2026-04-25T13:58:00.448Z</time></trkpt><trkpt lat="42.8367015" lon="12.7558775"><ele>218.0</ele><time>2026-04-25T13:58:01.448Z</time></trkpt><trkpt lat="42.8364807" lon="12.7560307"><ele>218.5</ele><time>2026-04-25T13:58:02.448Z</time></trkpt><trkpt lat="42.8362585" lon="12.7561858"><ele>219.0</ele><time>2026-04-25T13:58:03.448Z</time></trkpt><trkpt lat="42.8360379" lon="12.7563415"><ele>219.0</ele><time>2026-04-25T13:58:04.448Z</time></trkpt><trkpt lat="42.8358184" lon="12.7565009"><ele>219.0</ele><time>2026-04-25T13:58:05.448Z</time></trkpt><trkpt lat="42.8355971" lon="12.7566621"><ele>219.0</ele><time>2026-04-25T13:58:06.448Z</time></trkpt><trkpt lat="42.8353713" lon="12.7568159"><ele>219.0</ele><time>2026-04-25T13:58:07.448Z</time></trkpt><trkpt lat="42.8351449" lon="12.7569673"><ele>219.5</ele><time>2026-04-25T13:58:08.448Z</time></trkpt><trkpt lat="42.8349229" lon="12.7571151"><ele>220.0</ele><time>2026-04-25T13:58:09.448Z</time></trkpt><trkpt lat="42.8346976" lon="12.7572682"><ele>220.0</ele><time>2026-04-25T13:58:10.448Z</time></trkpt><trkpt lat="42.8344724" lon="12.7574234"><ele>220.0</ele><time>2026-04-25T13:58:11.448Z</time></trkpt><trkpt lat="42.8342497" lon="12.7575765"><ele>220.5</ele><time>2026-04-25T13:58:12.448Z</time></trkpt><trkpt lat="42.8340224" lon="12.7577286"><ele>221.0</ele><time>2026-04-25T13:58:13.448Z</time></trkpt><trkpt lat="42.8338027" lon="12.7578829"><ele>221.0</ele><time>2026-04-25T13:58:14.448Z</time></trkpt><trkpt lat="42.8335802" lon="12.7580417"><ele>221.0</ele><time>2026-04-25T13:58:15.448Z</time></trkpt><trkpt lat="42.8333528" lon="12.7581989"><ele>220.5</ele><time>2026-04-25T13:58:16.448Z</time></trkpt><trkpt lat="42.8331288" lon="12.7583554"><ele>220.0</ele><time>2026-04-25T13:58:17.448Z</time></trkpt><trkpt lat="42.8329035" lon="12.7585182"><ele>220.5</ele><time>2026-04-25T13:58:18.448Z</time></trkpt><trkpt lat="42.8326736" lon="12.7586835"><ele>221.0</ele><time>2026-04-25T13:58:19.448Z</time></trkpt><trkpt lat="42.8324468" lon="12.7588463"><ele>220.0</ele><time>2026-04-25T13:58:20.449Z</time></trkpt><trkpt lat="42.8322205" lon="12.7590059"><ele>219.0</ele><time>2026-04-25T13:58:21.448Z</time></trkpt><trkpt lat="42.8319922" lon="12.7591632"><ele>219.5</ele><time>2026-04-25T13:58:22.448Z</time></trkpt><trkpt lat="42.8317664" lon="12.7593033"><ele>220.0</ele><time>2026-04-25T13:58:23.449Z</time></trkpt><trkpt lat="42.8315318" lon="12.7594398"><ele>220.5</ele><time>2026-04-25T13:58:24.449Z</time></trkpt><trkpt lat="42.8312963" lon="12.7595733"><ele>221.0</ele><time>2026-04-25T13:58:25.448Z</time></trkpt><trkpt lat="42.8310628" lon="12.7596932"><ele>221.0</ele><time>2026-04-25T13:58:26.448Z</time></trkpt><trkpt lat="42.8308204" lon="12.7598131"><ele>221.0</ele><time>2026-04-25T13:58:27.448Z</time></trkpt><trkpt lat="42.8305736" lon="12.759917"><ele>221.0</ele><time>2026-04-25T13:58:28.448Z</time></trkpt><trkpt lat="42.8303292" lon="12.760006"><ele>221.0</ele><time>2026-04-25T13:58:29.449Z</time></trkpt><trkpt lat="42.8300806" lon="12.7600922"><ele>221.0</ele><time>2026-04-25T13:58:30.448Z</time></trkpt><trkpt lat="42.8298307" lon="12.7601719"><ele>221.0</ele><time>2026-04-25T13:58:31.448Z</time></trkpt><trkpt lat="42.8295778" lon="12.7602308"><ele>221.0</ele><time>2026-04-25T13:58:32.448Z</time></trkpt><trkpt lat="42.829326" lon="12.7602887"><ele>221.0</ele><time>2026-04-25T13:58:33.448Z</time></trkpt><trkpt lat="42.8290719" lon="12.7603366"><ele>221.5</ele><time>2026-04-25T13:58:34.448Z</time></trkpt><trkpt lat="42.8288193" lon="12.760376"><ele>222.0</ele><time>2026-04-25T13:58:35.449Z</time></trkpt><trkpt lat="42.8285637" lon="12.7604028"><ele>222.0</ele><time>2026-04-25T13:58:36.448Z</time></trkpt><trkpt lat="42.8283047" lon="12.7604171"><ele>222.0</ele><time>2026-04-25T13:58:37.449Z</time></trkpt><trkpt lat="42.8280497" lon="12.7604265"><ele>222.0</ele><time>2026-04-25T13:58:38.448Z</time></trkpt><trkpt lat="42.8277895" lon="12.7604271"><ele>222.0</ele><time>2026-04-25T13:58:39.448Z</time></trkpt><trkpt lat="42.8275323" lon="12.7604095"><ele>223.0</ele><time>2026-04-25T13:58:40.448Z</time></trkpt><trkpt lat="42.8272736" lon="12.7603915"><ele>224.0</ele><time>2026-04-25T13:58:41.448Z</time></trkpt><trkpt lat="42.8270149" lon="12.7603718"><ele>224.5</ele><time>2026-04-25T13:58:42.448Z</time></trkpt><trkpt lat="42.8267565" lon="12.7603486"><ele>225.0</ele><time>2026-04-25T13:58:43.448Z</time></trkpt><trkpt lat="42.826504" lon="12.7603271"><ele>225.0</ele><time>2026-04-25T13:58:44.448Z</time></trkpt><trkpt lat="42.8262683" lon="12.7602759"><ele>225.0</ele><time>2026-04-25T13:58:45.448Z</time></trkpt><trkpt lat="42.8260229" lon="12.7602316"><ele>224.5</ele><time>2026-04-25T13:58:46.448Z</time></trkpt><trkpt lat="42.8257664" lon="12.760183"><ele>224.0</ele><time>2026-04-25T13:58:47.448Z</time></trkpt><trkpt lat="42.8255041" lon="12.7601342"><ele>224.0</ele><time>2026-04-25T13:58:48.448Z</time></trkpt><trkpt lat="42.8252495" lon="12.7600767"><ele>224.0</ele><time>2026-04-25T13:58:49.448Z</time></trkpt><trkpt lat="42.8249933" lon="12.7600022"><ele>223.5</ele><time>2026-04-25T13:58:50.449Z</time></trkpt><trkpt lat="42.8247437" lon="12.7599261"><ele>223.0</ele><time>2026-04-25T13:58:51.448Z</time></trkpt><trkpt lat="42.8244887" lon="12.7598544"><ele>222.0</ele><time>2026-04-25T13:58:52.449Z</time></trkpt><trkpt lat="42.8242396" lon="12.7597654"><ele>221.0</ele><time>2026-04-25T13:58:53.449Z</time></trkpt><trkpt lat="42.823995" lon="12.7596666"><ele>221.0</ele><time>2026-04-25T13:58:54.448Z</time></trkpt><trkpt lat="42.8237539" lon="12.7595673"><ele>221.0</ele><time>2026-04-25T13:58:55.448Z</time></trkpt><trkpt lat="42.8235193" lon="12.7594526"><ele>222.5</ele><time>2026-04-25T13:58:56.448Z</time></trkpt><trkpt lat="42.8232835" lon="12.7593354"><ele>224.0</ele><time>2026-04-25T13:58:57.449Z</time></trkpt><trkpt lat="42.8230463" lon="12.7592157"><ele>224.0</ele><time>2026-04-25T13:58:58.448Z</time></trkpt><trkpt lat="42.8228105" lon="12.7590983"><ele>224.0</ele><time>2026-04-25T13:58:59.448Z</time></trkpt><trkpt lat="42.8225817" lon="12.758982"><ele>224.0</ele><time>2026-04-25T13:59:00.448Z</time></trkpt><trkpt lat="42.8223517" lon="12.758863"><ele>224.0</ele><time>2026-04-25T13:59:01.448Z</time></trkpt><trkpt lat="42.8221207" lon="12.7587517"><ele>224.0</ele><time>2026-04-25T13:59:02.448Z</time></trkpt><trkpt lat="42.821888" lon="12.7586274"><ele>224.0</ele><time>2026-04-25T13:59:03.448Z</time></trkpt><trkpt lat="42.8216592" lon="12.758514"><ele>224.5</ele><time>2026-04-25T13:59:04.448Z</time></trkpt><trkpt lat="42.8214241" lon="12.7584018"><ele>225.0</ele><time>2026-04-25T13:59:05.448Z</time></trkpt><trkpt lat="42.8211901" lon="12.7582929"><ele>225.5</ele><time>2026-04-25T13:59:06.448Z</time></trkpt><trkpt lat="42.8209519" lon="12.7581957"><ele>226.0</ele><time>2026-04-25T13:59:07.449Z</time></trkpt><trkpt lat="42.8207133" lon="12.7580993"><ele>226.0</ele><time>2026-04-25T13:59:08.448Z</time></trkpt><trkpt lat="42.820478" lon="12.7580101"><ele>226.0</ele><time>2026-04-25T13:59:09.448Z</time></trkpt><trkpt lat="42.820241" lon="12.7579302"><ele>226.0</ele><time>2026-04-25T13:59:10.448Z</time></trkpt><trkpt lat="42.8200046" lon="12.7578543"><ele>226.0</ele><time>2026-04-25T13:59:11.448Z</time></trkpt><trkpt lat="42.8197603" lon="12.7577927"><ele>226.0</ele><time>2026-04-25T13:59:12.448Z</time></trkpt><trkpt lat="42.8195153" lon="12.7577438"><ele>226.0</ele><time>2026-04-25T13:59:13.449Z</time></trkpt><trkpt lat="42.8192654" lon="12.7576946"><ele>227.0</ele><time>2026-04-25T13:59:14.448Z</time></trkpt><trkpt lat="42.8190182" lon="12.757654"><ele>228.0</ele><time>2026-04-25T13:59:15.448Z</time></trkpt><trkpt lat="42.8187708" lon="12.757619"><ele>228.0</ele><time>2026-04-25T13:59:16.448Z</time></trkpt><trkpt lat="42.8185206" lon="12.757588"><ele>228.0</ele><time>2026-04-25T13:59:17.448Z</time></trkpt><trkpt lat="42.818276" lon="12.7575585"><ele>228.0</ele><time>2026-04-25T13:59:18.448Z</time></trkpt><trkpt lat="42.818028" lon="12.7575408"><ele>228.0</ele><time>2026-04-25T13:59:19.448Z</time></trkpt><trkpt lat="42.8177805" lon="12.7575211"><ele>228.0</ele><time>2026-04-25T13:59:20.448Z</time></trkpt><trkpt lat="42.8175274" lon="12.7575027"><ele>228.0</ele><time>2026-04-25T13:59:21.448Z</time></trkpt><trkpt lat="42.8172783" lon="12.7574849"><ele>228.0</ele><time>2026-04-25T13:59:22.449Z</time></trkpt><trkpt lat="42.8170289" lon="12.7574697"><ele>228.0</ele><time>2026-04-25T13:59:23.448Z</time></trkpt><trkpt lat="42.8167754" lon="12.757455"><ele>228.5</ele><time>2026-04-25T13:59:24.448Z</time></trkpt><trkpt lat="42.8165267" lon="12.75744"><ele>229.0</ele><time>2026-04-25T13:59:25.448Z</time></trkpt><trkpt lat="42.8162792" lon="12.7574348"><ele>229.0</ele><time>2026-04-25T13:59:26.448Z</time></trkpt><trkpt lat="42.8160289" lon="12.7574307"><ele>229.0</ele><time>2026-04-25T13:59:27.448Z</time></trkpt><trkpt lat="42.8157801" lon="12.7574289"><ele>230.0</ele><time>2026-04-25T13:59:28.448Z</time></trkpt><trkpt lat="42.8155316" lon="12.7574281"><ele>231.0</ele><time>2026-04-25T13:59:29.448Z</time></trkpt><trkpt lat="42.8152837" lon="12.7574258"><ele>231.0</ele><time>2026-04-25T13:59:30.448Z</time></trkpt><trkpt lat="42.8150393" lon="12.7574318"><ele>231.0</ele><time>2026-04-25T13:59:31.448Z</time></trkpt><trkpt lat="42.8147937" lon="12.7574411"><ele>231.0</ele><time>2026-04-25T13:59:32.448Z</time></trkpt><trkpt lat="42.8145504" lon="12.7574418"><ele>231.0</ele><time>2026-04-25T13:59:33.448Z</time></trkpt><trkpt lat="42.8143052" lon="12.7574531"><ele>231.0</ele><time>2026-04-25T13:59:34.448Z</time></trkpt><trkpt lat="42.8140658" lon="12.7574511"><ele>231.0</ele><time>2026-04-25T13:59:35.448Z</time></trkpt><trkpt lat="42.8138226" lon="12.7574732"><ele>231.0</ele><time>2026-04-25T13:59:36.448Z</time></trkpt><trkpt lat="42.8135773" lon="12.757498"><ele>231.0</ele><time>2026-04-25T13:59:37.448Z</time></trkpt><trkpt lat="42.8133325" lon="12.7575115"><ele>231.0</ele><time>2026-04-25T13:59:38.448Z</time></trkpt><trkpt lat="42.8130877" lon="12.7575358"><ele>231.0</ele><time>2026-04-25T13:59:39.448Z</time></trkpt><trkpt lat="42.8128447" lon="12.75756"><ele>232.5</ele><time>2026-04-25T13:59:40.448Z</time></trkpt><trkpt lat="42.8126043" lon="12.75759"><ele>234.0</ele><time>2026-04-25T13:59:41.448Z</time></trkpt><trkpt lat="42.8123616" lon="12.7576222"><ele>234.0</ele><time>2026-04-25T13:59:42.448Z</time></trkpt><trkpt lat="42.8121192" lon="12.7576607"><ele>234.0</ele><time>2026-04-25T13:59:43.448Z</time></trkpt><trkpt lat="42.8118751" lon="12.7577169"><ele>235.5</ele><time>2026-04-25T13:59:44.448Z</time></trkpt><trkpt lat="42.8116338" lon="12.7577667"><ele>237.0</ele><time>2026-04-25T13:59:45.448Z</time></trkpt><trkpt lat="42.8113884" lon="12.7578223"><ele>237.0</ele><time>2026-04-25T13:59:46.448Z</time></trkpt><trkpt lat="42.8111535" lon="12.7578827"><ele>237.0</ele><time>2026-04-25T13:59:47.448Z</time></trkpt><trkpt lat="42.8109156" lon="12.7579507"><ele>238.5</ele><time>2026-04-25T13:59:48.449Z</time></trkpt><trkpt lat="42.8106782" lon="12.758014"><ele>240.0</ele><time>2026-04-25T13:59:49.448Z</time></trkpt><trkpt lat="42.8104401" lon="12.7580937"><ele>240.0</ele><time>2026-04-25T13:59:50.448Z</time></trkpt><trkpt lat="42.8101937" lon="12.7581672"><ele>240.0</ele><time>2026-04-25T13:59:51.448Z</time></trkpt><trkpt lat="42.8099473" lon="12.7582447"><ele>241.5</ele><time>2026-04-25T13:59:52.448Z</time></trkpt><trkpt lat="42.8097141" lon="12.7583326"><ele>243.0</ele><time>2026-04-25T13:59:53.449Z</time></trkpt><trkpt lat="42.809475" lon="12.7584248"><ele>243.5</ele><time>2026-04-25T13:59:54.448Z</time></trkpt><trkpt lat="42.8092412" lon="12.7585226"><ele>244.0</ele><time>2026-04-25T13:59:55.448Z</time></trkpt><trkpt lat="42.8090058" lon="12.7586192"><ele>245.5</ele><time>2026-04-25T13:59:56.448Z</time></trkpt><trkpt lat="42.8087708" lon="12.7587186"><ele>247.0</ele><time>2026-04-25T13:59:57.448Z</time></trkpt><trkpt lat="42.8085376" lon="12.7588271"><ele>247.5</ele><time>2026-04-25T13:59:58.448Z</time></trkpt><trkpt lat="42.808305" lon="12.7589316"><ele>248.0</ele><time>2026-04-25T13:59:59.448Z</time></trkpt><trkpt lat="42.8080693" lon="12.7590342"><ele>248.0</ele><time>2026-04-25T14:00:00.448Z</time></trkpt><trkpt lat="42.8078389" lon="12.7591379"><ele>248.0</ele><time>2026-04-25T14:00:01.448Z</time></trkpt><trkpt lat="42.8076036" lon="12.7592477"><ele>249.0</ele><time>2026-04-25T14:00:02.449Z</time></trkpt><trkpt lat="42.8073679" lon="12.7593539"><ele>250.0</ele><time>2026-04-25T14:00:03.448Z</time></trkpt><trkpt lat="42.8071326" lon="12.7594616"><ele>251.0</ele><time>2026-04-25T14:00:04.448Z</time></trkpt><trkpt lat="42.8069005" lon="12.7595614"><ele>252.0</ele><time>2026-04-25T14:00:05.448Z</time></trkpt><trkpt lat="42.8066636" lon="12.759664"><ele>253.5</ele><time>2026-04-25T14:00:06.448Z</time></trkpt><trkpt lat="42.8064279" lon="12.7597565"><ele>255.0</ele><time>2026-04-25T14:00:07.448Z</time></trkpt><trkpt lat="42.8061904" lon="12.7598412"><ele>256.0</ele><time>2026-04-25T14:00:08.448Z</time></trkpt><trkpt lat="42.805954" lon="12.7599297"><ele>257.0</ele><time>2026-04-25T14:00:09.448Z</time></trkpt><trkpt lat="42.8057115" lon="12.7600102"><ele>257.0</ele><time>2026-04-25T14:00:10.448Z</time></trkpt><trkpt lat="42.8054676" lon="12.7600812"><ele>257.0</ele><time>2026-04-25T14:00:11.449Z</time></trkpt><trkpt lat="42.8052251" lon="12.7601416"><ele>258.0</ele><time>2026-04-25T14:00:12.448Z</time></trkpt><trkpt lat="42.8049807" lon="12.7601905"><ele>259.0</ele><time>2026-04-25T14:00:13.448Z</time></trkpt><trkpt lat="42.8047354" lon="12.7602456"><ele>260.0</ele><time>2026-04-25T14:00:14.449Z</time></trkpt><trkpt lat="42.8044843" lon="12.7602848"><ele>261.0</ele><time>2026-04-25T14:00:15.448Z</time></trkpt><trkpt lat="42.8042393" lon="12.7603256"><ele>262.5</ele><time>2026-04-25T14:00:16.448Z</time></trkpt><trkpt lat="42.8039903" lon="12.7603645"><ele>264.0</ele><time>2026-04-25T14:00:17.448Z</time></trkpt><trkpt lat="42.803741" lon="12.760408"><ele>265.0</ele><time>2026-04-25T14:00:18.448Z</time></trkpt><trkpt lat="42.8034907" lon="12.760452"><ele>266.0</ele><time>2026-04-25T14:00:19.448Z</time></trkpt><trkpt lat="42.8032472" lon="12.7604986"><ele>266.0</ele><time>2026-04-25T14:00:20.448Z</time></trkpt><trkpt lat="42.8030027" lon="12.7605383"><ele>266.0</ele><time>2026-04-25T14:00:21.448Z</time></trkpt><trkpt lat="42.8027606" lon="12.7605864"><ele>267.0</ele><time>2026-04-25T14:00:22.448Z</time></trkpt><trkpt lat="42.8025151" lon="12.7606375"><ele>268.0</ele><time>2026-04-25T14:00:23.448Z</time></trkpt><trkpt lat="42.8022705" lon="12.7606969"><ele>268.0</ele><time>2026-04-25T14:00:24.448Z</time></trkpt><trkpt lat="42.8020332" lon="12.7607711"><ele>268.0</ele><time>2026-04-25T14:00:25.448Z</time></trkpt><trkpt lat="42.8017922" lon="12.7608383"><ele>269.0</ele><time>2026-04-25T14:00:26.449Z</time></trkpt><trkpt lat="42.8015527" lon="12.7609134"><ele>270.0</ele><time>2026-04-25T14:00:27.448Z</time></trkpt><trkpt lat="42.8013135" lon="12.7609932"><ele>270.5</ele><time>2026-04-25T14:00:28.448Z</time></trkpt><trkpt lat="42.8010775" lon="12.7610821"><ele>271.0</ele><time>2026-04-25T14:00:29.448Z</time></trkpt><trkpt lat="42.8008419" lon="12.7611608"><ele>271.5</ele><time>2026-04-25T14:00:30.448Z</time></trkpt><trkpt lat="42.8006068" lon="12.7612365"><ele>272.0</ele><time>2026-04-25T14:00:31.448Z</time></trkpt><trkpt lat="42.8003711" lon="12.7613106"><ele>271.0</ele><time>2026-04-25T14:00:32.448Z</time></trkpt><trkpt lat="42.8001318" lon="12.7613867"><ele>270.0</ele><time>2026-04-25T14:00:33.448Z</time></trkpt><trkpt lat="42.7998955" lon="12.7614636"><ele>270.0</ele><time>2026-04-25T14:00:34.448Z</time></trkpt><trkpt lat="42.7996621" lon="12.7615402"><ele>270.0</ele><time>2026-04-25T14:00:35.448Z</time></trkpt><trkpt lat="42.799424" lon="12.7616268"><ele>270.0</ele><time>2026-04-25T14:00:36.448Z</time></trkpt><trkpt lat="42.7991881" lon="12.7617096"><ele>270.0</ele><time>2026-04-25T14:00:37.448Z</time></trkpt><trkpt lat="42.7989524" lon="12.7618023"><ele>271.5</ele><time>2026-04-25T14:00:38.448Z</time></trkpt><trkpt lat="42.7987209" lon="12.7618945"><ele>273.0</ele><time>2026-04-25T14:00:39.448Z</time></trkpt><trkpt lat="42.798492" lon="12.7619831"><ele>275.0</ele><time>2026-04-25T14:00:40.448Z</time></trkpt><trkpt lat="42.7982609" lon="12.7620715"><ele>277.0</ele><time>2026-04-25T14:00:41.448Z</time></trkpt><trkpt lat="42.7980289" lon="12.7621673"><ele>277.0</ele><time>2026-04-25T14:00:42.448Z</time></trkpt><trkpt lat="42.7977997" lon="12.7622658"><ele>277.0</ele><time>2026-04-25T14:00:43.448Z</time></trkpt><trkpt lat="42.7975681" lon="12.7623601"><ele>279.0</ele><time>2026-04-25T14:00:44.448Z</time></trkpt><trkpt lat="42.7973408" lon="12.7624484"><ele>281.0</ele><time>2026-04-25T14:00:45.448Z</time></trkpt><trkpt lat="42.7971118" lon="12.7625415"><ele>281.0</ele><time>2026-04-25T14:00:46.448Z</time></trkpt><trkpt lat="42.7968843" lon="12.762641"><ele>281.0</ele><time>2026-04-25T14:00:47.448Z</time></trkpt><trkpt lat="42.7966574" lon="12.7627395"><ele>282.0</ele><time>2026-04-25T14:00:48.448Z</time></trkpt><trkpt lat="42.7964291" lon="12.7628361"><ele>283.0</ele><time>2026-04-25T14:00:49.448Z</time></trkpt><trkpt lat="42.7962001" lon="12.7629323"><ele>281.5</ele><time>2026-04-25T14:00:50.448Z</time></trkpt><trkpt lat="42.7959759" lon="12.763015"><ele>280.0</ele><time>2026-04-25T14:00:51.449Z</time></trkpt><trkpt lat="42.7957452" lon="12.7631061"><ele>280.0</ele><time>2026-04-25T14:00:52.448Z</time></trkpt><trkpt lat="42.7955155" lon="12.7632056"><ele>280.0</ele><time>2026-04-25T14:00:53.448Z</time></trkpt><trkpt lat="42.7952912" lon="12.7632992"><ele>280.5</ele><time>2026-04-25T14:00:54.449Z</time></trkpt><trkpt lat="42.7950655" lon="12.7633906"><ele>281.0</ele><time>2026-04-25T14:00:55.448Z</time></trkpt><trkpt lat="42.79484" lon="12.7634855"><ele>282.0</ele><time>2026-04-25T14:00:56.449Z</time></trkpt><trkpt lat="42.794616" lon="12.7635801"><ele>283.0</ele><time>2026-04-25T14:00:57.448Z</time></trkpt><trkpt lat="42.7943949" lon="12.7636788"><ele>283.5</ele><time>2026-04-25T14:00:58.448Z</time></trkpt><trkpt lat="42.7941691" lon="12.763774"><ele>284.0</ele><time>2026-04-25T14:00:59.448Z</time></trkpt><trkpt lat="42.7939441" lon="12.7638689"><ele>284.0</ele><time>2026-04-25T14:01:00.448Z</time></trkpt><trkpt lat="42.7937181" lon="12.7639605"><ele>284.0</ele><time>2026-04-25T14:01:01.448Z</time></trkpt><trkpt lat="42.7934909" lon="12.7640544"><ele>284.0</ele><time>2026-04-25T14:01:02.448Z</time></trkpt><trkpt lat="42.7932638" lon="12.7641431"><ele>284.0</ele><time>2026-04-25T14:01:03.448Z</time></trkpt><trkpt lat="42.793037" lon="12.7642318"><ele>284.0</ele><time>2026-04-25T14:01:04.448Z</time></trkpt><trkpt lat="42.7928031" lon="12.7643151"><ele>284.0</ele><time>2026-04-25T14:01:05.448Z</time></trkpt><trkpt lat="42.7925762" lon="12.7643995"><ele>286.5</ele><time>2026-04-25T14:01:06.448Z</time></trkpt><trkpt lat="42.7923513" lon="12.764485"><ele>289.0</ele><time>2026-04-25T14:01:07.449Z</time></trkpt><trkpt lat="42.7921218" lon="12.7645685"><ele>289.0</ele><time>2026-04-25T14:01:08.448Z</time></trkpt><trkpt lat="42.7918931" lon="12.7646599"><ele>289.0</ele><time>2026-04-25T14:01:09.448Z</time></trkpt><trkpt lat="42.7916619" lon="12.7647543"><ele>289.5</ele><time>2026-04-25T14:01:10.448Z</time></trkpt><trkpt lat="42.7914307" lon="12.76485"><ele>290.0</ele><time>2026-04-25T14:01:11.448Z</time></trkpt><trkpt lat="42.7911994" lon="12.764949"><ele>288.5</ele><time>2026-04-25T14:01:12.448Z</time></trkpt><trkpt lat="42.7909637" lon="12.7650454"><ele>287.0</ele><time>2026-04-25T14:01:13.448Z</time></trkpt><trkpt lat="42.7907265" lon="12.7651404"><ele>288.0</ele><time>2026-04-25T14:01:14.448Z</time></trkpt><trkpt lat="42.7904903" lon="12.7652319"><ele>289.0</ele><time>2026-04-25T14:01:15.448Z</time></trkpt><trkpt lat="42.7902494" lon="12.7653241"><ele>288.5</ele><time>2026-04-25T14:01:16.448Z</time></trkpt><trkpt lat="42.7900078" lon="12.7654151"><ele>288.0</ele><time>2026-04-25T14:01:17.448Z</time></trkpt><trkpt lat="42.7897617" lon="12.7655068"><ele>288.0</ele><time>2026-04-25T14:01:18.448Z</time></trkpt><trkpt lat="42.7895192" lon="12.7655941"><ele>288.0</ele><time>2026-04-25T14:01:19.448Z</time></trkpt><trkpt lat="42.7892766" lon="12.7656836"><ele>286.5</ele><time>2026-04-25T14:01:20.448Z</time></trkpt><trkpt lat="42.7890313" lon="12.7657749"><ele>285.0</ele><time>2026-04-25T14:01:21.449Z</time></trkpt><trkpt lat="42.7887812" lon="12.7658619"><ele>285.0</ele><time>2026-04-25T14:01:22.448Z</time></trkpt><trkpt lat="42.7885206" lon="12.7659409"><ele>285.0</ele><time>2026-04-25T14:01:23.448Z</time></trkpt><trkpt lat="42.7882674" lon="12.766019"><ele>285.0</ele><time>2026-04-25T14:01:24.448Z</time></trkpt><trkpt lat="42.7880083" lon="12.7660927"><ele>285.0</ele><time>2026-04-25T14:01:25.448Z</time></trkpt><trkpt lat="42.7877533" lon="12.7661671"><ele>284.5</ele><time>2026-04-25T14:01:26.448Z</time></trkpt><trkpt lat="42.7874941" lon="12.7662311"><ele>284.0</ele><time>2026-04-25T14:01:27.448Z</time></trkpt><trkpt lat="42.7872375" lon="12.7662934"><ele>284.0</ele><time>2026-04-25T14:01:28.448Z</time></trkpt><trkpt lat="42.7869749" lon="12.7663505"><ele>284.0</ele><time>2026-04-25T14:01:29.448Z</time></trkpt><trkpt lat="42.7867123" lon="12.7664074"><ele>282.0</ele><time>2026-04-25T14:01:30.449Z</time></trkpt><trkpt lat="42.7864512" lon="12.7664567"><ele>280.0</ele><time>2026-04-25T14:01:31.449Z</time></trkpt><trkpt lat="42.7861859" lon="12.7665022"><ele>280.0</ele><time>2026-04-25T14:01:32.448Z</time></trkpt><trkpt lat="42.7859246" lon="12.7665459"><ele>280.0</ele><time>2026-04-25T14:01:33.448Z</time></trkpt><trkpt lat="42.7856607" lon="12.766578"><ele>280.0</ele><time>2026-04-25T14:01:34.448Z</time></trkpt><trkpt lat="42.7853976" lon="12.7666111"><ele>280.0</ele><time>2026-04-25T14:01:35.448Z</time></trkpt><trkpt lat="42.7851316" lon="12.7666386"><ele>277.5</ele><time>2026-04-25T14:01:36.448Z</time></trkpt><trkpt lat="42.784862" lon="12.76666"><ele>275.0</ele><time>2026-04-25T14:01:37.448Z</time></trkpt><trkpt lat="42.7845914" lon="12.7666867"><ele>275.5</ele><time>2026-04-25T14:01:38.448Z</time></trkpt><trkpt lat="42.7843219" lon="12.7667109"><ele>276.0</ele><time>2026-04-25T14:01:39.448Z</time></trkpt><trkpt lat="42.7840545" lon="12.7667355"><ele>276.0</ele><time>2026-04-25T14:01:40.449Z</time></trkpt><trkpt lat="42.7837873" lon="12.7667549"><ele>276.0</ele><time>2026-04-25T14:01:41.448Z</time></trkpt><trkpt lat="42.7835204" lon="12.7667734"><ele>276.5</ele><time>2026-04-25T14:01:42.448Z</time></trkpt><trkpt lat="42.7832568" lon="12.7667883"><ele>277.0</ele><time>2026-04-25T14:01:43.448Z</time></trkpt><trkpt lat="42.7829907" lon="12.7668064"><ele>277.0</ele><time>2026-04-25T14:01:44.448Z</time></trkpt><trkpt lat="42.7827245" lon="12.7668294"><ele>277.0</ele><time>2026-04-25T14:01:45.448Z</time></trkpt><trkpt lat="42.782459" lon="12.7668495"><ele>276.5</ele><time>2026-04-25T14:01:46.448Z</time></trkpt><trkpt lat="42.7821948" lon="12.7668746"><ele>276.0</ele><time>2026-04-25T14:01:47.448Z</time></trkpt><trkpt lat="42.7819341" lon="12.7669048"><ele>275.0</ele><time>2026-04-25T14:01:48.448Z</time></trkpt><trkpt lat="42.7816721" lon="12.7669465"><ele>274.0</ele><time>2026-04-25T14:01:49.448Z</time></trkpt><trkpt lat="42.7814084" lon="12.7669991"><ele>274.0</ele><time>2026-04-25T14:01:50.449Z</time></trkpt><trkpt lat="42.7811487" lon="12.767069"><ele>274.0</ele><time>2026-04-25T14:01:51.448Z</time></trkpt><trkpt lat="42.7808895" lon="12.7671404"><ele>273.5</ele><time>2026-04-25T14:01:52.448Z</time></trkpt><trkpt lat="42.7806331" lon="12.7672322"><ele>273.0</ele><time>2026-04-25T14:01:53.448Z</time></trkpt><trkpt lat="42.7803844" lon="12.7673374"><ele>273.0</ele><time>2026-04-25T14:01:54.449Z</time></trkpt><trkpt lat="42.780143" lon="12.7674697"><ele>273.0</ele><time>2026-04-25T14:01:55.448Z</time></trkpt><trkpt lat="42.779906" lon="12.7676105"><ele>274.5</ele><time>2026-04-25T14:01:56.448Z</time></trkpt><trkpt lat="42.7796751" lon="12.7677522"><ele>276.0</ele><time>2026-04-25T14:01:57.449Z</time></trkpt><trkpt lat="42.7794501" lon="12.767901"><ele>276.0</ele><time>2026-04-25T14:01:58.448Z</time></trkpt><trkpt lat="42.7792314" lon="12.7680607"><ele>276.0</ele><time>2026-04-25T14:01:59.449Z</time></trkpt><trkpt lat="42.7790256" lon="12.7682333"><ele>276.0</ele><time>2026-04-25T14:02:00.448Z</time></trkpt><trkpt lat="42.7788231" lon="12.7684121"><ele>276.0</ele><time>2026-04-25T14:02:01.448Z</time></trkpt><trkpt lat="42.7786231" lon="12.7685877"><ele>275.5</ele><time>2026-04-25T14:02:02.448Z</time></trkpt><trkpt lat="42.7784296" lon="12.7687688"><ele>275.0</ele><time>2026-04-25T14:02:03.448Z</time></trkpt><trkpt lat="42.7782389" lon="12.7689546"><ele>275.0</ele><time>2026-04-25T14:02:04.448Z</time></trkpt><trkpt lat="42.7780486" lon="12.7691382"><ele>275.0</ele><time>2026-04-25T14:02:05.449Z</time></trkpt><trkpt lat="42.7778606" lon="12.7693093"><ele>276.5</ele><time>2026-04-25T14:02:06.449Z</time></trkpt><trkpt lat="42.7776701" lon="12.7694862"><ele>278.0</ele><time>2026-04-25T14:02:07.448Z</time></trkpt><trkpt lat="42.7774771" lon="12.7696478"><ele>278.0</ele><time>2026-04-25T14:02:08.448Z</time></trkpt><trkpt lat="42.7772793" lon="12.769805"><ele>278.0</ele><time>2026-04-25T14:02:09.448Z</time></trkpt><trkpt lat="42.77708" lon="12.7699522"><ele>278.0</ele><time>2026-04-25T14:02:10.448Z</time></trkpt><trkpt lat="42.7768847" lon="12.7700813"><ele>278.0</ele><time>2026-04-25T14:02:11.448Z</time></trkpt><trkpt lat="42.7766821" lon="12.7702119"><ele>278.0</ele><time>2026-04-25T14:02:12.448Z</time></trkpt><trkpt lat="42.7764764" lon="12.7703291"><ele>279.0</ele><time>2026-04-25T14:02:13.448Z</time></trkpt><trkpt lat="42.7762662" lon="12.7704313"><ele>280.0</ele><time>2026-04-25T14:02:14.448Z</time></trkpt><trkpt lat="42.7760597" lon="12.7705261"><ele>281.0</ele><time>2026-04-25T14:02:15.449Z</time></trkpt><trkpt lat="42.7758588" lon="12.7706035"><ele>281.33333333333337</ele><time>2026-04-25T14:02:16.448Z</time></trkpt><trkpt lat="42.7756597" lon="12.7706749"><ele>281.6666666666667</ele><time>2026-04-25T14:02:17.448Z</time></trkpt><trkpt lat="42.7754312" lon="12.7707418"><ele>282.0</ele><time>2026-04-25T14:02:18.448Z</time></trkpt><trkpt lat="42.775206" lon="12.7707966"><ele>282.0</ele><time>2026-04-25T14:02:19.448Z</time></trkpt><trkpt lat="42.7749782" lon="12.7708409"><ele>282.0</ele><time>2026-04-25T14:02:20.448Z</time></trkpt><trkpt lat="42.7747521" lon="12.7708803"><ele>282.0</ele><time>2026-04-25T14:02:21.448Z</time></trkpt><trkpt lat="42.7745271" lon="12.7709016"><ele>282.0</ele><time>2026-04-25T14:02:22.448Z</time></trkpt><trkpt lat="42.7742895" lon="12.7708863"><ele>280.6666666666667</ele><time>2026-04-25T14:02:23.448Z</time></trkpt><trkpt lat="42.7740657" lon="12.7708784"><ele>279.33333333333337</ele><time>2026-04-25T14:02:24.448Z</time></trkpt><trkpt lat="42.7738434" lon="12.7708593"><ele>278.0</ele><time>2026-04-25T14:02:25.448Z</time></trkpt><trkpt lat="42.773621" lon="12.7708335"><ele>278.0</ele><time>2026-04-25T14:02:26.448Z</time></trkpt><trkpt lat="42.7733951" lon="12.7708003"><ele>278.0</ele><time>2026-04-25T14:02:27.448Z</time></trkpt><trkpt lat="42.773172" lon="12.7707621"><ele>278.0</ele><time>2026-04-25T14:02:28.448Z</time></trkpt><trkpt lat="42.7729545" lon="12.770718"><ele>278.0</ele><time>2026-04-25T14:02:29.448Z</time></trkpt><trkpt lat="42.7727376" lon="12.7706738"><ele>278.0</ele><time>2026-04-25T14:02:30.448Z</time></trkpt><trkpt lat="42.772519" lon="12.7706235"><ele>277.33333333333337</ele><time>2026-04-25T14:02:31.448Z</time></trkpt><trkpt lat="42.7723018" lon="12.7705766"><ele>276.6666666666667</ele><time>2026-04-25T14:02:32.448Z</time></trkpt><trkpt lat="42.7720911" lon="12.7705247"><ele>276.0</ele><time>2026-04-25T14:02:33.448Z</time></trkpt><trkpt lat="42.7718758" lon="12.7704713"><ele>275.3333333333333</ele><time>2026-04-25T14:02:34.448Z</time></trkpt><trkpt lat="42.7716677" lon="12.7704176"><ele>274.66666666666663</ele><time>2026-04-25T14:02:35.448Z</time></trkpt><trkpt lat="42.7714562" lon="12.7703626"><ele>274.0</ele><time>2026-04-25T14:02:36.448Z</time></trkpt><trkpt lat="42.7712455" lon="12.7703111"><ele>274.0</ele><time>2026-04-25T14:02:37.448Z</time></trkpt><trkpt lat="42.7710344" lon="12.7702552"><ele>274.0</ele><time>2026-04-25T14:02:38.449Z</time></trkpt><trkpt lat="42.7708326" lon="12.7701949"><ele>274.0</ele><time>2026-04-25T14:02:39.448Z</time></trkpt><trkpt lat="42.7706224" lon="12.7701357"><ele>273.66666666666663</ele><time>2026-04-25T14:02:40.448Z</time></trkpt><trkpt lat="42.7704149" lon="12.7700785"><ele>273.3333333333333</ele><time>2026-04-25T14:02:41.448Z</time></trkpt><trkpt lat="42.7702093" lon="12.7700201"><ele>273.0</ele><time>2026-04-25T14:02:42.449Z</time></trkpt><trkpt lat="42.7700007" lon="12.7699473"><ele>272.6666666666667</ele><time>2026-04-25T14:02:43.448Z</time></trkpt><trkpt lat="42.769793" lon="12.7698774"><ele>272.33333333333337</ele><time>2026-04-25T14:02:44.448Z</time></trkpt><trkpt lat="42.7695863" lon="12.7698022"><ele>272.0</ele><time>2026-04-25T14:02:45.448Z</time></trkpt><trkpt lat="42.7693771" lon="12.769729"><ele>273.6666666666667</ele><time>2026-04-25T14:02:46.449Z</time></trkpt><trkpt lat="42.7691721" lon="12.7696595"><ele>275.3333333333333</ele><time>2026-04-25T14:02:47.448Z</time></trkpt><trkpt lat="42.7689642" lon="12.7695896"><ele>277.0</ele><time>2026-04-25T14:02:48.448Z</time></trkpt><trkpt lat="42.7687573" lon="12.7695159"><ele>277.0</ele><time>2026-04-25T14:02:49.449Z</time></trkpt><trkpt lat="42.7685478" lon="12.7694402"><ele>277.0</ele><time>2026-04-25T14:02:50.448Z</time></trkpt><trkpt lat="42.7683408" lon="12.7693583"><ele>277.0</ele><time>2026-04-25T14:02:51.448Z</time></trkpt><trkpt lat="42.7681347" lon="12.7692825"><ele>276.66666666666663</ele><time>2026-04-25T14:02:52.448Z</time></trkpt><trkpt lat="42.7679292" lon="12.7692052"><ele>276.3333333333333</ele><time>2026-04-25T14:02:53.448Z</time></trkpt><trkpt lat="42.7677264" lon="12.7691211"><ele>276.0</ele><time>2026-04-25T14:02:54.448Z</time></trkpt><trkpt lat="42.7675201" lon="12.7690368"><ele>277.0</ele><time>2026-04-25T14:02:55.449Z</time></trkpt><trkpt lat="42.7673177" lon="12.7689523"><ele>278.0</ele><time>2026-04-25T14:02:56.448Z</time></trkpt><trkpt lat="42.7671126" lon="12.7688651"><ele>279.0</ele><time>2026-04-25T14:02:57.448Z</time></trkpt><trkpt lat="42.7669085" lon="12.7687777"><ele>278.6666666666667</ele><time>2026-04-25T14:02:58.448Z</time></trkpt><trkpt lat="42.7667134" lon="12.768677"><ele>278.33333333333337</ele><time>2026-04-25T14:02:59.448Z</time></trkpt><trkpt lat="42.7665253" lon="12.7685688"><ele>278.0</ele><time>2026-04-25T14:03:00.448Z</time></trkpt><trkpt lat="42.7663465" lon="12.7684608"><ele>278.0</ele><time>2026-04-25T14:03:01.449Z</time></trkpt><trkpt lat="42.7661703" lon="12.768346"><ele>278.0</ele><time>2026-04-25T14:03:02.448Z</time></trkpt><trkpt lat="42.7660145" lon="12.7682341"><ele>278.0</ele><time>2026-04-25T14:03:03.448Z</time></trkpt><trkpt lat="42.7658654" lon="12.7681199"><ele>279.0</ele><time>2026-04-25T14:03:04.448Z</time></trkpt><trkpt lat="42.7657213" lon="12.7680025"><ele>280.0</ele><time>2026-04-25T14:03:05.448Z</time></trkpt><trkpt lat="42.7655831" lon="12.7678733"><ele>281.0</ele><time>2026-04-25T14:03:06.448Z</time></trkpt><trkpt lat="42.7654515" lon="12.7677391"><ele>281.0</ele><time>2026-04-25T14:03:07.448Z</time></trkpt><trkpt lat="42.7653223" lon="12.7675933"><ele>281.0</ele><time>2026-04-25T14:03:08.448Z</time></trkpt><trkpt lat="42.7652001" lon="12.7674432"><ele>281.0</ele><time>2026-04-25T14:03:09.448Z</time></trkpt><trkpt lat="42.765082" lon="12.7672898"><ele>281.0</ele><time>2026-04-25T14:03:10.448Z</time></trkpt><trkpt lat="42.7649706" lon="12.7671323"><ele>281.0</ele><time>2026-04-25T14:03:11.448Z</time></trkpt><trkpt lat="42.7648603" lon="12.7669685"><ele>281.0</ele><time>2026-04-25T14:03:12.448Z</time></trkpt><trkpt lat="42.7647491" lon="12.7667924"><ele>280.6666666666667</ele><time>2026-04-25T14:03:13.448Z</time></trkpt><trkpt lat="42.7646415" lon="12.7666076"><ele>280.3333333333333</ele><time>2026-04-25T14:03:14.449Z</time></trkpt><trkpt lat="42.7645366" lon="12.7664217"><ele>280.0</ele><time>2026-04-25T14:03:15.448Z</time></trkpt><trkpt lat="42.7644392" lon="12.7662273"><ele>281.0</ele><time>2026-04-25T14:03:16.448Z</time></trkpt><trkpt lat="42.7643411" lon="12.7660204"><ele>282.0</ele><time>2026-04-25T14:03:17.448Z</time></trkpt><trkpt lat="42.7642494" lon="12.7658052"><ele>283.0</ele><time>2026-04-25T14:03:18.449Z</time></trkpt><trkpt lat="42.7641647" lon="12.7655842"><ele>283.0</ele><time>2026-04-25T14:03:19.448Z</time></trkpt><trkpt lat="42.764083" lon="12.7653543"><ele>283.0</ele><time>2026-04-25T14:03:20.448Z</time></trkpt><trkpt lat="42.7640073" lon="12.7651183"><ele>283.0</ele><time>2026-04-25T14:03:21.448Z</time></trkpt><trkpt lat="42.763935" lon="12.7648739"><ele>282.0</ele><time>2026-04-25T14:03:22.449Z</time></trkpt><trkpt lat="42.763876" lon="12.7646315"><ele>281.0</ele><time>2026-04-25T14:03:23.449Z</time></trkpt><trkpt lat="42.7638197" lon="12.7643831"><ele>280.0</ele><time>2026-04-25T14:03:24.448Z</time></trkpt><trkpt lat="42.7637668" lon="12.7641267"><ele>279.3333333333333</ele><time>2026-04-25T14:03:25.448Z</time></trkpt><trkpt lat="42.7637127" lon="12.7638695"><ele>278.6666666666667</ele><time>2026-04-25T14:03:26.449Z</time></trkpt><trkpt lat="42.7636597" lon="12.7636053"><ele>278.0</ele><time>2026-04-25T14:03:27.448Z</time></trkpt><trkpt lat="42.7636048" lon="12.7633459"><ele>277.6666666666667</ele><time>2026-04-25T14:03:28.448Z</time></trkpt><trkpt lat="42.7635492" lon="12.7630838"><ele>277.3333333333333</ele><time>2026-04-25T14:03:29.448Z</time></trkpt><trkpt lat="42.7634855" lon="12.7628249"><ele>277.0</ele><time>2026-04-25T14:03:30.448Z</time></trkpt><trkpt lat="42.7634199" lon="12.7625602"><ele>277.3333333333333</ele><time>2026-04-25T14:03:31.448Z</time></trkpt><trkpt lat="42.7633521" lon="12.762294"><ele>277.6666666666667</ele><time>2026-04-25T14:03:32.448Z</time></trkpt><trkpt lat="42.7632717" lon="12.7620354"><ele>278.0</ele><time>2026-04-25T14:03:33.449Z</time></trkpt><trkpt lat="42.7631741" lon="12.7617821"><ele>278.0</ele><time>2026-04-25T14:03:34.448Z</time></trkpt><trkpt lat="42.763069" lon="12.7615311"><ele>278.0</ele><time>2026-04-25T14:03:35.448Z</time></trkpt><trkpt lat="42.7629512" lon="12.7612841"><ele>278.0</ele><time>2026-04-25T14:03:36.448Z</time></trkpt><trkpt lat="42.7628213" lon="12.7610448"><ele>279.0</ele><time>2026-04-25T14:03:37.449Z</time></trkpt><trkpt lat="42.7626858" lon="12.7608106"><ele>280.0</ele><time>2026-04-25T14:03:38.448Z</time></trkpt><trkpt lat="42.7625442" lon="12.7605858"><ele>281.0</ele><time>2026-04-25T14:03:39.448Z</time></trkpt><trkpt lat="42.7623964" lon="12.7603662"><ele>280.6666666666667</ele><time>2026-04-25T14:03:40.448Z</time></trkpt><trkpt lat="42.7622467" lon="12.7601472"><ele>280.3333333333333</ele><time>2026-04-25T14:03:41.448Z</time></trkpt><trkpt lat="42.7620976" lon="12.7599298"><ele>280.0</ele><time>2026-04-25T14:03:42.448Z</time></trkpt><trkpt lat="42.7619477" lon="12.7597179"><ele>281.0</ele><time>2026-04-25T14:03:43.448Z</time></trkpt><trkpt lat="42.7617978" lon="12.7594999"><ele>282.0</ele><time>2026-04-25T14:03:44.448Z</time></trkpt><trkpt lat="42.7616473" lon="12.7592838"><ele>283.0</ele><time>2026-04-25T14:03:45.448Z</time></trkpt><trkpt lat="42.7614931" lon="12.7590663"><ele>283.0</ele><time>2026-04-25T14:03:46.448Z</time></trkpt><trkpt lat="42.7613356" lon="12.7588522"><ele>283.0</ele><time>2026-04-25T14:03:47.448Z</time></trkpt><trkpt lat="42.7611729" lon="12.7586396"><ele>283.0</ele><time>2026-04-25T14:03:48.448Z</time></trkpt><trkpt lat="42.7610104" lon="12.758433"><ele>285.0</ele><time>2026-04-25T14:03:49.448Z</time></trkpt><trkpt lat="42.7608417" lon="12.7582325"><ele>287.0</ele><time>2026-04-25T14:03:50.448Z</time></trkpt><trkpt lat="42.7606706" lon="12.7580369"><ele>289.0</ele><time>2026-04-25T14:03:51.448Z</time></trkpt><trkpt lat="42.7605038" lon="12.7578445"><ele>289.0</ele><time>2026-04-25T14:03:52.448Z</time></trkpt><trkpt lat="42.7603279" lon="12.7576632"><ele>289.0</ele><time>2026-04-25T14:03:53.448Z</time></trkpt><trkpt lat="42.7601454" lon="12.7574854"><ele>289.0</ele><time>2026-04-25T14:03:54.448Z</time></trkpt><trkpt lat="42.7599598" lon="12.7573225"><ele>289.0</ele><time>2026-04-25T14:03:55.448Z</time></trkpt><trkpt lat="42.7597788" lon="12.7571627"><ele>289.0</ele><time>2026-04-25T14:03:56.448Z</time></trkpt><trkpt lat="42.7595977" lon="12.7570091"><ele>289.0</ele><time>2026-04-25T14:03:57.448Z</time></trkpt><trkpt lat="42.7594156" lon="12.756865"><ele>288.3333333333333</ele><time>2026-04-25T14:03:58.448Z</time></trkpt><trkpt lat="42.7592346" lon="12.7567224"><ele>287.6666666666667</ele><time>2026-04-25T14:03:59.448Z</time></trkpt><trkpt lat="42.759058" lon="12.7565694"><ele>287.0</ele><time>2026-04-25T14:04:00.448Z</time></trkpt><trkpt lat="42.7588769" lon="12.756429"><ele>287.0</ele><time>2026-04-25T14:04:01.448Z</time></trkpt><trkpt lat="42.7586962" lon="12.7562864"><ele>287.0</ele><time>2026-04-25T14:04:02.448Z</time></trkpt><trkpt lat="42.7585144" lon="12.756143"><ele>287.0</ele><time>2026-04-25T14:04:03.449Z</time></trkpt><trkpt lat="42.7583355" lon="12.7560063"><ele>286.6666666666667</ele><time>2026-04-25T14:04:04.448Z</time></trkpt><trkpt lat="42.7581551" lon="12.7558635"><ele>286.3333333333333</ele><time>2026-04-25T14:04:05.449Z</time></trkpt><trkpt lat="42.7579795" lon="12.7557209"><ele>286.0</ele><time>2026-04-25T14:04:06.448Z</time></trkpt><trkpt lat="42.7578042" lon="12.755577"><ele>286.0</ele><time>2026-04-25T14:04:07.448Z</time></trkpt><trkpt lat="42.7576276" lon="12.7554357"><ele>286.0</ele><time>2026-04-25T14:04:08.448Z</time></trkpt><trkpt lat="42.7574513" lon="12.7553018"><ele>286.0</ele><time>2026-04-25T14:04:09.448Z</time></trkpt><trkpt lat="42.7572754" lon="12.7551592"><ele>286.0</ele><time>2026-04-25T14:04:10.449Z</time></trkpt><trkpt lat="42.7570979" lon="12.7550237"><ele>286.0</ele><time>2026-04-25T14:04:11.448Z</time></trkpt><trkpt lat="42.7569157" lon="12.7548864"><ele>286.0</ele><time>2026-04-25T14:04:12.448Z</time></trkpt><trkpt lat="42.7567345" lon="12.7547481"><ele>287.0</ele><time>2026-04-25T14:04:13.448Z</time></trkpt><trkpt lat="42.756555" lon="12.754613"><ele>288.0</ele><time>2026-04-25T14:04:14.448Z</time></trkpt><trkpt lat="42.7563766" lon="12.7544767"><ele>289.0</ele><time>2026-04-25T14:04:15.448Z</time></trkpt><trkpt lat="42.7562011" lon="12.7543377"><ele>291.0</ele><time>2026-04-25T14:04:16.448Z</time></trkpt><trkpt lat="42.7560212" lon="12.7542022"><ele>293.0</ele><time>2026-04-25T14:04:17.448Z</time></trkpt><trkpt lat="42.755848" lon="12.754065"><ele>295.0</ele><time>2026-04-25T14:04:18.448Z</time></trkpt><trkpt lat="42.755671" lon="12.7539147"><ele>295.0</ele><time>2026-04-25T14:04:19.448Z</time></trkpt><trkpt lat="42.7554949" lon="12.7537691"><ele>295.0</ele><time>2026-04-25T14:04:20.448Z</time></trkpt><trkpt lat="42.7553143" lon="12.7536148"><ele>295.0</ele><time>2026-04-25T14:04:21.448Z</time></trkpt><trkpt lat="42.7551345" lon="12.7534667"><ele>294.3333333333333</ele><time>2026-04-25T14:04:22.448Z</time></trkpt><trkpt lat="42.7549616" lon="12.7533065"><ele>293.6666666666667</ele><time>2026-04-25T14:04:23.448Z</time></trkpt><trkpt lat="42.7547832" lon="12.7531497"><ele>293.0</ele><time>2026-04-25T14:04:24.448Z</time></trkpt><trkpt lat="42.7546139" lon="12.7529872"><ele>293.0</ele><time>2026-04-25T14:04:25.448Z</time></trkpt><trkpt lat="42.7544469" lon="12.7528158"><ele>293.0</ele><time>2026-04-25T14:04:26.449Z</time></trkpt><trkpt lat="42.7542819" lon="12.7526491"><ele>293.0</ele><time>2026-04-25T14:04:27.448Z</time></trkpt><trkpt lat="42.754116" lon="12.752477"><ele>293.33333333333337</ele><time>2026-04-25T14:04:28.448Z</time></trkpt><trkpt lat="42.7539493" lon="12.7523088"><ele>293.6666666666667</ele><time>2026-04-25T14:04:29.448Z</time></trkpt><trkpt lat="42.753785" lon="12.7521315"><ele>294.0</ele><time>2026-04-25T14:04:30.448Z</time></trkpt><trkpt lat="42.7536263" lon="12.7519611"><ele>294.6666666666667</ele><time>2026-04-25T14:04:31.448Z</time></trkpt><trkpt lat="42.7534649" lon="12.751795"><ele>295.33333333333337</ele><time>2026-04-25T14:04:32.448Z</time></trkpt><trkpt lat="42.7533021" lon="12.7516219"><ele>296.0</ele><time>2026-04-25T14:04:33.448Z</time></trkpt><trkpt lat="42.7531398" lon="12.7514482"><ele>296.0</ele><time>2026-04-25T14:04:34.448Z</time></trkpt><trkpt lat="42.7529795" lon="12.7512779"><ele>296.0</ele><time>2026-04-25T14:04:35.448Z</time></trkpt><trkpt lat="42.7528169" lon="12.751106"><ele>296.0</ele><time>2026-04-25T14:04:36.449Z</time></trkpt><trkpt lat="42.7526502" lon="12.7509359"><ele>295.6666666666667</ele><time>2026-04-25T14:04:37.449Z</time></trkpt><trkpt lat="42.752488" lon="12.7507666"><ele>295.3333333333333</ele><time>2026-04-25T14:04:38.449Z</time></trkpt><trkpt lat="42.7523286" lon="12.7505959"><ele>295.0</ele><time>2026-04-25T14:04:39.448Z</time></trkpt><trkpt lat="42.7521712" lon="12.7504277"><ele>295.0</ele><time>2026-04-25T14:04:40.448Z</time></trkpt><trkpt lat="42.7520125" lon="12.7502542"><ele>295.0</ele><time>2026-04-25T14:04:41.449Z</time></trkpt><trkpt lat="42.7518518" lon="12.7500915"><ele>295.0</ele><time>2026-04-25T14:04:42.448Z</time></trkpt><trkpt lat="42.7516951" lon="12.7499282"><ele>295.66666666666663</ele><time>2026-04-25T14:04:43.448Z</time></trkpt><trkpt lat="42.7515334" lon="12.7497672"><ele>296.3333333333333</ele><time>2026-04-25T14:04:44.448Z</time></trkpt><trkpt lat="42.7513802" lon="12.7496024"><ele>297.0</ele><time>2026-04-25T14:04:45.448Z</time></trkpt><trkpt lat="42.751224" lon="12.7494407"><ele>297.3333333333333</ele><time>2026-04-25T14:04:46.448Z</time></trkpt><trkpt lat="42.7510688" lon="12.7492811"><ele>297.66666666666663</ele><time>2026-04-25T14:04:47.448Z</time></trkpt><trkpt lat="42.7509148" lon="12.749114"><ele>298.0</ele><time>2026-04-25T14:04:48.448Z</time></trkpt><trkpt lat="42.7507598" lon="12.748949"><ele>298.3333333333333</ele><time>2026-04-25T14:04:49.448Z</time></trkpt><trkpt lat="42.7506049" lon="12.7487861"><ele>298.6666666666667</ele><time>2026-04-25T14:04:50.448Z</time></trkpt><trkpt lat="42.7504484" lon="12.7486236"><ele>299.0</ele><time>2026-04-25T14:04:51.449Z</time></trkpt><trkpt lat="42.7502939" lon="12.7484592"><ele>301.0</ele><time>2026-04-25T14:04:52.448Z</time></trkpt><trkpt lat="42.7501411" lon="12.748296"><ele>303.0</ele><time>2026-04-25T14:04:53.448Z</time></trkpt><trkpt lat="42.7499847" lon="12.7481349"><ele>305.0</ele><time>2026-04-25T14:04:54.448Z</time></trkpt><trkpt lat="42.7498338" lon="12.7479707"><ele>305.0</ele><time>2026-04-25T14:04:55.448Z</time></trkpt><trkpt lat="42.7496824" lon="12.7478027"><ele>305.0</ele><time>2026-04-25T14:04:56.448Z</time></trkpt><trkpt lat="42.7495251" lon="12.7476413"><ele>305.0</ele><time>2026-04-25T14:04:57.448Z</time></trkpt><trkpt lat="42.7493692" lon="12.7474742"><ele>306.6666666666667</ele><time>2026-04-25T14:04:58.448Z</time></trkpt><trkpt lat="42.7492111" lon="12.7473091"><ele>308.3333333333333</ele><time>2026-04-25T14:04:59.448Z</time></trkpt><trkpt lat="42.7490545" lon="12.7471393"><ele>310.0</ele><time>2026-04-25T14:05:00.449Z</time></trkpt><trkpt lat="42.7488945" lon="12.7469714"><ele>309.66666666666663</ele><time>2026-04-25T14:05:01.448Z</time></trkpt><trkpt lat="42.7487339" lon="12.7467993"><ele>309.3333333333333</ele><time>2026-04-25T14:05:02.449Z</time></trkpt><trkpt lat="42.7485694" lon="12.7466368"><ele>309.0</ele><time>2026-04-25T14:05:03.448Z</time></trkpt><trkpt lat="42.7484077" lon="12.7464713"><ele>309.6666666666667</ele><time>2026-04-25T14:05:04.448Z</time></trkpt><trkpt lat="42.7482434" lon="12.7463078"><ele>310.33333333333337</ele><time>2026-04-25T14:05:05.449Z</time></trkpt><trkpt lat="42.7480805" lon="12.746139"><ele>311.0</ele><time>2026-04-25T14:05:06.448Z</time></trkpt><trkpt lat="42.7479216" lon="12.7459709"><ele>311.0</ele><time>2026-04-25T14:05:07.448Z</time></trkpt><trkpt lat="42.7477587" lon="12.7458017"><ele>311.0</ele><time>2026-04-25T14:05:08.448Z</time></trkpt><trkpt lat="42.7475919" lon="12.7456393"><ele>311.0</ele><time>2026-04-25T14:05:09.448Z</time></trkpt><trkpt lat="42.7474282" lon="12.7454647"><ele>311.6666666666667</ele><time>2026-04-25T14:05:10.448Z</time></trkpt><trkpt lat="42.7472627" lon="12.7453052"><ele>312.3333333333333</ele><time>2026-04-25T14:05:11.448Z</time></trkpt><trkpt lat="42.747089" lon="12.7451485"><ele>313.0</ele><time>2026-04-25T14:05:12.448Z</time></trkpt><trkpt lat="42.7469131" lon="12.7449972"><ele>315.0</ele><time>2026-04-25T14:05:13.448Z</time></trkpt><trkpt lat="42.7467311" lon="12.7448528"><ele>317.0</ele><time>2026-04-25T14:05:14.448Z</time></trkpt><trkpt lat="42.7465477" lon="12.7447161"><ele>319.0</ele><time>2026-04-25T14:05:15.448Z</time></trkpt><trkpt lat="42.7463602" lon="12.7445775"><ele>319.0</ele><time>2026-04-25T14:05:16.448Z</time></trkpt><trkpt lat="42.7461741" lon="12.7444394"><ele>319.0</ele><time>2026-04-25T14:05:17.448Z</time></trkpt><trkpt lat="42.7459869" lon="12.7442991"><ele>319.0</ele><time>2026-04-25T14:05:18.448Z</time></trkpt><trkpt lat="42.7458016" lon="12.7441624"><ele>320.66666666666663</ele><time>2026-04-25T14:05:19.448Z</time></trkpt><trkpt lat="42.7456189" lon="12.7440281"><ele>322.3333333333333</ele><time>2026-04-25T14:05:20.448Z</time></trkpt><trkpt lat="42.7454372" lon="12.7438905"><ele>324.0</ele><time>2026-04-25T14:05:21.449Z</time></trkpt><trkpt lat="42.7452539" lon="12.7437512"><ele>325.3333333333333</ele><time>2026-04-25T14:05:22.448Z</time></trkpt><trkpt lat="42.7450695" lon="12.7436132"><ele>326.66666666666663</ele><time>2026-04-25T14:05:23.449Z</time></trkpt><trkpt lat="42.7448828" lon="12.7434884"><ele>328.0</ele><time>2026-04-25T14:05:24.449Z</time></trkpt><trkpt lat="42.7446964" lon="12.7433512"><ele>328.0</ele><time>2026-04-25T14:05:25.448Z</time></trkpt><trkpt lat="42.7445105" lon="12.7432195"><ele>328.0</ele><time>2026-04-25T14:05:26.449Z</time></trkpt><trkpt lat="42.7443269" lon="12.7430843"><ele>328.0</ele><time>2026-04-25T14:05:27.448Z</time></trkpt><trkpt lat="42.744148" lon="12.7429393"><ele>328.3333333333333</ele><time>2026-04-25T14:05:28.448Z</time></trkpt><trkpt lat="42.7439616" lon="12.7428019"><ele>328.6666666666667</ele><time>2026-04-25T14:05:29.448Z</time></trkpt><trkpt lat="42.7437773" lon="12.7426702"><ele>329.0</ele><time>2026-04-25T14:05:30.449Z</time></trkpt><trkpt lat="42.7435928" lon="12.7425402"><ele>330.6666666666667</ele><time>2026-04-25T14:05:31.448Z</time></trkpt><trkpt lat="42.7434138" lon="12.742404"><ele>332.3333333333333</ele><time>2026-04-25T14:05:32.448Z</time></trkpt><trkpt lat="42.743237" lon="12.7422645"><ele>334.0</ele><time>2026-04-25T14:05:33.448Z</time></trkpt><trkpt lat="42.7430619" lon="12.7421382"><ele>334.0</ele><time>2026-04-25T14:05:34.448Z</time></trkpt><trkpt lat="42.7428921" lon="12.7420188"><ele>334.0</ele><time>2026-04-25T14:05:35.448Z</time></trkpt><trkpt lat="42.7427273" lon="12.7419001"><ele>334.0</ele><time>2026-04-25T14:05:36.448Z</time></trkpt><trkpt lat="42.7425705" lon="12.7417855"><ele>334.3333333333333</ele><time>2026-04-25T14:05:37.448Z</time></trkpt><trkpt lat="42.7424142" lon="12.7416677"><ele>334.6666666666667</ele><time>2026-04-25T14:05:38.449Z</time></trkpt><trkpt lat="42.7422548" lon="12.7415556"><ele>335.0</ele><time>2026-04-25T14:05:39.448Z</time></trkpt><trkpt lat="42.7420936" lon="12.741442"><ele>335.0</ele><time>2026-04-25T14:05:40.448Z</time></trkpt><trkpt lat="42.7419339" lon="12.7413216"><ele>335.0</ele><time>2026-04-25T14:05:41.448Z</time></trkpt><trkpt lat="42.7417736" lon="12.7412097"><ele>335.0</ele><time>2026-04-25T14:05:42.448Z</time></trkpt><trkpt lat="42.7416142" lon="12.7411005"><ele>334.6666666666667</ele><time>2026-04-25T14:05:43.448Z</time></trkpt><trkpt lat="42.7414571" lon="12.7410143"><ele>334.3333333333333</ele><time>2026-04-25T14:05:44.448Z</time></trkpt><trkpt lat="42.7412972" lon="12.7409401"><ele>334.0</ele><time>2026-04-25T14:05:45.448Z</time></trkpt><trkpt lat="42.7411314" lon="12.7408927"><ele>334.3333333333333</ele><time>2026-04-25T14:05:46.448Z</time></trkpt><trkpt lat="42.7409619" lon="12.7408587"><ele>334.6666666666667</ele><time>2026-04-25T14:05:47.448Z</time></trkpt><trkpt lat="42.7407972" lon="12.7408377"><ele>335.0</ele><time>2026-04-25T14:05:48.448Z</time></trkpt><trkpt lat="42.7406309" lon="12.7408352"><ele>335.0</ele><time>2026-04-25T14:05:49.448Z</time></trkpt><trkpt lat="42.7404571" lon="12.740856"><ele>335.0</ele><time>2026-04-25T14:05:50.448Z</time></trkpt><trkpt lat="42.7402754" lon="12.7409031"><ele>335.0</ele><time>2026-04-25T14:05:51.449Z</time></trkpt><trkpt lat="42.7400915" lon="12.7409652"><ele>335.0</ele><time>2026-04-25T14:05:52.448Z</time></trkpt><trkpt lat="42.7399011" lon="12.741048"><ele>335.0</ele><time>2026-04-25T14:05:53.448Z</time></trkpt><trkpt lat="42.7396945" lon="12.7411349"><ele>335.0</ele><time>2026-04-25T14:05:54.448Z</time></trkpt><trkpt lat="42.7394807" lon="12.7412194"><ele>339.0</ele><time>2026-04-25T14:05:55.448Z</time></trkpt><trkpt lat="42.7392645" lon="12.7412969"><ele>343.0</ele><time>2026-04-25T14:05:56.448Z</time></trkpt><trkpt lat="42.7390485" lon="12.7413724"><ele>347.0</ele><time>2026-04-25T14:05:57.448Z</time></trkpt><trkpt lat="42.7388327" lon="12.74144"><ele>347.0</ele><time>2026-04-25T14:05:58.449Z</time></trkpt><trkpt lat="42.7386185" lon="12.7415173"><ele>347.0</ele><time>2026-04-25T14:05:59.448Z</time></trkpt><trkpt lat="42.7384055" lon="12.7415966"><ele>347.0</ele><time>2026-04-25T14:06:00.448Z</time></trkpt><trkpt lat="42.7381961" lon="12.7416824"><ele>343.33333333333337</ele><time>2026-04-25T14:06:01.448Z</time></trkpt><trkpt lat="42.7379868" lon="12.7417539"><ele>339.6666666666667</ele><time>2026-04-25T14:06:02.448Z</time></trkpt><trkpt lat="42.7377821" lon="12.7418265"><ele>336.0</ele><time>2026-04-25T14:06:03.449Z</time></trkpt><trkpt lat="42.7375759" lon="12.7418888"><ele>335.3333333333333</ele><time>2026-04-25T14:06:04.449Z</time></trkpt><trkpt lat="42.7373726" lon="12.7419513"><ele>334.66666666666663</ele><time>2026-04-25T14:06:05.448Z</time></trkpt><trkpt lat="42.7371732" lon="12.7419878"><ele>334.0</ele><time>2026-04-25T14:06:06.448Z</time></trkpt><trkpt lat="42.736971" lon="12.7420032"><ele>336.0</ele><time>2026-04-25T14:06:07.448Z</time></trkpt><trkpt lat="42.7367653" lon="12.7420001"><ele>338.0</ele><time>2026-04-25T14:06:08.448Z</time></trkpt><trkpt lat="42.7365554" lon="12.7419555"><ele>340.0</ele><time>2026-04-25T14:06:09.448Z</time></trkpt><trkpt lat="42.7363515" lon="12.741898"><ele>339.3333333333333</ele><time>2026-04-25T14:06:10.448Z</time></trkpt><trkpt lat="42.7361467" lon="12.7418288"><ele>338.6666666666667</ele><time>2026-04-25T14:06:11.448Z</time></trkpt><trkpt lat="42.7359433" lon="12.7417552"><ele>338.0</ele><time>2026-04-25T14:06:12.448Z</time></trkpt><trkpt lat="42.7357395" lon="12.7416869"><ele>351.6666666666667</ele><time>2026-04-25T14:06:13.448Z</time></trkpt><trkpt lat="42.7355343" lon="12.741623"><ele>365.3333333333333</ele><time>2026-04-25T14:06:14.448Z</time></trkpt><trkpt lat="42.7353319" lon="12.7415539"><ele>379.0</ele><time>2026-04-25T14:06:15.448Z</time></trkpt><trkpt lat="42.7351298" lon="12.7414839"><ele>395.0</ele><time>2026-04-25T14:06:16.449Z</time></trkpt><trkpt lat="42.7349295" lon="12.7414112"><ele>411.0</ele><time>2026-04-25T14:06:17.448Z</time></trkpt><trkpt lat="42.7347289" lon="12.7413394"><ele>427.0</ele><time>2026-04-25T14:06:18.449Z</time></trkpt><trkpt lat="42.7345285" lon="12.741267"><ele>438.0</ele><time>2026-04-25T14:06:19.448Z</time></trkpt><trkpt lat="42.7343286" lon="12.7411938"><ele>449.0</ele><time>2026-04-25T14:06:20.448Z</time></trkpt><trkpt lat="42.7340951" lon="12.7411839"><ele>460.0</ele><time>2026-04-25T14:06:21.449Z</time></trkpt><trkpt lat="42.7316326" lon="12.7403065"><ele>413.0</ele><time>2026-04-25T14:06:32.448Z</time></trkpt><trkpt lat="42.731409" lon="12.7402202"><ele>366.0</ele><time>2026-04-25T14:06:33.449Z</time></trkpt><trkpt lat="42.7312026" lon="12.7401159"><ele>365.0</ele><time>2026-04-25T14:06:34.448Z</time></trkpt><trkpt lat="42.7309957" lon="12.7399998"><ele>364.0</ele><time>2026-04-25T14:06:35.448Z</time></trkpt><trkpt lat="42.7307981" lon="12.7398738"><ele>363.0</ele><time>2026-04-25T14:06:36.448Z</time></trkpt><trkpt lat="42.7306112" lon="12.7397222"><ele>363.0</ele><time>2026-04-25T14:06:37.448Z</time></trkpt><trkpt lat="42.7304328" lon="12.7395477"><ele>363.0</ele><time>2026-04-25T14:06:38.448Z</time></trkpt><trkpt lat="42.7302611" lon="12.7393613"><ele>363.0</ele><time>2026-04-25T14:06:39.449Z</time></trkpt><trkpt lat="42.7300992" lon="12.7391606"><ele>363.0</ele><time>2026-04-25T14:06:40.448Z</time></trkpt><trkpt lat="42.7299351" lon="12.7389612"><ele>363.0</ele><time>2026-04-25T14:06:41.449Z</time></trkpt><trkpt lat="42.7297732" lon="12.73876"><ele>363.0</ele><time>2026-04-25T14:06:42.448Z</time></trkpt><trkpt lat="42.7296121" lon="12.7385556"><ele>363.3333333333333</ele><time>2026-04-25T14:06:43.448Z</time></trkpt><trkpt lat="42.7294519" lon="12.7383488"><ele>363.66666666666663</ele><time>2026-04-25T14:06:44.448Z</time></trkpt><trkpt lat="42.7292906" lon="12.7381484"><ele>364.0</ele><time>2026-04-25T14:06:45.448Z</time></trkpt><trkpt lat="42.7291272" lon="12.737948"><ele>364.0</ele><time>2026-04-25T14:06:46.448Z</time></trkpt><trkpt lat="42.7289707" lon="12.7377447"><ele>364.0</ele><time>2026-04-25T14:06:47.448Z</time></trkpt><trkpt lat="42.7288175" lon="12.7375442"><ele>364.0</ele><time>2026-04-25T14:06:48.448Z</time></trkpt><trkpt lat="42.7286694" lon="12.737345"><ele>364.66666666666663</ele><time>2026-04-25T14:06:49.449Z</time></trkpt><trkpt lat="42.7285277" lon="12.7371615"><ele>365.3333333333333</ele><time>2026-04-25T14:06:50.448Z</time></trkpt><trkpt lat="42.7283931" lon="12.7369822"><ele>366.0</ele><time>2026-04-25T14:06:51.448Z</time></trkpt><trkpt lat="42.7282602" lon="12.7368237"><ele>366.0</ele><time>2026-04-25T14:06:52.448Z</time></trkpt><trkpt lat="42.7281404" lon="12.7366715"><ele>366.0</ele><time>2026-04-25T14:06:53.448Z</time></trkpt><trkpt lat="42.7280245" lon="12.7365271"><ele>366.0</ele><time>2026-04-25T14:06:54.448Z</time></trkpt><trkpt lat="42.7279376" lon="12.7364206"><ele>366.0</ele><time>2026-04-25T14:06:55.448Z</time></trkpt><trkpt lat="42.727857" lon="12.7363119"><ele>366.0</ele><time>2026-04-25T14:06:56.448Z</time></trkpt><trkpt lat="42.7277941" lon="12.7362157"><ele>366.0</ele><time>2026-04-25T14:06:57.449Z</time></trkpt><trkpt lat="42.7277523" lon="12.7361226"><ele>366.0</ele><time>2026-04-25T14:06:58.448Z</time></trkpt><trkpt lat="42.7277212" lon="12.7360297"><ele>366.0</ele><time>2026-04-25T14:06:59.448Z</time></trkpt><trkpt lat="42.7276699" lon="12.7359438"><ele>366.0</ele><time>2026-04-25T14:07:00.449Z</time></trkpt><trkpt lat="42.7276041" lon="12.735879"><ele>366.0</ele><time>2026-04-25T14:07:01.448Z</time></trkpt><trkpt lat="42.727522" lon="12.7358325"><ele>366.25</ele><time>2026-04-25T14:07:02.449Z</time></trkpt><trkpt lat="42.7274396" lon="12.7357627"><ele>366.5</ele><time>2026-04-25T14:07:03.448Z</time></trkpt><trkpt lat="42.7273616" lon="12.7356694"><ele>366.75</ele><time>2026-04-25T14:07:04.448Z</time></trkpt><trkpt lat="42.7272741" lon="12.7355634"><ele>367.0</ele><time>2026-04-25T14:07:05.448Z</time></trkpt><trkpt lat="42.7271684" lon="12.7354511"><ele>367.0</ele><time>2026-04-25T14:07:06.448Z</time></trkpt><trkpt lat="42.7270586" lon="12.7353246"><ele>367.0</ele><time>2026-04-25T14:07:07.448Z</time></trkpt><trkpt lat="42.7269278" lon="12.7352046"><ele>367.0</ele><time>2026-04-25T14:07:08.448Z</time></trkpt><trkpt lat="42.7267901" lon="12.7350913"><ele>367.66666666666663</ele><time>2026-04-25T14:07:09.448Z</time></trkpt><trkpt lat="42.7266336" lon="12.7350137"><ele>368.3333333333333</ele><time>2026-04-25T14:07:10.448Z</time></trkpt><trkpt lat="42.7264713" lon="12.7349491"><ele>369.0</ele><time>2026-04-25T14:07:11.449Z</time></trkpt><trkpt lat="42.7262996" lon="12.7349009"><ele>369.0</ele><time>2026-04-25T14:07:12.448Z</time></trkpt><trkpt lat="42.7261162" lon="12.7348696"><ele>369.0</ele><time>2026-04-25T14:07:13.448Z</time></trkpt><trkpt lat="42.7259296" lon="12.7348376"><ele>369.0</ele><time>2026-04-25T14:07:14.448Z</time></trkpt><trkpt lat="42.7257404" lon="12.7348072"><ele>370.3333333333333</ele><time>2026-04-25T14:07:15.448Z</time></trkpt><trkpt lat="42.7255559" lon="12.7347856"><ele>371.66666666666663</ele><time>2026-04-25T14:07:16.448Z</time></trkpt><trkpt lat="42.7253677" lon="12.7347583"><ele>373.0</ele><time>2026-04-25T14:07:17.448Z</time></trkpt><trkpt lat="42.7251784" lon="12.7347254"><ele>374.0</ele><time>2026-04-25T14:07:18.448Z</time></trkpt><trkpt lat="42.7249872" lon="12.7346992"><ele>375.0</ele><time>2026-04-25T14:07:19.449Z</time></trkpt><trkpt lat="42.7247985" lon="12.7346699"><ele>376.0</ele><time>2026-04-25T14:07:20.449Z</time></trkpt><trkpt lat="42.7246076" lon="12.7346417"><ele>376.0</ele><time>2026-04-25T14:07:21.448Z</time></trkpt><trkpt lat="42.7244193" lon="12.734619"><ele>376.0</ele><time>2026-04-25T14:07:22.449Z</time></trkpt><trkpt lat="42.7242321" lon="12.7345911"><ele>376.0</ele><time>2026-04-25T14:07:23.448Z</time></trkpt><trkpt lat="42.7240469" lon="12.7345482"><ele>376.66666666666663</ele><time>2026-04-25T14:07:24.448Z</time></trkpt><trkpt lat="42.723864" lon="12.7344792"><ele>377.3333333333333</ele><time>2026-04-25T14:07:25.449Z</time></trkpt><trkpt lat="42.7236898" lon="12.7343702"><ele>378.0</ele><time>2026-04-25T14:07:26.448Z</time></trkpt><trkpt lat="42.7235266" lon="12.7342377"><ele>378.6666666666667</ele><time>2026-04-25T14:07:27.448Z</time></trkpt><trkpt lat="42.7233749" lon="12.7340707"><ele>379.33333333333337</ele><time>2026-04-25T14:07:28.448Z</time></trkpt><trkpt lat="42.7232356" lon="12.7338892"><ele>380.0</ele><time>2026-04-25T14:07:29.448Z</time></trkpt><trkpt lat="42.7231085" lon="12.7336902"><ele>383.33333333333337</ele><time>2026-04-25T14:07:30.448Z</time></trkpt><trkpt lat="42.7229879" lon="12.7334772"><ele>386.6666666666667</ele><time>2026-04-25T14:07:31.448Z</time></trkpt><trkpt lat="42.722876" lon="12.7332636"><ele>390.0</ele><time>2026-04-25T14:07:32.448Z</time></trkpt><trkpt lat="42.7227634" lon="12.7330676"><ele>388.0</ele><time>2026-04-25T14:07:33.448Z</time></trkpt><trkpt lat="42.7226562" lon="12.7328779"><ele>386.0</ele><time>2026-04-25T14:07:34.448Z</time></trkpt><trkpt lat="42.7225548" lon="12.7326916"><ele>384.0</ele><time>2026-04-25T14:07:35.448Z</time></trkpt><trkpt lat="42.7224532" lon="12.7325072"><ele>383.6666666666667</ele><time>2026-04-25T14:07:36.448Z</time></trkpt><trkpt lat="42.7223574" lon="12.7323233"><ele>383.33333333333337</ele><time>2026-04-25T14:07:37.448Z</time></trkpt><trkpt lat="42.7222601" lon="12.7321411"><ele>383.0</ele><time>2026-04-25T14:07:38.448Z</time></trkpt><trkpt lat="42.7221558" lon="12.7319594"><ele>383.6666666666667</ele><time>2026-04-25T14:07:39.448Z</time></trkpt><trkpt lat="42.7220521" lon="12.7317876"><ele>384.33333333333337</ele><time>2026-04-25T14:07:40.448Z</time></trkpt><trkpt lat="42.7219405" lon="12.7316188"><ele>385.0</ele><time>2026-04-25T14:07:41.448Z</time></trkpt><trkpt lat="42.7218261" lon="12.731456"><ele>385.0</ele><time>2026-04-25T14:07:42.448Z</time></trkpt><trkpt lat="42.7217135" lon="12.7312946"><ele>385.0</ele><time>2026-04-25T14:07:43.448Z</time></trkpt><trkpt lat="42.7215952" lon="12.7311382"><ele>385.0</ele><time>2026-04-25T14:07:44.448Z</time></trkpt><trkpt lat="42.7214725" lon="12.7309853"><ele>385.33333333333337</ele><time>2026-04-25T14:07:45.448Z</time></trkpt><trkpt lat="42.7213564" lon="12.7308351"><ele>385.66666666666663</ele><time>2026-04-25T14:07:46.448Z</time></trkpt><trkpt lat="42.7212386" lon="12.730685"><ele>386.0</ele><time>2026-04-25T14:07:47.449Z</time></trkpt><trkpt lat="42.7211184" lon="12.7305405"><ele>385.3333333333333</ele><time>2026-04-25T14:07:48.448Z</time></trkpt><trkpt lat="42.7209974" lon="12.7303949"><ele>384.66666666666663</ele><time>2026-04-25T14:07:49.448Z</time></trkpt><trkpt lat="42.7208832" lon="12.7302449"><ele>384.0</ele><time>2026-04-25T14:07:50.448Z</time></trkpt><trkpt lat="42.7207651" lon="12.730103"><ele>384.0</ele><time>2026-04-25T14:07:51.448Z</time></trkpt><trkpt lat="42.7206496" lon="12.7299633"><ele>384.0</ele><time>2026-04-25T14:07:52.448Z</time></trkpt><trkpt lat="42.7205296" lon="12.729811"><ele>384.0</ele><time>2026-04-25T14:07:53.448Z</time></trkpt><trkpt lat="42.7204111" lon="12.7296654"><ele>384.0</ele><time>2026-04-25T14:07:54.448Z</time></trkpt><trkpt lat="42.7202917" lon="12.729522"><ele>384.0</ele><time>2026-04-25T14:07:55.449Z</time></trkpt><trkpt lat="42.7201759" lon="12.7293854"><ele>384.0</ele><time>2026-04-25T14:07:56.448Z</time></trkpt><trkpt lat="42.7200613" lon="12.7292399"><ele>384.66666666666663</ele><time>2026-04-25T14:07:57.448Z</time></trkpt><trkpt lat="42.7199477" lon="12.7290921"><ele>385.3333333333333</ele><time>2026-04-25T14:07:58.448Z</time></trkpt><trkpt lat="42.7198265" lon="12.7289461"><ele>386.0</ele><time>2026-04-25T14:07:59.448Z</time></trkpt><trkpt lat="42.7197045" lon="12.7287998"><ele>386.0</ele><time>2026-04-25T14:08:00.448Z</time></trkpt><trkpt lat="42.7195809" lon="12.7286495"><ele>386.0</ele><time>2026-04-25T14:08:01.448Z</time></trkpt><trkpt lat="42.7194605" lon="12.7285003"><ele>386.0</ele><time>2026-04-25T14:08:02.448Z</time></trkpt><trkpt lat="42.7193378" lon="12.7283521"><ele>385.66666666666663</ele><time>2026-04-25T14:08:03.449Z</time></trkpt><trkpt lat="42.7192114" lon="12.7282004"><ele>385.33333333333337</ele><time>2026-04-25T14:08:04.448Z</time></trkpt><trkpt lat="42.7190863" lon="12.7280494"><ele>385.0</ele><time>2026-04-25T14:08:05.448Z</time></trkpt><trkpt lat="42.7189571" lon="12.7278946"><ele>385.0</ele><time>2026-04-25T14:08:06.449Z</time></trkpt><trkpt lat="42.718823" lon="12.7277408"><ele>385.0</ele><time>2026-04-25T14:08:07.448Z</time></trkpt><trkpt lat="42.7186949" lon="12.7275857"><ele>385.0</ele><time>2026-04-25T14:08:08.448Z</time></trkpt><trkpt lat="42.7185614" lon="12.7274334"><ele>386.0</ele><time>2026-04-25T14:08:09.448Z</time></trkpt><trkpt lat="42.7184297" lon="12.7272742"><ele>387.0</ele><time>2026-04-25T14:08:10.448Z</time></trkpt><trkpt lat="42.7183052" lon="12.7271122"><ele>388.0</ele><time>2026-04-25T14:08:11.449Z</time></trkpt><trkpt lat="42.7181813" lon="12.72695"><ele>389.6666666666667</ele><time>2026-04-25T14:08:12.449Z</time></trkpt><trkpt lat="42.7180495" lon="12.7267933"><ele>391.33333333333337</ele><time>2026-04-25T14:08:13.448Z</time></trkpt><trkpt lat="42.7179239" lon="12.7266335"><ele>393.0</ele><time>2026-04-25T14:08:14.448Z</time></trkpt><trkpt lat="42.7177903" lon="12.7264894"><ele>393.66666666666663</ele><time>2026-04-25T14:08:15.448Z</time></trkpt><trkpt lat="42.7176684" lon="12.7263381"><ele>394.3333333333333</ele><time>2026-04-25T14:08:16.448Z</time></trkpt><trkpt lat="42.7175472" lon="12.7261912"><ele>395.0</ele><time>2026-04-25T14:08:17.448Z</time></trkpt><trkpt lat="42.7174249" lon="12.7260422"><ele>395.0</ele><time>2026-04-25T14:08:18.448Z</time></trkpt><trkpt lat="42.7172987" lon="12.7258953"><ele>395.0</ele><time>2026-04-25T14:08:19.448Z</time></trkpt><trkpt lat="42.7171891" lon="12.7257531"><ele>395.0</ele><time>2026-04-25T14:08:20.448Z</time></trkpt><trkpt lat="42.7170806" lon="12.7256189"><ele>395.0</ele><time>2026-04-25T14:08:21.448Z</time></trkpt><trkpt lat="42.7169732" lon="12.7254903"><ele>395.0</ele><time>2026-04-25T14:08:22.448Z</time></trkpt><trkpt lat="42.716866" lon="12.7253603"><ele>395.0</ele><time>2026-04-25T14:08:23.448Z</time></trkpt><trkpt lat="42.71676" lon="12.7252292"><ele>395.0</ele><time>2026-04-25T14:08:24.448Z</time></trkpt><trkpt lat="42.7166545" lon="12.7250914"><ele>395.0</ele><time>2026-04-25T14:08:25.448Z</time></trkpt><trkpt lat="42.7165403" lon="12.7249574"><ele>395.0</ele><time>2026-04-25T14:08:26.448Z</time></trkpt><trkpt lat="42.7164284" lon="12.7248141"><ele>395.0</ele><time>2026-04-25T14:08:27.448Z</time></trkpt><trkpt lat="42.7163146" lon="12.7246656"><ele>395.0</ele><time>2026-04-25T14:08:28.449Z</time></trkpt><trkpt lat="42.7161938" lon="12.724513"><ele>395.0</ele><time>2026-04-25T14:08:29.448Z</time></trkpt><trkpt lat="42.7160666" lon="12.724361"><ele>395.0</ele><time>2026-04-25T14:08:30.448Z</time></trkpt><trkpt lat="42.7159358" lon="12.7242056"><ele>396.0</ele><time>2026-04-25T14:08:31.448Z</time></trkpt><trkpt lat="42.7157975" lon="12.7240463"><ele>397.0</ele><time>2026-04-25T14:08:32.448Z</time></trkpt><trkpt lat="42.7156629" lon="12.7238881"><ele>398.0</ele><time>2026-04-25T14:08:33.448Z</time></trkpt><trkpt lat="42.7155287" lon="12.7237265"><ele>398.0</ele><time>2026-04-25T14:08:34.448Z</time></trkpt><trkpt lat="42.7153962" lon="12.7235671"><ele>398.0</ele><time>2026-04-25T14:08:35.448Z</time></trkpt><trkpt lat="42.7152664" lon="12.7234057"><ele>398.0</ele><time>2026-04-25T14:08:36.448Z</time></trkpt><trkpt lat="42.7151434" lon="12.7232558"><ele>398.66666666666663</ele><time>2026-04-25T14:08:37.449Z</time></trkpt><trkpt lat="42.7150283" lon="12.7231098"><ele>399.33333333333337</ele><time>2026-04-25T14:08:38.448Z</time></trkpt><trkpt lat="42.7149185" lon="12.7229675"><ele>400.0</ele><time>2026-04-25T14:08:39.448Z</time></trkpt><trkpt lat="42.714808" lon="12.7228253"><ele>406.0</ele><time>2026-04-25T14:08:40.448Z</time></trkpt><trkpt lat="42.714696" lon="12.7226829"><ele>412.0</ele><time>2026-04-25T14:08:41.449Z</time></trkpt><trkpt lat="42.7145809" lon="12.7225434"><ele>418.0</ele><time>2026-04-25T14:08:42.448Z</time></trkpt><trkpt lat="42.714466" lon="12.7223996"><ele>417.0</ele><time>2026-04-25T14:08:43.448Z</time></trkpt><trkpt lat="42.7143561" lon="12.7222652"><ele>416.0</ele><time>2026-04-25T14:08:44.448Z</time></trkpt><trkpt lat="42.7142444" lon="12.7221274"><ele>415.0</ele><time>2026-04-25T14:08:45.449Z</time></trkpt><trkpt lat="42.7141356" lon="12.7219924"><ele>414.0</ele><time>2026-04-25T14:08:46.448Z</time></trkpt><trkpt lat="42.7140298" lon="12.7218589"><ele>414.0</ele><time>2026-04-25T14:08:47.448Z</time></trkpt><trkpt lat="42.7139253" lon="12.7217292"><ele>414.0</ele><time>2026-04-25T14:08:48.449Z</time></trkpt><trkpt lat="42.7138181" lon="12.7216"><ele>414.0</ele><time>2026-04-25T14:08:49.448Z</time></trkpt><trkpt lat="42.7137067" lon="12.7214759"><ele>414.0</ele><time>2026-04-25T14:08:50.448Z</time></trkpt><trkpt lat="42.7136037" lon="12.7213433"><ele>412.25</ele><time>2026-04-25T14:08:51.449Z</time></trkpt><trkpt lat="42.7134976" lon="12.7212131"><ele>410.5</ele><time>2026-04-25T14:08:52.448Z</time></trkpt><trkpt lat="42.7133857" lon="12.7210867"><ele>408.75</ele><time>2026-04-25T14:08:53.448Z</time></trkpt><trkpt lat="42.713269" lon="12.7209461"><ele>407.0</ele><time>2026-04-25T14:08:54.448Z</time></trkpt><trkpt lat="42.713155" lon="12.7208147"><ele>407.0</ele><time>2026-04-25T14:08:55.448Z</time></trkpt><trkpt lat="42.7130291" lon="12.7206798"><ele>407.0</ele><time>2026-04-25T14:08:56.448Z</time></trkpt><trkpt lat="42.7128986" lon="12.7205471"><ele>407.0</ele><time>2026-04-25T14:08:57.449Z</time></trkpt><trkpt lat="42.7127637" lon="12.7204178"><ele>406.3333333333333</ele><time>2026-04-25T14:08:58.448Z</time></trkpt><trkpt lat="42.7126206" lon="12.7202886"><ele>405.66666666666663</ele><time>2026-04-25T14:08:59.448Z</time></trkpt><trkpt lat="42.7124774" lon="12.7201758"><ele>405.0</ele><time>2026-04-25T14:09:00.449Z</time></trkpt><trkpt lat="42.7123287" lon="12.720074"><ele>405.33333333333337</ele><time>2026-04-25T14:09:01.448Z</time></trkpt><trkpt lat="42.7121739" lon="12.7199739"><ele>405.6666666666667</ele><time>2026-04-25T14:09:02.448Z</time></trkpt><trkpt lat="42.7120124" lon="12.7198939"><ele>406.0</ele><time>2026-04-25T14:09:03.448Z</time></trkpt><trkpt lat="42.711847" lon="12.7198161"><ele>406.0</ele><time>2026-04-25T14:09:04.448Z</time></trkpt><trkpt lat="42.7116802" lon="12.7197501"><ele>406.0</ele><time>2026-04-25T14:09:05.448Z</time></trkpt><trkpt lat="42.7115131" lon="12.7196968"><ele>406.0</ele><time>2026-04-25T14:09:06.448Z</time></trkpt><trkpt lat="42.7113435" lon="12.7196478"><ele>406.0</ele><time>2026-04-25T14:09:07.448Z</time></trkpt><trkpt lat="42.7111724" lon="12.7196102"><ele>406.0</ele><time>2026-04-25T14:09:08.449Z</time></trkpt><trkpt lat="42.7110089" lon="12.7195745"><ele>406.0</ele><time>2026-04-25T14:09:09.449Z</time></trkpt><trkpt lat="42.7108416" lon="12.7195352"><ele>406.0</ele><time>2026-04-25T14:09:10.448Z</time></trkpt><trkpt lat="42.7106735" lon="12.7194954"><ele>406.0</ele><time>2026-04-25T14:09:11.448Z</time></trkpt><trkpt lat="42.7105072" lon="12.7194592"><ele>406.0</ele><time>2026-04-25T14:09:12.448Z</time></trkpt><trkpt lat="42.7103408" lon="12.7194261"><ele>407.0</ele><time>2026-04-25T14:09:13.448Z</time></trkpt><trkpt lat="42.7101725" lon="12.7193978"><ele>408.0</ele><time>2026-04-25T14:09:14.448Z</time></trkpt><trkpt lat="42.7100054" lon="12.7193565"><ele>409.0</ele><time>2026-04-25T14:09:15.449Z</time></trkpt><trkpt lat="42.7098469" lon="12.719314"><ele>409.0</ele><time>2026-04-25T14:09:16.448Z</time></trkpt><trkpt lat="42.7096867" lon="12.7192734"><ele>409.0</ele><time>2026-04-25T14:09:17.448Z</time></trkpt><trkpt lat="42.7095284" lon="12.7192375"><ele>409.0</ele><time>2026-04-25T14:09:18.449Z</time></trkpt><trkpt lat="42.7093686" lon="12.7192068"><ele>409.6666666666667</ele><time>2026-04-25T14:09:19.449Z</time></trkpt><trkpt lat="42.7092135" lon="12.719176"><ele>410.33333333333337</ele><time>2026-04-25T14:09:20.448Z</time></trkpt><trkpt lat="42.7090637" lon="12.7191545"><ele>411.0</ele><time>2026-04-25T14:09:21.448Z</time></trkpt><trkpt lat="42.7089173" lon="12.7191464"><ele>411.0</ele><time>2026-04-25T14:09:22.449Z</time></trkpt><trkpt lat="42.7087689" lon="12.7191383"><ele>411.0</ele><time>2026-04-25T14:09:23.448Z</time></trkpt><trkpt lat="42.7086186" lon="12.7191466"><ele>411.0</ele><time>2026-04-25T14:09:24.448Z</time></trkpt><trkpt lat="42.7084665" lon="12.7191552"><ele>412.0</ele><time>2026-04-25T14:09:25.448Z</time></trkpt><trkpt lat="42.7083175" lon="12.7191713"><ele>413.0</ele><time>2026-04-25T14:09:26.448Z</time></trkpt><trkpt lat="42.7081677" lon="12.7191994"><ele>414.0</ele><time>2026-04-25T14:09:27.448Z</time></trkpt><trkpt lat="42.7080147" lon="12.7192312"><ele>414.0</ele><time>2026-04-25T14:09:28.449Z</time></trkpt><trkpt lat="42.7078602" lon="12.7192757"><ele>414.0</ele><time>2026-04-25T14:09:29.448Z</time></trkpt><trkpt lat="42.7077089" lon="12.7193263"><ele>414.0</ele><time>2026-04-25T14:09:30.449Z</time></trkpt><trkpt lat="42.707553" lon="12.719391"><ele>413.33333333333337</ele><time>2026-04-25T14:09:31.448Z</time></trkpt><trkpt lat="42.7073973" lon="12.7194679"><ele>412.6666666666667</ele><time>2026-04-25T14:09:32.449Z</time></trkpt><trkpt lat="42.7072319" lon="12.7195609"><ele>412.0</ele><time>2026-04-25T14:09:33.448Z</time></trkpt><trkpt lat="42.707063" lon="12.7196505"><ele>413.33333333333337</ele><time>2026-04-25T14:09:34.448Z</time></trkpt><trkpt lat="42.7068891" lon="12.7197574"><ele>414.66666666666663</ele><time>2026-04-25T14:09:35.449Z</time></trkpt><trkpt lat="42.7067126" lon="12.7198676"><ele>416.0</ele><time>2026-04-25T14:09:36.448Z</time></trkpt><trkpt lat="42.7065304" lon="12.7199789"><ele>416.0</ele><time>2026-04-25T14:09:37.448Z</time></trkpt><trkpt lat="42.7063419" lon="12.7200966"><ele>416.0</ele><time>2026-04-25T14:09:38.449Z</time></trkpt><trkpt lat="42.7061561" lon="12.7202204"><ele>416.0</ele><time>2026-04-25T14:09:39.448Z</time></trkpt><trkpt lat="42.7059767" lon="12.720325"><ele>416.66666666666663</ele><time>2026-04-25T14:09:40.448Z</time></trkpt><trkpt lat="42.7057994" lon="12.72043"><ele>417.33333333333337</ele><time>2026-04-25T14:09:41.448Z</time></trkpt><trkpt lat="42.7056221" lon="12.7205406"><ele>418.0</ele><time>2026-04-25T14:09:42.448Z</time></trkpt><trkpt lat="42.7054468" lon="12.7206582"><ele>418.0</ele><time>2026-04-25T14:09:43.448Z</time></trkpt><trkpt lat="42.7052662" lon="12.7207792"><ele>418.0</ele><time>2026-04-25T14:09:44.448Z</time></trkpt><trkpt lat="42.7050832" lon="12.7208969"><ele>418.0</ele><time>2026-04-25T14:09:45.448Z</time></trkpt><trkpt lat="42.7048965" lon="12.7210165"><ele>418.6666666666667</ele><time>2026-04-25T14:09:46.448Z</time></trkpt><trkpt lat="42.7047075" lon="12.7211417"><ele>419.33333333333337</ele><time>2026-04-25T14:09:47.449Z</time></trkpt><trkpt lat="42.7045168" lon="12.7212639"><ele>420.0</ele><time>2026-04-25T14:09:48.449Z</time></trkpt><trkpt lat="42.7043196" lon="12.7213884"><ele>421.33333333333337</ele><time>2026-04-25T14:09:49.448Z</time></trkpt><trkpt lat="42.7041215" lon="12.721508"><ele>422.6666666666667</ele><time>2026-04-25T14:09:50.449Z</time></trkpt><trkpt lat="42.7039243" lon="12.7216243"><ele>424.0</ele><time>2026-04-25T14:09:51.448Z</time></trkpt><trkpt lat="42.7037292" lon="12.7217335"><ele>425.0</ele><time>2026-04-25T14:09:52.448Z</time></trkpt><trkpt lat="42.7035335" lon="12.7218493"><ele>426.0</ele><time>2026-04-25T14:09:53.448Z</time></trkpt><trkpt lat="42.7033422" lon="12.7219636"><ele>427.0</ele><time>2026-04-25T14:09:54.448Z</time></trkpt><trkpt lat="42.70315" lon="12.7220754"><ele>427.0</ele><time>2026-04-25T14:09:55.449Z</time></trkpt><trkpt lat="42.7029597" lon="12.7221858"><ele>427.0</ele><time>2026-04-25T14:09:56.448Z</time></trkpt><trkpt lat="42.7027699" lon="12.7222973"><ele>427.0</ele><time>2026-04-25T14:09:57.448Z</time></trkpt><trkpt lat="42.7025849" lon="12.7224141"><ele>428.33333333333337</ele><time>2026-04-25T14:09:58.449Z</time></trkpt><trkpt lat="42.7023975" lon="12.7225321"><ele>429.66666666666663</ele><time>2026-04-25T14:09:59.448Z</time></trkpt><trkpt lat="42.7022192" lon="12.7226442"><ele>431.0</ele><time>2026-04-25T14:10:00.448Z</time></trkpt><trkpt lat="42.7020543" lon="12.722739"><ele>430.66666666666663</ele><time>2026-04-25T14:10:01.448Z</time></trkpt><trkpt lat="42.7018931" lon="12.722824"><ele>430.33333333333337</ele><time>2026-04-25T14:10:02.448Z</time></trkpt><trkpt lat="42.70174" lon="12.7229039"><ele>430.0</ele><time>2026-04-25T14:10:03.448Z</time></trkpt><trkpt lat="42.70159" lon="12.7229825"><ele>430.0</ele><time>2026-04-25T14:10:04.448Z</time></trkpt><trkpt lat="42.7014337" lon="12.7230521"><ele>430.0</ele><time>2026-04-25T14:10:05.449Z</time></trkpt><trkpt lat="42.7012756" lon="12.723119"><ele>430.0</ele><time>2026-04-25T14:10:06.448Z</time></trkpt><trkpt lat="42.7011178" lon="12.723156"><ele>432.6666666666667</ele><time>2026-04-25T14:10:07.448Z</time></trkpt><trkpt lat="42.700946" lon="12.7231909"><ele>435.33333333333337</ele><time>2026-04-25T14:10:08.448Z</time></trkpt><trkpt lat="42.7007669" lon="12.7232263"><ele>438.0</ele><time>2026-04-25T14:10:09.448Z</time></trkpt><trkpt lat="42.700581" lon="12.7232409"><ele>438.0</ele><time>2026-04-25T14:10:10.448Z</time></trkpt><trkpt lat="42.7004015" lon="12.723231"><ele>438.0</ele><time>2026-04-25T14:10:11.448Z</time></trkpt><trkpt lat="42.7002221" lon="12.7232018"><ele>438.0</ele><time>2026-04-25T14:10:12.448Z</time></trkpt><trkpt lat="42.7000378" lon="12.7231636"><ele>438.66666666666663</ele><time>2026-04-25T14:10:13.448Z</time></trkpt><trkpt lat="42.6998488" lon="12.7231123"><ele>439.3333333333333</ele><time>2026-04-25T14:10:14.448Z</time></trkpt><trkpt lat="42.6996593" lon="12.7230447"><ele>440.0</ele><time>2026-04-25T14:10:15.448Z</time></trkpt><trkpt lat="42.6994623" lon="12.7229745"><ele>438.66666666666663</ele><time>2026-04-25T14:10:16.448Z</time></trkpt><trkpt lat="42.699261" lon="12.7229077"><ele>437.33333333333337</ele><time>2026-04-25T14:10:17.448Z</time></trkpt><trkpt lat="42.6990573" lon="12.7228258"><ele>436.0</ele><time>2026-04-25T14:10:18.448Z</time></trkpt><trkpt lat="42.6988491" lon="12.7227482"><ele>440.0</ele><time>2026-04-25T14:10:19.448Z</time></trkpt><trkpt lat="42.6986445" lon="12.7226638"><ele>444.0</ele><time>2026-04-25T14:10:20.448Z</time></trkpt><trkpt lat="42.6984378" lon="12.7225853"><ele>448.0</ele><time>2026-04-25T14:10:21.448Z</time></trkpt><trkpt lat="42.6982334" lon="12.7225077"><ele>448.0</ele><time>2026-04-25T14:10:22.448Z</time></trkpt><trkpt lat="42.698027" lon="12.7224276"><ele>448.0</ele><time>2026-04-25T14:10:23.448Z</time></trkpt><trkpt lat="42.6978262" lon="12.7223561"><ele>448.0</ele><time>2026-04-25T14:10:24.448Z</time></trkpt><trkpt lat="42.6976213" lon="12.7223002"><ele>448.6666666666667</ele><time>2026-04-25T14:10:25.448Z</time></trkpt><trkpt lat="42.697418" lon="12.7222558"><ele>449.33333333333337</ele><time>2026-04-25T14:10:26.448Z</time></trkpt><trkpt lat="42.6972168" lon="12.7222175"><ele>450.0</ele><time>2026-04-25T14:10:27.448Z</time></trkpt><trkpt lat="42.6970117" lon="12.7221975"><ele>449.33333333333337</ele><time>2026-04-25T14:10:28.448Z</time></trkpt><trkpt lat="42.6968083" lon="12.7221546"><ele>448.6666666666667</ele><time>2026-04-25T14:10:29.448Z</time></trkpt><trkpt lat="42.6966042" lon="12.7221093"><ele>448.0</ele><time>2026-04-25T14:10:30.448Z</time></trkpt><trkpt lat="42.6964008" lon="12.7220829"><ele>448.0</ele><time>2026-04-25T14:10:31.448Z</time></trkpt><trkpt lat="42.696202" lon="12.7220516"><ele>448.0</ele><time>2026-04-25T14:10:32.448Z</time></trkpt><trkpt lat="42.696004" lon="12.7220182"><ele>448.0</ele><time>2026-04-25T14:10:33.448Z</time></trkpt><trkpt lat="42.6958023" lon="12.7219868"><ele>448.6666666666667</ele><time>2026-04-25T14:10:34.449Z</time></trkpt><trkpt lat="42.6956035" lon="12.7219569"><ele>449.33333333333337</ele><time>2026-04-25T14:10:35.448Z</time></trkpt><trkpt lat="42.6954055" lon="12.7219296"><ele>450.0</ele><time>2026-04-25T14:10:36.448Z</time></trkpt><trkpt lat="42.6952097" lon="12.7218945"><ele>452.33333333333337</ele><time>2026-04-25T14:10:37.449Z</time></trkpt><trkpt lat="42.6950157" lon="12.7218636"><ele>454.6666666666667</ele><time>2026-04-25T14:10:38.448Z</time></trkpt><trkpt lat="42.6948147" lon="12.7218282"><ele>457.0</ele><time>2026-04-25T14:10:39.448Z</time></trkpt><trkpt lat="42.6946184" lon="12.7217777"><ele>457.0</ele><time>2026-04-25T14:10:40.448Z</time></trkpt><trkpt lat="42.6944243" lon="12.7217323"><ele>457.0</ele><time>2026-04-25T14:10:41.448Z</time></trkpt><trkpt lat="42.6942262" lon="12.7217004"><ele>457.0</ele><time>2026-04-25T14:10:42.448Z</time></trkpt><trkpt lat="42.6940243" lon="12.7216713"><ele>460.0</ele><time>2026-04-25T14:10:43.448Z</time></trkpt><trkpt lat="42.6938201" lon="12.7216273"><ele>463.0</ele><time>2026-04-25T14:10:44.448Z</time></trkpt><trkpt lat="42.6936243" lon="12.7215925"><ele>466.0</ele><time>2026-04-25T14:10:45.448Z</time></trkpt><trkpt lat="42.6934251" lon="12.7215627"><ele>470.0</ele><time>2026-04-25T14:10:46.448Z</time></trkpt><trkpt lat="42.6932217" lon="12.7215359"><ele>474.0</ele><time>2026-04-25T14:10:47.448Z</time></trkpt><trkpt lat="42.693016" lon="12.7215137"><ele>478.0</ele><time>2026-04-25T14:10:48.448Z</time></trkpt><trkpt lat="42.6928136" lon="12.7214881"><ele>478.0</ele><time>2026-04-25T14:10:49.448Z</time></trkpt><trkpt lat="42.6926107" lon="12.7214584"><ele>478.0</ele><time>2026-04-25T14:10:50.448Z</time></trkpt><trkpt lat="42.6924034" lon="12.7214238"><ele>478.0</ele><time>2026-04-25T14:10:51.448Z</time></trkpt><trkpt lat="42.6921942" lon="12.7213895"><ele>478.0</ele><time>2026-04-25T14:10:52.449Z</time></trkpt><trkpt lat="42.6919855" lon="12.7213601"><ele>478.0</ele><time>2026-04-25T14:10:53.449Z</time></trkpt><trkpt lat="42.6917752" lon="12.721348"><ele>478.0</ele><time>2026-04-25T14:10:54.449Z</time></trkpt><trkpt lat="42.6915668" lon="12.7213564"><ele>479.6666666666667</ele><time>2026-04-25T14:10:55.448Z</time></trkpt><trkpt lat="42.6913541" lon="12.7214179"><ele>481.33333333333337</ele><time>2026-04-25T14:10:56.448Z</time></trkpt><trkpt lat="42.6911426" lon="12.7214772"><ele>483.0</ele><time>2026-04-25T14:10:57.448Z</time></trkpt><trkpt lat="42.6909336" lon="12.7215429"><ele>486.0</ele><time>2026-04-25T14:10:58.448Z</time></trkpt><trkpt lat="42.6907234" lon="12.7216194"><ele>489.0</ele><time>2026-04-25T14:10:59.448Z</time></trkpt><trkpt lat="42.690519" lon="12.7216886"><ele>492.0</ele><time>2026-04-25T14:11:00.448Z</time></trkpt><trkpt lat="42.6903229" lon="12.7217592"><ele>486.66666666666663</ele><time>2026-04-25T14:11:01.448Z</time></trkpt><trkpt lat="42.6901334" lon="12.7218325"><ele>481.3333333333333</ele><time>2026-04-25T14:11:02.448Z</time></trkpt><trkpt lat="42.6899532" lon="12.7219203"><ele>476.0</ele><time>2026-04-25T14:11:03.448Z</time></trkpt><trkpt lat="42.6897853" lon="12.7220281"><ele>476.0</ele><time>2026-04-25T14:11:04.448Z</time></trkpt><trkpt lat="42.6896339" lon="12.7221597"><ele>476.0</ele><time>2026-04-25T14:11:05.448Z</time></trkpt><trkpt lat="42.6894925" lon="12.7223096"><ele>476.0</ele><time>2026-04-25T14:11:06.448Z</time></trkpt><trkpt lat="42.6893627" lon="12.7224865"><ele>479.3333333333333</ele><time>2026-04-25T14:11:07.448Z</time></trkpt><trkpt lat="42.689244" lon="12.7226785"><ele>482.66666666666663</ele><time>2026-04-25T14:11:08.448Z</time></trkpt><trkpt lat="42.6891202" lon="12.7228756"><ele>486.0</ele><time>2026-04-25T14:11:09.448Z</time></trkpt><trkpt lat="42.6889946" lon="12.7230662"><ele>486.0</ele><time>2026-04-25T14:11:10.448Z</time></trkpt><trkpt lat="42.6888695" lon="12.7232693"><ele>486.0</ele><time>2026-04-25T14:11:11.448Z</time></trkpt><trkpt lat="42.6887491" lon="12.7234759"><ele>486.0</ele><time>2026-04-25T14:11:12.448Z</time></trkpt><trkpt lat="42.688626" lon="12.7236812"><ele>491.33333333333337</ele><time>2026-04-25T14:11:13.448Z</time></trkpt><trkpt lat="42.6885087" lon="12.7238883"><ele>496.6666666666667</ele><time>2026-04-25T14:11:14.448Z</time></trkpt><trkpt lat="42.6883828" lon="12.7241004"><ele>502.0</ele><time>2026-04-25T14:11:15.448Z</time></trkpt><trkpt lat="42.6882546" lon="12.7243029"><ele>503.33333333333337</ele><time>2026-04-25T14:11:16.448Z</time></trkpt><trkpt lat="42.6881044" lon="12.7244731"><ele>504.66666666666663</ele><time>2026-04-25T14:11:17.448Z</time></trkpt><trkpt lat="42.6879353" lon="12.7246255"><ele>506.0</ele><time>2026-04-25T14:11:18.448Z</time></trkpt><trkpt lat="42.6877497" lon="12.7247458"><ele>506.0</ele><time>2026-04-25T14:11:19.448Z</time></trkpt><trkpt lat="42.6875548" lon="12.7248393"><ele>506.0</ele><time>2026-04-25T14:11:20.449Z</time></trkpt><trkpt lat="42.687358" lon="12.7249167"><ele>506.0</ele><time>2026-04-25T14:11:21.449Z</time></trkpt><trkpt lat="42.6871632" lon="12.7249783"><ele>506.0</ele><time>2026-04-25T14:11:22.448Z</time></trkpt><trkpt lat="42.6869633" lon="12.7250529"><ele>506.0</ele><time>2026-04-25T14:11:23.448Z</time></trkpt><trkpt lat="42.6867612" lon="12.7251232"><ele>506.0</ele><time>2026-04-25T14:11:24.448Z</time></trkpt><trkpt lat="42.6865599" lon="12.725196"><ele>499.0</ele><time>2026-04-25T14:11:25.448Z</time></trkpt><trkpt lat="42.6863581" lon="12.725275"><ele>492.0</ele><time>2026-04-25T14:11:26.448Z</time></trkpt><trkpt lat="42.6861523" lon="12.7253488"><ele>485.0</ele><time>2026-04-25T14:11:27.448Z</time></trkpt><trkpt lat="42.6859462" lon="12.725444"><ele>485.0</ele><time>2026-04-25T14:11:28.448Z</time></trkpt><trkpt lat="42.6857445" lon="12.7255267"><ele>485.0</ele><time>2026-04-25T14:11:29.448Z</time></trkpt><trkpt lat="42.685546" lon="12.7256195"><ele>485.0</ele><time>2026-04-25T14:11:30.448Z</time></trkpt><trkpt lat="42.6853531" lon="12.7257291"><ele>486.3333333333333</ele><time>2026-04-25T14:11:31.448Z</time></trkpt><trkpt lat="42.6851614" lon="12.7258526"><ele>487.66666666666663</ele><time>2026-04-25T14:11:32.448Z</time></trkpt><trkpt lat="42.6849763" lon="12.7259792"><ele>489.0</ele><time>2026-04-25T14:11:33.449Z</time></trkpt><trkpt lat="42.6847899" lon="12.726112"><ele>489.0</ele><time>2026-04-25T14:11:34.448Z</time></trkpt><trkpt lat="42.6846031" lon="12.7262415"><ele>489.0</ele><time>2026-04-25T14:11:35.448Z</time></trkpt><trkpt lat="42.6844173" lon="12.7263626"><ele>489.0</ele><time>2026-04-25T14:11:36.448Z</time></trkpt><trkpt lat="42.6842301" lon="12.7264836"><ele>496.33333333333337</ele><time>2026-04-25T14:11:37.448Z</time></trkpt><trkpt lat="42.6840419" lon="12.7266048"><ele>503.6666666666667</ele><time>2026-04-25T14:11:38.448Z</time></trkpt><trkpt lat="42.683856" lon="12.7267147"><ele>511.0</ele><time>2026-04-25T14:11:39.448Z</time></trkpt><trkpt lat="42.6836661" lon="12.7268164"><ele>509.6666666666667</ele><time>2026-04-25T14:11:40.448Z</time></trkpt><trkpt lat="42.6834687" lon="12.7268869"><ele>508.33333333333337</ele><time>2026-04-25T14:11:41.448Z</time></trkpt><trkpt lat="42.683266" lon="12.7269312"><ele>507.0</ele><time>2026-04-25T14:11:42.448Z</time></trkpt><trkpt lat="42.683061" lon="12.7269543"><ele>507.0</ele><time>2026-04-25T14:11:43.448Z</time></trkpt><trkpt lat="42.6828509" lon="12.7269616"><ele>507.0</ele><time>2026-04-25T14:11:44.449Z</time></trkpt><trkpt lat="42.6826454" lon="12.726971"><ele>507.0</ele><time>2026-04-25T14:11:45.448Z</time></trkpt><trkpt lat="42.6824376" lon="12.7269776"><ele>509.33333333333337</ele><time>2026-04-25T14:11:46.448Z</time></trkpt><trkpt lat="42.682227" lon="12.7269782"><ele>511.6666666666667</ele><time>2026-04-25T14:11:47.448Z</time></trkpt><trkpt lat="42.6820192" lon="12.7269779"><ele>514.0</ele><time>2026-04-25T14:11:48.448Z</time></trkpt><trkpt lat="42.6818108" lon="12.7269791"><ele>515.0</ele><time>2026-04-25T14:11:49.449Z</time></trkpt><trkpt lat="42.681602" lon="12.7269762"><ele>516.0</ele><time>2026-04-25T14:11:50.448Z</time></trkpt><trkpt lat="42.6813882" lon="12.7269433"><ele>517.0</ele><time>2026-04-25T14:11:51.448Z</time></trkpt><trkpt lat="42.6811828" lon="12.7268985"><ele>524.3333333333334</ele><time>2026-04-25T14:11:52.449Z</time></trkpt><trkpt lat="42.6809821" lon="12.7268235"><ele>531.6666666666666</ele><time>2026-04-25T14:11:53.448Z</time></trkpt><trkpt lat="42.6807827" lon="12.7267255"><ele>539.0</ele><time>2026-04-25T14:11:54.448Z</time></trkpt><trkpt lat="42.6805864" lon="12.7266257"><ele>539.0</ele><time>2026-04-25T14:11:55.448Z</time></trkpt><trkpt lat="42.6803903" lon="12.7265156"><ele>539.0</ele><time>2026-04-25T14:11:56.448Z</time></trkpt><trkpt lat="42.6801941" lon="12.7264078"><ele>539.0</ele><time>2026-04-25T14:11:57.448Z</time></trkpt><trkpt lat="42.6799935" lon="12.7263015"><ele>537.0</ele><time>2026-04-25T14:11:58.448Z</time></trkpt><trkpt lat="42.6797893" lon="12.7261979"><ele>535.0</ele><time>2026-04-25T14:11:59.449Z</time></trkpt><trkpt lat="42.6795836" lon="12.7260918"><ele>533.0</ele><time>2026-04-25T14:12:00.448Z</time></trkpt><trkpt lat="42.6793784" lon="12.7259891"><ele>540.6666666666666</ele><time>2026-04-25T14:12:01.448Z</time></trkpt><trkpt lat="42.679173" lon="12.7259101"><ele>548.3333333333334</ele><time>2026-04-25T14:12:02.448Z</time></trkpt><trkpt lat="42.6789594" lon="12.7258518"><ele>556.0</ele><time>2026-04-25T14:12:03.448Z</time></trkpt><trkpt lat="42.678744" lon="12.7257939"><ele>553.6666666666667</ele><time>2026-04-25T14:12:04.448Z</time></trkpt><trkpt lat="42.6785281" lon="12.7257381"><ele>551.3333333333334</ele><time>2026-04-25T14:12:05.448Z</time></trkpt><trkpt lat="42.678311" lon="12.7256921"><ele>549.0</ele><time>2026-04-25T14:12:06.448Z</time></trkpt><trkpt lat="42.6780907" lon="12.725642"><ele>549.0</ele><time>2026-04-25T14:12:07.448Z</time></trkpt><trkpt lat="42.6778737" lon="12.7255974"><ele>549.0</ele><time>2026-04-25T14:12:08.448Z</time></trkpt><trkpt lat="42.6776601" lon="12.7255522"><ele>549.0</ele><time>2026-04-25T14:12:09.448Z</time></trkpt><trkpt lat="42.6774486" lon="12.7254975"><ele>548.3333333333334</ele><time>2026-04-25T14:12:10.448Z</time></trkpt><trkpt lat="42.677237" lon="12.725451"><ele>547.6666666666667</ele><time>2026-04-25T14:12:11.448Z</time></trkpt><trkpt lat="42.6770268" lon="12.7254172"><ele>547.0</ele><time>2026-04-25T14:12:12.449Z</time></trkpt><trkpt lat="42.6768238" lon="12.7253934"><ele>546.3333333333334</ele><time>2026-04-25T14:12:13.448Z</time></trkpt><trkpt lat="42.6766183" lon="12.7253945"><ele>545.6666666666666</ele><time>2026-04-25T14:12:14.448Z</time></trkpt><trkpt lat="42.6764113" lon="12.7254243"><ele>545.0</ele><time>2026-04-25T14:12:15.448Z</time></trkpt><trkpt lat="42.6762067" lon="12.725481"><ele>548.0</ele><time>2026-04-25T14:12:16.448Z</time></trkpt><trkpt lat="42.6760059" lon="12.7255501"><ele>551.0</ele><time>2026-04-25T14:12:17.449Z</time></trkpt><trkpt lat="42.6758042" lon="12.7256496"><ele>554.0</ele><time>2026-04-25T14:12:18.448Z</time></trkpt><trkpt lat="42.6756043" lon="12.7257513"><ele>554.0</ele><time>2026-04-25T14:12:19.448Z</time></trkpt><trkpt lat="42.6754053" lon="12.7258642"><ele>554.0</ele><time>2026-04-25T14:12:20.448Z</time></trkpt><trkpt lat="42.6752052" lon="12.725975"><ele>554.0</ele><time>2026-04-25T14:12:21.448Z</time></trkpt><trkpt lat="42.675002" lon="12.7260845"><ele>561.6666666666666</ele><time>2026-04-25T14:12:22.448Z</time></trkpt><trkpt lat="42.674798" lon="12.7261934"><ele>569.3333333333334</ele><time>2026-04-25T14:12:23.449Z</time></trkpt><trkpt lat="42.6745962" lon="12.7262973"><ele>577.0</ele><time>2026-04-25T14:12:24.448Z</time></trkpt><trkpt lat="42.6743947" lon="12.7264052"><ele>577.0</ele><time>2026-04-25T14:12:25.448Z</time></trkpt><trkpt lat="42.6741984" lon="12.7265189"><ele>577.0</ele><time>2026-04-25T14:12:26.448Z</time></trkpt><trkpt lat="42.6739981" lon="12.726627"><ele>577.0</ele><time>2026-04-25T14:12:27.448Z</time></trkpt><trkpt lat="42.673798" lon="12.7267359"><ele>580.0</ele><time>2026-04-25T14:12:28.448Z</time></trkpt><trkpt lat="42.6735997" lon="12.7268398"><ele>583.0</ele><time>2026-04-25T14:12:29.448Z</time></trkpt><trkpt lat="42.6734072" lon="12.7269529"><ele>586.0</ele><time>2026-04-25T14:12:30.449Z</time></trkpt><trkpt lat="42.6732193" lon="12.7270786"><ele>586.0</ele><time>2026-04-25T14:12:31.449Z</time></trkpt><trkpt lat="42.673041" lon="12.7272261"><ele>586.0</ele><time>2026-04-25T14:12:32.448Z</time></trkpt><trkpt lat="42.6728833" lon="12.7274235"><ele>586.0</ele><time>2026-04-25T14:12:33.448Z</time></trkpt><trkpt lat="42.6727307" lon="12.7276291"><ele>584.6666666666667</ele><time>2026-04-25T14:12:34.448Z</time></trkpt><trkpt lat="42.6725815" lon="12.7278279"><ele>583.3333333333334</ele><time>2026-04-25T14:12:35.448Z</time></trkpt><trkpt lat="42.6724441" lon="12.7280183"><ele>582.0</ele><time>2026-04-25T14:12:36.448Z</time></trkpt><trkpt lat="42.6723012" lon="12.7281928"><ele>582.0</ele><time>2026-04-25T14:12:37.448Z</time></trkpt><trkpt lat="42.6721473" lon="12.7283469"><ele>582.0</ele><time>2026-04-25T14:12:38.448Z</time></trkpt><trkpt lat="42.6719853" lon="12.7284827"><ele>582.0</ele><time>2026-04-25T14:12:39.448Z</time></trkpt><trkpt lat="42.6718145" lon="12.7285857"><ele>583.3333333333334</ele><time>2026-04-25T14:12:40.449Z</time></trkpt><trkpt lat="42.6716368" lon="12.7286505"><ele>584.6666666666667</ele><time>2026-04-25T14:12:41.448Z</time></trkpt><trkpt lat="42.6714585" lon="12.7286851"><ele>586.0</ele><time>2026-04-25T14:12:42.448Z</time></trkpt><trkpt lat="42.6712675" lon="12.7287021"><ele>591.3333333333334</ele><time>2026-04-25T14:12:43.449Z</time></trkpt><trkpt lat="42.6710853" lon="12.7287249"><ele>596.6666666666666</ele><time>2026-04-25T14:12:44.448Z</time></trkpt><trkpt lat="42.6708997" lon="12.7287595"><ele>602.0</ele><time>2026-04-25T14:12:45.448Z</time></trkpt><trkpt lat="42.6707205" lon="12.7288492"><ele>602.0</ele><time>2026-04-25T14:12:46.449Z</time></trkpt><trkpt lat="42.670546" lon="12.7289571"><ele>602.0</ele><time>2026-04-25T14:12:47.448Z</time></trkpt><trkpt lat="42.6703774" lon="12.7290915"><ele>602.0</ele><time>2026-04-25T14:12:48.448Z</time></trkpt><trkpt lat="42.6702241" lon="12.7292438"><ele>603.3333333333333</ele><time>2026-04-25T14:12:49.449Z</time></trkpt><trkpt lat="42.6700922" lon="12.7294513"><ele>604.6666666666666</ele><time>2026-04-25T14:12:50.448Z</time></trkpt><trkpt lat="42.6699613" lon="12.7296506"><ele>606.0</ele><time>2026-04-25T14:12:51.448Z</time></trkpt><trkpt lat="42.6698553" lon="12.7298833"><ele>606.0</ele><time>2026-04-25T14:12:52.449Z</time></trkpt><trkpt lat="42.6697948" lon="12.7301429"><ele>606.0</ele><time>2026-04-25T14:12:53.448Z</time></trkpt><trkpt lat="42.6697143" lon="12.7303996"><ele>606.0</ele><time>2026-04-25T14:12:54.448Z</time></trkpt><trkpt lat="42.6696344" lon="12.7306525"><ele>607.0</ele><time>2026-04-25T14:12:55.448Z</time></trkpt><trkpt lat="42.6695557" lon="12.7308999"><ele>608.0</ele><time>2026-04-25T14:12:56.448Z</time></trkpt><trkpt lat="42.6694775" lon="12.7311521"><ele>609.0</ele><time>2026-04-25T14:12:57.448Z</time></trkpt><trkpt lat="42.669407" lon="12.7314018"><ele>609.0</ele><time>2026-04-25T14:12:58.448Z</time></trkpt><trkpt lat="42.6693347" lon="12.7316558"><ele>609.0</ele><time>2026-04-25T14:12:59.448Z</time></trkpt><trkpt lat="42.6692571" lon="12.7319004"><ele>609.0</ele><time>2026-04-25T14:13:00.448Z</time></trkpt><trkpt lat="42.6691859" lon="12.7321446"><ele>611.3333333333334</ele><time>2026-04-25T14:13:01.448Z</time></trkpt><trkpt lat="42.6691133" lon="12.7323804"><ele>613.6666666666667</ele><time>2026-04-25T14:13:02.448Z</time></trkpt><trkpt lat="42.6690361" lon="12.7326123"><ele>616.0</ele><time>2026-04-25T14:13:03.448Z</time></trkpt><trkpt lat="42.6689415" lon="12.7328104"><ele>617.6666666666667</ele><time>2026-04-25T14:13:04.448Z</time></trkpt><trkpt lat="42.6688503" lon="12.7329985"><ele>619.3333333333334</ele><time>2026-04-25T14:13:05.449Z</time></trkpt><trkpt lat="42.6687477" lon="12.7331531"><ele>621.0</ele><time>2026-04-25T14:13:06.448Z</time></trkpt><trkpt lat="42.6686462" lon="12.7333014"><ele>621.5</ele><time>2026-04-25T14:13:07.448Z</time></trkpt><trkpt lat="42.6685521" lon="12.7334358"><ele>622.0</ele><time>2026-04-25T14:13:08.448Z</time></trkpt><trkpt lat="42.6684613" lon="12.7335692"><ele>622.5</ele><time>2026-04-25T14:13:09.448Z</time></trkpt><trkpt lat="42.6683713" lon="12.7336951"><ele>623.0</ele><time>2026-04-25T14:13:10.448Z</time></trkpt><trkpt lat="42.6682805" lon="12.7338173"><ele>623.0</ele><time>2026-04-25T14:13:11.448Z</time></trkpt><trkpt lat="42.6681944" lon="12.7339432"><ele>623.0</ele><time>2026-04-25T14:13:12.448Z</time></trkpt><trkpt lat="42.6681105" lon="12.7340653"><ele>623.0</ele><time>2026-04-25T14:13:13.448Z</time></trkpt><trkpt lat="42.668022" lon="12.734188"><ele>623.0</ele><time>2026-04-25T14:13:14.449Z</time></trkpt><trkpt lat="42.6679355" lon="12.7343169"><ele>624.5</ele><time>2026-04-25T14:13:15.448Z</time></trkpt><trkpt lat="42.6678474" lon="12.7344529"><ele>626.0</ele><time>2026-04-25T14:13:16.449Z</time></trkpt><trkpt lat="42.6677616" lon="12.7345884"><ele>627.5</ele><time>2026-04-25T14:13:17.449Z</time></trkpt><trkpt lat="42.6676679" lon="12.7347307"><ele>629.0</ele><time>2026-04-25T14:13:18.448Z</time></trkpt><trkpt lat="42.6675724" lon="12.734872"><ele>629.0</ele><time>2026-04-25T14:13:19.448Z</time></trkpt><trkpt lat="42.6674709" lon="12.7350106"><ele>629.0</ele><time>2026-04-25T14:13:20.449Z</time></trkpt><trkpt lat="42.6673443" lon="12.7351187"><ele>629.0</ele><time>2026-04-25T14:13:21.449Z</time></trkpt><trkpt lat="42.667217" lon="12.7351932"><ele>629.0</ele><time>2026-04-25T14:13:22.448Z</time></trkpt><trkpt lat="42.6670803" lon="12.7352231"><ele>629.0</ele><time>2026-04-25T14:13:23.448Z</time></trkpt><trkpt lat="42.6669552" lon="12.7352015"><ele>629.0</ele><time>2026-04-25T14:13:24.448Z</time></trkpt><trkpt lat="42.6668354" lon="12.7351653"><ele>629.0</ele><time>2026-04-25T14:13:25.448Z</time></trkpt><trkpt lat="42.6667227" lon="12.7351039"><ele>629.0</ele><time>2026-04-25T14:13:26.448Z</time></trkpt><trkpt lat="42.6666266" lon="12.7349877"><ele>630.0</ele><time>2026-04-25T14:13:27.448Z</time></trkpt><trkpt lat="42.6665476" lon="12.7348473"><ele>631.0</ele><time>2026-04-25T14:13:28.448Z</time></trkpt><trkpt lat="42.6664874" lon="12.7346965"><ele>632.0</ele><time>2026-04-25T14:13:29.448Z</time></trkpt><trkpt lat="42.6664508" lon="12.7345353"><ele>633.0</ele><time>2026-04-25T14:13:30.449Z</time></trkpt><trkpt lat="42.6664466" lon="12.7343708"><ele>633.75</ele><time>2026-04-25T14:13:31.448Z</time></trkpt><trkpt lat="42.6664655" lon="12.7342207"><ele>634.5</ele><time>2026-04-25T14:13:32.448Z</time></trkpt><trkpt lat="42.6665118" lon="12.734065"><ele>635.25</ele><time>2026-04-25T14:13:33.448Z</time></trkpt><trkpt lat="42.6665763" lon="12.733916"><ele>636.0</ele><time>2026-04-25T14:13:34.448Z</time></trkpt><trkpt lat="42.6666725" lon="12.7337824"><ele>636.0</ele><time>2026-04-25T14:13:35.448Z</time></trkpt><trkpt lat="42.6667681" lon="12.7336496"><ele>636.0</ele><time>2026-04-25T14:13:36.449Z</time></trkpt><trkpt lat="42.6668869" lon="12.7335238"><ele>636.0</ele><time>2026-04-25T14:13:37.448Z</time></trkpt><trkpt lat="42.6670038" lon="12.7333772"><ele>636.0</ele><time>2026-04-25T14:13:38.448Z</time></trkpt><trkpt lat="42.66714" lon="12.7332394"><ele>636.3333333333334</ele><time>2026-04-25T14:13:39.448Z</time></trkpt><trkpt lat="42.6672779" lon="12.7330905"><ele>636.6666666666667</ele><time>2026-04-25T14:13:40.448Z</time></trkpt><trkpt lat="42.6674118" lon="12.7329379"><ele>637.0</ele><time>2026-04-25T14:13:41.448Z</time></trkpt><trkpt lat="42.6675398" lon="12.7327854"><ele>633.6666666666667</ele><time>2026-04-25T14:13:42.448Z</time></trkpt><trkpt lat="42.6676546" lon="12.7326237"><ele>630.3333333333334</ele><time>2026-04-25T14:13:43.448Z</time></trkpt><trkpt lat="42.6677585" lon="12.7324481"><ele>627.0</ele><time>2026-04-25T14:13:44.448Z</time></trkpt><trkpt lat="42.6678459" lon="12.7322579"><ele>627.0</ele><time>2026-04-25T14:13:45.448Z</time></trkpt><trkpt lat="42.6679055" lon="12.7320543"><ele>627.0</ele><time>2026-04-25T14:13:46.449Z</time></trkpt><trkpt lat="42.6679323" lon="12.7318372"><ele>627.0</ele><time>2026-04-25T14:13:47.449Z</time></trkpt><trkpt lat="42.667927" lon="12.7316158"><ele>627.6666666666666</ele><time>2026-04-25T14:13:48.449Z</time></trkpt><trkpt lat="42.6679097" lon="12.7313924"><ele>628.3333333333333</ele><time>2026-04-25T14:13:49.448Z</time></trkpt><trkpt lat="42.6678712" lon="12.7311943"><ele>629.0</ele><time>2026-04-25T14:13:50.448Z</time></trkpt><trkpt lat="42.6678334" lon="12.7310002"><ele>630.5</ele><time>2026-04-25T14:13:51.448Z</time></trkpt><trkpt lat="42.6677893" lon="12.7308062"><ele>632.0</ele><time>2026-04-25T14:13:52.448Z</time></trkpt><trkpt lat="42.6677473" lon="12.7306161"><ele>633.5</ele><time>2026-04-25T14:13:53.449Z</time></trkpt><trkpt lat="42.6677007" lon="12.730426"><ele>635.0</ele><time>2026-04-25T14:13:54.448Z</time></trkpt><trkpt lat="42.6676633" lon="12.7302385"><ele>640.25</ele><time>2026-04-25T14:13:55.448Z</time></trkpt><trkpt lat="42.6676237" lon="12.7300571"><ele>645.5</ele><time>2026-04-25T14:13:56.449Z</time></trkpt><trkpt lat="42.6675859" lon="12.7298711"><ele>650.75</ele><time>2026-04-25T14:13:57.448Z</time></trkpt><trkpt lat="42.6675302" lon="12.7296883"><ele>656.0</ele><time>2026-04-25T14:13:58.448Z</time></trkpt><trkpt lat="42.667472" lon="12.7295062"><ele>653.0</ele><time>2026-04-25T14:13:59.448Z</time></trkpt><trkpt lat="42.6673936" lon="12.7293294"><ele>650.0</ele><time>2026-04-25T14:14:00.448Z</time></trkpt><trkpt lat="42.6673006" lon="12.7291636"><ele>647.0</ele><time>2026-04-25T14:14:01.448Z</time></trkpt><trkpt lat="42.6671872" lon="12.7290077"><ele>647.0</ele><time>2026-04-25T14:14:02.448Z</time></trkpt><trkpt lat="42.6670601" lon="12.7288734"><ele>647.0</ele><time>2026-04-25T14:14:03.448Z</time></trkpt><trkpt lat="42.666914" lon="12.7287644"><ele>647.0</ele><time>2026-04-25T14:14:04.448Z</time></trkpt><trkpt lat="42.6667612" lon="12.7286757"><ele>652.6666666666666</ele><time>2026-04-25T14:14:05.448Z</time></trkpt><trkpt lat="42.6666046" lon="12.7286149"><ele>658.3333333333334</ele><time>2026-04-25T14:14:06.448Z</time></trkpt><trkpt lat="42.6664902" lon="12.7285892"><ele>664.0</ele><time>2026-04-25T14:14:07.447Z</time></trkpt><trkpt lat="42.6651324" lon="12.7283936"><ele>664.0</ele><time>2026-04-25T14:14:15.448Z</time></trkpt><trkpt lat="42.6650601" lon="12.7283776"><ele>664.0</ele><time>2026-04-25T14:14:16.448Z</time></trkpt><trkpt lat="42.664958" lon="12.7283623"><ele>664.0</ele><time>2026-04-25T14:14:17.448Z</time></trkpt><trkpt lat="42.6648541" lon="12.7283454"><ele>664.0</ele><time>2026-04-25T14:14:18.448Z</time></trkpt><trkpt lat="42.6647365" lon="12.7283284"><ele>664.0</ele><time>2026-04-25T14:14:19.448Z</time></trkpt><trkpt lat="42.6646119" lon="12.7283109"><ele>664.0</ele><time>2026-04-25T14:14:20.448Z</time></trkpt><trkpt lat="42.6644703" lon="12.72829"><ele>664.0</ele><time>2026-04-25T14:14:21.448Z</time></trkpt><trkpt lat="42.6643214" lon="12.7282636"><ele>664.0</ele><time>2026-04-25T14:14:22.448Z</time></trkpt><trkpt lat="42.664173" lon="12.7282491"><ele>664.0</ele><time>2026-04-25T14:14:23.448Z</time></trkpt><trkpt lat="42.6640285" lon="12.7282323"><ele>659.6666666666667</ele><time>2026-04-25T14:14:24.448Z</time></trkpt><trkpt lat="42.6638761" lon="12.7282384"><ele>655.3333333333334</ele><time>2026-04-25T14:14:25.448Z</time></trkpt><trkpt lat="42.6637206" lon="12.7282704"><ele>651.0</ele><time>2026-04-25T14:14:26.448Z</time></trkpt><trkpt lat="42.6635639" lon="12.7283331"><ele>651.0</ele><time>2026-04-25T14:14:27.449Z</time></trkpt><trkpt lat="42.6634064" lon="12.7284178"><ele>651.0</ele><time>2026-04-25T14:14:28.448Z</time></trkpt><trkpt lat="42.6632418" lon="12.7285115"><ele>651.0</ele><time>2026-04-25T14:14:29.448Z</time></trkpt><trkpt lat="42.6630676" lon="12.7286212"><ele>647.3333333333334</ele><time>2026-04-25T14:14:30.448Z</time></trkpt><trkpt lat="42.662894" lon="12.728735"><ele>643.6666666666667</ele><time>2026-04-25T14:14:31.448Z</time></trkpt><trkpt lat="42.6627217" lon="12.7288492"><ele>640.0</ele><time>2026-04-25T14:14:32.448Z</time></trkpt><trkpt lat="42.662545" lon="12.7289658"><ele>640.0</ele><time>2026-04-25T14:14:33.449Z</time></trkpt><trkpt lat="42.6623682" lon="12.7290875"><ele>640.0</ele><time>2026-04-25T14:14:34.448Z</time></trkpt><trkpt lat="42.6622007" lon="12.7292307"><ele>640.0</ele><time>2026-04-25T14:14:35.448Z</time></trkpt><trkpt lat="42.6620526" lon="12.7293805"><ele>635.6666666666667</ele><time>2026-04-25T14:14:36.448Z</time></trkpt><trkpt lat="42.6619117" lon="12.7295404"><ele>631.3333333333334</ele><time>2026-04-25T14:14:37.448Z</time></trkpt><trkpt lat="42.6617832" lon="12.7297272"><ele>627.0</ele><time>2026-04-25T14:14:38.448Z</time></trkpt><trkpt lat="42.6616569" lon="12.7298956"><ele>627.0</ele><time>2026-04-25T14:14:39.448Z</time></trkpt><trkpt lat="42.6615301" lon="12.7300925"><ele>627.0</ele><time>2026-04-25T14:14:40.448Z</time></trkpt><trkpt lat="42.6614095" lon="12.7302785"><ele>627.0</ele><time>2026-04-25T14:14:41.448Z</time></trkpt><trkpt lat="42.6612791" lon="12.7304472"><ele>624.6666666666666</ele><time>2026-04-25T14:14:42.448Z</time></trkpt><trkpt lat="42.6611297" lon="12.7305803"><ele>622.3333333333333</ele><time>2026-04-25T14:14:43.448Z</time></trkpt><trkpt lat="42.6609721" lon="12.7306922"><ele>620.0</ele><time>2026-04-25T14:14:44.448Z</time></trkpt><trkpt lat="42.660801" lon="12.7307854"><ele>620.0</ele><time>2026-04-25T14:14:45.448Z</time></trkpt><trkpt lat="42.6606111" lon="12.7308314"><ele>620.0</ele><time>2026-04-25T14:14:46.448Z</time></trkpt><trkpt lat="42.6604213" lon="12.7308595"><ele>620.0</ele><time>2026-04-25T14:14:47.448Z</time></trkpt><trkpt lat="42.660227" lon="12.7308732"><ele>619.3333333333333</ele><time>2026-04-25T14:14:48.448Z</time></trkpt><trkpt lat="42.6600366" lon="12.7308994"><ele>618.6666666666666</ele><time>2026-04-25T14:14:49.448Z</time></trkpt><trkpt lat="42.6598497" lon="12.7309325"><ele>618.0</ele><time>2026-04-25T14:14:50.449Z</time></trkpt><trkpt lat="42.6596707" lon="12.7309734"><ele>618.0</ele><time>2026-04-25T14:14:51.448Z</time></trkpt><trkpt lat="42.6595006" lon="12.7310367"><ele>618.0</ele><time>2026-04-25T14:14:52.448Z</time></trkpt><trkpt lat="42.6593313" lon="12.7311095"><ele>618.0</ele><time>2026-04-25T14:14:53.449Z</time></trkpt><trkpt lat="42.6591736" lon="12.7312144"><ele>609.3333333333334</ele><time>2026-04-25T14:14:54.448Z</time></trkpt><trkpt lat="42.65902" lon="12.731351"><ele>600.6666666666667</ele><time>2026-04-25T14:14:55.448Z</time></trkpt><trkpt lat="42.6588697" lon="12.7315073"><ele>592.0</ele><time>2026-04-25T14:14:56.448Z</time></trkpt><trkpt lat="42.6587157" lon="12.7316696"><ele>589.3333333333334</ele><time>2026-04-25T14:14:57.449Z</time></trkpt><trkpt lat="42.6585576" lon="12.7318322"><ele>586.6666666666666</ele><time>2026-04-25T14:14:58.448Z</time></trkpt><trkpt lat="42.6584006" lon="12.7319846"><ele>584.0</ele><time>2026-04-25T14:14:59.448Z</time></trkpt><trkpt lat="42.6582391" lon="12.7321214"><ele>584.0</ele><time>2026-04-25T14:15:00.448Z</time></trkpt><trkpt lat="42.6580716" lon="12.7322397"><ele>584.0</ele><time>2026-04-25T14:15:01.448Z</time></trkpt><trkpt lat="42.6579015" lon="12.732327"><ele>584.0</ele><time>2026-04-25T14:15:02.448Z</time></trkpt><trkpt lat="42.657709" lon="12.7323573"><ele>587.0</ele><time>2026-04-25T14:15:03.448Z</time></trkpt><trkpt lat="42.6575101" lon="12.7323703"><ele>590.0</ele><time>2026-04-25T14:15:04.449Z</time></trkpt><trkpt lat="42.6573127" lon="12.7323552"><ele>593.0</ele><time>2026-04-25T14:15:05.448Z</time></trkpt><trkpt lat="42.6571148" lon="12.7323263"><ele>589.3333333333333</ele><time>2026-04-25T14:15:06.448Z</time></trkpt><trkpt lat="42.6569108" lon="12.732293"><ele>585.6666666666666</ele><time>2026-04-25T14:15:07.448Z</time></trkpt><trkpt lat="42.6567062" lon="12.7322641"><ele>582.0</ele><time>2026-04-25T14:15:08.448Z</time></trkpt><trkpt lat="42.6564959" lon="12.7322415"><ele>582.0</ele><time>2026-04-25T14:15:09.449Z</time></trkpt><trkpt lat="42.6562885" lon="12.7321963"><ele>582.0</ele><time>2026-04-25T14:15:10.448Z</time></trkpt><trkpt lat="42.656082" lon="12.7321571"><ele>582.0</ele><time>2026-04-25T14:15:11.448Z</time></trkpt><trkpt lat="42.6558771" lon="12.73212"><ele>577.3333333333334</ele><time>2026-04-25T14:15:12.448Z</time></trkpt><trkpt lat="42.6556697" lon="12.7320833"><ele>572.6666666666667</ele><time>2026-04-25T14:15:13.448Z</time></trkpt><trkpt lat="42.6554584" lon="12.732071"><ele>568.0</ele><time>2026-04-25T14:15:14.448Z</time></trkpt><trkpt lat="42.6552482" lon="12.7320371"><ele>563.3333333333334</ele><time>2026-04-25T14:15:15.448Z</time></trkpt><trkpt lat="42.6550451" lon="12.7320007"><ele>558.6666666666666</ele><time>2026-04-25T14:15:16.448Z</time></trkpt><trkpt lat="42.6548408" lon="12.7319753"><ele>554.0</ele><time>2026-04-25T14:15:17.448Z</time></trkpt><trkpt lat="42.6546376" lon="12.7319609"><ele>551.6666666666666</ele><time>2026-04-25T14:15:18.448Z</time></trkpt><trkpt lat="42.6544341" lon="12.7319692"><ele>549.3333333333334</ele><time>2026-04-25T14:15:19.449Z</time></trkpt><trkpt lat="42.6542337" lon="12.7319959"><ele>547.0</ele><time>2026-04-25T14:15:20.448Z</time></trkpt><trkpt lat="42.6540299" lon="12.7320299"><ele>547.0</ele><time>2026-04-25T14:15:21.448Z</time></trkpt><trkpt lat="42.6538266" lon="12.7320734"><ele>547.0</ele><time>2026-04-25T14:15:22.449Z</time></trkpt><trkpt lat="42.653626" lon="12.7321327"><ele>547.0</ele><time>2026-04-25T14:15:23.448Z</time></trkpt><trkpt lat="42.6534261" lon="12.732219"><ele>550.0</ele><time>2026-04-25T14:15:24.448Z</time></trkpt><trkpt lat="42.6532249" lon="12.7323094"><ele>553.0</ele><time>2026-04-25T14:15:25.448Z</time></trkpt><trkpt lat="42.6530326" lon="12.7324127"><ele>556.0</ele><time>2026-04-25T14:15:26.448Z</time></trkpt><trkpt lat="42.6528452" lon="12.7325218"><ele>551.6666666666667</ele><time>2026-04-25T14:15:27.448Z</time></trkpt><trkpt lat="42.652656" lon="12.7326196"><ele>547.3333333333334</ele><time>2026-04-25T14:15:28.448Z</time></trkpt><trkpt lat="42.6524625" lon="12.7327227"><ele>543.0</ele><time>2026-04-25T14:15:29.448Z</time></trkpt><trkpt lat="42.6522711" lon="12.7328255"><ele>543.0</ele><time>2026-04-25T14:15:30.448Z</time></trkpt><trkpt lat="42.6520721" lon="12.7329296"><ele>543.0</ele><time>2026-04-25T14:15:31.449Z</time></trkpt><trkpt lat="42.6518688" lon="12.7330265"><ele>543.0</ele><time>2026-04-25T14:15:32.448Z</time></trkpt><trkpt lat="42.6516711" lon="12.7330901"><ele>547.0</ele><time>2026-04-25T14:15:33.448Z</time></trkpt><trkpt lat="42.6514694" lon="12.7331568"><ele>551.0</ele><time>2026-04-25T14:15:34.448Z</time></trkpt><trkpt lat="42.6512644" lon="12.7332126"><ele>555.0</ele><time>2026-04-25T14:15:35.448Z</time></trkpt><trkpt lat="42.6510654" lon="12.733271"><ele>555.6666666666666</ele><time>2026-04-25T14:15:36.448Z</time></trkpt><trkpt lat="42.6508609" lon="12.7333286"><ele>556.3333333333333</ele><time>2026-04-25T14:15:37.448Z</time></trkpt><trkpt lat="42.6506537" lon="12.7333691"><ele>557.0</ele><time>2026-04-25T14:15:38.448Z</time></trkpt><trkpt lat="42.6504458" lon="12.7333996"><ele>558.6666666666666</ele><time>2026-04-25T14:15:39.449Z</time></trkpt><trkpt lat="42.6502344" lon="12.7334471"><ele>560.3333333333334</ele><time>2026-04-25T14:15:40.448Z</time></trkpt><trkpt lat="42.6500196" lon="12.7334999"><ele>562.0</ele><time>2026-04-25T14:15:41.448Z</time></trkpt><trkpt lat="42.6498048" lon="12.7335448"><ele>548.3333333333334</ele><time>2026-04-25T14:15:42.449Z</time></trkpt><trkpt lat="42.6495962" lon="12.7335876"><ele>534.6666666666666</ele><time>2026-04-25T14:15:43.448Z</time></trkpt><trkpt lat="42.6493917" lon="12.7336255"><ele>521.0</ele><time>2026-04-25T14:15:44.449Z</time></trkpt><trkpt lat="42.6492003" lon="12.7336579"><ele>520.6666666666666</ele><time>2026-04-25T14:15:45.448Z</time></trkpt><trkpt lat="42.6490138" lon="12.7336724"><ele>520.3333333333334</ele><time>2026-04-25T14:15:46.448Z</time></trkpt><trkpt lat="42.6488357" lon="12.7336442"><ele>520.0</ele><time>2026-04-25T14:15:47.448Z</time></trkpt><trkpt lat="42.6486622" lon="12.7336059"><ele>526.6666666666667</ele><time>2026-04-25T14:15:48.448Z</time></trkpt><trkpt lat="42.6484998" lon="12.7335276"><ele>533.3333333333334</ele><time>2026-04-25T14:15:49.448Z</time></trkpt><trkpt lat="42.6483485" lon="12.7334272"><ele>540.0</ele><time>2026-04-25T14:15:50.448Z</time></trkpt><trkpt lat="42.6482093" lon="12.733294"><ele>540.0</ele><time>2026-04-25T14:15:51.448Z</time></trkpt><trkpt lat="42.64807" lon="12.7331547"><ele>540.0</ele><time>2026-04-25T14:15:52.449Z</time></trkpt><trkpt lat="42.6479312" lon="12.7330115"><ele>540.0</ele><time>2026-04-25T14:15:53.448Z</time></trkpt><trkpt lat="42.6477851" lon="12.7328651"><ele>540.3333333333334</ele><time>2026-04-25T14:15:54.448Z</time></trkpt><trkpt lat="42.6476412" lon="12.7327218"><ele>540.6666666666667</ele><time>2026-04-25T14:15:55.448Z</time></trkpt><trkpt lat="42.6474993" lon="12.7325783"><ele>541.0</ele><time>2026-04-25T14:15:56.448Z</time></trkpt><trkpt lat="42.6473593" lon="12.7324419"><ele>541.0</ele><time>2026-04-25T14:15:57.449Z</time></trkpt><trkpt lat="42.6472331" lon="12.7323175"><ele>541.0</ele><time>2026-04-25T14:15:58.448Z</time></trkpt><trkpt lat="42.647121" lon="12.7321891"><ele>541.0</ele><time>2026-04-25T14:15:59.448Z</time></trkpt><trkpt lat="42.6470188" lon="12.7320618"><ele>541.0</ele><time>2026-04-25T14:16:00.448Z</time></trkpt><trkpt lat="42.6469245" lon="12.7319266"><ele>534.75</ele><time>2026-04-25T14:16:01.448Z</time></trkpt><trkpt lat="42.6468486" lon="12.7317765"><ele>528.5</ele><time>2026-04-25T14:16:02.448Z</time></trkpt><trkpt lat="42.6467849" lon="12.7316132"><ele>522.25</ele><time>2026-04-25T14:16:03.448Z</time></trkpt><trkpt lat="42.6467402" lon="12.7314249"><ele>516.0</ele><time>2026-04-25T14:16:04.448Z</time></trkpt><trkpt lat="42.6467131" lon="12.731236"><ele>515.75</ele><time>2026-04-25T14:16:05.448Z</time></trkpt><trkpt lat="42.6467104" lon="12.7310409"><ele>515.5</ele><time>2026-04-25T14:16:06.448Z</time></trkpt><trkpt lat="42.6467282" lon="12.7308425"><ele>515.25</ele><time>2026-04-25T14:16:07.448Z</time></trkpt><trkpt lat="42.6467655" lon="12.730645"><ele>515.0</ele><time>2026-04-25T14:16:08.448Z</time></trkpt><trkpt lat="42.6468286" lon="12.7304617"><ele>515.0</ele><time>2026-04-25T14:16:09.449Z</time></trkpt><trkpt lat="42.6468994" lon="12.7302849"><ele>515.0</ele><time>2026-04-25T14:16:10.448Z</time></trkpt><trkpt lat="42.6469773" lon="12.7301114"><ele>515.0</ele><time>2026-04-25T14:16:11.448Z</time></trkpt><trkpt lat="42.6470499" lon="12.7299459"><ele>515.0</ele><time>2026-04-25T14:16:12.448Z</time></trkpt><trkpt lat="42.6471193" lon="12.7297824"><ele>517.5</ele><time>2026-04-25T14:16:13.448Z</time></trkpt><trkpt lat="42.647178" lon="12.7296176"><ele>520.0</ele><time>2026-04-25T14:16:14.448Z</time></trkpt><trkpt lat="42.6472279" lon="12.7294518"><ele>522.5</ele><time>2026-04-25T14:16:15.448Z</time></trkpt><trkpt lat="42.6472651" lon="12.7292829"><ele>525.0</ele><time>2026-04-25T14:16:16.448Z</time></trkpt><trkpt lat="42.647286" lon="12.7291138"><ele>525.0</ele><time>2026-04-25T14:16:17.448Z</time></trkpt><trkpt lat="42.6472861" lon="12.7289484"><ele>525.0</ele><time>2026-04-25T14:16:18.448Z</time></trkpt><trkpt lat="42.6472766" lon="12.72879"><ele>525.0</ele><time>2026-04-25T14:16:19.448Z</time></trkpt><trkpt lat="42.6472553" lon="12.7286757"><ele>525.0</ele><time>2026-04-25T14:16:20.448Z</time></trkpt><trkpt lat="42.6472133" lon="12.7285615"><ele>525.0</ele><time>2026-04-25T14:16:21.449Z</time></trkpt><trkpt lat="42.6471672" lon="12.7284637"><ele>526.0</ele><time>2026-04-25T14:16:22.448Z</time></trkpt><trkpt lat="42.6471151" lon="12.7283597"><ele>527.0</ele><time>2026-04-25T14:16:23.448Z</time></trkpt><trkpt lat="42.6470577" lon="12.7282596"><ele>528.0</ele><time>2026-04-25T14:16:24.448Z</time></trkpt><trkpt lat="42.6469981" lon="12.7281679"><ele>529.0</ele><time>2026-04-25T14:16:25.448Z</time></trkpt><trkpt lat="42.6469391" lon="12.7280906"><ele>530.0</ele><time>2026-04-25T14:16:26.448Z</time></trkpt><trkpt lat="42.6468738" lon="12.728013"><ele>531.0</ele><time>2026-04-25T14:16:27.449Z</time></trkpt><trkpt lat="42.6468103" lon="12.7279422"><ele>529.8571428571429</ele><time>2026-04-25T14:16:28.448Z</time></trkpt><trkpt lat="42.6467426" lon="12.7278767"><ele>528.7142857142858</ele><time>2026-04-25T14:16:29.448Z</time></trkpt><trkpt lat="42.6466825" lon="12.7278164"><ele>527.5714285714286</ele><time>2026-04-25T14:16:30.448Z</time></trkpt><trkpt lat="42.6466205" lon="12.7277597"><ele>526.4285714285714</ele><time>2026-04-25T14:16:31.448Z</time></trkpt><trkpt lat="42.6465685" lon="12.7276925"><ele>525.2857142857142</ele><time>2026-04-25T14:16:32.448Z</time></trkpt><trkpt lat="42.6465067" lon="12.7276407"><ele>524.1428571428571</ele><time>2026-04-25T14:16:33.448Z</time></trkpt><trkpt lat="42.6464445" lon="12.727599"><ele>523.0</ele><time>2026-04-25T14:16:34.449Z</time></trkpt><trkpt lat="42.6463838" lon="12.7275662"><ele>523.0</ele><time>2026-04-25T14:16:35.448Z</time></trkpt><trkpt lat="42.6462801" lon="12.7275175"><ele>523.0</ele><time>2026-04-25T14:16:37.449Z</time></trkpt><trkpt lat="42.6461526" lon="12.7275104"><ele>523.0</ele><time>2026-04-25T14:16:39.448Z</time></trkpt><trkpt lat="42.6460603" lon="12.727512"><ele>523.0</ele><time>2026-04-25T14:16:40.448Z</time></trkpt><trkpt lat="42.6459672" lon="12.7275215"><ele>523.0</ele><time>2026-04-25T14:16:41.448Z</time></trkpt><trkpt lat="42.6458643" lon="12.7275453"><ele>521.5</ele><time>2026-04-25T14:16:42.448Z</time></trkpt><trkpt lat="42.6457554" lon="12.7275874"><ele>520.0</ele><time>2026-04-25T14:16:43.449Z</time></trkpt><trkpt lat="42.6456432" lon="12.7276532"><ele>518.5</ele><time>2026-04-25T14:16:44.448Z</time></trkpt><trkpt lat="42.6455228" lon="12.7277496"><ele>517.0</ele><time>2026-04-25T14:16:45.448Z</time></trkpt><trkpt lat="42.6453878" lon="12.7278675"><ele>511.0</ele><time>2026-04-25T14:16:46.448Z</time></trkpt><trkpt lat="42.6452502" lon="12.7279779"><ele>505.0</ele><time>2026-04-25T14:16:47.448Z</time></trkpt><trkpt lat="42.6451032" lon="12.7281053"><ele>499.0</ele><time>2026-04-25T14:16:48.448Z</time></trkpt><trkpt lat="42.6449528" lon="12.7282331"><ele>499.0</ele><time>2026-04-25T14:16:49.448Z</time></trkpt><trkpt lat="42.6447985" lon="12.7283583"><ele>499.0</ele><time>2026-04-25T14:16:50.448Z</time></trkpt><trkpt lat="42.6446355" lon="12.7284976"><ele>499.0</ele><time>2026-04-25T14:16:51.448Z</time></trkpt><trkpt lat="42.6444726" lon="12.7286457"><ele>494.0</ele><time>2026-04-25T14:16:52.448Z</time></trkpt><trkpt lat="42.6443078" lon="12.7287846"><ele>489.0</ele><time>2026-04-25T14:16:53.448Z</time></trkpt><trkpt lat="42.644138" lon="12.7289299"><ele>484.0</ele><time>2026-04-25T14:16:54.448Z</time></trkpt><trkpt lat="42.6439632" lon="12.7290761"><ele>484.0</ele><time>2026-04-25T14:16:55.448Z</time></trkpt><trkpt lat="42.6437887" lon="12.7292175"><ele>484.0</ele><time>2026-04-25T14:16:56.448Z</time></trkpt><trkpt lat="42.6436174" lon="12.7293482"><ele>484.0</ele><time>2026-04-25T14:16:57.448Z</time></trkpt><trkpt lat="42.6434462" lon="12.7294728"><ele>480.6666666666667</ele><time>2026-04-25T14:16:58.449Z</time></trkpt><trkpt lat="42.6432698" lon="12.7295817"><ele>477.33333333333337</ele><time>2026-04-25T14:16:59.448Z</time></trkpt><trkpt lat="42.6431009" lon="12.7296964"><ele>474.0</ele><time>2026-04-25T14:17:00.448Z</time></trkpt><trkpt lat="42.6429269" lon="12.7298097"><ele>477.0</ele><time>2026-04-25T14:17:01.448Z</time></trkpt><trkpt lat="42.6427562" lon="12.7299257"><ele>480.0</ele><time>2026-04-25T14:17:02.448Z</time></trkpt><trkpt lat="42.6425832" lon="12.7300484"><ele>483.0</ele><time>2026-04-25T14:17:03.448Z</time></trkpt><trkpt lat="42.6424141" lon="12.7301685"><ele>477.33333333333337</ele><time>2026-04-25T14:17:04.448Z</time></trkpt><trkpt lat="42.6422458" lon="12.7302907"><ele>471.6666666666667</ele><time>2026-04-25T14:17:05.448Z</time></trkpt><trkpt lat="42.6420725" lon="12.7303941"><ele>466.0</ele><time>2026-04-25T14:17:06.448Z</time></trkpt><trkpt lat="42.6419042" lon="12.7304668"><ele>463.0</ele><time>2026-04-25T14:17:07.448Z</time></trkpt><trkpt lat="42.6417303" lon="12.7305207"><ele>460.0</ele><time>2026-04-25T14:17:08.448Z</time></trkpt><trkpt lat="42.6415576" lon="12.7305421"><ele>457.0</ele><time>2026-04-25T14:17:09.448Z</time></trkpt><trkpt lat="42.6413836" lon="12.7305276"><ele>457.0</ele><time>2026-04-25T14:17:10.448Z</time></trkpt><trkpt lat="42.6412051" lon="12.7304831"><ele>457.0</ele><time>2026-04-25T14:17:11.448Z</time></trkpt><trkpt lat="42.6410309" lon="12.7304191"><ele>457.0</ele><time>2026-04-25T14:17:12.448Z</time></trkpt><trkpt lat="42.6408528" lon="12.7303491"><ele>454.0</ele><time>2026-04-25T14:17:13.448Z</time></trkpt><trkpt lat="42.6406702" lon="12.7302747"><ele>451.0</ele><time>2026-04-25T14:17:14.448Z</time></trkpt><trkpt lat="42.6404782" lon="12.730196"><ele>448.0</ele><time>2026-04-25T14:17:15.448Z</time></trkpt><trkpt lat="42.640285" lon="12.7301347"><ele>447.0</ele><time>2026-04-25T14:17:16.448Z</time></trkpt><trkpt lat="42.6400962" lon="12.730083"><ele>446.0</ele><time>2026-04-25T14:17:17.448Z</time></trkpt><trkpt lat="42.6399091" lon="12.7300528"><ele>445.0</ele><time>2026-04-25T14:17:18.448Z</time></trkpt><trkpt lat="42.6397143" lon="12.7300682"><ele>445.0</ele><time>2026-04-25T14:17:19.449Z</time></trkpt><trkpt lat="42.6395214" lon="12.7301261"><ele>445.0</ele><time>2026-04-25T14:17:20.448Z</time></trkpt><trkpt lat="42.6393258" lon="12.7301959"><ele>445.0</ele><time>2026-04-25T14:17:21.448Z</time></trkpt><trkpt lat="42.6391255" lon="12.7302841"><ele>442.6666666666667</ele><time>2026-04-25T14:17:22.448Z</time></trkpt><trkpt lat="42.6389235" lon="12.7303808"><ele>440.33333333333337</ele><time>2026-04-25T14:17:23.448Z</time></trkpt><trkpt lat="42.6387248" lon="12.7304729"><ele>438.0</ele><time>2026-04-25T14:17:24.448Z</time></trkpt><trkpt lat="42.6385329" lon="12.730553"><ele>438.0</ele><time>2026-04-25T14:17:25.448Z</time></trkpt><trkpt lat="42.6383348" lon="12.7306052"><ele>438.0</ele><time>2026-04-25T14:17:26.448Z</time></trkpt><trkpt lat="42.6381232" lon="12.7306294"><ele>438.0</ele><time>2026-04-25T14:17:27.449Z</time></trkpt><trkpt lat="42.6379104" lon="12.7306104"><ele>435.66666666666663</ele><time>2026-04-25T14:17:28.448Z</time></trkpt><trkpt lat="42.6376981" lon="12.7305659"><ele>433.3333333333333</ele><time>2026-04-25T14:17:29.448Z</time></trkpt><trkpt lat="42.6374791" lon="12.7305209"><ele>431.0</ele><time>2026-04-25T14:17:30.448Z</time></trkpt><trkpt lat="42.6372586" lon="12.7304707"><ele>431.0</ele><time>2026-04-25T14:17:31.448Z</time></trkpt><trkpt lat="42.6370331" lon="12.7304295"><ele>431.0</ele><time>2026-04-25T14:17:32.449Z</time></trkpt><trkpt lat="42.6368039" lon="12.7303864"><ele>425.5</ele><time>2026-04-25T14:17:33.448Z</time></trkpt><trkpt lat="42.6365772" lon="12.7303411"><ele>420.0</ele><time>2026-04-25T14:17:34.448Z</time></trkpt><trkpt lat="42.6363454" lon="12.7302909"><ele>423.0</ele><time>2026-04-25T14:17:35.449Z</time></trkpt><trkpt lat="42.6361118" lon="12.7302434"><ele>426.0</ele><time>2026-04-25T14:17:36.448Z</time></trkpt><trkpt lat="42.6358741" lon="12.7302037"><ele>426.0</ele><time>2026-04-25T14:17:37.448Z</time></trkpt><trkpt lat="42.6356383" lon="12.7301589"><ele>426.0</ele><time>2026-04-25T14:17:38.448Z</time></trkpt><trkpt lat="42.6354021" lon="12.7301149"><ele>417.5</ele><time>2026-04-25T14:17:39.448Z</time></trkpt><trkpt lat="42.6351658" lon="12.7300715"><ele>409.0</ele><time>2026-04-25T14:17:40.448Z</time></trkpt><trkpt lat="42.6349348" lon="12.730035"><ele>409.0</ele><time>2026-04-25T14:17:41.448Z</time></trkpt><trkpt lat="42.6347085" lon="12.7299937"><ele>409.0</ele><time>2026-04-25T14:17:42.448Z</time></trkpt><trkpt lat="42.6344899" lon="12.7299491"><ele>409.0</ele><time>2026-04-25T14:17:43.448Z</time></trkpt><trkpt lat="42.6342719" lon="12.7299094"><ele>410.33333333333337</ele><time>2026-04-25T14:17:44.448Z</time></trkpt><trkpt lat="42.6340533" lon="12.7298738"><ele>411.66666666666663</ele><time>2026-04-25T14:17:45.448Z</time></trkpt><trkpt lat="42.6338337" lon="12.7298385"><ele>413.0</ele><time>2026-04-25T14:17:46.448Z</time></trkpt><trkpt lat="42.6336132" lon="12.7297985"><ele>409.0</ele><time>2026-04-25T14:17:47.448Z</time></trkpt><trkpt lat="42.633388" lon="12.7297553"><ele>405.0</ele><time>2026-04-25T14:17:48.448Z</time></trkpt><trkpt lat="42.633165" lon="12.7297344"><ele>405.0</ele><time>2026-04-25T14:17:49.448Z</time></trkpt><trkpt lat="42.6329319" lon="12.7297408"><ele>405.0</ele><time>2026-04-25T14:17:50.448Z</time></trkpt><trkpt lat="42.6326984" lon="12.7297601"><ele>398.0</ele><time>2026-04-25T14:17:51.448Z</time></trkpt><trkpt lat="42.632454" lon="12.729784"><ele>391.0</ele><time>2026-04-25T14:17:52.448Z</time></trkpt><trkpt lat="42.6322119" lon="12.7298061"><ele>388.0</ele><time>2026-04-25T14:17:53.448Z</time></trkpt><trkpt lat="42.6319705" lon="12.7298347"><ele>385.0</ele><time>2026-04-25T14:17:54.449Z</time></trkpt><trkpt lat="42.6317318" lon="12.7298689"><ele>385.0</ele><time>2026-04-25T14:17:55.448Z</time></trkpt><trkpt lat="42.6314964" lon="12.7298905"><ele>385.0</ele><time>2026-04-25T14:17:56.448Z</time></trkpt><trkpt lat="42.6312631" lon="12.7299156"><ele>382.0</ele><time>2026-04-25T14:17:57.448Z</time></trkpt><trkpt lat="42.6310238" lon="12.7299449"><ele>379.0</ele><time>2026-04-25T14:17:58.448Z</time></trkpt><trkpt lat="42.6307854" lon="12.7299822"><ele>379.0</ele><time>2026-04-25T14:17:59.448Z</time></trkpt><trkpt lat="42.6305585" lon="12.7300199"><ele>379.0</ele><time>2026-04-25T14:18:00.448Z</time></trkpt><trkpt lat="42.6303307" lon="12.730075"><ele>378.5</ele><time>2026-04-25T14:18:01.449Z</time></trkpt><trkpt lat="42.6301043" lon="12.7301383"><ele>378.0</ele><time>2026-04-25T14:18:02.448Z</time></trkpt><trkpt lat="42.6298796" lon="12.730215"><ele>375.0</ele><time>2026-04-25T14:18:03.449Z</time></trkpt><trkpt lat="42.629657" lon="12.7303068"><ele>372.0</ele><time>2026-04-25T14:18:04.448Z</time></trkpt><trkpt lat="42.629436" lon="12.7303985"><ele>372.0</ele><time>2026-04-25T14:18:05.449Z</time></trkpt><trkpt lat="42.6292182" lon="12.7304928"><ele>372.0</ele><time>2026-04-25T14:18:06.448Z</time></trkpt><trkpt lat="42.6289947" lon="12.7305924"><ele>372.0</ele><time>2026-04-25T14:18:07.448Z</time></trkpt><trkpt lat="42.628773" lon="12.7306939"><ele>372.0</ele><time>2026-04-25T14:18:08.448Z</time></trkpt><trkpt lat="42.6285611" lon="12.7307852"><ele>372.6666666666667</ele><time>2026-04-25T14:18:09.448Z</time></trkpt><trkpt lat="42.6283544" lon="12.730867"><ele>373.33333333333337</ele><time>2026-04-25T14:18:10.449Z</time></trkpt><trkpt lat="42.6281521" lon="12.7309546"><ele>374.0</ele><time>2026-04-25T14:18:11.448Z</time></trkpt><trkpt lat="42.6279539" lon="12.7310405"><ele>371.0</ele><time>2026-04-25T14:18:12.448Z</time></trkpt><trkpt lat="42.6277602" lon="12.7311294"><ele>368.0</ele><time>2026-04-25T14:18:13.449Z</time></trkpt><trkpt lat="42.6275629" lon="12.7312153"><ele>365.0</ele><time>2026-04-25T14:18:14.448Z</time></trkpt><trkpt lat="42.6273616" lon="12.7313004"><ele>365.0</ele><time>2026-04-25T14:18:15.449Z</time></trkpt><trkpt lat="42.6271593" lon="12.7313915"><ele>365.0</ele><time>2026-04-25T14:18:16.448Z</time></trkpt><trkpt lat="42.6269587" lon="12.7314821"><ele>365.0</ele><time>2026-04-25T14:18:17.448Z</time></trkpt><trkpt lat="42.6267476" lon="12.7315839"><ele>366.33333333333337</ele><time>2026-04-25T14:18:18.448Z</time></trkpt><trkpt lat="42.6265371" lon="12.7316824"><ele>367.6666666666667</ele><time>2026-04-25T14:18:19.448Z</time></trkpt><trkpt lat="42.6263282" lon="12.7317811"><ele>369.0</ele><time>2026-04-25T14:18:20.448Z</time></trkpt><trkpt lat="42.6261235" lon="12.731874"><ele>365.3333333333333</ele><time>2026-04-25T14:18:21.448Z</time></trkpt><trkpt lat="42.6259149" lon="12.7319693"><ele>361.66666666666663</ele><time>2026-04-25T14:18:22.448Z</time></trkpt><trkpt lat="42.6257041" lon="12.7320651"><ele>358.0</ele><time>2026-04-25T14:18:23.448Z</time></trkpt><trkpt lat="42.6254862" lon="12.7321623"><ele>359.0</ele><time>2026-04-25T14:18:24.448Z</time></trkpt><trkpt lat="42.6252735" lon="12.7322578"><ele>360.0</ele><time>2026-04-25T14:18:25.448Z</time></trkpt><trkpt lat="42.6250611" lon="12.7323577"><ele>361.0</ele><time>2026-04-25T14:18:26.448Z</time></trkpt><trkpt lat="42.6248465" lon="12.7324492"><ele>361.0</ele><time>2026-04-25T14:18:27.448Z</time></trkpt><trkpt lat="42.6246369" lon="12.7325442"><ele>361.0</ele><time>2026-04-25T14:18:28.448Z</time></trkpt><trkpt lat="42.6244316" lon="12.7326246"><ele>361.0</ele><time>2026-04-25T14:18:29.448Z</time></trkpt><trkpt lat="42.6242194" lon="12.7327025"><ele>358.0</ele><time>2026-04-25T14:18:30.448Z</time></trkpt><trkpt lat="42.624011" lon="12.7327515"><ele>355.0</ele><time>2026-04-25T14:18:31.448Z</time></trkpt><trkpt lat="42.6237986" lon="12.7327965"><ele>352.0</ele><time>2026-04-25T14:18:32.448Z</time></trkpt><trkpt lat="42.62359" lon="12.7328044"><ele>351.0</ele><time>2026-04-25T14:18:33.448Z</time></trkpt><trkpt lat="42.6233787" lon="12.7328164"><ele>350.0</ele><time>2026-04-25T14:18:34.448Z</time></trkpt><trkpt lat="42.623164" lon="12.7328187"><ele>349.0</ele><time>2026-04-25T14:18:35.448Z</time></trkpt><trkpt lat="42.6229495" lon="12.7328002"><ele>349.0</ele><time>2026-04-25T14:18:36.449Z</time></trkpt><trkpt lat="42.6227338" lon="12.7327788"><ele>349.0</ele><time>2026-04-25T14:18:37.448Z</time></trkpt><trkpt lat="42.6225169" lon="12.7327501"><ele>349.0</ele><time>2026-04-25T14:18:38.448Z</time></trkpt><trkpt lat="42.6223021" lon="12.732703"><ele>350.0</ele><time>2026-04-25T14:18:39.448Z</time></trkpt><trkpt lat="42.6220906" lon="12.7326603"><ele>351.0</ele><time>2026-04-25T14:18:40.449Z</time></trkpt><trkpt lat="42.6218732" lon="12.732608"><ele>352.0</ele><time>2026-04-25T14:18:41.448Z</time></trkpt><trkpt lat="42.6216575" lon="12.7325666"><ele>352.0</ele><time>2026-04-25T14:18:42.448Z</time></trkpt><trkpt lat="42.6214407" lon="12.7325166"><ele>352.0</ele><time>2026-04-25T14:18:43.448Z</time></trkpt><trkpt lat="42.621228" lon="12.732478"><ele>352.0</ele><time>2026-04-25T14:18:44.449Z</time></trkpt><trkpt lat="42.6210137" lon="12.732439"><ele>350.0</ele><time>2026-04-25T14:18:45.448Z</time></trkpt><trkpt lat="42.6207976" lon="12.7324033"><ele>348.0</ele><time>2026-04-25T14:18:46.448Z</time></trkpt><trkpt lat="42.6205829" lon="12.7323761"><ele>346.0</ele><time>2026-04-25T14:18:47.448Z</time></trkpt><trkpt lat="42.6203658" lon="12.7323585"><ele>345.3333333333333</ele><time>2026-04-25T14:18:48.448Z</time></trkpt><trkpt lat="42.6201509" lon="12.7323502"><ele>344.6666666666667</ele><time>2026-04-25T14:18:49.448Z</time></trkpt><trkpt lat="42.6199313" lon="12.7323664"><ele>344.0</ele><time>2026-04-25T14:18:50.448Z</time></trkpt><trkpt lat="42.6197148" lon="12.7323802"><ele>344.0</ele><time>2026-04-25T14:18:51.449Z</time></trkpt><trkpt lat="42.6195095" lon="12.7324041"><ele>344.0</ele><time>2026-04-25T14:18:52.449Z</time></trkpt><trkpt lat="42.619314" lon="12.7324356"><ele>344.0</ele><time>2026-04-25T14:18:53.448Z</time></trkpt><trkpt lat="42.6191427" lon="12.7324717"><ele>343.75</ele><time>2026-04-25T14:18:54.448Z</time></trkpt><trkpt lat="42.6189883" lon="12.7325122"><ele>343.5</ele><time>2026-04-25T14:18:55.448Z</time></trkpt><trkpt lat="42.6188415" lon="12.732559"><ele>343.25</ele><time>2026-04-25T14:18:56.448Z</time></trkpt><trkpt lat="42.6187284" lon="12.7326019"><ele>343.0</ele><time>2026-04-25T14:18:57.448Z</time></trkpt><trkpt lat="42.6186242" lon="12.7326429"><ele>342.16666666666663</ele><time>2026-04-25T14:18:58.448Z</time></trkpt><trkpt lat="42.6185416" lon="12.7326868"><ele>341.3333333333333</ele><time>2026-04-25T14:18:59.448Z</time></trkpt><trkpt lat="42.6184781" lon="12.7327198"><ele>340.5</ele><time>2026-04-25T14:19:00.448Z</time></trkpt><trkpt lat="42.6183964" lon="12.7327663"><ele>339.6666666666667</ele><time>2026-04-25T14:19:02.448Z</time></trkpt><trkpt lat="42.6183423" lon="12.7328997"><ele>338.83333333333337</ele><time>2026-04-25T14:20:14.448Z</time></trkpt><trkpt lat="42.6183525" lon="12.7328148"><ele>338.0</ele><time>2026-04-25T14:20:43.448Z</time></trkpt><trkpt lat="42.6182624" lon="12.7328411"><ele>338.0</ele><time>2026-04-25T14:21:28.448Z</time></trkpt><trkpt lat="42.6181989" lon="12.7329053"><ele>338.0</ele><time>2026-04-25T14:21:29.448Z</time></trkpt><trkpt lat="42.6181248" lon="12.7329716"><ele>338.0</ele><time>2026-04-25T14:21:30.449Z</time></trkpt><trkpt lat="42.6180411" lon="12.7330367"><ele>338.0</ele><time>2026-04-25T14:21:31.448Z</time></trkpt><trkpt lat="42.6179424" lon="12.733131"><ele>338.0</ele><time>2026-04-25T14:21:32.449Z</time></trkpt><trkpt lat="42.6178368" lon="12.7332266"><ele>338.25</ele><time>2026-04-25T14:21:33.448Z</time></trkpt><trkpt lat="42.6177201" lon="12.7333213"><ele>338.5</ele><time>2026-04-25T14:21:34.449Z</time></trkpt><trkpt lat="42.6176086" lon="12.7334253"><ele>338.75</ele><time>2026-04-25T14:21:35.448Z</time></trkpt><trkpt lat="42.617484" lon="12.7335363"><ele>339.0</ele><time>2026-04-25T14:21:36.448Z</time></trkpt><trkpt lat="42.6173469" lon="12.7336568"><ele>339.0</ele><time>2026-04-25T14:21:37.448Z</time></trkpt><trkpt lat="42.6172123" lon="12.7337677"><ele>339.0</ele><time>2026-04-25T14:21:38.448Z</time></trkpt><trkpt lat="42.6170812" lon="12.7338836"><ele>339.0</ele><time>2026-04-25T14:21:39.448Z</time></trkpt><trkpt lat="42.6169483" lon="12.7339857"><ele>341.3333333333333</ele><time>2026-04-25T14:21:40.448Z</time></trkpt><trkpt lat="42.6168138" lon="12.7340956"><ele>343.66666666666663</ele><time>2026-04-25T14:21:41.448Z</time></trkpt><trkpt lat="42.6166696" lon="12.7342184"><ele>346.0</ele><time>2026-04-25T14:21:42.448Z</time></trkpt><trkpt lat="42.6165314" lon="12.7343029"><ele>345.0</ele><time>2026-04-25T14:21:43.448Z</time></trkpt><trkpt lat="42.6163746" lon="12.7343956"><ele>344.0</ele><time>2026-04-25T14:21:44.448Z</time></trkpt><trkpt lat="42.6162" lon="12.7344851"><ele>343.0</ele><time>2026-04-25T14:21:45.448Z</time></trkpt><trkpt lat="42.6160357" lon="12.7345438"><ele>340.66666666666663</ele><time>2026-04-25T14:21:46.448Z</time></trkpt><trkpt lat="42.6158709" lon="12.734581"><ele>338.3333333333333</ele><time>2026-04-25T14:21:47.448Z</time></trkpt><trkpt lat="42.6157022" lon="12.7346088"><ele>336.0</ele><time>2026-04-25T14:21:48.448Z</time></trkpt><trkpt lat="42.6155422" lon="12.7346393"><ele>336.0</ele><time>2026-04-25T14:21:49.448Z</time></trkpt><trkpt lat="42.615356" lon="12.7346614"><ele>336.0</ele><time>2026-04-25T14:21:50.448Z</time></trkpt><trkpt lat="42.6151984" lon="12.7346855"><ele>336.0</ele><time>2026-04-25T14:21:51.448Z</time></trkpt><trkpt lat="42.6150259" lon="12.7347172"><ele>335.0</ele><time>2026-04-25T14:21:52.448Z</time></trkpt><trkpt lat="42.6148506" lon="12.7347527"><ele>334.0</ele><time>2026-04-25T14:21:53.448Z</time></trkpt><trkpt lat="42.6146725" lon="12.734782"><ele>333.0</ele><time>2026-04-25T14:21:54.448Z</time></trkpt><trkpt lat="42.6144984" lon="12.7348134"><ele>332.0</ele><time>2026-04-25T14:21:55.448Z</time></trkpt><trkpt lat="42.6143123" lon="12.7348356"><ele>331.0</ele><time>2026-04-25T14:21:56.448Z</time></trkpt><trkpt lat="42.6141115" lon="12.7348647"><ele>330.0</ele><time>2026-04-25T14:21:57.448Z</time></trkpt><trkpt lat="42.6139175" lon="12.7348908"><ele>330.0</ele><time>2026-04-25T14:21:58.448Z</time></trkpt><trkpt lat="42.6137233" lon="12.7349296"><ele>330.0</ele><time>2026-04-25T14:21:59.448Z</time></trkpt><trkpt lat="42.6135265" lon="12.7349609"><ele>330.0</ele><time>2026-04-25T14:22:00.448Z</time></trkpt><trkpt lat="42.6133161" lon="12.734994"><ele>329.6666666666667</ele><time>2026-04-25T14:22:01.449Z</time></trkpt><trkpt lat="42.6131306" lon="12.7350235"><ele>329.33333333333337</ele><time>2026-04-25T14:22:02.448Z</time></trkpt><trkpt lat="42.6129401" lon="12.7350621"><ele>329.0</ele><time>2026-04-25T14:22:03.448Z</time></trkpt><trkpt lat="42.6127576" lon="12.7350897"><ele>332.0</ele><time>2026-04-25T14:22:04.448Z</time></trkpt><trkpt lat="42.6125799" lon="12.7351151"><ele>335.0</ele><time>2026-04-25T14:22:05.448Z</time></trkpt><trkpt lat="42.6123923" lon="12.7351484"><ele>338.0</ele><time>2026-04-25T14:22:06.448Z</time></trkpt><trkpt lat="42.612227" lon="12.7351729"><ele>338.0</ele><time>2026-04-25T14:22:07.448Z</time></trkpt><trkpt lat="42.6120515" lon="12.7352032"><ele>338.0</ele><time>2026-04-25T14:22:08.448Z</time></trkpt><trkpt lat="42.6118743" lon="12.7352306"><ele>338.0</ele><time>2026-04-25T14:22:09.448Z</time></trkpt><trkpt lat="42.6117048" lon="12.7352708"><ele>332.6666666666667</ele><time>2026-04-25T14:22:10.448Z</time></trkpt><trkpt lat="42.6115403" lon="12.7353057"><ele>327.3333333333333</ele><time>2026-04-25T14:22:11.448Z</time></trkpt><trkpt lat="42.6113836" lon="12.735326"><ele>322.0</ele><time>2026-04-25T14:22:12.449Z</time></trkpt><trkpt lat="42.6112239" lon="12.7353294"><ele>320.66666666666663</ele><time>2026-04-25T14:22:13.448Z</time></trkpt><trkpt lat="42.6110536" lon="12.7353073"><ele>319.3333333333333</ele><time>2026-04-25T14:22:14.448Z</time></trkpt><trkpt lat="42.6109068" lon="12.7352619"><ele>318.0</ele><time>2026-04-25T14:22:15.448Z</time></trkpt><trkpt lat="42.6107498" lon="12.735192"><ele>318.0</ele><time>2026-04-25T14:22:16.448Z</time></trkpt><trkpt lat="42.6105884" lon="12.7351008"><ele>318.0</ele><time>2026-04-25T14:22:17.448Z</time></trkpt><trkpt lat="42.6104463" lon="12.7350206"><ele>318.0</ele><time>2026-04-25T14:22:18.448Z</time></trkpt><trkpt lat="42.6102905" lon="12.7349256"><ele>318.0</ele><time>2026-04-25T14:22:19.448Z</time></trkpt><trkpt lat="42.6101462" lon="12.7348354"><ele>318.0</ele><time>2026-04-25T14:22:20.448Z</time></trkpt><trkpt lat="42.610009" lon="12.734718"><ele>318.0</ele><time>2026-04-25T14:22:21.448Z</time></trkpt><trkpt lat="42.6098917" lon="12.7345384"><ele>323.3333333333333</ele><time>2026-04-25T14:22:22.448Z</time></trkpt><trkpt lat="42.6097904" lon="12.7343747"><ele>328.66666666666663</ele><time>2026-04-25T14:22:23.448Z</time></trkpt><trkpt lat="42.6096923" lon="12.7341858"><ele>334.0</ele><time>2026-04-25T14:22:24.448Z</time></trkpt><trkpt lat="42.6096005" lon="12.7339864"><ele>334.0</ele><time>2026-04-25T14:22:25.449Z</time></trkpt><trkpt lat="42.6095168" lon="12.7337762"><ele>334.0</ele><time>2026-04-25T14:22:26.448Z</time></trkpt><trkpt lat="42.6094266" lon="12.7335497"><ele>334.0</ele><time>2026-04-25T14:22:27.448Z</time></trkpt><trkpt lat="42.6093381" lon="12.7333504"><ele>330.0</ele><time>2026-04-25T14:22:28.448Z</time></trkpt><trkpt lat="42.6092455" lon="12.7331391"><ele>326.0</ele><time>2026-04-25T14:22:29.448Z</time></trkpt><trkpt lat="42.6091479" lon="12.7329193"><ele>322.0</ele><time>2026-04-25T14:22:30.448Z</time></trkpt><trkpt lat="42.6090671" lon="12.7327204"><ele>322.0</ele><time>2026-04-25T14:22:31.448Z</time></trkpt><trkpt lat="42.6089688" lon="12.7325215"><ele>322.0</ele><time>2026-04-25T14:22:32.448Z</time></trkpt><trkpt lat="42.6088519" lon="12.7323235"><ele>322.0</ele><time>2026-04-25T14:22:33.448Z</time></trkpt><trkpt lat="42.6087411" lon="12.7321581"><ele>322.0</ele><time>2026-04-25T14:22:34.448Z</time></trkpt><trkpt lat="42.6086087" lon="12.7319762"><ele>322.0</ele><time>2026-04-25T14:22:35.448Z</time></trkpt><trkpt lat="42.6084805" lon="12.7318218"><ele>322.0</ele><time>2026-04-25T14:22:36.449Z</time></trkpt><trkpt lat="42.6083414" lon="12.7316508"><ele>322.0</ele><time>2026-04-25T14:22:37.448Z</time></trkpt><trkpt lat="42.6081863" lon="12.7314726"><ele>322.0</ele><time>2026-04-25T14:22:38.448Z</time></trkpt><trkpt lat="42.608048" lon="12.7313187"><ele>322.0</ele><time>2026-04-25T14:22:39.448Z</time></trkpt><trkpt lat="42.6079009" lon="12.731153"><ele>323.0</ele><time>2026-04-25T14:22:40.448Z</time></trkpt><trkpt lat="42.6077541" lon="12.7309872"><ele>324.0</ele><time>2026-04-25T14:22:41.448Z</time></trkpt><trkpt lat="42.6076017" lon="12.7308266"><ele>325.0</ele><time>2026-04-25T14:22:42.448Z</time></trkpt><trkpt lat="42.6074287" lon="12.7306664"><ele>325.0</ele><time>2026-04-25T14:22:43.449Z</time></trkpt><trkpt lat="42.6072847" lon="12.7305152"><ele>325.0</ele><time>2026-04-25T14:22:44.449Z</time></trkpt><trkpt lat="42.6071298" lon="12.7303556"><ele>325.0</ele><time>2026-04-25T14:22:45.448Z</time></trkpt><trkpt lat="42.6069701" lon="12.7301882"><ele>322.0</ele><time>2026-04-25T14:22:46.448Z</time></trkpt><trkpt lat="42.6068344" lon="12.7300447"><ele>319.0</ele><time>2026-04-25T14:22:47.448Z</time></trkpt><trkpt lat="42.6066969" lon="12.7298942"><ele>316.0</ele><time>2026-04-25T14:22:48.449Z</time></trkpt><trkpt lat="42.6065589" lon="12.7297258"><ele>316.0</ele><time>2026-04-25T14:22:49.448Z</time></trkpt><trkpt lat="42.6064517" lon="12.7295484"><ele>316.0</ele><time>2026-04-25T14:22:50.448Z</time></trkpt><trkpt lat="42.6063274" lon="12.7293548"><ele>316.0</ele><time>2026-04-25T14:22:51.448Z</time></trkpt><trkpt lat="42.6062239" lon="12.729177"><ele>313.0</ele><time>2026-04-25T14:22:52.448Z</time></trkpt><trkpt lat="42.6061179" lon="12.7289813"><ele>310.0</ele><time>2026-04-25T14:22:53.448Z</time></trkpt><trkpt lat="42.6060067" lon="12.7287793"><ele>307.0</ele><time>2026-04-25T14:22:54.448Z</time></trkpt><trkpt lat="42.6059062" lon="12.728602"><ele>312.0</ele><time>2026-04-25T14:22:55.448Z</time></trkpt><trkpt lat="42.6057933" lon="12.72842"><ele>317.0</ele><time>2026-04-25T14:22:56.448Z</time></trkpt><trkpt lat="42.6056793" lon="12.7282389"><ele>322.0</ele><time>2026-04-25T14:22:57.448Z</time></trkpt><trkpt lat="42.6055653" lon="12.7280624"><ele>322.0</ele><time>2026-04-25T14:22:58.448Z</time></trkpt><trkpt lat="42.6054389" lon="12.727876"><ele>322.0</ele><time>2026-04-25T14:22:59.449Z</time></trkpt><trkpt lat="42.6053294" lon="12.7277098"><ele>322.0</ele><time>2026-04-25T14:23:00.448Z</time></trkpt><trkpt lat="42.6052203" lon="12.72752"><ele>317.3333333333333</ele><time>2026-04-25T14:23:01.448Z</time></trkpt><trkpt lat="42.6051135" lon="12.7273111"><ele>312.6666666666667</ele><time>2026-04-25T14:23:02.448Z</time></trkpt><trkpt lat="42.6050266" lon="12.7271247"><ele>308.0</ele><time>2026-04-25T14:23:03.448Z</time></trkpt><trkpt lat="42.6049385" lon="12.7269153"><ele>308.33333333333337</ele><time>2026-04-25T14:23:04.449Z</time></trkpt><trkpt lat="42.6048496" lon="12.7266956"><ele>308.6666666666667</ele><time>2026-04-25T14:23:05.448Z</time></trkpt><trkpt lat="42.6047654" lon="12.7265038"><ele>309.0</ele><time>2026-04-25T14:23:06.448Z</time></trkpt><trkpt lat="42.6046612" lon="12.7262947"><ele>309.0</ele><time>2026-04-25T14:23:07.448Z</time></trkpt><trkpt lat="42.6045631" lon="12.7261173"><ele>309.0</ele><time>2026-04-25T14:23:08.449Z</time></trkpt><trkpt lat="42.604442" lon="12.7259333"><ele>309.0</ele><time>2026-04-25T14:23:09.449Z</time></trkpt><trkpt lat="42.6043021" lon="12.72574"><ele>306.0</ele><time>2026-04-25T14:23:10.448Z</time></trkpt><trkpt lat="42.6041772" lon="12.7255826"><ele>303.0</ele><time>2026-04-25T14:23:11.448Z</time></trkpt><trkpt lat="42.6040368" lon="12.725415"><ele>300.0</ele><time>2026-04-25T14:23:12.448Z</time></trkpt><trkpt lat="42.6038936" lon="12.7252538"><ele>299.6666666666667</ele><time>2026-04-25T14:23:13.448Z</time></trkpt><trkpt lat="42.6037476" lon="12.7250946"><ele>299.33333333333337</ele><time>2026-04-25T14:23:14.448Z</time></trkpt><trkpt lat="42.6035905" lon="12.7249362"><ele>299.0</ele><time>2026-04-25T14:23:15.449Z</time></trkpt><trkpt lat="42.6034484" lon="12.7248095"><ele>299.0</ele><time>2026-04-25T14:23:16.448Z</time></trkpt><trkpt lat="42.6032908" lon="12.7246949"><ele>299.0</ele><time>2026-04-25T14:23:17.448Z</time></trkpt><trkpt lat="42.6031156" lon="12.7245951"><ele>299.0</ele><time>2026-04-25T14:23:18.448Z</time></trkpt><trkpt lat="42.6029606" lon="12.7245276"><ele>297.0</ele><time>2026-04-25T14:23:19.448Z</time></trkpt><trkpt lat="42.6027956" lon="12.7244647"><ele>295.0</ele><time>2026-04-25T14:23:20.448Z</time></trkpt><trkpt lat="42.6026106" lon="12.7244317"><ele>293.0</ele><time>2026-04-25T14:23:21.448Z</time></trkpt><trkpt lat="42.6024466" lon="12.7244207"><ele>293.0</ele><time>2026-04-25T14:23:22.448Z</time></trkpt><trkpt lat="42.6022701" lon="12.7244238"><ele>293.0</ele><time>2026-04-25T14:23:23.448Z</time></trkpt><trkpt lat="42.6020848" lon="12.7244453"><ele>293.0</ele><time>2026-04-25T14:23:24.448Z</time></trkpt><trkpt lat="42.6019056" lon="12.7244713"><ele>293.0</ele><time>2026-04-25T14:23:25.448Z</time></trkpt><trkpt lat="42.6017138" lon="12.7245085"><ele>293.0</ele><time>2026-04-25T14:23:26.448Z</time></trkpt><trkpt lat="42.6015472" lon="12.7245453"><ele>293.0</ele><time>2026-04-25T14:23:27.449Z</time></trkpt><trkpt lat="42.6013696" lon="12.7245994"><ele>293.0</ele><time>2026-04-25T14:23:28.448Z</time></trkpt><trkpt lat="42.6011909" lon="12.7246792"><ele>293.0</ele><time>2026-04-25T14:23:29.448Z</time></trkpt><trkpt lat="42.6010182" lon="12.72477"><ele>293.0</ele><time>2026-04-25T14:23:30.448Z</time></trkpt><trkpt lat="42.6008413" lon="12.7248835"><ele>295.33333333333337</ele><time>2026-04-25T14:23:31.448Z</time></trkpt><trkpt lat="42.6006887" lon="12.7249891"><ele>297.6666666666667</ele><time>2026-04-25T14:23:32.448Z</time></trkpt><trkpt lat="42.6005315" lon="12.7250884"><ele>300.0</ele><time>2026-04-25T14:23:33.449Z</time></trkpt><trkpt lat="42.600367" lon="12.7252049"><ele>296.6666666666667</ele><time>2026-04-25T14:23:34.448Z</time></trkpt><trkpt lat="42.6002204" lon="12.7252883"><ele>293.33333333333337</ele><time>2026-04-25T14:23:35.448Z</time></trkpt><trkpt lat="42.6000639" lon="12.7253563"><ele>290.0</ele><time>2026-04-25T14:23:36.448Z</time></trkpt><trkpt lat="42.5998943" lon="12.7254126"><ele>290.0</ele><time>2026-04-25T14:23:37.448Z</time></trkpt><trkpt lat="42.5997401" lon="12.7254365"><ele>290.0</ele><time>2026-04-25T14:23:38.448Z</time></trkpt><trkpt lat="42.5995768" lon="12.725448"><ele>290.0</ele><time>2026-04-25T14:23:39.448Z</time></trkpt><trkpt lat="42.5994143" lon="12.7254312"><ele>290.6666666666667</ele><time>2026-04-25T14:23:40.449Z</time></trkpt><trkpt lat="42.5992579" lon="12.7254031"><ele>291.3333333333333</ele><time>2026-04-25T14:23:41.448Z</time></trkpt><trkpt lat="42.5990948" lon="12.7253389"><ele>292.0</ele><time>2026-04-25T14:23:42.449Z</time></trkpt><trkpt lat="42.5989516" lon="12.7252749"><ele>290.3333333333333</ele><time>2026-04-25T14:23:43.448Z</time></trkpt><trkpt lat="42.5988071" lon="12.7251657"><ele>288.6666666666667</ele><time>2026-04-25T14:23:44.448Z</time></trkpt><trkpt lat="42.5986688" lon="12.725037"><ele>287.0</ele><time>2026-04-25T14:23:45.448Z</time></trkpt><trkpt lat="42.5985437" lon="12.7248872"><ele>287.0</ele><time>2026-04-25T14:23:46.448Z</time></trkpt><trkpt lat="42.5984298" lon="12.7247221"><ele>287.0</ele><time>2026-04-25T14:23:47.448Z</time></trkpt><trkpt lat="42.5983223" lon="12.724538"><ele>287.0</ele><time>2026-04-25T14:23:48.448Z</time></trkpt><trkpt lat="42.5982204" lon="12.7243456"><ele>290.6666666666667</ele><time>2026-04-25T14:23:49.448Z</time></trkpt><trkpt lat="42.5981117" lon="12.7241466"><ele>294.3333333333333</ele><time>2026-04-25T14:23:50.448Z</time></trkpt><trkpt lat="42.5980149" lon="12.7239626"><ele>298.0</ele><time>2026-04-25T14:23:51.448Z</time></trkpt><trkpt lat="42.5979156" lon="12.7237628"><ele>293.66666666666663</ele><time>2026-04-25T14:23:52.448Z</time></trkpt><trkpt lat="42.5977976" lon="12.723557"><ele>289.3333333333333</ele><time>2026-04-25T14:23:53.448Z</time></trkpt><trkpt lat="42.5977001" lon="12.7233718"><ele>285.0</ele><time>2026-04-25T14:23:54.448Z</time></trkpt><trkpt lat="42.5975955" lon="12.7231778"><ele>285.0</ele><time>2026-04-25T14:23:55.448Z</time></trkpt><trkpt lat="42.5974995" lon="12.7229804"><ele>285.0</ele><time>2026-04-25T14:23:56.448Z</time></trkpt><trkpt lat="42.5974112" lon="12.7227776"><ele>285.0</ele><time>2026-04-25T14:23:57.448Z</time></trkpt><trkpt lat="42.597334" lon="12.7225516"><ele>287.3333333333333</ele><time>2026-04-25T14:23:58.449Z</time></trkpt><trkpt lat="42.5972765" lon="12.7223476"><ele>289.66666666666663</ele><time>2026-04-25T14:23:59.448Z</time></trkpt><trkpt lat="42.5972231" lon="12.7221246"><ele>292.0</ele><time>2026-04-25T14:24:00.448Z</time></trkpt><trkpt lat="42.5971866" lon="12.7218976"><ele>293.66666666666663</ele><time>2026-04-25T14:24:01.448Z</time></trkpt><trkpt lat="42.5971625" lon="12.7216604"><ele>295.3333333333333</ele><time>2026-04-25T14:24:02.448Z</time></trkpt><trkpt lat="42.5971464" lon="12.7214189"><ele>297.0</ele><time>2026-04-25T14:24:03.448Z</time></trkpt><trkpt lat="42.5971412" lon="12.7211773"><ele>293.3333333333333</ele><time>2026-04-25T14:24:04.449Z</time></trkpt><trkpt lat="42.5971567" lon="12.7209449"><ele>289.66666666666663</ele><time>2026-04-25T14:24:05.448Z</time></trkpt><trkpt lat="42.5971947" lon="12.7207049"><ele>286.0</ele><time>2026-04-25T14:24:06.449Z</time></trkpt><trkpt lat="42.5972506" lon="12.7205072"><ele>286.0</ele><time>2026-04-25T14:24:07.448Z</time></trkpt><trkpt lat="42.5973512" lon="12.7202926"><ele>286.0</ele><time>2026-04-25T14:24:08.448Z</time></trkpt><trkpt lat="42.597466" lon="12.7201008"><ele>286.0</ele><time>2026-04-25T14:24:09.448Z</time></trkpt><trkpt lat="42.5975768" lon="12.7199414"><ele>281.3333333333333</ele><time>2026-04-25T14:24:10.449Z</time></trkpt><trkpt lat="42.5976936" lon="12.7197701"><ele>276.6666666666667</ele><time>2026-04-25T14:24:11.449Z</time></trkpt><trkpt lat="42.5978008" lon="12.7196019"><ele>272.0</ele><time>2026-04-25T14:24:12.448Z</time></trkpt><trkpt lat="42.5978861" lon="12.7194061"><ele>278.33333333333337</ele><time>2026-04-25T14:24:13.448Z</time></trkpt><trkpt lat="42.5979492" lon="12.7191873"><ele>284.6666666666667</ele><time>2026-04-25T14:24:14.448Z</time></trkpt><trkpt lat="42.5979827" lon="12.7189821"><ele>291.0</ele><time>2026-04-25T14:24:15.448Z</time></trkpt><trkpt lat="42.5980075" lon="12.7187726"><ele>289.0</ele><time>2026-04-25T14:24:16.448Z</time></trkpt><trkpt lat="42.5980156" lon="12.718566"><ele>287.0</ele><time>2026-04-25T14:24:17.448Z</time></trkpt><trkpt lat="42.5980301" lon="12.7183763"><ele>285.0</ele><time>2026-04-25T14:24:18.448Z</time></trkpt><trkpt lat="42.5980665" lon="12.7182056"><ele>283.0</ele><time>2026-04-25T14:24:19.448Z</time></trkpt><trkpt lat="42.5981281" lon="12.7180504"><ele>283.0</ele><time>2026-04-25T14:24:20.448Z</time></trkpt><trkpt lat="42.5982119" lon="12.7179127"><ele>283.0</ele><time>2026-04-25T14:24:21.448Z</time></trkpt><trkpt lat="42.5983215" lon="12.7177661"><ele>283.0</ele><time>2026-04-25T14:24:22.448Z</time></trkpt><trkpt lat="42.5984198" lon="12.7176346"><ele>283.0</ele><time>2026-04-25T14:24:23.448Z</time></trkpt><trkpt lat="42.5985167" lon="12.7174787"><ele>279.66666666666663</ele><time>2026-04-25T14:24:24.449Z</time></trkpt><trkpt lat="42.5986268" lon="12.7173108"><ele>276.3333333333333</ele><time>2026-04-25T14:24:25.448Z</time></trkpt><trkpt lat="42.5987181" lon="12.717159"><ele>273.0</ele><time>2026-04-25T14:24:26.448Z</time></trkpt><trkpt lat="42.5988112" lon="12.7170025"><ele>274.5</ele><time>2026-04-25T14:24:27.448Z</time></trkpt><trkpt lat="42.5989118" lon="12.7168541"><ele>276.0</ele><time>2026-04-25T14:24:28.448Z</time></trkpt><trkpt lat="42.5990074" lon="12.7167184"><ele>277.5</ele><time>2026-04-25T14:24:29.448Z</time></trkpt><trkpt lat="42.5990962" lon="12.7165706"><ele>279.0</ele><time>2026-04-25T14:24:30.448Z</time></trkpt><trkpt lat="42.5991544" lon="12.7164269"><ele>279.0</ele><time>2026-04-25T14:24:31.448Z</time></trkpt><trkpt lat="42.5991995" lon="12.7162683"><ele>279.0</ele><time>2026-04-25T14:24:32.448Z</time></trkpt><trkpt lat="42.5992067" lon="12.7160913"><ele>279.0</ele><time>2026-04-25T14:24:33.448Z</time></trkpt><trkpt lat="42.5991879" lon="12.7159163"><ele>279.0</ele><time>2026-04-25T14:24:34.448Z</time></trkpt><trkpt lat="42.5991413" lon="12.7157526"><ele>278.6666666666667</ele><time>2026-04-25T14:24:35.448Z</time></trkpt><trkpt lat="42.5990637" lon="12.7155925"><ele>278.33333333333337</ele><time>2026-04-25T14:24:36.448Z</time></trkpt><trkpt lat="42.5989678" lon="12.7154342"><ele>278.0</ele><time>2026-04-25T14:24:37.448Z</time></trkpt><trkpt lat="42.5988516" lon="12.7152619"><ele>274.6666666666667</ele><time>2026-04-25T14:24:38.448Z</time></trkpt><trkpt lat="42.5987526" lon="12.7151069"><ele>271.3333333333333</ele><time>2026-04-25T14:24:39.448Z</time></trkpt><trkpt lat="42.5986538" lon="12.7149416"><ele>268.0</ele><time>2026-04-25T14:24:40.448Z</time></trkpt><trkpt lat="42.5985646" lon="12.7147667"><ele>268.0</ele><time>2026-04-25T14:24:41.448Z</time></trkpt><trkpt lat="42.5985104" lon="12.714605"><ele>268.0</ele><time>2026-04-25T14:24:42.448Z</time></trkpt><trkpt lat="42.5984835" lon="12.7144286"><ele>268.0</ele><time>2026-04-25T14:24:43.449Z</time></trkpt><trkpt lat="42.5984893" lon="12.7142447"><ele>268.0</ele><time>2026-04-25T14:24:44.448Z</time></trkpt><trkpt lat="42.5985096" lon="12.7140613"><ele>267.5</ele><time>2026-04-25T14:24:45.449Z</time></trkpt><trkpt lat="42.5985544" lon="12.7138612"><ele>267.0</ele><time>2026-04-25T14:24:46.448Z</time></trkpt><trkpt lat="42.5985904" lon="12.7136916"><ele>266.5</ele><time>2026-04-25T14:24:47.448Z</time></trkpt><trkpt lat="42.5986169" lon="12.7135131"><ele>266.0</ele><time>2026-04-25T14:24:48.448Z</time></trkpt><trkpt lat="42.5986233" lon="12.7133392"><ele>265.25</ele><time>2026-04-25T14:24:49.448Z</time></trkpt><trkpt lat="42.5985972" lon="12.7131647"><ele>264.5</ele><time>2026-04-25T14:24:50.448Z</time></trkpt><trkpt lat="42.5985297" lon="12.7130005"><ele>263.75</ele><time>2026-04-25T14:24:51.448Z</time></trkpt><trkpt lat="42.5984305" lon="12.7128573"><ele>263.0</ele><time>2026-04-25T14:24:52.448Z</time></trkpt><trkpt lat="42.5983026" lon="12.7127458"><ele>263.6666666666667</ele><time>2026-04-25T14:24:53.448Z</time></trkpt><trkpt lat="42.5981423" lon="12.7126665"><ele>264.3333333333333</ele><time>2026-04-25T14:24:54.448Z</time></trkpt><trkpt lat="42.597988" lon="12.7126223"><ele>265.0</ele><time>2026-04-25T14:24:55.448Z</time></trkpt><trkpt lat="42.5978141" lon="12.7125992"><ele>265.0</ele><time>2026-04-25T14:24:56.449Z</time></trkpt><trkpt lat="42.5976288" lon="12.7125875"><ele>265.0</ele><time>2026-04-25T14:24:57.448Z</time></trkpt><trkpt lat="42.5974723" lon="12.7125762"><ele>265.0</ele><time>2026-04-25T14:24:58.449Z</time></trkpt><trkpt lat="42.5972976" lon="12.7125701"><ele>265.0</ele><time>2026-04-25T14:24:59.448Z</time></trkpt><trkpt lat="42.5971414" lon="12.7125098"><ele>265.0</ele><time>2026-04-25T14:25:00.448Z</time></trkpt><trkpt lat="42.5969936" lon="12.7124319"><ele>265.0</ele><time>2026-04-25T14:25:01.449Z</time></trkpt><trkpt lat="42.5968388" lon="12.7123138"><ele>259.66666666666663</ele><time>2026-04-25T14:25:02.448Z</time></trkpt><trkpt lat="42.5967126" lon="12.7121977"><ele>254.33333333333331</ele><time>2026-04-25T14:25:03.449Z</time></trkpt><trkpt lat="42.5965897" lon="12.7120625"><ele>249.0</ele><time>2026-04-25T14:25:04.448Z</time></trkpt><trkpt lat="42.5964814" lon="12.7119216"><ele>250.5</ele><time>2026-04-25T14:25:05.449Z</time></trkpt><trkpt lat="42.5963798" lon="12.7117893"><ele>252.0</ele><time>2026-04-25T14:25:06.449Z</time></trkpt><trkpt lat="42.5962755" lon="12.7116683"><ele>253.5</ele><time>2026-04-25T14:25:07.448Z</time></trkpt><trkpt lat="42.5961656" lon="12.7115671"><ele>255.0</ele><time>2026-04-25T14:25:08.448Z</time></trkpt><trkpt lat="42.5960561" lon="12.7114855"><ele>255.0</ele><time>2026-04-25T14:25:09.448Z</time></trkpt><trkpt lat="42.5959343" lon="12.711432"><ele>255.0</ele><time>2026-04-25T14:25:10.448Z</time></trkpt><trkpt lat="42.5958279" lon="12.7114139"><ele>255.0</ele><time>2026-04-25T14:25:11.448Z</time></trkpt><trkpt lat="42.5957112" lon="12.7114156"><ele>255.0</ele><time>2026-04-25T14:25:12.448Z</time></trkpt><trkpt lat="42.5955775" lon="12.7114449"><ele>255.0</ele><time>2026-04-25T14:25:13.448Z</time></trkpt><trkpt lat="42.5954495" lon="12.7114843"><ele>255.0</ele><time>2026-04-25T14:25:14.448Z</time></trkpt><trkpt lat="42.5952993" lon="12.7115228"><ele>255.0</ele><time>2026-04-25T14:25:15.448Z</time></trkpt><trkpt lat="42.5951417" lon="12.7115647"><ele>255.0</ele><time>2026-04-25T14:25:16.449Z</time></trkpt><trkpt lat="42.5949836" lon="12.711625"><ele>254.33333333333331</ele><time>2026-04-25T14:25:17.448Z</time></trkpt><trkpt lat="42.5948247" lon="12.7116592"><ele>253.66666666666666</ele><time>2026-04-25T14:25:18.448Z</time></trkpt><trkpt lat="42.594682" lon="12.7116846"><ele>253.0</ele><time>2026-04-25T14:25:19.448Z</time></trkpt><trkpt lat="42.5945301" lon="12.711686"><ele>251.66666666666666</ele><time>2026-04-25T14:25:20.448Z</time></trkpt><trkpt lat="42.5943778" lon="12.7116595"><ele>250.33333333333331</ele><time>2026-04-25T14:25:21.448Z</time></trkpt><trkpt lat="42.594232" lon="12.7116041"><ele>249.0</ele><time>2026-04-25T14:25:22.448Z</time></trkpt><trkpt lat="42.594089" lon="12.7115175"><ele>249.0</ele><time>2026-04-25T14:25:23.448Z</time></trkpt><trkpt lat="42.5939487" lon="12.7114056"><ele>249.0</ele><time>2026-04-25T14:25:24.449Z</time></trkpt><trkpt lat="42.5938055" lon="12.7112807"><ele>249.0</ele><time>2026-04-25T14:25:25.448Z</time></trkpt><trkpt lat="42.593654" lon="12.7111372"><ele>250.33333333333331</ele><time>2026-04-25T14:25:26.448Z</time></trkpt><trkpt lat="42.593516" lon="12.7110185"><ele>251.66666666666666</ele><time>2026-04-25T14:25:27.448Z</time></trkpt><trkpt lat="42.5933711" lon="12.7108867"><ele>253.0</ele><time>2026-04-25T14:25:28.448Z</time></trkpt><trkpt lat="42.5932115" lon="12.7107594"><ele>253.0</ele><time>2026-04-25T14:25:29.448Z</time></trkpt><trkpt lat="42.5930679" lon="12.7106556"><ele>253.0</ele><time>2026-04-25T14:25:30.448Z</time></trkpt><trkpt lat="42.5928961" lon="12.7105553"><ele>253.0</ele><time>2026-04-25T14:25:31.449Z</time></trkpt><trkpt lat="42.5927434" lon="12.7104737"><ele>256.0</ele><time>2026-04-25T14:25:32.449Z</time></trkpt><trkpt lat="42.5925848" lon="12.7103958"><ele>259.0</ele><time>2026-04-25T14:25:33.448Z</time></trkpt><trkpt lat="42.5924213" lon="12.7103062"><ele>262.0</ele><time>2026-04-25T14:25:34.448Z</time></trkpt><trkpt lat="42.5922881" lon="12.7102024"><ele>262.0</ele><time>2026-04-25T14:25:35.448Z</time></trkpt><trkpt lat="42.592154" lon="12.7100773"><ele>262.0</ele><time>2026-04-25T14:25:36.448Z</time></trkpt><trkpt lat="42.5920315" lon="12.7099324"><ele>262.0</ele><time>2026-04-25T14:25:37.448Z</time></trkpt><trkpt lat="42.5919217" lon="12.7097797"><ele>258.3333333333333</ele><time>2026-04-25T14:25:38.449Z</time></trkpt><trkpt lat="42.5918154" lon="12.7096171"><ele>254.66666666666669</ele><time>2026-04-25T14:25:39.448Z</time></trkpt><trkpt lat="42.5917133" lon="12.7094796"><ele>251.0</ele><time>2026-04-25T14:25:40.448Z</time></trkpt><trkpt lat="42.5915934" lon="12.7093368"><ele>251.0</ele><time>2026-04-25T14:25:41.448Z</time></trkpt><trkpt lat="42.5914504" lon="12.7092021"><ele>251.0</ele><time>2026-04-25T14:25:42.448Z</time></trkpt><trkpt lat="42.5913077" lon="12.7091067"><ele>251.0</ele><time>2026-04-25T14:25:43.448Z</time></trkpt><trkpt lat="42.5911461" lon="12.709019"><ele>245.66666666666669</ele><time>2026-04-25T14:25:44.448Z</time></trkpt><trkpt lat="42.5909711" lon="12.7089378"><ele>240.33333333333331</ele><time>2026-04-25T14:25:45.448Z</time></trkpt><trkpt lat="42.5908222" lon="12.7088527"><ele>235.0</ele><time>2026-04-25T14:25:46.448Z</time></trkpt><trkpt lat="42.5906573" lon="12.70874"><ele>235.0</ele><time>2026-04-25T14:25:47.449Z</time></trkpt><trkpt lat="42.5905172" lon="12.7086257"><ele>235.0</ele><time>2026-04-25T14:25:48.448Z</time></trkpt><trkpt lat="42.5903547" lon="12.7085177"><ele>235.0</ele><time>2026-04-25T14:25:49.448Z</time></trkpt><trkpt lat="42.5902066" lon="12.7083694"><ele>235.33333333333331</ele><time>2026-04-25T14:25:50.448Z</time></trkpt><trkpt lat="42.5900858" lon="12.7082211"><ele>235.66666666666669</ele><time>2026-04-25T14:25:51.448Z</time></trkpt><trkpt lat="42.5899611" lon="12.7080549"><ele>236.0</ele><time>2026-04-25T14:25:52.448Z</time></trkpt><trkpt lat="42.5898355" lon="12.7078864"><ele>235.0</ele><time>2026-04-25T14:25:53.448Z</time></trkpt><trkpt lat="42.5896939" lon="12.7077373"><ele>234.0</ele><time>2026-04-25T14:25:54.448Z</time></trkpt><trkpt lat="42.5895227" lon="12.7076026"><ele>233.0</ele><time>2026-04-25T14:25:55.448Z</time></trkpt><trkpt lat="42.5893651" lon="12.7074932"><ele>233.0</ele><time>2026-04-25T14:25:56.448Z</time></trkpt><trkpt lat="42.5891879" lon="12.7073838"><ele>233.0</ele><time>2026-04-25T14:25:57.448Z</time></trkpt><trkpt lat="42.5889977" lon="12.7072642"><ele>233.0</ele><time>2026-04-25T14:25:58.448Z</time></trkpt><trkpt lat="42.5888306" lon="12.70716"><ele>234.0</ele><time>2026-04-25T14:25:59.448Z</time></trkpt><trkpt lat="42.5886598" lon="12.707058"><ele>235.0</ele><time>2026-04-25T14:26:00.448Z</time></trkpt><trkpt lat="42.5884857" lon="12.7069583"><ele>236.0</ele><time>2026-04-25T14:26:01.449Z</time></trkpt><trkpt lat="42.5883395" lon="12.7068857"><ele>236.0</ele><time>2026-04-25T14:26:02.448Z</time></trkpt><trkpt lat="42.5881853" lon="12.7067956"><ele>236.0</ele><time>2026-04-25T14:26:03.448Z</time></trkpt><trkpt lat="42.5880569" lon="12.7067217"><ele>236.0</ele><time>2026-04-25T14:26:04.448Z</time></trkpt><trkpt lat="42.5879304" lon="12.7066091"><ele>230.33333333333334</ele><time>2026-04-25T14:26:05.448Z</time></trkpt><trkpt lat="42.5878104" lon="12.7064671"><ele>224.66666666666669</ele><time>2026-04-25T14:26:06.449Z</time></trkpt><trkpt lat="42.5877114" lon="12.7063218"><ele>219.0</ele><time>2026-04-25T14:26:07.448Z</time></trkpt><trkpt lat="42.5876068" lon="12.7061633"><ele>222.66666666666669</ele><time>2026-04-25T14:26:08.449Z</time></trkpt><trkpt lat="42.587501" lon="12.7059965"><ele>226.33333333333334</ele><time>2026-04-25T14:26:09.448Z</time></trkpt><trkpt lat="42.5873929" lon="12.7058234"><ele>230.0</ele><time>2026-04-25T14:26:10.448Z</time></trkpt><trkpt lat="42.5872743" lon="12.7056384"><ele>230.0</ele><time>2026-04-25T14:26:11.448Z</time></trkpt><trkpt lat="42.5871702" lon="12.7054754"><ele>230.0</ele><time>2026-04-25T14:26:12.449Z</time></trkpt><trkpt lat="42.5870585" lon="12.7053086"><ele>230.0</ele><time>2026-04-25T14:26:13.448Z</time></trkpt><trkpt lat="42.5869357" lon="12.7051519"><ele>229.66666666666669</ele><time>2026-04-25T14:26:14.449Z</time></trkpt><trkpt lat="42.5868217" lon="12.705023"><ele>229.33333333333331</ele><time>2026-04-25T14:26:15.448Z</time></trkpt><trkpt lat="42.5866958" lon="12.7049154"><ele>229.0</ele><time>2026-04-25T14:26:16.448Z</time></trkpt><trkpt lat="42.5865745" lon="12.7047827"><ele>229.0</ele><time>2026-04-25T14:26:17.448Z</time></trkpt><trkpt lat="42.5864862" lon="12.7046487"><ele>229.0</ele><time>2026-04-25T14:26:18.449Z</time></trkpt><trkpt lat="42.5864049" lon="12.704487"><ele>229.0</ele><time>2026-04-25T14:26:19.448Z</time></trkpt><trkpt lat="42.5863202" lon="12.7043253"><ele>229.0</ele><time>2026-04-25T14:26:20.448Z</time></trkpt><trkpt lat="42.586224" lon="12.7041694"><ele>226.33333333333331</ele><time>2026-04-25T14:26:21.448Z</time></trkpt><trkpt lat="42.5861002" lon="12.7040244"><ele>223.66666666666669</ele><time>2026-04-25T14:26:22.448Z</time></trkpt><trkpt lat="42.585979" lon="12.703906"><ele>221.0</ele><time>2026-04-25T14:26:23.448Z</time></trkpt><trkpt lat="42.5858504" lon="12.7037926"><ele>221.0</ele><time>2026-04-25T14:26:24.448Z</time></trkpt><trkpt lat="42.5857268" lon="12.7036654"><ele>221.0</ele><time>2026-04-25T14:26:25.448Z</time></trkpt><trkpt lat="42.5856122" lon="12.7035314"><ele>221.0</ele><time>2026-04-25T14:26:26.448Z</time></trkpt><trkpt lat="42.5855018" lon="12.703378"><ele>219.75</ele><time>2026-04-25T14:26:27.448Z</time></trkpt><trkpt lat="42.5854231" lon="12.7032274"><ele>218.5</ele><time>2026-04-25T14:26:28.448Z</time></trkpt><trkpt lat="42.5853524" lon="12.7030554"><ele>217.25</ele><time>2026-04-25T14:26:29.448Z</time></trkpt><trkpt lat="42.5852869" lon="12.7028608"><ele>216.0</ele><time>2026-04-25T14:26:30.448Z</time></trkpt><trkpt lat="42.5852357" lon="12.7026749"><ele>216.0</ele><time>2026-04-25T14:26:31.448Z</time></trkpt><trkpt lat="42.5851782" lon="12.7024706"><ele>216.0</ele><time>2026-04-25T14:26:32.448Z</time></trkpt><trkpt lat="42.5851148" lon="12.7022462"><ele>216.0</ele><time>2026-04-25T14:26:33.449Z</time></trkpt><trkpt lat="42.5850474" lon="12.7020508"><ele>218.66666666666669</ele><time>2026-04-25T14:26:34.448Z</time></trkpt><trkpt lat="42.5849803" lon="12.7018333"><ele>221.33333333333334</ele><time>2026-04-25T14:26:35.448Z</time></trkpt><trkpt lat="42.5849079" lon="12.7016248"><ele>224.0</ele><time>2026-04-25T14:26:36.448Z</time></trkpt><trkpt lat="42.5848381" lon="12.7014187"><ele>224.0</ele><time>2026-04-25T14:26:37.448Z</time></trkpt><trkpt lat="42.5847603" lon="12.7012177"><ele>224.0</ele><time>2026-04-25T14:26:38.448Z</time></trkpt><trkpt lat="42.584692" lon="12.7010481"><ele>224.0</ele><time>2026-04-25T14:26:39.448Z</time></trkpt><trkpt lat="42.584618" lon="12.7008736"><ele>226.25</ele><time>2026-04-25T14:26:40.448Z</time></trkpt><trkpt lat="42.5845499" lon="12.7007165"><ele>228.5</ele><time>2026-04-25T14:26:41.449Z</time></trkpt><trkpt lat="42.5844867" lon="12.7005781"><ele>230.75</ele><time>2026-04-25T14:26:42.448Z</time></trkpt><trkpt lat="42.5844321" lon="12.7004449"><ele>233.0</ele><time>2026-04-25T14:26:43.448Z</time></trkpt><trkpt lat="42.5843822" lon="12.7003203"><ele>227.60000000000002</ele><time>2026-04-25T14:26:44.448Z</time></trkpt><trkpt lat="42.58434" lon="12.7001966"><ele>222.20000000000002</ele><time>2026-04-25T14:26:45.449Z</time></trkpt><trkpt lat="42.5842929" lon="12.7000614"><ele>216.8</ele><time>2026-04-25T14:26:46.448Z</time></trkpt><trkpt lat="42.5842463" lon="12.6999428"><ele>211.4</ele><time>2026-04-25T14:26:47.449Z</time></trkpt><trkpt lat="42.5841868" lon="12.6998113"><ele>206.0</ele><time>2026-04-25T14:26:48.448Z</time></trkpt><trkpt lat="42.5841273" lon="12.6996613"><ele>206.0</ele><time>2026-04-25T14:26:49.448Z</time></trkpt><trkpt lat="42.5840864" lon="12.6995116"><ele>206.0</ele><time>2026-04-25T14:26:50.448Z</time></trkpt><trkpt lat="42.5840473" lon="12.6993364"><ele>206.0</ele><time>2026-04-25T14:26:51.448Z</time></trkpt><trkpt lat="42.5840043" lon="12.6991473"><ele>206.0</ele><time>2026-04-25T14:26:52.448Z</time></trkpt><trkpt lat="42.5839512" lon="12.6989488"><ele>208.0</ele><time>2026-04-25T14:26:53.449Z</time></trkpt><trkpt lat="42.5838676" lon="12.6987352"><ele>210.0</ele><time>2026-04-25T14:26:54.448Z</time></trkpt><trkpt lat="42.5837823" lon="12.6985506"><ele>212.0</ele><time>2026-04-25T14:26:55.448Z</time></trkpt><trkpt lat="42.5836858" lon="12.6983538"><ele>210.33333333333334</ele><time>2026-04-25T14:26:56.448Z</time></trkpt><trkpt lat="42.5835844" lon="12.6981488"><ele>208.66666666666669</ele><time>2026-04-25T14:26:57.448Z</time></trkpt><trkpt lat="42.5834833" lon="12.6979341"><ele>207.0</ele><time>2026-04-25T14:26:58.448Z</time></trkpt><trkpt lat="42.5833835" lon="12.6977111"><ele>207.0</ele><time>2026-04-25T14:26:59.448Z</time></trkpt><trkpt lat="42.5832773" lon="12.6974801"><ele>207.0</ele><time>2026-04-25T14:27:00.448Z</time></trkpt><trkpt lat="42.5831749" lon="12.6972498"><ele>207.0</ele><time>2026-04-25T14:27:01.449Z</time></trkpt><trkpt lat="42.5830684" lon="12.697007"><ele>209.0</ele><time>2026-04-25T14:27:02.448Z</time></trkpt><trkpt lat="42.582974" lon="12.696794"><ele>211.0</ele><time>2026-04-25T14:27:03.448Z</time></trkpt><trkpt lat="42.5828725" lon="12.6965589"><ele>213.0</ele><time>2026-04-25T14:27:04.448Z</time></trkpt><trkpt lat="42.5827599" lon="12.6963121"><ele>209.66666666666669</ele><time>2026-04-25T14:27:05.448Z</time></trkpt><trkpt lat="42.5826593" lon="12.6960892"><ele>206.33333333333334</ele><time>2026-04-25T14:27:06.448Z</time></trkpt><trkpt lat="42.5825542" lon="12.6958485"><ele>203.0</ele><time>2026-04-25T14:27:07.448Z</time></trkpt><trkpt lat="42.5824507" lon="12.6956054"><ele>203.0</ele><time>2026-04-25T14:27:08.448Z</time></trkpt><trkpt lat="42.582348" lon="12.6953636"><ele>203.0</ele><time>2026-04-25T14:27:09.448Z</time></trkpt><trkpt lat="42.5822348" lon="12.6951071"><ele>203.0</ele><time>2026-04-25T14:27:10.448Z</time></trkpt><trkpt lat="42.5821402" lon="12.6948877"><ele>203.66666666666669</ele><time>2026-04-25T14:27:11.449Z</time></trkpt><trkpt lat="42.5820352" lon="12.6946508"><ele>204.33333333333331</ele><time>2026-04-25T14:27:12.448Z</time></trkpt><trkpt lat="42.5819309" lon="12.6944136"><ele>205.0</ele><time>2026-04-25T14:27:13.448Z</time></trkpt><trkpt lat="42.5818285" lon="12.6941769"><ele>204.0</ele><time>2026-04-25T14:27:14.448Z</time></trkpt><trkpt lat="42.5817257" lon="12.6939408"><ele>203.0</ele><time>2026-04-25T14:27:15.448Z</time></trkpt><trkpt lat="42.5816196" lon="12.6937076"><ele>202.0</ele><time>2026-04-25T14:27:16.448Z</time></trkpt><trkpt lat="42.5815162" lon="12.6934751"><ele>202.0</ele><time>2026-04-25T14:27:17.448Z</time></trkpt><trkpt lat="42.5814062" lon="12.6932293"><ele>202.0</ele><time>2026-04-25T14:27:18.448Z</time></trkpt><trkpt lat="42.581312" lon="12.6930109"><ele>202.0</ele><time>2026-04-25T14:27:19.448Z</time></trkpt><trkpt lat="42.5812104" lon="12.692781"><ele>198.66666666666666</ele><time>2026-04-25T14:27:20.448Z</time></trkpt><trkpt lat="42.5811024" lon="12.6925376"><ele>195.33333333333331</ele><time>2026-04-25T14:27:21.448Z</time></trkpt><trkpt lat="42.5810059" lon="12.6923258"><ele>192.0</ele><time>2026-04-25T14:27:22.448Z</time></trkpt><trkpt lat="42.5809036" lon="12.6920929"><ele>193.33333333333331</ele><time>2026-04-25T14:27:23.448Z</time></trkpt><trkpt lat="42.5808063" lon="12.691861"><ele>194.66666666666666</ele><time>2026-04-25T14:27:24.449Z</time></trkpt><trkpt lat="42.5807143" lon="12.6916266"><ele>196.0</ele><time>2026-04-25T14:27:25.448Z</time></trkpt><trkpt lat="42.5806263" lon="12.6913726"><ele>196.0</ele><time>2026-04-25T14:27:26.448Z</time></trkpt><trkpt lat="42.5805529" lon="12.6911429"><ele>196.0</ele><time>2026-04-25T14:27:27.448Z</time></trkpt><trkpt lat="42.5804851" lon="12.6908951"><ele>196.0</ele><time>2026-04-25T14:27:28.448Z</time></trkpt><trkpt lat="42.5804171" lon="12.6906438"><ele>196.33333333333331</ele><time>2026-04-25T14:27:29.449Z</time></trkpt><trkpt lat="42.5803538" lon="12.69039"><ele>196.66666666666669</ele><time>2026-04-25T14:27:30.448Z</time></trkpt><trkpt lat="42.5802909" lon="12.6901118"><ele>197.0</ele><time>2026-04-25T14:27:31.448Z</time></trkpt><trkpt lat="42.5802396" lon="12.689865"><ele>196.0</ele><time>2026-04-25T14:27:32.448Z</time></trkpt><trkpt lat="42.5801913" lon="12.6896026"><ele>195.0</ele><time>2026-04-25T14:27:33.448Z</time></trkpt><trkpt lat="42.580147" lon="12.689322"><ele>194.0</ele><time>2026-04-25T14:27:34.449Z</time></trkpt><trkpt lat="42.5801091" lon="12.6890759"><ele>194.0</ele><time>2026-04-25T14:27:35.448Z</time></trkpt><trkpt lat="42.580076" lon="12.6888093"><ele>194.0</ele><time>2026-04-25T14:27:36.448Z</time></trkpt><trkpt lat="42.58005" lon="12.6885293"><ele>194.0</ele><time>2026-04-25T14:27:37.448Z</time></trkpt><trkpt lat="42.5800307" lon="12.6882809"><ele>194.0</ele><time>2026-04-25T14:27:38.449Z</time></trkpt><trkpt lat="42.5800192" lon="12.6880072"><ele>194.0</ele><time>2026-04-25T14:27:39.448Z</time></trkpt><trkpt lat="42.5800126" lon="12.6877725"><ele>194.0</ele><time>2026-04-25T14:27:40.448Z</time></trkpt><trkpt lat="42.5800077" lon="12.6875255"><ele>194.33333333333334</ele><time>2026-04-25T14:27:41.449Z</time></trkpt><trkpt lat="42.580011" lon="12.687266"><ele>194.66666666666669</ele><time>2026-04-25T14:27:42.449Z</time></trkpt><trkpt lat="42.5800212" lon="12.6870431"><ele>195.0</ele><time>2026-04-25T14:27:43.448Z</time></trkpt><trkpt lat="42.5800358" lon="12.686806"><ele>195.33333333333331</ele><time>2026-04-25T14:27:44.448Z</time></trkpt><trkpt lat="42.5800541" lon="12.6865719"><ele>195.66666666666666</ele><time>2026-04-25T14:27:45.448Z</time></trkpt><trkpt lat="42.5800811" lon="12.6863398"><ele>196.0</ele><time>2026-04-25T14:27:46.448Z</time></trkpt><trkpt lat="42.580108" lon="12.6861005"><ele>196.0</ele><time>2026-04-25T14:27:47.448Z</time></trkpt><trkpt lat="42.5801334" lon="12.6858992"><ele>196.0</ele><time>2026-04-25T14:27:48.449Z</time></trkpt><trkpt lat="42.5801681" lon="12.6856923"><ele>196.0</ele><time>2026-04-25T14:27:49.448Z</time></trkpt><trkpt lat="42.5802101" lon="12.6854811"><ele>196.0</ele><time>2026-04-25T14:27:50.448Z</time></trkpt><trkpt lat="42.5802498" lon="12.6853076"><ele>196.0</ele><time>2026-04-25T14:27:51.448Z</time></trkpt><trkpt lat="42.5802876" lon="12.6851384"><ele>196.0</ele><time>2026-04-25T14:27:52.448Z</time></trkpt><trkpt lat="42.5803276" lon="12.6849705"><ele>196.0</ele><time>2026-04-25T14:27:53.448Z</time></trkpt><trkpt lat="42.5803652" lon="12.6848317"><ele>196.4</ele><time>2026-04-25T14:27:54.449Z</time></trkpt><trkpt lat="42.5804099" lon="12.6846933"><ele>196.8</ele><time>2026-04-25T14:27:55.448Z</time></trkpt><trkpt lat="42.58046" lon="12.6845642"><ele>197.20000000000002</ele><time>2026-04-25T14:27:56.448Z</time></trkpt><trkpt lat="42.5805193" lon="12.6844436"><ele>197.60000000000002</ele><time>2026-04-25T14:27:57.448Z</time></trkpt><trkpt lat="42.5805945" lon="12.6843217"><ele>198.0</ele><time>2026-04-25T14:27:58.448Z</time></trkpt><trkpt lat="42.5806684" lon="12.6842237"><ele>195.5</ele><time>2026-04-25T14:27:59.448Z</time></trkpt><trkpt lat="42.5807591" lon="12.6841279"><ele>193.0</ele><time>2026-04-25T14:28:00.448Z</time></trkpt><trkpt lat="42.5808608" lon="12.6840448"><ele>190.5</ele><time>2026-04-25T14:28:01.448Z</time></trkpt><trkpt lat="42.5809695" lon="12.6839757"><ele>188.0</ele><time>2026-04-25T14:28:02.448Z</time></trkpt><trkpt lat="42.5810875" lon="12.6839137"><ele>190.0</ele><time>2026-04-25T14:28:03.448Z</time></trkpt><trkpt lat="42.581205" lon="12.6838549"><ele>192.0</ele><time>2026-04-25T14:28:04.448Z</time></trkpt><trkpt lat="42.5813227" lon="12.6837977"><ele>194.0</ele><time>2026-04-25T14:28:05.449Z</time></trkpt><trkpt lat="42.5814456" lon="12.6837365"><ele>196.0</ele><time>2026-04-25T14:28:06.448Z</time></trkpt><trkpt lat="42.5815468" lon="12.6836798"><ele>196.0</ele><time>2026-04-25T14:28:07.448Z</time></trkpt><trkpt lat="42.5816433" lon="12.6836094"><ele>196.0</ele><time>2026-04-25T14:28:08.449Z</time></trkpt><trkpt lat="42.5817309" lon="12.6835124"><ele>196.0</ele><time>2026-04-25T14:28:09.448Z</time></trkpt><trkpt lat="42.5817984" lon="12.6834079"><ele>196.0</ele><time>2026-04-25T14:28:10.448Z</time></trkpt><trkpt lat="42.5818517" lon="12.6832758"><ele>196.0</ele><time>2026-04-25T14:28:11.448Z</time></trkpt><trkpt lat="42.5818778" lon="12.6831246"><ele>194.0</ele><time>2026-04-25T14:28:12.448Z</time></trkpt><trkpt lat="42.5818763" lon="12.6829656"><ele>192.0</ele><time>2026-04-25T14:28:13.448Z</time></trkpt><trkpt lat="42.5818422" lon="12.682797"><ele>190.0</ele><time>2026-04-25T14:28:14.448Z</time></trkpt><trkpt lat="42.5817813" lon="12.6826617"><ele>188.0</ele><time>2026-04-25T14:28:15.448Z</time></trkpt><trkpt lat="42.5816892" lon="12.6825291"><ele>187.25</ele><time>2026-04-25T14:28:16.449Z</time></trkpt><trkpt lat="42.5815831" lon="12.6824073"><ele>186.5</ele><time>2026-04-25T14:28:17.448Z</time></trkpt><trkpt lat="42.5814744" lon="12.682296"><ele>185.75</ele><time>2026-04-25T14:28:18.448Z</time></trkpt><trkpt lat="42.5813645" lon="12.6821909"><ele>185.0</ele><time>2026-04-25T14:28:19.448Z</time></trkpt><trkpt lat="42.5812504" lon="12.682083"><ele>183.75</ele><time>2026-04-25T14:28:20.448Z</time></trkpt><trkpt lat="42.5811331" lon="12.6819729"><ele>182.5</ele><time>2026-04-25T14:28:21.448Z</time></trkpt><trkpt lat="42.5810029" lon="12.6818529"><ele>181.25</ele><time>2026-04-25T14:28:22.448Z</time></trkpt><trkpt lat="42.5808832" lon="12.6817435"><ele>180.0</ele><time>2026-04-25T14:28:23.448Z</time></trkpt><trkpt lat="42.5807532" lon="12.6816212"><ele>178.33333333333334</ele><time>2026-04-25T14:28:24.448Z</time></trkpt><trkpt lat="42.580614" lon="12.6814902"><ele>176.66666666666669</ele><time>2026-04-25T14:28:25.448Z</time></trkpt><trkpt lat="42.5804942" lon="12.6813851"><ele>175.0</ele><time>2026-04-25T14:28:26.448Z</time></trkpt><trkpt lat="42.5803679" lon="12.681284"><ele>173.75</ele><time>2026-04-25T14:28:27.448Z</time></trkpt><trkpt lat="42.5802422" lon="12.6811908"><ele>172.5</ele><time>2026-04-25T14:28:28.449Z</time></trkpt><trkpt lat="42.5801167" lon="12.6811023"><ele>171.25</ele><time>2026-04-25T14:28:29.448Z</time></trkpt><trkpt lat="42.5799782" lon="12.6810116"><ele>170.0</ele><time>2026-04-25T14:28:30.448Z</time></trkpt><trkpt lat="42.5798516" lon="12.6809376"><ele>169.66666666666666</ele><time>2026-04-25T14:28:31.449Z</time></trkpt><trkpt lat="42.57971" lon="12.6808649"><ele>169.33333333333334</ele><time>2026-04-25T14:28:32.448Z</time></trkpt><trkpt lat="42.579562" lon="12.6808002"><ele>169.0</ele><time>2026-04-25T14:28:33.448Z</time></trkpt><trkpt lat="42.5794039" lon="12.6807424"><ele>168.0</ele><time>2026-04-25T14:28:34.448Z</time></trkpt><trkpt lat="42.5792439" lon="12.6806953"><ele>167.0</ele><time>2026-04-25T14:28:35.449Z</time></trkpt><trkpt lat="42.5790806" lon="12.680658"><ele>166.0</ele><time>2026-04-25T14:28:36.448Z</time></trkpt><trkpt lat="42.578917" lon="12.6806317"><ele>166.0</ele><time>2026-04-25T14:28:37.448Z</time></trkpt><trkpt lat="42.5787429" lon="12.6806163"><ele>166.0</ele><time>2026-04-25T14:28:38.449Z</time></trkpt><trkpt lat="42.5785926" lon="12.6806144"><ele>166.0</ele><time>2026-04-25T14:28:39.448Z</time></trkpt><trkpt lat="42.5784335" lon="12.6806232"><ele>165.33333333333334</ele><time>2026-04-25T14:28:40.448Z</time></trkpt><trkpt lat="42.5782649" lon="12.6806461"><ele>164.66666666666666</ele><time>2026-04-25T14:28:41.448Z</time></trkpt><trkpt lat="42.5781167" lon="12.6806759"><ele>164.0</ele><time>2026-04-25T14:28:42.448Z</time></trkpt><trkpt lat="42.5779494" lon="12.6807236"><ele>163.66666666666666</ele><time>2026-04-25T14:28:43.449Z</time></trkpt><trkpt lat="42.5778027" lon="12.6807779"><ele>163.33333333333334</ele><time>2026-04-25T14:28:44.448Z</time></trkpt><trkpt lat="42.577651" lon="12.6808454"><ele>163.0</ele><time>2026-04-25T14:28:45.448Z</time></trkpt><trkpt lat="42.5774922" lon="12.6809285"><ele>163.0</ele><time>2026-04-25T14:28:46.448Z</time></trkpt><trkpt lat="42.5773563" lon="12.6810091"><ele>163.0</ele><time>2026-04-25T14:28:47.448Z</time></trkpt><trkpt lat="42.5772139" lon="12.6811018"><ele>163.0</ele><time>2026-04-25T14:28:48.448Z</time></trkpt><trkpt lat="42.5770756" lon="12.6812046"><ele>163.0</ele><time>2026-04-25T14:28:49.448Z</time></trkpt><trkpt lat="42.5769398" lon="12.6813194"><ele>163.0</ele><time>2026-04-25T14:28:50.448Z</time></trkpt><trkpt lat="42.5768053" lon="12.6814495"><ele>163.0</ele><time>2026-04-25T14:28:51.448Z</time></trkpt><trkpt lat="42.5766742" lon="12.6815904"><ele>163.0</ele><time>2026-04-25T14:28:52.448Z</time></trkpt><trkpt lat="42.576544" lon="12.6817433"><ele>163.0</ele><time>2026-04-25T14:28:53.448Z</time></trkpt><trkpt lat="42.5764049" lon="12.6819199"><ele>163.0</ele><time>2026-04-25T14:28:54.449Z</time></trkpt><trkpt lat="42.576282" lon="12.6820864"><ele>162.66666666666669</ele><time>2026-04-25T14:28:55.448Z</time></trkpt><trkpt lat="42.5761509" lon="12.6822709"><ele>162.33333333333334</ele><time>2026-04-25T14:28:56.448Z</time></trkpt><trkpt lat="42.5760123" lon="12.6824707"><ele>162.0</ele><time>2026-04-25T14:28:57.448Z</time></trkpt><trkpt lat="42.5758891" lon="12.682651"><ele>162.33333333333334</ele><time>2026-04-25T14:28:58.448Z</time></trkpt><trkpt lat="42.5757454" lon="12.6828612"><ele>162.66666666666669</ele><time>2026-04-25T14:28:59.448Z</time></trkpt><trkpt lat="42.5756149" lon="12.6830561"><ele>163.0</ele><time>2026-04-25T14:29:00.448Z</time></trkpt><trkpt lat="42.5754746" lon="12.6832648"><ele>163.0</ele><time>2026-04-25T14:29:01.448Z</time></trkpt><trkpt lat="42.575325" lon="12.6834884"><ele>163.0</ele><time>2026-04-25T14:29:02.448Z</time></trkpt><trkpt lat="42.5751931" lon="12.6836856"><ele>163.0</ele><time>2026-04-25T14:29:03.448Z</time></trkpt><trkpt lat="42.5750523" lon="12.6838982"><ele>163.66666666666669</ele><time>2026-04-25T14:29:04.448Z</time></trkpt><trkpt lat="42.5749101" lon="12.6841105"><ele>164.33333333333334</ele><time>2026-04-25T14:29:05.449Z</time></trkpt><trkpt lat="42.5747669" lon="12.6843256"><ele>165.0</ele><time>2026-04-25T14:29:06.448Z</time></trkpt><trkpt lat="42.5746152" lon="12.6845515"><ele>166.66666666666666</ele><time>2026-04-25T14:29:07.448Z</time></trkpt><trkpt lat="42.5744812" lon="12.6847496"><ele>168.33333333333331</ele><time>2026-04-25T14:29:08.449Z</time></trkpt><trkpt lat="42.5743384" lon="12.6849591"><ele>170.0</ele><time>2026-04-25T14:29:09.448Z</time></trkpt><trkpt lat="42.5741895" lon="12.6851763"><ele>172.0</ele><time>2026-04-25T14:29:10.448Z</time></trkpt><trkpt lat="42.5740572" lon="12.6853602"><ele>174.0</ele><time>2026-04-25T14:29:11.448Z</time></trkpt><trkpt lat="42.5739148" lon="12.6855511"><ele>176.0</ele><time>2026-04-25T14:29:12.448Z</time></trkpt><trkpt lat="42.5737618" lon="12.6857458"><ele>178.66666666666666</ele><time>2026-04-25T14:29:13.448Z</time></trkpt><trkpt lat="42.5736259" lon="12.6859104"><ele>181.33333333333334</ele><time>2026-04-25T14:29:14.448Z</time></trkpt><trkpt lat="42.5734691" lon="12.6860907"><ele>184.0</ele><time>2026-04-25T14:29:15.448Z</time></trkpt><trkpt lat="42.5733294" lon="12.6862446"><ele>188.66666666666669</ele><time>2026-04-25T14:29:16.448Z</time></trkpt><trkpt lat="42.5731772" lon="12.686404"><ele>193.33333333333334</ele><time>2026-04-25T14:29:17.448Z</time></trkpt><trkpt lat="42.5730098" lon="12.6865675"><ele>198.0</ele><time>2026-04-25T14:29:18.448Z</time></trkpt><trkpt lat="42.5728609" lon="12.6867043"><ele>201.33333333333331</ele><time>2026-04-25T14:29:19.448Z</time></trkpt><trkpt lat="42.5726987" lon="12.6868442"><ele>204.66666666666666</ele><time>2026-04-25T14:29:20.449Z</time></trkpt><trkpt lat="42.572534" lon="12.6869797"><ele>208.0</ele><time>2026-04-25T14:29:21.448Z</time></trkpt><trkpt lat="42.5723672" lon="12.6871099"><ele>213.0</ele><time>2026-04-25T14:29:22.448Z</time></trkpt><trkpt lat="42.5721864" lon="12.6872414"><ele>218.0</ele><time>2026-04-25T14:29:23.448Z</time></trkpt><trkpt lat="42.5720259" lon="12.6873531"><ele>223.0</ele><time>2026-04-25T14:29:24.448Z</time></trkpt><trkpt lat="42.5718507" lon="12.6874668"><ele>225.66666666666666</ele><time>2026-04-25T14:29:25.448Z</time></trkpt><trkpt lat="42.5716605" lon="12.6875827"><ele>228.33333333333331</ele><time>2026-04-25T14:29:26.448Z</time></trkpt><trkpt lat="42.5714894" lon="12.6876798"><ele>231.0</ele><time>2026-04-25T14:29:27.448Z</time></trkpt><trkpt lat="42.5713058" lon="12.687776"><ele>241.66666666666669</ele><time>2026-04-25T14:29:28.448Z</time></trkpt><trkpt lat="42.5711066" lon="12.6878715"><ele>252.33333333333334</ele><time>2026-04-25T14:29:29.449Z</time></trkpt><trkpt lat="42.5709292" lon="12.687949"><ele>263.0</ele><time>2026-04-25T14:29:30.449Z</time></trkpt><trkpt lat="42.5707374" lon="12.688025"><ele>263.0</ele><time>2026-04-25T14:29:31.449Z</time></trkpt><trkpt lat="42.5705433" lon="12.6880935"><ele>263.0</ele><time>2026-04-25T14:29:32.448Z</time></trkpt><trkpt lat="42.5703473" lon="12.6881548"><ele>263.0</ele><time>2026-04-25T14:29:33.448Z</time></trkpt><trkpt lat="42.5701363" lon="12.6882105"><ele>268.33333333333337</ele><time>2026-04-25T14:29:34.448Z</time></trkpt><trkpt lat="42.5699494" lon="12.688254"><ele>273.6666666666667</ele><time>2026-04-25T14:29:35.448Z</time></trkpt><trkpt lat="42.5697458" lon="12.6882929"><ele>279.0</ele><time>2026-04-25T14:29:36.448Z</time></trkpt><trkpt lat="42.5695428" lon="12.6883226"><ele>283.6666666666667</ele><time>2026-04-25T14:29:37.448Z</time></trkpt><trkpt lat="42.5693383" lon="12.6883453"><ele>288.33333333333337</ele><time>2026-04-25T14:29:38.448Z</time></trkpt><trkpt lat="42.5691328" lon="12.6883592"><ele>293.0</ele><time>2026-04-25T14:29:39.449Z</time></trkpt><trkpt lat="42.5601561" lon="12.6893541"><ele>269.33333333333337</ele><time>2026-04-25T14:30:23.448Z</time></trkpt><trkpt lat="42.5599445" lon="12.6894755"><ele>245.66666666666669</ele><time>2026-04-25T14:30:24.448Z</time></trkpt><trkpt lat="42.5597441" lon="12.6895836"><ele>222.0</ele><time>2026-04-25T14:30:25.449Z</time></trkpt><trkpt lat="42.5595503" lon="12.6896759"><ele>222.0</ele><time>2026-04-25T14:30:26.448Z</time></trkpt><trkpt lat="42.5593423" lon="12.6897978"><ele>222.0</ele><time>2026-04-25T14:30:27.448Z</time></trkpt><trkpt lat="42.5591615" lon="12.6899094"><ele>222.0</ele><time>2026-04-25T14:30:28.448Z</time></trkpt><trkpt lat="42.5589755" lon="12.6900229"><ele>222.0</ele><time>2026-04-25T14:30:29.448Z</time></trkpt><trkpt lat="42.5587784" lon="12.6901553"><ele>222.0</ele><time>2026-04-25T14:30:30.449Z</time></trkpt><trkpt lat="42.5586087" lon="12.6902804"><ele>222.0</ele><time>2026-04-25T14:30:31.448Z</time></trkpt><trkpt lat="42.5584348" lon="12.690416"><ele>223.0</ele><time>2026-04-25T14:30:32.449Z</time></trkpt><trkpt lat="42.558253" lon="12.6905688"><ele>224.0</ele><time>2026-04-25T14:30:33.449Z</time></trkpt><trkpt lat="42.5581006" lon="12.6906971"><ele>225.0</ele><time>2026-04-25T14:30:34.448Z</time></trkpt><trkpt lat="42.5579359" lon="12.6908461"><ele>225.0</ele><time>2026-04-25T14:30:35.448Z</time></trkpt><trkpt lat="42.5578023" lon="12.6909725"><ele>225.0</ele><time>2026-04-25T14:30:36.448Z</time></trkpt><trkpt lat="42.5576657" lon="12.6911077"><ele>225.0</ele><time>2026-04-25T14:30:37.448Z</time></trkpt><trkpt lat="42.5575278" lon="12.6912548"><ele>226.33333333333331</ele><time>2026-04-25T14:30:38.448Z</time></trkpt><trkpt lat="42.5574078" lon="12.6913898"><ele>227.66666666666666</ele><time>2026-04-25T14:30:39.448Z</time></trkpt><trkpt lat="42.5572836" lon="12.6915439"><ele>229.0</ele><time>2026-04-25T14:30:40.448Z</time></trkpt><trkpt lat="42.5571629" lon="12.6917084"><ele>229.0</ele><time>2026-04-25T14:30:41.448Z</time></trkpt><trkpt lat="42.5570418" lon="12.6918767"><ele>229.0</ele><time>2026-04-25T14:30:42.448Z</time></trkpt><trkpt lat="42.5569268" lon="12.6920523"><ele>229.0</ele><time>2026-04-25T14:30:43.448Z</time></trkpt><trkpt lat="42.5568167" lon="12.692229"><ele>229.66666666666666</ele><time>2026-04-25T14:30:44.448Z</time></trkpt><trkpt lat="42.5567111" lon="12.692408"><ele>230.33333333333331</ele><time>2026-04-25T14:30:45.448Z</time></trkpt><trkpt lat="42.5566059" lon="12.6926019"><ele>231.0</ele><time>2026-04-25T14:30:46.448Z</time></trkpt><trkpt lat="42.5565072" lon="12.6927905"><ele>234.0</ele><time>2026-04-25T14:30:47.448Z</time></trkpt><trkpt lat="42.5564243" lon="12.6929775"><ele>237.0</ele><time>2026-04-25T14:30:48.448Z</time></trkpt><trkpt lat="42.5563441" lon="12.6931561"><ele>240.0</ele><time>2026-04-25T14:30:49.448Z</time></trkpt><trkpt lat="42.5562786" lon="12.6933265"><ele>240.0</ele><time>2026-04-25T14:30:50.448Z</time></trkpt><trkpt lat="42.5562198" lon="12.6934855"><ele>240.0</ele><time>2026-04-25T14:30:51.448Z</time></trkpt><trkpt lat="42.5561543" lon="12.6936293"><ele>240.0</ele><time>2026-04-25T14:30:52.448Z</time></trkpt><trkpt lat="42.5560821" lon="12.6937601"><ele>240.0</ele><time>2026-04-25T14:30:53.449Z</time></trkpt><trkpt lat="42.556016" lon="12.6938669"><ele>238.6</ele><time>2026-04-25T14:30:54.448Z</time></trkpt><trkpt lat="42.5559341" lon="12.6939455"><ele>237.2</ele><time>2026-04-25T14:30:55.448Z</time></trkpt><trkpt lat="42.555851" lon="12.694011"><ele>235.8</ele><time>2026-04-25T14:30:56.448Z</time></trkpt><trkpt lat="42.5557647" lon="12.6940502"><ele>234.4</ele><time>2026-04-25T14:30:57.448Z</time></trkpt><trkpt lat="42.5556695" lon="12.6940553"><ele>233.0</ele><time>2026-04-25T14:30:58.448Z</time></trkpt><trkpt lat="42.5555772" lon="12.6940518"><ele>233.0</ele><time>2026-04-25T14:30:59.448Z</time></trkpt><trkpt lat="42.5554853" lon="12.6940394"><ele>233.0</ele><time>2026-04-25T14:31:00.448Z</time></trkpt><trkpt lat="42.5553977" lon="12.6940006"><ele>233.0</ele><time>2026-04-25T14:31:01.448Z</time></trkpt><trkpt lat="42.555319" lon="12.6939475"><ele>233.0</ele><time>2026-04-25T14:31:02.448Z</time></trkpt><trkpt lat="42.5552405" lon="12.6938683"><ele>233.0</ele><time>2026-04-25T14:31:03.448Z</time></trkpt><trkpt lat="42.5551752" lon="12.6937667"><ele>231.25</ele><time>2026-04-25T14:31:04.448Z</time></trkpt><trkpt lat="42.5551115" lon="12.6936442"><ele>229.5</ele><time>2026-04-25T14:31:05.448Z</time></trkpt><trkpt lat="42.5550549" lon="12.6934877"><ele>227.75</ele><time>2026-04-25T14:31:06.448Z</time></trkpt><trkpt lat="42.555029" lon="12.6933069"><ele>226.0</ele><time>2026-04-25T14:31:07.449Z</time></trkpt><trkpt lat="42.555021" lon="12.6931238"><ele>225.5</ele><time>2026-04-25T14:31:08.448Z</time></trkpt><trkpt lat="42.5550313" lon="12.6929436"><ele>225.0</ele><time>2026-04-25T14:31:09.448Z</time></trkpt><trkpt lat="42.5550757" lon="12.6927852"><ele>224.5</ele><time>2026-04-25T14:31:10.448Z</time></trkpt><trkpt lat="42.5551387" lon="12.6926395"><ele>224.0</ele><time>2026-04-25T14:31:11.448Z</time></trkpt><trkpt lat="42.5552192" lon="12.6925063"><ele>224.25</ele><time>2026-04-25T14:31:12.449Z</time></trkpt><trkpt lat="42.5553192" lon="12.6924091"><ele>224.5</ele><time>2026-04-25T14:31:13.448Z</time></trkpt><trkpt lat="42.5554317" lon="12.6923278"><ele>224.75</ele><time>2026-04-25T14:31:14.449Z</time></trkpt><trkpt lat="42.5555596" lon="12.6922575"><ele>225.0</ele><time>2026-04-25T14:31:15.448Z</time></trkpt><trkpt lat="42.555697" lon="12.6921956"><ele>225.0</ele><time>2026-04-25T14:31:16.448Z</time></trkpt><trkpt lat="42.5558435" lon="12.6921283"><ele>225.0</ele><time>2026-04-25T14:31:17.448Z</time></trkpt><trkpt lat="42.5559892" lon="12.6920659"><ele>225.0</ele><time>2026-04-25T14:31:18.448Z</time></trkpt><trkpt lat="42.5561441" lon="12.6919931"><ele>225.0</ele><time>2026-04-25T14:31:19.448Z</time></trkpt><trkpt lat="42.556296" lon="12.6919178"><ele>225.0</ele><time>2026-04-25T14:31:20.448Z</time></trkpt><trkpt lat="42.556454" lon="12.6918423"><ele>225.0</ele><time>2026-04-25T14:31:21.448Z</time></trkpt><trkpt lat="42.556615" lon="12.6917706"><ele>225.0</ele><time>2026-04-25T14:31:22.449Z</time></trkpt><trkpt lat="42.556777" lon="12.6917007"><ele>225.0</ele><time>2026-04-25T14:31:23.449Z</time></trkpt><trkpt lat="42.5569385" lon="12.6916296"><ele>225.0</ele><time>2026-04-25T14:31:24.448Z</time></trkpt><trkpt lat="42.5571005" lon="12.6915622"><ele>226.33333333333331</ele><time>2026-04-25T14:31:25.448Z</time></trkpt><trkpt lat="42.5572629" lon="12.6914965"><ele>227.66666666666666</ele><time>2026-04-25T14:31:26.448Z</time></trkpt><trkpt lat="42.5574254" lon="12.6914332"><ele>229.0</ele><time>2026-04-25T14:31:27.448Z</time></trkpt><trkpt lat="42.5575704" lon="12.6913096"><ele>187.0</ele><time>2026-04-25T14:31:28.448Z</time></trkpt><trkpt lat="42.5587301" lon="12.6853174"><ele>182.66666666666669</ele><time>2026-04-25T14:32:15.448Z</time></trkpt><trkpt lat="42.5586451" lon="12.6853131"><ele>178.33333333333334</ele><time>2026-04-25T14:32:17.449Z</time></trkpt><trkpt lat="42.5585775" lon="12.685406"><ele>174.0</ele><time>2026-04-25T14:32:19.448Z</time></trkpt><trkpt lat="42.5585536" lon="12.6854909"><ele>169.66666666666666</ele><time>2026-04-25T14:32:20.448Z</time></trkpt><trkpt lat="42.5585363" lon="12.6855819"><ele>165.33333333333331</ele><time>2026-04-25T14:32:21.448Z</time></trkpt><trkpt lat="42.5585245" lon="12.6856742"><ele>161.0</ele><time>2026-04-25T14:32:22.449Z</time></trkpt><trkpt lat="42.5584824" lon="12.6857645"><ele>161.0</ele><time>2026-04-25T14:32:23.448Z</time></trkpt><trkpt lat="42.5584265" lon="12.6858684"><ele>161.0</ele><time>2026-04-25T14:32:24.449Z</time></trkpt><trkpt lat="42.5583527" lon="12.6859696"><ele>161.0</ele><time>2026-04-25T14:32:25.449Z</time></trkpt><trkpt lat="42.5582742" lon="12.6860637"><ele>161.0</ele><time>2026-04-25T14:32:26.448Z</time></trkpt><trkpt lat="42.5581976" lon="12.6861486"><ele>161.0</ele><time>2026-04-25T14:32:27.448Z</time></trkpt><trkpt lat="42.5581093" lon="12.6862379"><ele>161.5</ele><time>2026-04-25T14:32:28.449Z</time></trkpt><trkpt lat="42.558014" lon="12.6863104"><ele>162.0</ele><time>2026-04-25T14:32:29.448Z</time></trkpt><trkpt lat="42.5579082" lon="12.6863822"><ele>162.5</ele><time>2026-04-25T14:32:30.448Z</time></trkpt><trkpt lat="42.5577937" lon="12.6864444"><ele>163.0</ele><time>2026-04-25T14:32:31.449Z</time></trkpt><trkpt lat="42.5576724" lon="12.6864917"><ele>163.0</ele><time>2026-04-25T14:32:32.448Z</time></trkpt><trkpt lat="42.557544" lon="12.6865278"><ele>163.0</ele><time>2026-04-25T14:32:33.448Z</time></trkpt><trkpt lat="42.557409" lon="12.6865622"><ele>163.0</ele><time>2026-04-25T14:32:34.448Z</time></trkpt><trkpt lat="42.5572671" lon="12.6865973"><ele>163.0</ele><time>2026-04-25T14:32:35.448Z</time></trkpt><trkpt lat="42.5571224" lon="12.6866361"><ele>163.0</ele><time>2026-04-25T14:32:36.448Z</time></trkpt><trkpt lat="42.556977" lon="12.6866757"><ele>163.0</ele><time>2026-04-25T14:32:37.448Z</time></trkpt><trkpt lat="42.5568324" lon="12.6867089"><ele>163.0</ele><time>2026-04-25T14:32:38.448Z</time></trkpt><trkpt lat="42.5566929" lon="12.6867396"><ele>163.0</ele><time>2026-04-25T14:32:39.448Z</time></trkpt><trkpt lat="42.5565538" lon="12.6867697"><ele>163.0</ele><time>2026-04-25T14:32:40.448Z</time></trkpt><trkpt lat="42.5564144" lon="12.6868075"><ele>163.0</ele><time>2026-04-25T14:32:41.448Z</time></trkpt><trkpt lat="42.5562716" lon="12.6868387"><ele>163.0</ele><time>2026-04-25T14:32:42.449Z</time></trkpt><trkpt lat="42.5561336" lon="12.686874"><ele>163.0</ele><time>2026-04-25T14:32:43.448Z</time></trkpt><trkpt lat="42.5559906" lon="12.6869075"><ele>163.75</ele><time>2026-04-25T14:32:44.448Z</time></trkpt><trkpt lat="42.5558488" lon="12.6869414"><ele>164.5</ele><time>2026-04-25T14:32:45.448Z</time></trkpt><trkpt lat="42.5557087" lon="12.6869762"><ele>165.25</ele><time>2026-04-25T14:32:46.449Z</time></trkpt><trkpt lat="42.5555649" lon="12.6870087"><ele>166.0</ele><time>2026-04-25T14:32:47.448Z</time></trkpt><trkpt lat="42.5554229" lon="12.687054"><ele>165.75</ele><time>2026-04-25T14:32:48.448Z</time></trkpt><trkpt lat="42.5552794" lon="12.6871094"><ele>165.5</ele><time>2026-04-25T14:32:49.449Z</time></trkpt><trkpt lat="42.5551406" lon="12.6871627"><ele>165.25</ele><time>2026-04-25T14:32:50.448Z</time></trkpt><trkpt lat="42.5549956" lon="12.6872284"><ele>165.0</ele><time>2026-04-25T14:32:51.448Z</time></trkpt><trkpt lat="42.5548539" lon="12.687303"><ele>165.0</ele><time>2026-04-25T14:32:52.448Z</time></trkpt><trkpt lat="42.5547124" lon="12.6873792"><ele>165.0</ele><time>2026-04-25T14:32:53.448Z</time></trkpt><trkpt lat="42.554574" lon="12.6874596"><ele>165.0</ele><time>2026-04-25T14:32:54.448Z</time></trkpt><trkpt lat="42.5544385" lon="12.6875488"><ele>165.25</ele><time>2026-04-25T14:32:55.448Z</time></trkpt><trkpt lat="42.5543011" lon="12.6876297"><ele>165.5</ele><time>2026-04-25T14:32:56.449Z</time></trkpt><trkpt lat="42.5541638" lon="12.6877158"><ele>165.75</ele><time>2026-04-25T14:32:57.448Z</time></trkpt><trkpt lat="42.5540313" lon="12.6877972"><ele>166.0</ele><time>2026-04-25T14:32:58.449Z</time></trkpt><trkpt lat="42.5539001" lon="12.6878974"><ele>166.33333333333334</ele><time>2026-04-25T14:32:59.448Z</time></trkpt><trkpt lat="42.5537732" lon="12.6880099"><ele>166.66666666666666</ele><time>2026-04-25T14:33:00.448Z</time></trkpt><trkpt lat="42.5536509" lon="12.6881405"><ele>167.0</ele><time>2026-04-25T14:33:01.448Z</time></trkpt><trkpt lat="42.5535273" lon="12.6882896"><ele>167.0</ele><time>2026-04-25T14:33:02.449Z</time></trkpt><trkpt lat="42.5534152" lon="12.6884456"><ele>167.0</ele><time>2026-04-25T14:33:03.448Z</time></trkpt><trkpt lat="42.5533072" lon="12.6886049"><ele>167.0</ele><time>2026-04-25T14:33:04.448Z</time></trkpt><trkpt lat="42.5532125" lon="12.6887757"><ele>167.0</ele><time>2026-04-25T14:33:05.448Z</time></trkpt><trkpt lat="42.5531284" lon="12.6889579"><ele>167.0</ele><time>2026-04-25T14:33:06.448Z</time></trkpt><trkpt lat="42.553065" lon="12.689142"><ele>167.0</ele><time>2026-04-25T14:33:07.449Z</time></trkpt><trkpt lat="42.5530147" lon="12.6893407"><ele>168.0</ele><time>2026-04-25T14:33:08.448Z</time></trkpt><trkpt lat="42.5529826" lon="12.6895397"><ele>169.0</ele><time>2026-04-25T14:33:09.448Z</time></trkpt><trkpt lat="42.552957" lon="12.6897398"><ele>170.0</ele><time>2026-04-25T14:33:10.448Z</time></trkpt><trkpt lat="42.5529345" lon="12.6899424"><ele>170.0</ele><time>2026-04-25T14:33:11.449Z</time></trkpt><trkpt lat="42.5529101" lon="12.6901427"><ele>170.0</ele><time>2026-04-25T14:33:12.448Z</time></trkpt><trkpt lat="42.5528988" lon="12.6903521"><ele>170.0</ele><time>2026-04-25T14:33:13.448Z</time></trkpt><trkpt lat="42.5528931" lon="12.6905561"><ele>170.66666666666666</ele><time>2026-04-25T14:33:14.449Z</time></trkpt><trkpt lat="42.5528737" lon="12.6907628"><ele>171.33333333333334</ele><time>2026-04-25T14:33:15.448Z</time></trkpt><trkpt lat="42.5528539" lon="12.6909729"><ele>172.0</ele><time>2026-04-25T14:33:16.448Z</time></trkpt><trkpt lat="42.5528442" lon="12.6911844"><ele>169.66666666666669</ele><time>2026-04-25T14:33:17.448Z</time></trkpt><trkpt lat="42.5528224" lon="12.6914003"><ele>167.33333333333334</ele><time>2026-04-25T14:33:18.448Z</time></trkpt><trkpt lat="42.5528083" lon="12.6916145"><ele>165.0</ele><time>2026-04-25T14:33:19.448Z</time></trkpt><trkpt lat="42.5527954" lon="12.6918217"><ele>165.33333333333334</ele><time>2026-04-25T14:33:20.448Z</time></trkpt><trkpt lat="42.5527782" lon="12.6920426"><ele>165.66666666666669</ele><time>2026-04-25T14:33:21.448Z</time></trkpt><trkpt lat="42.5527618" lon="12.6922674"><ele>166.0</ele><time>2026-04-25T14:33:22.448Z</time></trkpt><trkpt lat="42.5527423" lon="12.6924853"><ele>166.0</ele><time>2026-04-25T14:33:23.449Z</time></trkpt><trkpt lat="42.5527135" lon="12.6927015"><ele>166.0</ele><time>2026-04-25T14:33:24.448Z</time></trkpt><trkpt lat="42.5527026" lon="12.6929117"><ele>166.0</ele><time>2026-04-25T14:33:25.448Z</time></trkpt><trkpt lat="42.5526901" lon="12.6931212"><ele>168.0</ele><time>2026-04-25T14:33:26.448Z</time></trkpt><trkpt lat="42.5526718" lon="12.6933266"><ele>170.0</ele><time>2026-04-25T14:33:27.448Z</time></trkpt><trkpt lat="42.552652" lon="12.693533"><ele>172.0</ele><time>2026-04-25T14:33:28.448Z</time></trkpt><trkpt lat="42.5526329" lon="12.6937366"><ele>174.25</ele><time>2026-04-25T14:33:29.448Z</time></trkpt><trkpt lat="42.5526145" lon="12.6939434"><ele>176.5</ele><time>2026-04-25T14:33:30.448Z</time></trkpt><trkpt lat="42.5525963" lon="12.6941455"><ele>178.75</ele><time>2026-04-25T14:33:31.449Z</time></trkpt><trkpt lat="42.5525764" lon="12.6943352"><ele>181.0</ele><time>2026-04-25T14:33:32.448Z</time></trkpt><trkpt lat="42.5525602" lon="12.6945208"><ele>181.25</ele><time>2026-04-25T14:33:33.449Z</time></trkpt><trkpt lat="42.5525448" lon="12.6947115"><ele>181.5</ele><time>2026-04-25T14:33:34.448Z</time></trkpt><trkpt lat="42.5525427" lon="12.694903"><ele>181.75</ele><time>2026-04-25T14:33:35.448Z</time></trkpt><trkpt lat="42.5525505" lon="12.6950914"><ele>182.0</ele><time>2026-04-25T14:33:36.448Z</time></trkpt><trkpt lat="42.552568" lon="12.6952799"><ele>182.0</ele><time>2026-04-25T14:33:37.448Z</time></trkpt><trkpt lat="42.5525968" lon="12.6954658"><ele>182.0</ele><time>2026-04-25T14:33:38.448Z</time></trkpt><trkpt lat="42.5526376" lon="12.6956514"><ele>182.0</ele><time>2026-04-25T14:33:39.448Z</time></trkpt><trkpt lat="42.5526758" lon="12.6958273"><ele>182.0</ele><time>2026-04-25T14:33:40.448Z</time></trkpt><trkpt lat="42.5527208" lon="12.6959889"><ele>182.2</ele><time>2026-04-25T14:33:41.448Z</time></trkpt><trkpt lat="42.5527641" lon="12.6961354"><ele>182.39999999999998</ele><time>2026-04-25T14:33:42.448Z</time></trkpt><trkpt lat="42.5528059" lon="12.6962764"><ele>182.60000000000002</ele><time>2026-04-25T14:33:43.448Z</time></trkpt><trkpt lat="42.5528494" lon="12.6964156"><ele>182.8</ele><time>2026-04-25T14:33:44.448Z</time></trkpt><trkpt lat="42.5528808" lon="12.6965268"><ele>183.0</ele><time>2026-04-25T14:33:45.448Z</time></trkpt><trkpt lat="42.5529083" lon="12.6966433"><ele>182.8</ele><time>2026-04-25T14:33:46.448Z</time></trkpt><trkpt lat="42.5529352" lon="12.6967672"><ele>182.60000000000002</ele><time>2026-04-25T14:33:47.449Z</time></trkpt><trkpt lat="42.5529692" lon="12.696889"><ele>182.39999999999998</ele><time>2026-04-25T14:33:48.449Z</time></trkpt><trkpt lat="42.5530003" lon="12.6970135"><ele>182.2</ele><time>2026-04-25T14:33:49.448Z</time></trkpt><trkpt lat="42.5530331" lon="12.697139"><ele>182.0</ele><time>2026-04-25T14:33:50.448Z</time></trkpt><trkpt lat="42.5530713" lon="12.6972621"><ele>182.0</ele><time>2026-04-25T14:33:51.448Z</time></trkpt><trkpt lat="42.5531065" lon="12.6973892"><ele>182.0</ele><time>2026-04-25T14:33:52.448Z</time></trkpt><trkpt lat="42.5531408" lon="12.697517"><ele>182.0</ele><time>2026-04-25T14:33:53.448Z</time></trkpt><trkpt lat="42.5531714" lon="12.6976488"><ele>182.0</ele><time>2026-04-25T14:33:54.449Z</time></trkpt><trkpt lat="42.5532068" lon="12.697778"><ele>182.0</ele><time>2026-04-25T14:33:55.448Z</time></trkpt><trkpt lat="42.5532439" lon="12.6979099"><ele>182.39999999999998</ele><time>2026-04-25T14:33:56.448Z</time></trkpt><trkpt lat="42.5532775" lon="12.6980378"><ele>182.79999999999998</ele><time>2026-04-25T14:33:57.448Z</time></trkpt><trkpt lat="42.5533091" lon="12.6981715"><ele>183.2</ele><time>2026-04-25T14:33:58.449Z</time></trkpt><trkpt lat="42.5533435" lon="12.6983039"><ele>183.6</ele><time>2026-04-25T14:33:59.448Z</time></trkpt><trkpt lat="42.5533736" lon="12.6984425"><ele>184.0</ele><time>2026-04-25T14:34:00.448Z</time></trkpt><trkpt lat="42.553397" lon="12.6985804"><ele>186.39999999999998</ele><time>2026-04-25T14:34:01.448Z</time></trkpt><trkpt lat="42.5534187" lon="12.6987191"><ele>188.8</ele><time>2026-04-25T14:34:02.449Z</time></trkpt><trkpt lat="42.5534499" lon="12.6988598"><ele>191.2</ele><time>2026-04-25T14:34:03.449Z</time></trkpt><trkpt lat="42.5534771" lon="12.6990075"><ele>193.60000000000002</ele><time>2026-04-25T14:34:04.448Z</time></trkpt><trkpt lat="42.5534961" lon="12.6991502"><ele>196.0</ele><time>2026-04-25T14:34:05.448Z</time></trkpt><trkpt lat="42.5535199" lon="12.6992869"><ele>194.60000000000002</ele><time>2026-04-25T14:34:06.448Z</time></trkpt><trkpt lat="42.5535305" lon="12.6994255"><ele>193.2</ele><time>2026-04-25T14:34:07.448Z</time></trkpt><trkpt lat="42.5535362" lon="12.6995729"><ele>191.8</ele><time>2026-04-25T14:34:08.448Z</time></trkpt><trkpt lat="42.5535376" lon="12.6997154"><ele>190.39999999999998</ele><time>2026-04-25T14:34:09.448Z</time></trkpt><trkpt lat="42.5535323" lon="12.6998572"><ele>189.0</ele><time>2026-04-25T14:34:10.448Z</time></trkpt><trkpt lat="42.5535319" lon="12.6999993"><ele>189.0</ele><time>2026-04-25T14:34:11.448Z</time></trkpt><trkpt lat="42.5535314" lon="12.7001453"><ele>189.0</ele><time>2026-04-25T14:34:12.448Z</time></trkpt><trkpt lat="42.5535361" lon="12.7002892"><ele>189.0</ele><time>2026-04-25T14:34:13.448Z</time></trkpt><trkpt lat="42.5535438" lon="12.7004344"><ele>189.0</ele><time>2026-04-25T14:34:14.448Z</time></trkpt><trkpt lat="42.5535559" lon="12.7005797"><ele>189.0</ele><time>2026-04-25T14:34:15.448Z</time></trkpt><trkpt lat="42.5535744" lon="12.7007176"><ele>188.79999999999998</ele><time>2026-04-25T14:34:16.448Z</time></trkpt><trkpt lat="42.5535974" lon="12.7008653"><ele>188.6</ele><time>2026-04-25T14:34:17.449Z</time></trkpt><trkpt lat="42.5536137" lon="12.7010103"><ele>188.4</ele><time>2026-04-25T14:34:18.448Z</time></trkpt><trkpt lat="42.5536343" lon="12.7011623"><ele>188.2</ele><time>2026-04-25T14:34:19.448Z</time></trkpt><trkpt lat="42.5536664" lon="12.7013119"><ele>188.0</ele><time>2026-04-25T14:34:20.448Z</time></trkpt><trkpt lat="42.5536879" lon="12.7014553"><ele>192.8</ele><time>2026-04-25T14:34:21.448Z</time></trkpt><trkpt lat="42.5537155" lon="12.7016039"><ele>197.60000000000002</ele><time>2026-04-25T14:34:22.449Z</time></trkpt><trkpt lat="42.5537282" lon="12.7017505"><ele>202.39999999999998</ele><time>2026-04-25T14:34:23.448Z</time></trkpt><trkpt lat="42.5537369" lon="12.701893"><ele>207.2</ele><time>2026-04-25T14:34:24.448Z</time></trkpt><trkpt lat="42.5537285" lon="12.7020388"><ele>212.0</ele><time>2026-04-25T14:34:25.448Z</time></trkpt><trkpt lat="42.5537204" lon="12.7021809"><ele>214.8</ele><time>2026-04-25T14:34:26.448Z</time></trkpt><trkpt lat="42.5537168" lon="12.7023299"><ele>217.6</ele><time>2026-04-25T14:34:27.449Z</time></trkpt><trkpt lat="42.5537246" lon="12.7024754"><ele>220.40000000000003</ele><time>2026-04-25T14:34:28.448Z</time></trkpt><trkpt lat="42.5537267" lon="12.7026239"><ele>223.20000000000002</ele><time>2026-04-25T14:34:29.449Z</time></trkpt><trkpt lat="42.5537319" lon="12.7027753"><ele>226.0</ele><time>2026-04-25T14:34:30.448Z</time></trkpt><trkpt lat="42.5537432" lon="12.7029276"><ele>227.0</ele><time>2026-04-25T14:34:31.448Z</time></trkpt><trkpt lat="42.553757" lon="12.7030807"><ele>228.0</ele><time>2026-04-25T14:34:32.448Z</time></trkpt><trkpt lat="42.5537699" lon="12.7032403"><ele>229.0</ele><time>2026-04-25T14:34:33.448Z</time></trkpt><trkpt lat="42.5537975" lon="12.7033952"><ele>230.0</ele><time>2026-04-25T14:34:34.448Z</time></trkpt><trkpt lat="42.5538142" lon="12.703549"><ele>226.5</ele><time>2026-04-25T14:34:35.448Z</time></trkpt><trkpt lat="42.5538325" lon="12.7037071"><ele>223.0</ele><time>2026-04-25T14:34:36.449Z</time></trkpt><trkpt lat="42.5538465" lon="12.7038655"><ele>219.5</ele><time>2026-04-25T14:34:37.448Z</time></trkpt><trkpt lat="42.5538681" lon="12.7040285"><ele>216.0</ele><time>2026-04-25T14:34:38.448Z</time></trkpt><trkpt lat="42.5538941" lon="12.7041894"><ele>216.0</ele><time>2026-04-25T14:34:39.448Z</time></trkpt><trkpt lat="42.5539235" lon="12.7043387"><ele>216.0</ele><time>2026-04-25T14:34:40.448Z</time></trkpt><trkpt lat="42.5539708" lon="12.7044832"><ele>216.0</ele><time>2026-04-25T14:34:41.448Z</time></trkpt><trkpt lat="42.5540404" lon="12.7046136"><ele>216.0</ele><time>2026-04-25T14:34:42.448Z</time></trkpt><trkpt lat="42.5541141" lon="12.7047354"><ele>211.25</ele><time>2026-04-25T14:34:43.448Z</time></trkpt><trkpt lat="42.5542016" lon="12.7048477"><ele>206.5</ele><time>2026-04-25T14:34:44.448Z</time></trkpt><trkpt lat="42.554305" lon="12.7049376"><ele>201.75</ele><time>2026-04-25T14:34:45.448Z</time></trkpt><trkpt lat="42.5544127" lon="12.7050127"><ele>197.0</ele><time>2026-04-25T14:34:46.449Z</time></trkpt><trkpt lat="42.5545281" lon="12.7050813"><ele>197.0</ele><time>2026-04-25T14:34:47.448Z</time></trkpt><trkpt lat="42.554668" lon="12.7051371"><ele>197.0</ele><time>2026-04-25T14:34:48.448Z</time></trkpt><trkpt lat="42.5547881" lon="12.7051979"><ele>197.0</ele><time>2026-04-25T14:34:49.448Z</time></trkpt><trkpt lat="42.5549003" lon="12.7052773"><ele>197.0</ele><time>2026-04-25T14:34:50.449Z</time></trkpt><trkpt lat="42.5550025" lon="12.7053599"><ele>197.0</ele><time>2026-04-25T14:34:51.448Z</time></trkpt><trkpt lat="42.5551119" lon="12.7054578"><ele>197.0</ele><time>2026-04-25T14:34:52.448Z</time></trkpt><trkpt lat="42.5551947" lon="12.7055583"><ele>197.0</ele><time>2026-04-25T14:34:53.448Z</time></trkpt><trkpt lat="42.5552692" lon="12.705672"><ele>197.0</ele><time>2026-04-25T14:34:54.448Z</time></trkpt><trkpt lat="42.5553284" lon="12.7058101"><ele>202.0</ele><time>2026-04-25T14:34:55.448Z</time></trkpt><trkpt lat="42.5553776" lon="12.7059686"><ele>207.0</ele><time>2026-04-25T14:34:56.448Z</time></trkpt><trkpt lat="42.55541" lon="12.7061222"><ele>212.0</ele><time>2026-04-25T14:34:57.448Z</time></trkpt><trkpt lat="42.5554249" lon="12.7062856"><ele>217.0</ele><time>2026-04-25T14:34:58.449Z</time></trkpt><trkpt lat="42.5554162" lon="12.7064472"><ele>217.0</ele><time>2026-04-25T14:34:59.448Z</time></trkpt><trkpt lat="42.5554047" lon="12.706607"><ele>217.0</ele><time>2026-04-25T14:35:00.448Z</time></trkpt><trkpt lat="42.5553915" lon="12.7067763"><ele>217.0</ele><time>2026-04-25T14:35:01.448Z</time></trkpt><trkpt lat="42.5553752" lon="12.7069526"><ele>217.0</ele><time>2026-04-25T14:35:02.449Z</time></trkpt><trkpt lat="42.5553606" lon="12.7071213"><ele>213.75</ele><time>2026-04-25T14:35:03.448Z</time></trkpt><trkpt lat="42.5553458" lon="12.7073085"><ele>210.5</ele><time>2026-04-25T14:35:04.448Z</time></trkpt><trkpt lat="42.5553422" lon="12.7074901"><ele>207.25</ele><time>2026-04-25T14:35:05.448Z</time></trkpt><trkpt lat="42.5553463" lon="12.7076755"><ele>204.0</ele><time>2026-04-25T14:35:06.448Z</time></trkpt><trkpt lat="42.5553665" lon="12.7078632"><ele>203.25</ele><time>2026-04-25T14:35:07.448Z</time></trkpt><trkpt lat="42.5553671" lon="12.7080485"><ele>202.5</ele><time>2026-04-25T14:35:08.448Z</time></trkpt><trkpt lat="42.5553841" lon="12.7082286"><ele>201.75</ele><time>2026-04-25T14:35:09.449Z</time></trkpt><trkpt lat="42.5553946" lon="12.7084031"><ele>201.0</ele><time>2026-04-25T14:35:10.448Z</time></trkpt><trkpt lat="42.5554042" lon="12.7085765"><ele>209.75</ele><time>2026-04-25T14:35:11.448Z</time></trkpt><trkpt lat="42.5554129" lon="12.7087547"><ele>218.5</ele><time>2026-04-25T14:35:12.448Z</time></trkpt><trkpt lat="42.5554186" lon="12.7089355"><ele>227.25</ele><time>2026-04-25T14:35:13.448Z</time></trkpt><trkpt lat="42.5554087" lon="12.7091175"><ele>236.0</ele><time>2026-04-25T14:35:14.448Z</time></trkpt><trkpt lat="42.555376" lon="12.7092906"><ele>228.0</ele><time>2026-04-25T14:35:15.449Z</time></trkpt><trkpt lat="42.5553375" lon="12.7094672"><ele>220.0</ele><time>2026-04-25T14:35:16.448Z</time></trkpt><trkpt lat="42.5553005" lon="12.7096452"><ele>212.0</ele><time>2026-04-25T14:35:17.448Z</time></trkpt><trkpt lat="42.5552559" lon="12.7098291"><ele>204.0</ele><time>2026-04-25T14:35:18.448Z</time></trkpt><trkpt lat="42.5552112" lon="12.7100085"><ele>204.0</ele><time>2026-04-25T14:35:19.448Z</time></trkpt><trkpt lat="42.5551672" lon="12.7101747"><ele>204.0</ele><time>2026-04-25T14:35:20.449Z</time></trkpt><trkpt lat="42.5551263" lon="12.7103386"><ele>204.0</ele><time>2026-04-25T14:35:21.448Z</time></trkpt><trkpt lat="42.5550799" lon="12.7105046"><ele>204.0</ele><time>2026-04-25T14:35:22.448Z</time></trkpt><trkpt lat="42.5550327" lon="12.7106758"><ele>205.0</ele><time>2026-04-25T14:35:23.448Z</time></trkpt><trkpt lat="42.5549827" lon="12.7108438"><ele>206.0</ele><time>2026-04-25T14:35:24.448Z</time></trkpt><trkpt lat="42.5549367" lon="12.7110166"><ele>207.0</ele><time>2026-04-25T14:35:25.448Z</time></trkpt><trkpt lat="42.5549041" lon="12.7111983"><ele>208.0</ele><time>2026-04-25T14:35:26.448Z</time></trkpt><trkpt lat="42.5548658" lon="12.7113711"><ele>210.5</ele><time>2026-04-25T14:35:27.448Z</time></trkpt><trkpt lat="42.5548175" lon="12.7115345"><ele>213.0</ele><time>2026-04-25T14:35:28.449Z</time></trkpt><trkpt lat="42.5547749" lon="12.7116744"><ele>215.5</ele><time>2026-04-25T14:35:29.448Z</time></trkpt><trkpt lat="42.554738" lon="12.7118148"><ele>218.0</ele><time>2026-04-25T14:35:30.448Z</time></trkpt><trkpt lat="42.5546937" lon="12.7119511"><ele>217.4</ele><time>2026-04-25T14:35:31.449Z</time></trkpt><trkpt lat="42.5546398" lon="12.7120695"><ele>216.8</ele><time>2026-04-25T14:35:32.448Z</time></trkpt><trkpt lat="42.5545833" lon="12.7121969"><ele>216.2</ele><time>2026-04-25T14:35:33.448Z</time></trkpt><trkpt lat="42.5545148" lon="12.7123106"><ele>215.6</ele><time>2026-04-25T14:35:34.448Z</time></trkpt><trkpt lat="42.5544488" lon="12.7124292"><ele>215.0</ele><time>2026-04-25T14:35:35.448Z</time></trkpt><trkpt lat="42.5543839" lon="12.7125509"><ele>215.0</ele><time>2026-04-25T14:35:36.448Z</time></trkpt><trkpt lat="42.5543183" lon="12.7126739"><ele>215.0</ele><time>2026-04-25T14:35:37.448Z</time></trkpt><trkpt lat="42.5542526" lon="12.7127939"><ele>215.0</ele><time>2026-04-25T14:35:38.448Z</time></trkpt><trkpt lat="42.5541832" lon="12.7129054"><ele>215.0</ele><time>2026-04-25T14:35:39.448Z</time></trkpt><trkpt lat="42.5541275" lon="12.7130294"><ele>215.0</ele><time>2026-04-25T14:35:40.449Z</time></trkpt><trkpt lat="42.5540812" lon="12.7131605"><ele>219.0</ele><time>2026-04-25T14:35:41.448Z</time></trkpt><trkpt lat="42.5540426" lon="12.7132916"><ele>223.0</ele><time>2026-04-25T14:35:42.448Z</time></trkpt><trkpt lat="42.5540575" lon="12.7134445"><ele>227.0</ele><time>2026-04-25T14:35:43.448Z</time></trkpt><trkpt lat="42.554063" lon="12.7135902"><ele>231.0</ele><time>2026-04-25T14:35:44.448Z</time></trkpt><trkpt lat="42.5540804" lon="12.7137371"><ele>235.0</ele><time>2026-04-25T14:35:45.448Z</time></trkpt><trkpt lat="42.5542423" lon="12.7151041"><ele>235.0</ele><time>2026-04-25T14:35:54.448Z</time></trkpt><trkpt lat="42.5542678" lon="12.7152373"><ele>235.0</ele><time>2026-04-25T14:35:55.449Z</time></trkpt><trkpt lat="42.5543021" lon="12.715359"><ele>235.0</ele><time>2026-04-25T14:35:56.448Z</time></trkpt><trkpt lat="42.5543487" lon="12.7154402"><ele>235.0</ele><time>2026-04-25T14:35:57.448Z</time></trkpt><trkpt lat="42.5544096" lon="12.7155182"><ele>235.0</ele><time>2026-04-25T14:35:58.449Z</time></trkpt><trkpt lat="42.5544758" lon="12.7156098"><ele>235.4</ele><time>2026-04-25T14:35:59.448Z</time></trkpt><trkpt lat="42.5545493" lon="12.715695"><ele>235.8</ele><time>2026-04-25T14:36:00.449Z</time></trkpt><trkpt lat="42.5546303" lon="12.7157857"><ele>236.2</ele><time>2026-04-25T14:36:01.448Z</time></trkpt><trkpt lat="42.5547147" lon="12.7158802"><ele>236.6</ele><time>2026-04-25T14:36:02.448Z</time></trkpt><trkpt lat="42.5548052" lon="12.715978"><ele>237.0</ele><time>2026-04-25T14:36:03.448Z</time></trkpt><trkpt lat="42.5549037" lon="12.7160763"><ele>232.0</ele><time>2026-04-25T14:36:04.449Z</time></trkpt><trkpt lat="42.5550044" lon="12.7161727"><ele>227.0</ele><time>2026-04-25T14:36:05.448Z</time></trkpt><trkpt lat="42.5551054" lon="12.7162723"><ele>222.0</ele><time>2026-04-25T14:36:06.448Z</time></trkpt><trkpt lat="42.5552079" lon="12.7163751"><ele>217.0</ele><time>2026-04-25T14:36:07.448Z</time></trkpt><trkpt lat="42.5553073" lon="12.716481"><ele>220.75</ele><time>2026-04-25T14:36:08.448Z</time></trkpt><trkpt lat="42.5553993" lon="12.7165925"><ele>224.5</ele><time>2026-04-25T14:36:09.449Z</time></trkpt><trkpt lat="42.5554967" lon="12.7166966"><ele>228.25</ele><time>2026-04-25T14:36:10.448Z</time></trkpt><trkpt lat="42.5555936" lon="12.7167951"><ele>232.0</ele><time>2026-04-25T14:36:11.448Z</time></trkpt><trkpt lat="42.5556836" lon="12.7168932"><ele>228.6</ele><time>2026-04-25T14:36:12.448Z</time></trkpt><trkpt lat="42.5557693" lon="12.7169848"><ele>225.2</ele><time>2026-04-25T14:36:13.448Z</time></trkpt><trkpt lat="42.5558563" lon="12.7170723"><ele>221.8</ele><time>2026-04-25T14:36:14.448Z</time></trkpt><trkpt lat="42.5559379" lon="12.7171587"><ele>218.4</ele><time>2026-04-25T14:36:15.448Z</time></trkpt><trkpt lat="42.5560236" lon="12.7172463"><ele>215.0</ele><time>2026-04-25T14:36:16.448Z</time></trkpt><trkpt lat="42.5561132" lon="12.7173487"><ele>215.0</ele><time>2026-04-25T14:36:17.448Z</time></trkpt><trkpt lat="42.5561965" lon="12.7174522"><ele>215.0</ele><time>2026-04-25T14:36:18.448Z</time></trkpt><trkpt lat="42.5562831" lon="12.717569"><ele>215.0</ele><time>2026-04-25T14:36:19.449Z</time></trkpt><trkpt lat="42.5563584" lon="12.7177011"><ele>215.0</ele><time>2026-04-25T14:36:20.448Z</time></trkpt><trkpt lat="42.5564352" lon="12.7178353"><ele>217.25</ele><time>2026-04-25T14:36:21.448Z</time></trkpt><trkpt lat="42.5565042" lon="12.717973"><ele>219.5</ele><time>2026-04-25T14:36:22.448Z</time></trkpt><trkpt lat="42.5565691" lon="12.7181141"><ele>221.75</ele><time>2026-04-25T14:36:23.449Z</time></trkpt><trkpt lat="42.5566358" lon="12.7182649"><ele>224.0</ele><time>2026-04-25T14:36:24.448Z</time></trkpt><trkpt lat="42.5567015" lon="12.7184034"><ele>224.0</ele><time>2026-04-25T14:36:25.449Z</time></trkpt><trkpt lat="42.5567657" lon="12.7185391"><ele>224.0</ele><time>2026-04-25T14:36:26.448Z</time></trkpt><trkpt lat="42.5568264" lon="12.7186792"><ele>224.0</ele><time>2026-04-25T14:36:27.448Z</time></trkpt><trkpt lat="42.5568946" lon="12.7188182"><ele>224.0</ele><time>2026-04-25T14:36:28.448Z</time></trkpt><trkpt lat="42.5569619" lon="12.7189573"><ele>223.75</ele><time>2026-04-25T14:36:29.448Z</time></trkpt><trkpt lat="42.5570215" lon="12.7191042"><ele>223.5</ele><time>2026-04-25T14:36:30.449Z</time></trkpt><trkpt lat="42.5570876" lon="12.7192511"><ele>223.25</ele><time>2026-04-25T14:36:31.448Z</time></trkpt><trkpt lat="42.5571554" lon="12.7193933"><ele>223.0</ele><time>2026-04-25T14:36:32.448Z</time></trkpt><trkpt lat="42.5572174" lon="12.7195343"><ele>223.0</ele><time>2026-04-25T14:36:33.448Z</time></trkpt><trkpt lat="42.5572805" lon="12.7196827"><ele>223.0</ele><time>2026-04-25T14:36:34.449Z</time></trkpt><trkpt lat="42.5573449" lon="12.7198354"><ele>223.0</ele><time>2026-04-25T14:36:35.448Z</time></trkpt><trkpt lat="42.5574052" lon="12.7199793"><ele>223.0</ele><time>2026-04-25T14:36:36.448Z</time></trkpt><trkpt lat="42.5574802" lon="12.7201346"><ele>222.0</ele><time>2026-04-25T14:36:37.448Z</time></trkpt><trkpt lat="42.5575503" lon="12.720292"><ele>221.0</ele><time>2026-04-25T14:36:38.448Z</time></trkpt><trkpt lat="42.5576192" lon="12.720445"><ele>220.0</ele><time>2026-04-25T14:36:39.448Z</time></trkpt><trkpt lat="42.557683" lon="12.7205921"><ele>219.0</ele><time>2026-04-25T14:36:40.448Z</time></trkpt><trkpt lat="42.5577555" lon="12.7207379"><ele>219.0</ele><time>2026-04-25T14:36:41.448Z</time></trkpt><trkpt lat="42.5578232" lon="12.7208862"><ele>219.0</ele><time>2026-04-25T14:36:42.449Z</time></trkpt><trkpt lat="42.5578882" lon="12.7210362"><ele>219.0</ele><time>2026-04-25T14:36:43.448Z</time></trkpt><trkpt lat="42.5579625" lon="12.7211865"><ele>219.0</ele><time>2026-04-25T14:36:44.448Z</time></trkpt><trkpt lat="42.5580314" lon="12.7213364"><ele>219.5</ele><time>2026-04-25T14:36:45.448Z</time></trkpt><trkpt lat="42.5580931" lon="12.7214855"><ele>220.0</ele><time>2026-04-25T14:36:46.448Z</time></trkpt><trkpt lat="42.5581634" lon="12.7216348"><ele>220.5</ele><time>2026-04-25T14:36:47.448Z</time></trkpt><trkpt lat="42.5582344" lon="12.7217859"><ele>221.0</ele><time>2026-04-25T14:36:48.448Z</time></trkpt><trkpt lat="42.5583069" lon="12.7219369"><ele>221.0</ele><time>2026-04-25T14:36:49.448Z</time></trkpt><trkpt lat="42.5583735" lon="12.7220903"><ele>221.0</ele><time>2026-04-25T14:36:50.449Z</time></trkpt><trkpt lat="42.5584416" lon="12.7222408"><ele>221.0</ele><time>2026-04-25T14:36:51.448Z</time></trkpt><trkpt lat="42.5585107" lon="12.7223884"><ele>221.0</ele><time>2026-04-25T14:36:52.448Z</time></trkpt><trkpt lat="42.5585743" lon="12.7225343"><ele>221.0</ele><time>2026-04-25T14:36:53.448Z</time></trkpt><trkpt lat="42.5586465" lon="12.7226821"><ele>221.0</ele><time>2026-04-25T14:36:54.449Z</time></trkpt><trkpt lat="42.5587286" lon="12.722822"><ele>221.0</ele><time>2026-04-25T14:36:55.448Z</time></trkpt><trkpt lat="42.5588063" lon="12.7229685"><ele>221.0</ele><time>2026-04-25T14:36:56.449Z</time></trkpt><trkpt lat="42.5588928" lon="12.7231076"><ele>220.25</ele><time>2026-04-25T14:36:57.448Z</time></trkpt><trkpt lat="42.5589866" lon="12.7232387"><ele>219.5</ele><time>2026-04-25T14:36:58.448Z</time></trkpt><trkpt lat="42.5590949" lon="12.7233501"><ele>218.75</ele><time>2026-04-25T14:36:59.448Z</time></trkpt><trkpt lat="42.5592111" lon="12.7234514"><ele>218.0</ele><time>2026-04-25T14:37:00.448Z</time></trkpt><trkpt lat="42.5593257" lon="12.7235549"><ele>218.5</ele><time>2026-04-25T14:37:01.448Z</time></trkpt><trkpt lat="42.5594471" lon="12.7236638"><ele>219.0</ele><time>2026-04-25T14:37:02.448Z</time></trkpt><trkpt lat="42.5595481" lon="12.7237717"><ele>219.5</ele><time>2026-04-25T14:37:03.448Z</time></trkpt><trkpt lat="42.5596549" lon="12.7238737"><ele>220.0</ele><time>2026-04-25T14:37:04.449Z</time></trkpt><trkpt lat="42.5597649" lon="12.7239748"><ele>220.0</ele><time>2026-04-25T14:37:05.448Z</time></trkpt><trkpt lat="42.5598758" lon="12.7240786"><ele>220.0</ele><time>2026-04-25T14:37:06.448Z</time></trkpt><trkpt lat="42.5599915" lon="12.7241756"><ele>220.0</ele><time>2026-04-25T14:37:07.448Z</time></trkpt><trkpt lat="42.5601142" lon="12.724275"><ele>220.0</ele><time>2026-04-25T14:37:08.448Z</time></trkpt><trkpt lat="42.5602321" lon="12.724376"><ele>219.0</ele><time>2026-04-25T14:37:09.448Z</time></trkpt><trkpt lat="42.5603557" lon="12.7244816"><ele>218.0</ele><time>2026-04-25T14:37:10.448Z</time></trkpt><trkpt lat="42.5604708" lon="12.7245833"><ele>217.0</ele><time>2026-04-25T14:37:11.448Z</time></trkpt><trkpt lat="42.5605976" lon="12.7246889"><ele>216.0</ele><time>2026-04-25T14:37:12.448Z</time></trkpt><trkpt lat="42.5607142" lon="12.7247978"><ele>216.0</ele><time>2026-04-25T14:37:13.448Z</time></trkpt><trkpt lat="42.5608414" lon="12.7249063"><ele>216.0</ele><time>2026-04-25T14:37:14.448Z</time></trkpt><trkpt lat="42.5609657" lon="12.7250183"><ele>216.0</ele><time>2026-04-25T14:37:15.449Z</time></trkpt><trkpt lat="42.5610952" lon="12.7251471"><ele>217.66666666666669</ele><time>2026-04-25T14:37:16.448Z</time></trkpt><trkpt lat="42.5612338" lon="12.7252731"><ele>219.33333333333334</ele><time>2026-04-25T14:37:17.448Z</time></trkpt><trkpt lat="42.5613701" lon="12.7253935"><ele>221.0</ele><time>2026-04-25T14:37:18.448Z</time></trkpt><trkpt lat="42.5615051" lon="12.7255123"><ele>221.0</ele><time>2026-04-25T14:37:19.448Z</time></trkpt><trkpt lat="42.5616389" lon="12.7256265"><ele>221.0</ele><time>2026-04-25T14:37:20.448Z</time></trkpt><trkpt lat="42.561774" lon="12.7257424"><ele>221.0</ele><time>2026-04-25T14:37:21.448Z</time></trkpt><trkpt lat="42.5619051" lon="12.7258609"><ele>221.0</ele><time>2026-04-25T14:37:22.448Z</time></trkpt><trkpt lat="42.5620434" lon="12.7259797"><ele>221.0</ele><time>2026-04-25T14:37:23.448Z</time></trkpt><trkpt lat="42.5621771" lon="12.7261012"><ele>221.0</ele><time>2026-04-25T14:37:24.448Z</time></trkpt><trkpt lat="42.5623158" lon="12.7262231"><ele>221.0</ele><time>2026-04-25T14:37:25.448Z</time></trkpt><trkpt lat="42.5624469" lon="12.7263485"><ele>221.0</ele><time>2026-04-25T14:37:26.448Z</time></trkpt><trkpt lat="42.562577" lon="12.7264585"><ele>221.0</ele><time>2026-04-25T14:37:27.448Z</time></trkpt><trkpt lat="42.5626984" lon="12.7265688"><ele>221.0</ele><time>2026-04-25T14:37:28.448Z</time></trkpt><trkpt lat="42.562821" lon="12.7266792"><ele>221.0</ele><time>2026-04-25T14:37:29.448Z</time></trkpt><trkpt lat="42.5629444" lon="12.7267858"><ele>221.0</ele><time>2026-04-25T14:37:30.448Z</time></trkpt><trkpt lat="42.5630594" lon="12.7268936"><ele>221.0</ele><time>2026-04-25T14:37:31.448Z</time></trkpt><trkpt lat="42.5631751" lon="12.7269999"><ele>220.5</ele><time>2026-04-25T14:37:32.448Z</time></trkpt><trkpt lat="42.5632904" lon="12.7270947"><ele>220.0</ele><time>2026-04-25T14:37:33.448Z</time></trkpt><trkpt lat="42.563403" lon="12.7271958"><ele>219.5</ele><time>2026-04-25T14:37:34.448Z</time></trkpt><trkpt lat="42.5635024" lon="12.7272849"><ele>219.0</ele><time>2026-04-25T14:37:35.448Z</time></trkpt><trkpt lat="42.5636032" lon="12.7273767"><ele>219.25</ele><time>2026-04-25T14:37:36.448Z</time></trkpt><trkpt lat="42.5637073" lon="12.7274635"><ele>219.5</ele><time>2026-04-25T14:37:37.448Z</time></trkpt><trkpt lat="42.5638126" lon="12.7275538"><ele>219.75</ele><time>2026-04-25T14:37:38.448Z</time></trkpt><trkpt lat="42.5639207" lon="12.7276444"><ele>220.0</ele><time>2026-04-25T14:37:39.448Z</time></trkpt><trkpt lat="42.5640182" lon="12.7277409"><ele>220.0</ele><time>2026-04-25T14:37:40.448Z</time></trkpt><trkpt lat="42.5641259" lon="12.7278365"><ele>220.0</ele><time>2026-04-25T14:37:41.448Z</time></trkpt><trkpt lat="42.5642409" lon="12.7279429"><ele>220.0</ele><time>2026-04-25T14:37:42.448Z</time></trkpt><trkpt lat="42.5643568" lon="12.7280415"><ele>220.0</ele><time>2026-04-25T14:37:43.448Z</time></trkpt><trkpt lat="42.5644679" lon="12.7281532"><ele>222.25</ele><time>2026-04-25T14:37:44.448Z</time></trkpt><trkpt lat="42.56458" lon="12.728269"><ele>224.5</ele><time>2026-04-25T14:37:45.448Z</time></trkpt><trkpt lat="42.5646889" lon="12.7283942"><ele>226.75</ele><time>2026-04-25T14:37:46.448Z</time></trkpt><trkpt lat="42.5647867" lon="12.7285357"><ele>229.0</ele><time>2026-04-25T14:37:47.449Z</time></trkpt><trkpt lat="42.564863" lon="12.7286983"><ele>229.0</ele><time>2026-04-25T14:37:48.449Z</time></trkpt><trkpt lat="42.5649305" lon="12.7288721"><ele>229.0</ele><time>2026-04-25T14:37:49.448Z</time></trkpt><trkpt lat="42.5649845" lon="12.7290552"><ele>229.0</ele><time>2026-04-25T14:37:50.448Z</time></trkpt><trkpt lat="42.5650055" lon="12.7292421"><ele>229.0</ele><time>2026-04-25T14:37:51.448Z</time></trkpt><trkpt lat="42.5650172" lon="12.7294423"><ele>228.25</ele><time>2026-04-25T14:37:52.448Z</time></trkpt><trkpt lat="42.565024" lon="12.7296358"><ele>227.5</ele><time>2026-04-25T14:37:53.449Z</time></trkpt><trkpt lat="42.565035" lon="12.7298352"><ele>226.75</ele><time>2026-04-25T14:37:54.448Z</time></trkpt><trkpt lat="42.5650393" lon="12.7300333"><ele>226.0</ele><time>2026-04-25T14:37:55.448Z</time></trkpt><trkpt lat="42.5650495" lon="12.7302253"><ele>226.0</ele><time>2026-04-25T14:37:56.448Z</time></trkpt><trkpt lat="42.5650539" lon="12.7304127"><ele>226.0</ele><time>2026-04-25T14:37:57.448Z</time></trkpt><trkpt lat="42.5650588" lon="12.730595"><ele>226.0</ele><time>2026-04-25T14:37:58.449Z</time></trkpt><trkpt lat="42.5650612" lon="12.7307798"><ele>226.0</ele><time>2026-04-25T14:37:59.448Z</time></trkpt><trkpt lat="42.5650653" lon="12.7309664"><ele>225.0</ele><time>2026-04-25T14:38:00.449Z</time></trkpt><trkpt lat="42.5650675" lon="12.7311418"><ele>224.0</ele><time>2026-04-25T14:38:01.449Z</time></trkpt><trkpt lat="42.5650673" lon="12.7313196"><ele>223.0</ele><time>2026-04-25T14:38:02.448Z</time></trkpt><trkpt lat="42.5650761" lon="12.731495"><ele>222.0</ele><time>2026-04-25T14:38:03.448Z</time></trkpt><trkpt lat="42.5650972" lon="12.7316659"><ele>222.0</ele><time>2026-04-25T14:38:04.448Z</time></trkpt><trkpt lat="42.5651393" lon="12.7318253"><ele>222.0</ele><time>2026-04-25T14:38:05.448Z</time></trkpt><trkpt lat="42.5651813" lon="12.7319813"><ele>222.0</ele><time>2026-04-25T14:38:06.448Z</time></trkpt><trkpt lat="42.5652554" lon="12.7321129"><ele>222.0</ele><time>2026-04-25T14:38:07.448Z</time></trkpt><trkpt lat="42.5653479" lon="12.7322329"><ele>221.75</ele><time>2026-04-25T14:38:08.449Z</time></trkpt><trkpt lat="42.5654449" lon="12.7323452"><ele>221.5</ele><time>2026-04-25T14:38:09.449Z</time></trkpt><trkpt lat="42.5655456" lon="12.7324487"><ele>221.25</ele><time>2026-04-25T14:38:10.448Z</time></trkpt><trkpt lat="42.5656447" lon="12.7325561"><ele>221.0</ele><time>2026-04-25T14:38:11.448Z</time></trkpt><trkpt lat="42.5657358" lon="12.732656"><ele>219.5</ele><time>2026-04-25T14:38:12.448Z</time></trkpt><trkpt lat="42.5658265" lon="12.73276"><ele>218.0</ele><time>2026-04-25T14:38:13.448Z</time></trkpt><trkpt lat="42.5659259" lon="12.7328645"><ele>216.5</ele><time>2026-04-25T14:38:14.448Z</time></trkpt><trkpt lat="42.5660254" lon="12.732973"><ele>215.0</ele><time>2026-04-25T14:38:15.448Z</time></trkpt><trkpt lat="42.5661265" lon="12.7330853"><ele>215.5</ele><time>2026-04-25T14:38:16.448Z</time></trkpt><trkpt lat="42.5662298" lon="12.7331926"><ele>216.0</ele><time>2026-04-25T14:38:17.448Z</time></trkpt><trkpt lat="42.5663374" lon="12.7333053"><ele>216.5</ele><time>2026-04-25T14:38:18.448Z</time></trkpt><trkpt lat="42.5664395" lon="12.733417"><ele>217.0</ele><time>2026-04-25T14:38:19.448Z</time></trkpt><trkpt lat="42.5665526" lon="12.7335311"><ele>216.5</ele><time>2026-04-25T14:38:20.448Z</time></trkpt><trkpt lat="42.5666649" lon="12.7336502"><ele>216.0</ele><time>2026-04-25T14:38:21.448Z</time></trkpt><trkpt lat="42.5667781" lon="12.7337764"><ele>215.5</ele><time>2026-04-25T14:38:22.448Z</time></trkpt><trkpt lat="42.5668904" lon="12.7338955"><ele>215.0</ele><time>2026-04-25T14:38:23.449Z</time></trkpt><trkpt lat="42.5670027" lon="12.7340126"><ele>215.0</ele><time>2026-04-25T14:38:24.448Z</time></trkpt><trkpt lat="42.5671181" lon="12.7341397"><ele>215.0</ele><time>2026-04-25T14:38:25.449Z</time></trkpt><trkpt lat="42.5672338" lon="12.7342574"><ele>215.0</ele><time>2026-04-25T14:38:26.448Z</time></trkpt><trkpt lat="42.5673522" lon="12.7343828"><ele>215.0</ele><time>2026-04-25T14:38:27.448Z</time></trkpt><trkpt lat="42.5674658" lon="12.7345103"><ele>215.0</ele><time>2026-04-25T14:38:28.449Z</time></trkpt><trkpt lat="42.567576" lon="12.7346276"><ele>215.0</ele><time>2026-04-25T14:38:29.448Z</time></trkpt><trkpt lat="42.5676836" lon="12.7347494"><ele>215.0</ele><time>2026-04-25T14:38:30.448Z</time></trkpt><trkpt lat="42.5677945" lon="12.7348669"><ele>215.0</ele><time>2026-04-25T14:38:31.448Z</time></trkpt><trkpt lat="42.5679035" lon="12.7349784"><ele>215.75</ele><time>2026-04-25T14:38:32.448Z</time></trkpt><trkpt lat="42.5680184" lon="12.7350843"><ele>216.5</ele><time>2026-04-25T14:38:33.448Z</time></trkpt><trkpt lat="42.5681224" lon="12.7351972"><ele>217.25</ele><time>2026-04-25T14:38:34.448Z</time></trkpt><trkpt lat="42.5682292" lon="12.735312"><ele>218.0</ele><time>2026-04-25T14:38:35.448Z</time></trkpt><trkpt lat="42.5683334" lon="12.7354185"><ele>218.0</ele><time>2026-04-25T14:38:36.448Z</time></trkpt><trkpt lat="42.5684325" lon="12.7355275"><ele>218.0</ele><time>2026-04-25T14:38:37.448Z</time></trkpt><trkpt lat="42.5685345" lon="12.7356387"><ele>218.0</ele><time>2026-04-25T14:38:38.449Z</time></trkpt><trkpt lat="42.5686395" lon="12.735739"><ele>218.0</ele><time>2026-04-25T14:38:39.448Z</time></trkpt><trkpt lat="42.5687432" lon="12.7358574"><ele>218.5</ele><time>2026-04-25T14:38:40.448Z</time></trkpt><trkpt lat="42.568856" lon="12.7359735"><ele>219.0</ele><time>2026-04-25T14:38:41.448Z</time></trkpt><trkpt lat="42.5689641" lon="12.7360831"><ele>219.5</ele><time>2026-04-25T14:38:42.448Z</time></trkpt><trkpt lat="42.5690731" lon="12.7361966"><ele>220.0</ele><time>2026-04-25T14:38:43.448Z</time></trkpt><trkpt lat="42.5691845" lon="12.736309"><ele>220.0</ele><time>2026-04-25T14:38:44.448Z</time></trkpt><trkpt lat="42.5693095" lon="12.7364076"><ele>220.0</ele><time>2026-04-25T14:38:45.448Z</time></trkpt><trkpt lat="42.5694366" lon="12.7364919"><ele>220.0</ele><time>2026-04-25T14:38:46.449Z</time></trkpt><trkpt lat="42.5695678" lon="12.7365735"><ele>220.0</ele><time>2026-04-25T14:38:47.448Z</time></trkpt><trkpt lat="42.5696993" lon="12.7366514"><ele>219.0</ele><time>2026-04-25T14:38:48.448Z</time></trkpt><trkpt lat="42.5698327" lon="12.7367146"><ele>218.0</ele><time>2026-04-25T14:38:49.448Z</time></trkpt><trkpt lat="42.5699605" lon="12.736782"><ele>217.0</ele><time>2026-04-25T14:38:50.448Z</time></trkpt><trkpt lat="42.5700998" lon="12.736836"><ele>216.0</ele><time>2026-04-25T14:38:51.449Z</time></trkpt><trkpt lat="42.5702332" lon="12.7368952"><ele>216.0</ele><time>2026-04-25T14:38:52.448Z</time></trkpt><trkpt lat="42.570354" lon="12.7369646"><ele>216.0</ele><time>2026-04-25T14:38:53.448Z</time></trkpt><trkpt lat="42.5704748" lon="12.737038"><ele>216.0</ele><time>2026-04-25T14:38:54.448Z</time></trkpt><trkpt lat="42.5705821" lon="12.7371284"><ele>216.0</ele><time>2026-04-25T14:38:55.448Z</time></trkpt><trkpt lat="42.570676" lon="12.7372457"><ele>216.5</ele><time>2026-04-25T14:38:56.448Z</time></trkpt><trkpt lat="42.5707727" lon="12.7373893"><ele>217.0</ele><time>2026-04-25T14:38:57.449Z</time></trkpt><trkpt lat="42.570865" lon="12.737528"><ele>217.5</ele><time>2026-04-25T14:38:58.449Z</time></trkpt><trkpt lat="42.5709663" lon="12.7376759"><ele>218.0</ele><time>2026-04-25T14:38:59.449Z</time></trkpt><trkpt lat="42.5710767" lon="12.7378377"><ele>218.0</ele><time>2026-04-25T14:39:00.448Z</time></trkpt><trkpt lat="42.5711845" lon="12.7380051"><ele>218.0</ele><time>2026-04-25T14:39:01.449Z</time></trkpt><trkpt lat="42.5712853" lon="12.7381666"><ele>218.0</ele><time>2026-04-25T14:39:02.448Z</time></trkpt><trkpt lat="42.5713758" lon="12.7383178"><ele>219.0</ele><time>2026-04-25T14:39:03.449Z</time></trkpt><trkpt lat="42.5714751" lon="12.738466"><ele>220.0</ele><time>2026-04-25T14:39:04.449Z</time></trkpt><trkpt lat="42.571572" lon="12.7386186"><ele>221.0</ele><time>2026-04-25T14:39:05.448Z</time></trkpt><trkpt lat="42.571688" lon="12.7387671"><ele>221.0</ele><time>2026-04-25T14:39:06.448Z</time></trkpt><trkpt lat="42.5718024" lon="12.7389492"><ele>221.0</ele><time>2026-04-25T14:39:07.448Z</time></trkpt><trkpt lat="42.5719133" lon="12.7391372"><ele>221.0</ele><time>2026-04-25T14:39:08.448Z</time></trkpt><trkpt lat="42.5720294" lon="12.7393298"><ele>223.0</ele><time>2026-04-25T14:39:09.448Z</time></trkpt><trkpt lat="42.5721496" lon="12.7395145"><ele>225.0</ele><time>2026-04-25T14:39:10.449Z</time></trkpt><trkpt lat="42.5722582" lon="12.7396831"><ele>227.0</ele><time>2026-04-25T14:39:11.448Z</time></trkpt><trkpt lat="42.5723669" lon="12.7398424"><ele>227.0</ele><time>2026-04-25T14:39:12.448Z</time></trkpt><trkpt lat="42.57248" lon="12.7399703"><ele>227.0</ele><time>2026-04-25T14:39:13.449Z</time></trkpt><trkpt lat="42.5726053" lon="12.7400718"><ele>227.0</ele><time>2026-04-25T14:39:14.448Z</time></trkpt><trkpt lat="42.5727478" lon="12.7401471"><ele>227.0</ele><time>2026-04-25T14:39:15.448Z</time></trkpt><trkpt lat="42.5728993" lon="12.7402076"><ele>225.0</ele><time>2026-04-25T14:39:16.448Z</time></trkpt><trkpt lat="42.5730481" lon="12.7402581"><ele>223.0</ele><time>2026-04-25T14:39:17.448Z</time></trkpt><trkpt lat="42.5731985" lon="12.7402936"><ele>221.0</ele><time>2026-04-25T14:39:18.448Z</time></trkpt><trkpt lat="42.5733411" lon="12.7403362"><ele>221.0</ele><time>2026-04-25T14:39:19.448Z</time></trkpt><trkpt lat="42.5734837" lon="12.7403742"><ele>221.0</ele><time>2026-04-25T14:39:20.448Z</time></trkpt><trkpt lat="42.5736322" lon="12.7403958"><ele>221.0</ele><time>2026-04-25T14:39:21.448Z</time></trkpt><trkpt lat="42.573772" lon="12.7403986"><ele>221.0</ele><time>2026-04-25T14:39:22.448Z</time></trkpt><trkpt lat="42.573913" lon="12.7403875"><ele>220.75</ele><time>2026-04-25T14:39:23.448Z</time></trkpt><trkpt lat="42.5740466" lon="12.7403755"><ele>220.5</ele><time>2026-04-25T14:39:24.448Z</time></trkpt><trkpt lat="42.5741765" lon="12.7403539"><ele>220.25</ele><time>2026-04-25T14:39:25.449Z</time></trkpt><trkpt lat="42.5743068" lon="12.7403271"><ele>220.0</ele><time>2026-04-25T14:39:26.448Z</time></trkpt><trkpt lat="42.5744336" lon="12.7403027"><ele>219.75</ele><time>2026-04-25T14:39:27.448Z</time></trkpt><trkpt lat="42.5745577" lon="12.7402831"><ele>219.5</ele><time>2026-04-25T14:39:28.448Z</time></trkpt><trkpt lat="42.5746791" lon="12.7402565"><ele>219.25</ele><time>2026-04-25T14:39:29.448Z</time></trkpt><trkpt lat="42.5747994" lon="12.7402299"><ele>219.0</ele><time>2026-04-25T14:39:30.448Z</time></trkpt><trkpt lat="42.5749243" lon="12.7401999"><ele>219.0</ele><time>2026-04-25T14:39:31.448Z</time></trkpt><trkpt lat="42.575043" lon="12.7401707"><ele>219.0</ele><time>2026-04-25T14:39:32.448Z</time></trkpt><trkpt lat="42.5751645" lon="12.7401433"><ele>219.0</ele><time>2026-04-25T14:39:33.448Z</time></trkpt><trkpt lat="42.5752778" lon="12.7401171"><ele>219.0</ele><time>2026-04-25T14:39:34.448Z</time></trkpt><trkpt lat="42.5753943" lon="12.7400875"><ele>218.5</ele><time>2026-04-25T14:39:35.448Z</time></trkpt><trkpt lat="42.575512" lon="12.7400662"><ele>218.0</ele><time>2026-04-25T14:39:36.448Z</time></trkpt><trkpt lat="42.5756235" lon="12.7400554"><ele>217.5</ele><time>2026-04-25T14:39:37.448Z</time></trkpt><trkpt lat="42.575737" lon="12.7400432"><ele>217.0</ele><time>2026-04-25T14:39:38.449Z</time></trkpt><trkpt lat="42.5758537" lon="12.7400478"><ele>217.0</ele><time>2026-04-25T14:39:39.448Z</time></trkpt><trkpt lat="42.5759615" lon="12.7400527"><ele>217.0</ele><time>2026-04-25T14:39:40.448Z</time></trkpt><trkpt lat="42.5760773" lon="12.7400715"><ele>217.0</ele><time>2026-04-25T14:39:41.448Z</time></trkpt><trkpt lat="42.5761935" lon="12.7401101"><ele>217.0</ele><time>2026-04-25T14:39:42.448Z</time></trkpt><trkpt lat="42.5763007" lon="12.7401679"><ele>217.25</ele><time>2026-04-25T14:39:43.448Z</time></trkpt><trkpt lat="42.5764087" lon="12.7402265"><ele>217.5</ele><time>2026-04-25T14:39:44.448Z</time></trkpt><trkpt lat="42.5765125" lon="12.7402805"><ele>217.75</ele><time>2026-04-25T14:39:45.449Z</time></trkpt><trkpt lat="42.5766185" lon="12.740338"><ele>218.0</ele><time>2026-04-25T14:39:46.448Z</time></trkpt><trkpt lat="42.5767189" lon="12.7403936"><ele>218.0</ele><time>2026-04-25T14:39:47.448Z</time></trkpt><trkpt lat="42.5768162" lon="12.7404542"><ele>218.0</ele><time>2026-04-25T14:39:48.448Z</time></trkpt><trkpt lat="42.5769155" lon="12.7405185"><ele>218.0</ele><time>2026-04-25T14:39:49.448Z</time></trkpt><trkpt lat="42.5770085" lon="12.7405811"><ele>218.0</ele><time>2026-04-25T14:39:50.448Z</time></trkpt><trkpt lat="42.5771098" lon="12.7406437"><ele>218.0</ele><time>2026-04-25T14:39:51.449Z</time></trkpt><trkpt lat="42.5772121" lon="12.7407019"><ele>218.0</ele><time>2026-04-25T14:39:52.448Z</time></trkpt><trkpt lat="42.5773123" lon="12.7407552"><ele>218.0</ele><time>2026-04-25T14:39:53.448Z</time></trkpt><trkpt lat="42.5774151" lon="12.7408135"><ele>218.0</ele><time>2026-04-25T14:39:54.449Z</time></trkpt><trkpt lat="42.5775172" lon="12.7408775"><ele>218.0</ele><time>2026-04-25T14:39:55.448Z</time></trkpt><trkpt lat="42.5776126" lon="12.7409387"><ele>218.0</ele><time>2026-04-25T14:39:56.448Z</time></trkpt><trkpt lat="42.5777138" lon="12.7409979"><ele>218.0</ele><time>2026-04-25T14:39:57.448Z</time></trkpt><trkpt lat="42.5778078" lon="12.7410563"><ele>218.0</ele><time>2026-04-25T14:39:58.448Z</time></trkpt><trkpt lat="42.5779125" lon="12.741133"><ele>218.0</ele><time>2026-04-25T14:39:59.448Z</time></trkpt><trkpt lat="42.5780021" lon="12.7412175"><ele>218.0</ele><time>2026-04-25T14:40:00.448Z</time></trkpt><trkpt lat="42.5780853" lon="12.7413147"><ele>218.0</ele><time>2026-04-25T14:40:01.448Z</time></trkpt><trkpt lat="42.5781591" lon="12.7414183"><ele>218.0</ele><time>2026-04-25T14:40:02.449Z</time></trkpt><trkpt lat="42.5782276" lon="12.741532"><ele>218.0</ele><time>2026-04-25T14:40:03.448Z</time></trkpt><trkpt lat="42.5782843" lon="12.7416641"><ele>218.0</ele><time>2026-04-25T14:40:04.448Z</time></trkpt><trkpt lat="42.5783313" lon="12.7417971"><ele>218.0</ele><time>2026-04-25T14:40:05.448Z</time></trkpt><trkpt lat="42.5783852" lon="12.7419406"><ele>218.0</ele><time>2026-04-25T14:40:06.448Z</time></trkpt><trkpt lat="42.5784238" lon="12.7420887"><ele>218.0</ele><time>2026-04-25T14:40:07.448Z</time></trkpt><trkpt lat="42.5784628" lon="12.7422476"><ele>218.0</ele><time>2026-04-25T14:40:08.449Z</time></trkpt><trkpt lat="42.5785028" lon="12.7424097"><ele>218.0</ele><time>2026-04-25T14:40:09.448Z</time></trkpt><trkpt lat="42.5785432" lon="12.7425661"><ele>218.0</ele><time>2026-04-25T14:40:10.448Z</time></trkpt><trkpt lat="42.5785738" lon="12.7427215"><ele>218.0</ele><time>2026-04-25T14:40:11.448Z</time></trkpt><trkpt lat="42.5786077" lon="12.7428795"><ele>218.0</ele><time>2026-04-25T14:40:12.449Z</time></trkpt><trkpt lat="42.5786413" lon="12.7430184"><ele>218.0</ele><time>2026-04-25T14:40:13.448Z</time></trkpt><trkpt lat="42.5786754" lon="12.7431611"><ele>218.0</ele><time>2026-04-25T14:40:14.448Z</time></trkpt><trkpt lat="42.5787121" lon="12.7433144"><ele>218.0</ele><time>2026-04-25T14:40:15.448Z</time></trkpt><trkpt lat="42.5787477" lon="12.7434638"><ele>218.0</ele><time>2026-04-25T14:40:16.448Z</time></trkpt><trkpt lat="42.5787845" lon="12.743621"><ele>218.0</ele><time>2026-04-25T14:40:17.449Z</time></trkpt><trkpt lat="42.5788122" lon="12.7437751"><ele>218.0</ele><time>2026-04-25T14:40:18.448Z</time></trkpt><trkpt lat="42.5788477" lon="12.7439396"><ele>218.0</ele><time>2026-04-25T14:40:19.448Z</time></trkpt><trkpt lat="42.5788792" lon="12.7441019"><ele>218.0</ele><time>2026-04-25T14:40:20.448Z</time></trkpt><trkpt lat="42.5789099" lon="12.7442654"><ele>218.0</ele><time>2026-04-25T14:40:21.448Z</time></trkpt><trkpt lat="42.5789479" lon="12.7444295"><ele>218.0</ele><time>2026-04-25T14:40:22.448Z</time></trkpt><trkpt lat="42.5789805" lon="12.7445823"><ele>218.16666666666669</ele><time>2026-04-25T14:40:23.448Z</time></trkpt><trkpt lat="42.5790153" lon="12.7447265"><ele>218.33333333333334</ele><time>2026-04-25T14:40:24.448Z</time></trkpt><trkpt lat="42.5790474" lon="12.7448474"><ele>218.5</ele><time>2026-04-25T14:40:25.448Z</time></trkpt><trkpt lat="42.579074" lon="12.7449507"><ele>218.66666666666669</ele><time>2026-04-25T14:40:26.448Z</time></trkpt><trkpt lat="42.5790987" lon="12.7450614"><ele>218.83333333333334</ele><time>2026-04-25T14:40:28.448Z</time></trkpt><trkpt lat="42.5791199" lon="12.7451463"><ele>219.0</ele><time>2026-04-25T14:40:32.448Z</time></trkpt><trkpt lat="42.5791495" lon="12.7452798"><ele>219.0</ele><time>2026-04-25T14:40:35.448Z</time></trkpt><trkpt lat="42.5791919" lon="12.7454412"><ele>218.99999999999997</ele><time>2026-04-25T14:40:37.449Z</time></trkpt><trkpt lat="42.5792193" lon="12.7455342"><ele>218.99999999999997</ele><time>2026-04-25T14:40:38.448Z</time></trkpt><trkpt lat="42.5792392" lon="12.7456367"><ele>219.0</ele><time>2026-04-25T14:40:39.449Z</time></trkpt><trkpt lat="42.5792677" lon="12.7457475"><ele>219.0</ele><time>2026-04-25T14:40:40.448Z</time></trkpt><trkpt lat="42.5792952" lon="12.7458665"><ele>219.0</ele><time>2026-04-25T14:40:41.449Z</time></trkpt><trkpt lat="42.5793201" lon="12.7459981"><ele>218.99999999999997</ele><time>2026-04-25T14:40:42.448Z</time></trkpt><trkpt lat="42.5793527" lon="12.7461391"><ele>218.99999999999997</ele><time>2026-04-25T14:40:43.449Z</time></trkpt><trkpt lat="42.5793848" lon="12.7462843"><ele>219.0</ele><time>2026-04-25T14:40:44.448Z</time></trkpt><trkpt lat="42.5794133" lon="12.7464206"><ele>219.0</ele><time>2026-04-25T14:40:45.448Z</time></trkpt><trkpt lat="42.5794464" lon="12.7465749"><ele>219.0</ele><time>2026-04-25T14:40:46.448Z</time></trkpt><trkpt lat="42.5794792" lon="12.7467191"><ele>219.0</ele><time>2026-04-25T14:40:47.448Z</time></trkpt><trkpt lat="42.579515" lon="12.7468634"><ele>219.0</ele><time>2026-04-25T14:40:48.448Z</time></trkpt><trkpt lat="42.5795503" lon="12.7470205"><ele>219.0</ele><time>2026-04-25T14:40:49.449Z</time></trkpt><trkpt lat="42.5795823" lon="12.7471785"><ele>218.75</ele><time>2026-04-25T14:40:50.448Z</time></trkpt><trkpt lat="42.5796207" lon="12.7473343"><ele>218.5</ele><time>2026-04-25T14:40:51.448Z</time></trkpt><trkpt lat="42.5796574" lon="12.7474904"><ele>218.25</ele><time>2026-04-25T14:40:52.448Z</time></trkpt><trkpt lat="42.579695" lon="12.7476445"><ele>218.0</ele><time>2026-04-25T14:40:53.448Z</time></trkpt><trkpt lat="42.5797339" lon="12.7478026"><ele>218.0</ele><time>2026-04-25T14:40:54.448Z</time></trkpt><trkpt lat="42.5797712" lon="12.7479572"><ele>218.0</ele><time>2026-04-25T14:40:55.449Z</time></trkpt><trkpt lat="42.5798061" lon="12.7481131"><ele>218.0</ele><time>2026-04-25T14:40:56.449Z</time></trkpt><trkpt lat="42.5798421" lon="12.7482617"><ele>218.0</ele><time>2026-04-25T14:40:57.448Z</time></trkpt><trkpt lat="42.5798744" lon="12.748407"><ele>218.5</ele><time>2026-04-25T14:40:58.449Z</time></trkpt><trkpt lat="42.5799129" lon="12.7485645"><ele>219.0</ele><time>2026-04-25T14:40:59.449Z</time></trkpt><trkpt lat="42.579951" lon="12.748712"><ele>219.5</ele><time>2026-04-25T14:41:00.448Z</time></trkpt><trkpt lat="42.5799811" lon="12.7488621"><ele>220.0</ele><time>2026-04-25T14:41:01.449Z</time></trkpt><trkpt lat="42.5800199" lon="12.7490162"><ele>220.0</ele><time>2026-04-25T14:41:02.448Z</time></trkpt><trkpt lat="42.5800564" lon="12.7491713"><ele>220.0</ele><time>2026-04-25T14:41:03.448Z</time></trkpt><trkpt lat="42.5800849" lon="12.7493245"><ele>220.0</ele><time>2026-04-25T14:41:04.449Z</time></trkpt><trkpt lat="42.5801209" lon="12.7494781"><ele>220.0</ele><time>2026-04-25T14:41:05.448Z</time></trkpt><trkpt lat="42.5801505" lon="12.7496325"><ele>220.25</ele><time>2026-04-25T14:41:06.448Z</time></trkpt><trkpt lat="42.5801815" lon="12.7497917"><ele>220.5</ele><time>2026-04-25T14:41:07.448Z</time></trkpt><trkpt lat="42.5802148" lon="12.749946"><ele>220.75</ele><time>2026-04-25T14:41:08.448Z</time></trkpt><trkpt lat="42.580242" lon="12.7501071"><ele>221.0</ele><time>2026-04-25T14:41:09.449Z</time></trkpt><trkpt lat="42.5802669" lon="12.7502672"><ele>221.0</ele><time>2026-04-25T14:41:10.449Z</time></trkpt><trkpt lat="42.5802863" lon="12.7504268"><ele>221.0</ele><time>2026-04-25T14:41:11.448Z</time></trkpt><trkpt lat="42.580296" lon="12.7505927"><ele>221.0</ele><time>2026-04-25T14:41:12.449Z</time></trkpt><trkpt lat="42.5803034" lon="12.7507596"><ele>221.0</ele><time>2026-04-25T14:41:13.448Z</time></trkpt><trkpt lat="42.5803078" lon="12.7509282"><ele>221.0</ele><time>2026-04-25T14:41:14.448Z</time></trkpt><trkpt lat="42.5803153" lon="12.7510881"><ele>221.0</ele><time>2026-04-25T14:41:15.448Z</time></trkpt><trkpt lat="42.5803265" lon="12.751251"><ele>221.0</ele><time>2026-04-25T14:41:16.448Z</time></trkpt><trkpt lat="42.5803326" lon="12.7514135"><ele>221.0</ele><time>2026-04-25T14:41:17.448Z</time></trkpt><trkpt lat="42.5803402" lon="12.7515777"><ele>221.0</ele><time>2026-04-25T14:41:18.448Z</time></trkpt><trkpt lat="42.5803467" lon="12.7517388"><ele>221.0</ele><time>2026-04-25T14:41:19.448Z</time></trkpt><trkpt lat="42.5803513" lon="12.7519089"><ele>221.0</ele><time>2026-04-25T14:41:20.449Z</time></trkpt><trkpt lat="42.5803548" lon="12.7520882"><ele>221.0</ele><time>2026-04-25T14:41:21.448Z</time></trkpt><trkpt lat="42.580361" lon="12.7522643"><ele>221.0</ele><time>2026-04-25T14:41:22.449Z</time></trkpt><trkpt lat="42.5803662" lon="12.7524359"><ele>221.0</ele><time>2026-04-25T14:41:23.449Z</time></trkpt><trkpt lat="42.5803704" lon="12.7526073"><ele>221.0</ele><time>2026-04-25T14:41:24.449Z</time></trkpt><trkpt lat="42.5803677" lon="12.7527761"><ele>221.0</ele><time>2026-04-25T14:41:25.448Z</time></trkpt><trkpt lat="42.5803707" lon="12.7529485"><ele>221.0</ele><time>2026-04-25T14:41:26.448Z</time></trkpt><trkpt lat="42.5803784" lon="12.7531224"><ele>221.0</ele><time>2026-04-25T14:41:27.448Z</time></trkpt><trkpt lat="42.5803829" lon="12.7533005"><ele>221.0</ele><time>2026-04-25T14:41:28.448Z</time></trkpt><trkpt lat="42.5803907" lon="12.7534787"><ele>221.0</ele><time>2026-04-25T14:41:29.448Z</time></trkpt><trkpt lat="42.5803977" lon="12.7536576"><ele>222.25</ele><time>2026-04-25T14:41:30.448Z</time></trkpt><trkpt lat="42.5804029" lon="12.7538412"><ele>223.5</ele><time>2026-04-25T14:41:31.448Z</time></trkpt><trkpt lat="42.5804125" lon="12.754023"><ele>224.75</ele><time>2026-04-25T14:41:32.448Z</time></trkpt><trkpt lat="42.5804218" lon="12.7542013"><ele>226.0</ele><time>2026-04-25T14:41:33.449Z</time></trkpt><trkpt lat="42.5804513" lon="12.7543768"><ele>227.5</ele><time>2026-04-25T14:41:34.448Z</time></trkpt><trkpt lat="42.5804883" lon="12.7545552"><ele>229.0</ele><time>2026-04-25T14:41:35.448Z</time></trkpt><trkpt lat="42.5805316" lon="12.7547222"><ele>230.5</ele><time>2026-04-25T14:41:36.448Z</time></trkpt><trkpt lat="42.5805945" lon="12.7548867"><ele>232.0</ele><time>2026-04-25T14:41:37.449Z</time></trkpt><trkpt lat="42.5806654" lon="12.7550496"><ele>232.0</ele><time>2026-04-25T14:41:38.448Z</time></trkpt><trkpt lat="42.5807413" lon="12.7552009"><ele>232.0</ele><time>2026-04-25T14:41:39.448Z</time></trkpt><trkpt lat="42.5808165" lon="12.755352"><ele>232.0</ele><time>2026-04-25T14:41:40.448Z</time></trkpt><trkpt lat="42.5808957" lon="12.7555096"><ele>232.0</ele><time>2026-04-25T14:41:41.448Z</time></trkpt><trkpt lat="42.5809724" lon="12.7556645"><ele>231.75</ele><time>2026-04-25T14:41:42.448Z</time></trkpt><trkpt lat="42.5810507" lon="12.7558192"><ele>231.5</ele><time>2026-04-25T14:41:43.448Z</time></trkpt><trkpt lat="42.5811299" lon="12.7559723"><ele>231.25</ele><time>2026-04-25T14:41:44.448Z</time></trkpt><trkpt lat="42.5812086" lon="12.7561269"><ele>231.0</ele><time>2026-04-25T14:41:45.449Z</time></trkpt><trkpt lat="42.5812885" lon="12.7562821"><ele>231.0</ele><time>2026-04-25T14:41:46.448Z</time></trkpt><trkpt lat="42.581366" lon="12.7564359"><ele>231.0</ele><time>2026-04-25T14:41:47.448Z</time></trkpt><trkpt lat="42.5814458" lon="12.7565905"><ele>231.0</ele><time>2026-04-25T14:41:48.449Z</time></trkpt><trkpt lat="42.5815259" lon="12.7567444"><ele>231.0</ele><time>2026-04-25T14:41:49.449Z</time></trkpt><trkpt lat="42.5816061" lon="12.7569012"><ele>229.0</ele><time>2026-04-25T14:41:50.449Z</time></trkpt><trkpt lat="42.5816882" lon="12.7570598"><ele>227.0</ele><time>2026-04-25T14:41:51.448Z</time></trkpt><trkpt lat="42.5817748" lon="12.7572055"><ele>225.0</ele><time>2026-04-25T14:41:52.448Z</time></trkpt><trkpt lat="42.5818674" lon="12.7573428"><ele>223.0</ele><time>2026-04-25T14:41:53.448Z</time></trkpt><trkpt lat="42.5819673" lon="12.7574759"><ele>223.0</ele><time>2026-04-25T14:41:54.448Z</time></trkpt><trkpt lat="42.5820697" lon="12.7576043"><ele>223.0</ele><time>2026-04-25T14:41:55.448Z</time></trkpt><trkpt lat="42.582182" lon="12.7577319"><ele>223.0</ele><time>2026-04-25T14:41:56.448Z</time></trkpt><trkpt lat="42.582292" lon="12.7578568"><ele>223.0</ele><time>2026-04-25T14:41:57.449Z</time></trkpt><trkpt lat="42.5823999" lon="12.7579957"><ele>223.0</ele><time>2026-04-25T14:41:58.448Z</time></trkpt><trkpt lat="42.5825175" lon="12.7581229"><ele>223.0</ele><time>2026-04-25T14:41:59.448Z</time></trkpt><trkpt lat="42.5826294" lon="12.7582493"><ele>223.0</ele><time>2026-04-25T14:42:00.448Z</time></trkpt><trkpt lat="42.5827386" lon="12.7583668"><ele>223.0</ele><time>2026-04-25T14:42:01.448Z</time></trkpt><trkpt lat="42.5828443" lon="12.7584834"><ele>222.75</ele><time>2026-04-25T14:42:02.448Z</time></trkpt><trkpt lat="42.5829576" lon="12.7585973"><ele>222.5</ele><time>2026-04-25T14:42:03.448Z</time></trkpt><trkpt lat="42.5830709" lon="12.7587032"><ele>222.25</ele><time>2026-04-25T14:42:04.449Z</time></trkpt><trkpt lat="42.5831655" lon="12.7588063"><ele>222.0</ele><time>2026-04-25T14:42:05.448Z</time></trkpt><trkpt lat="42.5832609" lon="12.7589045"><ele>222.0</ele><time>2026-04-25T14:42:06.448Z</time></trkpt><trkpt lat="42.5833593" lon="12.7590046"><ele>222.0</ele><time>2026-04-25T14:42:07.448Z</time></trkpt><trkpt lat="42.5834457" lon="12.7591024"><ele>222.0</ele><time>2026-04-25T14:42:08.448Z</time></trkpt><trkpt lat="42.5835392" lon="12.7592047"><ele>222.0</ele><time>2026-04-25T14:42:09.448Z</time></trkpt><trkpt lat="42.5836313" lon="12.7593055"><ele>222.0</ele><time>2026-04-25T14:42:10.448Z</time></trkpt><trkpt lat="42.5837259" lon="12.7594082"><ele>222.0</ele><time>2026-04-25T14:42:11.448Z</time></trkpt><trkpt lat="42.5838204" lon="12.7595127"><ele>222.0</ele><time>2026-04-25T14:42:12.448Z</time></trkpt><trkpt lat="42.5839154" lon="12.7596171"><ele>222.0</ele><time>2026-04-25T14:42:13.448Z</time></trkpt><trkpt lat="42.5840082" lon="12.7597208"><ele>222.0</ele><time>2026-04-25T14:42:14.448Z</time></trkpt><trkpt lat="42.5841059" lon="12.7598194"><ele>222.0</ele><time>2026-04-25T14:42:15.448Z</time></trkpt><trkpt lat="42.5841978" lon="12.7599212"><ele>222.0</ele><time>2026-04-25T14:42:16.448Z</time></trkpt><trkpt lat="42.584284" lon="12.7600119"><ele>222.0</ele><time>2026-04-25T14:42:17.448Z</time></trkpt><trkpt lat="42.584366" lon="12.7601044"><ele>222.0</ele><time>2026-04-25T14:42:18.448Z</time></trkpt><trkpt lat="42.5844487" lon="12.7601922"><ele>222.0</ele><time>2026-04-25T14:42:19.448Z</time></trkpt><trkpt lat="42.5845284" lon="12.7602845"><ele>222.0</ele><time>2026-04-25T14:42:20.449Z</time></trkpt><trkpt lat="42.5846126" lon="12.7603833"><ele>222.0</ele><time>2026-04-25T14:42:21.448Z</time></trkpt><trkpt lat="42.5847011" lon="12.7604775"><ele>222.0</ele><time>2026-04-25T14:42:22.449Z</time></trkpt><trkpt lat="42.5847892" lon="12.7605759"><ele>222.0</ele><time>2026-04-25T14:42:23.448Z</time></trkpt><trkpt lat="42.5848759" lon="12.7606734"><ele>222.0</ele><time>2026-04-25T14:42:24.448Z</time></trkpt><trkpt lat="42.5849671" lon="12.7607717"><ele>222.0</ele><time>2026-04-25T14:42:25.448Z</time></trkpt><trkpt lat="42.5850561" lon="12.7608673"><ele>222.0</ele><time>2026-04-25T14:42:26.448Z</time></trkpt><trkpt lat="42.5851465" lon="12.7609681"><ele>222.0</ele><time>2026-04-25T14:42:27.448Z</time></trkpt><trkpt lat="42.5852415" lon="12.7610663"><ele>222.0</ele><time>2026-04-25T14:42:28.448Z</time></trkpt><trkpt lat="42.5853348" lon="12.7611624"><ele>222.0</ele><time>2026-04-25T14:42:29.449Z</time></trkpt><trkpt lat="42.5854277" lon="12.7612683"><ele>222.0</ele><time>2026-04-25T14:42:30.448Z</time></trkpt><trkpt lat="42.5855184" lon="12.7613678"><ele>222.5</ele><time>2026-04-25T14:42:31.448Z</time></trkpt><trkpt lat="42.585607" lon="12.7614633"><ele>223.0</ele><time>2026-04-25T14:42:32.448Z</time></trkpt><trkpt lat="42.5856991" lon="12.7615595"><ele>223.5</ele><time>2026-04-25T14:42:33.448Z</time></trkpt><trkpt lat="42.5857919" lon="12.7616587"><ele>224.0</ele><time>2026-04-25T14:42:34.448Z</time></trkpt><trkpt lat="42.5858796" lon="12.7617594"><ele>223.75</ele><time>2026-04-25T14:42:35.449Z</time></trkpt><trkpt lat="42.5859713" lon="12.7618661"><ele>223.5</ele><time>2026-04-25T14:42:36.448Z</time></trkpt><trkpt lat="42.586059" lon="12.7619684"><ele>223.25</ele><time>2026-04-25T14:42:37.448Z</time></trkpt><trkpt lat="42.5861484" lon="12.762073"><ele>223.0</ele><time>2026-04-25T14:42:38.448Z</time></trkpt><trkpt lat="42.5862369" lon="12.7621677"><ele>223.0</ele><time>2026-04-25T14:42:39.448Z</time></trkpt><trkpt lat="42.5863295" lon="12.7622623"><ele>223.0</ele><time>2026-04-25T14:42:40.449Z</time></trkpt><trkpt lat="42.5864203" lon="12.7623607"><ele>223.0</ele><time>2026-04-25T14:42:41.449Z</time></trkpt><trkpt lat="42.5865089" lon="12.7624594"><ele>223.0</ele><time>2026-04-25T14:42:42.448Z</time></trkpt><trkpt lat="42.5865974" lon="12.7625637"><ele>223.0</ele><time>2026-04-25T14:42:43.448Z</time></trkpt><trkpt lat="42.586682" lon="12.7626673"><ele>223.0</ele><time>2026-04-25T14:42:44.449Z</time></trkpt><trkpt lat="42.5867704" lon="12.762767"><ele>223.0</ele><time>2026-04-25T14:42:45.448Z</time></trkpt><trkpt lat="42.5868525" lon="12.7628673"><ele>223.0</ele><time>2026-04-25T14:42:46.448Z</time></trkpt><trkpt lat="42.5869365" lon="12.7629609"><ele>223.0</ele><time>2026-04-25T14:42:47.448Z</time></trkpt><trkpt lat="42.5870228" lon="12.763055"><ele>223.4</ele><time>2026-04-25T14:42:48.448Z</time></trkpt><trkpt lat="42.5871102" lon="12.7631549"><ele>223.8</ele><time>2026-04-25T14:42:49.448Z</time></trkpt><trkpt lat="42.5871951" lon="12.763247"><ele>224.2</ele><time>2026-04-25T14:42:50.449Z</time></trkpt><trkpt lat="42.5872819" lon="12.7633408"><ele>224.6</ele><time>2026-04-25T14:42:51.448Z</time></trkpt><trkpt lat="42.5873716" lon="12.7634297"><ele>225.0</ele><time>2026-04-25T14:42:52.448Z</time></trkpt><trkpt lat="42.58746" lon="12.7635246"><ele>224.8</ele><time>2026-04-25T14:42:53.448Z</time></trkpt><trkpt lat="42.5875428" lon="12.763616"><ele>224.6</ele><time>2026-04-25T14:42:54.448Z</time></trkpt><trkpt lat="42.5876241" lon="12.7637089"><ele>224.39999999999998</ele><time>2026-04-25T14:42:55.448Z</time></trkpt><trkpt lat="42.5877029" lon="12.7637949"><ele>224.2</ele><time>2026-04-25T14:42:56.448Z</time></trkpt><trkpt lat="42.5877731" lon="12.7638805"><ele>224.0</ele><time>2026-04-25T14:42:57.448Z</time></trkpt><trkpt lat="42.5878424" lon="12.7639557"><ele>223.85714285714286</ele><time>2026-04-25T14:42:58.448Z</time></trkpt><trkpt lat="42.5879058" lon="12.7640284"><ele>223.71428571428572</ele><time>2026-04-25T14:42:59.448Z</time></trkpt><trkpt lat="42.587968" lon="12.764102"><ele>223.57142857142856</ele><time>2026-04-25T14:43:00.448Z</time></trkpt><trkpt lat="42.5880267" lon="12.7641708"><ele>223.42857142857144</ele><time>2026-04-25T14:43:01.448Z</time></trkpt><trkpt lat="42.58808" lon="12.7642324"><ele>223.28571428571428</ele><time>2026-04-25T14:43:02.448Z</time></trkpt><trkpt lat="42.5881266" lon="12.7642923"><ele>223.14285714285714</ele><time>2026-04-25T14:43:03.448Z</time></trkpt><trkpt lat="42.5881728" lon="12.7643554"><ele>223.0</ele><time>2026-04-25T14:43:04.448Z</time></trkpt><trkpt lat="42.5882194" lon="12.7644137"><ele>223.0</ele><time>2026-04-25T14:43:05.448Z</time></trkpt><trkpt lat="42.5882937" lon="12.7645423"><ele>223.0</ele><time>2026-04-25T14:43:07.448Z</time></trkpt><trkpt lat="42.5883557" lon="12.7646896"><ele>223.0</ele><time>2026-04-25T14:43:09.448Z</time></trkpt><trkpt lat="42.5884124" lon="12.7647483"><ele>223.0</ele><time>2026-04-25T14:43:10.448Z</time></trkpt><trkpt lat="42.5884715" lon="12.7647926"><ele>223.0</ele><time>2026-04-25T14:43:11.448Z</time></trkpt><trkpt lat="42.5885451" lon="12.7648372"><ele>222.99999999999997</ele><time>2026-04-25T14:43:12.448Z</time></trkpt><trkpt lat="42.5886111" lon="12.7648862"><ele>223.0</ele><time>2026-04-25T14:43:13.448Z</time></trkpt><trkpt lat="42.5886806" lon="12.764939"><ele>223.0</ele><time>2026-04-25T14:43:14.448Z</time></trkpt><trkpt lat="42.5887499" lon="12.7649999"><ele>223.0</ele><time>2026-04-25T14:43:15.449Z</time></trkpt><trkpt lat="42.5888168" lon="12.7650627"><ele>222.99999999999997</ele><time>2026-04-25T14:43:16.448Z</time></trkpt><trkpt lat="42.588882" lon="12.7651369"><ele>223.0</ele><time>2026-04-25T14:43:17.448Z</time></trkpt><trkpt lat="42.5889504" lon="12.7652092"><ele>223.66666666666666</ele><time>2026-04-25T14:43:18.448Z</time></trkpt><trkpt lat="42.5890222" lon="12.7652838"><ele>224.33333333333331</ele><time>2026-04-25T14:43:19.449Z</time></trkpt><trkpt lat="42.5890909" lon="12.7653537"><ele>225.0</ele><time>2026-04-25T14:43:20.448Z</time></trkpt><trkpt lat="42.5891556" lon="12.7654273"><ele>225.66666666666669</ele><time>2026-04-25T14:43:21.448Z</time></trkpt><trkpt lat="42.5892226" lon="12.7655041"><ele>226.33333333333334</ele><time>2026-04-25T14:43:22.449Z</time></trkpt><trkpt lat="42.5892918" lon="12.7655932"><ele>227.0</ele><time>2026-04-25T14:43:23.448Z</time></trkpt><trkpt lat="42.5893659" lon="12.7656867"><ele>227.0</ele><time>2026-04-25T14:43:24.448Z</time></trkpt><trkpt lat="42.5894356" lon="12.7657823"><ele>227.0</ele><time>2026-04-25T14:43:25.448Z</time></trkpt><trkpt lat="42.5894963" lon="12.7658735"><ele>227.0</ele><time>2026-04-25T14:43:26.448Z</time></trkpt><trkpt lat="42.5895584" lon="12.7659671"><ele>227.0</ele><time>2026-04-25T14:43:27.448Z</time></trkpt><trkpt lat="42.5896223" lon="12.7660654"><ele>227.0</ele><time>2026-04-25T14:43:28.448Z</time></trkpt><trkpt lat="42.589688" lon="12.766167"><ele>227.39999999999998</ele><time>2026-04-25T14:43:29.448Z</time></trkpt><trkpt lat="42.5897575" lon="12.7662589"><ele>227.79999999999998</ele><time>2026-04-25T14:43:30.449Z</time></trkpt><trkpt lat="42.5898316" lon="12.7663595"><ele>228.2</ele><time>2026-04-25T14:43:31.448Z</time></trkpt><trkpt lat="42.5898996" lon="12.7664715"><ele>228.6</ele><time>2026-04-25T14:43:32.448Z</time></trkpt><trkpt lat="42.5899732" lon="12.7665709"><ele>229.0</ele><time>2026-04-25T14:43:33.448Z</time></trkpt><trkpt lat="42.5900479" lon="12.7666816"><ele>229.0</ele><time>2026-04-25T14:43:34.448Z</time></trkpt><trkpt lat="42.5901265" lon="12.7668055"><ele>229.0</ele><time>2026-04-25T14:43:35.448Z</time></trkpt><trkpt lat="42.5902041" lon="12.766929"><ele>229.0</ele><time>2026-04-25T14:43:36.448Z</time></trkpt><trkpt lat="42.5902873" lon="12.7670461"><ele>229.0</ele><time>2026-04-25T14:43:37.449Z</time></trkpt><trkpt lat="42.5903639" lon="12.7671744"><ele>229.0</ele><time>2026-04-25T14:43:38.448Z</time></trkpt><trkpt lat="42.5904452" lon="12.7672915"><ele>229.0</ele><time>2026-04-25T14:43:39.448Z</time></trkpt><trkpt lat="42.5905389" lon="12.7674034"><ele>229.0</ele><time>2026-04-25T14:43:40.448Z</time></trkpt><trkpt lat="42.5906417" lon="12.7675133"><ele>229.0</ele><time>2026-04-25T14:43:41.448Z</time></trkpt><trkpt lat="42.5907665" lon="12.7676108"><ele>227.66666666666666</ele><time>2026-04-25T14:43:42.448Z</time></trkpt><trkpt lat="42.5908955" lon="12.7677029"><ele>226.33333333333331</ele><time>2026-04-25T14:43:43.448Z</time></trkpt><trkpt lat="42.5910392" lon="12.7677977"><ele>225.0</ele><time>2026-04-25T14:43:44.448Z</time></trkpt><trkpt lat="42.5911881" lon="12.7678981"><ele>225.0</ele><time>2026-04-25T14:43:45.448Z</time></trkpt><trkpt lat="42.5913456" lon="12.7679942"><ele>225.0</ele><time>2026-04-25T14:43:46.448Z</time></trkpt><trkpt lat="42.5914932" lon="12.7680963"><ele>225.0</ele><time>2026-04-25T14:43:47.448Z</time></trkpt><trkpt lat="42.5916467" lon="12.7681981"><ele>225.0</ele><time>2026-04-25T14:43:48.449Z</time></trkpt><trkpt lat="42.5917976" lon="12.7683036"><ele>225.0</ele><time>2026-04-25T14:43:49.448Z</time></trkpt><trkpt lat="42.5919503" lon="12.768412"><ele>225.0</ele><time>2026-04-25T14:43:50.448Z</time></trkpt><trkpt lat="42.5921095" lon="12.7685121"><ele>225.33333333333331</ele><time>2026-04-25T14:43:51.448Z</time></trkpt><trkpt lat="42.5922719" lon="12.7686076"><ele>225.66666666666666</ele><time>2026-04-25T14:43:52.448Z</time></trkpt><trkpt lat="42.5924362" lon="12.7687035"><ele>226.0</ele><time>2026-04-25T14:43:53.449Z</time></trkpt><trkpt lat="42.5925898" lon="12.7688045"><ele>226.0</ele><time>2026-04-25T14:43:54.449Z</time></trkpt><trkpt lat="42.5927464" lon="12.7689114"><ele>226.0</ele><time>2026-04-25T14:43:55.448Z</time></trkpt><trkpt lat="42.5929041" lon="12.7690146"><ele>226.0</ele><time>2026-04-25T14:43:56.448Z</time></trkpt><trkpt lat="42.593062" lon="12.7691207"><ele>226.66666666666666</ele><time>2026-04-25T14:43:57.449Z</time></trkpt><trkpt lat="42.5932179" lon="12.769226"><ele>227.33333333333331</ele><time>2026-04-25T14:43:58.448Z</time></trkpt><trkpt lat="42.5933673" lon="12.769336"><ele>228.0</ele><time>2026-04-25T14:43:59.448Z</time></trkpt><trkpt lat="42.5935234" lon="12.7694487"><ele>229.66666666666669</ele><time>2026-04-25T14:44:00.449Z</time></trkpt><trkpt lat="42.5936804" lon="12.7695575"><ele>231.33333333333334</ele><time>2026-04-25T14:44:01.448Z</time></trkpt><trkpt lat="42.5938459" lon="12.7696685"><ele>233.0</ele><time>2026-04-25T14:44:02.448Z</time></trkpt><trkpt lat="42.5939932" lon="12.7697826"><ele>233.0</ele><time>2026-04-25T14:44:03.448Z</time></trkpt><trkpt lat="42.5941436" lon="12.7698931"><ele>233.0</ele><time>2026-04-25T14:44:04.448Z</time></trkpt><trkpt lat="42.5942791" lon="12.7699908"><ele>233.0</ele><time>2026-04-25T14:44:05.449Z</time></trkpt><trkpt lat="42.5944159" lon="12.7700643"><ele>232.5</ele><time>2026-04-25T14:44:06.448Z</time></trkpt><trkpt lat="42.5945639" lon="12.7701169"><ele>232.0</ele><time>2026-04-25T14:44:07.448Z</time></trkpt><trkpt lat="42.5947044" lon="12.7701536"><ele>231.5</ele><time>2026-04-25T14:44:08.448Z</time></trkpt><trkpt lat="42.5948557" lon="12.7701732"><ele>231.0</ele><time>2026-04-25T14:44:09.448Z</time></trkpt><trkpt lat="42.5950047" lon="12.7701927"><ele>231.0</ele><time>2026-04-25T14:44:10.449Z</time></trkpt><trkpt lat="42.595161" lon="12.7702054"><ele>231.0</ele><time>2026-04-25T14:44:11.448Z</time></trkpt><trkpt lat="42.595315" lon="12.7702183"><ele>231.0</ele><time>2026-04-25T14:44:12.449Z</time></trkpt><trkpt lat="42.5954756" lon="12.7702316"><ele>230.33333333333331</ele><time>2026-04-25T14:44:13.449Z</time></trkpt><trkpt lat="42.5956349" lon="12.7702477"><ele>229.66666666666666</ele><time>2026-04-25T14:44:14.448Z</time></trkpt><trkpt lat="42.5957856" lon="12.7702605"><ele>229.0</ele><time>2026-04-25T14:44:15.448Z</time></trkpt><trkpt lat="42.5959331" lon="12.770273"><ele>229.0</ele><time>2026-04-25T14:44:16.449Z</time></trkpt><trkpt lat="42.596083" lon="12.7702865"><ele>229.0</ele><time>2026-04-25T14:44:17.449Z</time></trkpt><trkpt lat="42.5962177" lon="12.7702959"><ele>229.0</ele><time>2026-04-25T14:44:18.448Z</time></trkpt><trkpt lat="42.5963481" lon="12.7703005"><ele>229.0</ele><time>2026-04-25T14:44:19.448Z</time></trkpt><trkpt lat="42.5964626" lon="12.7703127"><ele>229.79999999999998</ele><time>2026-04-25T14:44:20.448Z</time></trkpt><trkpt lat="42.5965717" lon="12.7703197"><ele>230.59999999999997</ele><time>2026-04-25T14:44:21.448Z</time></trkpt><trkpt lat="42.5966722" lon="12.7703272"><ele>231.4</ele><time>2026-04-25T14:44:22.448Z</time></trkpt><trkpt lat="42.5967718" lon="12.7703303"><ele>232.2</ele><time>2026-04-25T14:44:23.448Z</time></trkpt><trkpt lat="42.5968744" lon="12.770337"><ele>233.0</ele><time>2026-04-25T14:44:24.448Z</time></trkpt><trkpt lat="42.5969772" lon="12.7703424"><ele>233.0</ele><time>2026-04-25T14:44:25.448Z</time></trkpt><trkpt lat="42.5970815" lon="12.7703395"><ele>233.0</ele><time>2026-04-25T14:44:26.448Z</time></trkpt><trkpt lat="42.5971863" lon="12.7703515"><ele>233.0</ele><time>2026-04-25T14:44:27.448Z</time></trkpt><trkpt lat="42.5972937" lon="12.7703606"><ele>233.0</ele><time>2026-04-25T14:44:28.449Z</time></trkpt><trkpt lat="42.5974041" lon="12.7703654"><ele>233.0</ele><time>2026-04-25T14:44:29.448Z</time></trkpt><trkpt lat="42.5975184" lon="12.770373"><ele>233.0</ele><time>2026-04-25T14:44:30.448Z</time></trkpt><trkpt lat="42.5976392" lon="12.770385"><ele>233.0</ele><time>2026-04-25T14:44:31.448Z</time></trkpt><trkpt lat="42.5977557" lon="12.7703946"><ele>233.0</ele><time>2026-04-25T14:44:32.449Z</time></trkpt><trkpt lat="42.5978719" lon="12.7703995"><ele>233.0</ele><time>2026-04-25T14:44:33.448Z</time></trkpt><trkpt lat="42.5979951" lon="12.7704133"><ele>232.75</ele><time>2026-04-25T14:44:34.449Z</time></trkpt><trkpt lat="42.5981231" lon="12.7704234"><ele>232.5</ele><time>2026-04-25T14:44:35.448Z</time></trkpt><trkpt lat="42.5982497" lon="12.7704382"><ele>232.25</ele><time>2026-04-25T14:44:36.448Z</time></trkpt><trkpt lat="42.5983832" lon="12.7704556"><ele>232.0</ele><time>2026-04-25T14:44:37.449Z</time></trkpt><trkpt lat="42.5985198" lon="12.7704703"><ele>232.0</ele><time>2026-04-25T14:44:38.448Z</time></trkpt><trkpt lat="42.5986554" lon="12.7705102"><ele>232.0</ele><time>2026-04-25T14:44:39.448Z</time></trkpt><trkpt lat="42.5987816" lon="12.7705554"><ele>232.0</ele><time>2026-04-25T14:44:40.448Z</time></trkpt><trkpt lat="42.5989084" lon="12.7706053"><ele>232.0</ele><time>2026-04-25T14:44:41.448Z</time></trkpt><trkpt lat="42.5990377" lon="12.7706546"><ele>232.5</ele><time>2026-04-25T14:44:42.448Z</time></trkpt><trkpt lat="42.5991686" lon="12.7707171"><ele>233.0</ele><time>2026-04-25T14:44:43.448Z</time></trkpt><trkpt lat="42.5993012" lon="12.7707846"><ele>233.5</ele><time>2026-04-25T14:44:44.448Z</time></trkpt><trkpt lat="42.5994299" lon="12.770846"><ele>234.0</ele><time>2026-04-25T14:44:45.448Z</time></trkpt><trkpt lat="42.5995605" lon="12.7709063"><ele>233.25</ele><time>2026-04-25T14:44:46.448Z</time></trkpt><trkpt lat="42.5996926" lon="12.7709736"><ele>232.5</ele><time>2026-04-25T14:44:47.448Z</time></trkpt><trkpt lat="42.5998188" lon="12.7710394"><ele>231.75</ele><time>2026-04-25T14:44:48.448Z</time></trkpt><trkpt lat="42.599948" lon="12.7711055"><ele>231.0</ele><time>2026-04-25T14:44:49.448Z</time></trkpt><trkpt lat="42.6000813" lon="12.7711644"><ele>231.0</ele><time>2026-04-25T14:44:50.448Z</time></trkpt><trkpt lat="42.6002048" lon="12.7712294"><ele>231.0</ele><time>2026-04-25T14:44:51.448Z</time></trkpt><trkpt lat="42.6003459" lon="12.771297"><ele>231.0</ele><time>2026-04-25T14:44:52.449Z</time></trkpt><trkpt lat="42.6004711" lon="12.7713664"><ele>231.0</ele><time>2026-04-25T14:44:53.449Z</time></trkpt><trkpt lat="42.6006079" lon="12.7714335"><ele>231.25</ele><time>2026-04-25T14:44:54.449Z</time></trkpt><trkpt lat="42.6007403" lon="12.7714966"><ele>231.5</ele><time>2026-04-25T14:44:55.449Z</time></trkpt><trkpt lat="42.6008743" lon="12.7715582"><ele>231.75</ele><time>2026-04-25T14:44:56.448Z</time></trkpt><trkpt lat="42.6010142" lon="12.7716225"><ele>232.0</ele><time>2026-04-25T14:44:57.448Z</time></trkpt><trkpt lat="42.6011538" lon="12.7716863"><ele>231.33333333333331</ele><time>2026-04-25T14:44:58.448Z</time></trkpt><trkpt lat="42.6013029" lon="12.7717543"><ele>230.66666666666669</ele><time>2026-04-25T14:44:59.448Z</time></trkpt><trkpt lat="42.6014561" lon="12.7718233"><ele>230.0</ele><time>2026-04-25T14:45:00.448Z</time></trkpt><trkpt lat="42.6016175" lon="12.7719013"><ele>230.0</ele><time>2026-04-25T14:45:01.448Z</time></trkpt><trkpt lat="42.6017785" lon="12.7719803"><ele>230.0</ele><time>2026-04-25T14:45:02.448Z</time></trkpt><trkpt lat="42.6019338" lon="12.7720583"><ele>230.0</ele><time>2026-04-25T14:45:03.448Z</time></trkpt><trkpt lat="42.6020975" lon="12.7721249"><ele>230.66666666666669</ele><time>2026-04-25T14:45:04.448Z</time></trkpt><trkpt lat="42.6022607" lon="12.7721879"><ele>231.33333333333331</ele><time>2026-04-25T14:45:05.448Z</time></trkpt><trkpt lat="42.6024298" lon="12.7722426"><ele>232.0</ele><time>2026-04-25T14:45:06.448Z</time></trkpt><trkpt lat="42.6026015" lon="12.7722971"><ele>232.0</ele><time>2026-04-25T14:45:07.448Z</time></trkpt><trkpt lat="42.6027693" lon="12.7723504"><ele>232.0</ele><time>2026-04-25T14:45:08.448Z</time></trkpt><trkpt lat="42.6029383" lon="12.7723977"><ele>232.0</ele><time>2026-04-25T14:45:09.448Z</time></trkpt><trkpt lat="42.6031136" lon="12.7724473"><ele>234.33333333333331</ele><time>2026-04-25T14:45:10.448Z</time></trkpt><trkpt lat="42.6032914" lon="12.7725013"><ele>236.66666666666669</ele><time>2026-04-25T14:45:11.449Z</time></trkpt><trkpt lat="42.603465" lon="12.7725547"><ele>239.0</ele><time>2026-04-25T14:45:12.448Z</time></trkpt><trkpt lat="42.6036233" lon="12.7726109"><ele>241.33333333333334</ele><time>2026-04-25T14:45:13.449Z</time></trkpt><trkpt lat="42.6037972" lon="12.772664"><ele>243.66666666666669</ele><time>2026-04-25T14:45:14.448Z</time></trkpt><trkpt lat="42.6039638" lon="12.7727109"><ele>246.0</ele><time>2026-04-25T14:45:15.448Z</time></trkpt><trkpt lat="42.6041397" lon="12.7727639"><ele>242.66666666666669</ele><time>2026-04-25T14:45:16.448Z</time></trkpt><trkpt lat="42.6043135" lon="12.772809"><ele>239.33333333333334</ele><time>2026-04-25T14:45:17.448Z</time></trkpt><trkpt lat="42.6044853" lon="12.7728612"><ele>236.0</ele><time>2026-04-25T14:45:18.448Z</time></trkpt><trkpt lat="42.6046596" lon="12.772923"><ele>236.0</ele><time>2026-04-25T14:45:19.448Z</time></trkpt><trkpt lat="42.6048329" lon="12.7729814"><ele>236.0</ele><time>2026-04-25T14:45:20.448Z</time></trkpt><trkpt lat="42.6050027" lon="12.7730441"><ele>236.0</ele><time>2026-04-25T14:45:21.448Z</time></trkpt><trkpt lat="42.6051723" lon="12.7731017"><ele>237.0</ele><time>2026-04-25T14:45:22.448Z</time></trkpt><trkpt lat="42.6053507" lon="12.7731614"><ele>238.0</ele><time>2026-04-25T14:45:23.448Z</time></trkpt><trkpt lat="42.6055234" lon="12.7732282"><ele>239.0</ele><time>2026-04-25T14:45:24.448Z</time></trkpt><trkpt lat="42.6056937" lon="12.7732981"><ele>239.0</ele><time>2026-04-25T14:45:25.449Z</time></trkpt><trkpt lat="42.605861" lon="12.7733754"><ele>239.0</ele><time>2026-04-25T14:45:26.448Z</time></trkpt><trkpt lat="42.6060209" lon="12.7734522"><ele>239.0</ele><time>2026-04-25T14:45:27.448Z</time></trkpt><trkpt lat="42.6061829" lon="12.7735407"><ele>237.33333333333334</ele><time>2026-04-25T14:45:28.448Z</time></trkpt><trkpt lat="42.606339" lon="12.7736315"><ele>235.66666666666669</ele><time>2026-04-25T14:45:29.448Z</time></trkpt><trkpt lat="42.6065023" lon="12.7737298"><ele>234.0</ele><time>2026-04-25T14:45:30.448Z</time></trkpt><trkpt lat="42.6066566" lon="12.7738252"><ele>234.0</ele><time>2026-04-25T14:45:31.448Z</time></trkpt><trkpt lat="42.6068076" lon="12.7739215"><ele>234.0</ele><time>2026-04-25T14:45:32.449Z</time></trkpt><trkpt lat="42.6069638" lon="12.7740163"><ele>234.0</ele><time>2026-04-25T14:45:33.448Z</time></trkpt><trkpt lat="42.6071186" lon="12.7741105"><ele>234.33333333333331</ele><time>2026-04-25T14:45:34.448Z</time></trkpt><trkpt lat="42.6072779" lon="12.7742088"><ele>234.66666666666666</ele><time>2026-04-25T14:45:35.449Z</time></trkpt><trkpt lat="42.6074387" lon="12.7743091"><ele>235.0</ele><time>2026-04-25T14:45:36.449Z</time></trkpt><trkpt lat="42.6075958" lon="12.7744083"><ele>235.0</ele><time>2026-04-25T14:45:37.448Z</time></trkpt><trkpt lat="42.6077619" lon="12.774502"><ele>235.0</ele><time>2026-04-25T14:45:38.448Z</time></trkpt><trkpt lat="42.6079195" lon="12.7746144"><ele>235.0</ele><time>2026-04-25T14:45:39.448Z</time></trkpt><trkpt lat="42.6080769" lon="12.7747224"><ele>239.33333333333331</ele><time>2026-04-25T14:45:40.448Z</time></trkpt><trkpt lat="42.6082257" lon="12.7748205"><ele>243.66666666666669</ele><time>2026-04-25T14:45:41.448Z</time></trkpt><trkpt lat="42.6083776" lon="12.7749199"><ele>248.0</ele><time>2026-04-25T14:45:42.448Z</time></trkpt><trkpt lat="42.6085388" lon="12.7750091"><ele>250.33333333333334</ele><time>2026-04-25T14:45:43.448Z</time></trkpt><trkpt lat="42.6086958" lon="12.7750965"><ele>252.66666666666669</ele><time>2026-04-25T14:45:44.448Z</time></trkpt><trkpt lat="42.6088553" lon="12.7751679"><ele>255.0</ele><time>2026-04-25T14:45:45.448Z</time></trkpt><trkpt lat="42.6090155" lon="12.7752379"><ele>248.33333333333331</ele><time>2026-04-25T14:45:46.448Z</time></trkpt><trkpt lat="42.60918" lon="12.7752975"><ele>241.66666666666666</ele><time>2026-04-25T14:45:47.448Z</time></trkpt><trkpt lat="42.6093456" lon="12.7753641"><ele>235.0</ele><time>2026-04-25T14:45:48.448Z</time></trkpt><trkpt lat="42.6095096" lon="12.7754263"><ele>235.0</ele><time>2026-04-25T14:45:49.448Z</time></trkpt><trkpt lat="42.6096747" lon="12.7754834"><ele>235.0</ele><time>2026-04-25T14:45:50.448Z</time></trkpt><trkpt lat="42.6098415" lon="12.7755384"><ele>235.0</ele><time>2026-04-25T14:45:51.449Z</time></trkpt><trkpt lat="42.610003" lon="12.7756048"><ele>235.0</ele><time>2026-04-25T14:45:52.448Z</time></trkpt><trkpt lat="42.610171" lon="12.7756689"><ele>235.0</ele><time>2026-04-25T14:45:53.448Z</time></trkpt><trkpt lat="42.6103332" lon="12.775728"><ele>235.0</ele><time>2026-04-25T14:45:54.448Z</time></trkpt><trkpt lat="42.6104965" lon="12.7757877"><ele>235.66666666666666</ele><time>2026-04-25T14:45:55.448Z</time></trkpt><trkpt lat="42.6106573" lon="12.7758502"><ele>236.33333333333331</ele><time>2026-04-25T14:45:56.448Z</time></trkpt><trkpt lat="42.6108176" lon="12.7759123"><ele>237.0</ele><time>2026-04-25T14:45:57.449Z</time></trkpt><trkpt lat="42.6109819" lon="12.7759725"><ele>235.33333333333331</ele><time>2026-04-25T14:45:58.448Z</time></trkpt><trkpt lat="42.6111442" lon="12.7760335"><ele>233.66666666666666</ele><time>2026-04-25T14:45:59.448Z</time></trkpt><trkpt lat="42.6113069" lon="12.7760888"><ele>232.0</ele><time>2026-04-25T14:46:00.449Z</time></trkpt><trkpt lat="42.6114679" lon="12.7761489"><ele>232.0</ele><time>2026-04-25T14:46:01.448Z</time></trkpt><trkpt lat="42.6116338" lon="12.7762008"><ele>232.0</ele><time>2026-04-25T14:46:02.448Z</time></trkpt><trkpt lat="42.6118051" lon="12.7762581"><ele>232.0</ele><time>2026-04-25T14:46:03.449Z</time></trkpt><trkpt lat="42.6119747" lon="12.7763178"><ele>232.66666666666666</ele><time>2026-04-25T14:46:04.448Z</time></trkpt><trkpt lat="42.6121423" lon="12.7763747"><ele>233.33333333333331</ele><time>2026-04-25T14:46:05.448Z</time></trkpt><trkpt lat="42.6123082" lon="12.7764403"><ele>234.0</ele><time>2026-04-25T14:46:06.448Z</time></trkpt><trkpt lat="42.6124731" lon="12.7765065"><ele>234.0</ele><time>2026-04-25T14:46:07.449Z</time></trkpt><trkpt lat="42.6126437" lon="12.7765611"><ele>234.0</ele><time>2026-04-25T14:46:08.448Z</time></trkpt><trkpt lat="42.6128067" lon="12.7766242"><ele>234.0</ele><time>2026-04-25T14:46:09.448Z</time></trkpt><trkpt lat="42.6129668" lon="12.7766832"><ele>234.0</ele><time>2026-04-25T14:46:10.448Z</time></trkpt><trkpt lat="42.613135" lon="12.7767395"><ele>234.0</ele><time>2026-04-25T14:46:11.449Z</time></trkpt><trkpt lat="42.6133025" lon="12.7768055"><ele>234.0</ele><time>2026-04-25T14:46:12.448Z</time></trkpt><trkpt lat="42.6134777" lon="12.7768607"><ele>234.0</ele><time>2026-04-25T14:46:13.448Z</time></trkpt><trkpt lat="42.6136416" lon="12.776916"><ele>234.0</ele><time>2026-04-25T14:46:14.448Z</time></trkpt><trkpt lat="42.6138064" lon="12.7769773"><ele>234.0</ele><time>2026-04-25T14:46:15.448Z</time></trkpt><trkpt lat="42.6139696" lon="12.7770374"><ele>234.66666666666669</ele><time>2026-04-25T14:46:16.448Z</time></trkpt><trkpt lat="42.6141368" lon="12.7770905"><ele>235.33333333333334</ele><time>2026-04-25T14:46:17.448Z</time></trkpt><trkpt lat="42.6142985" lon="12.777153"><ele>236.0</ele><time>2026-04-25T14:46:18.448Z</time></trkpt><trkpt lat="42.6144583" lon="12.7772133"><ele>237.66666666666669</ele><time>2026-04-25T14:46:19.448Z</time></trkpt><trkpt lat="42.6146157" lon="12.7772752"><ele>239.33333333333331</ele><time>2026-04-25T14:46:20.448Z</time></trkpt><trkpt lat="42.614776" lon="12.7773358"><ele>241.0</ele><time>2026-04-25T14:46:21.448Z</time></trkpt><trkpt lat="42.614945" lon="12.7773931"><ele>241.0</ele><time>2026-04-25T14:46:22.449Z</time></trkpt><trkpt lat="42.6151044" lon="12.7774503"><ele>241.0</ele><time>2026-04-25T14:46:23.448Z</time></trkpt><trkpt lat="42.6152577" lon="12.7775123"><ele>241.0</ele><time>2026-04-25T14:46:24.448Z</time></trkpt><trkpt lat="42.6154115" lon="12.777568"><ele>241.33333333333331</ele><time>2026-04-25T14:46:25.448Z</time></trkpt><trkpt lat="42.6155668" lon="12.7776244"><ele>241.66666666666669</ele><time>2026-04-25T14:46:26.448Z</time></trkpt><trkpt lat="42.6157254" lon="12.7776848"><ele>242.0</ele><time>2026-04-25T14:46:27.448Z</time></trkpt><trkpt lat="42.6158789" lon="12.7777397"><ele>242.0</ele><time>2026-04-25T14:46:28.448Z</time></trkpt><trkpt lat="42.6160377" lon="12.7778002"><ele>242.0</ele><time>2026-04-25T14:46:29.448Z</time></trkpt><trkpt lat="42.6161969" lon="12.7778512"><ele>242.0</ele><time>2026-04-25T14:46:30.448Z</time></trkpt><trkpt lat="42.6163547" lon="12.7779038"><ele>242.0</ele><time>2026-04-25T14:46:31.448Z</time></trkpt><trkpt lat="42.6165098" lon="12.777956"><ele>242.0</ele><time>2026-04-25T14:46:32.448Z</time></trkpt><trkpt lat="42.6166688" lon="12.7780148"><ele>242.0</ele><time>2026-04-25T14:46:33.448Z</time></trkpt><trkpt lat="42.6168297" lon="12.7780791"><ele>242.0</ele><time>2026-04-25T14:46:34.448Z</time></trkpt><trkpt lat="42.6169841" lon="12.7781575"><ele>242.0</ele><time>2026-04-25T14:46:35.449Z</time></trkpt><trkpt lat="42.6171316" lon="12.7782461"><ele>242.0</ele><time>2026-04-25T14:46:36.448Z</time></trkpt><trkpt lat="42.6172755" lon="12.7783424"><ele>241.66666666666669</ele><time>2026-04-25T14:46:37.448Z</time></trkpt><trkpt lat="42.6174174" lon="12.7784443"><ele>241.33333333333331</ele><time>2026-04-25T14:46:38.448Z</time></trkpt><trkpt lat="42.6175453" lon="12.7785545"><ele>241.0</ele><time>2026-04-25T14:46:39.448Z</time></trkpt><trkpt lat="42.6176837" lon="12.7786724"><ele>241.0</ele><time>2026-04-25T14:46:40.448Z</time></trkpt><trkpt lat="42.6178149" lon="12.7788059"><ele>241.0</ele><time>2026-04-25T14:46:41.448Z</time></trkpt><trkpt lat="42.6179424" lon="12.778951"><ele>241.0</ele><time>2026-04-25T14:46:42.448Z</time></trkpt><trkpt lat="42.6180584" lon="12.7791013"><ele>241.5</ele><time>2026-04-25T14:46:43.448Z</time></trkpt><trkpt lat="42.6181805" lon="12.7792468"><ele>242.0</ele><time>2026-04-25T14:46:44.448Z</time></trkpt><trkpt lat="42.6182816" lon="12.7793828"><ele>242.5</ele><time>2026-04-25T14:46:45.448Z</time></trkpt><trkpt lat="42.6183759" lon="12.7795279"><ele>243.0</ele><time>2026-04-25T14:46:46.449Z</time></trkpt><trkpt lat="42.6184733" lon="12.7796544"><ele>243.0</ele><time>2026-04-25T14:46:47.448Z</time></trkpt><trkpt lat="42.6185575" lon="12.7797828"><ele>243.0</ele><time>2026-04-25T14:46:48.448Z</time></trkpt><trkpt lat="42.6186382" lon="12.7799069"><ele>243.0</ele><time>2026-04-25T14:46:49.449Z</time></trkpt><trkpt lat="42.6187166" lon="12.7800271"><ele>243.0</ele><time>2026-04-25T14:46:50.449Z</time></trkpt><trkpt lat="42.6187887" lon="12.7801419"><ele>243.8</ele><time>2026-04-25T14:46:51.448Z</time></trkpt><trkpt lat="42.6188526" lon="12.7802545"><ele>244.60000000000002</ele><time>2026-04-25T14:46:52.448Z</time></trkpt><trkpt lat="42.6189059" lon="12.7803721"><ele>245.39999999999998</ele><time>2026-04-25T14:46:53.448Z</time></trkpt><trkpt lat="42.6189608" lon="12.7804975"><ele>246.2</ele><time>2026-04-25T14:46:54.448Z</time></trkpt><trkpt lat="42.6190094" lon="12.7806289"><ele>247.0</ele><time>2026-04-25T14:46:55.448Z</time></trkpt><trkpt lat="42.6190458" lon="12.7807631"><ele>247.0</ele><time>2026-04-25T14:46:56.448Z</time></trkpt><trkpt lat="42.6190618" lon="12.7808975"><ele>247.0</ele><time>2026-04-25T14:46:57.448Z</time></trkpt><trkpt lat="42.6190624" lon="12.7810532"><ele>247.0</ele><time>2026-04-25T14:46:58.448Z</time></trkpt><trkpt lat="42.6190566" lon="12.7812069"><ele>247.0</ele><time>2026-04-25T14:46:59.449Z</time></trkpt><trkpt lat="42.6190529" lon="12.7813779"><ele>246.25</ele><time>2026-04-25T14:47:00.448Z</time></trkpt><trkpt lat="42.6190454" lon="12.7815345"><ele>245.5</ele><time>2026-04-25T14:47:01.449Z</time></trkpt><trkpt lat="42.6190428" lon="12.7817083"><ele>244.75</ele><time>2026-04-25T14:47:02.448Z</time></trkpt><trkpt lat="42.6190441" lon="12.7818785"><ele>244.0</ele><time>2026-04-25T14:47:03.448Z</time></trkpt><trkpt lat="42.6190431" lon="12.7820451"><ele>243.75</ele><time>2026-04-25T14:47:04.448Z</time></trkpt><trkpt lat="42.6190446" lon="12.7822064"><ele>243.5</ele><time>2026-04-25T14:47:05.448Z</time></trkpt><trkpt lat="42.6190402" lon="12.782369"><ele>243.25</ele><time>2026-04-25T14:47:06.448Z</time></trkpt><trkpt lat="42.6190338" lon="12.7825297"><ele>243.0</ele><time>2026-04-25T14:47:07.448Z</time></trkpt><trkpt lat="42.6190317" lon="12.7826934"><ele>243.0</ele><time>2026-04-25T14:47:08.448Z</time></trkpt><trkpt lat="42.6190304" lon="12.7828578"><ele>243.0</ele><time>2026-04-25T14:47:09.448Z</time></trkpt><trkpt lat="42.6190229" lon="12.7830146"><ele>243.0</ele><time>2026-04-25T14:47:10.448Z</time></trkpt><trkpt lat="42.6190213" lon="12.7831693"><ele>243.0</ele><time>2026-04-25T14:47:11.449Z</time></trkpt><trkpt lat="42.6190206" lon="12.7833256"><ele>243.0</ele><time>2026-04-25T14:47:12.449Z</time></trkpt><trkpt lat="42.6190135" lon="12.783478"><ele>243.0</ele><time>2026-04-25T14:47:13.448Z</time></trkpt><trkpt lat="42.6190112" lon="12.783629"><ele>243.0</ele><time>2026-04-25T14:47:14.448Z</time></trkpt><trkpt lat="42.6190093" lon="12.783789"><ele>243.0</ele><time>2026-04-25T14:47:15.448Z</time></trkpt><trkpt lat="42.619004" lon="12.7839438"><ele>243.0</ele><time>2026-04-25T14:47:16.448Z</time></trkpt><trkpt lat="42.6189928" lon="12.7840942"><ele>243.0</ele><time>2026-04-25T14:47:17.448Z</time></trkpt><trkpt lat="42.6189888" lon="12.7842422"><ele>243.0</ele><time>2026-04-25T14:47:18.448Z</time></trkpt><trkpt lat="42.6189868" lon="12.7843964"><ele>243.0</ele><time>2026-04-25T14:47:19.448Z</time></trkpt><trkpt lat="42.618987" lon="12.7845532"><ele>243.0</ele><time>2026-04-25T14:47:20.448Z</time></trkpt><trkpt lat="42.6189828" lon="12.7847164"><ele>243.0</ele><time>2026-04-25T14:47:21.448Z</time></trkpt><trkpt lat="42.618983" lon="12.7848817"><ele>243.0</ele><time>2026-04-25T14:47:22.448Z</time></trkpt><trkpt lat="42.6189825" lon="12.7850491"><ele>243.0</ele><time>2026-04-25T14:47:23.448Z</time></trkpt><trkpt lat="42.6189888" lon="12.7852167"><ele>243.0</ele><time>2026-04-25T14:47:24.448Z</time></trkpt><trkpt lat="42.6189926" lon="12.7853776"><ele>242.5</ele><time>2026-04-25T14:47:25.448Z</time></trkpt><trkpt lat="42.6189996" lon="12.7855367"><ele>242.0</ele><time>2026-04-25T14:47:26.448Z</time></trkpt><trkpt lat="42.6190161" lon="12.7856988"><ele>241.5</ele><time>2026-04-25T14:47:27.449Z</time></trkpt><trkpt lat="42.6190508" lon="12.7858727"><ele>241.0</ele><time>2026-04-25T14:47:28.448Z</time></trkpt><trkpt lat="42.6190787" lon="12.7860477"><ele>240.75</ele><time>2026-04-25T14:47:29.448Z</time></trkpt><trkpt lat="42.6191151" lon="12.7862312"><ele>240.5</ele><time>2026-04-25T14:47:30.448Z</time></trkpt><trkpt lat="42.6191502" lon="12.7864243"><ele>240.25</ele><time>2026-04-25T14:47:31.448Z</time></trkpt><trkpt lat="42.6192018" lon="12.7866214"><ele>240.0</ele><time>2026-04-25T14:47:32.448Z</time></trkpt><trkpt lat="42.6192434" lon="12.7868285"><ele>239.66666666666669</ele><time>2026-04-25T14:47:33.448Z</time></trkpt><trkpt lat="42.6192857" lon="12.7870389"><ele>239.33333333333334</ele><time>2026-04-25T14:47:34.448Z</time></trkpt><trkpt lat="42.619334" lon="12.7872615"><ele>239.0</ele><time>2026-04-25T14:47:35.449Z</time></trkpt><trkpt lat="42.6193804" lon="12.7874862"><ele>239.0</ele><time>2026-04-25T14:47:36.448Z</time></trkpt><trkpt lat="42.6194249" lon="12.7877135"><ele>239.0</ele><time>2026-04-25T14:47:37.448Z</time></trkpt><trkpt lat="42.6194668" lon="12.7879294"><ele>239.0</ele><time>2026-04-25T14:47:38.448Z</time></trkpt><trkpt lat="42.6195078" lon="12.7881449"><ele>241.25</ele><time>2026-04-25T14:47:39.448Z</time></trkpt><trkpt lat="42.6195559" lon="12.7883455"><ele>243.5</ele><time>2026-04-25T14:47:40.449Z</time></trkpt><trkpt lat="42.61959" lon="12.7885358"><ele>245.75</ele><time>2026-04-25T14:47:41.448Z</time></trkpt><trkpt lat="42.6196207" lon="12.7887174"><ele>248.0</ele><time>2026-04-25T14:47:42.448Z</time></trkpt><trkpt lat="42.6196508" lon="12.7888886"><ele>248.25</ele><time>2026-04-25T14:47:43.448Z</time></trkpt><trkpt lat="42.6196788" lon="12.789055"><ele>248.5</ele><time>2026-04-25T14:47:44.448Z</time></trkpt><trkpt lat="42.6197075" lon="12.7892161"><ele>248.75</ele><time>2026-04-25T14:47:45.448Z</time></trkpt><trkpt lat="42.6197348" lon="12.7893784"><ele>249.0</ele><time>2026-04-25T14:47:46.448Z</time></trkpt><trkpt lat="42.619766" lon="12.7895441"><ele>248.75</ele><time>2026-04-25T14:47:47.448Z</time></trkpt><trkpt lat="42.6197922" lon="12.7897054"><ele>248.5</ele><time>2026-04-25T14:47:48.448Z</time></trkpt><trkpt lat="42.6198121" lon="12.7898768"><ele>248.25</ele><time>2026-04-25T14:47:49.448Z</time></trkpt><trkpt lat="42.6198327" lon="12.7900469"><ele>248.0</ele><time>2026-04-25T14:47:50.448Z</time></trkpt><trkpt lat="42.6198548" lon="12.790206"><ele>248.0</ele><time>2026-04-25T14:47:51.448Z</time></trkpt><trkpt lat="42.6198731" lon="12.7903585"><ele>248.0</ele><time>2026-04-25T14:47:52.448Z</time></trkpt><trkpt lat="42.6198973" lon="12.790499"><ele>248.0</ele><time>2026-04-25T14:47:53.448Z</time></trkpt><trkpt lat="42.6199118" lon="12.7906342"><ele>248.0</ele><time>2026-04-25T14:47:54.449Z</time></trkpt><trkpt lat="42.6199237" lon="12.7907696"><ele>248.0</ele><time>2026-04-25T14:47:55.448Z</time></trkpt><trkpt lat="42.6199376" lon="12.7909082"><ele>248.2</ele><time>2026-04-25T14:47:56.448Z</time></trkpt><trkpt lat="42.6199538" lon="12.7910437"><ele>248.4</ele><time>2026-04-25T14:47:57.449Z</time></trkpt><trkpt lat="42.6199666" lon="12.7911805"><ele>248.59999999999997</ele><time>2026-04-25T14:47:58.448Z</time></trkpt><trkpt lat="42.6199826" lon="12.7913213"><ele>248.79999999999998</ele><time>2026-04-25T14:47:59.448Z</time></trkpt><trkpt lat="42.6200108" lon="12.7914686"><ele>249.0</ele><time>2026-04-25T14:48:00.449Z</time></trkpt><trkpt lat="42.6200278" lon="12.7916156"><ele>249.0</ele><time>2026-04-25T14:48:01.449Z</time></trkpt><trkpt lat="42.6200605" lon="12.7917631"><ele>248.99999999999997</ele><time>2026-04-25T14:48:02.449Z</time></trkpt><trkpt lat="42.6200784" lon="12.7919125"><ele>248.99999999999997</ele><time>2026-04-25T14:48:03.448Z</time></trkpt><trkpt lat="42.6200958" lon="12.7920572"><ele>249.0</ele><time>2026-04-25T14:48:04.448Z</time></trkpt><trkpt lat="42.6201149" lon="12.7922"><ele>249.0</ele><time>2026-04-25T14:48:05.448Z</time></trkpt><trkpt lat="42.6201473" lon="12.7923316"><ele>249.6</ele><time>2026-04-25T14:48:06.448Z</time></trkpt><trkpt lat="42.6201674" lon="12.7924578"><ele>250.2</ele><time>2026-04-25T14:48:07.448Z</time></trkpt><trkpt lat="42.6202024" lon="12.7925747"><ele>250.79999999999998</ele><time>2026-04-25T14:48:08.448Z</time></trkpt><trkpt lat="42.6202406" lon="12.7926948"><ele>251.39999999999998</ele><time>2026-04-25T14:48:09.449Z</time></trkpt><trkpt lat="42.6202848" lon="12.7928147"><ele>252.0</ele><time>2026-04-25T14:48:10.448Z</time></trkpt><trkpt lat="42.6203364" lon="12.7929361"><ele>252.0</ele><time>2026-04-25T14:48:11.448Z</time></trkpt><trkpt lat="42.6203803" lon="12.793061"><ele>252.0</ele><time>2026-04-25T14:48:12.448Z</time></trkpt><trkpt lat="42.6204346" lon="12.7931853"><ele>252.0</ele><time>2026-04-25T14:48:13.448Z</time></trkpt><trkpt lat="42.6204956" lon="12.7933059"><ele>252.0</ele><time>2026-04-25T14:48:14.448Z</time></trkpt><trkpt lat="42.620559" lon="12.7934188"><ele>252.0</ele><time>2026-04-25T14:48:15.448Z</time></trkpt><trkpt lat="42.620625" lon="12.7935354"><ele>250.39999999999998</ele><time>2026-04-25T14:48:16.448Z</time></trkpt><trkpt lat="42.620688" lon="12.7936465"><ele>248.79999999999998</ele><time>2026-04-25T14:48:17.449Z</time></trkpt><trkpt lat="42.6207676" lon="12.7937543"><ele>247.2</ele><time>2026-04-25T14:48:18.448Z</time></trkpt><trkpt lat="42.6208425" lon="12.7938572"><ele>245.6</ele><time>2026-04-25T14:48:19.448Z</time></trkpt><trkpt lat="42.6209232" lon="12.7939478"><ele>244.0</ele><time>2026-04-25T14:48:20.448Z</time></trkpt><trkpt lat="42.6210037" lon="12.7940337"><ele>244.0</ele><time>2026-04-25T14:48:21.449Z</time></trkpt><trkpt lat="42.6210896" lon="12.7941221"><ele>243.99999999999997</ele><time>2026-04-25T14:48:22.449Z</time></trkpt><trkpt lat="42.6211744" lon="12.7942077"><ele>243.99999999999997</ele><time>2026-04-25T14:48:23.448Z</time></trkpt><trkpt lat="42.621266" lon="12.7942985"><ele>244.0</ele><time>2026-04-25T14:48:24.449Z</time></trkpt><trkpt lat="42.6213592" lon="12.7943715"><ele>244.0</ele><time>2026-04-25T14:48:25.449Z</time></trkpt><trkpt lat="42.621454" lon="12.7944338"><ele>245.6</ele><time>2026-04-25T14:48:26.448Z</time></trkpt><trkpt lat="42.6215563" lon="12.7944949"><ele>247.2</ele><time>2026-04-25T14:48:27.449Z</time></trkpt><trkpt lat="42.6216571" lon="12.794562"><ele>248.79999999999998</ele><time>2026-04-25T14:48:28.448Z</time></trkpt><trkpt lat="42.621763" lon="12.7946159"><ele>250.39999999999998</ele><time>2026-04-25T14:48:29.448Z</time></trkpt><trkpt lat="42.6218693" lon="12.7946655"><ele>252.0</ele><time>2026-04-25T14:48:30.448Z</time></trkpt><trkpt lat="42.6219791" lon="12.7947167"><ele>250.75</ele><time>2026-04-25T14:48:31.448Z</time></trkpt><trkpt lat="42.6221003" lon="12.7947564"><ele>249.5</ele><time>2026-04-25T14:48:32.449Z</time></trkpt><trkpt lat="42.6222075" lon="12.794786"><ele>248.25</ele><time>2026-04-25T14:48:33.448Z</time></trkpt><trkpt lat="42.6223191" lon="12.7948022"><ele>247.0</ele><time>2026-04-25T14:48:34.448Z</time></trkpt><trkpt lat="42.6224254" lon="12.7948136"><ele>247.0</ele><time>2026-04-25T14:48:35.448Z</time></trkpt><trkpt lat="42.6225394" lon="12.7948156"><ele>247.0</ele><time>2026-04-25T14:48:36.449Z</time></trkpt><trkpt lat="42.6226501" lon="12.7948247"><ele>247.0</ele><time>2026-04-25T14:48:37.448Z</time></trkpt><trkpt lat="42.6227636" lon="12.7948338"><ele>247.0</ele><time>2026-04-25T14:48:38.448Z</time></trkpt><trkpt lat="42.622882" lon="12.7948374"><ele>247.5</ele><time>2026-04-25T14:48:39.448Z</time></trkpt><trkpt lat="42.6229955" lon="12.7948406"><ele>248.0</ele><time>2026-04-25T14:48:40.448Z</time></trkpt><trkpt lat="42.62311" lon="12.7948456"><ele>248.5</ele><time>2026-04-25T14:48:41.448Z</time></trkpt><trkpt lat="42.6232268" lon="12.7948526"><ele>249.0</ele><time>2026-04-25T14:48:42.449Z</time></trkpt><trkpt lat="42.6233521" lon="12.7948655"><ele>249.0</ele><time>2026-04-25T14:48:43.448Z</time></trkpt><trkpt lat="42.6234689" lon="12.7948868"><ele>249.0</ele><time>2026-04-25T14:48:44.448Z</time></trkpt><trkpt lat="42.6235766" lon="12.7949007"><ele>249.0</ele><time>2026-04-25T14:48:45.448Z</time></trkpt><trkpt lat="42.6236977" lon="12.7949131"><ele>249.0</ele><time>2026-04-25T14:48:46.449Z</time></trkpt><trkpt lat="42.623812" lon="12.794923"><ele>250.25</ele><time>2026-04-25T14:48:47.448Z</time></trkpt><trkpt lat="42.6239367" lon="12.7949278"><ele>251.5</ele><time>2026-04-25T14:48:48.448Z</time></trkpt><trkpt lat="42.6240623" lon="12.7949305"><ele>252.75</ele><time>2026-04-25T14:48:49.448Z</time></trkpt><trkpt lat="42.6241842" lon="12.7949421"><ele>254.0</ele><time>2026-04-25T14:48:50.448Z</time></trkpt><trkpt lat="42.6243092" lon="12.7949572"><ele>254.0</ele><time>2026-04-25T14:48:51.448Z</time></trkpt><trkpt lat="42.6244456" lon="12.7949686"><ele>254.0</ele><time>2026-04-25T14:48:52.448Z</time></trkpt><trkpt lat="42.6245802" lon="12.7949755"><ele>254.0</ele><time>2026-04-25T14:48:53.448Z</time></trkpt><trkpt lat="42.6247164" lon="12.7949731"><ele>254.0</ele><time>2026-04-25T14:48:54.449Z</time></trkpt><trkpt lat="42.6248574" lon="12.7949749"><ele>254.0</ele><time>2026-04-25T14:48:55.448Z</time></trkpt><trkpt lat="42.6249986" lon="12.7949719"><ele>254.0</ele><time>2026-04-25T14:48:56.448Z</time></trkpt><trkpt lat="42.6251426" lon="12.7949702"><ele>254.0</ele><time>2026-04-25T14:48:57.449Z</time></trkpt><trkpt lat="42.625292" lon="12.7949677"><ele>254.0</ele><time>2026-04-25T14:48:58.448Z</time></trkpt><trkpt lat="42.6254375" lon="12.7949621"><ele>254.0</ele><time>2026-04-25T14:48:59.448Z</time></trkpt><trkpt lat="42.6255859" lon="12.7949528"><ele>254.0</ele><time>2026-04-25T14:49:00.448Z</time></trkpt><trkpt lat="42.6257408" lon="12.7949457"><ele>254.0</ele><time>2026-04-25T14:49:01.448Z</time></trkpt><trkpt lat="42.6258947" lon="12.7949424"><ele>254.0</ele><time>2026-04-25T14:49:02.449Z</time></trkpt><trkpt lat="42.6260435" lon="12.794943"><ele>254.0</ele><time>2026-04-25T14:49:03.448Z</time></trkpt><trkpt lat="42.6261932" lon="12.794948"><ele>254.0</ele><time>2026-04-25T14:49:04.448Z</time></trkpt><trkpt lat="42.6263487" lon="12.7949545"><ele>254.66666666666669</ele><time>2026-04-25T14:49:05.448Z</time></trkpt><trkpt lat="42.6265106" lon="12.7949746"><ele>255.33333333333331</ele><time>2026-04-25T14:49:06.448Z</time></trkpt><trkpt lat="42.6266682" lon="12.7950104"><ele>256.0</ele><time>2026-04-25T14:49:07.448Z</time></trkpt><trkpt lat="42.6268235" lon="12.7950411"><ele>253.0</ele><time>2026-04-25T14:49:08.449Z</time></trkpt><trkpt lat="42.6269943" lon="12.795086"><ele>250.0</ele><time>2026-04-25T14:49:09.448Z</time></trkpt><trkpt lat="42.627152" lon="12.7951356"><ele>247.0</ele><time>2026-04-25T14:49:10.448Z</time></trkpt><trkpt lat="42.6273127" lon="12.7951897"><ele>247.0</ele><time>2026-04-25T14:49:11.448Z</time></trkpt><trkpt lat="42.6274762" lon="12.7952561"><ele>247.0</ele><time>2026-04-25T14:49:12.449Z</time></trkpt><trkpt lat="42.6276388" lon="12.7953193"><ele>247.0</ele><time>2026-04-25T14:49:13.448Z</time></trkpt><trkpt lat="42.6277956" lon="12.7953971"><ele>250.33333333333331</ele><time>2026-04-25T14:49:14.449Z</time></trkpt><trkpt lat="42.6279552" lon="12.7954834"><ele>253.66666666666669</ele><time>2026-04-25T14:49:15.448Z</time></trkpt><trkpt lat="42.6281052" lon="12.7955758"><ele>257.0</ele><time>2026-04-25T14:49:16.448Z</time></trkpt><trkpt lat="42.6282594" lon="12.7956733"><ele>257.0</ele><time>2026-04-25T14:49:17.448Z</time></trkpt><trkpt lat="42.6284195" lon="12.7957799"><ele>257.0</ele><time>2026-04-25T14:49:18.448Z</time></trkpt><trkpt lat="42.6285742" lon="12.7958688"><ele>257.0</ele><time>2026-04-25T14:49:19.448Z</time></trkpt><trkpt lat="42.6287309" lon="12.7959775"><ele>253.66666666666669</ele><time>2026-04-25T14:49:20.449Z</time></trkpt><trkpt lat="42.6288778" lon="12.7960826"><ele>250.33333333333331</ele><time>2026-04-25T14:49:21.448Z</time></trkpt><trkpt lat="42.6290283" lon="12.7961812"><ele>247.0</ele><time>2026-04-25T14:49:22.449Z</time></trkpt><trkpt lat="42.629175" lon="12.7962657"><ele>247.0</ele><time>2026-04-25T14:49:23.448Z</time></trkpt><trkpt lat="42.6293156" lon="12.7963493"><ele>247.0</ele><time>2026-04-25T14:49:24.448Z</time></trkpt><trkpt lat="42.6294489" lon="12.7964182"><ele>247.0</ele><time>2026-04-25T14:49:25.448Z</time></trkpt><trkpt lat="42.6295853" lon="12.7964645"><ele>247.0</ele><time>2026-04-25T14:49:26.448Z</time></trkpt><trkpt lat="42.6297258" lon="12.7965241"><ele>247.75</ele><time>2026-04-25T14:49:27.448Z</time></trkpt><trkpt lat="42.6298667" lon="12.7965604"><ele>248.5</ele><time>2026-04-25T14:49:28.448Z</time></trkpt><trkpt lat="42.6299981" lon="12.796594"><ele>249.25</ele><time>2026-04-25T14:49:29.449Z</time></trkpt><trkpt lat="42.6301325" lon="12.7966262"><ele>250.0</ele><time>2026-04-25T14:49:30.448Z</time></trkpt><trkpt lat="42.6302701" lon="12.7966547"><ele>252.5</ele><time>2026-04-25T14:49:31.448Z</time></trkpt><trkpt lat="42.6304068" lon="12.7966737"><ele>255.0</ele><time>2026-04-25T14:49:32.448Z</time></trkpt><trkpt lat="42.630552" lon="12.7966988"><ele>257.5</ele><time>2026-04-25T14:49:33.449Z</time></trkpt><trkpt lat="42.6307009" lon="12.7967233"><ele>260.0</ele><time>2026-04-25T14:49:34.449Z</time></trkpt><trkpt lat="42.6308446" lon="12.7967419"><ele>260.0</ele><time>2026-04-25T14:49:35.448Z</time></trkpt><trkpt lat="42.6309927" lon="12.7967745"><ele>260.0</ele><time>2026-04-25T14:49:36.448Z</time></trkpt><trkpt lat="42.6311389" lon="12.796795"><ele>260.0</ele><time>2026-04-25T14:49:37.448Z</time></trkpt><trkpt lat="42.6312811" lon="12.7968217"><ele>260.0</ele><time>2026-04-25T14:49:38.449Z</time></trkpt><trkpt lat="42.6314274" lon="12.7968494"><ele>258.25</ele><time>2026-04-25T14:49:39.449Z</time></trkpt><trkpt lat="42.6315706" lon="12.7968811"><ele>256.5</ele><time>2026-04-25T14:49:40.448Z</time></trkpt><trkpt lat="42.6317143" lon="12.7969354"><ele>254.75</ele><time>2026-04-25T14:49:41.448Z</time></trkpt><trkpt lat="42.6318545" lon="12.7970017"><ele>253.0</ele><time>2026-04-25T14:49:42.448Z</time></trkpt><trkpt lat="42.6319998" lon="12.7970703"><ele>253.0</ele><time>2026-04-25T14:49:43.448Z</time></trkpt><trkpt lat="42.63214" lon="12.7971412"><ele>253.0</ele><time>2026-04-25T14:49:44.448Z</time></trkpt><trkpt lat="42.6322791" lon="12.7972224"><ele>253.0</ele><time>2026-04-25T14:49:45.448Z</time></trkpt><trkpt lat="42.6324128" lon="12.7972938"><ele>253.0</ele><time>2026-04-25T14:49:46.448Z</time></trkpt><trkpt lat="42.6325384" lon="12.7973672"><ele>253.0</ele><time>2026-04-25T14:49:47.449Z</time></trkpt><trkpt lat="42.6326521" lon="12.7974389"><ele>253.0</ele><time>2026-04-25T14:49:48.448Z</time></trkpt><trkpt lat="42.6327646" lon="12.7975127"><ele>253.0</ele><time>2026-04-25T14:49:49.448Z</time></trkpt><trkpt lat="42.6328635" lon="12.7975872"><ele>253.0</ele><time>2026-04-25T14:49:50.449Z</time></trkpt><trkpt lat="42.6329533" lon="12.7976638"><ele>252.60000000000002</ele><time>2026-04-25T14:49:51.448Z</time></trkpt><trkpt lat="42.6330428" lon="12.7977398"><ele>252.20000000000002</ele><time>2026-04-25T14:49:52.449Z</time></trkpt><trkpt lat="42.6331208" lon="12.7978164"><ele>251.8</ele><time>2026-04-25T14:49:53.448Z</time></trkpt><trkpt lat="42.633203" lon="12.7978944"><ele>251.4</ele><time>2026-04-25T14:49:54.448Z</time></trkpt><trkpt lat="42.633279" lon="12.7979722"><ele>251.0</ele><time>2026-04-25T14:49:55.448Z</time></trkpt><trkpt lat="42.633361" lon="12.798051"><ele>251.0</ele><time>2026-04-25T14:49:56.448Z</time></trkpt><trkpt lat="42.6334424" lon="12.7981395"><ele>251.00000000000003</ele><time>2026-04-25T14:49:57.448Z</time></trkpt><trkpt lat="42.6335221" lon="12.7982408"><ele>251.00000000000003</ele><time>2026-04-25T14:49:58.448Z</time></trkpt><trkpt lat="42.6336045" lon="12.7983384"><ele>251.0</ele><time>2026-04-25T14:49:59.448Z</time></trkpt><trkpt lat="42.6336912" lon="12.7984495"><ele>251.0</ele><time>2026-04-25T14:50:00.448Z</time></trkpt><trkpt lat="42.63378" lon="12.7985602"><ele>252.0</ele><time>2026-04-25T14:50:01.448Z</time></trkpt><trkpt lat="42.6338717" lon="12.7986842"><ele>253.0</ele><time>2026-04-25T14:50:02.448Z</time></trkpt><trkpt lat="42.6339679" lon="12.7988216"><ele>254.0</ele><time>2026-04-25T14:50:03.449Z</time></trkpt><trkpt lat="42.6340701" lon="12.7989482"><ele>255.0</ele><time>2026-04-25T14:50:04.449Z</time></trkpt><trkpt lat="42.634169" lon="12.7990767"><ele>255.0</ele><time>2026-04-25T14:50:05.448Z</time></trkpt><trkpt lat="42.6342765" lon="12.7992085"><ele>255.0</ele><time>2026-04-25T14:50:06.449Z</time></trkpt><trkpt lat="42.6343836" lon="12.7993482"><ele>255.0</ele><time>2026-04-25T14:50:07.448Z</time></trkpt><trkpt lat="42.6344923" lon="12.7994917"><ele>255.0</ele><time>2026-04-25T14:50:08.448Z</time></trkpt><trkpt lat="42.6346002" lon="12.7996402"><ele>260.3333333333333</ele><time>2026-04-25T14:50:09.448Z</time></trkpt><trkpt lat="42.634709" lon="12.7997883"><ele>265.66666666666663</ele><time>2026-04-25T14:50:10.448Z</time></trkpt><trkpt lat="42.6348222" lon="12.7999481"><ele>271.0</ele><time>2026-04-25T14:50:11.448Z</time></trkpt><trkpt lat="42.6349208" lon="12.8001161"><ele>265.0</ele><time>2026-04-25T14:50:12.448Z</time></trkpt><trkpt lat="42.6350111" lon="12.8002825"><ele>259.0</ele><time>2026-04-25T14:50:13.448Z</time></trkpt><trkpt lat="42.6350996" lon="12.8004561"><ele>253.0</ele><time>2026-04-25T14:50:14.448Z</time></trkpt><trkpt lat="42.6351744" lon="12.8006238"><ele>253.0</ele><time>2026-04-25T14:50:15.448Z</time></trkpt><trkpt lat="42.6352523" lon="12.8007937"><ele>253.0</ele><time>2026-04-25T14:50:16.449Z</time></trkpt><trkpt lat="42.6353342" lon="12.8009622"><ele>253.0</ele><time>2026-04-25T14:50:17.449Z</time></trkpt><trkpt lat="42.6354152" lon="12.8011288"><ele>253.0</ele><time>2026-04-25T14:50:18.448Z</time></trkpt><trkpt lat="42.6355014" lon="12.801294"><ele>254.0</ele><time>2026-04-25T14:50:19.448Z</time></trkpt><trkpt lat="42.6355765" lon="12.8014613"><ele>255.0</ele><time>2026-04-25T14:50:20.448Z</time></trkpt><trkpt lat="42.6356485" lon="12.80162"><ele>256.0</ele><time>2026-04-25T14:50:21.448Z</time></trkpt><trkpt lat="42.6357287" lon="12.8017908"><ele>257.0</ele><time>2026-04-25T14:50:22.448Z</time></trkpt><trkpt lat="42.6358114" lon="12.8019608"><ele>257.0</ele><time>2026-04-25T14:50:23.448Z</time></trkpt><trkpt lat="42.6358907" lon="12.8021336"><ele>257.0</ele><time>2026-04-25T14:50:24.449Z</time></trkpt><trkpt lat="42.6359852" lon="12.8023092"><ele>257.0</ele><time>2026-04-25T14:50:25.449Z</time></trkpt><trkpt lat="42.636094" lon="12.8024891"><ele>259.6666666666667</ele><time>2026-04-25T14:50:26.448Z</time></trkpt><trkpt lat="42.6361953" lon="12.8026594"><ele>262.3333333333333</ele><time>2026-04-25T14:50:27.448Z</time></trkpt><trkpt lat="42.6362989" lon="12.8028351"><ele>265.0</ele><time>2026-04-25T14:50:28.448Z</time></trkpt><trkpt lat="42.6364021" lon="12.8029996"><ele>265.0</ele><time>2026-04-25T14:50:29.448Z</time></trkpt><trkpt lat="42.6365075" lon="12.8031758"><ele>265.0</ele><time>2026-04-25T14:50:30.449Z</time></trkpt><trkpt lat="42.6366092" lon="12.8033464"><ele>265.0</ele><time>2026-04-25T14:50:31.448Z</time></trkpt><trkpt lat="42.6367122" lon="12.8035216"><ele>268.66666666666663</ele><time>2026-04-25T14:50:32.448Z</time></trkpt><trkpt lat="42.6368119" lon="12.8036919"><ele>272.3333333333333</ele><time>2026-04-25T14:50:33.448Z</time></trkpt><trkpt lat="42.6369081" lon="12.8038538"><ele>276.0</ele><time>2026-04-25T14:50:34.449Z</time></trkpt><trkpt lat="42.6369918" lon="12.8040059"><ele>276.0</ele><time>2026-04-25T14:50:35.448Z</time></trkpt><trkpt lat="42.6370948" lon="12.8041278"><ele>276.0</ele><time>2026-04-25T14:50:36.449Z</time></trkpt><trkpt lat="42.6372052" lon="12.8042226"><ele>276.0</ele><time>2026-04-25T14:50:37.448Z</time></trkpt><trkpt lat="42.6373426" lon="12.8043021"><ele>276.0</ele><time>2026-04-25T14:50:38.448Z</time></trkpt><trkpt lat="42.6374575" lon="12.8043888"><ele>270.75</ele><time>2026-04-25T14:50:39.448Z</time></trkpt><trkpt lat="42.6375949" lon="12.804483"><ele>265.5</ele><time>2026-04-25T14:50:40.448Z</time></trkpt><trkpt lat="42.6377068" lon="12.8046002"><ele>260.25</ele><time>2026-04-25T14:50:41.448Z</time></trkpt><trkpt lat="42.6378136" lon="12.8047421"><ele>255.0</ele><time>2026-04-25T14:50:42.448Z</time></trkpt><trkpt lat="42.6379171" lon="12.804883"><ele>255.66666666666669</ele><time>2026-04-25T14:50:43.448Z</time></trkpt><trkpt lat="42.6380152" lon="12.8050331"><ele>256.33333333333337</ele><time>2026-04-25T14:50:44.448Z</time></trkpt><trkpt lat="42.6381151" lon="12.8051881"><ele>257.0</ele><time>2026-04-25T14:50:45.449Z</time></trkpt><trkpt lat="42.6382158" lon="12.8053432"><ele>257.0</ele><time>2026-04-25T14:50:46.448Z</time></trkpt><trkpt lat="42.6383154" lon="12.8054988"><ele>257.0</ele><time>2026-04-25T14:50:47.448Z</time></trkpt><trkpt lat="42.6384178" lon="12.8056473"><ele>257.0</ele><time>2026-04-25T14:50:48.448Z</time></trkpt><trkpt lat="42.6385173" lon="12.8058009"><ele>257.0</ele><time>2026-04-25T14:50:49.448Z</time></trkpt><trkpt lat="42.6385929" lon="12.8059503"><ele>257.0</ele><time>2026-04-25T14:50:50.448Z</time></trkpt><trkpt lat="42.638655" lon="12.8060972"><ele>257.0</ele><time>2026-04-25T14:50:51.448Z</time></trkpt><trkpt lat="42.6386591" lon="12.8062582"><ele>257.0</ele><time>2026-04-25T14:50:52.448Z</time></trkpt><trkpt lat="42.6386906" lon="12.8064142"><ele>256.75</ele><time>2026-04-25T14:50:53.449Z</time></trkpt><trkpt lat="42.6387119" lon="12.8065661"><ele>256.5</ele><time>2026-04-25T14:50:54.448Z</time></trkpt><trkpt lat="42.6387544" lon="12.8067071"><ele>256.25</ele><time>2026-04-25T14:50:55.448Z</time></trkpt><trkpt lat="42.6388221" lon="12.8068374"><ele>256.0</ele><time>2026-04-25T14:50:56.449Z</time></trkpt><trkpt lat="42.6389065" lon="12.806954"><ele>256.0</ele><time>2026-04-25T14:50:57.448Z</time></trkpt><trkpt lat="42.6389973" lon="12.8070597"><ele>256.0</ele><time>2026-04-25T14:50:58.448Z</time></trkpt><trkpt lat="42.6390923" lon="12.8071762"><ele>256.0</ele><time>2026-04-25T14:50:59.448Z</time></trkpt><trkpt lat="42.6391904" lon="12.8072877"><ele>256.0</ele><time>2026-04-25T14:51:00.448Z</time></trkpt><trkpt lat="42.6392531" lon="12.8074542"><ele>256.0</ele><time>2026-04-25T14:51:01.448Z</time></trkpt><trkpt lat="42.6393419" lon="12.8076141"><ele>256.0</ele><time>2026-04-25T14:51:02.449Z</time></trkpt><trkpt lat="42.6394262" lon="12.8077498"><ele>256.0</ele><time>2026-04-25T14:51:03.448Z</time></trkpt><trkpt lat="42.6395117" lon="12.8079113"><ele>256.0</ele><time>2026-04-25T14:51:04.448Z</time></trkpt><trkpt lat="42.6395967" lon="12.8080727"><ele>255.75</ele><time>2026-04-25T14:51:05.449Z</time></trkpt><trkpt lat="42.6396797" lon="12.808242"><ele>255.5</ele><time>2026-04-25T14:51:06.448Z</time></trkpt><trkpt lat="42.6397683" lon="12.8083988"><ele>255.25</ele><time>2026-04-25T14:51:07.448Z</time></trkpt><trkpt lat="42.6398669" lon="12.8085502"><ele>255.0</ele><time>2026-04-25T14:51:08.448Z</time></trkpt><trkpt lat="42.6399681" lon="12.8086888"><ele>255.0</ele><time>2026-04-25T14:51:09.448Z</time></trkpt><trkpt lat="42.6400849" lon="12.8088226"><ele>255.0</ele><time>2026-04-25T14:51:10.449Z</time></trkpt><trkpt lat="42.6402095" lon="12.8089418"><ele>255.0</ele><time>2026-04-25T14:51:11.448Z</time></trkpt><trkpt lat="42.6403351" lon="12.8090579"><ele>259.3333333333333</ele><time>2026-04-25T14:51:12.448Z</time></trkpt><trkpt lat="42.6404554" lon="12.8091815"><ele>263.66666666666663</ele><time>2026-04-25T14:51:13.448Z</time></trkpt><trkpt lat="42.6405648" lon="12.8093305"><ele>268.0</ele><time>2026-04-25T14:51:14.448Z</time></trkpt><trkpt lat="42.6406583" lon="12.8094947"><ele>268.0</ele><time>2026-04-25T14:51:15.448Z</time></trkpt><trkpt lat="42.6407277" lon="12.8096737"><ele>268.0</ele><time>2026-04-25T14:51:16.448Z</time></trkpt><trkpt lat="42.6407832" lon="12.8098668"><ele>268.0</ele><time>2026-04-25T14:51:17.448Z</time></trkpt><trkpt lat="42.6408293" lon="12.8100655"><ele>265.66666666666663</ele><time>2026-04-25T14:51:18.448Z</time></trkpt><trkpt lat="42.6408657" lon="12.8102708"><ele>263.3333333333333</ele><time>2026-04-25T14:51:19.448Z</time></trkpt><trkpt lat="42.6408975" lon="12.810478"><ele>261.0</ele><time>2026-04-25T14:51:20.448Z</time></trkpt><trkpt lat="42.640931" lon="12.810683"><ele>261.0</ele><time>2026-04-25T14:51:21.448Z</time></trkpt><trkpt lat="42.6409539" lon="12.8108894"><ele>261.0</ele><time>2026-04-25T14:51:22.449Z</time></trkpt><trkpt lat="42.6409831" lon="12.8110994"><ele>261.0</ele><time>2026-04-25T14:51:23.448Z</time></trkpt><trkpt lat="42.6410044" lon="12.8113082"><ele>260.3333333333333</ele><time>2026-04-25T14:51:24.448Z</time></trkpt><trkpt lat="42.641034" lon="12.8115238"><ele>259.66666666666663</ele><time>2026-04-25T14:51:25.448Z</time></trkpt><trkpt lat="42.6410664" lon="12.811732"><ele>259.0</ele><time>2026-04-25T14:51:26.448Z</time></trkpt><trkpt lat="42.6410916" lon="12.8119387"><ele>259.75</ele><time>2026-04-25T14:51:27.448Z</time></trkpt><trkpt lat="42.6411205" lon="12.8121403"><ele>260.5</ele><time>2026-04-25T14:51:28.448Z</time></trkpt><trkpt lat="42.6411494" lon="12.8123415"><ele>261.25</ele><time>2026-04-25T14:51:29.449Z</time></trkpt><trkpt lat="42.6411726" lon="12.812533"><ele>262.0</ele><time>2026-04-25T14:51:30.448Z</time></trkpt><trkpt lat="42.6411954" lon="12.8127235"><ele>262.0</ele><time>2026-04-25T14:51:31.448Z</time></trkpt><trkpt lat="42.6412266" lon="12.8129085"><ele>262.0</ele><time>2026-04-25T14:51:32.449Z</time></trkpt><trkpt lat="42.6412664" lon="12.8130913"><ele>262.0</ele><time>2026-04-25T14:51:33.448Z</time></trkpt><trkpt lat="42.6413224" lon="12.813262"><ele>262.0</ele><time>2026-04-25T14:51:34.448Z</time></trkpt><trkpt lat="42.641384" lon="12.813431"><ele>260.75</ele><time>2026-04-25T14:51:35.448Z</time></trkpt><trkpt lat="42.6414706" lon="12.8135865"><ele>259.5</ele><time>2026-04-25T14:51:36.448Z</time></trkpt><trkpt lat="42.6415664" lon="12.8137238"><ele>258.25</ele><time>2026-04-25T14:51:37.448Z</time></trkpt><trkpt lat="42.641665" lon="12.8138506"><ele>257.0</ele><time>2026-04-25T14:51:38.448Z</time></trkpt><trkpt lat="42.6417629" lon="12.8139745"><ele>257.0</ele><time>2026-04-25T14:51:39.448Z</time></trkpt><trkpt lat="42.6418523" lon="12.8140868"><ele>257.0</ele><time>2026-04-25T14:51:40.448Z</time></trkpt><trkpt lat="42.6419467" lon="12.8141912"><ele>257.0</ele><time>2026-04-25T14:51:41.448Z</time></trkpt><trkpt lat="42.642053" lon="12.814287"><ele>257.0</ele><time>2026-04-25T14:51:42.448Z</time></trkpt><trkpt lat="42.6421599" lon="12.8143732"><ele>260.0</ele><time>2026-04-25T14:51:43.448Z</time></trkpt><trkpt lat="42.6422831" lon="12.8144541"><ele>263.0</ele><time>2026-04-25T14:51:44.448Z</time></trkpt><trkpt lat="42.6424003" lon="12.8145365"><ele>266.0</ele><time>2026-04-25T14:51:45.448Z</time></trkpt><trkpt lat="42.6425073" lon="12.8146212"><ele>269.0</ele><time>2026-04-25T14:51:46.448Z</time></trkpt><trkpt lat="42.6426062" lon="12.8147277"><ele>269.0</ele><time>2026-04-25T14:51:47.448Z</time></trkpt><trkpt lat="42.6426789" lon="12.8148602"><ele>269.0</ele><time>2026-04-25T14:51:48.448Z</time></trkpt><trkpt lat="42.6427289" lon="12.8150162"><ele>269.0</ele><time>2026-04-25T14:51:49.448Z</time></trkpt><trkpt lat="42.6427522" lon="12.8151882"><ele>269.0</ele><time>2026-04-25T14:51:50.448Z</time></trkpt><trkpt lat="42.6427781" lon="12.8153689"><ele>270.5</ele><time>2026-04-25T14:51:51.448Z</time></trkpt><trkpt lat="42.6428061" lon="12.815558"><ele>272.0</ele><time>2026-04-25T14:51:52.448Z</time></trkpt><trkpt lat="42.6428293" lon="12.8157406"><ele>273.5</ele><time>2026-04-25T14:51:53.449Z</time></trkpt><trkpt lat="42.6428556" lon="12.8159292"><ele>275.0</ele><time>2026-04-25T14:51:54.448Z</time></trkpt><trkpt lat="42.6428721" lon="12.8161093"><ele>275.0</ele><time>2026-04-25T14:51:55.448Z</time></trkpt><trkpt lat="42.6428861" lon="12.8162838"><ele>275.0</ele><time>2026-04-25T14:51:56.448Z</time></trkpt><trkpt lat="42.6428927" lon="12.8164495"><ele>275.0</ele><time>2026-04-25T14:51:57.448Z</time></trkpt><trkpt lat="42.6429208" lon="12.8165981"><ele>275.0</ele><time>2026-04-25T14:51:58.449Z</time></trkpt><trkpt lat="42.6429823" lon="12.8167383"><ele>270.25</ele><time>2026-04-25T14:51:59.448Z</time></trkpt><trkpt lat="42.6430619" lon="12.8168584"><ele>265.5</ele><time>2026-04-25T14:52:00.448Z</time></trkpt><trkpt lat="42.6431789" lon="12.8169413"><ele>260.75</ele><time>2026-04-25T14:52:01.448Z</time></trkpt><trkpt lat="42.6432926" lon="12.8170303"><ele>256.0</ele><time>2026-04-25T14:52:02.448Z</time></trkpt><trkpt lat="42.6434201" lon="12.8171148"><ele>256.0</ele><time>2026-04-25T14:52:03.448Z</time></trkpt><trkpt lat="42.6435526" lon="12.8172025"><ele>256.0</ele><time>2026-04-25T14:52:04.448Z</time></trkpt><trkpt lat="42.6436947" lon="12.8172974"><ele>256.0</ele><time>2026-04-25T14:52:05.448Z</time></trkpt><trkpt lat="42.6438173" lon="12.817394"><ele>256.0</ele><time>2026-04-25T14:52:06.448Z</time></trkpt><trkpt lat="42.6439384" lon="12.8175052"><ele>256.75</ele><time>2026-04-25T14:52:07.448Z</time></trkpt><trkpt lat="42.6440458" lon="12.8176364"><ele>257.5</ele><time>2026-04-25T14:52:08.448Z</time></trkpt><trkpt lat="42.6441382" lon="12.8177783"><ele>258.25</ele><time>2026-04-25T14:52:09.448Z</time></trkpt><trkpt lat="42.6442275" lon="12.8179453"><ele>259.0</ele><time>2026-04-25T14:52:10.448Z</time></trkpt><trkpt lat="42.644314" lon="12.8181063"><ele>259.0</ele><time>2026-04-25T14:52:11.448Z</time></trkpt><trkpt lat="42.6444059" lon="12.8182709"><ele>259.0</ele><time>2026-04-25T14:52:12.448Z</time></trkpt><trkpt lat="42.6444986" lon="12.8184392"><ele>259.0</ele><time>2026-04-25T14:52:13.449Z</time></trkpt><trkpt lat="42.6445851" lon="12.8186035"><ele>261.75</ele><time>2026-04-25T14:52:14.448Z</time></trkpt><trkpt lat="42.6446646" lon="12.8187631"><ele>264.5</ele><time>2026-04-25T14:52:15.448Z</time></trkpt><trkpt lat="42.6447357" lon="12.818923"><ele>267.25</ele><time>2026-04-25T14:52:16.449Z</time></trkpt><trkpt lat="42.6447923" lon="12.8190934"><ele>270.0</ele><time>2026-04-25T14:52:17.448Z</time></trkpt><trkpt lat="42.6448298" lon="12.8192776"><ele>269.75</ele><time>2026-04-25T14:52:18.448Z</time></trkpt><trkpt lat="42.6448435" lon="12.8194652"><ele>269.5</ele><time>2026-04-25T14:52:19.449Z</time></trkpt><trkpt lat="42.6448455" lon="12.819667"><ele>269.25</ele><time>2026-04-25T14:52:20.448Z</time></trkpt><trkpt lat="42.6448473" lon="12.8198661"><ele>269.0</ele><time>2026-04-25T14:52:21.448Z</time></trkpt><trkpt lat="42.6448623" lon="12.8200616"><ele>268.25</ele><time>2026-04-25T14:52:22.448Z</time></trkpt><trkpt lat="42.6448892" lon="12.820252"><ele>267.5</ele><time>2026-04-25T14:52:23.448Z</time></trkpt><trkpt lat="42.6449464" lon="12.8204396"><ele>266.75</ele><time>2026-04-25T14:52:24.449Z</time></trkpt><trkpt lat="42.6449992" lon="12.820624"><ele>266.0</ele><time>2026-04-25T14:52:25.448Z</time></trkpt><trkpt lat="42.6450627" lon="12.8208014"><ele>266.0</ele><time>2026-04-25T14:52:26.449Z</time></trkpt><trkpt lat="42.6451342" lon="12.8209753"><ele>266.0</ele><time>2026-04-25T14:52:27.449Z</time></trkpt><trkpt lat="42.6452126" lon="12.821146"><ele>266.0</ele><time>2026-04-25T14:52:28.449Z</time></trkpt><trkpt lat="42.6452815" lon="12.8213125"><ele>266.0</ele><time>2026-04-25T14:52:29.448Z</time></trkpt><trkpt lat="42.6453512" lon="12.8214535"><ele>270.25</ele><time>2026-04-25T14:52:30.448Z</time></trkpt><trkpt lat="42.6454115" lon="12.8215879"><ele>274.5</ele><time>2026-04-25T14:52:31.448Z</time></trkpt><trkpt lat="42.6454882" lon="12.821712"><ele>278.75</ele><time>2026-04-25T14:52:32.448Z</time></trkpt><trkpt lat="42.645556" lon="12.8218308"><ele>283.0</ele><time>2026-04-25T14:52:33.449Z</time></trkpt><trkpt lat="42.6456031" lon="12.8219671"><ele>283.0</ele><time>2026-04-25T14:52:34.448Z</time></trkpt><trkpt lat="42.6456374" lon="12.8221094"><ele>283.0</ele><time>2026-04-25T14:52:35.448Z</time></trkpt><trkpt lat="42.6456504" lon="12.8222577"><ele>283.0</ele><time>2026-04-25T14:52:36.448Z</time></trkpt><trkpt lat="42.6456335" lon="12.822432"><ele>283.0</ele><time>2026-04-25T14:52:37.449Z</time></trkpt><trkpt lat="42.6456028" lon="12.8225922"><ele>286.5</ele><time>2026-04-25T14:52:38.449Z</time></trkpt><trkpt lat="42.6455704" lon="12.822744"><ele>290.0</ele><time>2026-04-25T14:52:39.448Z</time></trkpt><trkpt lat="42.6455234" lon="12.822892"><ele>293.5</ele><time>2026-04-25T14:52:40.448Z</time></trkpt><trkpt lat="42.6454557" lon="12.8230109"><ele>297.0</ele><time>2026-04-25T14:52:41.448Z</time></trkpt><trkpt lat="42.6453596" lon="12.8231297"><ele>289.75</ele><time>2026-04-25T14:52:42.448Z</time></trkpt><trkpt lat="42.6452646" lon="12.8232338"><ele>282.5</ele><time>2026-04-25T14:52:43.448Z</time></trkpt><trkpt lat="42.6451988" lon="12.8233545"><ele>275.25</ele><time>2026-04-25T14:52:44.448Z</time></trkpt><trkpt lat="42.645154" lon="12.8234897"><ele>268.0</ele><time>2026-04-25T14:52:45.449Z</time></trkpt><trkpt lat="42.6451144" lon="12.8236425"><ele>268.0</ele><time>2026-04-25T14:52:46.448Z</time></trkpt><trkpt lat="42.6451052" lon="12.8238138"><ele>268.0</ele><time>2026-04-25T14:52:47.448Z</time></trkpt><trkpt lat="42.6451134" lon="12.8239941"><ele>268.0</ele><time>2026-04-25T14:52:48.449Z</time></trkpt><trkpt lat="42.6451445" lon="12.8241554"><ele>268.0</ele><time>2026-04-25T14:52:49.448Z</time></trkpt><trkpt lat="42.6451909" lon="12.8243112"><ele>268.75</ele><time>2026-04-25T14:52:50.448Z</time></trkpt><trkpt lat="42.6452496" lon="12.8244657"><ele>269.5</ele><time>2026-04-25T14:52:51.449Z</time></trkpt><trkpt lat="42.6453564" lon="12.8245315"><ele>270.25</ele><time>2026-04-25T14:52:52.448Z</time></trkpt><trkpt lat="42.6454892" lon="12.8245895"><ele>271.0</ele><time>2026-04-25T14:52:53.448Z</time></trkpt><trkpt lat="42.6456125" lon="12.8246512"><ele>271.0</ele><time>2026-04-25T14:52:54.448Z</time></trkpt><trkpt lat="42.6457549" lon="12.8246968"><ele>271.0</ele><time>2026-04-25T14:52:55.448Z</time></trkpt><trkpt lat="42.6458812" lon="12.8247596"><ele>271.0</ele><time>2026-04-25T14:52:56.448Z</time></trkpt><trkpt lat="42.6459852" lon="12.8248461"><ele>271.0</ele><time>2026-04-25T14:52:57.448Z</time></trkpt><trkpt lat="42.6460787" lon="12.824944"><ele>272.0</ele><time>2026-04-25T14:52:58.448Z</time></trkpt><trkpt lat="42.6461766" lon="12.8250452"><ele>273.0</ele><time>2026-04-25T14:52:59.448Z</time></trkpt><trkpt lat="42.6462619" lon="12.8251434"><ele>274.0</ele><time>2026-04-25T14:53:00.448Z</time></trkpt><trkpt lat="42.6463407" lon="12.8252307"><ele>275.0</ele><time>2026-04-25T14:53:01.449Z</time></trkpt><trkpt lat="42.6464178" lon="12.8252927"><ele>276.0</ele><time>2026-04-25T14:53:02.448Z</time></trkpt><trkpt lat="42.6465006" lon="12.8253401"><ele>276.0</ele><time>2026-04-25T14:53:03.449Z</time></trkpt><trkpt lat="42.6465757" lon="12.8252903"><ele>276.0</ele><time>2026-04-25T14:53:04.448Z</time></trkpt><trkpt lat="42.6466443" lon="12.825227"><ele>276.0</ele><time>2026-04-25T14:53:05.448Z</time></trkpt><trkpt lat="42.6467238" lon="12.8251402"><ele>276.0</ele><time>2026-04-25T14:53:06.448Z</time></trkpt><trkpt lat="42.6468013" lon="12.8250243"><ele>276.0</ele><time>2026-04-25T14:53:07.448Z</time></trkpt><trkpt lat="42.6468861" lon="12.8249043"><ele>272.5</ele><time>2026-04-25T14:53:08.448Z</time></trkpt><trkpt lat="42.6469704" lon="12.8247792"><ele>269.0</ele><time>2026-04-25T14:53:09.448Z</time></trkpt><trkpt lat="42.6470701" lon="12.8246567"><ele>265.5</ele><time>2026-04-25T14:53:10.448Z</time></trkpt><trkpt lat="42.6471788" lon="12.8245399"><ele>262.0</ele><time>2026-04-25T14:53:11.448Z</time></trkpt><trkpt lat="42.6473061" lon="12.8244312"><ele>262.0</ele><time>2026-04-25T14:53:12.448Z</time></trkpt><trkpt lat="42.6474351" lon="12.8243419"><ele>262.0</ele><time>2026-04-25T14:53:13.448Z</time></trkpt><trkpt lat="42.647562" lon="12.8242696"><ele>262.0</ele><time>2026-04-25T14:53:14.448Z</time></trkpt><trkpt lat="42.6476963" lon="12.8242224"><ele>262.0</ele><time>2026-04-25T14:53:15.448Z</time></trkpt><trkpt lat="42.6478374" lon="12.8241948"><ele>269.3333333333333</ele><time>2026-04-25T14:53:16.448Z</time></trkpt><trkpt lat="42.6479834" lon="12.824182"><ele>276.6666666666667</ele><time>2026-04-25T14:53:17.448Z</time></trkpt><trkpt lat="42.6481311" lon="12.8241851"><ele>284.0</ele><time>2026-04-25T14:53:18.448Z</time></trkpt><trkpt lat="42.6482899" lon="12.8242157"><ele>284.0</ele><time>2026-04-25T14:53:19.448Z</time></trkpt><trkpt lat="42.6484385" lon="12.8242591"><ele>284.0</ele><time>2026-04-25T14:53:20.448Z</time></trkpt><trkpt lat="42.648586" lon="12.8243137"><ele>284.0</ele><time>2026-04-25T14:53:21.448Z</time></trkpt><trkpt lat="42.6487377" lon="12.8243819"><ele>278.33333333333337</ele><time>2026-04-25T14:53:22.448Z</time></trkpt><trkpt lat="42.6488834" lon="12.8244569"><ele>272.6666666666667</ele><time>2026-04-25T14:53:23.448Z</time></trkpt><trkpt lat="42.6490265" lon="12.8245396"><ele>267.0</ele><time>2026-04-25T14:53:24.449Z</time></trkpt><trkpt lat="42.6491713" lon="12.8246293"><ele>267.0</ele><time>2026-04-25T14:53:25.448Z</time></trkpt><trkpt lat="42.6492996" lon="12.8247116"><ele>267.0</ele><time>2026-04-25T14:53:26.449Z</time></trkpt><trkpt lat="42.6494141" lon="12.8248168"><ele>267.0</ele><time>2026-04-25T14:53:27.448Z</time></trkpt><trkpt lat="42.6495293" lon="12.8249467"><ele>267.0</ele><time>2026-04-25T14:53:28.448Z</time></trkpt><trkpt lat="42.649641" lon="12.8250772"><ele>267.25</ele><time>2026-04-25T14:53:29.448Z</time></trkpt><trkpt lat="42.6497438" lon="12.8252122"><ele>267.5</ele><time>2026-04-25T14:53:30.449Z</time></trkpt><trkpt lat="42.649858" lon="12.8253422"><ele>267.75</ele><time>2026-04-25T14:53:31.448Z</time></trkpt><trkpt lat="42.6499703" lon="12.8254773"><ele>268.0</ele><time>2026-04-25T14:53:32.448Z</time></trkpt><trkpt lat="42.6500862" lon="12.8256115"><ele>268.0</ele><time>2026-04-25T14:53:33.448Z</time></trkpt><trkpt lat="42.650203" lon="12.8257607"><ele>268.0</ele><time>2026-04-25T14:53:34.448Z</time></trkpt><trkpt lat="42.6503232" lon="12.8258975"><ele>268.0</ele><time>2026-04-25T14:53:35.449Z</time></trkpt><trkpt lat="42.6504491" lon="12.8260362"><ele>267.3333333333333</ele><time>2026-04-25T14:53:36.448Z</time></trkpt><trkpt lat="42.6505717" lon="12.8261722"><ele>266.6666666666667</ele><time>2026-04-25T14:53:37.448Z</time></trkpt><trkpt lat="42.6507151" lon="12.8262861"><ele>266.0</ele><time>2026-04-25T14:53:38.448Z</time></trkpt><trkpt lat="42.6508661" lon="12.8263941"><ele>266.0</ele><time>2026-04-25T14:53:39.448Z</time></trkpt><trkpt lat="42.650988" lon="12.826494"><ele>266.0</ele><time>2026-04-25T14:53:40.448Z</time></trkpt><trkpt lat="42.6511169" lon="12.8265861"><ele>266.0</ele><time>2026-04-25T14:53:41.448Z</time></trkpt><trkpt lat="42.6512565" lon="12.8266718"><ele>266.0</ele><time>2026-04-25T14:53:42.448Z</time></trkpt><trkpt lat="42.6513806" lon="12.8267478"><ele>264.75</ele><time>2026-04-25T14:53:43.448Z</time></trkpt><trkpt lat="42.6515024" lon="12.8267968"><ele>263.5</ele><time>2026-04-25T14:53:44.448Z</time></trkpt><trkpt lat="42.6516466" lon="12.8268063"><ele>262.25</ele><time>2026-04-25T14:53:45.449Z</time></trkpt><trkpt lat="42.6517808" lon="12.8268221"><ele>261.0</ele><time>2026-04-25T14:53:46.448Z</time></trkpt><trkpt lat="42.651919" lon="12.8268402"><ele>260.0</ele><time>2026-04-25T14:53:47.448Z</time></trkpt><trkpt lat="42.6520542" lon="12.8268515"><ele>259.0</ele><time>2026-04-25T14:53:48.448Z</time></trkpt><trkpt lat="42.6521799" lon="12.8268761"><ele>258.0</ele><time>2026-04-25T14:53:49.448Z</time></trkpt><trkpt lat="42.6523016" lon="12.8268953"><ele>257.0</ele><time>2026-04-25T14:53:50.448Z</time></trkpt><trkpt lat="42.6524196" lon="12.8268956"><ele>257.0</ele><time>2026-04-25T14:53:51.448Z</time></trkpt><trkpt lat="42.6525329" lon="12.8268778"><ele>257.0</ele><time>2026-04-25T14:53:52.449Z</time></trkpt><trkpt lat="42.6526497" lon="12.8268424"><ele>257.0</ele><time>2026-04-25T14:53:53.448Z</time></trkpt><trkpt lat="42.6527626" lon="12.8267801"><ele>257.0</ele><time>2026-04-25T14:53:54.448Z</time></trkpt><trkpt lat="42.6528652" lon="12.8267102"><ele>259.0</ele><time>2026-04-25T14:53:55.448Z</time></trkpt><trkpt lat="42.6529718" lon="12.8266499"><ele>261.0</ele><time>2026-04-25T14:53:56.448Z</time></trkpt><trkpt lat="42.6530726" lon="12.8265819"><ele>263.0</ele><time>2026-04-25T14:53:57.448Z</time></trkpt><trkpt lat="42.6531766" lon="12.8265156"><ele>265.0</ele><time>2026-04-25T14:53:58.448Z</time></trkpt><trkpt lat="42.6532974" lon="12.8264673"><ele>265.0</ele><time>2026-04-25T14:53:59.448Z</time></trkpt><trkpt lat="42.6534248" lon="12.8264284"><ele>265.0</ele><time>2026-04-25T14:54:00.448Z</time></trkpt><trkpt lat="42.6535598" lon="12.8264161"><ele>265.0</ele><time>2026-04-25T14:54:01.448Z</time></trkpt><trkpt lat="42.6537014" lon="12.8264141"><ele>265.0</ele><time>2026-04-25T14:54:02.448Z</time></trkpt><trkpt lat="42.6538418" lon="12.8264011"><ele>263.75</ele><time>2026-04-25T14:54:03.448Z</time></trkpt><trkpt lat="42.6539623" lon="12.8263961"><ele>262.5</ele><time>2026-04-25T14:54:04.448Z</time></trkpt><trkpt lat="42.654091" lon="12.826394"><ele>261.25</ele><time>2026-04-25T14:54:05.448Z</time></trkpt><trkpt lat="42.6542151" lon="12.8264013"><ele>260.0</ele><time>2026-04-25T14:54:06.448Z</time></trkpt><trkpt lat="42.6543426" lon="12.8264007"><ele>263.5</ele><time>2026-04-25T14:54:07.448Z</time></trkpt><trkpt lat="42.654478" lon="12.8264241"><ele>267.0</ele><time>2026-04-25T14:54:08.448Z</time></trkpt><trkpt lat="42.6546058" lon="12.8264534"><ele>270.5</ele><time>2026-04-25T14:54:09.448Z</time></trkpt><trkpt lat="42.6547328" lon="12.8265273"><ele>274.0</ele><time>2026-04-25T14:54:10.449Z</time></trkpt><trkpt lat="42.6548446" lon="12.8266186"><ele>274.0</ele><time>2026-04-25T14:54:11.448Z</time></trkpt><trkpt lat="42.6549462" lon="12.8267552"><ele>274.0</ele><time>2026-04-25T14:54:12.448Z</time></trkpt><trkpt lat="42.6550497" lon="12.8268896"><ele>274.0</ele><time>2026-04-25T14:54:13.448Z</time></trkpt><trkpt lat="42.6551528" lon="12.8270235"><ele>274.0</ele><time>2026-04-25T14:54:14.448Z</time></trkpt><trkpt lat="42.6552576" lon="12.8271514"><ele>274.0</ele><time>2026-04-25T14:54:15.448Z</time></trkpt><trkpt lat="42.6553806" lon="12.8272748"><ele>274.0</ele><time>2026-04-25T14:54:16.448Z</time></trkpt><trkpt lat="42.6555099" lon="12.8273972"><ele>274.0</ele><time>2026-04-25T14:54:17.448Z</time></trkpt><trkpt lat="42.6556466" lon="12.8274962"><ele>274.0</ele><time>2026-04-25T14:54:18.448Z</time></trkpt><trkpt lat="42.6558019" lon="12.8275954"><ele>274.0</ele><time>2026-04-25T14:54:19.448Z</time></trkpt><trkpt lat="42.6559313" lon="12.8276956"><ele>274.0</ele><time>2026-04-25T14:54:20.448Z</time></trkpt><trkpt lat="42.6560623" lon="12.8277811"><ele>270.25</ele><time>2026-04-25T14:54:21.448Z</time></trkpt><trkpt lat="42.6561973" lon="12.8278669"><ele>266.5</ele><time>2026-04-25T14:54:22.449Z</time></trkpt><trkpt lat="42.6563353" lon="12.8279202"><ele>262.75</ele><time>2026-04-25T14:54:23.448Z</time></trkpt><trkpt lat="42.6564685" lon="12.8279564"><ele>259.0</ele><time>2026-04-25T14:54:24.448Z</time></trkpt><trkpt lat="42.656588" lon="12.8279742"><ele>259.0</ele><time>2026-04-25T14:54:25.448Z</time></trkpt><trkpt lat="42.6567239" lon="12.8279809"><ele>259.0</ele><time>2026-04-25T14:54:26.449Z</time></trkpt><trkpt lat="42.6568568" lon="12.8279682"><ele>259.0</ele><time>2026-04-25T14:54:27.449Z</time></trkpt><trkpt lat="42.6569995" lon="12.8279428"><ele>259.0</ele><time>2026-04-25T14:54:28.448Z</time></trkpt><trkpt lat="42.6571504" lon="12.8279116"><ele>259.3333333333333</ele><time>2026-04-25T14:54:29.449Z</time></trkpt><trkpt lat="42.6573047" lon="12.8278897"><ele>259.6666666666667</ele><time>2026-04-25T14:54:30.449Z</time></trkpt><trkpt lat="42.6574646" lon="12.8278703"><ele>260.0</ele><time>2026-04-25T14:54:31.448Z</time></trkpt><trkpt lat="42.6576306" lon="12.8278631"><ele>262.0</ele><time>2026-04-25T14:54:32.449Z</time></trkpt><trkpt lat="42.6577915" lon="12.8278623"><ele>264.0</ele><time>2026-04-25T14:54:33.449Z</time></trkpt><trkpt lat="42.6579535" lon="12.8278758"><ele>266.0</ele><time>2026-04-25T14:54:34.448Z</time></trkpt><trkpt lat="42.6581183" lon="12.8279021"><ele>266.0</ele><time>2026-04-25T14:54:35.448Z</time></trkpt><trkpt lat="42.6582701" lon="12.8279404"><ele>266.0</ele><time>2026-04-25T14:54:36.448Z</time></trkpt><trkpt lat="42.6584311" lon="12.8279907"><ele>266.0</ele><time>2026-04-25T14:54:37.448Z</time></trkpt><trkpt lat="42.6585874" lon="12.8280543"><ele>267.6666666666667</ele><time>2026-04-25T14:54:38.449Z</time></trkpt><trkpt lat="42.6587397" lon="12.828133"><ele>269.3333333333333</ele><time>2026-04-25T14:54:39.449Z</time></trkpt><trkpt lat="42.6588916" lon="12.8282008"><ele>271.0</ele><time>2026-04-25T14:54:40.448Z</time></trkpt><trkpt lat="42.6590419" lon="12.8282764"><ele>271.0</ele><time>2026-04-25T14:54:41.448Z</time></trkpt><trkpt lat="42.6591888" lon="12.8283511"><ele>271.0</ele><time>2026-04-25T14:54:42.448Z</time></trkpt><trkpt lat="42.6593387" lon="12.8284297"><ele>271.0</ele><time>2026-04-25T14:54:43.449Z</time></trkpt><trkpt lat="42.6594872" lon="12.8285092"><ele>269.0</ele><time>2026-04-25T14:54:44.448Z</time></trkpt><trkpt lat="42.6596352" lon="12.8285814"><ele>267.0</ele><time>2026-04-25T14:54:45.448Z</time></trkpt><trkpt lat="42.6597821" lon="12.8286633"><ele>265.0</ele><time>2026-04-25T14:54:46.448Z</time></trkpt><trkpt lat="42.6599351" lon="12.8287417"><ele>265.0</ele><time>2026-04-25T14:54:47.448Z</time></trkpt><trkpt lat="42.6600821" lon="12.8288141"><ele>265.0</ele><time>2026-04-25T14:54:48.448Z</time></trkpt><trkpt lat="42.6602282" lon="12.8288904"><ele>265.0</ele><time>2026-04-25T14:54:49.449Z</time></trkpt><trkpt lat="42.6603731" lon="12.8289495"><ele>266.66666666666663</ele><time>2026-04-25T14:54:50.448Z</time></trkpt><trkpt lat="42.6605276" lon="12.8289858"><ele>268.3333333333333</ele><time>2026-04-25T14:54:51.448Z</time></trkpt><trkpt lat="42.6606828" lon="12.8289972"><ele>270.0</ele><time>2026-04-25T14:54:52.448Z</time></trkpt><trkpt lat="42.6608414" lon="12.8289874"><ele>270.0</ele><time>2026-04-25T14:54:53.449Z</time></trkpt><trkpt lat="42.6609966" lon="12.8289601"><ele>270.0</ele><time>2026-04-25T14:54:54.448Z</time></trkpt><trkpt lat="42.6611545" lon="12.8289461"><ele>270.0</ele><time>2026-04-25T14:54:55.448Z</time></trkpt><trkpt lat="42.6613147" lon="12.8289181"><ele>268.6666666666667</ele><time>2026-04-25T14:54:56.448Z</time></trkpt><trkpt lat="42.6614715" lon="12.8288875"><ele>267.33333333333337</ele><time>2026-04-25T14:54:57.448Z</time></trkpt><trkpt lat="42.6616246" lon="12.8288578"><ele>266.0</ele><time>2026-04-25T14:54:58.448Z</time></trkpt><trkpt lat="42.6617778" lon="12.8288279"><ele>266.0</ele><time>2026-04-25T14:54:59.449Z</time></trkpt><trkpt lat="42.6619325" lon="12.8287945"><ele>266.0</ele><time>2026-04-25T14:55:00.449Z</time></trkpt><trkpt lat="42.6620917" lon="12.8287566"><ele>266.0</ele><time>2026-04-25T14:55:01.448Z</time></trkpt><trkpt lat="42.6622583" lon="12.8287189"><ele>265.0</ele><time>2026-04-25T14:55:02.448Z</time></trkpt><trkpt lat="42.6624346" lon="12.8286976"><ele>264.0</ele><time>2026-04-25T14:55:03.448Z</time></trkpt><trkpt lat="42.6626091" lon="12.8286681"><ele>263.0</ele><time>2026-04-25T14:55:04.448Z</time></trkpt><trkpt lat="42.6627906" lon="12.8286261"><ele>262.6666666666667</ele><time>2026-04-25T14:55:05.448Z</time></trkpt><trkpt lat="42.6629708" lon="12.8285966"><ele>262.3333333333333</ele><time>2026-04-25T14:55:06.448Z</time></trkpt><trkpt lat="42.663153" lon="12.8285607"><ele>262.0</ele><time>2026-04-25T14:55:07.448Z</time></trkpt><trkpt lat="42.6633384" lon="12.8285186"><ele>262.0</ele><time>2026-04-25T14:55:08.448Z</time></trkpt><trkpt lat="42.6635249" lon="12.8284861"><ele>262.0</ele><time>2026-04-25T14:55:09.448Z</time></trkpt><trkpt lat="42.6637058" lon="12.8284593"><ele>262.0</ele><time>2026-04-25T14:55:10.448Z</time></trkpt><trkpt lat="42.6638891" lon="12.828405"><ele>264.66666666666663</ele><time>2026-04-25T14:55:11.448Z</time></trkpt><trkpt lat="42.6640819" lon="12.8283729"><ele>267.3333333333333</ele><time>2026-04-25T14:55:12.448Z</time></trkpt><trkpt lat="42.6642751" lon="12.8283394"><ele>270.0</ele><time>2026-04-25T14:55:13.448Z</time></trkpt><trkpt lat="42.6644588" lon="12.8283101"><ele>270.0</ele><time>2026-04-25T14:55:14.448Z</time></trkpt><trkpt lat="42.6646616" lon="12.8282972"><ele>270.0</ele><time>2026-04-25T14:55:15.448Z</time></trkpt><trkpt lat="42.6648252" lon="12.8282899"><ele>270.0</ele><time>2026-04-25T14:55:16.449Z</time></trkpt><trkpt lat="42.6649862" lon="12.828264"><ele>270.0</ele><time>2026-04-25T14:55:17.448Z</time></trkpt><trkpt lat="42.6651305" lon="12.8282292"><ele>270.0</ele><time>2026-04-25T14:55:18.448Z</time></trkpt><trkpt lat="42.6652606" lon="12.8281746"><ele>270.0</ele><time>2026-04-25T14:55:19.449Z</time></trkpt><trkpt lat="42.6653673" lon="12.8280986"><ele>270.0</ele><time>2026-04-25T14:55:20.448Z</time></trkpt><trkpt lat="42.6654694" lon="12.8279807"><ele>269.75</ele><time>2026-04-25T14:55:21.449Z</time></trkpt><trkpt lat="42.6655532" lon="12.8278392"><ele>269.5</ele><time>2026-04-25T14:55:22.448Z</time></trkpt><trkpt lat="42.6656127" lon="12.8276779"><ele>269.25</ele><time>2026-04-25T14:55:23.449Z</time></trkpt><trkpt lat="42.6656718" lon="12.8275053"><ele>269.0</ele><time>2026-04-25T14:55:24.448Z</time></trkpt><trkpt lat="42.665733" lon="12.8273343"><ele>269.0</ele><time>2026-04-25T14:55:25.448Z</time></trkpt><trkpt lat="42.665792" lon="12.8271535"><ele>269.0</ele><time>2026-04-25T14:55:26.448Z</time></trkpt><trkpt lat="42.6658453" lon="12.8269682"><ele>269.0</ele><time>2026-04-25T14:55:27.448Z</time></trkpt><trkpt lat="42.6659015" lon="12.8267935"><ele>269.0</ele><time>2026-04-25T14:55:28.448Z</time></trkpt><trkpt lat="42.6659659" lon="12.8266213"><ele>268.25</ele><time>2026-04-25T14:55:29.448Z</time></trkpt><trkpt lat="42.6660342" lon="12.8264557"><ele>267.5</ele><time>2026-04-25T14:55:30.448Z</time></trkpt><trkpt lat="42.6661189" lon="12.8263058"><ele>266.75</ele><time>2026-04-25T14:55:31.448Z</time></trkpt><trkpt lat="42.6662132" lon="12.8261596"><ele>266.0</ele><time>2026-04-25T14:55:32.448Z</time></trkpt><trkpt lat="42.6663217" lon="12.8260197"><ele>267.33333333333337</ele><time>2026-04-25T14:55:33.448Z</time></trkpt><trkpt lat="42.6664336" lon="12.8258873"><ele>268.6666666666667</ele><time>2026-04-25T14:55:34.448Z</time></trkpt><trkpt lat="42.6665554" lon="12.8257518"><ele>270.0</ele><time>2026-04-25T14:55:35.448Z</time></trkpt><trkpt lat="42.6666719" lon="12.8256318"><ele>270.0</ele><time>2026-04-25T14:55:36.448Z</time></trkpt><trkpt lat="42.6667845" lon="12.8255296"><ele>270.0</ele><time>2026-04-25T14:55:37.448Z</time></trkpt><trkpt lat="42.6669015" lon="12.8254545"><ele>270.0</ele><time>2026-04-25T14:55:38.448Z</time></trkpt><trkpt lat="42.6670255" lon="12.8253988"><ele>270.0</ele><time>2026-04-25T14:55:39.449Z</time></trkpt><trkpt lat="42.6671617" lon="12.8253554"><ele>268.6666666666667</ele><time>2026-04-25T14:55:40.448Z</time></trkpt><trkpt lat="42.6673096" lon="12.825325"><ele>267.33333333333337</ele><time>2026-04-25T14:55:41.449Z</time></trkpt><trkpt lat="42.6674625" lon="12.8253118"><ele>266.0</ele><time>2026-04-25T14:55:42.448Z</time></trkpt><trkpt lat="42.6676207" lon="12.8252944"><ele>266.0</ele><time>2026-04-25T14:55:43.448Z</time></trkpt><trkpt lat="42.6677924" lon="12.8252742"><ele>266.0</ele><time>2026-04-25T14:55:44.448Z</time></trkpt><trkpt lat="42.6679689" lon="12.8252508"><ele>266.0</ele><time>2026-04-25T14:55:45.448Z</time></trkpt><trkpt lat="42.6681486" lon="12.8252346"><ele>266.0</ele><time>2026-04-25T14:55:46.448Z</time></trkpt><trkpt lat="42.6683239" lon="12.8252155"><ele>266.0</ele><time>2026-04-25T14:55:47.448Z</time></trkpt><trkpt lat="42.6685001" lon="12.8252037"><ele>266.0</ele><time>2026-04-25T14:55:48.448Z</time></trkpt><trkpt lat="42.6686817" lon="12.8251913"><ele>265.6666666666667</ele><time>2026-04-25T14:55:49.448Z</time></trkpt><trkpt lat="42.6688623" lon="12.8251822"><ele>265.3333333333333</ele><time>2026-04-25T14:55:50.448Z</time></trkpt><trkpt lat="42.6690398" lon="12.8251772"><ele>265.0</ele><time>2026-04-25T14:55:51.448Z</time></trkpt><trkpt lat="42.6692267" lon="12.8251867"><ele>265.0</ele><time>2026-04-25T14:55:52.449Z</time></trkpt><trkpt lat="42.669418" lon="12.8251979"><ele>265.0</ele><time>2026-04-25T14:55:53.448Z</time></trkpt><trkpt lat="42.6695939" lon="12.8252308"><ele>265.0</ele><time>2026-04-25T14:55:54.448Z</time></trkpt><trkpt lat="42.669771" lon="12.8252446"><ele>265.0</ele><time>2026-04-25T14:55:55.449Z</time></trkpt><trkpt lat="42.6699499" lon="12.8252444"><ele>265.0</ele><time>2026-04-25T14:55:56.448Z</time></trkpt><trkpt lat="42.670141" lon="12.8252425"><ele>265.0</ele><time>2026-04-25T14:55:57.448Z</time></trkpt><trkpt lat="42.6703234" lon="12.8252268"><ele>264.66666666666663</ele><time>2026-04-25T14:55:58.448Z</time></trkpt><trkpt lat="42.6705063" lon="12.8251987"><ele>264.3333333333333</ele><time>2026-04-25T14:55:59.448Z</time></trkpt><trkpt lat="42.6706843" lon="12.8251667"><ele>264.0</ele><time>2026-04-25T14:56:00.448Z</time></trkpt><trkpt lat="42.670873" lon="12.8251423"><ele>270.0</ele><time>2026-04-25T14:56:01.448Z</time></trkpt><trkpt lat="42.6710587" lon="12.8251204"><ele>276.0</ele><time>2026-04-25T14:56:02.448Z</time></trkpt><trkpt lat="42.6712639" lon="12.8251288"><ele>282.0</ele><time>2026-04-25T14:56:03.449Z</time></trkpt><trkpt lat="42.6714547" lon="12.8251383"><ele>276.3333333333333</ele><time>2026-04-25T14:56:04.448Z</time></trkpt><trkpt lat="42.6716453" lon="12.8251488"><ele>270.66666666666663</ele><time>2026-04-25T14:56:05.448Z</time></trkpt><trkpt lat="42.6718366" lon="12.8251565"><ele>265.0</ele><time>2026-04-25T14:56:06.448Z</time></trkpt><trkpt lat="42.6720298" lon="12.8251627"><ele>264.66666666666663</ele><time>2026-04-25T14:56:07.448Z</time></trkpt><trkpt lat="42.6722213" lon="12.8251681"><ele>264.3333333333333</ele><time>2026-04-25T14:56:08.449Z</time></trkpt><trkpt lat="42.6723981" lon="12.8251705"><ele>264.0</ele><time>2026-04-25T14:56:09.448Z</time></trkpt><trkpt lat="42.6725704" lon="12.8251906"><ele>264.0</ele><time>2026-04-25T14:56:10.448Z</time></trkpt><trkpt lat="42.6727332" lon="12.8252347"><ele>264.0</ele><time>2026-04-25T14:56:11.448Z</time></trkpt><trkpt lat="42.6728855" lon="12.8252998"><ele>264.0</ele><time>2026-04-25T14:56:12.448Z</time></trkpt><trkpt lat="42.6730349" lon="12.8253717"><ele>265.5</ele><time>2026-04-25T14:56:13.448Z</time></trkpt><trkpt lat="42.6731651" lon="12.8254484"><ele>267.0</ele><time>2026-04-25T14:56:14.449Z</time></trkpt><trkpt lat="42.6732861" lon="12.8255208"><ele>268.5</ele><time>2026-04-25T14:56:15.448Z</time></trkpt><trkpt lat="42.6733984" lon="12.8255787"><ele>270.0</ele><time>2026-04-25T14:56:16.448Z</time></trkpt><trkpt lat="42.6735149" lon="12.8256048"><ele>269.25</ele><time>2026-04-25T14:56:17.448Z</time></trkpt><trkpt lat="42.6736344" lon="12.8255987"><ele>268.5</ele><time>2026-04-25T14:56:18.448Z</time></trkpt><trkpt lat="42.6737467" lon="12.8255474"><ele>267.75</ele><time>2026-04-25T14:56:19.448Z</time></trkpt><trkpt lat="42.6738291" lon="12.8254517"><ele>267.0</ele><time>2026-04-25T14:56:20.448Z</time></trkpt><trkpt lat="42.6738897" lon="12.8253286"><ele>267.0</ele><time>2026-04-25T14:56:21.448Z</time></trkpt><trkpt lat="42.673928" lon="12.8251987"><ele>267.0</ele><time>2026-04-25T14:56:22.448Z</time></trkpt><trkpt lat="42.6739392" lon="12.8250432"><ele>267.0</ele><time>2026-04-25T14:56:23.448Z</time></trkpt><trkpt lat="42.6739354" lon="12.8248647"><ele>267.0</ele><time>2026-04-25T14:56:24.448Z</time></trkpt><trkpt lat="42.6739354" lon="12.8246765"><ele>268.25</ele><time>2026-04-25T14:56:25.448Z</time></trkpt><trkpt lat="42.6739398" lon="12.8244828"><ele>269.5</ele><time>2026-04-25T14:56:26.448Z</time></trkpt><trkpt lat="42.6739699" lon="12.8242816"><ele>270.75</ele><time>2026-04-25T14:56:27.448Z</time></trkpt><trkpt lat="42.673996" lon="12.8240811"><ele>272.0</ele><time>2026-04-25T14:56:28.448Z</time></trkpt><trkpt lat="42.6740321" lon="12.8238608"><ele>273.6666666666667</ele><time>2026-04-25T14:56:29.448Z</time></trkpt><trkpt lat="42.6740751" lon="12.8236492"><ele>275.3333333333333</ele><time>2026-04-25T14:56:30.448Z</time></trkpt><trkpt lat="42.6741307" lon="12.8234488"><ele>277.0</ele><time>2026-04-25T14:56:31.448Z</time></trkpt><trkpt lat="42.674197" lon="12.8232359"><ele>280.66666666666663</ele><time>2026-04-25T14:56:32.448Z</time></trkpt><trkpt lat="42.6742586" lon="12.8230184"><ele>284.3333333333333</ele><time>2026-04-25T14:56:33.448Z</time></trkpt><trkpt lat="42.6743318" lon="12.8228155"><ele>288.0</ele><time>2026-04-25T14:56:34.448Z</time></trkpt><trkpt lat="42.6744176" lon="12.8226084"><ele>281.3333333333333</ele><time>2026-04-25T14:56:35.448Z</time></trkpt><trkpt lat="42.6745047" lon="12.8224034"><ele>274.66666666666663</ele><time>2026-04-25T14:56:36.448Z</time></trkpt><trkpt lat="42.674606" lon="12.8222132"><ele>268.0</ele><time>2026-04-25T14:56:37.448Z</time></trkpt><trkpt lat="42.6747079" lon="12.8220203"><ele>270.66666666666663</ele><time>2026-04-25T14:56:38.448Z</time></trkpt><trkpt lat="42.6747974" lon="12.8218121"><ele>273.3333333333333</ele><time>2026-04-25T14:56:39.448Z</time></trkpt><trkpt lat="42.6748804" lon="12.8216061"><ele>276.0</ele><time>2026-04-25T14:56:40.448Z</time></trkpt><trkpt lat="42.6749567" lon="12.8213851"><ele>276.0</ele><time>2026-04-25T14:56:41.448Z</time></trkpt><trkpt lat="42.675008" lon="12.8211508"><ele>276.0</ele><time>2026-04-25T14:56:42.448Z</time></trkpt><trkpt lat="42.6750517" lon="12.8209132"><ele>276.0</ele><time>2026-04-25T14:56:43.448Z</time></trkpt><trkpt lat="42.6750841" lon="12.8206762"><ele>279.6666666666667</ele><time>2026-04-25T14:56:44.448Z</time></trkpt><trkpt lat="42.6751219" lon="12.8204451"><ele>283.33333333333337</ele><time>2026-04-25T14:56:45.448Z</time></trkpt><trkpt lat="42.6751493" lon="12.8202242"><ele>287.0</ele><time>2026-04-25T14:56:46.448Z</time></trkpt><trkpt lat="42.6751714" lon="12.8200139"><ele>287.75</ele><time>2026-04-25T14:56:47.448Z</time></trkpt><trkpt lat="42.6752056" lon="12.8198152"><ele>288.5</ele><time>2026-04-25T14:56:48.448Z</time></trkpt><trkpt lat="42.6752495" lon="12.8196425"><ele>289.25</ele><time>2026-04-25T14:56:49.448Z</time></trkpt><trkpt lat="42.6753132" lon="12.8195018"><ele>290.0</ele><time>2026-04-25T14:56:50.448Z</time></trkpt><trkpt lat="42.6754032" lon="12.819378"><ele>285.75</ele><time>2026-04-25T14:56:51.449Z</time></trkpt><trkpt lat="42.6755076" lon="12.819265"><ele>281.5</ele><time>2026-04-25T14:56:52.449Z</time></trkpt><trkpt lat="42.6756209" lon="12.8191402"><ele>277.25</ele><time>2026-04-25T14:56:53.448Z</time></trkpt><trkpt lat="42.6757429" lon="12.8190262"><ele>273.0</ele><time>2026-04-25T14:56:54.449Z</time></trkpt><trkpt lat="42.6758726" lon="12.8189072"><ele>273.0</ele><time>2026-04-25T14:56:55.448Z</time></trkpt><trkpt lat="42.6760006" lon="12.8187776"><ele>273.0</ele><time>2026-04-25T14:56:56.448Z</time></trkpt><trkpt lat="42.6761338" lon="12.8186459"><ele>273.0</ele><time>2026-04-25T14:56:57.448Z</time></trkpt><trkpt lat="42.6762742" lon="12.8185164"><ele>275.0</ele><time>2026-04-25T14:56:58.448Z</time></trkpt><trkpt lat="42.6764192" lon="12.8183753"><ele>277.0</ele><time>2026-04-25T14:56:59.448Z</time></trkpt><trkpt lat="42.6765665" lon="12.8182283"><ele>279.0</ele><time>2026-04-25T14:57:00.448Z</time></trkpt><trkpt lat="42.6767163" lon="12.8180874"><ele>279.0</ele><time>2026-04-25T14:57:01.448Z</time></trkpt><trkpt lat="42.6768662" lon="12.8179476"><ele>279.0</ele><time>2026-04-25T14:57:02.448Z</time></trkpt><trkpt lat="42.6770117" lon="12.8178089"><ele>279.0</ele><time>2026-04-25T14:57:03.448Z</time></trkpt><trkpt lat="42.6771524" lon="12.8176836"><ele>279.0</ele><time>2026-04-25T14:57:04.448Z</time></trkpt><trkpt lat="42.6772928" lon="12.8175739"><ele>279.0</ele><time>2026-04-25T14:57:05.448Z</time></trkpt><trkpt lat="42.6774477" lon="12.8175059"><ele>279.0</ele><time>2026-04-25T14:57:06.448Z</time></trkpt><trkpt lat="42.6775883" lon="12.8174435"><ele>279.0</ele><time>2026-04-25T14:57:07.448Z</time></trkpt><trkpt lat="42.6777382" lon="12.8173969"><ele>279.0</ele><time>2026-04-25T14:57:08.448Z</time></trkpt><trkpt lat="42.6778849" lon="12.8173587"><ele>279.0</ele><time>2026-04-25T14:57:09.448Z</time></trkpt><trkpt lat="42.6780374" lon="12.8173186"><ele>276.6666666666667</ele><time>2026-04-25T14:57:10.448Z</time></trkpt><trkpt lat="42.6781874" lon="12.817265"><ele>274.33333333333337</ele><time>2026-04-25T14:57:11.448Z</time></trkpt><trkpt lat="42.6783328" lon="12.8171845"><ele>272.0</ele><time>2026-04-25T14:57:12.448Z</time></trkpt><trkpt lat="42.6784808" lon="12.8171091"><ele>272.6666666666667</ele><time>2026-04-25T14:57:13.449Z</time></trkpt><trkpt lat="42.6786269" lon="12.8170066"><ele>273.3333333333333</ele><time>2026-04-25T14:57:14.448Z</time></trkpt><trkpt lat="42.6787728" lon="12.8168942"><ele>274.0</ele><time>2026-04-25T14:57:15.448Z</time></trkpt><trkpt lat="42.6789205" lon="12.8167799"><ele>274.0</ele><time>2026-04-25T14:57:16.448Z</time></trkpt><trkpt lat="42.679066" lon="12.8166708"><ele>274.0</ele><time>2026-04-25T14:57:17.448Z</time></trkpt><trkpt lat="42.6792119" lon="12.816566"><ele>274.0</ele><time>2026-04-25T14:57:18.449Z</time></trkpt><trkpt lat="42.6793513" lon="12.8164698"><ele>273.0</ele><time>2026-04-25T14:57:19.448Z</time></trkpt><trkpt lat="42.6794891" lon="12.8163928"><ele>272.0</ele><time>2026-04-25T14:57:20.448Z</time></trkpt><trkpt lat="42.6796241" lon="12.8163487"><ele>271.0</ele><time>2026-04-25T14:57:21.449Z</time></trkpt><trkpt lat="42.6797673" lon="12.8163407"><ele>270.0</ele><time>2026-04-25T14:57:22.448Z</time></trkpt><trkpt lat="42.6799114" lon="12.8163469"><ele>270.0</ele><time>2026-04-25T14:57:23.448Z</time></trkpt><trkpt lat="42.680063" lon="12.8163668"><ele>270.0</ele><time>2026-04-25T14:57:24.448Z</time></trkpt><trkpt lat="42.6802186" lon="12.8163705"><ele>270.0</ele><time>2026-04-25T14:57:25.448Z</time></trkpt><trkpt lat="42.6803785" lon="12.8163432"><ele>270.3333333333333</ele><time>2026-04-25T14:57:26.448Z</time></trkpt><trkpt lat="42.6805283" lon="12.8162849"><ele>270.66666666666663</ele><time>2026-04-25T14:57:27.448Z</time></trkpt><trkpt lat="42.6806727" lon="12.8162014"><ele>271.0</ele><time>2026-04-25T14:57:28.448Z</time></trkpt><trkpt lat="42.6808183" lon="12.8161061"><ele>271.0</ele><time>2026-04-25T14:57:29.448Z</time></trkpt><trkpt lat="42.6809798" lon="12.8160373"><ele>271.0</ele><time>2026-04-25T14:57:30.449Z</time></trkpt><trkpt lat="42.6811285" lon="12.8159795"><ele>271.0</ele><time>2026-04-25T14:57:31.448Z</time></trkpt><trkpt lat="42.6812837" lon="12.8159388"><ele>271.3333333333333</ele><time>2026-04-25T14:57:32.448Z</time></trkpt><trkpt lat="42.6814501" lon="12.8159742"><ele>271.6666666666667</ele><time>2026-04-25T14:57:33.448Z</time></trkpt><trkpt lat="42.6816057" lon="12.816005"><ele>272.0</ele><time>2026-04-25T14:57:34.448Z</time></trkpt><trkpt lat="42.6817623" lon="12.8160566"><ele>272.33333333333337</ele><time>2026-04-25T14:57:35.448Z</time></trkpt><trkpt lat="42.6819197" lon="12.8161181"><ele>272.6666666666667</ele><time>2026-04-25T14:57:36.448Z</time></trkpt><trkpt lat="42.6820893" lon="12.816177"><ele>273.0</ele><time>2026-04-25T14:57:37.448Z</time></trkpt><trkpt lat="42.682255" lon="12.8162305"><ele>273.0</ele><time>2026-04-25T14:57:38.449Z</time></trkpt><trkpt lat="42.6824223" lon="12.8162828"><ele>273.0</ele><time>2026-04-25T14:57:39.448Z</time></trkpt><trkpt lat="42.6825774" lon="12.8163414"><ele>273.0</ele><time>2026-04-25T14:57:40.448Z</time></trkpt><trkpt lat="42.6827504" lon="12.8164052"><ele>273.6666666666667</ele><time>2026-04-25T14:57:41.449Z</time></trkpt><trkpt lat="42.6829111" lon="12.8164602"><ele>274.33333333333337</ele><time>2026-04-25T14:57:42.448Z</time></trkpt><trkpt lat="42.6830798" lon="12.8165095"><ele>275.0</ele><time>2026-04-25T14:57:43.448Z</time></trkpt><trkpt lat="42.6832385" lon="12.816567"><ele>275.0</ele><time>2026-04-25T14:57:44.449Z</time></trkpt><trkpt lat="42.6834019" lon="12.8166311"><ele>275.0</ele><time>2026-04-25T14:57:45.448Z</time></trkpt><trkpt lat="42.6835514" lon="12.8167132"><ele>275.0</ele><time>2026-04-25T14:57:46.448Z</time></trkpt><trkpt lat="42.6837003" lon="12.8168217"><ele>277.0</ele><time>2026-04-25T14:57:47.448Z</time></trkpt><trkpt lat="42.6838338" lon="12.8169557"><ele>279.0</ele><time>2026-04-25T14:57:48.448Z</time></trkpt><trkpt lat="42.6839566" lon="12.8171115"><ele>281.0</ele><time>2026-04-25T14:57:49.449Z</time></trkpt><trkpt lat="42.6840713" lon="12.8172739"><ele>281.0</ele><time>2026-04-25T14:57:50.448Z</time></trkpt><trkpt lat="42.6841826" lon="12.8174502"><ele>281.0</ele><time>2026-04-25T14:57:51.448Z</time></trkpt><trkpt lat="42.6842868" lon="12.8176232"><ele>281.0</ele><time>2026-04-25T14:57:52.448Z</time></trkpt><trkpt lat="42.6843897" lon="12.817781"><ele>279.75</ele><time>2026-04-25T14:57:53.448Z</time></trkpt><trkpt lat="42.6844908" lon="12.8179178"><ele>278.5</ele><time>2026-04-25T14:57:54.448Z</time></trkpt><trkpt lat="42.6845941" lon="12.8180256"><ele>277.25</ele><time>2026-04-25T14:57:55.448Z</time></trkpt><trkpt lat="42.684701" lon="12.8180948"><ele>276.0</ele><time>2026-04-25T14:57:56.448Z</time></trkpt><trkpt lat="42.6848286" lon="12.818126"><ele>276.0</ele><time>2026-04-25T14:57:57.448Z</time></trkpt><trkpt lat="42.6849724" lon="12.8181289"><ele>276.0</ele><time>2026-04-25T14:57:58.448Z</time></trkpt><trkpt lat="42.6851252" lon="12.8181248"><ele>276.0</ele><time>2026-04-25T14:57:59.448Z</time></trkpt><trkpt lat="42.6852808" lon="12.818129"><ele>275.5</ele><time>2026-04-25T14:58:00.449Z</time></trkpt><trkpt lat="42.6854304" lon="12.8181548"><ele>275.0</ele><time>2026-04-25T14:58:01.448Z</time></trkpt><trkpt lat="42.6855732" lon="12.8181906"><ele>274.5</ele><time>2026-04-25T14:58:02.449Z</time></trkpt><trkpt lat="42.6857121" lon="12.8182417"><ele>274.0</ele><time>2026-04-25T14:58:03.448Z</time></trkpt><trkpt lat="42.6858358" lon="12.818311"><ele>274.0</ele><time>2026-04-25T14:58:04.448Z</time></trkpt><trkpt lat="42.6859465" lon="12.8184018"><ele>274.0</ele><time>2026-04-25T14:58:05.448Z</time></trkpt><trkpt lat="42.6860476" lon="12.8185178"><ele>274.0</ele><time>2026-04-25T14:58:06.448Z</time></trkpt><trkpt lat="42.6861211" lon="12.8186573"><ele>274.0</ele><time>2026-04-25T14:58:07.448Z</time></trkpt><trkpt lat="42.6861592" lon="12.8188215"><ele>276.25</ele><time>2026-04-25T14:58:08.448Z</time></trkpt><trkpt lat="42.6861887" lon="12.819003"><ele>278.5</ele><time>2026-04-25T14:58:09.448Z</time></trkpt><trkpt lat="42.686215" lon="12.8191929"><ele>280.75</ele><time>2026-04-25T14:58:10.449Z</time></trkpt><trkpt lat="42.6862336" lon="12.8193876"><ele>283.0</ele><time>2026-04-25T14:58:11.448Z</time></trkpt><trkpt lat="42.6862518" lon="12.8195627"><ele>283.0</ele><time>2026-04-25T14:58:12.448Z</time></trkpt><trkpt lat="42.6862813" lon="12.8197324"><ele>283.0</ele><time>2026-04-25T14:58:13.448Z</time></trkpt><trkpt lat="42.6863392" lon="12.8198837"><ele>283.0</ele><time>2026-04-25T14:58:14.448Z</time></trkpt><trkpt lat="42.6864124" lon="12.8200186"><ele>283.0</ele><time>2026-04-25T14:58:15.448Z</time></trkpt><trkpt lat="42.6865236" lon="12.8201077"><ele>283.0</ele><time>2026-04-25T14:58:16.448Z</time></trkpt><trkpt lat="42.6866383" lon="12.8201666"><ele>283.0</ele><time>2026-04-25T14:58:17.448Z</time></trkpt><trkpt lat="42.6867592" lon="12.8202056"><ele>283.0</ele><time>2026-04-25T14:58:18.448Z</time></trkpt><trkpt lat="42.6868978" lon="12.8202461"><ele>283.0</ele><time>2026-04-25T14:58:19.448Z</time></trkpt><trkpt lat="42.6870141" lon="12.8202977"><ele>283.0</ele><time>2026-04-25T14:58:20.449Z</time></trkpt><trkpt lat="42.6871357" lon="12.8203765"><ele>283.0</ele><time>2026-04-25T14:58:21.448Z</time></trkpt><trkpt lat="42.6872562" lon="12.8204851"><ele>283.0</ele><time>2026-04-25T14:58:22.449Z</time></trkpt><trkpt lat="42.6873689" lon="12.8206255"><ele>283.0</ele><time>2026-04-25T14:58:23.448Z</time></trkpt><trkpt lat="42.6874772" lon="12.8207794"><ele>283.0</ele><time>2026-04-25T14:58:24.448Z</time></trkpt><trkpt lat="42.6875831" lon="12.8209309"><ele>283.0</ele><time>2026-04-25T14:58:25.448Z</time></trkpt><trkpt lat="42.6876919" lon="12.8210741"><ele>283.0</ele><time>2026-04-25T14:58:26.448Z</time></trkpt><trkpt lat="42.6878143" lon="12.8211966"><ele>282.3333333333333</ele><time>2026-04-25T14:58:27.449Z</time></trkpt><trkpt lat="42.6879394" lon="12.8212994"><ele>281.6666666666667</ele><time>2026-04-25T14:58:28.448Z</time></trkpt><trkpt lat="42.6880917" lon="12.8213589"><ele>281.0</ele><time>2026-04-25T14:58:29.448Z</time></trkpt><trkpt lat="42.6882453" lon="12.8214003"><ele>281.0</ele><time>2026-04-25T14:58:30.448Z</time></trkpt><trkpt lat="42.688407" lon="12.8214093"><ele>281.0</ele><time>2026-04-25T14:58:31.448Z</time></trkpt><trkpt lat="42.6885625" lon="12.8213941"><ele>281.0</ele><time>2026-04-25T14:58:32.448Z</time></trkpt><trkpt lat="42.6887223" lon="12.8213581"><ele>279.6666666666667</ele><time>2026-04-25T14:58:33.448Z</time></trkpt><trkpt lat="42.6888798" lon="12.821313"><ele>278.3333333333333</ele><time>2026-04-25T14:58:34.448Z</time></trkpt><trkpt lat="42.6890328" lon="12.8212682"><ele>277.0</ele><time>2026-04-25T14:58:35.448Z</time></trkpt><trkpt lat="42.6891855" lon="12.8212375"><ele>277.0</ele><time>2026-04-25T14:58:36.448Z</time></trkpt><trkpt lat="42.6893307" lon="12.8212441"><ele>277.0</ele><time>2026-04-25T14:58:37.448Z</time></trkpt><trkpt lat="42.6894735" lon="12.8213046"><ele>277.0</ele><time>2026-04-25T14:58:38.448Z</time></trkpt><trkpt lat="42.6896165" lon="12.8213632"><ele>277.0</ele><time>2026-04-25T14:58:39.448Z</time></trkpt><trkpt lat="42.6897478" lon="12.8214346"><ele>277.5</ele><time>2026-04-25T14:58:40.448Z</time></trkpt><trkpt lat="42.6898884" lon="12.8214936"><ele>278.0</ele><time>2026-04-25T14:58:41.448Z</time></trkpt><trkpt lat="42.6900233" lon="12.821502"><ele>278.5</ele><time>2026-04-25T14:58:42.448Z</time></trkpt><trkpt lat="42.6901639" lon="12.8215015"><ele>279.0</ele><time>2026-04-25T14:58:43.448Z</time></trkpt><trkpt lat="42.690306" lon="12.8214818"><ele>279.0</ele><time>2026-04-25T14:58:44.449Z</time></trkpt><trkpt lat="42.6904648" lon="12.8214527"><ele>279.0</ele><time>2026-04-25T14:58:45.448Z</time></trkpt><trkpt lat="42.690619" lon="12.8214341"><ele>279.0</ele><time>2026-04-25T14:58:46.448Z</time></trkpt><trkpt lat="42.6907817" lon="12.8214285"><ele>279.0</ele><time>2026-04-25T14:58:47.449Z</time></trkpt><trkpt lat="42.6909399" lon="12.8214528"><ele>279.0</ele><time>2026-04-25T14:58:48.448Z</time></trkpt><trkpt lat="42.6911026" lon="12.8215092"><ele>279.0</ele><time>2026-04-25T14:58:49.448Z</time></trkpt><trkpt lat="42.6912656" lon="12.8215708"><ele>280.6666666666667</ele><time>2026-04-25T14:58:50.448Z</time></trkpt><trkpt lat="42.6914355" lon="12.8216387"><ele>282.33333333333337</ele><time>2026-04-25T14:58:51.448Z</time></trkpt><trkpt lat="42.6915988" lon="12.8216997"><ele>284.0</ele><time>2026-04-25T14:58:52.448Z</time></trkpt><trkpt lat="42.6917812" lon="12.8217448"><ele>292.0</ele><time>2026-04-25T14:58:53.448Z</time></trkpt><trkpt lat="42.6919445" lon="12.8217554"><ele>300.0</ele><time>2026-04-25T14:58:54.448Z</time></trkpt><trkpt lat="42.692109" lon="12.8217734"><ele>308.0</ele><time>2026-04-25T14:58:55.448Z</time></trkpt><trkpt lat="42.6922496" lon="12.8217931"><ele>300.75</ele><time>2026-04-25T14:58:56.448Z</time></trkpt><trkpt lat="42.6923848" lon="12.8218421"><ele>293.5</ele><time>2026-04-25T14:58:57.448Z</time></trkpt><trkpt lat="42.6924972" lon="12.8219251"><ele>286.25</ele><time>2026-04-25T14:58:58.448Z</time></trkpt><trkpt lat="42.692588" lon="12.8220359"><ele>279.0</ele><time>2026-04-25T14:58:59.448Z</time></trkpt><trkpt lat="42.6926674" lon="12.8221813"><ele>279.0</ele><time>2026-04-25T14:59:00.448Z</time></trkpt><trkpt lat="42.6927495" lon="12.8223404"><ele>279.0</ele><time>2026-04-25T14:59:01.448Z</time></trkpt><trkpt lat="42.6928425" lon="12.822489"><ele>279.0</ele><time>2026-04-25T14:59:02.448Z</time></trkpt><trkpt lat="42.6929346" lon="12.8226359"><ele>279.0</ele><time>2026-04-25T14:59:03.448Z</time></trkpt><trkpt lat="42.6930687" lon="12.8227426"><ele>277.3333333333333</ele><time>2026-04-25T14:59:04.448Z</time></trkpt><trkpt lat="42.6932081" lon="12.8228472"><ele>275.66666666666663</ele><time>2026-04-25T14:59:05.448Z</time></trkpt><trkpt lat="42.6933653" lon="12.8229357"><ele>274.0</ele><time>2026-04-25T14:59:06.448Z</time></trkpt><trkpt lat="42.6935181" lon="12.823017"><ele>277.0</ele><time>2026-04-25T14:59:07.448Z</time></trkpt><trkpt lat="42.6936759" lon="12.8231063"><ele>280.0</ele><time>2026-04-25T14:59:08.449Z</time></trkpt><trkpt lat="42.6938372" lon="12.8231989"><ele>283.0</ele><time>2026-04-25T14:59:09.448Z</time></trkpt><trkpt lat="42.6940117" lon="12.8232845"><ele>283.0</ele><time>2026-04-25T14:59:10.448Z</time></trkpt><trkpt lat="42.6941666" lon="12.8233537"><ele>283.0</ele><time>2026-04-25T14:59:11.449Z</time></trkpt><trkpt lat="42.6943259" lon="12.8233976"><ele>283.0</ele><time>2026-04-25T14:59:12.449Z</time></trkpt><trkpt lat="42.6945059" lon="12.8234351"><ele>284.66666666666663</ele><time>2026-04-25T14:59:13.449Z</time></trkpt><trkpt lat="42.6946787" lon="12.8234732"><ele>286.3333333333333</ele><time>2026-04-25T14:59:14.448Z</time></trkpt><trkpt lat="42.6948505" lon="12.8235129"><ele>288.0</ele><time>2026-04-25T14:59:15.449Z</time></trkpt><trkpt lat="42.6950239" lon="12.8235663"><ele>286.6666666666667</ele><time>2026-04-25T14:59:16.448Z</time></trkpt><trkpt lat="42.695189" lon="12.8236517"><ele>285.33333333333337</ele><time>2026-04-25T14:59:17.448Z</time></trkpt><trkpt lat="42.6953493" lon="12.8237684"><ele>284.0</ele><time>2026-04-25T14:59:18.448Z</time></trkpt><trkpt lat="42.6955064" lon="12.8238837"><ele>284.0</ele><time>2026-04-25T14:59:19.448Z</time></trkpt><trkpt lat="42.6956665" lon="12.8240026"><ele>284.0</ele><time>2026-04-25T14:59:20.448Z</time></trkpt><trkpt lat="42.6958409" lon="12.8240946"><ele>284.0</ele><time>2026-04-25T14:59:21.448Z</time></trkpt><trkpt lat="42.6960309" lon="12.8241762"><ele>281.33333333333337</ele><time>2026-04-25T14:59:22.448Z</time></trkpt><trkpt lat="42.6962108" lon="12.8242507"><ele>278.6666666666667</ele><time>2026-04-25T14:59:23.448Z</time></trkpt><trkpt lat="42.6964023" lon="12.8243169"><ele>276.0</ele><time>2026-04-25T14:59:24.448Z</time></trkpt><trkpt lat="42.6965911" lon="12.824396"><ele>276.0</ele><time>2026-04-25T14:59:25.448Z</time></trkpt><trkpt lat="42.6967805" lon="12.824472"><ele>276.0</ele><time>2026-04-25T14:59:26.448Z</time></trkpt><trkpt lat="42.6969684" lon="12.8245649"><ele>276.0</ele><time>2026-04-25T14:59:27.448Z</time></trkpt><trkpt lat="42.6971382" lon="12.824664"><ele>280.0</ele><time>2026-04-25T14:59:28.449Z</time></trkpt><trkpt lat="42.6973191" lon="12.8247745"><ele>284.0</ele><time>2026-04-25T14:59:29.448Z</time></trkpt><trkpt lat="42.6974862" lon="12.8249044"><ele>288.0</ele><time>2026-04-25T14:59:30.449Z</time></trkpt><trkpt lat="42.6976449" lon="12.8250376"><ele>285.6666666666667</ele><time>2026-04-25T14:59:31.448Z</time></trkpt><trkpt lat="42.6977937" lon="12.8251639"><ele>283.33333333333337</ele><time>2026-04-25T14:59:32.448Z</time></trkpt><trkpt lat="42.6979362" lon="12.8252877"><ele>281.0</ele><time>2026-04-25T14:59:33.448Z</time></trkpt><trkpt lat="42.6980698" lon="12.8254064"><ele>281.0</ele><time>2026-04-25T14:59:34.448Z</time></trkpt><trkpt lat="42.6981999" lon="12.8255143"><ele>281.0</ele><time>2026-04-25T14:59:35.448Z</time></trkpt><trkpt lat="42.6983378" lon="12.8256008"><ele>281.0</ele><time>2026-04-25T14:59:36.448Z</time></trkpt><trkpt lat="42.6984834" lon="12.825669"><ele>282.0</ele><time>2026-04-25T14:59:37.448Z</time></trkpt><trkpt lat="42.6986406" lon="12.8257198"><ele>283.0</ele><time>2026-04-25T14:59:38.448Z</time></trkpt><trkpt lat="42.6988071" lon="12.8257681"><ele>284.0</ele><time>2026-04-25T14:59:39.448Z</time></trkpt><trkpt lat="42.6989881" lon="12.8257843"><ele>284.0</ele><time>2026-04-25T14:59:40.448Z</time></trkpt><trkpt lat="42.6991709" lon="12.8258177"><ele>284.0</ele><time>2026-04-25T14:59:41.448Z</time></trkpt><trkpt lat="42.6993483" lon="12.8258379"><ele>284.0</ele><time>2026-04-25T14:59:42.448Z</time></trkpt><trkpt lat="42.6995228" lon="12.8258601"><ele>288.0</ele><time>2026-04-25T14:59:43.448Z</time></trkpt><trkpt lat="42.6997054" lon="12.8258873"><ele>292.0</ele><time>2026-04-25T14:59:44.448Z</time></trkpt><trkpt lat="42.6998739" lon="12.8259181"><ele>296.0</ele><time>2026-04-25T14:59:45.448Z</time></trkpt><trkpt lat="42.7000551" lon="12.8259476"><ele>296.0</ele><time>2026-04-25T14:59:46.448Z</time></trkpt><trkpt lat="42.7002215" lon="12.8259685"><ele>296.0</ele><time>2026-04-25T14:59:47.449Z</time></trkpt><trkpt lat="42.7003919" lon="12.8260003"><ele>296.0</ele><time>2026-04-25T14:59:48.448Z</time></trkpt><trkpt lat="42.7005581" lon="12.8260051"><ele>296.0</ele><time>2026-04-25T14:59:49.448Z</time></trkpt><trkpt lat="42.7007149" lon="12.8259735"><ele>296.0</ele><time>2026-04-25T14:59:50.448Z</time></trkpt><trkpt lat="42.7008624" lon="12.8259222"><ele>296.0</ele><time>2026-04-25T14:59:51.448Z</time></trkpt><trkpt lat="42.7010163" lon="12.8258501"><ele>291.33333333333337</ele><time>2026-04-25T14:59:52.448Z</time></trkpt><trkpt lat="42.7011759" lon="12.8257755"><ele>286.6666666666667</ele><time>2026-04-25T14:59:53.448Z</time></trkpt><trkpt lat="42.7013351" lon="12.8256926"><ele>282.0</ele><time>2026-04-25T14:59:54.448Z</time></trkpt><trkpt lat="42.7015001" lon="12.8256098"><ele>282.0</ele><time>2026-04-25T14:59:55.448Z</time></trkpt><trkpt lat="42.701675" lon="12.8255315"><ele>282.0</ele><time>2026-04-25T14:59:56.448Z</time></trkpt><trkpt lat="42.7018484" lon="12.8254554"><ele>282.0</ele><time>2026-04-25T14:59:57.448Z</time></trkpt><trkpt lat="42.7019981" lon="12.8253853"><ele>281.75</ele><time>2026-04-25T14:59:58.448Z</time></trkpt><trkpt lat="42.7021431" lon="12.8253208"><ele>281.5</ele><time>2026-04-25T14:59:59.448Z</time></trkpt><trkpt lat="42.7022868" lon="12.8252729"><ele>281.25</ele><time>2026-04-25T15:00:00.448Z</time></trkpt><trkpt lat="42.7024268" lon="12.825241"><ele>281.0</ele><time>2026-04-25T15:00:01.449Z</time></trkpt><trkpt lat="42.7025752" lon="12.8252486"><ele>281.0</ele><time>2026-04-25T15:00:02.448Z</time></trkpt><trkpt lat="42.7027258" lon="12.8252997"><ele>281.0</ele><time>2026-04-25T15:00:03.448Z</time></trkpt><trkpt lat="42.7028604" lon="12.8253925"><ele>281.0</ele><time>2026-04-25T15:00:04.448Z</time></trkpt><trkpt lat="42.7029723" lon="12.8254991"><ele>281.0</ele><time>2026-04-25T15:00:05.449Z</time></trkpt><trkpt lat="42.7030619" lon="12.8256371"><ele>281.25</ele><time>2026-04-25T15:00:06.448Z</time></trkpt><trkpt lat="42.7031449" lon="12.8257866"><ele>281.5</ele><time>2026-04-25T15:00:07.448Z</time></trkpt><trkpt lat="42.7032255" lon="12.8259524"><ele>281.75</ele><time>2026-04-25T15:00:08.448Z</time></trkpt><trkpt lat="42.7033226" lon="12.8261041"><ele>282.0</ele><time>2026-04-25T15:00:09.448Z</time></trkpt><trkpt lat="42.7034171" lon="12.8262156"><ele>282.0</ele><time>2026-04-25T15:00:10.448Z</time></trkpt><trkpt lat="42.7035198" lon="12.8263043"><ele>282.0</ele><time>2026-04-25T15:00:11.448Z</time></trkpt><trkpt lat="42.7036177" lon="12.8263612"><ele>282.0</ele><time>2026-04-25T15:00:12.448Z</time></trkpt><trkpt lat="42.7037132" lon="12.8264087"><ele>282.0</ele><time>2026-04-25T15:00:13.448Z</time></trkpt><trkpt lat="42.703887" lon="12.826351"><ele>282.25</ele><time>2026-04-25T15:00:14.448Z</time></trkpt><trkpt lat="42.7040259" lon="12.8263132"><ele>282.5</ele><time>2026-04-25T15:00:15.448Z</time></trkpt><trkpt lat="42.7041435" lon="12.8262948"><ele>282.75</ele><time>2026-04-25T15:00:16.448Z</time></trkpt><trkpt lat="42.7042627" lon="12.826297"><ele>283.0</ele><time>2026-04-25T15:00:17.449Z</time></trkpt><trkpt lat="42.7043813" lon="12.8263139"><ele>283.0</ele><time>2026-04-25T15:00:18.448Z</time></trkpt><trkpt lat="42.7044971" lon="12.8264122"><ele>283.0</ele><time>2026-04-25T15:00:19.448Z</time></trkpt><trkpt lat="42.7046059" lon="12.8265289"><ele>283.0</ele><time>2026-04-25T15:00:20.448Z</time></trkpt><trkpt lat="42.7047032" lon="12.8266687"><ele>283.0</ele><time>2026-04-25T15:00:21.448Z</time></trkpt><trkpt lat="42.704789" lon="12.8268159"><ele>283.0</ele><time>2026-04-25T15:00:22.448Z</time></trkpt><trkpt lat="42.7048741" lon="12.8269679"><ele>283.0</ele><time>2026-04-25T15:00:23.449Z</time></trkpt><trkpt lat="42.7049549" lon="12.8271044"><ele>283.0</ele><time>2026-04-25T15:00:24.448Z</time></trkpt><trkpt lat="42.7050318" lon="12.8272313"><ele>283.0</ele><time>2026-04-25T15:00:25.448Z</time></trkpt><trkpt lat="42.7051146" lon="12.8273325"><ele>283.0</ele><time>2026-04-25T15:00:26.448Z</time></trkpt><trkpt lat="42.7052132" lon="12.8274118"><ele>283.0</ele><time>2026-04-25T15:00:27.449Z</time></trkpt><trkpt lat="42.7053107" lon="12.8274528"><ele>283.0</ele><time>2026-04-25T15:00:28.449Z</time></trkpt><trkpt lat="42.7054336" lon="12.82746"><ele>283.0</ele><time>2026-04-25T15:00:29.448Z</time></trkpt><trkpt lat="42.7055513" lon="12.8274318"><ele>282.75</ele><time>2026-04-25T15:00:30.448Z</time></trkpt><trkpt lat="42.7056835" lon="12.8273776"><ele>282.5</ele><time>2026-04-25T15:00:31.448Z</time></trkpt><trkpt lat="42.7058147" lon="12.8273241"><ele>282.25</ele><time>2026-04-25T15:00:32.449Z</time></trkpt><trkpt lat="42.7059553" lon="12.8272808"><ele>282.0</ele><time>2026-04-25T15:00:33.449Z</time></trkpt><trkpt lat="42.7060911" lon="12.8272461"><ele>282.0</ele><time>2026-04-25T15:00:34.448Z</time></trkpt><trkpt lat="42.7062366" lon="12.8272296"><ele>282.0</ele><time>2026-04-25T15:00:35.448Z</time></trkpt><trkpt lat="42.7063791" lon="12.8272347"><ele>282.0</ele><time>2026-04-25T15:00:36.448Z</time></trkpt><trkpt lat="42.706523" lon="12.8272552"><ele>282.0</ele><time>2026-04-25T15:00:37.448Z</time></trkpt><trkpt lat="42.706668" lon="12.827286"><ele>282.0</ele><time>2026-04-25T15:00:38.449Z</time></trkpt><trkpt lat="42.7068171" lon="12.8273192"><ele>282.0</ele><time>2026-04-25T15:00:39.449Z</time></trkpt><trkpt lat="42.7069544" lon="12.827346"><ele>282.0</ele><time>2026-04-25T15:00:40.449Z</time></trkpt><trkpt lat="42.7070916" lon="12.8273776"><ele>282.0</ele><time>2026-04-25T15:00:41.448Z</time></trkpt><trkpt lat="42.7072142" lon="12.8273992"><ele>284.25</ele><time>2026-04-25T15:00:42.449Z</time></trkpt><trkpt lat="42.7073439" lon="12.8274149"><ele>286.5</ele><time>2026-04-25T15:00:43.448Z</time></trkpt><trkpt lat="42.707469" lon="12.8274391"><ele>288.75</ele><time>2026-04-25T15:00:44.449Z</time></trkpt><trkpt lat="42.7075888" lon="12.8274652"><ele>291.0</ele><time>2026-04-25T15:00:45.448Z</time></trkpt><trkpt lat="42.7077024" lon="12.8274849"><ele>289.6</ele><time>2026-04-25T15:00:46.448Z</time></trkpt><trkpt lat="42.7078109" lon="12.8275076"><ele>288.20000000000005</ele><time>2026-04-25T15:00:47.448Z</time></trkpt><trkpt lat="42.7079186" lon="12.827544"><ele>286.79999999999995</ele><time>2026-04-25T15:00:48.448Z</time></trkpt><trkpt lat="42.7080283" lon="12.8275934"><ele>285.4</ele><time>2026-04-25T15:00:49.449Z</time></trkpt><trkpt lat="42.7081286" lon="12.8276552"><ele>284.0</ele><time>2026-04-25T15:00:50.448Z</time></trkpt><trkpt lat="42.7082243" lon="12.8277392"><ele>284.0</ele><time>2026-04-25T15:00:51.448Z</time></trkpt><trkpt lat="42.7083186" lon="12.8278406"><ele>284.0</ele><time>2026-04-25T15:00:52.448Z</time></trkpt><trkpt lat="42.7084061" lon="12.8279522"><ele>284.0</ele><time>2026-04-25T15:00:53.448Z</time></trkpt><trkpt lat="42.7084938" lon="12.8280738"><ele>284.0</ele><time>2026-04-25T15:00:54.448Z</time></trkpt><trkpt lat="42.7085791" lon="12.8281929"><ele>284.5</ele><time>2026-04-25T15:00:55.448Z</time></trkpt><trkpt lat="42.7086637" lon="12.8283175"><ele>285.0</ele><time>2026-04-25T15:00:56.448Z</time></trkpt><trkpt lat="42.7087561" lon="12.8284425"><ele>285.5</ele><time>2026-04-25T15:00:57.448Z</time></trkpt><trkpt lat="42.7088457" lon="12.8285672"><ele>286.0</ele><time>2026-04-25T15:00:58.448Z</time></trkpt><trkpt lat="42.7089313" lon="12.8286966"><ele>286.0</ele><time>2026-04-25T15:00:59.449Z</time></trkpt><trkpt lat="42.7090072" lon="12.828827"><ele>286.0</ele><time>2026-04-25T15:01:00.448Z</time></trkpt><trkpt lat="42.7090898" lon="12.8289549"><ele>286.0</ele><time>2026-04-25T15:01:01.448Z</time></trkpt><trkpt lat="42.7091777" lon="12.8290657"><ele>286.0</ele><time>2026-04-25T15:01:02.448Z</time></trkpt><trkpt lat="42.7092747" lon="12.8291654"><ele>286.0</ele><time>2026-04-25T15:01:03.448Z</time></trkpt><trkpt lat="42.7093824" lon="12.8292467"><ele>286.0</ele><time>2026-04-25T15:01:04.448Z</time></trkpt><trkpt lat="42.7094973" lon="12.8293239"><ele>286.0</ele><time>2026-04-25T15:01:05.448Z</time></trkpt><trkpt lat="42.7096259" lon="12.8293864"><ele>286.0</ele><time>2026-04-25T15:01:06.448Z</time></trkpt><trkpt lat="42.7097565" lon="12.829439"><ele>284.25</ele><time>2026-04-25T15:01:07.448Z</time></trkpt><trkpt lat="42.7098816" lon="12.829476"><ele>282.5</ele><time>2026-04-25T15:01:08.448Z</time></trkpt><trkpt lat="42.7100065" lon="12.8295002"><ele>280.75</ele><time>2026-04-25T15:01:09.448Z</time></trkpt><trkpt lat="42.710114" lon="12.8295081"><ele>279.0</ele><time>2026-04-25T15:01:10.449Z</time></trkpt><trkpt lat="42.7102234" lon="12.8295026"><ele>278.8</ele><time>2026-04-25T15:01:11.448Z</time></trkpt><trkpt lat="42.7103131" lon="12.829488"><ele>278.59999999999997</ele><time>2026-04-25T15:01:12.448Z</time></trkpt><trkpt lat="42.7104152" lon="12.829485"><ele>278.4</ele><time>2026-04-25T15:01:13.448Z</time></trkpt><trkpt lat="42.7105159" lon="12.8294758"><ele>278.2</ele><time>2026-04-25T15:01:14.448Z</time></trkpt><trkpt lat="42.7106128" lon="12.8294676"><ele>278.0</ele><time>2026-04-25T15:01:15.448Z</time></trkpt><trkpt lat="42.7107143" lon="12.8294593"><ele>278.0</ele><time>2026-04-25T15:01:16.448Z</time></trkpt><trkpt lat="42.7108231" lon="12.8294527"><ele>278.0</ele><time>2026-04-25T15:01:17.448Z</time></trkpt><trkpt lat="42.7109323" lon="12.8294406"><ele>278.0</ele><time>2026-04-25T15:01:18.448Z</time></trkpt><trkpt lat="42.711042" lon="12.8294307"><ele>278.0</ele><time>2026-04-25T15:01:19.448Z</time></trkpt><trkpt lat="42.7111555" lon="12.8294231"><ele>278.0</ele><time>2026-04-25T15:01:20.448Z</time></trkpt><trkpt lat="42.7112634" lon="12.8294135"><ele>278.2</ele><time>2026-04-25T15:01:21.448Z</time></trkpt><trkpt lat="42.7113752" lon="12.8294098"><ele>278.4</ele><time>2026-04-25T15:01:22.448Z</time></trkpt><trkpt lat="42.7114818" lon="12.8294025"><ele>278.59999999999997</ele><time>2026-04-25T15:01:23.448Z</time></trkpt><trkpt lat="42.7115882" lon="12.8293966"><ele>278.8</ele><time>2026-04-25T15:01:24.448Z</time></trkpt><trkpt lat="42.7116961" lon="12.8293927"><ele>279.0</ele><time>2026-04-25T15:01:25.448Z</time></trkpt><trkpt lat="42.7118081" lon="12.8294026"><ele>279.4</ele><time>2026-04-25T15:01:26.448Z</time></trkpt><trkpt lat="42.7119128" lon="12.82942"><ele>279.79999999999995</ele><time>2026-04-25T15:01:27.448Z</time></trkpt><trkpt lat="42.712021" lon="12.8294302"><ele>280.20000000000005</ele><time>2026-04-25T15:01:28.448Z</time></trkpt><trkpt lat="42.7121231" lon="12.8294453"><ele>280.6</ele><time>2026-04-25T15:01:29.448Z</time></trkpt><trkpt lat="42.7122306" lon="12.82946"><ele>281.0</ele><time>2026-04-25T15:01:30.448Z</time></trkpt><trkpt lat="42.7123315" lon="12.829481"><ele>281.0</ele><time>2026-04-25T15:01:31.448Z</time></trkpt><trkpt lat="42.7124398" lon="12.8295128"><ele>281.0</ele><time>2026-04-25T15:01:32.448Z</time></trkpt><trkpt lat="42.7125362" lon="12.8295444"><ele>281.0</ele><time>2026-04-25T15:01:33.448Z</time></trkpt><trkpt lat="42.712638" lon="12.8295761"><ele>281.0</ele><time>2026-04-25T15:01:34.448Z</time></trkpt><trkpt lat="42.7127432" lon="12.8296031"><ele>281.0</ele><time>2026-04-25T15:01:35.448Z</time></trkpt><trkpt lat="42.7128536" lon="12.8296298"><ele>281.2</ele><time>2026-04-25T15:01:36.448Z</time></trkpt><trkpt lat="42.7129647" lon="12.8296629"><ele>281.40000000000003</ele><time>2026-04-25T15:01:37.448Z</time></trkpt><trkpt lat="42.7130587" lon="12.8296927"><ele>281.6</ele><time>2026-04-25T15:01:38.448Z</time></trkpt><trkpt lat="42.7131621" lon="12.8297212"><ele>281.8</ele><time>2026-04-25T15:01:39.448Z</time></trkpt><trkpt lat="42.7132572" lon="12.8297601"><ele>282.0</ele><time>2026-04-25T15:01:40.448Z</time></trkpt><trkpt lat="42.7133343" lon="12.8297955"><ele>282.0</ele><time>2026-04-25T15:01:41.448Z</time></trkpt><trkpt lat="42.7134154" lon="12.8298229"><ele>282.0</ele><time>2026-04-25T15:01:42.448Z</time></trkpt><trkpt lat="42.7134937" lon="12.829857"><ele>282.0</ele><time>2026-04-25T15:01:43.448Z</time></trkpt><trkpt lat="42.7135697" lon="12.8298851"><ele>282.0</ele><time>2026-04-25T15:01:44.448Z</time></trkpt><trkpt lat="42.7136589" lon="12.8298979"><ele>282.0</ele><time>2026-04-25T15:01:45.448Z</time></trkpt><trkpt lat="42.7137472" lon="12.8299068"><ele>282.0</ele><time>2026-04-25T15:01:46.448Z</time></trkpt><trkpt lat="42.7138417" lon="12.8298983"><ele>282.0</ele><time>2026-04-25T15:01:47.448Z</time></trkpt><trkpt lat="42.7139456" lon="12.8298656"><ele>282.0</ele><time>2026-04-25T15:01:48.449Z</time></trkpt><trkpt lat="42.7140472" lon="12.8298401"><ele>282.0</ele><time>2026-04-25T15:01:49.448Z</time></trkpt><trkpt lat="42.7141423" lon="12.8298041"><ele>282.0</ele><time>2026-04-25T15:01:50.448Z</time></trkpt><trkpt lat="42.7142384" lon="12.8297726"><ele>282.0</ele><time>2026-04-25T15:01:51.448Z</time></trkpt><trkpt lat="42.7143346" lon="12.8297355"><ele>281.0</ele><time>2026-04-25T15:01:52.448Z</time></trkpt><trkpt lat="42.7144335" lon="12.8296982"><ele>280.0</ele><time>2026-04-25T15:01:53.448Z</time></trkpt><trkpt lat="42.7145407" lon="12.8296641"><ele>279.0</ele><time>2026-04-25T15:01:54.448Z</time></trkpt><trkpt lat="42.7146495" lon="12.8296247"><ele>278.0</ele><time>2026-04-25T15:01:55.448Z</time></trkpt><trkpt lat="42.7147674" lon="12.8295824"><ele>277.0</ele><time>2026-04-25T15:01:56.448Z</time></trkpt><trkpt lat="42.7148913" lon="12.8295305"><ele>277.0</ele><time>2026-04-25T15:01:57.448Z</time></trkpt><trkpt lat="42.7150128" lon="12.8294821"><ele>277.0</ele><time>2026-04-25T15:01:58.448Z</time></trkpt><trkpt lat="42.7151433" lon="12.8294323"><ele>277.0</ele><time>2026-04-25T15:01:59.448Z</time></trkpt><trkpt lat="42.7152594" lon="12.8293844"><ele>277.0</ele><time>2026-04-25T15:02:00.448Z</time></trkpt><trkpt lat="42.7153704" lon="12.8293398"><ele>280.75</ele><time>2026-04-25T15:02:01.448Z</time></trkpt><trkpt lat="42.715476" lon="12.8292934"><ele>284.5</ele><time>2026-04-25T15:02:02.448Z</time></trkpt><trkpt lat="42.7155919" lon="12.8292515"><ele>288.25</ele><time>2026-04-25T15:02:03.448Z</time></trkpt><trkpt lat="42.7157212" lon="12.829207"><ele>292.0</ele><time>2026-04-25T15:02:04.448Z</time></trkpt><trkpt lat="42.7158485" lon="12.8291648"><ele>292.0</ele><time>2026-04-25T15:02:05.448Z</time></trkpt><trkpt lat="42.7159723" lon="12.8291218"><ele>292.0</ele><time>2026-04-25T15:02:06.448Z</time></trkpt><trkpt lat="42.7160957" lon="12.8290849"><ele>292.0</ele><time>2026-04-25T15:02:07.448Z</time></trkpt><trkpt lat="42.7162216" lon="12.8290369"><ele>292.0</ele><time>2026-04-25T15:02:08.448Z</time></trkpt><trkpt lat="42.7163571" lon="12.8289853"><ele>289.25</ele><time>2026-04-25T15:02:09.449Z</time></trkpt><trkpt lat="42.7164922" lon="12.82893"><ele>286.5</ele><time>2026-04-25T15:02:10.449Z</time></trkpt><trkpt lat="42.716634" lon="12.8288755"><ele>283.75</ele><time>2026-04-25T15:02:11.448Z</time></trkpt><trkpt lat="42.7167737" lon="12.8288315"><ele>281.0</ele><time>2026-04-25T15:02:12.448Z</time></trkpt><trkpt lat="42.7169104" lon="12.8287787"><ele>280.6666666666667</ele><time>2026-04-25T15:02:13.448Z</time></trkpt><trkpt lat="42.7170509" lon="12.828726"><ele>280.3333333333333</ele><time>2026-04-25T15:02:14.448Z</time></trkpt><trkpt lat="42.7171977" lon="12.8286716"><ele>280.0</ele><time>2026-04-25T15:02:15.448Z</time></trkpt><trkpt lat="42.7173536" lon="12.828612"><ele>280.0</ele><time>2026-04-25T15:02:16.448Z</time></trkpt><trkpt lat="42.7175022" lon="12.8285461"><ele>280.0</ele><time>2026-04-25T15:02:17.448Z</time></trkpt><trkpt lat="42.7176421" lon="12.828452"><ele>280.0</ele><time>2026-04-25T15:02:18.448Z</time></trkpt><trkpt lat="42.7177599" lon="12.8283439"><ele>282.0</ele><time>2026-04-25T15:02:19.448Z</time></trkpt><trkpt lat="42.7178854" lon="12.8282166"><ele>284.0</ele><time>2026-04-25T15:02:20.448Z</time></trkpt><trkpt lat="42.7180124" lon="12.8280771"><ele>286.0</ele><time>2026-04-25T15:02:21.448Z</time></trkpt><trkpt lat="42.7181397" lon="12.8279352"><ele>286.0</ele><time>2026-04-25T15:02:22.448Z</time></trkpt><trkpt lat="42.7182638" lon="12.8277866"><ele>286.0</ele><time>2026-04-25T15:02:23.448Z</time></trkpt><trkpt lat="42.7183896" lon="12.8276366"><ele>286.0</ele><time>2026-04-25T15:02:24.449Z</time></trkpt><trkpt lat="42.7185103" lon="12.8275041"><ele>286.3333333333333</ele><time>2026-04-25T15:02:25.448Z</time></trkpt><trkpt lat="42.7186355" lon="12.827388"><ele>286.6666666666667</ele><time>2026-04-25T15:02:26.449Z</time></trkpt><trkpt lat="42.7187671" lon="12.8272767"><ele>287.0</ele><time>2026-04-25T15:02:27.448Z</time></trkpt><trkpt lat="42.7189089" lon="12.827192"><ele>287.0</ele><time>2026-04-25T15:02:28.448Z</time></trkpt><trkpt lat="42.7190541" lon="12.8271153"><ele>287.0</ele><time>2026-04-25T15:02:29.448Z</time></trkpt><trkpt lat="42.7192113" lon="12.8270394"><ele>287.0</ele><time>2026-04-25T15:02:30.448Z</time></trkpt><trkpt lat="42.7193677" lon="12.8269826"><ele>286.6666666666667</ele><time>2026-04-25T15:02:31.448Z</time></trkpt><trkpt lat="42.719533" lon="12.8269386"><ele>286.3333333333333</ele><time>2026-04-25T15:02:32.448Z</time></trkpt><trkpt lat="42.719698" lon="12.826903"><ele>286.0</ele><time>2026-04-25T15:02:33.448Z</time></trkpt><trkpt lat="42.7198706" lon="12.8268869"><ele>286.0</ele><time>2026-04-25T15:02:34.448Z</time></trkpt><trkpt lat="42.7200396" lon="12.8268797"><ele>286.0</ele><time>2026-04-25T15:02:35.449Z</time></trkpt><trkpt lat="42.7202217" lon="12.8268979"><ele>286.0</ele><time>2026-04-25T15:02:36.448Z</time></trkpt><trkpt lat="42.7203849" lon="12.8269119"><ele>286.3333333333333</ele><time>2026-04-25T15:02:37.449Z</time></trkpt><trkpt lat="42.7205623" lon="12.8269204"><ele>286.6666666666667</ele><time>2026-04-25T15:02:38.448Z</time></trkpt><trkpt lat="42.7207376" lon="12.8269404"><ele>287.0</ele><time>2026-04-25T15:02:39.448Z</time></trkpt><trkpt lat="42.7209218" lon="12.8269566"><ele>286.0</ele><time>2026-04-25T15:02:40.448Z</time></trkpt><trkpt lat="42.7211048" lon="12.8269755"><ele>285.0</ele><time>2026-04-25T15:02:41.448Z</time></trkpt><trkpt lat="42.7212926" lon="12.8269992"><ele>284.0</ele><time>2026-04-25T15:02:42.448Z</time></trkpt><trkpt lat="42.7214875" lon="12.8270274"><ele>284.0</ele><time>2026-04-25T15:02:43.448Z</time></trkpt><trkpt lat="42.7216864" lon="12.8270658"><ele>284.0</ele><time>2026-04-25T15:02:44.448Z</time></trkpt><trkpt lat="42.7218872" lon="12.8270969"><ele>284.0</ele><time>2026-04-25T15:02:45.449Z</time></trkpt><trkpt lat="42.7220756" lon="12.8271257"><ele>284.33333333333337</ele><time>2026-04-25T15:02:46.448Z</time></trkpt><trkpt lat="42.7222695" lon="12.8271519"><ele>284.6666666666667</ele><time>2026-04-25T15:02:47.448Z</time></trkpt><trkpt lat="42.7224569" lon="12.8271775"><ele>285.0</ele><time>2026-04-25T15:02:48.448Z</time></trkpt><trkpt lat="42.7226362" lon="12.8272037"><ele>288.0</ele><time>2026-04-25T15:02:49.448Z</time></trkpt><trkpt lat="42.7228143" lon="12.8272472"><ele>291.0</ele><time>2026-04-25T15:02:50.448Z</time></trkpt><trkpt lat="42.7229878" lon="12.8273131"><ele>294.0</ele><time>2026-04-25T15:02:51.448Z</time></trkpt><trkpt lat="42.7231601" lon="12.8274016"><ele>294.0</ele><time>2026-04-25T15:02:52.448Z</time></trkpt><trkpt lat="42.7233375" lon="12.8274875"><ele>294.0</ele><time>2026-04-25T15:02:53.448Z</time></trkpt><trkpt lat="42.7235041" lon="12.8275826"><ele>294.0</ele><time>2026-04-25T15:02:54.448Z</time></trkpt><trkpt lat="42.7236817" lon="12.8276753"><ele>291.6666666666667</ele><time>2026-04-25T15:02:55.448Z</time></trkpt><trkpt lat="42.7238489" lon="12.8277671"><ele>289.33333333333337</ele><time>2026-04-25T15:02:56.449Z</time></trkpt><trkpt lat="42.7240166" lon="12.8278593"><ele>287.0</ele><time>2026-04-25T15:02:57.448Z</time></trkpt><trkpt lat="42.7241939" lon="12.8279507"><ele>287.0</ele><time>2026-04-25T15:02:58.448Z</time></trkpt><trkpt lat="42.7243641" lon="12.8280434"><ele>287.0</ele><time>2026-04-25T15:02:59.448Z</time></trkpt><trkpt lat="42.7245354" lon="12.8281377"><ele>287.0</ele><time>2026-04-25T15:03:00.448Z</time></trkpt><trkpt lat="42.7247049" lon="12.828229"><ele>288.33333333333337</ele><time>2026-04-25T15:03:01.448Z</time></trkpt><trkpt lat="42.7248721" lon="12.8283182"><ele>289.6666666666667</ele><time>2026-04-25T15:03:02.448Z</time></trkpt><trkpt lat="42.7250361" lon="12.8283877"><ele>291.0</ele><time>2026-04-25T15:03:03.448Z</time></trkpt><trkpt lat="42.7252129" lon="12.8284398"><ele>288.6666666666667</ele><time>2026-04-25T15:03:04.448Z</time></trkpt><trkpt lat="42.7253795" lon="12.8284805"><ele>286.33333333333337</ele><time>2026-04-25T15:03:05.449Z</time></trkpt><trkpt lat="42.7255571" lon="12.8285036"><ele>284.0</ele><time>2026-04-25T15:03:06.448Z</time></trkpt><trkpt lat="42.7257385" lon="12.8285151"><ele>284.0</ele><time>2026-04-25T15:03:07.448Z</time></trkpt><trkpt lat="42.7259171" lon="12.8285206"><ele>284.0</ele><time>2026-04-25T15:03:08.448Z</time></trkpt><trkpt lat="42.7261042" lon="12.8285416"><ele>284.0</ele><time>2026-04-25T15:03:09.448Z</time></trkpt><trkpt lat="42.7262946" lon="12.8285574"><ele>283.33333333333337</ele><time>2026-04-25T15:03:10.448Z</time></trkpt><trkpt lat="42.7264723" lon="12.8285811"><ele>282.6666666666667</ele><time>2026-04-25T15:03:11.448Z</time></trkpt><trkpt lat="42.7266421" lon="12.8286305"><ele>282.0</ele><time>2026-04-25T15:03:12.448Z</time></trkpt><trkpt lat="42.726816" lon="12.828696"><ele>283.3333333333333</ele><time>2026-04-25T15:03:13.448Z</time></trkpt><trkpt lat="42.7269821" lon="12.8287939"><ele>284.66666666666663</ele><time>2026-04-25T15:03:14.448Z</time></trkpt><trkpt lat="42.727145" lon="12.8289036"><ele>286.0</ele><time>2026-04-25T15:03:15.448Z</time></trkpt><trkpt lat="42.7273101" lon="12.8290187"><ele>286.0</ele><time>2026-04-25T15:03:16.449Z</time></trkpt><trkpt lat="42.7274743" lon="12.8291344"><ele>286.0</ele><time>2026-04-25T15:03:17.448Z</time></trkpt><trkpt lat="42.7276414" lon="12.829258"><ele>286.0</ele><time>2026-04-25T15:03:18.448Z</time></trkpt><trkpt lat="42.7278052" lon="12.8293724"><ele>285.66666666666663</ele><time>2026-04-25T15:03:19.448Z</time></trkpt><trkpt lat="42.7279608" lon="12.8294811"><ele>285.3333333333333</ele><time>2026-04-25T15:03:20.449Z</time></trkpt><trkpt lat="42.7281121" lon="12.829571"><ele>285.0</ele><time>2026-04-25T15:03:21.448Z</time></trkpt><trkpt lat="42.7282705" lon="12.8296354"><ele>285.0</ele><time>2026-04-25T15:03:22.448Z</time></trkpt><trkpt lat="42.7284234" lon="12.8296705"><ele>285.0</ele><time>2026-04-25T15:03:23.448Z</time></trkpt><trkpt lat="42.7285849" lon="12.8296734"><ele>285.0</ele><time>2026-04-25T15:03:24.448Z</time></trkpt><trkpt lat="42.7287559" lon="12.829646"><ele>284.3333333333333</ele><time>2026-04-25T15:03:25.448Z</time></trkpt><trkpt lat="42.728928" lon="12.8295992"><ele>283.66666666666663</ele><time>2026-04-25T15:03:26.448Z</time></trkpt><trkpt lat="42.7291081" lon="12.8295502"><ele>283.0</ele><time>2026-04-25T15:03:27.448Z</time></trkpt><trkpt lat="42.7292754" lon="12.8295014"><ele>283.3333333333333</ele><time>2026-04-25T15:03:28.449Z</time></trkpt><trkpt lat="42.7294445" lon="12.8294477"><ele>283.6666666666667</ele><time>2026-04-25T15:03:29.448Z</time></trkpt><trkpt lat="42.7296184" lon="12.8293936"><ele>284.0</ele><time>2026-04-25T15:03:30.448Z</time></trkpt><trkpt lat="42.7297877" lon="12.8293404"><ele>285.33333333333337</ele><time>2026-04-25T15:03:31.448Z</time></trkpt><trkpt lat="42.7299661" lon="12.8292858"><ele>286.6666666666667</ele><time>2026-04-25T15:03:32.448Z</time></trkpt><trkpt lat="42.7301395" lon="12.8292323"><ele>288.0</ele><time>2026-04-25T15:03:33.448Z</time></trkpt><trkpt lat="42.7303182" lon="12.8291811"><ele>288.3333333333333</ele><time>2026-04-25T15:03:34.448Z</time></trkpt><trkpt lat="42.7304848" lon="12.8291253"><ele>288.66666666666663</ele><time>2026-04-25T15:03:35.448Z</time></trkpt><trkpt lat="42.7306646" lon="12.8290667"><ele>289.0</ele><time>2026-04-25T15:03:36.449Z</time></trkpt><trkpt lat="42.7308398" lon="12.8290067"><ele>289.0</ele><time>2026-04-25T15:03:37.448Z</time></trkpt><trkpt lat="42.7310164" lon="12.8289505"><ele>289.0</ele><time>2026-04-25T15:03:38.448Z</time></trkpt><trkpt lat="42.7311869" lon="12.8288891"><ele>289.0</ele><time>2026-04-25T15:03:39.449Z</time></trkpt><trkpt lat="42.7313593" lon="12.8288345"><ele>287.66666666666663</ele><time>2026-04-25T15:03:40.448Z</time></trkpt><trkpt lat="42.731527" lon="12.8287862"><ele>286.3333333333333</ele><time>2026-04-25T15:03:41.448Z</time></trkpt><trkpt lat="42.7316958" lon="12.8287597"><ele>285.0</ele><time>2026-04-25T15:03:42.448Z</time></trkpt><trkpt lat="42.731867" lon="12.8287362"><ele>285.0</ele><time>2026-04-25T15:03:43.448Z</time></trkpt><trkpt lat="42.7320382" lon="12.8287273"><ele>285.0</ele><time>2026-04-25T15:03:44.448Z</time></trkpt><trkpt lat="42.7322052" lon="12.8287308"><ele>285.0</ele><time>2026-04-25T15:03:45.448Z</time></trkpt><trkpt lat="42.732363" lon="12.8287379"><ele>285.0</ele><time>2026-04-25T15:03:46.448Z</time></trkpt><trkpt lat="42.7325248" lon="12.8287417"><ele>285.0</ele><time>2026-04-25T15:03:47.448Z</time></trkpt><trkpt lat="42.7326819" lon="12.8287335"><ele>285.0</ele><time>2026-04-25T15:03:48.448Z</time></trkpt><trkpt lat="42.7328333" lon="12.8287306"><ele>285.75</ele><time>2026-04-25T15:03:49.448Z</time></trkpt><trkpt lat="42.7329743" lon="12.828732"><ele>286.5</ele><time>2026-04-25T15:03:50.448Z</time></trkpt><trkpt lat="42.7331086" lon="12.8287194"><ele>287.25</ele><time>2026-04-25T15:03:51.448Z</time></trkpt><trkpt lat="42.7332388" lon="12.8287122"><ele>288.0</ele><time>2026-04-25T15:03:52.449Z</time></trkpt><trkpt lat="42.7333691" lon="12.8287121"><ele>288.0</ele><time>2026-04-25T15:03:53.449Z</time></trkpt><trkpt lat="42.7334918" lon="12.8287096"><ele>288.0</ele><time>2026-04-25T15:03:54.448Z</time></trkpt><trkpt lat="42.7336188" lon="12.8287111"><ele>288.0</ele><time>2026-04-25T15:03:55.449Z</time></trkpt><trkpt lat="42.7337498" lon="12.828713"><ele>288.0</ele><time>2026-04-25T15:03:56.448Z</time></trkpt><trkpt lat="42.7338734" lon="12.8287158"><ele>288.25</ele><time>2026-04-25T15:03:57.448Z</time></trkpt><trkpt lat="42.7340082" lon="12.8287367"><ele>288.5</ele><time>2026-04-25T15:03:58.448Z</time></trkpt><trkpt lat="42.7341375" lon="12.8287533"><ele>288.75</ele><time>2026-04-25T15:03:59.448Z</time></trkpt><trkpt lat="42.7342624" lon="12.8287705"><ele>289.0</ele><time>2026-04-25T15:04:00.449Z</time></trkpt><trkpt lat="42.7343884" lon="12.8287981"><ele>289.0</ele><time>2026-04-25T15:04:01.448Z</time></trkpt><trkpt lat="42.7345085" lon="12.8288293"><ele>289.0</ele><time>2026-04-25T15:04:02.449Z</time></trkpt><trkpt lat="42.7346312" lon="12.8288705"><ele>289.0</ele><time>2026-04-25T15:04:03.449Z</time></trkpt><trkpt lat="42.734759" lon="12.8289177"><ele>289.0</ele><time>2026-04-25T15:04:04.449Z</time></trkpt><trkpt lat="42.7348805" lon="12.8289857"><ele>289.0</ele><time>2026-04-25T15:04:05.448Z</time></trkpt><trkpt lat="42.7349989" lon="12.8290699"><ele>289.0</ele><time>2026-04-25T15:04:06.448Z</time></trkpt><trkpt lat="42.7351053" lon="12.8291742"><ele>289.0</ele><time>2026-04-25T15:04:07.448Z</time></trkpt><trkpt lat="42.7352043" lon="12.8292975"><ele>289.0</ele><time>2026-04-25T15:04:08.448Z</time></trkpt><trkpt lat="42.7352998" lon="12.8294294"><ele>289.75</ele><time>2026-04-25T15:04:09.448Z</time></trkpt><trkpt lat="42.7353843" lon="12.8295669"><ele>290.5</ele><time>2026-04-25T15:04:10.449Z</time></trkpt><trkpt lat="42.7354603" lon="12.8297071"><ele>291.25</ele><time>2026-04-25T15:04:11.448Z</time></trkpt><trkpt lat="42.7355408" lon="12.829846"><ele>292.0</ele><time>2026-04-25T15:04:12.448Z</time></trkpt><trkpt lat="42.7356053" lon="12.8299851"><ele>292.0</ele><time>2026-04-25T15:04:13.448Z</time></trkpt><trkpt lat="42.7356751" lon="12.8301268"><ele>292.0</ele><time>2026-04-25T15:04:14.448Z</time></trkpt><trkpt lat="42.7357412" lon="12.8302681"><ele>292.0</ele><time>2026-04-25T15:04:15.448Z</time></trkpt><trkpt lat="42.7357964" lon="12.8304106"><ele>292.0</ele><time>2026-04-25T15:04:16.448Z</time></trkpt><trkpt lat="42.7358443" lon="12.8305568"><ele>291.75</ele><time>2026-04-25T15:04:17.448Z</time></trkpt><trkpt lat="42.7358966" lon="12.8307157"><ele>291.5</ele><time>2026-04-25T15:04:18.449Z</time></trkpt><trkpt lat="42.7359302" lon="12.8308751"><ele>291.25</ele><time>2026-04-25T15:04:19.448Z</time></trkpt><trkpt lat="42.7359582" lon="12.8310384"><ele>291.0</ele><time>2026-04-25T15:04:20.448Z</time></trkpt><trkpt lat="42.7359844" lon="12.8312127"><ele>290.75</ele><time>2026-04-25T15:04:21.449Z</time></trkpt><trkpt lat="42.7360073" lon="12.831398"><ele>290.5</ele><time>2026-04-25T15:04:22.449Z</time></trkpt><trkpt lat="42.7360293" lon="12.8315918"><ele>290.25</ele><time>2026-04-25T15:04:23.448Z</time></trkpt><trkpt lat="42.736051" lon="12.8317841"><ele>290.0</ele><time>2026-04-25T15:04:24.449Z</time></trkpt><trkpt lat="42.7360654" lon="12.8319863"><ele>290.5</ele><time>2026-04-25T15:04:25.448Z</time></trkpt><trkpt lat="42.7360767" lon="12.8321842"><ele>291.0</ele><time>2026-04-25T15:04:26.448Z</time></trkpt><trkpt lat="42.7360732" lon="12.8323959"><ele>291.5</ele><time>2026-04-25T15:04:27.448Z</time></trkpt><trkpt lat="42.7360748" lon="12.8325956"><ele>292.0</ele><time>2026-04-25T15:04:28.448Z</time></trkpt><trkpt lat="42.7360684" lon="12.8328008"><ele>292.0</ele><time>2026-04-25T15:04:29.448Z</time></trkpt><trkpt lat="42.7360668" lon="12.8330056"><ele>292.0</ele><time>2026-04-25T15:04:30.448Z</time></trkpt><trkpt lat="42.7360526" lon="12.833205"><ele>292.0</ele><time>2026-04-25T15:04:31.448Z</time></trkpt><trkpt lat="42.7360244" lon="12.8333885"><ele>292.0</ele><time>2026-04-25T15:04:32.448Z</time></trkpt><trkpt lat="42.7360025" lon="12.8335623"><ele>292.0</ele><time>2026-04-25T15:04:33.449Z</time></trkpt><trkpt lat="42.735986" lon="12.8337323"><ele>292.0</ele><time>2026-04-25T15:04:34.448Z</time></trkpt><trkpt lat="42.7359659" lon="12.8338932"><ele>292.0</ele><time>2026-04-25T15:04:35.448Z</time></trkpt><trkpt lat="42.7359463" lon="12.8340548"><ele>292.0</ele><time>2026-04-25T15:04:36.448Z</time></trkpt><trkpt lat="42.7359273" lon="12.8342167"><ele>292.5</ele><time>2026-04-25T15:04:37.448Z</time></trkpt><trkpt lat="42.7359019" lon="12.8343823"><ele>293.0</ele><time>2026-04-25T15:04:38.448Z</time></trkpt><trkpt lat="42.7358904" lon="12.834546"><ele>293.5</ele><time>2026-04-25T15:04:39.448Z</time></trkpt><trkpt lat="42.7358811" lon="12.8347165"><ele>294.0</ele><time>2026-04-25T15:04:40.448Z</time></trkpt><trkpt lat="42.7358707" lon="12.8348882"><ele>294.0</ele><time>2026-04-25T15:04:41.448Z</time></trkpt><trkpt lat="42.7358749" lon="12.8350667"><ele>294.0</ele><time>2026-04-25T15:04:42.448Z</time></trkpt><trkpt lat="42.7358887" lon="12.8352401"><ele>294.0</ele><time>2026-04-25T15:04:43.448Z</time></trkpt><trkpt lat="42.7359309" lon="12.8354004"><ele>294.0</ele><time>2026-04-25T15:04:44.448Z</time></trkpt><trkpt lat="42.736002" lon="12.8355547"><ele>296.5</ele><time>2026-04-25T15:04:45.448Z</time></trkpt><trkpt lat="42.7361002" lon="12.8356814"><ele>299.0</ele><time>2026-04-25T15:04:46.448Z</time></trkpt><trkpt lat="42.7362023" lon="12.8357805"><ele>301.5</ele><time>2026-04-25T15:04:47.448Z</time></trkpt><trkpt lat="42.7363229" lon="12.8358578"><ele>304.0</ele><time>2026-04-25T15:04:48.448Z</time></trkpt><trkpt lat="42.7364499" lon="12.8359102"><ele>304.0</ele><time>2026-04-25T15:04:49.448Z</time></trkpt><trkpt lat="42.7365874" lon="12.8359565"><ele>304.0</ele><time>2026-04-25T15:04:50.448Z</time></trkpt><trkpt lat="42.7367203" lon="12.8360079"><ele>304.0</ele><time>2026-04-25T15:04:51.448Z</time></trkpt><trkpt lat="42.7368552" lon="12.8360564"><ele>304.0</ele><time>2026-04-25T15:04:52.448Z</time></trkpt><trkpt lat="42.7369894" lon="12.8361009"><ele>301.5</ele><time>2026-04-25T15:04:53.448Z</time></trkpt><trkpt lat="42.7371224" lon="12.8361402"><ele>299.0</ele><time>2026-04-25T15:04:54.448Z</time></trkpt><trkpt lat="42.737254" lon="12.8361862"><ele>296.5</ele><time>2026-04-25T15:04:55.448Z</time></trkpt><trkpt lat="42.7373844" lon="12.8362408"><ele>294.0</ele><time>2026-04-25T15:04:56.448Z</time></trkpt><trkpt lat="42.7375227" lon="12.8362931"><ele>294.0</ele><time>2026-04-25T15:04:57.448Z</time></trkpt><trkpt lat="42.7376559" lon="12.8363452"><ele>294.0</ele><time>2026-04-25T15:04:58.448Z</time></trkpt><trkpt lat="42.7377935" lon="12.8363839"><ele>294.0</ele><time>2026-04-25T15:04:59.448Z</time></trkpt><trkpt lat="42.7379302" lon="12.836436"><ele>294.0</ele><time>2026-04-25T15:05:00.448Z</time></trkpt><trkpt lat="42.7380573" lon="12.8364782"><ele>295.0</ele><time>2026-04-25T15:05:01.448Z</time></trkpt><trkpt lat="42.7381822" lon="12.8365411"><ele>296.0</ele><time>2026-04-25T15:05:02.448Z</time></trkpt><trkpt lat="42.7383128" lon="12.836591"><ele>297.0</ele><time>2026-04-25T15:05:03.448Z</time></trkpt><trkpt lat="42.7384447" lon="12.8366441"><ele>298.0</ele><time>2026-04-25T15:05:04.449Z</time></trkpt><trkpt lat="42.7385804" lon="12.836698"><ele>299.25</ele><time>2026-04-25T15:05:05.448Z</time></trkpt><trkpt lat="42.7387146" lon="12.8367464"><ele>300.5</ele><time>2026-04-25T15:05:06.448Z</time></trkpt><trkpt lat="42.7388532" lon="12.8367965"><ele>301.75</ele><time>2026-04-25T15:05:07.449Z</time></trkpt><trkpt lat="42.7389973" lon="12.8368435"><ele>303.0</ele><time>2026-04-25T15:05:08.448Z</time></trkpt><trkpt lat="42.7391307" lon="12.8369038"><ele>300.75</ele><time>2026-04-25T15:05:09.448Z</time></trkpt><trkpt lat="42.7392692" lon="12.8369587"><ele>298.5</ele><time>2026-04-25T15:05:10.448Z</time></trkpt><trkpt lat="42.7394023" lon="12.837013"><ele>296.25</ele><time>2026-04-25T15:05:11.448Z</time></trkpt><trkpt lat="42.7395344" lon="12.8370638"><ele>294.0</ele><time>2026-04-25T15:05:12.448Z</time></trkpt><trkpt lat="42.7396614" lon="12.8371106"><ele>294.0</ele><time>2026-04-25T15:05:13.448Z</time></trkpt><trkpt lat="42.7397953" lon="12.8371584"><ele>294.0</ele><time>2026-04-25T15:05:14.449Z</time></trkpt><trkpt lat="42.7399277" lon="12.8372033"><ele>294.0</ele><time>2026-04-25T15:05:15.449Z</time></trkpt><trkpt lat="42.7400523" lon="12.8372609"><ele>294.0</ele><time>2026-04-25T15:05:16.448Z</time></trkpt><trkpt lat="42.7401879" lon="12.8373135"><ele>297.0</ele><time>2026-04-25T15:05:17.448Z</time></trkpt><trkpt lat="42.740311" lon="12.837372"><ele>300.0</ele><time>2026-04-25T15:05:18.448Z</time></trkpt><trkpt lat="42.7404477" lon="12.8374384"><ele>303.0</ele><time>2026-04-25T15:05:19.448Z</time></trkpt><trkpt lat="42.7405789" lon="12.8375165"><ele>306.0</ele><time>2026-04-25T15:05:20.448Z</time></trkpt><trkpt lat="42.7407098" lon="12.8376041"><ele>304.25</ele><time>2026-04-25T15:05:21.449Z</time></trkpt><trkpt lat="42.7408437" lon="12.8376874"><ele>302.5</ele><time>2026-04-25T15:05:22.448Z</time></trkpt><trkpt lat="42.7409693" lon="12.8377674"><ele>300.75</ele><time>2026-04-25T15:05:23.448Z</time></trkpt><trkpt lat="42.7410958" lon="12.837851"><ele>299.0</ele><time>2026-04-25T15:05:24.448Z</time></trkpt><trkpt lat="42.7412099" lon="12.837942"><ele>299.0</ele><time>2026-04-25T15:05:25.448Z</time></trkpt><trkpt lat="42.741313" lon="12.8380299"><ele>299.0</ele><time>2026-04-25T15:05:26.448Z</time></trkpt><trkpt lat="42.7414049" lon="12.8381139"><ele>299.0</ele><time>2026-04-25T15:05:27.448Z</time></trkpt><trkpt lat="42.7414881" lon="12.8381898"><ele>299.0</ele><time>2026-04-25T15:05:28.448Z</time></trkpt><trkpt lat="42.741567" lon="12.8382624"><ele>299.0</ele><time>2026-04-25T15:05:29.448Z</time></trkpt><trkpt lat="42.7416422" lon="12.8383309"><ele>299.0</ele><time>2026-04-25T15:05:30.448Z</time></trkpt><trkpt lat="42.7417201" lon="12.8384081"><ele>299.0</ele><time>2026-04-25T15:05:31.448Z</time></trkpt><trkpt lat="42.7417973" lon="12.8384869"><ele>299.0</ele><time>2026-04-25T15:05:32.449Z</time></trkpt><trkpt lat="42.7418765" lon="12.8385703"><ele>299.0</ele><time>2026-04-25T15:05:33.448Z</time></trkpt><trkpt lat="42.7419518" lon="12.838668"><ele>299.0</ele><time>2026-04-25T15:05:34.448Z</time></trkpt><trkpt lat="42.7420319" lon="12.838767"><ele>299.8</ele><time>2026-04-25T15:05:35.448Z</time></trkpt><trkpt lat="42.7421116" lon="12.8388676"><ele>300.59999999999997</ele><time>2026-04-25T15:05:36.448Z</time></trkpt><trkpt lat="42.742194" lon="12.8389698"><ele>301.4</ele><time>2026-04-25T15:05:37.449Z</time></trkpt><trkpt lat="42.7422751" lon="12.8390685"><ele>302.2</ele><time>2026-04-25T15:05:38.448Z</time></trkpt><trkpt lat="42.7423581" lon="12.8391711"><ele>303.0</ele><time>2026-04-25T15:05:39.448Z</time></trkpt><trkpt lat="42.7424443" lon="12.8392759"><ele>303.0</ele><time>2026-04-25T15:05:40.448Z</time></trkpt><trkpt lat="42.7425307" lon="12.8393823"><ele>303.0</ele><time>2026-04-25T15:05:41.448Z</time></trkpt><trkpt lat="42.7426194" lon="12.8394883"><ele>303.0</ele><time>2026-04-25T15:05:42.448Z</time></trkpt><trkpt lat="42.742707" lon="12.839593"><ele>303.0</ele><time>2026-04-25T15:05:43.448Z</time></trkpt><trkpt lat="42.7427973" lon="12.8396985"><ele>305.25</ele><time>2026-04-25T15:05:44.449Z</time></trkpt><trkpt lat="42.742889" lon="12.8398044"><ele>307.5</ele><time>2026-04-25T15:05:45.448Z</time></trkpt><trkpt lat="42.7429798" lon="12.8399125"><ele>309.75</ele><time>2026-04-25T15:05:46.448Z</time></trkpt><trkpt lat="42.7430787" lon="12.8400185"><ele>312.0</ele><time>2026-04-25T15:05:47.448Z</time></trkpt><trkpt lat="42.743167" lon="12.8401244"><ele>312.5</ele><time>2026-04-25T15:05:48.449Z</time></trkpt><trkpt lat="42.7432604" lon="12.8402272"><ele>313.0</ele><time>2026-04-25T15:05:49.449Z</time></trkpt><trkpt lat="42.7433608" lon="12.8403233"><ele>313.5</ele><time>2026-04-25T15:05:50.448Z</time></trkpt><trkpt lat="42.7434684" lon="12.8404083"><ele>314.0</ele><time>2026-04-25T15:05:51.449Z</time></trkpt><trkpt lat="42.7435798" lon="12.8404778"><ele>314.0</ele><time>2026-04-25T15:05:52.448Z</time></trkpt><trkpt lat="42.7436994" lon="12.8405297"><ele>314.0</ele><time>2026-04-25T15:05:53.448Z</time></trkpt><trkpt lat="42.7438217" lon="12.8405703"><ele>314.0</ele><time>2026-04-25T15:05:54.448Z</time></trkpt><trkpt lat="42.7439448" lon="12.8406049"><ele>314.0</ele><time>2026-04-25T15:05:55.448Z</time></trkpt><trkpt lat="42.7440627" lon="12.8406292"><ele>314.0</ele><time>2026-04-25T15:05:56.448Z</time></trkpt><trkpt lat="42.7441825" lon="12.8406426"><ele>314.0</ele><time>2026-04-25T15:05:57.448Z</time></trkpt><trkpt lat="42.7443021" lon="12.8406375"><ele>314.0</ele><time>2026-04-25T15:05:58.448Z</time></trkpt><trkpt lat="42.7444222" lon="12.8406183"><ele>314.0</ele><time>2026-04-25T15:05:59.448Z</time></trkpt><trkpt lat="42.7445424" lon="12.8405866"><ele>311.25</ele><time>2026-04-25T15:06:00.449Z</time></trkpt><trkpt lat="42.744671" lon="12.8405689"><ele>308.5</ele><time>2026-04-25T15:06:01.448Z</time></trkpt><trkpt lat="42.7448007" lon="12.8405371"><ele>305.75</ele><time>2026-04-25T15:06:02.448Z</time></trkpt><trkpt lat="42.7449398" lon="12.8405033"><ele>303.0</ele><time>2026-04-25T15:06:03.449Z</time></trkpt><trkpt lat="42.7450864" lon="12.840467"><ele>302.75</ele><time>2026-04-25T15:06:04.448Z</time></trkpt><trkpt lat="42.7452363" lon="12.8404285"><ele>302.5</ele><time>2026-04-25T15:06:05.449Z</time></trkpt><trkpt lat="42.7453814" lon="12.8403948"><ele>302.25</ele><time>2026-04-25T15:06:06.448Z</time></trkpt><trkpt lat="42.7455232" lon="12.8403606"><ele>302.0</ele><time>2026-04-25T15:06:07.448Z</time></trkpt><trkpt lat="42.7456642" lon="12.8403492"><ele>302.0</ele><time>2026-04-25T15:06:08.449Z</time></trkpt><trkpt lat="42.7458063" lon="12.8403629"><ele>302.0</ele><time>2026-04-25T15:06:09.449Z</time></trkpt><trkpt lat="42.7459471" lon="12.8404"><ele>302.0</ele><time>2026-04-25T15:06:10.448Z</time></trkpt><trkpt lat="42.7460849" lon="12.8404662"><ele>302.0</ele><time>2026-04-25T15:06:11.448Z</time></trkpt><trkpt lat="42.7462217" lon="12.840557"><ele>306.0</ele><time>2026-04-25T15:06:12.448Z</time></trkpt><trkpt lat="42.7463535" lon="12.8406675"><ele>310.0</ele><time>2026-04-25T15:06:13.448Z</time></trkpt><trkpt lat="42.746484" lon="12.8407941"><ele>314.0</ele><time>2026-04-25T15:06:14.448Z</time></trkpt><trkpt lat="42.7466127" lon="12.8409326"><ele>314.6666666666667</ele><time>2026-04-25T15:06:15.448Z</time></trkpt><trkpt lat="42.7467417" lon="12.841071"><ele>315.3333333333333</ele><time>2026-04-25T15:06:16.449Z</time></trkpt><trkpt lat="42.746876" lon="12.8412161"><ele>316.0</ele><time>2026-04-25T15:06:17.448Z</time></trkpt><trkpt lat="42.7470108" lon="12.8413573"><ele>316.0</ele><time>2026-04-25T15:06:18.448Z</time></trkpt><trkpt lat="42.7471322" lon="12.8414984"><ele>316.0</ele><time>2026-04-25T15:06:19.449Z</time></trkpt><trkpt lat="42.7472567" lon="12.8416479"><ele>316.0</ele><time>2026-04-25T15:06:20.448Z</time></trkpt><trkpt lat="42.7473696" lon="12.8417961"><ele>312.66666666666663</ele><time>2026-04-25T15:06:21.449Z</time></trkpt><trkpt lat="42.7474834" lon="12.8419748"><ele>309.3333333333333</ele><time>2026-04-25T15:06:22.448Z</time></trkpt><trkpt lat="42.7475819" lon="12.8421635"><ele>306.0</ele><time>2026-04-25T15:06:23.448Z</time></trkpt><trkpt lat="42.7476518" lon="12.8423653"><ele>317.0</ele><time>2026-04-25T15:06:24.448Z</time></trkpt><trkpt lat="42.7477174" lon="12.8425733"><ele>328.0</ele><time>2026-04-25T15:06:25.449Z</time></trkpt><trkpt lat="42.7477629" lon="12.8428179"><ele>339.0</ele><time>2026-04-25T15:06:26.448Z</time></trkpt><trkpt lat="42.747794" lon="12.8430557"><ele>339.0</ele><time>2026-04-25T15:06:27.448Z</time></trkpt><trkpt lat="42.7478206" lon="12.8432843"><ele>339.0</ele><time>2026-04-25T15:06:28.449Z</time></trkpt><trkpt lat="42.7478454" lon="12.8435224"><ele>339.0</ele><time>2026-04-25T15:06:29.448Z</time></trkpt><trkpt lat="42.7478731" lon="12.8437616"><ele>335.0</ele><time>2026-04-25T15:06:30.448Z</time></trkpt><trkpt lat="42.7478969" lon="12.8440099"><ele>331.0</ele><time>2026-04-25T15:06:31.448Z</time></trkpt><trkpt lat="42.7479279" lon="12.8442654"><ele>327.0</ele><time>2026-04-25T15:06:32.448Z</time></trkpt><trkpt lat="42.7479653" lon="12.8444959"><ele>325.0</ele><time>2026-04-25T15:06:33.448Z</time></trkpt><trkpt lat="42.7479995" lon="12.8447264"><ele>323.0</ele><time>2026-04-25T15:06:34.448Z</time></trkpt><trkpt lat="42.7480259" lon="12.8449464"><ele>321.0</ele><time>2026-04-25T15:06:35.448Z</time></trkpt><trkpt lat="42.7480236" lon="12.8451704"><ele>321.0</ele><time>2026-04-25T15:06:36.448Z</time></trkpt><trkpt lat="42.7480015" lon="12.8453904"><ele>321.0</ele><time>2026-04-25T15:06:37.448Z</time></trkpt><trkpt lat="42.7479581" lon="12.8456083"><ele>321.0</ele><time>2026-04-25T15:06:38.448Z</time></trkpt><trkpt lat="42.7478965" lon="12.8458212"><ele>322.6666666666667</ele><time>2026-04-25T15:06:39.448Z</time></trkpt><trkpt lat="42.7478184" lon="12.8460262"><ele>324.33333333333337</ele><time>2026-04-25T15:06:40.448Z</time></trkpt><trkpt lat="42.7477568" lon="12.8462259"><ele>326.0</ele><time>2026-04-25T15:06:41.449Z</time></trkpt><trkpt lat="42.747708" lon="12.8464318"><ele>326.0</ele><time>2026-04-25T15:06:42.448Z</time></trkpt><trkpt lat="42.7477171" lon="12.8466308"><ele>326.0</ele><time>2026-04-25T15:06:43.448Z</time></trkpt><trkpt lat="42.7477355" lon="12.8468196"><ele>326.0</ele><time>2026-04-25T15:06:44.449Z</time></trkpt><trkpt lat="42.7477617" lon="12.8469996"><ele>326.0</ele><time>2026-04-25T15:06:45.448Z</time></trkpt><trkpt lat="42.7478658" lon="12.8471127"><ele>321.25</ele><time>2026-04-25T15:06:46.449Z</time></trkpt><trkpt lat="42.7479609" lon="12.847233"><ele>316.5</ele><time>2026-04-25T15:06:47.449Z</time></trkpt><trkpt lat="42.7481001" lon="12.8473243"><ele>311.75</ele><time>2026-04-25T15:06:48.449Z</time></trkpt><trkpt lat="42.748231" lon="12.8474147"><ele>307.0</ele><time>2026-04-25T15:06:49.448Z</time></trkpt><trkpt lat="42.7483683" lon="12.8474972"><ele>307.0</ele><time>2026-04-25T15:06:50.448Z</time></trkpt><trkpt lat="42.7485169" lon="12.8475555"><ele>307.0</ele><time>2026-04-25T15:06:51.449Z</time></trkpt><trkpt lat="42.7486707" lon="12.8476076"><ele>307.0</ele><time>2026-04-25T15:06:52.448Z</time></trkpt><trkpt lat="42.7488488" lon="12.8475915"><ele>306.3333333333333</ele><time>2026-04-25T15:06:53.449Z</time></trkpt><trkpt lat="42.7490315" lon="12.8475702"><ele>305.6666666666667</ele><time>2026-04-25T15:06:54.448Z</time></trkpt><trkpt lat="42.7492099" lon="12.8475555"><ele>305.0</ele><time>2026-04-25T15:06:55.448Z</time></trkpt><trkpt lat="42.7493923" lon="12.8475206"><ele>305.0</ele><time>2026-04-25T15:06:56.448Z</time></trkpt><trkpt lat="42.7495691" lon="12.8474975"><ele>305.0</ele><time>2026-04-25T15:06:57.448Z</time></trkpt><trkpt lat="42.7497431" lon="12.847472"><ele>305.0</ele><time>2026-04-25T15:06:58.448Z</time></trkpt><trkpt lat="42.7498981" lon="12.8474513"><ele>305.0</ele><time>2026-04-25T15:06:59.448Z</time></trkpt><trkpt lat="42.7500482" lon="12.8474248"><ele>305.0</ele><time>2026-04-25T15:07:00.448Z</time></trkpt><trkpt lat="42.7501903" lon="12.8473937"><ele>305.0</ele><time>2026-04-25T15:07:01.448Z</time></trkpt><trkpt lat="42.7503302" lon="12.847388"><ele>305.0</ele><time>2026-04-25T15:07:02.448Z</time></trkpt><trkpt lat="42.7504592" lon="12.8473763"><ele>305.25</ele><time>2026-04-25T15:07:03.448Z</time></trkpt><trkpt lat="42.7505775" lon="12.8473675"><ele>305.5</ele><time>2026-04-25T15:07:04.448Z</time></trkpt><trkpt lat="42.7507114" lon="12.8474019"><ele>305.75</ele><time>2026-04-25T15:07:05.448Z</time></trkpt><trkpt lat="42.7508411" lon="12.8474545"><ele>306.0</ele><time>2026-04-25T15:07:06.448Z</time></trkpt><trkpt lat="42.7509608" lon="12.8475302"><ele>305.75</ele><time>2026-04-25T15:07:07.448Z</time></trkpt><trkpt lat="42.7510689" lon="12.8476196"><ele>305.5</ele><time>2026-04-25T15:07:08.448Z</time></trkpt><trkpt lat="42.7511657" lon="12.8477366"><ele>305.25</ele><time>2026-04-25T15:07:09.448Z</time></trkpt><trkpt lat="42.7512637" lon="12.8478721"><ele>305.0</ele><time>2026-04-25T15:07:10.448Z</time></trkpt><trkpt lat="42.751367" lon="12.8480158"><ele>305.0</ele><time>2026-04-25T15:07:11.448Z</time></trkpt><trkpt lat="42.7514602" lon="12.8481604"><ele>305.0</ele><time>2026-04-25T15:07:12.448Z</time></trkpt><trkpt lat="42.7515604" lon="12.8483085"><ele>305.0</ele><time>2026-04-25T15:07:13.448Z</time></trkpt><trkpt lat="42.7516535" lon="12.8484675"><ele>305.0</ele><time>2026-04-25T15:07:14.448Z</time></trkpt><trkpt lat="42.7517472" lon="12.8486181"><ele>303.33333333333337</ele><time>2026-04-25T15:07:15.448Z</time></trkpt><trkpt lat="42.7518459" lon="12.8487728"><ele>301.6666666666667</ele><time>2026-04-25T15:07:16.449Z</time></trkpt><trkpt lat="42.7519477" lon="12.848927"><ele>300.0</ele><time>2026-04-25T15:07:17.448Z</time></trkpt><trkpt lat="42.7520524" lon="12.8490776"><ele>300.75</ele><time>2026-04-25T15:07:18.448Z</time></trkpt><trkpt lat="42.752149" lon="12.8492308"><ele>301.5</ele><time>2026-04-25T15:07:19.448Z</time></trkpt><trkpt lat="42.752245" lon="12.8493774"><ele>302.25</ele><time>2026-04-25T15:07:20.448Z</time></trkpt><trkpt lat="42.7523426" lon="12.8495287"><ele>303.0</ele><time>2026-04-25T15:07:21.448Z</time></trkpt><trkpt lat="42.7524445" lon="12.8496766"><ele>303.0</ele><time>2026-04-25T15:07:22.449Z</time></trkpt><trkpt lat="42.7525462" lon="12.8498224"><ele>303.0</ele><time>2026-04-25T15:07:23.448Z</time></trkpt><trkpt lat="42.7526519" lon="12.8499602"><ele>303.0</ele><time>2026-04-25T15:07:24.448Z</time></trkpt><trkpt lat="42.7527627" lon="12.8501021"><ele>303.0</ele><time>2026-04-25T15:07:25.448Z</time></trkpt><trkpt lat="42.7528671" lon="12.8502383"><ele>304.5</ele><time>2026-04-25T15:07:26.449Z</time></trkpt><trkpt lat="42.7529727" lon="12.8503617"><ele>306.0</ele><time>2026-04-25T15:07:27.448Z</time></trkpt><trkpt lat="42.7530754" lon="12.8504874"><ele>307.5</ele><time>2026-04-25T15:07:28.448Z</time></trkpt><trkpt lat="42.7531807" lon="12.8506092"><ele>309.0</ele><time>2026-04-25T15:07:29.448Z</time></trkpt><trkpt lat="42.7532869" lon="12.8507309"><ele>309.0</ele><time>2026-04-25T15:07:30.448Z</time></trkpt><trkpt lat="42.7534007" lon="12.8508543"><ele>309.0</ele><time>2026-04-25T15:07:31.448Z</time></trkpt><trkpt lat="42.7535011" lon="12.8509794"><ele>309.0</ele><time>2026-04-25T15:07:32.448Z</time></trkpt><trkpt lat="42.7535892" lon="12.8511165"><ele>309.0</ele><time>2026-04-25T15:07:33.449Z</time></trkpt><trkpt lat="42.753671" lon="12.8512676"><ele>313.5</ele><time>2026-04-25T15:07:34.448Z</time></trkpt><trkpt lat="42.7537329" lon="12.8514388"><ele>318.0</ele><time>2026-04-25T15:07:35.448Z</time></trkpt><trkpt lat="42.7537839" lon="12.8516156"><ele>322.5</ele><time>2026-04-25T15:07:36.448Z</time></trkpt><trkpt lat="42.7538319" lon="12.8517931"><ele>327.0</ele><time>2026-04-25T15:07:37.448Z</time></trkpt><trkpt lat="42.7538752" lon="12.851992"><ele>327.0</ele><time>2026-04-25T15:07:38.448Z</time></trkpt><trkpt lat="42.7539069" lon="12.8521877"><ele>327.0</ele><time>2026-04-25T15:07:39.448Z</time></trkpt><trkpt lat="42.7539413" lon="12.8523828"><ele>327.0</ele><time>2026-04-25T15:07:40.449Z</time></trkpt><trkpt lat="42.7539766" lon="12.8525901"><ele>325.6666666666667</ele><time>2026-04-25T15:07:41.448Z</time></trkpt><trkpt lat="42.7540044" lon="12.852793"><ele>324.33333333333337</ele><time>2026-04-25T15:07:42.448Z</time></trkpt><trkpt lat="42.7540534" lon="12.8530023"><ele>323.0</ele><time>2026-04-25T15:07:43.448Z</time></trkpt><trkpt lat="42.7540898" lon="12.8532057"><ele>323.0</ele><time>2026-04-25T15:07:44.448Z</time></trkpt><trkpt lat="42.7541252" lon="12.8534074"><ele>323.0</ele><time>2026-04-25T15:07:45.448Z</time></trkpt><trkpt lat="42.7541745" lon="12.8536122"><ele>323.0</ele><time>2026-04-25T15:07:46.448Z</time></trkpt><trkpt lat="42.7542258" lon="12.853806"><ele>325.0</ele><time>2026-04-25T15:07:47.448Z</time></trkpt><trkpt lat="42.7542698" lon="12.8539951"><ele>327.0</ele><time>2026-04-25T15:07:48.448Z</time></trkpt><trkpt lat="42.7543301" lon="12.8541874"><ele>329.0</ele><time>2026-04-25T15:07:49.448Z</time></trkpt><trkpt lat="42.7544123" lon="12.8543644"><ele>329.0</ele><time>2026-04-25T15:07:50.448Z</time></trkpt><trkpt lat="42.7544958" lon="12.8545329"><ele>329.0</ele><time>2026-04-25T15:07:51.448Z</time></trkpt><trkpt lat="42.7545831" lon="12.8547071"><ele>329.0</ele><time>2026-04-25T15:07:52.448Z</time></trkpt><trkpt lat="42.7546651" lon="12.8548781"><ele>329.0</ele><time>2026-04-25T15:07:53.448Z</time></trkpt><trkpt lat="42.7547479" lon="12.8550485"><ele>329.0</ele><time>2026-04-25T15:07:54.449Z</time></trkpt><trkpt lat="42.7548358" lon="12.8552046"><ele>329.0</ele><time>2026-04-25T15:07:55.449Z</time></trkpt><trkpt lat="42.7549206" lon="12.8553428"><ele>329.0</ele><time>2026-04-25T15:07:56.448Z</time></trkpt><trkpt lat="42.7550189" lon="12.855461"><ele>329.75</ele><time>2026-04-25T15:07:57.448Z</time></trkpt><trkpt lat="42.7551364" lon="12.8555577"><ele>330.5</ele><time>2026-04-25T15:07:58.448Z</time></trkpt><trkpt lat="42.7552652" lon="12.8556459"><ele>331.25</ele><time>2026-04-25T15:07:59.448Z</time></trkpt><trkpt lat="42.7554" lon="12.8557231"><ele>332.0</ele><time>2026-04-25T15:08:00.448Z</time></trkpt><trkpt lat="42.7555313" lon="12.8557969"><ele>332.0</ele><time>2026-04-25T15:08:01.449Z</time></trkpt><trkpt lat="42.7556648" lon="12.8558722"><ele>332.0</ele><time>2026-04-25T15:08:02.448Z</time></trkpt><trkpt lat="42.7557811" lon="12.8559647"><ele>332.0</ele><time>2026-04-25T15:08:03.448Z</time></trkpt><trkpt lat="42.7558828" lon="12.8560811"><ele>332.0</ele><time>2026-04-25T15:08:04.448Z</time></trkpt><trkpt lat="42.7559752" lon="12.8562138"><ele>334.5</ele><time>2026-04-25T15:08:05.448Z</time></trkpt><trkpt lat="42.7560508" lon="12.8563625"><ele>337.0</ele><time>2026-04-25T15:08:06.448Z</time></trkpt><trkpt lat="42.7561254" lon="12.8565213"><ele>339.5</ele><time>2026-04-25T15:08:07.448Z</time></trkpt><trkpt lat="42.7561902" lon="12.8566906"><ele>342.0</ele><time>2026-04-25T15:08:08.449Z</time></trkpt><trkpt lat="42.7562528" lon="12.8568481"><ele>335.75</ele><time>2026-04-25T15:08:09.448Z</time></trkpt><trkpt lat="42.7563211" lon="12.8570015"><ele>329.5</ele><time>2026-04-25T15:08:10.449Z</time></trkpt><trkpt lat="42.7563884" lon="12.8571469"><ele>323.25</ele><time>2026-04-25T15:08:11.448Z</time></trkpt><trkpt lat="42.7564633" lon="12.85729"><ele>317.0</ele><time>2026-04-25T15:08:12.448Z</time></trkpt><trkpt lat="42.756578" lon="12.857368"><ele>317.0</ele><time>2026-04-25T15:08:13.448Z</time></trkpt><trkpt lat="42.7566865" lon="12.8574335"><ele>317.0</ele><time>2026-04-25T15:08:14.448Z</time></trkpt><trkpt lat="42.7568089" lon="12.8574864"><ele>317.0</ele><time>2026-04-25T15:08:15.449Z</time></trkpt><trkpt lat="42.7569283" lon="12.8575164"><ele>317.0</ele><time>2026-04-25T15:08:16.449Z</time></trkpt><trkpt lat="42.7570462" lon="12.8575311"><ele>319.75</ele><time>2026-04-25T15:08:17.448Z</time></trkpt><trkpt lat="42.7571649" lon="12.8575482"><ele>322.5</ele><time>2026-04-25T15:08:18.448Z</time></trkpt><trkpt lat="42.7572731" lon="12.8575615"><ele>325.25</ele><time>2026-04-25T15:08:19.448Z</time></trkpt><trkpt lat="42.7573854" lon="12.8575775"><ele>328.0</ele><time>2026-04-25T15:08:20.448Z</time></trkpt><trkpt lat="42.7575107" lon="12.8576034"><ele>323.0</ele><time>2026-04-25T15:08:21.448Z</time></trkpt><trkpt lat="42.7576354" lon="12.8576218"><ele>318.0</ele><time>2026-04-25T15:08:22.448Z</time></trkpt><trkpt lat="42.7577596" lon="12.8576584"><ele>313.0</ele><time>2026-04-25T15:08:23.448Z</time></trkpt><trkpt lat="42.7578836" lon="12.8576946"><ele>308.0</ele><time>2026-04-25T15:08:24.448Z</time></trkpt><trkpt lat="42.7580036" lon="12.8577395"><ele>308.0</ele><time>2026-04-25T15:08:25.448Z</time></trkpt><trkpt lat="42.7581192" lon="12.8577933"><ele>308.0</ele><time>2026-04-25T15:08:26.448Z</time></trkpt><trkpt lat="42.7582318" lon="12.8578433"><ele>308.0</ele><time>2026-04-25T15:08:27.448Z</time></trkpt><trkpt lat="42.7583489" lon="12.8578907"><ele>308.0</ele><time>2026-04-25T15:08:28.448Z</time></trkpt><trkpt lat="42.7584578" lon="12.8579386"><ele>309.8</ele><time>2026-04-25T15:08:29.448Z</time></trkpt><trkpt lat="42.7585642" lon="12.8579925"><ele>311.6</ele><time>2026-04-25T15:08:30.448Z</time></trkpt><trkpt lat="42.7586697" lon="12.8580454"><ele>313.4</ele><time>2026-04-25T15:08:31.448Z</time></trkpt><trkpt lat="42.7587729" lon="12.8580883"><ele>315.2</ele><time>2026-04-25T15:08:32.448Z</time></trkpt><trkpt lat="42.7588622" lon="12.8581428"><ele>317.0</ele><time>2026-04-25T15:08:33.448Z</time></trkpt><trkpt lat="42.7589527" lon="12.8581924"><ele>317.0</ele><time>2026-04-25T15:08:34.449Z</time></trkpt><trkpt lat="42.7590443" lon="12.8582353"><ele>317.0</ele><time>2026-04-25T15:08:35.449Z</time></trkpt><trkpt lat="42.7591371" lon="12.8582707"><ele>317.0</ele><time>2026-04-25T15:08:36.448Z</time></trkpt><trkpt lat="42.759229" lon="12.8583145"><ele>317.0</ele><time>2026-04-25T15:08:37.448Z</time></trkpt><trkpt lat="42.759321" lon="12.858367"><ele>317.0</ele><time>2026-04-25T15:08:38.448Z</time></trkpt><trkpt lat="42.7594136" lon="12.8584224"><ele>314.75</ele><time>2026-04-25T15:08:39.448Z</time></trkpt><trkpt lat="42.759517" lon="12.8584733"><ele>312.5</ele><time>2026-04-25T15:08:40.449Z</time></trkpt><trkpt lat="42.7596238" lon="12.8585243"><ele>310.25</ele><time>2026-04-25T15:08:41.448Z</time></trkpt><trkpt lat="42.7597487" lon="12.8585758"><ele>308.0</ele><time>2026-04-25T15:08:42.448Z</time></trkpt><trkpt lat="42.7598692" lon="12.8586299"><ele>308.0</ele><time>2026-04-25T15:08:43.448Z</time></trkpt><trkpt lat="42.7599913" lon="12.8586817"><ele>308.0</ele><time>2026-04-25T15:08:44.449Z</time></trkpt><trkpt lat="42.7601079" lon="12.8587373"><ele>308.0</ele><time>2026-04-25T15:08:45.448Z</time></trkpt><trkpt lat="42.7602374" lon="12.858799"><ele>308.0</ele><time>2026-04-25T15:08:46.448Z</time></trkpt><trkpt lat="42.7603626" lon="12.8588569"><ele>312.0</ele><time>2026-04-25T15:08:47.448Z</time></trkpt><trkpt lat="42.7604966" lon="12.8589188"><ele>316.0</ele><time>2026-04-25T15:08:48.449Z</time></trkpt><trkpt lat="42.7606349" lon="12.8589811"><ele>320.0</ele><time>2026-04-25T15:08:49.448Z</time></trkpt><trkpt lat="42.7607816" lon="12.8590678"><ele>324.0</ele><time>2026-04-25T15:08:50.448Z</time></trkpt><trkpt lat="42.7609292" lon="12.8591399"><ele>320.0</ele><time>2026-04-25T15:08:51.448Z</time></trkpt><trkpt lat="42.7610849" lon="12.8592162"><ele>316.0</ele><time>2026-04-25T15:08:52.448Z</time></trkpt><trkpt lat="42.7612401" lon="12.859298"><ele>312.0</ele><time>2026-04-25T15:08:53.448Z</time></trkpt><trkpt lat="42.7613916" lon="12.8593919"><ele>312.0</ele><time>2026-04-25T15:08:54.448Z</time></trkpt><trkpt lat="42.7615577" lon="12.8594778"><ele>312.0</ele><time>2026-04-25T15:08:55.448Z</time></trkpt><trkpt lat="42.7617282" lon="12.8595794"><ele>312.0</ele><time>2026-04-25T15:08:56.448Z</time></trkpt><trkpt lat="42.7618886" lon="12.8596877"><ele>316.3333333333333</ele><time>2026-04-25T15:08:57.448Z</time></trkpt><trkpt lat="42.762057" lon="12.8598032"><ele>320.66666666666663</ele><time>2026-04-25T15:08:58.448Z</time></trkpt><trkpt lat="42.7622155" lon="12.8599127"><ele>325.0</ele><time>2026-04-25T15:08:59.449Z</time></trkpt><trkpt lat="42.7623822" lon="12.860027"><ele>323.3333333333333</ele><time>2026-04-25T15:09:00.448Z</time></trkpt><trkpt lat="42.7625444" lon="12.8601467"><ele>321.6666666666667</ele><time>2026-04-25T15:09:01.448Z</time></trkpt><trkpt lat="42.76271" lon="12.8602641"><ele>320.0</ele><time>2026-04-25T15:09:02.448Z</time></trkpt><trkpt lat="42.7628732" lon="12.8603749"><ele>320.0</ele><time>2026-04-25T15:09:03.448Z</time></trkpt><trkpt lat="42.7630399" lon="12.8604816"><ele>320.0</ele><time>2026-04-25T15:09:04.448Z</time></trkpt><trkpt lat="42.7632034" lon="12.8605842"><ele>320.0</ele><time>2026-04-25T15:09:05.449Z</time></trkpt><trkpt lat="42.7633619" lon="12.8606853"><ele>320.0</ele><time>2026-04-25T15:09:06.448Z</time></trkpt><trkpt lat="42.7635163" lon="12.8607818"><ele>320.0</ele><time>2026-04-25T15:09:07.448Z</time></trkpt><trkpt lat="42.7636646" lon="12.8608756"><ele>320.0</ele><time>2026-04-25T15:09:08.448Z</time></trkpt><trkpt lat="42.7638122" lon="12.860972"><ele>317.0</ele><time>2026-04-25T15:09:09.448Z</time></trkpt><trkpt lat="42.7639597" lon="12.8610617"><ele>314.0</ele><time>2026-04-25T15:09:10.448Z</time></trkpt><trkpt lat="42.7641028" lon="12.8611456"><ele>311.0</ele><time>2026-04-25T15:09:11.448Z</time></trkpt><trkpt lat="42.7642445" lon="12.8612204"><ele>313.0</ele><time>2026-04-25T15:09:12.448Z</time></trkpt><trkpt lat="42.7643886" lon="12.8612977"><ele>315.0</ele><time>2026-04-25T15:09:13.448Z</time></trkpt><trkpt lat="42.7645364" lon="12.8613603"><ele>317.0</ele><time>2026-04-25T15:09:14.448Z</time></trkpt><trkpt lat="42.7646862" lon="12.8614168"><ele>317.0</ele><time>2026-04-25T15:09:15.448Z</time></trkpt><trkpt lat="42.7648436" lon="12.8614484"><ele>317.0</ele><time>2026-04-25T15:09:16.448Z</time></trkpt><trkpt lat="42.7649969" lon="12.8614643"><ele>317.0</ele><time>2026-04-25T15:09:17.448Z</time></trkpt><trkpt lat="42.7651489" lon="12.8614745"><ele>316.33333333333337</ele><time>2026-04-25T15:09:18.448Z</time></trkpt><trkpt lat="42.7653035" lon="12.8614852"><ele>315.6666666666667</ele><time>2026-04-25T15:09:19.448Z</time></trkpt><trkpt lat="42.7654667" lon="12.8615179"><ele>315.0</ele><time>2026-04-25T15:09:20.449Z</time></trkpt><trkpt lat="42.7656178" lon="12.8615699"><ele>315.0</ele><time>2026-04-25T15:09:21.448Z</time></trkpt><trkpt lat="42.7657698" lon="12.8616431"><ele>315.0</ele><time>2026-04-25T15:09:22.448Z</time></trkpt><trkpt lat="42.7659188" lon="12.8617359"><ele>315.0</ele><time>2026-04-25T15:09:23.448Z</time></trkpt><trkpt lat="42.7660735" lon="12.8618221"><ele>314.0</ele><time>2026-04-25T15:09:24.448Z</time></trkpt><trkpt lat="42.7662188" lon="12.8619158"><ele>313.0</ele><time>2026-04-25T15:09:25.448Z</time></trkpt><trkpt lat="42.7663775" lon="12.8620087"><ele>312.0</ele><time>2026-04-25T15:09:26.448Z</time></trkpt><trkpt lat="42.7665351" lon="12.8621137"><ele>312.0</ele><time>2026-04-25T15:09:27.448Z</time></trkpt><trkpt lat="42.7666929" lon="12.862208"><ele>312.0</ele><time>2026-04-25T15:09:28.448Z</time></trkpt><trkpt lat="42.7668422" lon="12.8623159"><ele>312.0</ele><time>2026-04-25T15:09:29.448Z</time></trkpt><trkpt lat="42.7670043" lon="12.8624116"><ele>312.6666666666667</ele><time>2026-04-25T15:09:30.448Z</time></trkpt><trkpt lat="42.7671629" lon="12.8625126"><ele>313.33333333333337</ele><time>2026-04-25T15:09:31.448Z</time></trkpt><trkpt lat="42.7673161" lon="12.8626178"><ele>314.0</ele><time>2026-04-25T15:09:32.448Z</time></trkpt><trkpt lat="42.7674694" lon="12.8627229"><ele>314.0</ele><time>2026-04-25T15:09:33.449Z</time></trkpt><trkpt lat="42.7676214" lon="12.8628219"><ele>314.0</ele><time>2026-04-25T15:09:34.448Z</time></trkpt><trkpt lat="42.7677699" lon="12.8629309"><ele>314.0</ele><time>2026-04-25T15:09:35.448Z</time></trkpt><trkpt lat="42.7679203" lon="12.8630312"><ele>314.0</ele><time>2026-04-25T15:09:36.448Z</time></trkpt><trkpt lat="42.7680643" lon="12.8631391"><ele>314.0</ele><time>2026-04-25T15:09:37.448Z</time></trkpt><trkpt lat="42.7682105" lon="12.8632385"><ele>314.0</ele><time>2026-04-25T15:09:38.449Z</time></trkpt><trkpt lat="42.7683513" lon="12.863339"><ele>314.0</ele><time>2026-04-25T15:09:39.449Z</time></trkpt><trkpt lat="42.7684962" lon="12.8634404"><ele>314.0</ele><time>2026-04-25T15:09:40.448Z</time></trkpt><trkpt lat="42.7686386" lon="12.8635415"><ele>314.0</ele><time>2026-04-25T15:09:41.448Z</time></trkpt><trkpt lat="42.7687761" lon="12.8636396"><ele>314.33333333333337</ele><time>2026-04-25T15:09:42.448Z</time></trkpt><trkpt lat="42.7689154" lon="12.8637398"><ele>314.6666666666667</ele><time>2026-04-25T15:09:43.449Z</time></trkpt><trkpt lat="42.7690541" lon="12.8638408"><ele>315.0</ele><time>2026-04-25T15:09:44.448Z</time></trkpt><trkpt lat="42.7691962" lon="12.8639353"><ele>315.0</ele><time>2026-04-25T15:09:45.448Z</time></trkpt><trkpt lat="42.7693378" lon="12.8640344"><ele>315.0</ele><time>2026-04-25T15:09:46.449Z</time></trkpt><trkpt lat="42.7694772" lon="12.8641309"><ele>315.0</ele><time>2026-04-25T15:09:47.448Z</time></trkpt><trkpt lat="42.7696082" lon="12.8642241"><ele>316.6666666666667</ele><time>2026-04-25T15:09:48.448Z</time></trkpt><trkpt lat="42.769748" lon="12.8643113"><ele>318.33333333333337</ele><time>2026-04-25T15:09:49.448Z</time></trkpt><trkpt lat="42.769888" lon="12.8643908"><ele>320.0</ele><time>2026-04-25T15:09:50.448Z</time></trkpt><trkpt lat="42.7700192" lon="12.8644787"><ele>320.0</ele><time>2026-04-25T15:09:51.448Z</time></trkpt><trkpt lat="42.7701544" lon="12.8645648"><ele>320.0</ele><time>2026-04-25T15:09:52.448Z</time></trkpt><trkpt lat="42.7702913" lon="12.864652"><ele>320.0</ele><time>2026-04-25T15:09:53.448Z</time></trkpt><trkpt lat="42.7704348" lon="12.8647326"><ele>321.6666666666667</ele><time>2026-04-25T15:09:54.448Z</time></trkpt><trkpt lat="42.7705804" lon="12.86481"><ele>323.3333333333333</ele><time>2026-04-25T15:09:55.448Z</time></trkpt><trkpt lat="42.770721" lon="12.8648922"><ele>325.0</ele><time>2026-04-25T15:09:56.448Z</time></trkpt><trkpt lat="42.7708612" lon="12.8649733"><ele>325.0</ele><time>2026-04-25T15:09:57.448Z</time></trkpt><trkpt lat="42.771008" lon="12.8650519"><ele>325.0</ele><time>2026-04-25T15:09:58.448Z</time></trkpt><trkpt lat="42.7711524" lon="12.8651359"><ele>325.0</ele><time>2026-04-25T15:09:59.448Z</time></trkpt><trkpt lat="42.7712966" lon="12.8652209"><ele>322.66666666666663</ele><time>2026-04-25T15:10:00.448Z</time></trkpt><trkpt lat="42.7714439" lon="12.8652966"><ele>320.3333333333333</ele><time>2026-04-25T15:10:01.448Z</time></trkpt><trkpt lat="42.7715923" lon="12.865374"><ele>318.0</ele><time>2026-04-25T15:10:02.448Z</time></trkpt><trkpt lat="42.7717403" lon="12.8654601"><ele>319.3333333333333</ele><time>2026-04-25T15:10:03.448Z</time></trkpt><trkpt lat="42.771884" lon="12.8655379"><ele>320.66666666666663</ele><time>2026-04-25T15:10:04.448Z</time></trkpt><trkpt lat="42.7720288" lon="12.8656221"><ele>322.0</ele><time>2026-04-25T15:10:05.449Z</time></trkpt><trkpt lat="42.7721894" lon="12.8657012"><ele>322.0</ele><time>2026-04-25T15:10:06.449Z</time></trkpt><trkpt lat="42.7723476" lon="12.8658015"><ele>322.0</ele><time>2026-04-25T15:10:07.448Z</time></trkpt><trkpt lat="42.7725079" lon="12.8658958"><ele>322.0</ele><time>2026-04-25T15:10:08.449Z</time></trkpt><trkpt lat="42.7726654" lon="12.8659825"><ele>321.0</ele><time>2026-04-25T15:10:09.448Z</time></trkpt><trkpt lat="42.7728247" lon="12.8660699"><ele>320.0</ele><time>2026-04-25T15:10:10.448Z</time></trkpt><trkpt lat="42.7729743" lon="12.8661534"><ele>319.0</ele><time>2026-04-25T15:10:11.448Z</time></trkpt><trkpt lat="42.7731303" lon="12.8662315"><ele>319.0</ele><time>2026-04-25T15:10:12.448Z</time></trkpt><trkpt lat="42.7732984" lon="12.8663031"><ele>319.0</ele><time>2026-04-25T15:10:13.448Z</time></trkpt><trkpt lat="42.773466" lon="12.8663578"><ele>319.0</ele><time>2026-04-25T15:10:14.448Z</time></trkpt><trkpt lat="42.7736432" lon="12.8664111"><ele>320.3333333333333</ele><time>2026-04-25T15:10:15.448Z</time></trkpt><trkpt lat="42.773831" lon="12.8664454"><ele>321.6666666666667</ele><time>2026-04-25T15:10:16.449Z</time></trkpt><trkpt lat="42.7740186" lon="12.8664809"><ele>323.0</ele><time>2026-04-25T15:10:17.448Z</time></trkpt><trkpt lat="42.7742069" lon="12.866507"><ele>326.0</ele><time>2026-04-25T15:10:18.449Z</time></trkpt><trkpt lat="42.7743875" lon="12.8665256"><ele>329.0</ele><time>2026-04-25T15:10:19.448Z</time></trkpt><trkpt lat="42.7745705" lon="12.8665542"><ele>332.0</ele><time>2026-04-25T15:10:20.448Z</time></trkpt><trkpt lat="42.7747561" lon="12.8665873"><ele>332.0</ele><time>2026-04-25T15:10:21.448Z</time></trkpt><trkpt lat="42.7749333" lon="12.8666368"><ele>332.0</ele><time>2026-04-25T15:10:22.448Z</time></trkpt><trkpt lat="42.7751153" lon="12.8666909"><ele>332.0</ele><time>2026-04-25T15:10:23.448Z</time></trkpt><trkpt lat="42.7752885" lon="12.8667546"><ele>327.6666666666667</ele><time>2026-04-25T15:10:24.448Z</time></trkpt><trkpt lat="42.7754564" lon="12.8668145"><ele>323.3333333333333</ele><time>2026-04-25T15:10:25.448Z</time></trkpt><trkpt lat="42.7756312" lon="12.866877"><ele>319.0</ele><time>2026-04-25T15:10:26.449Z</time></trkpt><trkpt lat="42.7758112" lon="12.8669414"><ele>319.0</ele><time>2026-04-25T15:10:27.448Z</time></trkpt><trkpt lat="42.7759826" lon="12.867015"><ele>319.0</ele><time>2026-04-25T15:10:28.448Z</time></trkpt><trkpt lat="42.7761496" lon="12.8671191"><ele>319.0</ele><time>2026-04-25T15:10:29.448Z</time></trkpt><trkpt lat="42.7763183" lon="12.8672269"><ele>323.0</ele><time>2026-04-25T15:10:30.448Z</time></trkpt><trkpt lat="42.7764807" lon="12.8673463"><ele>327.0</ele><time>2026-04-25T15:10:31.448Z</time></trkpt><trkpt lat="42.7766419" lon="12.8674728"><ele>331.0</ele><time>2026-04-25T15:10:32.449Z</time></trkpt><trkpt lat="42.7767979" lon="12.8676032"><ele>328.66666666666663</ele><time>2026-04-25T15:10:33.448Z</time></trkpt><trkpt lat="42.7769501" lon="12.8677213"><ele>326.3333333333333</ele><time>2026-04-25T15:10:34.448Z</time></trkpt><trkpt lat="42.7770976" lon="12.8678233"><ele>324.0</ele><time>2026-04-25T15:10:35.448Z</time></trkpt><trkpt lat="42.7772391" lon="12.8679049"><ele>324.0</ele><time>2026-04-25T15:10:36.448Z</time></trkpt><trkpt lat="42.7773832" lon="12.8679655"><ele>324.0</ele><time>2026-04-25T15:10:37.448Z</time></trkpt><trkpt lat="42.7775328" lon="12.8679936"><ele>324.0</ele><time>2026-04-25T15:10:38.448Z</time></trkpt><trkpt lat="42.7776875" lon="12.867989"><ele>324.0</ele><time>2026-04-25T15:10:39.448Z</time></trkpt><trkpt lat="42.7778473" lon="12.8679831"><ele>324.0</ele><time>2026-04-25T15:10:40.448Z</time></trkpt><trkpt lat="42.7780214" lon="12.8679784"><ele>324.0</ele><time>2026-04-25T15:10:41.448Z</time></trkpt><trkpt lat="42.7781917" lon="12.8679696"><ele>324.0</ele><time>2026-04-25T15:10:42.448Z</time></trkpt><trkpt lat="42.7783656" lon="12.8679704"><ele>324.0</ele><time>2026-04-25T15:10:43.449Z</time></trkpt><trkpt lat="42.7785517" lon="12.8679973"><ele>324.0</ele><time>2026-04-25T15:10:44.448Z</time></trkpt><trkpt lat="42.7787254" lon="12.8680407"><ele>325.6666666666667</ele><time>2026-04-25T15:10:45.448Z</time></trkpt><trkpt lat="42.7789066" lon="12.868091"><ele>327.33333333333337</ele><time>2026-04-25T15:10:46.448Z</time></trkpt><trkpt lat="42.7790858" lon="12.8681422"><ele>329.0</ele><time>2026-04-25T15:10:47.448Z</time></trkpt><trkpt lat="42.7792717" lon="12.8682017"><ele>330.0</ele><time>2026-04-25T15:10:48.448Z</time></trkpt><trkpt lat="42.7794576" lon="12.868255"><ele>331.0</ele><time>2026-04-25T15:10:49.448Z</time></trkpt><trkpt lat="42.7796456" lon="12.8683167"><ele>332.0</ele><time>2026-04-25T15:10:50.448Z</time></trkpt><trkpt lat="42.7798414" lon="12.8683853"><ele>332.0</ele><time>2026-04-25T15:10:51.448Z</time></trkpt><trkpt lat="42.780029" lon="12.8684411"><ele>332.0</ele><time>2026-04-25T15:10:52.449Z</time></trkpt><trkpt lat="42.7802199" lon="12.8685021"><ele>332.0</ele><time>2026-04-25T15:10:53.448Z</time></trkpt><trkpt lat="42.7804032" lon="12.8685549"><ele>328.6666666666667</ele><time>2026-04-25T15:10:54.448Z</time></trkpt><trkpt lat="42.7805844" lon="12.8686146"><ele>325.3333333333333</ele><time>2026-04-25T15:10:55.448Z</time></trkpt><trkpt lat="42.7807588" lon="12.8686729"><ele>322.0</ele><time>2026-04-25T15:10:56.448Z</time></trkpt><trkpt lat="42.7809183" lon="12.8687253"><ele>323.0</ele><time>2026-04-25T15:10:57.448Z</time></trkpt><trkpt lat="42.7810923" lon="12.8687671"><ele>324.0</ele><time>2026-04-25T15:10:58.448Z</time></trkpt><trkpt lat="42.7812565" lon="12.8687873"><ele>325.0</ele><time>2026-04-25T15:10:59.448Z</time></trkpt><trkpt lat="42.7814234" lon="12.8687946"><ele>325.0</ele><time>2026-04-25T15:11:00.448Z</time></trkpt><trkpt lat="42.7815808" lon="12.8687998"><ele>325.0</ele><time>2026-04-25T15:11:01.448Z</time></trkpt><trkpt lat="42.7817177" lon="12.8688382"><ele>325.0</ele><time>2026-04-25T15:11:02.448Z</time></trkpt><trkpt lat="42.7818611" lon="12.8688991"><ele>325.0</ele><time>2026-04-25T15:11:03.448Z</time></trkpt><trkpt lat="42.7819902" lon="12.868973"><ele>324.66666666666663</ele><time>2026-04-25T15:11:04.448Z</time></trkpt><trkpt lat="42.7821125" lon="12.8691227"><ele>324.3333333333333</ele><time>2026-04-25T15:11:05.448Z</time></trkpt><trkpt lat="42.7822404" lon="12.8692546"><ele>324.0</ele><time>2026-04-25T15:11:06.448Z</time></trkpt><trkpt lat="42.7823749" lon="12.8693807"><ele>324.0</ele><time>2026-04-25T15:11:07.448Z</time></trkpt><trkpt lat="42.782513" lon="12.8695074"><ele>324.0</ele><time>2026-04-25T15:11:08.449Z</time></trkpt><trkpt lat="42.7826464" lon="12.8696402"><ele>324.0</ele><time>2026-04-25T15:11:09.448Z</time></trkpt><trkpt lat="42.7827791" lon="12.8697785"><ele>326.0</ele><time>2026-04-25T15:11:10.449Z</time></trkpt><trkpt lat="42.7828969" lon="12.8699163"><ele>328.0</ele><time>2026-04-25T15:11:11.449Z</time></trkpt><trkpt lat="42.7829951" lon="12.8700812"><ele>330.0</ele><time>2026-04-25T15:11:12.448Z</time></trkpt><trkpt lat="42.7830761" lon="12.8702593"><ele>331.3333333333333</ele><time>2026-04-25T15:11:13.449Z</time></trkpt><trkpt lat="42.783152" lon="12.8704497"><ele>332.66666666666663</ele><time>2026-04-25T15:11:14.448Z</time></trkpt><trkpt lat="42.7832191" lon="12.8706517"><ele>334.0</ele><time>2026-04-25T15:11:15.448Z</time></trkpt><trkpt lat="42.7832849" lon="12.8708562"><ele>333.3333333333333</ele><time>2026-04-25T15:11:16.449Z</time></trkpt><trkpt lat="42.7833508" lon="12.8710617"><ele>332.6666666666667</ele><time>2026-04-25T15:11:17.448Z</time></trkpt><trkpt lat="42.7834059" lon="12.8712631"><ele>332.0</ele><time>2026-04-25T15:11:18.449Z</time></trkpt><trkpt lat="42.7834497" lon="12.8714677"><ele>332.0</ele><time>2026-04-25T15:11:19.448Z</time></trkpt><trkpt lat="42.7834795" lon="12.8716813"><ele>332.0</ele><time>2026-04-25T15:11:20.448Z</time></trkpt><trkpt lat="42.7834814" lon="12.8719022"><ele>332.0</ele><time>2026-04-25T15:11:21.449Z</time></trkpt><trkpt lat="42.7834784" lon="12.8721272"><ele>332.0</ele><time>2026-04-25T15:11:22.448Z</time></trkpt><trkpt lat="42.7834781" lon="12.8723508"><ele>332.0</ele><time>2026-04-25T15:11:23.448Z</time></trkpt><trkpt lat="42.7834812" lon="12.8725701"><ele>332.0</ele><time>2026-04-25T15:11:24.448Z</time></trkpt><trkpt lat="42.7834804" lon="12.8727672"><ele>331.0</ele><time>2026-04-25T15:11:25.448Z</time></trkpt><trkpt lat="42.7834925" lon="12.8729535"><ele>330.0</ele><time>2026-04-25T15:11:26.449Z</time></trkpt><trkpt lat="42.7835137" lon="12.873128"><ele>329.0</ele><time>2026-04-25T15:11:27.449Z</time></trkpt><trkpt lat="42.7835851" lon="12.8732708"><ele>328.0</ele><time>2026-04-25T15:11:28.448Z</time></trkpt><trkpt lat="42.7836693" lon="12.8734009"><ele>327.25</ele><time>2026-04-25T15:11:29.448Z</time></trkpt><trkpt lat="42.7837765" lon="12.8735215"><ele>326.5</ele><time>2026-04-25T15:11:30.448Z</time></trkpt><trkpt lat="42.7838981" lon="12.8736339"><ele>325.75</ele><time>2026-04-25T15:11:31.448Z</time></trkpt><trkpt lat="42.7840292" lon="12.8737375"><ele>325.0</ele><time>2026-04-25T15:11:32.449Z</time></trkpt><trkpt lat="42.7841733" lon="12.8738187"><ele>325.0</ele><time>2026-04-25T15:11:33.448Z</time></trkpt><trkpt lat="42.7843191" lon="12.8738738"><ele>325.0</ele><time>2026-04-25T15:11:34.449Z</time></trkpt><trkpt lat="42.7844679" lon="12.8738807"><ele>325.0</ele><time>2026-04-25T15:11:35.448Z</time></trkpt><trkpt lat="42.784643" lon="12.8738865"><ele>326.66666666666663</ele><time>2026-04-25T15:11:36.448Z</time></trkpt><trkpt lat="42.7848151" lon="12.8738813"><ele>328.3333333333333</ele><time>2026-04-25T15:11:37.448Z</time></trkpt><trkpt lat="42.7849933" lon="12.8738775"><ele>330.0</ele><time>2026-04-25T15:11:38.448Z</time></trkpt><trkpt lat="42.7851536" lon="12.8738774"><ele>331.6666666666667</ele><time>2026-04-25T15:11:39.448Z</time></trkpt><trkpt lat="42.7853181" lon="12.8738913"><ele>333.33333333333337</ele><time>2026-04-25T15:11:40.448Z</time></trkpt><trkpt lat="42.7854783" lon="12.8739198"><ele>335.0</ele><time>2026-04-25T15:11:41.448Z</time></trkpt><trkpt lat="42.7856492" lon="12.8739685"><ele>335.0</ele><time>2026-04-25T15:11:42.448Z</time></trkpt><trkpt lat="42.7858083" lon="12.8740353"><ele>335.0</ele><time>2026-04-25T15:11:43.448Z</time></trkpt><trkpt lat="42.7859608" lon="12.8741096"><ele>335.0</ele><time>2026-04-25T15:11:44.448Z</time></trkpt><trkpt lat="42.7861045" lon="12.8741861"><ele>336.0</ele><time>2026-04-25T15:11:45.448Z</time></trkpt><trkpt lat="42.7862302" lon="12.8742726"><ele>337.0</ele><time>2026-04-25T15:11:46.449Z</time></trkpt><trkpt lat="42.7863488" lon="12.8743756"><ele>338.0</ele><time>2026-04-25T15:11:47.448Z</time></trkpt><trkpt lat="42.7864586" lon="12.8744933"><ele>339.0</ele><time>2026-04-25T15:11:48.448Z</time></trkpt><trkpt lat="42.7865595" lon="12.8746317"><ele>339.0</ele><time>2026-04-25T15:11:49.448Z</time></trkpt><trkpt lat="42.7866445" lon="12.8747724"><ele>339.0</ele><time>2026-04-25T15:11:50.448Z</time></trkpt><trkpt lat="42.7867178" lon="12.8749324"><ele>339.0</ele><time>2026-04-25T15:11:51.449Z</time></trkpt><trkpt lat="42.7867828" lon="12.8750993"><ele>339.0</ele><time>2026-04-25T15:11:52.448Z</time></trkpt><trkpt lat="42.7868312" lon="12.8752706"><ele>347.5</ele><time>2026-04-25T15:11:53.449Z</time></trkpt><trkpt lat="42.7868834" lon="12.8754374"><ele>356.0</ele><time>2026-04-25T15:11:54.448Z</time></trkpt><trkpt lat="42.7869227" lon="12.8756127"><ele>364.5</ele><time>2026-04-25T15:11:55.448Z</time></trkpt><trkpt lat="42.7869627" lon="12.8757994"><ele>373.0</ele><time>2026-04-25T15:11:56.448Z</time></trkpt><trkpt lat="42.7870028" lon="12.8759856"><ele>373.0</ele><time>2026-04-25T15:11:57.448Z</time></trkpt><trkpt lat="42.7870424" lon="12.8761774"><ele>373.0</ele><time>2026-04-25T15:11:58.448Z</time></trkpt><trkpt lat="42.7870828" lon="12.8763697"><ele>373.0</ele><time>2026-04-25T15:11:59.448Z</time></trkpt><trkpt lat="42.7871309" lon="12.8765745"><ele>364.0</ele><time>2026-04-25T15:12:00.448Z</time></trkpt><trkpt lat="42.7871825" lon="12.8767789"><ele>355.0</ele><time>2026-04-25T15:12:01.448Z</time></trkpt><trkpt lat="42.7872393" lon="12.8769786"><ele>346.0</ele><time>2026-04-25T15:12:02.448Z</time></trkpt><trkpt lat="42.7873029" lon="12.8772111"><ele>346.0</ele><time>2026-04-25T15:12:03.448Z</time></trkpt><trkpt lat="42.7873611" lon="12.8774177"><ele>346.0</ele><time>2026-04-25T15:12:04.448Z</time></trkpt><trkpt lat="42.787426" lon="12.877625"><ele>346.0</ele><time>2026-04-25T15:12:05.448Z</time></trkpt><trkpt lat="42.78749" lon="12.8778355"><ele>341.66666666666663</ele><time>2026-04-25T15:12:06.448Z</time></trkpt><trkpt lat="42.787555" lon="12.878048"><ele>337.3333333333333</ele><time>2026-04-25T15:12:07.448Z</time></trkpt><trkpt lat="42.7876195" lon="12.8782637"><ele>333.0</ele><time>2026-04-25T15:12:08.448Z</time></trkpt><trkpt lat="42.7876828" lon="12.8784796"><ele>346.0</ele><time>2026-04-25T15:12:09.448Z</time></trkpt><trkpt lat="42.7877479" lon="12.8786987"><ele>359.0</ele><time>2026-04-25T15:12:10.449Z</time></trkpt><trkpt lat="42.787816" lon="12.878917"><ele>372.0</ele><time>2026-04-25T15:12:11.448Z</time></trkpt><trkpt lat="42.7878816" lon="12.8791397"><ele>364.3333333333333</ele><time>2026-04-25T15:12:12.448Z</time></trkpt><trkpt lat="42.7879509" lon="12.8793615"><ele>356.66666666666663</ele><time>2026-04-25T15:12:13.448Z</time></trkpt><trkpt lat="42.7880146" lon="12.8795745"><ele>349.0</ele><time>2026-04-25T15:12:14.448Z</time></trkpt><trkpt lat="42.7880786" lon="12.8797765"><ele>349.0</ele><time>2026-04-25T15:12:15.449Z</time></trkpt><trkpt lat="42.7881443" lon="12.8799585"><ele>349.0</ele><time>2026-04-25T15:12:16.448Z</time></trkpt><trkpt lat="42.7882227" lon="12.8801205"><ele>349.0</ele><time>2026-04-25T15:12:17.448Z</time></trkpt><trkpt lat="42.7883202" lon="12.8802638"><ele>349.0</ele><time>2026-04-25T15:12:18.448Z</time></trkpt><trkpt lat="42.7884326" lon="12.8803894"><ele>345.0</ele><time>2026-04-25T15:12:19.449Z</time></trkpt><trkpt lat="42.7885753" lon="12.8804762"><ele>341.0</ele><time>2026-04-25T15:12:20.448Z</time></trkpt><trkpt lat="42.7887268" lon="12.8805451"><ele>337.0</ele><time>2026-04-25T15:12:21.448Z</time></trkpt><trkpt lat="42.7888876" lon="12.880615"><ele>337.0</ele><time>2026-04-25T15:12:22.448Z</time></trkpt><trkpt lat="42.789044" lon="12.8806869"><ele>337.0</ele><time>2026-04-25T15:12:23.448Z</time></trkpt><trkpt lat="42.7891954" lon="12.8807927"><ele>337.0</ele><time>2026-04-25T15:12:24.448Z</time></trkpt><trkpt lat="42.7893406" lon="12.8809173"><ele>340.0</ele><time>2026-04-25T15:12:25.448Z</time></trkpt><trkpt lat="42.7894788" lon="12.8810639"><ele>343.0</ele><time>2026-04-25T15:12:26.448Z</time></trkpt><trkpt lat="42.7896127" lon="12.8812223"><ele>346.0</ele><time>2026-04-25T15:12:27.448Z</time></trkpt><trkpt lat="42.7897523" lon="12.8813837"><ele>346.0</ele><time>2026-04-25T15:12:28.448Z</time></trkpt><trkpt lat="42.789891" lon="12.881543"><ele>346.0</ele><time>2026-04-25T15:12:29.449Z</time></trkpt><trkpt lat="42.7900287" lon="12.8817149"><ele>346.0</ele><time>2026-04-25T15:12:30.448Z</time></trkpt><trkpt lat="42.7901712" lon="12.8818869"><ele>349.0</ele><time>2026-04-25T15:12:31.448Z</time></trkpt><trkpt lat="42.7903068" lon="12.8820649"><ele>352.0</ele><time>2026-04-25T15:12:32.449Z</time></trkpt><trkpt lat="42.790435" lon="12.8822538"><ele>355.0</ele><time>2026-04-25T15:12:33.449Z</time></trkpt><trkpt lat="42.7905633" lon="12.8824445"><ele>350.66666666666663</ele><time>2026-04-25T15:12:34.448Z</time></trkpt><trkpt lat="42.7906832" lon="12.8826426"><ele>346.3333333333333</ele><time>2026-04-25T15:12:35.448Z</time></trkpt><trkpt lat="42.7907966" lon="12.8828405"><ele>342.0</ele><time>2026-04-25T15:12:36.448Z</time></trkpt><trkpt lat="42.7908951" lon="12.8830294"><ele>342.0</ele><time>2026-04-25T15:12:37.448Z</time></trkpt><trkpt lat="42.790974" lon="12.8832205"><ele>342.0</ele><time>2026-04-25T15:12:38.448Z</time></trkpt><trkpt lat="42.7910309" lon="12.883423"><ele>342.0</ele><time>2026-04-25T15:12:39.448Z</time></trkpt><trkpt lat="42.7910588" lon="12.8836355"><ele>353.6666666666667</ele><time>2026-04-25T15:12:40.448Z</time></trkpt><trkpt lat="42.7910634" lon="12.8838547"><ele>365.33333333333337</ele><time>2026-04-25T15:12:41.448Z</time></trkpt><trkpt lat="42.7910592" lon="12.8840881"><ele>377.0</ele><time>2026-04-25T15:12:42.448Z</time></trkpt><trkpt lat="42.7910633" lon="12.8843194"><ele>377.33333333333337</ele><time>2026-04-25T15:12:43.448Z</time></trkpt><trkpt lat="42.7910541" lon="12.884556"><ele>377.6666666666667</ele><time>2026-04-25T15:12:44.448Z</time></trkpt><trkpt lat="42.7910488" lon="12.8847785"><ele>378.0</ele><time>2026-04-25T15:12:45.449Z</time></trkpt><trkpt lat="42.7910406" lon="12.884987"><ele>373.25</ele><time>2026-04-25T15:12:46.448Z</time></trkpt><trkpt lat="42.7910388" lon="12.885182"><ele>368.5</ele><time>2026-04-25T15:12:47.449Z</time></trkpt><trkpt lat="42.791045" lon="12.8853729"><ele>363.75</ele><time>2026-04-25T15:12:48.448Z</time></trkpt><trkpt lat="42.7910774" lon="12.8855492"><ele>359.0</ele><time>2026-04-25T15:12:49.448Z</time></trkpt><trkpt lat="42.7911482" lon="12.885718"><ele>359.0</ele><time>2026-04-25T15:12:50.448Z</time></trkpt><trkpt lat="42.7912409" lon="12.8858615"><ele>359.0</ele><time>2026-04-25T15:12:51.448Z</time></trkpt><trkpt lat="42.7913568" lon="12.8859973"><ele>359.0</ele><time>2026-04-25T15:12:52.448Z</time></trkpt><trkpt lat="42.791483" lon="12.8861348"><ele>363.0</ele><time>2026-04-25T15:12:53.448Z</time></trkpt><trkpt lat="42.7916182" lon="12.8862815"><ele>367.0</ele><time>2026-04-25T15:12:54.448Z</time></trkpt><trkpt lat="42.7917533" lon="12.8864365"><ele>371.0</ele><time>2026-04-25T15:12:55.448Z</time></trkpt><trkpt lat="42.7918991" lon="12.8865959"><ele>361.0</ele><time>2026-04-25T15:12:56.448Z</time></trkpt><trkpt lat="42.7920459" lon="12.886762"><ele>351.0</ele><time>2026-04-25T15:12:57.448Z</time></trkpt><trkpt lat="42.7922197" lon="12.886927"><ele>341.0</ele><time>2026-04-25T15:12:58.448Z</time></trkpt><trkpt lat="42.7923824" lon="12.8870704"><ele>341.0</ele><time>2026-04-25T15:12:59.448Z</time></trkpt><trkpt lat="42.7925455" lon="12.8871956"><ele>341.0</ele><time>2026-04-25T15:13:00.448Z</time></trkpt><trkpt lat="42.7927097" lon="12.8873118"><ele>341.0</ele><time>2026-04-25T15:13:01.448Z</time></trkpt><trkpt lat="42.7928897" lon="12.8874092"><ele>339.6666666666667</ele><time>2026-04-25T15:13:02.448Z</time></trkpt><trkpt lat="42.7930851" lon="12.8874985"><ele>338.3333333333333</ele><time>2026-04-25T15:13:03.448Z</time></trkpt><trkpt lat="42.7932835" lon="12.8875817"><ele>337.0</ele><time>2026-04-25T15:13:04.448Z</time></trkpt><trkpt lat="42.7934843" lon="12.8876606"><ele>337.66666666666663</ele><time>2026-04-25T15:13:05.449Z</time></trkpt><trkpt lat="42.7936764" lon="12.8877354"><ele>338.3333333333333</ele><time>2026-04-25T15:13:06.448Z</time></trkpt><trkpt lat="42.7938828" lon="12.8878114"><ele>339.0</ele><time>2026-04-25T15:13:07.448Z</time></trkpt><trkpt lat="42.7940916" lon="12.8878883"><ele>339.0</ele><time>2026-04-25T15:13:08.449Z</time></trkpt><trkpt lat="42.7943019" lon="12.887965"><ele>339.0</ele><time>2026-04-25T15:13:09.448Z</time></trkpt><trkpt lat="42.7945133" lon="12.8880409"><ele>339.0</ele><time>2026-04-25T15:13:10.448Z</time></trkpt><trkpt lat="42.7947244" lon="12.8881154"><ele>340.3333333333333</ele><time>2026-04-25T15:13:11.449Z</time></trkpt><trkpt lat="42.7949328" lon="12.8881854"><ele>341.66666666666663</ele><time>2026-04-25T15:13:12.448Z</time></trkpt><trkpt lat="42.7951393" lon="12.8882555"><ele>343.0</ele><time>2026-04-25T15:13:13.448Z</time></trkpt><trkpt lat="42.7953425" lon="12.8883087"><ele>342.0</ele><time>2026-04-25T15:13:14.448Z</time></trkpt><trkpt lat="42.7955453" lon="12.8883529"><ele>341.0</ele><time>2026-04-25T15:13:15.448Z</time></trkpt><trkpt lat="42.7957332" lon="12.8884022"><ele>340.0</ele><time>2026-04-25T15:13:16.448Z</time></trkpt><trkpt lat="42.7959184" lon="12.8884387"><ele>341.3333333333333</ele><time>2026-04-25T15:13:17.448Z</time></trkpt><trkpt lat="42.7960957" lon="12.8884909"><ele>342.6666666666667</ele><time>2026-04-25T15:13:18.448Z</time></trkpt><trkpt lat="42.7962562" lon="12.8885634"><ele>344.0</ele><time>2026-04-25T15:13:19.448Z</time></trkpt><trkpt lat="42.7964166" lon="12.8886583"><ele>344.0</ele><time>2026-04-25T15:13:20.448Z</time></trkpt><trkpt lat="42.7965717" lon="12.8887744"><ele>344.0</ele><time>2026-04-25T15:13:21.448Z</time></trkpt><trkpt lat="42.7967339" lon="12.8889028"><ele>344.0</ele><time>2026-04-25T15:13:22.449Z</time></trkpt><trkpt lat="42.7968993" lon="12.8890355"><ele>344.33333333333337</ele><time>2026-04-25T15:13:23.449Z</time></trkpt><trkpt lat="42.7970659" lon="12.8891735"><ele>344.6666666666667</ele><time>2026-04-25T15:13:24.448Z</time></trkpt><trkpt lat="42.7972332" lon="12.8893139"><ele>345.0</ele><time>2026-04-25T15:13:25.448Z</time></trkpt><trkpt lat="42.7973936" lon="12.8894498"><ele>345.0</ele><time>2026-04-25T15:13:26.449Z</time></trkpt><trkpt lat="42.797556" lon="12.8895882"><ele>345.0</ele><time>2026-04-25T15:13:27.448Z</time></trkpt><trkpt lat="42.7977078" lon="12.8897216"><ele>345.0</ele><time>2026-04-25T15:13:28.448Z</time></trkpt><trkpt lat="42.7978639" lon="12.889865"><ele>350.0</ele><time>2026-04-25T15:13:29.449Z</time></trkpt><trkpt lat="42.7979921" lon="12.8900142"><ele>355.0</ele><time>2026-04-25T15:13:30.448Z</time></trkpt><trkpt lat="42.7981116" lon="12.8901861"><ele>360.0</ele><time>2026-04-25T15:13:31.449Z</time></trkpt><trkpt lat="42.798214" lon="12.8903795"><ele>361.3333333333333</ele><time>2026-04-25T15:13:32.449Z</time></trkpt><trkpt lat="42.7983094" lon="12.8905845"><ele>362.66666666666663</ele><time>2026-04-25T15:13:33.448Z</time></trkpt><trkpt lat="42.7983971" lon="12.8908135"><ele>364.0</ele><time>2026-04-25T15:13:34.448Z</time></trkpt><trkpt lat="42.798472" lon="12.8910556"><ele>372.3333333333333</ele><time>2026-04-25T15:13:35.448Z</time></trkpt><trkpt lat="42.7985396" lon="12.8913051"><ele>380.66666666666663</ele><time>2026-04-25T15:13:36.448Z</time></trkpt><trkpt lat="42.7986066" lon="12.8915644"><ele>389.0</ele><time>2026-04-25T15:13:37.448Z</time></trkpt><trkpt lat="42.7986629" lon="12.8918255"><ele>389.0</ele><time>2026-04-25T15:13:38.449Z</time></trkpt><trkpt lat="42.7987018" lon="12.8920972"><ele>389.0</ele><time>2026-04-25T15:13:39.448Z</time></trkpt><trkpt lat="42.7987336" lon="12.8923765"><ele>389.0</ele><time>2026-04-25T15:13:40.448Z</time></trkpt><trkpt lat="42.7987568" lon="12.8926589"><ele>387.66666666666663</ele><time>2026-04-25T15:13:41.448Z</time></trkpt><trkpt lat="42.7987787" lon="12.8929546"><ele>386.33333333333337</ele><time>2026-04-25T15:13:42.448Z</time></trkpt><trkpt lat="42.7987866" lon="12.8932474"><ele>385.0</ele><time>2026-04-25T15:13:43.448Z</time></trkpt><trkpt lat="42.7987983" lon="12.8935343"><ele>382.6666666666667</ele><time>2026-04-25T15:13:44.448Z</time></trkpt><trkpt lat="42.7988099" lon="12.8938035"><ele>380.33333333333337</ele><time>2026-04-25T15:13:45.448Z</time></trkpt><trkpt lat="42.7988197" lon="12.8940501"><ele>378.0</ele><time>2026-04-25T15:13:46.448Z</time></trkpt><trkpt lat="42.798831" lon="12.8942808"><ele>371.6666666666667</ele><time>2026-04-25T15:13:47.448Z</time></trkpt><trkpt lat="42.7988701" lon="12.894498"><ele>365.33333333333337</ele><time>2026-04-25T15:13:48.448Z</time></trkpt><trkpt lat="42.7989266" lon="12.8946991"><ele>359.0</ele><time>2026-04-25T15:13:49.448Z</time></trkpt><trkpt lat="42.799015" lon="12.8948995"><ele>354.0</ele><time>2026-04-25T15:13:50.448Z</time></trkpt><trkpt lat="42.7991158" lon="12.8950879"><ele>349.0</ele><time>2026-04-25T15:13:51.448Z</time></trkpt><trkpt lat="42.79922" lon="12.8952801"><ele>344.0</ele><time>2026-04-25T15:13:52.448Z</time></trkpt><trkpt lat="42.7993331" lon="12.895471"><ele>345.33333333333337</ele><time>2026-04-25T15:13:53.448Z</time></trkpt><trkpt lat="42.7994559" lon="12.8956538"><ele>346.6666666666667</ele><time>2026-04-25T15:13:54.448Z</time></trkpt><trkpt lat="42.7995824" lon="12.8958183"><ele>348.0</ele><time>2026-04-25T15:13:55.448Z</time></trkpt><trkpt lat="42.7997257" lon="12.8959618"><ele>348.0</ele><time>2026-04-25T15:13:56.448Z</time></trkpt><trkpt lat="42.7998852" lon="12.8960841"><ele>348.0</ele><time>2026-04-25T15:13:57.448Z</time></trkpt><trkpt lat="42.800064" lon="12.8961724"><ele>348.0</ele><time>2026-04-25T15:13:58.449Z</time></trkpt><trkpt lat="42.8002495" lon="12.8962421"><ele>347.0</ele><time>2026-04-25T15:13:59.448Z</time></trkpt><trkpt lat="42.800454" lon="12.8962852"><ele>346.0</ele><time>2026-04-25T15:14:00.448Z</time></trkpt><trkpt lat="42.8006613" lon="12.8963152"><ele>345.0</ele><time>2026-04-25T15:14:01.448Z</time></trkpt><trkpt lat="42.8008705" lon="12.8963414"><ele>345.3333333333333</ele><time>2026-04-25T15:14:02.448Z</time></trkpt><trkpt lat="42.801083" lon="12.8963564"><ele>345.66666666666663</ele><time>2026-04-25T15:14:03.448Z</time></trkpt><trkpt lat="42.8012937" lon="12.8963538"><ele>346.0</ele><time>2026-04-25T15:14:04.449Z</time></trkpt><trkpt lat="42.8014933" lon="12.8963346"><ele>346.0</ele><time>2026-04-25T15:14:05.448Z</time></trkpt><trkpt lat="42.801691" lon="12.8962952"><ele>346.0</ele><time>2026-04-25T15:14:06.448Z</time></trkpt><trkpt lat="42.8018667" lon="12.8962605"><ele>346.0</ele><time>2026-04-25T15:14:07.448Z</time></trkpt><trkpt lat="42.8020392" lon="12.8962116"><ele>348.0</ele><time>2026-04-25T15:14:08.448Z</time></trkpt><trkpt lat="42.8021863" lon="12.8961797"><ele>350.0</ele><time>2026-04-25T15:14:09.448Z</time></trkpt><trkpt lat="42.802342" lon="12.8961881"><ele>352.0</ele><time>2026-04-25T15:14:10.448Z</time></trkpt><trkpt lat="42.8025047" lon="12.8962368"><ele>352.0</ele><time>2026-04-25T15:14:11.449Z</time></trkpt><trkpt lat="42.8026529" lon="12.8963093"><ele>352.0</ele><time>2026-04-25T15:14:12.448Z</time></trkpt><trkpt lat="42.8027828" lon="12.8964308"><ele>352.0</ele><time>2026-04-25T15:14:13.449Z</time></trkpt><trkpt lat="42.8028987" lon="12.8965996"><ele>352.0</ele><time>2026-04-25T15:14:14.449Z</time></trkpt><trkpt lat="42.8030062" lon="12.8967944"><ele>352.0</ele><time>2026-04-25T15:14:15.449Z</time></trkpt><trkpt lat="42.8031228" lon="12.8969895"><ele>352.0</ele><time>2026-04-25T15:14:16.448Z</time></trkpt><trkpt lat="42.8032371" lon="12.8972002"><ele>352.0</ele><time>2026-04-25T15:14:17.448Z</time></trkpt><trkpt lat="42.8033463" lon="12.8973959"><ele>352.0</ele><time>2026-04-25T15:14:18.448Z</time></trkpt><trkpt lat="42.8034504" lon="12.8975765"><ele>352.0</ele><time>2026-04-25T15:14:19.448Z</time></trkpt><trkpt lat="42.8035483" lon="12.897742"><ele>351.3333333333333</ele><time>2026-04-25T15:14:20.448Z</time></trkpt><trkpt lat="42.8036631" lon="12.8978735"><ele>350.6666666666667</ele><time>2026-04-25T15:14:21.448Z</time></trkpt><trkpt lat="42.8038003" lon="12.8979751"><ele>350.0</ele><time>2026-04-25T15:14:22.448Z</time></trkpt><trkpt lat="42.8039519" lon="12.8980351"><ele>350.0</ele><time>2026-04-25T15:14:23.448Z</time></trkpt><trkpt lat="42.8041116" lon="12.8980539"><ele>350.0</ele><time>2026-04-25T15:14:24.449Z</time></trkpt><trkpt lat="42.8042911" lon="12.8980301"><ele>350.0</ele><time>2026-04-25T15:14:25.449Z</time></trkpt><trkpt lat="42.8044892" lon="12.8979932"><ele>350.6666666666667</ele><time>2026-04-25T15:14:26.449Z</time></trkpt><trkpt lat="42.8046766" lon="12.8979766"><ele>351.3333333333333</ele><time>2026-04-25T15:14:27.448Z</time></trkpt><trkpt lat="42.8048783" lon="12.8979616"><ele>352.0</ele><time>2026-04-25T15:14:28.448Z</time></trkpt><trkpt lat="42.8050695" lon="12.8979499"><ele>350.66666666666663</ele><time>2026-04-25T15:14:29.448Z</time></trkpt><trkpt lat="42.805252" lon="12.8979476"><ele>349.3333333333333</ele><time>2026-04-25T15:14:30.449Z</time></trkpt><trkpt lat="42.8054289" lon="12.8979421"><ele>348.0</ele><time>2026-04-25T15:14:31.448Z</time></trkpt><trkpt lat="42.8055936" lon="12.8979326"><ele>348.0</ele><time>2026-04-25T15:14:32.448Z</time></trkpt><trkpt lat="42.8057573" lon="12.8979018"><ele>348.0</ele><time>2026-04-25T15:14:33.449Z</time></trkpt><trkpt lat="42.8059179" lon="12.8978867"><ele>348.0</ele><time>2026-04-25T15:14:34.448Z</time></trkpt><trkpt lat="42.8060902" lon="12.8978981"><ele>349.0</ele><time>2026-04-25T15:14:35.448Z</time></trkpt><trkpt lat="42.8062656" lon="12.8979276"><ele>350.0</ele><time>2026-04-25T15:14:36.448Z</time></trkpt><trkpt lat="42.8064377" lon="12.897968"><ele>351.0</ele><time>2026-04-25T15:14:37.448Z</time></trkpt><trkpt lat="42.8066108" lon="12.8980065"><ele>351.0</ele><time>2026-04-25T15:14:38.449Z</time></trkpt><trkpt lat="42.8067834" lon="12.8980475"><ele>351.0</ele><time>2026-04-25T15:14:39.448Z</time></trkpt><trkpt lat="42.8069557" lon="12.8980923"><ele>351.0</ele><time>2026-04-25T15:14:40.448Z</time></trkpt><trkpt lat="42.8071186" lon="12.8981409"><ele>352.0</ele><time>2026-04-25T15:14:41.448Z</time></trkpt><trkpt lat="42.8072859" lon="12.8981824"><ele>353.0</ele><time>2026-04-25T15:14:42.448Z</time></trkpt><trkpt lat="42.8074568" lon="12.8982312"><ele>354.0</ele><time>2026-04-25T15:14:43.448Z</time></trkpt><trkpt lat="42.8076231" lon="12.8982759"><ele>354.3333333333333</ele><time>2026-04-25T15:14:44.448Z</time></trkpt><trkpt lat="42.8077902" lon="12.8983247"><ele>354.66666666666663</ele><time>2026-04-25T15:14:45.448Z</time></trkpt><trkpt lat="42.8079553" lon="12.8983715"><ele>355.0</ele><time>2026-04-25T15:14:46.448Z</time></trkpt><trkpt lat="42.8081211" lon="12.8984191"><ele>355.0</ele><time>2026-04-25T15:14:47.448Z</time></trkpt><trkpt lat="42.8082796" lon="12.8984843"><ele>355.0</ele><time>2026-04-25T15:14:48.448Z</time></trkpt><trkpt lat="42.8084337" lon="12.8985712"><ele>355.0</ele><time>2026-04-25T15:14:49.448Z</time></trkpt><trkpt lat="42.8085809" lon="12.8986739"><ele>362.0</ele><time>2026-04-25T15:14:50.448Z</time></trkpt><trkpt lat="42.8087158" lon="12.8987903"><ele>369.0</ele><time>2026-04-25T15:14:51.449Z</time></trkpt><trkpt lat="42.8088387" lon="12.8989258"><ele>376.0</ele><time>2026-04-25T15:14:52.448Z</time></trkpt><trkpt lat="42.8089509" lon="12.8990863"><ele>370.3333333333333</ele><time>2026-04-25T15:14:53.448Z</time></trkpt><trkpt lat="42.8090441" lon="12.8992657"><ele>364.6666666666667</ele><time>2026-04-25T15:14:54.448Z</time></trkpt><trkpt lat="42.8091202" lon="12.8994591"><ele>359.0</ele><time>2026-04-25T15:14:55.448Z</time></trkpt><trkpt lat="42.8091804" lon="12.8996598"><ele>359.0</ele><time>2026-04-25T15:14:56.448Z</time></trkpt><trkpt lat="42.8092157" lon="12.8998671"><ele>359.0</ele><time>2026-04-25T15:14:57.448Z</time></trkpt><trkpt lat="42.8092266" lon="12.9000725"><ele>359.0</ele><time>2026-04-25T15:14:58.448Z</time></trkpt><trkpt lat="42.8092189" lon="12.9002766"><ele>362.0</ele><time>2026-04-25T15:14:59.449Z</time></trkpt><trkpt lat="42.8091793" lon="12.9004874"><ele>365.0</ele><time>2026-04-25T15:15:00.449Z</time></trkpt><trkpt lat="42.8091242" lon="12.9006956"><ele>368.0</ele><time>2026-04-25T15:15:01.448Z</time></trkpt><trkpt lat="42.8090587" lon="12.9008913"><ele>370.5</ele><time>2026-04-25T15:15:02.448Z</time></trkpt><trkpt lat="42.8089883" lon="12.9010846"><ele>373.0</ele><time>2026-04-25T15:15:03.448Z</time></trkpt><trkpt lat="42.8089266" lon="12.9012833"><ele>375.5</ele><time>2026-04-25T15:15:04.448Z</time></trkpt><trkpt lat="42.8088843" lon="12.9014487"><ele>378.0</ele><time>2026-04-25T15:15:05.448Z</time></trkpt><trkpt lat="42.8088702" lon="12.901678"><ele>378.0</ele><time>2026-04-25T15:15:06.448Z</time></trkpt><trkpt lat="42.8088564" lon="12.9019056"><ele>378.0</ele><time>2026-04-25T15:15:07.448Z</time></trkpt><trkpt lat="42.8088696" lon="12.9021386"><ele>378.0</ele><time>2026-04-25T15:15:08.448Z</time></trkpt><trkpt lat="42.8088889" lon="12.9023695"><ele>376.3333333333333</ele><time>2026-04-25T15:15:09.448Z</time></trkpt><trkpt lat="42.8089125" lon="12.9025947"><ele>374.66666666666663</ele><time>2026-04-25T15:15:10.448Z</time></trkpt><trkpt lat="42.8089465" lon="12.9028257"><ele>373.0</ele><time>2026-04-25T15:15:11.449Z</time></trkpt><trkpt lat="42.8089629" lon="12.9030526"><ele>373.0</ele><time>2026-04-25T15:15:12.448Z</time></trkpt><trkpt lat="42.8089787" lon="12.9032707"><ele>373.0</ele><time>2026-04-25T15:15:13.449Z</time></trkpt><trkpt lat="42.8089915" lon="12.9034842"><ele>373.0</ele><time>2026-04-25T15:15:14.448Z</time></trkpt><trkpt lat="42.8089964" lon="12.9036874"><ele>373.0</ele><time>2026-04-25T15:15:15.448Z</time></trkpt><trkpt lat="42.8089842" lon="12.9038759"><ele>373.0</ele><time>2026-04-25T15:15:16.448Z</time></trkpt><trkpt lat="42.8089704" lon="12.9040613"><ele>373.0</ele><time>2026-04-25T15:15:17.448Z</time></trkpt><trkpt lat="42.8089566" lon="12.9042409"><ele>373.0</ele><time>2026-04-25T15:15:18.448Z</time></trkpt><trkpt lat="42.8089418" lon="12.9044136"><ele>373.0</ele><time>2026-04-25T15:15:19.448Z</time></trkpt><trkpt lat="42.8089118" lon="12.9045894"><ele>373.0</ele><time>2026-04-25T15:15:20.448Z</time></trkpt><trkpt lat="42.8088968" lon="12.904769"><ele>373.0</ele><time>2026-04-25T15:15:21.448Z</time></trkpt><trkpt lat="42.8088837" lon="12.9049445"><ele>373.0</ele><time>2026-04-25T15:15:22.448Z</time></trkpt><trkpt lat="42.808886" lon="12.9051182"><ele>371.5</ele><time>2026-04-25T15:15:23.448Z</time></trkpt><trkpt lat="42.8089075" lon="12.9052961"><ele>370.0</ele><time>2026-04-25T15:15:24.449Z</time></trkpt><trkpt lat="42.8089424" lon="12.9054641"><ele>368.5</ele><time>2026-04-25T15:15:25.448Z</time></trkpt><trkpt lat="42.8089914" lon="12.9056238"><ele>367.0</ele><time>2026-04-25T15:15:26.448Z</time></trkpt><trkpt lat="42.8090587" lon="12.9057759"><ele>364.5</ele><time>2026-04-25T15:15:27.448Z</time></trkpt><trkpt lat="42.8091386" lon="12.9059261"><ele>362.0</ele><time>2026-04-25T15:15:28.449Z</time></trkpt><trkpt lat="42.8092211" lon="12.906084"><ele>359.5</ele><time>2026-04-25T15:15:29.448Z</time></trkpt><trkpt lat="42.8093134" lon="12.9062458"><ele>357.0</ele><time>2026-04-25T15:15:30.449Z</time></trkpt><trkpt lat="42.8094019" lon="12.9064089"><ele>364.3333333333333</ele><time>2026-04-25T15:15:31.448Z</time></trkpt><trkpt lat="42.8094797" lon="12.9065862"><ele>371.66666666666663</ele><time>2026-04-25T15:15:32.448Z</time></trkpt><trkpt lat="42.8095424" lon="12.9067807"><ele>379.0</ele><time>2026-04-25T15:15:33.448Z</time></trkpt><trkpt lat="42.8095894" lon="12.90699"><ele>379.0</ele><time>2026-04-25T15:15:34.448Z</time></trkpt><trkpt lat="42.8096302" lon="12.9072062"><ele>379.0</ele><time>2026-04-25T15:15:35.448Z</time></trkpt><trkpt lat="42.809662" lon="12.907427"><ele>379.0</ele><time>2026-04-25T15:15:36.449Z</time></trkpt><trkpt lat="42.8096919" lon="12.9076671"><ele>376.66666666666663</ele><time>2026-04-25T15:15:37.449Z</time></trkpt><trkpt lat="42.8097397" lon="12.9078957"><ele>374.3333333333333</ele><time>2026-04-25T15:15:38.449Z</time></trkpt><trkpt lat="42.8097713" lon="12.9081331"><ele>372.0</ele><time>2026-04-25T15:15:39.448Z</time></trkpt><trkpt lat="42.8098028" lon="12.9083711"><ele>369.3333333333333</ele><time>2026-04-25T15:15:40.448Z</time></trkpt><trkpt lat="42.809835" lon="12.9086033"><ele>366.66666666666663</ele><time>2026-04-25T15:15:41.448Z</time></trkpt><trkpt lat="42.8098782" lon="12.9088111"><ele>364.0</ele><time>2026-04-25T15:15:42.448Z</time></trkpt><trkpt lat="42.8099454" lon="12.9090019"><ele>364.0</ele><time>2026-04-25T15:15:43.448Z</time></trkpt><trkpt lat="42.8100437" lon="12.9091758"><ele>364.0</ele><time>2026-04-25T15:15:44.449Z</time></trkpt><trkpt lat="42.8101497" lon="12.9093259"><ele>364.0</ele><time>2026-04-25T15:15:45.448Z</time></trkpt><trkpt lat="42.81026" lon="12.9094674"><ele>368.0</ele><time>2026-04-25T15:15:46.448Z</time></trkpt><trkpt lat="42.8103558" lon="12.9096099"><ele>372.0</ele><time>2026-04-25T15:15:47.449Z</time></trkpt><trkpt lat="42.810474" lon="12.9097505"><ele>376.0</ele><time>2026-04-25T15:15:48.449Z</time></trkpt><trkpt lat="42.8105335" lon="12.9099252"><ele>380.0</ele><time>2026-04-25T15:15:49.448Z</time></trkpt><trkpt lat="42.8105724" lon="12.910115"><ele>380.0</ele><time>2026-04-25T15:15:50.448Z</time></trkpt><trkpt lat="42.8105848" lon="12.9103063"><ele>380.0</ele><time>2026-04-25T15:15:51.448Z</time></trkpt><trkpt lat="42.8105595" lon="12.910505"><ele>380.0</ele><time>2026-04-25T15:15:52.448Z</time></trkpt><trkpt lat="42.8105256" lon="12.9107082"><ele>380.0</ele><time>2026-04-25T15:15:53.448Z</time></trkpt><trkpt lat="42.8104926" lon="12.9109141"><ele>379.0</ele><time>2026-04-25T15:15:54.448Z</time></trkpt><trkpt lat="42.8104683" lon="12.9111174"><ele>378.0</ele><time>2026-04-25T15:15:55.448Z</time></trkpt><trkpt lat="42.8104432" lon="12.9113253"><ele>377.0</ele><time>2026-04-25T15:15:56.449Z</time></trkpt><trkpt lat="42.8104371" lon="12.911539"><ele>377.0</ele><time>2026-04-25T15:15:57.448Z</time></trkpt><trkpt lat="42.8104375" lon="12.9117332"><ele>377.0</ele><time>2026-04-25T15:15:58.448Z</time></trkpt><trkpt lat="42.8104466" lon="12.9119171"><ele>377.0</ele><time>2026-04-25T15:15:59.448Z</time></trkpt><trkpt lat="42.8104602" lon="12.9120929"><ele>377.0</ele><time>2026-04-25T15:16:00.448Z</time></trkpt><trkpt lat="42.8105141" lon="12.9122267"><ele>373.0</ele><time>2026-04-25T15:16:01.448Z</time></trkpt><trkpt lat="42.8105956" lon="12.9123588"><ele>369.0</ele><time>2026-04-25T15:16:02.448Z</time></trkpt><trkpt lat="42.8107549" lon="12.912433"><ele>365.0</ele><time>2026-04-25T15:16:03.448Z</time></trkpt><trkpt lat="42.8109017" lon="12.9125211"><ele>365.33333333333337</ele><time>2026-04-25T15:16:04.448Z</time></trkpt><trkpt lat="42.8110433" lon="12.9126337"><ele>365.6666666666667</ele><time>2026-04-25T15:16:05.448Z</time></trkpt><trkpt lat="42.8111815" lon="12.9127578"><ele>366.0</ele><time>2026-04-25T15:16:06.448Z</time></trkpt><trkpt lat="42.8113172" lon="12.9128971"><ele>366.0</ele><time>2026-04-25T15:16:07.448Z</time></trkpt><trkpt lat="42.8114407" lon="12.9130518"><ele>366.0</ele><time>2026-04-25T15:16:08.448Z</time></trkpt><trkpt lat="42.8115686" lon="12.913206"><ele>366.0</ele><time>2026-04-25T15:16:09.448Z</time></trkpt><trkpt lat="42.8117001" lon="12.9133506"><ele>364.0</ele><time>2026-04-25T15:16:10.448Z</time></trkpt><trkpt lat="42.8118312" lon="12.9134775"><ele>362.0</ele><time>2026-04-25T15:16:11.448Z</time></trkpt><trkpt lat="42.8119581" lon="12.9135457"><ele>360.0</ele><time>2026-04-25T15:16:12.448Z</time></trkpt><trkpt lat="42.8120891" lon="12.9135888"><ele>358.0</ele><time>2026-04-25T15:16:13.448Z</time></trkpt><trkpt lat="42.8121891" lon="12.9136386"><ele>358.00000000000006</ele><time>2026-04-25T15:16:14.448Z</time></trkpt><trkpt lat="42.8122751" lon="12.913676"><ele>358.0</ele><time>2026-04-25T15:16:15.448Z</time></trkpt><trkpt lat="42.8123506" lon="12.9137134"><ele>358.0</ele><time>2026-04-25T15:16:16.448Z</time></trkpt><trkpt lat="42.8124155" lon="12.9137497"><ele>358.0</ele><time>2026-04-25T15:16:17.449Z</time></trkpt><trkpt lat="42.812476" lon="12.9137818"><ele>358.0</ele><time>2026-04-25T15:16:18.449Z</time></trkpt><trkpt lat="42.8125412" lon="12.9138034"><ele>358.00000000000006</ele><time>2026-04-25T15:16:19.448Z</time></trkpt><trkpt lat="42.8126042" lon="12.9138257"><ele>358.0</ele><time>2026-04-25T15:16:20.448Z</time></trkpt><trkpt lat="42.8126726" lon="12.9138714"><ele>359.5</ele><time>2026-04-25T15:16:22.449Z</time></trkpt><trkpt lat="42.8127702" lon="12.9138093"><ele>361.0</ele><time>2026-04-25T15:16:54.448Z</time></trkpt><trkpt lat="42.8128617" lon="12.9138398"><ele>362.5</ele><time>2026-04-25T15:17:19.448Z</time></trkpt><trkpt lat="42.8129627" lon="12.9138895"><ele>364.0</ele><time>2026-04-25T15:17:21.448Z</time></trkpt><trkpt lat="42.8130226" lon="12.9139209"><ele>365.5</ele><time>2026-04-25T15:17:22.448Z</time></trkpt><trkpt lat="42.8130836" lon="12.9139516"><ele>367.0</ele><time>2026-04-25T15:17:23.448Z</time></trkpt><trkpt lat="42.8131465" lon="12.9139736"><ele>367.0</ele><time>2026-04-25T15:17:24.449Z</time></trkpt><trkpt lat="42.8132088" lon="12.9140014"><ele>367.0</ele><time>2026-04-25T15:17:25.448Z</time></trkpt><trkpt lat="42.8132817" lon="12.9140228"><ele>367.0</ele><time>2026-04-25T15:17:26.449Z</time></trkpt><trkpt lat="42.8133457" lon="12.9140513"><ele>367.0</ele><time>2026-04-25T15:17:27.449Z</time></trkpt><trkpt lat="42.8134752" lon="12.9141102"><ele>367.0</ele><time>2026-04-25T15:17:29.448Z</time></trkpt><trkpt lat="42.8135469" lon="12.9141403"><ele>367.0</ele><time>2026-04-25T15:17:30.448Z</time></trkpt><trkpt lat="42.8136148" lon="12.9141732"><ele>367.3333333333333</ele><time>2026-04-25T15:17:31.448Z</time></trkpt><trkpt lat="42.813683" lon="12.9142126"><ele>367.66666666666663</ele><time>2026-04-25T15:17:32.448Z</time></trkpt><trkpt lat="42.8137509" lon="12.9142576"><ele>368.0</ele><time>2026-04-25T15:17:33.449Z</time></trkpt><trkpt lat="42.8138192" lon="12.9143004"><ele>368.3333333333333</ele><time>2026-04-25T15:17:34.448Z</time></trkpt><trkpt lat="42.8138875" lon="12.9143416"><ele>368.6666666666667</ele><time>2026-04-25T15:17:35.448Z</time></trkpt><trkpt lat="42.8139613" lon="12.9143861"><ele>369.0</ele><time>2026-04-25T15:17:36.448Z</time></trkpt><trkpt lat="42.8140263" lon="12.9144383"><ele>367.7142857142857</ele><time>2026-04-25T15:17:37.448Z</time></trkpt><trkpt lat="42.8140821" lon="12.9144925"><ele>366.42857142857144</ele><time>2026-04-25T15:17:38.448Z</time></trkpt><trkpt lat="42.8141418" lon="12.9145399"><ele>365.1428571428571</ele><time>2026-04-25T15:17:39.448Z</time></trkpt><trkpt lat="42.814203" lon="12.9145831"><ele>363.8571428571429</ele><time>2026-04-25T15:17:40.448Z</time></trkpt><trkpt lat="42.8142658" lon="12.9146299"><ele>362.5714285714286</ele><time>2026-04-25T15:17:41.448Z</time></trkpt><trkpt lat="42.8143279" lon="12.9146786"><ele>361.2857142857143</ele><time>2026-04-25T15:17:42.448Z</time></trkpt><trkpt lat="42.8143844" lon="12.9147259"><ele>360.0</ele><time>2026-04-25T15:17:43.448Z</time></trkpt><trkpt lat="42.8144551" lon="12.914807"><ele>360.0</ele><time>2026-04-25T15:17:45.448Z</time></trkpt><trkpt lat="42.8145245" lon="12.9148452"><ele>360.0</ele><time>2026-04-25T15:17:48.448Z</time></trkpt><trkpt lat="42.8145808" lon="12.9147497"><ele>360.0</ele><time>2026-04-25T15:17:51.448Z</time></trkpt><trkpt lat="42.8146552" lon="12.9145903"><ele>360.0</ele><time>2026-04-25T15:17:53.448Z</time></trkpt><trkpt lat="42.8146927" lon="12.9144895"><ele>360.0</ele><time>2026-04-25T15:17:54.448Z</time></trkpt><trkpt lat="42.8147362" lon="12.9143896"><ele>360.0</ele><time>2026-04-25T15:17:55.449Z</time></trkpt><trkpt lat="42.8147872" lon="12.9142803"><ele>360.0</ele><time>2026-04-25T15:17:56.448Z</time></trkpt><trkpt lat="42.8148417" lon="12.9141678"><ele>360.0</ele><time>2026-04-25T15:17:57.449Z</time></trkpt><trkpt lat="42.8148952" lon="12.914039"><ele>360.0</ele><time>2026-04-25T15:17:58.448Z</time></trkpt><trkpt lat="42.8149548" lon="12.9139044"><ele>360.0</ele><time>2026-04-25T15:17:59.448Z</time></trkpt><trkpt lat="42.8150026" lon="12.913761"><ele>360.25</ele><time>2026-04-25T15:18:00.448Z</time></trkpt><trkpt lat="42.8150303" lon="12.9136076"><ele>360.5</ele><time>2026-04-25T15:18:01.448Z</time></trkpt><trkpt lat="42.8150414" lon="12.9134367"><ele>360.75</ele><time>2026-04-25T15:18:02.448Z</time></trkpt><trkpt lat="42.8150576" lon="12.9132633"><ele>361.0</ele><time>2026-04-25T15:18:03.448Z</time></trkpt><trkpt lat="42.8150787" lon="12.9130873"><ele>360.75</ele><time>2026-04-25T15:18:04.448Z</time></trkpt><trkpt lat="42.8151299" lon="12.9129187"><ele>360.5</ele><time>2026-04-25T15:18:05.448Z</time></trkpt><trkpt lat="42.8152011" lon="12.9127475"><ele>360.25</ele><time>2026-04-25T15:18:06.448Z</time></trkpt><trkpt lat="42.8152922" lon="12.9125968"><ele>360.0</ele><time>2026-04-25T15:18:07.448Z</time></trkpt><trkpt lat="42.8153919" lon="12.912465"><ele>360.0</ele><time>2026-04-25T15:18:08.448Z</time></trkpt><trkpt lat="42.8154984" lon="12.9123434"><ele>360.0</ele><time>2026-04-25T15:18:09.448Z</time></trkpt><trkpt lat="42.8156208" lon="12.9122502"><ele>360.0</ele><time>2026-04-25T15:18:10.448Z</time></trkpt><trkpt lat="42.8157453" lon="12.9121627"><ele>360.0</ele><time>2026-04-25T15:18:11.449Z</time></trkpt><trkpt lat="42.815886" lon="12.9120982"><ele>359.25</ele><time>2026-04-25T15:18:12.448Z</time></trkpt><trkpt lat="42.8160356" lon="12.9120689"><ele>358.5</ele><time>2026-04-25T15:18:13.448Z</time></trkpt><trkpt lat="42.8161813" lon="12.9120518"><ele>357.75</ele><time>2026-04-25T15:18:14.448Z</time></trkpt><trkpt lat="42.8163309" lon="12.9120237"><ele>357.0</ele><time>2026-04-25T15:18:15.448Z</time></trkpt><trkpt lat="42.8164797" lon="12.9119802"><ele>357.0</ele><time>2026-04-25T15:18:16.448Z</time></trkpt><trkpt lat="42.8166367" lon="12.9119077"><ele>357.0</ele><time>2026-04-25T15:18:17.448Z</time></trkpt><trkpt lat="42.8167779" lon="12.9118249"><ele>357.0</ele><time>2026-04-25T15:18:18.448Z</time></trkpt><trkpt lat="42.8169148" lon="12.9117253"><ele>360.0</ele><time>2026-04-25T15:18:19.448Z</time></trkpt><trkpt lat="42.8170649" lon="12.9116468"><ele>363.0</ele><time>2026-04-25T15:18:20.448Z</time></trkpt><trkpt lat="42.8172312" lon="12.911593"><ele>366.0</ele><time>2026-04-25T15:18:21.448Z</time></trkpt><trkpt lat="42.8174073" lon="12.911555"><ele>366.0</ele><time>2026-04-25T15:18:22.448Z</time></trkpt><trkpt lat="42.8175849" lon="12.9115409"><ele>366.0</ele><time>2026-04-25T15:18:23.448Z</time></trkpt><trkpt lat="42.8177604" lon="12.9115446"><ele>366.0</ele><time>2026-04-25T15:18:24.448Z</time></trkpt><trkpt lat="42.8179268" lon="12.911559"><ele>365.6666666666667</ele><time>2026-04-25T15:18:25.448Z</time></trkpt><trkpt lat="42.8181015" lon="12.9115824"><ele>365.33333333333337</ele><time>2026-04-25T15:18:26.448Z</time></trkpt><trkpt lat="42.8182759" lon="12.9116191"><ele>365.0</ele><time>2026-04-25T15:18:27.448Z</time></trkpt><trkpt lat="42.8184493" lon="12.911668"><ele>365.6666666666667</ele><time>2026-04-25T15:18:28.448Z</time></trkpt><trkpt lat="42.8186295" lon="12.9117133"><ele>366.3333333333333</ele><time>2026-04-25T15:18:29.448Z</time></trkpt><trkpt lat="42.8188179" lon="12.9117588"><ele>367.0</ele><time>2026-04-25T15:18:30.448Z</time></trkpt><trkpt lat="42.8189945" lon="12.9118174"><ele>367.0</ele><time>2026-04-25T15:18:31.448Z</time></trkpt><trkpt lat="42.8191889" lon="12.9118683"><ele>367.0</ele><time>2026-04-25T15:18:32.448Z</time></trkpt><trkpt lat="42.8193834" lon="12.9119142"><ele>367.0</ele><time>2026-04-25T15:18:33.448Z</time></trkpt><trkpt lat="42.8195665" lon="12.9119559"><ele>367.0</ele><time>2026-04-25T15:18:34.448Z</time></trkpt><trkpt lat="42.8197626" lon="12.9120047"><ele>367.0</ele><time>2026-04-25T15:18:35.448Z</time></trkpt><trkpt lat="42.8199656" lon="12.9120538"><ele>367.0</ele><time>2026-04-25T15:18:36.449Z</time></trkpt><trkpt lat="42.8201608" lon="12.9121073"><ele>367.0</ele><time>2026-04-25T15:18:37.448Z</time></trkpt><trkpt lat="42.8203359" lon="12.9121494"><ele>367.0</ele><time>2026-04-25T15:18:38.448Z</time></trkpt><trkpt lat="42.8205069" lon="12.9121866"><ele>367.0</ele><time>2026-04-25T15:18:39.448Z</time></trkpt><trkpt lat="42.8206861" lon="12.9122039"><ele>367.0</ele><time>2026-04-25T15:18:40.448Z</time></trkpt><trkpt lat="42.8208729" lon="12.9121928"><ele>367.0</ele><time>2026-04-25T15:18:41.448Z</time></trkpt><trkpt lat="42.8210604" lon="12.9121532"><ele>367.0</ele><time>2026-04-25T15:18:42.448Z</time></trkpt><trkpt lat="42.8212415" lon="12.9121123"><ele>368.0</ele><time>2026-04-25T15:18:43.448Z</time></trkpt><trkpt lat="42.8214235" lon="12.9120689"><ele>369.0</ele><time>2026-04-25T15:18:44.448Z</time></trkpt><trkpt lat="42.8215977" lon="12.9120318"><ele>370.0</ele><time>2026-04-25T15:18:45.448Z</time></trkpt><trkpt lat="42.8217683" lon="12.9120065"><ele>373.3333333333333</ele><time>2026-04-25T15:18:46.448Z</time></trkpt><trkpt lat="42.8219308" lon="12.9119913"><ele>376.6666666666667</ele><time>2026-04-25T15:18:47.449Z</time></trkpt><trkpt lat="42.822085" lon="12.9119961"><ele>380.0</ele><time>2026-04-25T15:18:48.448Z</time></trkpt><trkpt lat="42.8222303" lon="12.9120404"><ele>380.0</ele><time>2026-04-25T15:18:49.449Z</time></trkpt><trkpt lat="42.8223674" lon="12.912119"><ele>380.0</ele><time>2026-04-25T15:18:50.449Z</time></trkpt><trkpt lat="42.8225001" lon="12.9122484"><ele>380.0</ele><time>2026-04-25T15:18:51.448Z</time></trkpt><trkpt lat="42.8226096" lon="12.9123954"><ele>379.6666666666667</ele><time>2026-04-25T15:18:52.449Z</time></trkpt><trkpt lat="42.8227137" lon="12.9125473"><ele>379.3333333333333</ele><time>2026-04-25T15:18:53.449Z</time></trkpt><trkpt lat="42.8228235" lon="12.9127202"><ele>379.0</ele><time>2026-04-25T15:18:54.448Z</time></trkpt><trkpt lat="42.8229444" lon="12.9129014"><ele>379.0</ele><time>2026-04-25T15:18:55.449Z</time></trkpt><trkpt lat="42.8230652" lon="12.9130938"><ele>379.0</ele><time>2026-04-25T15:18:56.448Z</time></trkpt><trkpt lat="42.8231995" lon="12.913289"><ele>379.0</ele><time>2026-04-25T15:18:57.448Z</time></trkpt><trkpt lat="42.8233312" lon="12.9134763"><ele>379.0</ele><time>2026-04-25T15:18:58.448Z</time></trkpt><trkpt lat="42.8234676" lon="12.913658"><ele>379.0</ele><time>2026-04-25T15:18:59.448Z</time></trkpt><trkpt lat="42.8236028" lon="12.9138509"><ele>379.0</ele><time>2026-04-25T15:19:00.448Z</time></trkpt><trkpt lat="42.8237402" lon="12.9140551"><ele>378.3333333333333</ele><time>2026-04-25T15:19:01.448Z</time></trkpt><trkpt lat="42.8238886" lon="12.9142491"><ele>377.6666666666667</ele><time>2026-04-25T15:19:02.448Z</time></trkpt><trkpt lat="42.8240231" lon="12.9144561"><ele>377.0</ele><time>2026-04-25T15:19:03.448Z</time></trkpt><trkpt lat="42.8241564" lon="12.9146608"><ele>377.0</ele><time>2026-04-25T15:19:04.448Z</time></trkpt><trkpt lat="42.8243002" lon="12.9148553"><ele>377.0</ele><time>2026-04-25T15:19:05.448Z</time></trkpt><trkpt lat="42.8244457" lon="12.915034"><ele>377.0</ele><time>2026-04-25T15:19:06.449Z</time></trkpt><trkpt lat="42.8245989" lon="12.9151943"><ele>378.33333333333337</ele><time>2026-04-25T15:19:07.448Z</time></trkpt><trkpt lat="42.8247428" lon="12.9153438"><ele>379.6666666666667</ele><time>2026-04-25T15:19:08.448Z</time></trkpt><trkpt lat="42.8248956" lon="12.9154905"><ele>381.0</ele><time>2026-04-25T15:19:09.449Z</time></trkpt><trkpt lat="42.8250421" lon="12.915638"><ele>381.6666666666667</ele><time>2026-04-25T15:19:10.448Z</time></trkpt><trkpt lat="42.8251829" lon="12.9157838"><ele>382.33333333333337</ele><time>2026-04-25T15:19:11.448Z</time></trkpt><trkpt lat="42.8253185" lon="12.9159279"><ele>383.0</ele><time>2026-04-25T15:19:12.448Z</time></trkpt><trkpt lat="42.8254553" lon="12.9160798"><ele>383.0</ele><time>2026-04-25T15:19:13.448Z</time></trkpt><trkpt lat="42.825604" lon="12.9162284"><ele>383.0</ele><time>2026-04-25T15:19:14.448Z</time></trkpt><trkpt lat="42.8257419" lon="12.9163804"><ele>383.0</ele><time>2026-04-25T15:19:15.448Z</time></trkpt><trkpt lat="42.825888" lon="12.9165302"><ele>382.0</ele><time>2026-04-25T15:19:16.449Z</time></trkpt><trkpt lat="42.8260362" lon="12.9166722"><ele>381.0</ele><time>2026-04-25T15:19:17.448Z</time></trkpt><trkpt lat="42.8261941" lon="12.9167969"><ele>380.0</ele><time>2026-04-25T15:19:18.448Z</time></trkpt><trkpt lat="42.8263667" lon="12.9169037"><ele>380.0</ele><time>2026-04-25T15:19:19.448Z</time></trkpt><trkpt lat="42.8265381" lon="12.9169921"><ele>380.0</ele><time>2026-04-25T15:19:20.448Z</time></trkpt><trkpt lat="42.8267211" lon="12.9170812"><ele>380.0</ele><time>2026-04-25T15:19:21.448Z</time></trkpt><trkpt lat="42.8269045" lon="12.9171749"><ele>383.33333333333337</ele><time>2026-04-25T15:19:22.448Z</time></trkpt><trkpt lat="42.8270986" lon="12.9172722"><ele>386.6666666666667</ele><time>2026-04-25T15:19:23.448Z</time></trkpt><trkpt lat="42.8272968" lon="12.9173753"><ele>390.0</ele><time>2026-04-25T15:19:24.449Z</time></trkpt><trkpt lat="42.8274976" lon="12.917473"><ele>388.0</ele><time>2026-04-25T15:19:25.448Z</time></trkpt><trkpt lat="42.8276943" lon="12.9175709"><ele>386.0</ele><time>2026-04-25T15:19:26.449Z</time></trkpt><trkpt lat="42.8278873" lon="12.9176614"><ele>384.0</ele><time>2026-04-25T15:19:27.449Z</time></trkpt><trkpt lat="42.8280673" lon="12.9177688"><ele>384.0</ele><time>2026-04-25T15:19:28.448Z</time></trkpt><trkpt lat="42.828242" lon="12.9178934"><ele>384.0</ele><time>2026-04-25T15:19:29.449Z</time></trkpt><trkpt lat="42.8284042" lon="12.9180251"><ele>384.0</ele><time>2026-04-25T15:19:30.449Z</time></trkpt><trkpt lat="42.8285557" lon="12.9181519"><ele>387.0</ele><time>2026-04-25T15:19:31.448Z</time></trkpt><trkpt lat="42.8287096" lon="12.9182583"><ele>390.0</ele><time>2026-04-25T15:19:32.448Z</time></trkpt><trkpt lat="42.8288691" lon="12.9183347"><ele>393.0</ele><time>2026-04-25T15:19:33.449Z</time></trkpt><trkpt lat="42.829051" lon="12.918387"><ele>388.6666666666667</ele><time>2026-04-25T15:19:34.449Z</time></trkpt><trkpt lat="42.8292376" lon="12.9184233"><ele>384.33333333333337</ele><time>2026-04-25T15:19:35.448Z</time></trkpt><trkpt lat="42.8294393" lon="12.9184653"><ele>380.0</ele><time>2026-04-25T15:19:36.448Z</time></trkpt><trkpt lat="42.8296488" lon="12.9185024"><ele>380.0</ele><time>2026-04-25T15:19:37.449Z</time></trkpt><trkpt lat="42.8298584" lon="12.9185519"><ele>380.0</ele><time>2026-04-25T15:19:38.448Z</time></trkpt><trkpt lat="42.8300696" lon="12.9185908"><ele>380.0</ele><time>2026-04-25T15:19:39.448Z</time></trkpt><trkpt lat="42.8302861" lon="12.918625"><ele>380.0</ele><time>2026-04-25T15:19:40.448Z</time></trkpt><trkpt lat="42.8304947" lon="12.9186559"><ele>380.0</ele><time>2026-04-25T15:19:41.448Z</time></trkpt><trkpt lat="42.8307109" lon="12.9186846"><ele>380.0</ele><time>2026-04-25T15:19:42.448Z</time></trkpt><trkpt lat="42.8309186" lon="12.9187149"><ele>381.33333333333337</ele><time>2026-04-25T15:19:43.448Z</time></trkpt><trkpt lat="42.8311312" lon="12.9187454"><ele>382.6666666666667</ele><time>2026-04-25T15:19:44.448Z</time></trkpt><trkpt lat="42.8313358" lon="12.9187866"><ele>384.0</ele><time>2026-04-25T15:19:45.448Z</time></trkpt><trkpt lat="42.8315413" lon="12.9188273"><ele>384.0</ele><time>2026-04-25T15:19:46.449Z</time></trkpt><trkpt lat="42.8317458" lon="12.918862"><ele>384.0</ele><time>2026-04-25T15:19:47.449Z</time></trkpt><trkpt lat="42.8319505" lon="12.9188976"><ele>384.0</ele><time>2026-04-25T15:19:48.449Z</time></trkpt><trkpt lat="42.8321593" lon="12.9189295"><ele>384.0</ele><time>2026-04-25T15:19:49.448Z</time></trkpt><trkpt lat="42.8323675" lon="12.9189682"><ele>384.0</ele><time>2026-04-25T15:19:50.448Z</time></trkpt><trkpt lat="42.8325703" lon="12.9190226"><ele>384.0</ele><time>2026-04-25T15:19:51.449Z</time></trkpt><trkpt lat="42.8327607" lon="12.9191003"><ele>384.0</ele><time>2026-04-25T15:19:52.448Z</time></trkpt><trkpt lat="42.8329423" lon="12.9191997"><ele>384.0</ele><time>2026-04-25T15:19:53.448Z</time></trkpt><trkpt lat="42.8331234" lon="12.9193024"><ele>384.0</ele><time>2026-04-25T15:19:54.449Z</time></trkpt><trkpt lat="42.8333025" lon="12.9193922"><ele>385.0</ele><time>2026-04-25T15:19:55.448Z</time></trkpt><trkpt lat="42.8334907" lon="12.9194551"><ele>386.0</ele><time>2026-04-25T15:19:56.448Z</time></trkpt><trkpt lat="42.8336796" lon="12.9195138"><ele>387.0</ele><time>2026-04-25T15:19:57.448Z</time></trkpt><trkpt lat="42.8338725" lon="12.9195444"><ele>387.0</ele><time>2026-04-25T15:19:58.448Z</time></trkpt><trkpt lat="42.8340702" lon="12.9195959"><ele>387.0</ele><time>2026-04-25T15:19:59.448Z</time></trkpt><trkpt lat="42.8342579" lon="12.9196605"><ele>387.0</ele><time>2026-04-25T15:20:00.448Z</time></trkpt><trkpt lat="42.8344503" lon="12.9197401"><ele>389.66666666666663</ele><time>2026-04-25T15:20:01.448Z</time></trkpt><trkpt lat="42.8346329" lon="12.9198256"><ele>392.3333333333333</ele><time>2026-04-25T15:20:02.448Z</time></trkpt><trkpt lat="42.8348248" lon="12.9199145"><ele>395.0</ele><time>2026-04-25T15:20:03.449Z</time></trkpt><trkpt lat="42.8350121" lon="12.9199973"><ele>393.66666666666663</ele><time>2026-04-25T15:20:04.448Z</time></trkpt><trkpt lat="42.8351899" lon="12.920077"><ele>392.33333333333337</ele><time>2026-04-25T15:20:05.448Z</time></trkpt><trkpt lat="42.8353648" lon="12.9201363"><ele>391.0</ele><time>2026-04-25T15:20:06.448Z</time></trkpt><trkpt lat="42.8355268" lon="12.9201821"><ele>391.0</ele><time>2026-04-25T15:20:07.448Z</time></trkpt><trkpt lat="42.8356807" lon="12.9202061"><ele>391.0</ele><time>2026-04-25T15:20:08.448Z</time></trkpt><trkpt lat="42.8358383" lon="12.920223"><ele>391.0</ele><time>2026-04-25T15:20:09.448Z</time></trkpt><trkpt lat="42.8360038" lon="12.9202406"><ele>391.6666666666667</ele><time>2026-04-25T15:20:10.449Z</time></trkpt><trkpt lat="42.8361748" lon="12.9202834"><ele>392.33333333333337</ele><time>2026-04-25T15:20:11.448Z</time></trkpt><trkpt lat="42.836349" lon="12.9203505"><ele>393.0</ele><time>2026-04-25T15:20:12.448Z</time></trkpt><trkpt lat="42.8365208" lon="12.9204425"><ele>393.0</ele><time>2026-04-25T15:20:13.448Z</time></trkpt><trkpt lat="42.8367012" lon="12.9205429"><ele>393.0</ele><time>2026-04-25T15:20:14.448Z</time></trkpt><trkpt lat="42.8368788" lon="12.9206581"><ele>393.0</ele><time>2026-04-25T15:20:15.448Z</time></trkpt><trkpt lat="42.8370659" lon="12.9207767"><ele>393.0</ele><time>2026-04-25T15:20:16.448Z</time></trkpt><trkpt lat="42.8372524" lon="12.9208956"><ele>393.0</ele><time>2026-04-25T15:20:17.448Z</time></trkpt><trkpt lat="42.8374364" lon="12.9210115"><ele>393.0</ele><time>2026-04-25T15:20:18.448Z</time></trkpt><trkpt lat="42.8376176" lon="12.9211322"><ele>396.0</ele><time>2026-04-25T15:20:19.449Z</time></trkpt><trkpt lat="42.8378051" lon="12.9212485"><ele>399.0</ele><time>2026-04-25T15:20:20.448Z</time></trkpt><trkpt lat="42.8379948" lon="12.9213763"><ele>402.0</ele><time>2026-04-25T15:20:21.449Z</time></trkpt><trkpt lat="42.8381836" lon="12.9214979"><ele>402.0</ele><time>2026-04-25T15:20:22.449Z</time></trkpt><trkpt lat="42.8383801" lon="12.9216156"><ele>402.0</ele><time>2026-04-25T15:20:23.448Z</time></trkpt><trkpt lat="42.8385802" lon="12.9217433"><ele>402.0</ele><time>2026-04-25T15:20:24.448Z</time></trkpt><trkpt lat="42.8387809" lon="12.9218727"><ele>401.0</ele><time>2026-04-25T15:20:25.448Z</time></trkpt><trkpt lat="42.8389787" lon="12.9220006"><ele>400.0</ele><time>2026-04-25T15:20:26.448Z</time></trkpt><trkpt lat="42.8391804" lon="12.9221254"><ele>399.0</ele><time>2026-04-25T15:20:27.448Z</time></trkpt><trkpt lat="42.8393786" lon="12.9222429"><ele>401.0</ele><time>2026-04-25T15:20:28.448Z</time></trkpt><trkpt lat="42.8395729" lon="12.9223537"><ele>403.0</ele><time>2026-04-25T15:20:29.448Z</time></trkpt><trkpt lat="42.839769" lon="12.9224597"><ele>405.0</ele><time>2026-04-25T15:20:30.448Z</time></trkpt><trkpt lat="42.8399681" lon="12.9225508"><ele>404.33333333333337</ele><time>2026-04-25T15:20:31.448Z</time></trkpt><trkpt lat="42.8401653" lon="12.922636"><ele>403.6666666666667</ele><time>2026-04-25T15:20:32.448Z</time></trkpt><trkpt lat="42.8403664" lon="12.9227187"><ele>403.0</ele><time>2026-04-25T15:20:33.448Z</time></trkpt><trkpt lat="42.8405635" lon="12.9227867"><ele>403.0</ele><time>2026-04-25T15:20:34.448Z</time></trkpt><trkpt lat="42.8407681" lon="12.9228419"><ele>403.0</ele><time>2026-04-25T15:20:35.448Z</time></trkpt><trkpt lat="42.84097" lon="12.9228922"><ele>403.0</ele><time>2026-04-25T15:20:36.448Z</time></trkpt><trkpt lat="42.8411695" lon="12.9229322"><ele>402.6666666666667</ele><time>2026-04-25T15:20:37.448Z</time></trkpt><trkpt lat="42.8413825" lon="12.9229651"><ele>402.33333333333337</ele><time>2026-04-25T15:20:38.448Z</time></trkpt><trkpt lat="42.8415898" lon="12.9230114"><ele>402.0</ele><time>2026-04-25T15:20:39.448Z</time></trkpt><trkpt lat="42.8418029" lon="12.9230573"><ele>405.0</ele><time>2026-04-25T15:20:40.448Z</time></trkpt><trkpt lat="42.8420162" lon="12.9230989"><ele>408.0</ele><time>2026-04-25T15:20:41.448Z</time></trkpt><trkpt lat="42.8422256" lon="12.923145"><ele>411.0</ele><time>2026-04-25T15:20:42.448Z</time></trkpt><trkpt lat="42.84244" lon="12.9231985"><ele>411.66666666666663</ele><time>2026-04-25T15:20:43.448Z</time></trkpt><trkpt lat="42.8426596" lon="12.9232434"><ele>412.3333333333333</ele><time>2026-04-25T15:20:44.448Z</time></trkpt><trkpt lat="42.8428702" lon="12.9232835"><ele>413.0</ele><time>2026-04-25T15:20:45.448Z</time></trkpt><trkpt lat="42.8430812" lon="12.9233505"><ele>410.0</ele><time>2026-04-25T15:20:46.448Z</time></trkpt><trkpt lat="42.8432934" lon="12.9234117"><ele>407.0</ele><time>2026-04-25T15:20:47.448Z</time></trkpt><trkpt lat="42.8435017" lon="12.92349"><ele>404.0</ele><time>2026-04-25T15:20:48.448Z</time></trkpt><trkpt lat="42.8437099" lon="12.9235663"><ele>404.0</ele><time>2026-04-25T15:20:49.448Z</time></trkpt><trkpt lat="42.8439232" lon="12.9236449"><ele>404.0</ele><time>2026-04-25T15:20:50.448Z</time></trkpt><trkpt lat="42.84414" lon="12.9237274"><ele>404.0</ele><time>2026-04-25T15:20:51.448Z</time></trkpt><trkpt lat="42.8443522" lon="12.9238117"><ele>406.0</ele><time>2026-04-25T15:20:52.448Z</time></trkpt><trkpt lat="42.844565" lon="12.923888"><ele>408.0</ele><time>2026-04-25T15:20:53.448Z</time></trkpt><trkpt lat="42.844772" lon="12.9239666"><ele>410.0</ele><time>2026-04-25T15:20:54.449Z</time></trkpt><trkpt lat="42.8449864" lon="12.924046"><ele>410.0</ele><time>2026-04-25T15:20:55.448Z</time></trkpt><trkpt lat="42.845196" lon="12.92412"><ele>410.0</ele><time>2026-04-25T15:20:56.448Z</time></trkpt><trkpt lat="42.8454017" lon="12.9241992"><ele>410.0</ele><time>2026-04-25T15:20:57.448Z</time></trkpt><trkpt lat="42.8456083" lon="12.9242731"><ele>409.66666666666663</ele><time>2026-04-25T15:20:58.448Z</time></trkpt><trkpt lat="42.8458212" lon="12.9243497"><ele>409.33333333333337</ele><time>2026-04-25T15:20:59.448Z</time></trkpt><trkpt lat="42.8460291" lon="12.9244215"><ele>409.0</ele><time>2026-04-25T15:21:00.448Z</time></trkpt><trkpt lat="42.8462379" lon="12.924489"><ele>409.0</ele><time>2026-04-25T15:21:01.448Z</time></trkpt><trkpt lat="42.8464498" lon="12.9245567"><ele>409.0</ele><time>2026-04-25T15:21:02.448Z</time></trkpt><trkpt lat="42.8466579" lon="12.9246278"><ele>409.0</ele><time>2026-04-25T15:21:03.448Z</time></trkpt><trkpt lat="42.8468724" lon="12.9247032"><ele>411.0</ele><time>2026-04-25T15:21:04.448Z</time></trkpt><trkpt lat="42.847084" lon="12.9247766"><ele>413.0</ele><time>2026-04-25T15:21:05.449Z</time></trkpt><trkpt lat="42.8472917" lon="12.9248618"><ele>415.0</ele><time>2026-04-25T15:21:06.448Z</time></trkpt><trkpt lat="42.8475007" lon="12.9249421"><ele>414.33333333333337</ele><time>2026-04-25T15:21:07.448Z</time></trkpt><trkpt lat="42.8477069" lon="12.9250237"><ele>413.66666666666663</ele><time>2026-04-25T15:21:08.448Z</time></trkpt><trkpt lat="42.8479173" lon="12.9251056"><ele>413.0</ele><time>2026-04-25T15:21:09.448Z</time></trkpt><trkpt lat="42.848121" lon="12.9251968"><ele>412.0</ele><time>2026-04-25T15:21:10.449Z</time></trkpt><trkpt lat="42.8483188" lon="12.925295"><ele>411.0</ele><time>2026-04-25T15:21:11.448Z</time></trkpt><trkpt lat="42.8485237" lon="12.9253862"><ele>410.0</ele><time>2026-04-25T15:21:12.448Z</time></trkpt><trkpt lat="42.8487195" lon="12.9254842"><ele>412.0</ele><time>2026-04-25T15:21:13.448Z</time></trkpt><trkpt lat="42.8489208" lon="12.9255918"><ele>414.0</ele><time>2026-04-25T15:21:14.448Z</time></trkpt><trkpt lat="42.8491223" lon="12.925689"><ele>416.0</ele><time>2026-04-25T15:21:15.449Z</time></trkpt><trkpt lat="42.8493247" lon="12.9257867"><ele>416.0</ele><time>2026-04-25T15:21:16.448Z</time></trkpt><trkpt lat="42.8495246" lon="12.9258753"><ele>416.0</ele><time>2026-04-25T15:21:17.448Z</time></trkpt><trkpt lat="42.8497309" lon="12.9259551"><ele>416.0</ele><time>2026-04-25T15:21:18.448Z</time></trkpt><trkpt lat="42.849943" lon="12.9260217"><ele>419.3333333333333</ele><time>2026-04-25T15:21:19.448Z</time></trkpt><trkpt lat="42.8501543" lon="12.926092"><ele>422.66666666666663</ele><time>2026-04-25T15:21:20.448Z</time></trkpt><trkpt lat="42.8503633" lon="12.9261713"><ele>426.0</ele><time>2026-04-25T15:21:21.448Z</time></trkpt><trkpt lat="42.8505627" lon="12.9262742"><ele>426.0</ele><time>2026-04-25T15:21:22.448Z</time></trkpt><trkpt lat="42.8507574" lon="12.9263883"><ele>426.0</ele><time>2026-04-25T15:21:23.449Z</time></trkpt><trkpt lat="42.8509504" lon="12.9265212"><ele>426.0</ele><time>2026-04-25T15:21:24.448Z</time></trkpt><trkpt lat="42.8511353" lon="12.9266638"><ele>424.66666666666663</ele><time>2026-04-25T15:21:25.448Z</time></trkpt><trkpt lat="42.851326" lon="12.9267971"><ele>423.3333333333333</ele><time>2026-04-25T15:21:26.448Z</time></trkpt><trkpt lat="42.8515101" lon="12.9269368"><ele>422.0</ele><time>2026-04-25T15:21:27.448Z</time></trkpt><trkpt lat="42.8516871" lon="12.9270728"><ele>424.3333333333333</ele><time>2026-04-25T15:21:28.448Z</time></trkpt><trkpt lat="42.8518634" lon="12.9271845"><ele>426.66666666666663</ele><time>2026-04-25T15:21:29.448Z</time></trkpt><trkpt lat="42.8520374" lon="12.9272816"><ele>429.0</ele><time>2026-04-25T15:21:30.449Z</time></trkpt><trkpt lat="42.8522207" lon="12.9273582"><ele>429.0</ele><time>2026-04-25T15:21:31.448Z</time></trkpt><trkpt lat="42.852422" lon="12.927411"><ele>429.0</ele><time>2026-04-25T15:21:32.448Z</time></trkpt><trkpt lat="42.8526169" lon="12.9274722"><ele>429.0</ele><time>2026-04-25T15:21:33.448Z</time></trkpt><trkpt lat="42.8528152" lon="12.9275227"><ele>425.66666666666663</ele><time>2026-04-25T15:21:34.448Z</time></trkpt><trkpt lat="42.8530215" lon="12.9275747"><ele>422.3333333333333</ele><time>2026-04-25T15:21:35.448Z</time></trkpt><trkpt lat="42.8532301" lon="12.9276235"><ele>419.0</ele><time>2026-04-25T15:21:36.448Z</time></trkpt><trkpt lat="42.8534442" lon="12.9276801"><ele>420.0</ele><time>2026-04-25T15:21:37.448Z</time></trkpt><trkpt lat="42.8536534" lon="12.9277344"><ele>421.0</ele><time>2026-04-25T15:21:38.448Z</time></trkpt><trkpt lat="42.8538616" lon="12.9277754"><ele>422.0</ele><time>2026-04-25T15:21:39.449Z</time></trkpt><trkpt lat="42.8540693" lon="12.9278178"><ele>422.0</ele><time>2026-04-25T15:21:40.448Z</time></trkpt><trkpt lat="42.8542665" lon="12.9278683"><ele>422.0</ele><time>2026-04-25T15:21:41.448Z</time></trkpt><trkpt lat="42.8544448" lon="12.9279098"><ele>422.0</ele><time>2026-04-25T15:21:42.448Z</time></trkpt><trkpt lat="42.8546159" lon="12.9279533"><ele>422.25</ele><time>2026-04-25T15:21:43.448Z</time></trkpt><trkpt lat="42.8547456" lon="12.9279842"><ele>422.5</ele><time>2026-04-25T15:21:44.449Z</time></trkpt><trkpt lat="42.8548802" lon="12.9279796"><ele>422.75</ele><time>2026-04-25T15:21:45.448Z</time></trkpt><trkpt lat="42.8550196" lon="12.9279093"><ele>423.0</ele><time>2026-04-25T15:21:46.448Z</time></trkpt><trkpt lat="42.8551479" lon="12.9278103"><ele>423.33333333333337</ele><time>2026-04-25T15:21:47.448Z</time></trkpt><trkpt lat="42.8552729" lon="12.9276866"><ele>423.6666666666667</ele><time>2026-04-25T15:21:48.448Z</time></trkpt><trkpt lat="42.8553909" lon="12.9275436"><ele>424.0</ele><time>2026-04-25T15:21:49.448Z</time></trkpt><trkpt lat="42.8555194" lon="12.9274224"><ele>426.6666666666667</ele><time>2026-04-25T15:21:50.448Z</time></trkpt><trkpt lat="42.8556658" lon="12.9273145"><ele>429.33333333333337</ele><time>2026-04-25T15:21:51.448Z</time></trkpt><trkpt lat="42.8558214" lon="12.9272455"><ele>432.0</ele><time>2026-04-25T15:21:52.448Z</time></trkpt><trkpt lat="42.8559877" lon="12.9272101"><ele>432.0</ele><time>2026-04-25T15:21:53.449Z</time></trkpt><trkpt lat="42.8561625" lon="12.9272164"><ele>432.0</ele><time>2026-04-25T15:21:54.448Z</time></trkpt><trkpt lat="42.8563412" lon="12.9272295"><ele>432.0</ele><time>2026-04-25T15:21:55.448Z</time></trkpt><trkpt lat="42.856528" lon="12.9272428"><ele>432.0</ele><time>2026-04-25T15:21:56.448Z</time></trkpt><trkpt lat="42.8567139" lon="12.9272631"><ele>432.0</ele><time>2026-04-25T15:21:57.449Z</time></trkpt><trkpt lat="42.8569079" lon="12.9272872"><ele>432.0</ele><time>2026-04-25T15:21:58.448Z</time></trkpt><trkpt lat="42.8571029" lon="12.9273169"><ele>434.0</ele><time>2026-04-25T15:21:59.449Z</time></trkpt><trkpt lat="42.8572873" lon="12.9273421"><ele>436.0</ele><time>2026-04-25T15:22:00.448Z</time></trkpt><trkpt lat="42.8574656" lon="12.9273688"><ele>438.0</ele><time>2026-04-25T15:22:01.448Z</time></trkpt><trkpt lat="42.8576377" lon="12.9273911"><ele>441.5</ele><time>2026-04-25T15:22:02.448Z</time></trkpt><trkpt lat="42.8577953" lon="12.9274047"><ele>445.0</ele><time>2026-04-25T15:22:03.448Z</time></trkpt><trkpt lat="42.8579396" lon="12.9274261"><ele>448.5</ele><time>2026-04-25T15:22:04.449Z</time></trkpt><trkpt lat="42.858061" lon="12.927457"><ele>452.0</ele><time>2026-04-25T15:22:05.448Z</time></trkpt><trkpt lat="42.8581615" lon="12.9275248"><ele>448.8</ele><time>2026-04-25T15:22:06.449Z</time></trkpt><trkpt lat="42.8582413" lon="12.9276235"><ele>445.6</ele><time>2026-04-25T15:22:07.449Z</time></trkpt><trkpt lat="42.8583006" lon="12.9277562"><ele>442.40000000000003</ele><time>2026-04-25T15:22:08.448Z</time></trkpt><trkpt lat="42.8583595" lon="12.9278507"><ele>439.20000000000005</ele><time>2026-04-25T15:22:09.448Z</time></trkpt><trkpt lat="42.8584402" lon="12.9279043"><ele>436.0</ele><time>2026-04-25T15:22:10.449Z</time></trkpt><trkpt lat="42.8585294" lon="12.9279103"><ele>435.5</ele><time>2026-04-25T15:22:11.448Z</time></trkpt><trkpt lat="42.8586209" lon="12.9278957"><ele>435.0</ele><time>2026-04-25T15:22:12.448Z</time></trkpt><trkpt lat="42.8587171" lon="12.9277904"><ele>434.5</ele><time>2026-04-25T15:22:13.448Z</time></trkpt><trkpt lat="42.8588177" lon="12.9276643"><ele>434.0</ele><time>2026-04-25T15:22:14.448Z</time></trkpt><trkpt lat="42.8589215" lon="12.9275295"><ele>439.3333333333333</ele><time>2026-04-25T15:22:15.448Z</time></trkpt><trkpt lat="42.8590434" lon="12.9273887"><ele>444.66666666666663</ele><time>2026-04-25T15:22:16.448Z</time></trkpt><trkpt lat="42.8591627" lon="12.9272435"><ele>450.0</ele><time>2026-04-25T15:22:17.448Z</time></trkpt><trkpt lat="42.8592777" lon="12.9271101"><ele>448.75</ele><time>2026-04-25T15:22:18.448Z</time></trkpt><trkpt lat="42.859392" lon="12.9269707"><ele>447.5</ele><time>2026-04-25T15:22:19.448Z</time></trkpt><trkpt lat="42.8594998" lon="12.9268447"><ele>446.25</ele><time>2026-04-25T15:22:20.448Z</time></trkpt><trkpt lat="42.8596041" lon="12.9267497"><ele>445.0</ele><time>2026-04-25T15:22:21.448Z</time></trkpt><trkpt lat="42.8597186" lon="12.9267061"><ele>445.0</ele><time>2026-04-25T15:22:22.448Z</time></trkpt><trkpt lat="42.8598258" lon="12.9266851"><ele>445.0</ele><time>2026-04-25T15:22:23.448Z</time></trkpt><trkpt lat="42.8599365" lon="12.9267345"><ele>445.0</ele><time>2026-04-25T15:22:24.448Z</time></trkpt><trkpt lat="42.8600438" lon="12.926813"><ele>445.0</ele><time>2026-04-25T15:22:25.448Z</time></trkpt><trkpt lat="42.8601528" lon="12.926931"><ele>448.75</ele><time>2026-04-25T15:22:26.448Z</time></trkpt><trkpt lat="42.8602576" lon="12.9270682"><ele>452.5</ele><time>2026-04-25T15:22:27.448Z</time></trkpt><trkpt lat="42.8603356" lon="12.9272232"><ele>456.25</ele><time>2026-04-25T15:22:28.448Z</time></trkpt><trkpt lat="42.8604098" lon="12.9273798"><ele>460.0</ele><time>2026-04-25T15:22:29.448Z</time></trkpt><trkpt lat="42.860483" lon="12.9275355"><ele>454.25</ele><time>2026-04-25T15:22:30.448Z</time></trkpt><trkpt lat="42.8605783" lon="12.927654"><ele>448.5</ele><time>2026-04-25T15:22:31.448Z</time></trkpt><trkpt lat="42.86068" lon="12.9277062"><ele>442.75</ele><time>2026-04-25T15:22:32.448Z</time></trkpt><trkpt lat="42.8608029" lon="12.927715"><ele>437.0</ele><time>2026-04-25T15:22:33.448Z</time></trkpt><trkpt lat="42.8609311" lon="12.9276457"><ele>442.75</ele><time>2026-04-25T15:22:34.448Z</time></trkpt><trkpt lat="42.861051" lon="12.9275403"><ele>448.5</ele><time>2026-04-25T15:22:35.448Z</time></trkpt><trkpt lat="42.8611616" lon="12.9274176"><ele>454.25</ele><time>2026-04-25T15:22:36.448Z</time></trkpt><trkpt lat="42.861268" lon="12.9273042"><ele>460.0</ele><time>2026-04-25T15:22:37.449Z</time></trkpt><trkpt lat="42.8613678" lon="12.9272092"><ele>460.0</ele><time>2026-04-25T15:22:38.449Z</time></trkpt><trkpt lat="42.8614798" lon="12.9272261"><ele>460.0</ele><time>2026-04-25T15:22:39.448Z</time></trkpt><trkpt lat="42.8615867" lon="12.9272308"><ele>460.0</ele><time>2026-04-25T15:22:40.448Z</time></trkpt><trkpt lat="42.861693" lon="12.9273106"><ele>460.0</ele><time>2026-04-25T15:22:41.449Z</time></trkpt><trkpt lat="42.8618062" lon="12.9274001"><ele>463.0</ele><time>2026-04-25T15:22:42.448Z</time></trkpt><trkpt lat="42.8619321" lon="12.9274966"><ele>466.0</ele><time>2026-04-25T15:22:43.448Z</time></trkpt><trkpt lat="42.8620752" lon="12.9275972"><ele>469.0</ele><time>2026-04-25T15:22:44.448Z</time></trkpt><trkpt lat="42.8622192" lon="12.9276896"><ele>463.5</ele><time>2026-04-25T15:22:45.448Z</time></trkpt><trkpt lat="42.8623513" lon="12.9277679"><ele>458.0</ele><time>2026-04-25T15:22:46.448Z</time></trkpt><trkpt lat="42.8624674" lon="12.9278174"><ele>452.5</ele><time>2026-04-25T15:22:47.448Z</time></trkpt><trkpt lat="42.8625797" lon="12.9278322"><ele>447.0</ele><time>2026-04-25T15:22:48.448Z</time></trkpt><trkpt lat="42.8626789" lon="12.9277942"><ele>447.0</ele><time>2026-04-25T15:22:49.448Z</time></trkpt><trkpt lat="42.8627763" lon="12.9276609"><ele>447.0</ele><time>2026-04-25T15:22:50.448Z</time></trkpt><trkpt lat="42.8628516" lon="12.9275327"><ele>447.0</ele><time>2026-04-25T15:22:51.448Z</time></trkpt><trkpt lat="42.8629238" lon="12.9274195"><ele>447.0</ele><time>2026-04-25T15:22:52.448Z</time></trkpt><trkpt lat="42.8630138" lon="12.9273517"><ele>453.0</ele><time>2026-04-25T15:22:53.448Z</time></trkpt><trkpt lat="42.8631097" lon="12.9273088"><ele>459.0</ele><time>2026-04-25T15:22:54.448Z</time></trkpt><trkpt lat="42.8632339" lon="12.9273211"><ele>465.0</ele><time>2026-04-25T15:22:55.448Z</time></trkpt><trkpt lat="42.8633597" lon="12.9273737"><ele>471.0</ele><time>2026-04-25T15:22:56.448Z</time></trkpt><trkpt lat="42.8634882" lon="12.9274408"><ele>472.25</ele><time>2026-04-25T15:22:57.448Z</time></trkpt><trkpt lat="42.8636193" lon="12.9275087"><ele>473.5</ele><time>2026-04-25T15:22:58.448Z</time></trkpt><trkpt lat="42.863758" lon="12.927581"><ele>474.75</ele><time>2026-04-25T15:22:59.448Z</time></trkpt><trkpt lat="42.863901" lon="12.9276607"><ele>476.0</ele><time>2026-04-25T15:23:00.448Z</time></trkpt><trkpt lat="42.8640495" lon="12.9277458"><ele>470.0</ele><time>2026-04-25T15:23:01.448Z</time></trkpt><trkpt lat="42.8641866" lon="12.9278309"><ele>464.0</ele><time>2026-04-25T15:23:02.448Z</time></trkpt><trkpt lat="42.864322" lon="12.9279084"><ele>458.0</ele><time>2026-04-25T15:23:03.448Z</time></trkpt><trkpt lat="42.8644456" lon="12.9279706"><ele>452.0</ele><time>2026-04-25T15:23:04.448Z</time></trkpt><trkpt lat="42.864546" lon="12.9279708"><ele>452.0</ele><time>2026-04-25T15:23:05.449Z</time></trkpt><trkpt lat="42.8646469" lon="12.9279298"><ele>452.0</ele><time>2026-04-25T15:23:06.448Z</time></trkpt><trkpt lat="42.8647375" lon="12.9278316"><ele>452.0</ele><time>2026-04-25T15:23:07.449Z</time></trkpt><trkpt lat="42.8648301" lon="12.9277035"><ele>452.0</ele><time>2026-04-25T15:23:08.449Z</time></trkpt><trkpt lat="42.8649217" lon="12.927551"><ele>456.66666666666663</ele><time>2026-04-25T15:23:09.448Z</time></trkpt><trkpt lat="42.8649994" lon="12.9273727"><ele>461.33333333333337</ele><time>2026-04-25T15:23:10.448Z</time></trkpt><trkpt lat="42.8650693" lon="12.9271894"><ele>466.0</ele><time>2026-04-25T15:23:11.448Z</time></trkpt><trkpt lat="42.8651055" lon="12.9269879"><ele>467.25</ele><time>2026-04-25T15:23:12.449Z</time></trkpt><trkpt lat="42.8651209" lon="12.9267763"><ele>468.5</ele><time>2026-04-25T15:23:13.448Z</time></trkpt><trkpt lat="42.8651185" lon="12.9265782"><ele>469.75</ele><time>2026-04-25T15:23:14.448Z</time></trkpt><trkpt lat="42.8650933" lon="12.9263899"><ele>471.0</ele><time>2026-04-25T15:23:15.448Z</time></trkpt><trkpt lat="42.865046" lon="12.9262268"><ele>471.0</ele><time>2026-04-25T15:23:16.448Z</time></trkpt><trkpt lat="42.8649781" lon="12.9260894"><ele>471.0</ele><time>2026-04-25T15:23:17.448Z</time></trkpt><trkpt lat="42.8648751" lon="12.9259723"><ele>471.0</ele><time>2026-04-25T15:23:18.448Z</time></trkpt><trkpt lat="42.8647581" lon="12.9258563"><ele>471.0</ele><time>2026-04-25T15:23:19.448Z</time></trkpt><trkpt lat="42.8646298" lon="12.9257415"><ele>469.0</ele><time>2026-04-25T15:23:20.448Z</time></trkpt><trkpt lat="42.8645009" lon="12.9256225"><ele>467.0</ele><time>2026-04-25T15:23:21.449Z</time></trkpt><trkpt lat="42.8643747" lon="12.925492"><ele>465.0</ele><time>2026-04-25T15:23:22.449Z</time></trkpt><trkpt lat="42.8642707" lon="12.9253486"><ele>467.0</ele><time>2026-04-25T15:23:23.448Z</time></trkpt><trkpt lat="42.8641768" lon="12.9251723"><ele>469.0</ele><time>2026-04-25T15:23:24.448Z</time></trkpt><trkpt lat="42.8641215" lon="12.9249756"><ele>471.0</ele><time>2026-04-25T15:23:25.448Z</time></trkpt><trkpt lat="42.8640882" lon="12.9247524"><ele>471.0</ele><time>2026-04-25T15:23:26.448Z</time></trkpt><trkpt lat="42.8641009" lon="12.9245245"><ele>471.0</ele><time>2026-04-25T15:23:27.449Z</time></trkpt><trkpt lat="42.8641525" lon="12.9242892"><ele>471.0</ele><time>2026-04-25T15:23:28.448Z</time></trkpt><trkpt lat="42.8642305" lon="12.924075"><ele>468.66666666666663</ele><time>2026-04-25T15:23:29.448Z</time></trkpt><trkpt lat="42.8643237" lon="12.9238653"><ele>466.3333333333333</ele><time>2026-04-25T15:23:30.448Z</time></trkpt><trkpt lat="42.8644271" lon="12.9236634"><ele>464.0</ele><time>2026-04-25T15:23:31.448Z</time></trkpt><trkpt lat="42.8645255" lon="12.9234583"><ele>465.0</ele><time>2026-04-25T15:23:32.448Z</time></trkpt><trkpt lat="42.864615" lon="12.9232603"><ele>466.0</ele><time>2026-04-25T15:23:33.448Z</time></trkpt><trkpt lat="42.8646542" lon="12.9230752"><ele>467.0</ele><time>2026-04-25T15:23:34.448Z</time></trkpt><trkpt lat="42.8646784" lon="12.9228844"><ele>467.0</ele><time>2026-04-25T15:23:35.448Z</time></trkpt><trkpt lat="42.8646766" lon="12.9226939"><ele>467.0</ele><time>2026-04-25T15:23:36.448Z</time></trkpt><trkpt lat="42.8646655" lon="12.9225202"><ele>467.0</ele><time>2026-04-25T15:23:37.449Z</time></trkpt><trkpt lat="42.8646706" lon="12.9223497"><ele>467.0</ele><time>2026-04-25T15:23:38.448Z</time></trkpt><trkpt lat="42.8646955" lon="12.9221846"><ele>467.5</ele><time>2026-04-25T15:23:39.448Z</time></trkpt><trkpt lat="42.864753" lon="12.9220399"><ele>468.0</ele><time>2026-04-25T15:23:40.449Z</time></trkpt><trkpt lat="42.8648379" lon="12.9219122"><ele>468.5</ele><time>2026-04-25T15:23:41.448Z</time></trkpt><trkpt lat="42.8649527" lon="12.9218222"><ele>469.0</ele><time>2026-04-25T15:23:42.448Z</time></trkpt><trkpt lat="42.8650883" lon="12.9217423"><ele>471.33333333333337</ele><time>2026-04-25T15:23:43.449Z</time></trkpt><trkpt lat="42.8652477" lon="12.9216747"><ele>473.66666666666663</ele><time>2026-04-25T15:23:44.448Z</time></trkpt><trkpt lat="42.865417" lon="12.9216055"><ele>476.0</ele><time>2026-04-25T15:23:45.448Z</time></trkpt><trkpt lat="42.8655812" lon="12.9215308"><ele>476.0</ele><time>2026-04-25T15:23:46.448Z</time></trkpt><trkpt lat="42.8657484" lon="12.9214651"><ele>476.0</ele><time>2026-04-25T15:23:47.449Z</time></trkpt><trkpt lat="42.8659171" lon="12.9214071"><ele>476.0</ele><time>2026-04-25T15:23:48.449Z</time></trkpt><trkpt lat="42.8660888" lon="12.9213559"><ele>476.0</ele><time>2026-04-25T15:23:49.448Z</time></trkpt><trkpt lat="42.8662473" lon="12.9213041"><ele>476.0</ele><time>2026-04-25T15:23:50.448Z</time></trkpt><trkpt lat="42.866394" lon="12.9212684"><ele>476.0</ele><time>2026-04-25T15:23:51.449Z</time></trkpt><trkpt lat="42.8665269" lon="12.9212399"><ele>476.0</ele><time>2026-04-25T15:23:52.448Z</time></trkpt><trkpt lat="42.8666335" lon="12.9212284"><ele>475.99999999999994</ele><time>2026-04-25T15:23:53.448Z</time></trkpt><trkpt lat="42.8667172" lon="12.9212361"><ele>476.0</ele><time>2026-04-25T15:23:54.449Z</time></trkpt><trkpt lat="42.8667921" lon="12.9212804"><ele>476.0</ele><time>2026-04-25T15:23:55.448Z</time></trkpt><trkpt lat="42.8668473" lon="12.921363"><ele>476.0</ele><time>2026-04-25T15:23:56.449Z</time></trkpt><trkpt lat="42.866868" lon="12.9214818"><ele>475.99999999999994</ele><time>2026-04-25T15:23:57.448Z</time></trkpt><trkpt lat="42.8668642" lon="12.9216316"><ele>476.0</ele><time>2026-04-25T15:23:58.448Z</time></trkpt><trkpt lat="42.8668453" lon="12.9217916"><ele>478.75</ele><time>2026-04-25T15:23:59.448Z</time></trkpt><trkpt lat="42.8667976" lon="12.9219499"><ele>481.5</ele><time>2026-04-25T15:24:00.449Z</time></trkpt><trkpt lat="42.8667307" lon="12.9220841"><ele>484.25</ele><time>2026-04-25T15:24:01.449Z</time></trkpt><trkpt lat="42.8666346" lon="12.9222195"><ele>487.0</ele><time>2026-04-25T15:24:02.449Z</time></trkpt><trkpt lat="42.8665285" lon="12.9223534"><ele>487.0</ele><time>2026-04-25T15:24:03.448Z</time></trkpt><trkpt lat="42.8664176" lon="12.9224853"><ele>487.0</ele><time>2026-04-25T15:24:04.449Z</time></trkpt><trkpt lat="42.8663242" lon="12.9226221"><ele>487.0</ele><time>2026-04-25T15:24:05.448Z</time></trkpt><trkpt lat="42.866249" lon="12.9227847"><ele>487.0</ele><time>2026-04-25T15:24:06.448Z</time></trkpt><trkpt lat="42.866196" lon="12.9229553"><ele>488.5</ele><time>2026-04-25T15:24:07.448Z</time></trkpt><trkpt lat="42.8661739" lon="12.9231472"><ele>490.0</ele><time>2026-04-25T15:24:08.448Z</time></trkpt><trkpt lat="42.8661609" lon="12.9233476"><ele>491.5</ele><time>2026-04-25T15:24:09.449Z</time></trkpt><trkpt lat="42.86615" lon="12.9235548"><ele>493.0</ele><time>2026-04-25T15:24:10.448Z</time></trkpt><trkpt lat="42.8661428" lon="12.9237521"><ele>493.0</ele><time>2026-04-25T15:24:11.448Z</time></trkpt><trkpt lat="42.8661466" lon="12.9239502"><ele>493.0</ele><time>2026-04-25T15:24:12.448Z</time></trkpt><trkpt lat="42.8661596" lon="12.9241378"><ele>493.0</ele><time>2026-04-25T15:24:13.448Z</time></trkpt><trkpt lat="42.8661916" lon="12.9242931"><ele>493.0</ele><time>2026-04-25T15:24:14.448Z</time></trkpt><trkpt lat="42.8662539" lon="12.9244285"><ele>491.25</ele><time>2026-04-25T15:24:15.448Z</time></trkpt><trkpt lat="42.8663284" lon="12.9245482"><ele>489.5</ele><time>2026-04-25T15:24:16.448Z</time></trkpt><trkpt lat="42.8664373" lon="12.9246382"><ele>487.75</ele><time>2026-04-25T15:24:17.448Z</time></trkpt><trkpt lat="42.8665899" lon="12.9247387"><ele>486.0</ele><time>2026-04-25T15:24:18.448Z</time></trkpt><trkpt lat="42.8667335" lon="12.9248168"><ele>489.66666666666663</ele><time>2026-04-25T15:24:19.448Z</time></trkpt><trkpt lat="42.8668619" lon="12.9249289"><ele>493.3333333333333</ele><time>2026-04-25T15:24:20.448Z</time></trkpt><trkpt lat="42.8669746" lon="12.9250584"><ele>497.0</ele><time>2026-04-25T15:24:21.449Z</time></trkpt><trkpt lat="42.8670685" lon="12.9252261"><ele>497.0</ele><time>2026-04-25T15:24:22.448Z</time></trkpt><trkpt lat="42.8671287" lon="12.9254067"><ele>497.0</ele><time>2026-04-25T15:24:23.448Z</time></trkpt><trkpt lat="42.8671832" lon="12.9255901"><ele>497.0</ele><time>2026-04-25T15:24:24.448Z</time></trkpt><trkpt lat="42.867255" lon="12.9257491"><ele>497.0</ele><time>2026-04-25T15:24:25.449Z</time></trkpt><trkpt lat="42.867337" lon="12.9258813"><ele>492.0</ele><time>2026-04-25T15:24:26.448Z</time></trkpt><trkpt lat="42.8674468" lon="12.9259715"><ele>487.0</ele><time>2026-04-25T15:24:27.448Z</time></trkpt><trkpt lat="42.867579" lon="12.9260239"><ele>482.0</ele><time>2026-04-25T15:24:28.448Z</time></trkpt><trkpt lat="42.8677198" lon="12.9260712"><ele>477.0</ele><time>2026-04-25T15:24:29.448Z</time></trkpt><trkpt lat="42.8678643" lon="12.9260938"><ele>476.0</ele><time>2026-04-25T15:24:30.448Z</time></trkpt><trkpt lat="42.8680028" lon="12.9261117"><ele>475.0</ele><time>2026-04-25T15:24:31.448Z</time></trkpt><trkpt lat="42.8681241" lon="12.926111"><ele>474.0</ele><time>2026-04-25T15:24:32.448Z</time></trkpt><trkpt lat="42.8682292" lon="12.926045"><ele>473.0</ele><time>2026-04-25T15:24:33.448Z</time></trkpt><trkpt lat="42.8683304" lon="12.9259587"><ele>479.25</ele><time>2026-04-25T15:24:34.449Z</time></trkpt><trkpt lat="42.8684107" lon="12.9258402"><ele>485.5</ele><time>2026-04-25T15:24:35.449Z</time></trkpt><trkpt lat="42.8685086" lon="12.9257218"><ele>491.75</ele><time>2026-04-25T15:24:36.448Z</time></trkpt><trkpt lat="42.868623" lon="12.9256286"><ele>498.0</ele><time>2026-04-25T15:24:37.449Z</time></trkpt><trkpt lat="42.8687514" lon="12.9255838"><ele>498.25</ele><time>2026-04-25T15:24:38.449Z</time></trkpt><trkpt lat="42.8688784" lon="12.9255663"><ele>498.5</ele><time>2026-04-25T15:24:39.448Z</time></trkpt><trkpt lat="42.8690127" lon="12.9255928"><ele>498.75</ele><time>2026-04-25T15:24:40.448Z</time></trkpt><trkpt lat="42.8691555" lon="12.92565"><ele>499.0</ele><time>2026-04-25T15:24:41.448Z</time></trkpt><trkpt lat="42.8692981" lon="12.9257062"><ele>500.25</ele><time>2026-04-25T15:24:42.448Z</time></trkpt><trkpt lat="42.8694456" lon="12.9257556"><ele>501.5</ele><time>2026-04-25T15:24:43.449Z</time></trkpt><trkpt lat="42.8695911" lon="12.9257722"><ele>502.75</ele><time>2026-04-25T15:24:44.448Z</time></trkpt><trkpt lat="42.8697237" lon="12.925767"><ele>504.0</ele><time>2026-04-25T15:24:45.448Z</time></trkpt><trkpt lat="42.8698614" lon="12.9257315"><ele>504.0</ele><time>2026-04-25T15:24:46.448Z</time></trkpt><trkpt lat="42.8700066" lon="12.92563"><ele>504.0</ele><time>2026-04-25T15:24:47.448Z</time></trkpt><trkpt lat="42.8701421" lon="12.9255107"><ele>504.0</ele><time>2026-04-25T15:24:48.449Z</time></trkpt><trkpt lat="42.8702886" lon="12.9254216"><ele>503.66666666666663</ele><time>2026-04-25T15:24:49.448Z</time></trkpt><trkpt lat="42.8704418" lon="12.9253607"><ele>503.3333333333333</ele><time>2026-04-25T15:24:50.448Z</time></trkpt><trkpt lat="42.8705946" lon="12.9253227"><ele>503.0</ele><time>2026-04-25T15:24:51.449Z</time></trkpt><trkpt lat="42.8707628" lon="12.9252957"><ele>503.0</ele><time>2026-04-25T15:24:52.448Z</time></trkpt><trkpt lat="42.8709245" lon="12.9252926"><ele>503.0</ele><time>2026-04-25T15:24:53.448Z</time></trkpt><trkpt lat="42.8710827" lon="12.9252834"><ele>503.0</ele><time>2026-04-25T15:24:54.448Z</time></trkpt><trkpt lat="42.8712538" lon="12.9252772"><ele>504.25</ele><time>2026-04-25T15:24:55.449Z</time></trkpt><trkpt lat="42.8714122" lon="12.9252821"><ele>505.5</ele><time>2026-04-25T15:24:56.449Z</time></trkpt><trkpt lat="42.8715577" lon="12.9252869"><ele>506.75</ele><time>2026-04-25T15:24:57.449Z</time></trkpt><trkpt lat="42.8716879" lon="12.9252824"><ele>508.0</ele><time>2026-04-25T15:24:58.448Z</time></trkpt><trkpt lat="42.8718043" lon="12.9252745"><ele>509.2</ele><time>2026-04-25T15:24:59.448Z</time></trkpt><trkpt lat="42.8719138" lon="12.9252565"><ele>510.4</ele><time>2026-04-25T15:25:00.448Z</time></trkpt><trkpt lat="42.8719955" lon="12.9252027"><ele>511.59999999999997</ele><time>2026-04-25T15:25:01.448Z</time></trkpt><trkpt lat="42.8720478" lon="12.9251181"><ele>512.8</ele><time>2026-04-25T15:25:02.449Z</time></trkpt><trkpt lat="42.8720688" lon="12.9249994"><ele>514.0</ele><time>2026-04-25T15:25:03.448Z</time></trkpt><trkpt lat="42.8720512" lon="12.9248841"><ele>514.4</ele><time>2026-04-25T15:25:04.448Z</time></trkpt><trkpt lat="42.8719967" lon="12.924755"><ele>514.8</ele><time>2026-04-25T15:25:05.448Z</time></trkpt><trkpt lat="42.8719337" lon="12.9246326"><ele>515.2</ele><time>2026-04-25T15:25:06.448Z</time></trkpt><trkpt lat="42.871872" lon="12.9245175"><ele>515.6</ele><time>2026-04-25T15:25:07.448Z</time></trkpt><trkpt lat="42.8718437" lon="12.9243997"><ele>516.0</ele><time>2026-04-25T15:25:08.448Z</time></trkpt><trkpt lat="42.871836" lon="12.9242759"><ele>516.8</ele><time>2026-04-25T15:25:09.448Z</time></trkpt><trkpt lat="42.8718546" lon="12.9241392"><ele>517.6</ele><time>2026-04-25T15:25:10.449Z</time></trkpt><trkpt lat="42.8718948" lon="12.9240151"><ele>518.4</ele><time>2026-04-25T15:25:11.448Z</time></trkpt><trkpt lat="42.8719554" lon="12.9238873"><ele>519.2</ele><time>2026-04-25T15:25:12.448Z</time></trkpt><trkpt lat="42.8720477" lon="12.923776"><ele>520.0</ele><time>2026-04-25T15:25:13.448Z</time></trkpt><trkpt lat="42.8721628" lon="12.9236956"><ele>520.0</ele><time>2026-04-25T15:25:14.448Z</time></trkpt><trkpt lat="42.8722976" lon="12.9236401"><ele>520.0</ele><time>2026-04-25T15:25:15.449Z</time></trkpt><trkpt lat="42.8724399" lon="12.9235861"><ele>520.0</ele><time>2026-04-25T15:25:16.448Z</time></trkpt><trkpt lat="42.8725943" lon="12.9235386"><ele>520.0</ele><time>2026-04-25T15:25:17.448Z</time></trkpt><trkpt lat="42.8727583" lon="12.9235036"><ele>518.0</ele><time>2026-04-25T15:25:18.448Z</time></trkpt><trkpt lat="42.8729196" lon="12.923457"><ele>516.0</ele><time>2026-04-25T15:25:19.448Z</time></trkpt><trkpt lat="42.8730838" lon="12.9234149"><ele>514.0</ele><time>2026-04-25T15:25:20.449Z</time></trkpt><trkpt lat="42.8732483" lon="12.9233808"><ele>523.0</ele><time>2026-04-25T15:25:21.448Z</time></trkpt><trkpt lat="42.8734122" lon="12.9233472"><ele>532.0</ele><time>2026-04-25T15:25:22.448Z</time></trkpt><trkpt lat="42.8735806" lon="12.9233178"><ele>541.0</ele><time>2026-04-25T15:25:23.448Z</time></trkpt><trkpt lat="42.8737513" lon="12.9232931"><ele>541.3333333333334</ele><time>2026-04-25T15:25:24.448Z</time></trkpt><trkpt lat="42.8739322" lon="12.9232768"><ele>541.6666666666666</ele><time>2026-04-25T15:25:25.448Z</time></trkpt><trkpt lat="42.8741075" lon="12.9232657"><ele>542.0</ele><time>2026-04-25T15:25:26.448Z</time></trkpt><trkpt lat="42.8742974" lon="12.9232686"><ele>545.6666666666666</ele><time>2026-04-25T15:25:27.449Z</time></trkpt><trkpt lat="42.8744835" lon="12.923274"><ele>549.3333333333334</ele><time>2026-04-25T15:25:28.448Z</time></trkpt><trkpt lat="42.8746663" lon="12.9232863"><ele>553.0</ele><time>2026-04-25T15:25:29.448Z</time></trkpt><trkpt lat="42.8748416" lon="12.9232974"><ele>553.0</ele><time>2026-04-25T15:25:30.448Z</time></trkpt><trkpt lat="42.8750078" lon="12.9233194"><ele>553.0</ele><time>2026-04-25T15:25:31.449Z</time></trkpt><trkpt lat="42.875175" lon="12.9233795"><ele>553.0</ele><time>2026-04-25T15:25:32.448Z</time></trkpt><trkpt lat="42.8753332" lon="12.9234524"><ele>550.0</ele><time>2026-04-25T15:25:33.448Z</time></trkpt><trkpt lat="42.8754758" lon="12.9235234"><ele>547.0</ele><time>2026-04-25T15:25:34.448Z</time></trkpt><trkpt lat="42.8756078" lon="12.9235948"><ele>544.0</ele><time>2026-04-25T15:25:35.449Z</time></trkpt><trkpt lat="42.8757385" lon="12.9236821"><ele>541.0</ele><time>2026-04-25T15:25:36.448Z</time></trkpt><trkpt lat="42.8758554" lon="12.9237666"><ele>539.4</ele><time>2026-04-25T15:25:37.448Z</time></trkpt><trkpt lat="42.875965" lon="12.9238442"><ele>537.8</ele><time>2026-04-25T15:25:38.448Z</time></trkpt><trkpt lat="42.8760672" lon="12.9238861"><ele>536.1999999999999</ele><time>2026-04-25T15:25:39.448Z</time></trkpt><trkpt lat="42.8761585" lon="12.9238796"><ele>534.6</ele><time>2026-04-25T15:25:40.448Z</time></trkpt><trkpt lat="42.8762419" lon="12.9238267"><ele>533.0</ele><time>2026-04-25T15:25:41.448Z</time></trkpt><trkpt lat="42.8763035" lon="12.9237259"><ele>533.0</ele><time>2026-04-25T15:25:42.448Z</time></trkpt><trkpt lat="42.8763606" lon="12.9235874"><ele>533.0</ele><time>2026-04-25T15:25:43.448Z</time></trkpt><trkpt lat="42.8764106" lon="12.9234427"><ele>533.0</ele><time>2026-04-25T15:25:44.448Z</time></trkpt><trkpt lat="42.8764693" lon="12.9233143"><ele>533.0</ele><time>2026-04-25T15:25:45.448Z</time></trkpt><trkpt lat="42.8765433" lon="12.9232125"><ele>539.25</ele><time>2026-04-25T15:25:46.448Z</time></trkpt><trkpt lat="42.8766304" lon="12.9231481"><ele>545.5</ele><time>2026-04-25T15:25:47.448Z</time></trkpt><trkpt lat="42.8767461" lon="12.9231397"><ele>551.75</ele><time>2026-04-25T15:25:48.448Z</time></trkpt><trkpt lat="42.8768682" lon="12.9231627"><ele>558.0</ele><time>2026-04-25T15:25:49.449Z</time></trkpt><trkpt lat="42.8769923" lon="12.9232074"><ele>559.25</ele><time>2026-04-25T15:25:50.449Z</time></trkpt><trkpt lat="42.8771213" lon="12.9232436"><ele>560.5</ele><time>2026-04-25T15:25:51.448Z</time></trkpt><trkpt lat="42.8772561" lon="12.9232682"><ele>561.75</ele><time>2026-04-25T15:25:52.448Z</time></trkpt><trkpt lat="42.877404" lon="12.9232859"><ele>563.0</ele><time>2026-04-25T15:25:53.448Z</time></trkpt><trkpt lat="42.8775566" lon="12.9232954"><ele>561.6666666666666</ele><time>2026-04-25T15:25:54.448Z</time></trkpt><trkpt lat="42.877719" lon="12.923297"><ele>560.3333333333334</ele><time>2026-04-25T15:25:55.449Z</time></trkpt><trkpt lat="42.877874" lon="12.9232893"><ele>559.0</ele><time>2026-04-25T15:25:56.448Z</time></trkpt><trkpt lat="42.8780248" lon="12.92328"><ele>559.0</ele><time>2026-04-25T15:25:57.448Z</time></trkpt><trkpt lat="42.8781753" lon="12.9232736"><ele>559.0</ele><time>2026-04-25T15:25:58.449Z</time></trkpt><trkpt lat="42.8783265" lon="12.9232504"><ele>559.0</ele><time>2026-04-25T15:25:59.448Z</time></trkpt><trkpt lat="42.8784667" lon="12.9232135"><ele>559.0</ele><time>2026-04-25T15:26:00.448Z</time></trkpt><trkpt lat="42.8785992" lon="12.9231384"><ele>557.5</ele><time>2026-04-25T15:26:01.448Z</time></trkpt><trkpt lat="42.8787299" lon="12.9230325"><ele>556.0</ele><time>2026-04-25T15:26:02.448Z</time></trkpt><trkpt lat="42.878845" lon="12.9229112"><ele>554.5</ele><time>2026-04-25T15:26:03.449Z</time></trkpt><trkpt lat="42.8789518" lon="12.9227819"><ele>553.0</ele><time>2026-04-25T15:26:04.448Z</time></trkpt><trkpt lat="42.8790523" lon="12.9226721"><ele>553.0</ele><time>2026-04-25T15:26:05.448Z</time></trkpt><trkpt lat="42.8791884" lon="12.9226091"><ele>553.0</ele><time>2026-04-25T15:26:06.448Z</time></trkpt><trkpt lat="42.8793209" lon="12.9225503"><ele>553.0</ele><time>2026-04-25T15:26:07.448Z</time></trkpt><trkpt lat="42.8794647" lon="12.9225235"><ele>553.0</ele><time>2026-04-25T15:26:08.448Z</time></trkpt><trkpt lat="42.8796134" lon="12.9225003"><ele>561.3333333333334</ele><time>2026-04-25T15:26:09.448Z</time></trkpt><trkpt lat="42.8797679" lon="12.9224763"><ele>569.6666666666666</ele><time>2026-04-25T15:26:10.448Z</time></trkpt><trkpt lat="42.8799346" lon="12.9224522"><ele>578.0</ele><time>2026-04-25T15:26:11.448Z</time></trkpt><trkpt lat="42.8801018" lon="12.9224307"><ele>578.3333333333333</ele><time>2026-04-25T15:26:12.448Z</time></trkpt><trkpt lat="42.8802769" lon="12.9224075"><ele>578.6666666666666</ele><time>2026-04-25T15:26:13.448Z</time></trkpt><trkpt lat="42.8804474" lon="12.9223892"><ele>579.0</ele><time>2026-04-25T15:26:14.448Z</time></trkpt><trkpt lat="42.8806161" lon="12.9223693"><ele>579.0</ele><time>2026-04-25T15:26:15.448Z</time></trkpt><trkpt lat="42.880788" lon="12.9223509"><ele>579.0</ele><time>2026-04-25T15:26:16.449Z</time></trkpt><trkpt lat="42.8809675" lon="12.9223123"><ele>579.0</ele><time>2026-04-25T15:26:17.449Z</time></trkpt><trkpt lat="42.8811411" lon="12.9222792"><ele>577.0</ele><time>2026-04-25T15:26:18.449Z</time></trkpt><trkpt lat="42.8813157" lon="12.9222543"><ele>575.0</ele><time>2026-04-25T15:26:19.448Z</time></trkpt><trkpt lat="42.8814888" lon="12.9222231"><ele>573.0</ele><time>2026-04-25T15:26:20.448Z</time></trkpt><trkpt lat="42.8816565" lon="12.9222119"><ele>571.3333333333334</ele><time>2026-04-25T15:26:21.449Z</time></trkpt><trkpt lat="42.8818236" lon="12.9221837"><ele>569.6666666666667</ele><time>2026-04-25T15:26:22.448Z</time></trkpt><trkpt lat="42.8819905" lon="12.9221378"><ele>568.0</ele><time>2026-04-25T15:26:23.448Z</time></trkpt><trkpt lat="42.8821535" lon="12.9220746"><ele>568.0</ele><time>2026-04-25T15:26:24.448Z</time></trkpt><trkpt lat="42.8823237" lon="12.921986"><ele>568.0</ele><time>2026-04-25T15:26:25.448Z</time></trkpt><trkpt lat="42.8824999" lon="12.9219021"><ele>568.0</ele><time>2026-04-25T15:26:26.448Z</time></trkpt><trkpt lat="42.882664" lon="12.921814"><ele>575.0</ele><time>2026-04-25T15:26:27.448Z</time></trkpt><trkpt lat="42.8828107" lon="12.9217256"><ele>582.0</ele><time>2026-04-25T15:26:28.448Z</time></trkpt><trkpt lat="42.882938" lon="12.92163"><ele>589.0</ele><time>2026-04-25T15:26:29.448Z</time></trkpt><trkpt lat="42.8830587" lon="12.921561"><ele>596.0</ele><time>2026-04-25T15:26:30.448Z</time></trkpt><trkpt lat="42.8831882" lon="12.9215384"><ele>596.0</ele><time>2026-04-25T15:26:31.448Z</time></trkpt><trkpt lat="42.8833175" lon="12.9215291"><ele>596.0</ele><time>2026-04-25T15:26:32.448Z</time></trkpt><trkpt lat="42.8834595" lon="12.9215431"><ele>596.0</ele><time>2026-04-25T15:26:33.448Z</time></trkpt><trkpt lat="42.8836179" lon="12.9215489"><ele>596.0</ele><time>2026-04-25T15:26:34.448Z</time></trkpt><trkpt lat="42.8837871" lon="12.9215518"><ele>598.6666666666666</ele><time>2026-04-25T15:26:35.448Z</time></trkpt><trkpt lat="42.8839538" lon="12.9215445"><ele>601.3333333333334</ele><time>2026-04-25T15:26:36.448Z</time></trkpt><trkpt lat="42.8841066" lon="12.9215285"><ele>604.0</ele><time>2026-04-25T15:26:37.448Z</time></trkpt><trkpt lat="42.8842682" lon="12.9215165"><ele>609.6666666666667</ele><time>2026-04-25T15:26:38.449Z</time></trkpt><trkpt lat="42.884425" lon="12.9215208"><ele>615.3333333333334</ele><time>2026-04-25T15:26:39.449Z</time></trkpt><trkpt lat="42.8845763" lon="12.9215479"><ele>621.0</ele><time>2026-04-25T15:26:40.448Z</time></trkpt><trkpt lat="42.8847213" lon="12.921615"><ele>621.0</ele><time>2026-04-25T15:26:41.448Z</time></trkpt><trkpt lat="42.8848429" lon="12.9217076"><ele>621.0</ele><time>2026-04-25T15:26:42.448Z</time></trkpt><trkpt lat="42.884953" lon="12.9218269"><ele>621.0</ele><time>2026-04-25T15:26:43.448Z</time></trkpt><trkpt lat="42.8850455" lon="12.9219791"><ele>621.0</ele><time>2026-04-25T15:26:44.448Z</time></trkpt><trkpt lat="42.8851306" lon="12.9221456"><ele>623.5</ele><time>2026-04-25T15:26:45.448Z</time></trkpt><trkpt lat="42.8852072" lon="12.9223162"><ele>626.0</ele><time>2026-04-25T15:26:46.448Z</time></trkpt><trkpt lat="42.8852745" lon="12.9224822"><ele>628.5</ele><time>2026-04-25T15:26:47.448Z</time></trkpt><trkpt lat="42.885351" lon="12.9226258"><ele>631.0</ele><time>2026-04-25T15:26:48.448Z</time></trkpt><trkpt lat="42.8854368" lon="12.9227588"><ele>626.0</ele><time>2026-04-25T15:26:49.448Z</time></trkpt><trkpt lat="42.885535" lon="12.9228715"><ele>621.0</ele><time>2026-04-25T15:26:50.448Z</time></trkpt><trkpt lat="42.8856426" lon="12.9229852"><ele>616.0</ele><time>2026-04-25T15:26:51.448Z</time></trkpt><trkpt lat="42.8857692" lon="12.9230769"><ele>611.0</ele><time>2026-04-25T15:26:52.448Z</time></trkpt><trkpt lat="42.8859023" lon="12.9231646"><ele>614.6666666666666</ele><time>2026-04-25T15:26:53.449Z</time></trkpt><trkpt lat="42.8860337" lon="12.9232596"><ele>618.3333333333334</ele><time>2026-04-25T15:26:54.449Z</time></trkpt><trkpt lat="42.8861647" lon="12.9233716"><ele>622.0</ele><time>2026-04-25T15:26:55.448Z</time></trkpt><trkpt lat="42.8862937" lon="12.9234954"><ele>622.0</ele><time>2026-04-25T15:26:56.448Z</time></trkpt><trkpt lat="42.8864041" lon="12.9236449"><ele>622.0</ele><time>2026-04-25T15:26:57.448Z</time></trkpt><trkpt lat="42.8865013" lon="12.9238086"><ele>622.0</ele><time>2026-04-25T15:26:58.448Z</time></trkpt><trkpt lat="42.8865943" lon="12.9239778"><ele>622.0</ele><time>2026-04-25T15:26:59.448Z</time></trkpt><trkpt lat="42.8866794" lon="12.924152"><ele>622.0</ele><time>2026-04-25T15:27:00.448Z</time></trkpt><trkpt lat="42.8867629" lon="12.9243293"><ele>622.0</ele><time>2026-04-25T15:27:01.448Z</time></trkpt><trkpt lat="42.8868517" lon="12.9244877"><ele>624.75</ele><time>2026-04-25T15:27:02.448Z</time></trkpt><trkpt lat="42.8869512" lon="12.9246368"><ele>627.5</ele><time>2026-04-25T15:27:03.448Z</time></trkpt><trkpt lat="42.8870633" lon="12.9247685"><ele>630.25</ele><time>2026-04-25T15:27:04.448Z</time></trkpt><trkpt lat="42.887177" lon="12.9248889"><ele>633.0</ele><time>2026-04-25T15:27:05.448Z</time></trkpt><trkpt lat="42.8872847" lon="12.9250068"><ele>633.0</ele><time>2026-04-25T15:27:06.449Z</time></trkpt><trkpt lat="42.8873864" lon="12.9251118"><ele>633.0</ele><time>2026-04-25T15:27:07.448Z</time></trkpt><trkpt lat="42.8874776" lon="12.9252022"><ele>633.0</ele><time>2026-04-25T15:27:08.448Z</time></trkpt><trkpt lat="42.8875597" lon="12.9252817"><ele>633.0</ele><time>2026-04-25T15:27:09.448Z</time></trkpt><trkpt lat="42.8876352" lon="12.9253436"><ele>633.0</ele><time>2026-04-25T15:27:10.449Z</time></trkpt><trkpt lat="42.8876959" lon="12.9253949"><ele>633.0</ele><time>2026-04-25T15:27:11.448Z</time></trkpt><trkpt lat="42.8877713" lon="12.9254318"><ele>633.0</ele><time>2026-04-25T15:27:12.448Z</time></trkpt><trkpt lat="42.8878783" lon="12.9254805"><ele>633.0</ele><time>2026-04-25T15:27:14.448Z</time></trkpt><trkpt lat="42.8879645" lon="12.9254716"><ele>633.0</ele><time>2026-04-25T15:27:16.449Z</time></trkpt><trkpt lat="42.8880334" lon="12.9254484"><ele>633.0</ele><time>2026-04-25T15:27:18.448Z</time></trkpt><trkpt lat="42.8881253" lon="12.9253846"><ele>633.0</ele><time>2026-04-25T15:27:20.448Z</time></trkpt><trkpt lat="42.8881784" lon="12.9253312"><ele>633.0</ele><time>2026-04-25T15:27:21.448Z</time></trkpt><trkpt lat="42.8882325" lon="12.9252658"><ele>633.0</ele><time>2026-04-25T15:27:22.448Z</time></trkpt><trkpt lat="42.8882852" lon="12.9251842"><ele>633.0</ele><time>2026-04-25T15:27:23.448Z</time></trkpt><trkpt lat="42.8883278" lon="12.9250893"><ele>633.0</ele><time>2026-04-25T15:27:24.448Z</time></trkpt><trkpt lat="42.8883576" lon="12.9249861"><ele>633.0</ele><time>2026-04-25T15:27:25.448Z</time></trkpt><trkpt lat="42.888373" lon="12.9248665"><ele>632.6</ele><time>2026-04-25T15:27:26.449Z</time></trkpt><trkpt lat="42.8883734" lon="12.9247302"><ele>632.1999999999999</ele><time>2026-04-25T15:27:27.449Z</time></trkpt><trkpt lat="42.8883528" lon="12.9245996"><ele>631.8</ele><time>2026-04-25T15:27:28.448Z</time></trkpt><trkpt lat="42.8883154" lon="12.9244584"><ele>631.4</ele><time>2026-04-25T15:27:29.448Z</time></trkpt><trkpt lat="42.8882601" lon="12.9243155"><ele>631.0</ele><time>2026-04-25T15:27:30.448Z</time></trkpt><trkpt lat="42.8882022" lon="12.9241794"><ele>629.0</ele><time>2026-04-25T15:27:31.449Z</time></trkpt><trkpt lat="42.8881356" lon="12.9240444"><ele>627.0</ele><time>2026-04-25T15:27:32.448Z</time></trkpt><trkpt lat="42.888067" lon="12.9239138"><ele>625.0</ele><time>2026-04-25T15:27:33.449Z</time></trkpt><trkpt lat="42.8879873" lon="12.923796"><ele>623.0</ele><time>2026-04-25T15:27:34.448Z</time></trkpt><trkpt lat="42.8878827" lon="12.9237056"><ele>623.0</ele><time>2026-04-25T15:27:35.448Z</time></trkpt><trkpt lat="42.8877713" lon="12.9236313"><ele>623.0</ele><time>2026-04-25T15:27:36.448Z</time></trkpt><trkpt lat="42.8876681" lon="12.9235621"><ele>623.0</ele><time>2026-04-25T15:27:37.448Z</time></trkpt><trkpt lat="42.887562" lon="12.9235066"><ele>623.0</ele><time>2026-04-25T15:27:38.448Z</time></trkpt><trkpt lat="42.8874586" lon="12.9234458"><ele>624.5</ele><time>2026-04-25T15:27:39.448Z</time></trkpt><trkpt lat="42.8873544" lon="12.9233743"><ele>626.0</ele><time>2026-04-25T15:27:40.448Z</time></trkpt><trkpt lat="42.8872517" lon="12.9233044"><ele>627.5</ele><time>2026-04-25T15:27:41.448Z</time></trkpt><trkpt lat="42.8871485" lon="12.9232185"><ele>629.0</ele><time>2026-04-25T15:27:42.448Z</time></trkpt><trkpt lat="42.88705" lon="12.9231257"><ele>629.0</ele><time>2026-04-25T15:27:43.448Z</time></trkpt><trkpt lat="42.8869579" lon="12.9230329"><ele>629.0</ele><time>2026-04-25T15:27:44.448Z</time></trkpt><trkpt lat="42.8868673" lon="12.9229353"><ele>629.0</ele><time>2026-04-25T15:27:45.448Z</time></trkpt><trkpt lat="42.8867783" lon="12.9228291"><ele>629.0</ele><time>2026-04-25T15:27:46.448Z</time></trkpt><trkpt lat="42.8866984" lon="12.9227216"><ele>630.5</ele><time>2026-04-25T15:27:47.448Z</time></trkpt><trkpt lat="42.8866198" lon="12.9226055"><ele>632.0</ele><time>2026-04-25T15:27:48.448Z</time></trkpt><trkpt lat="42.88655" lon="12.922482"><ele>633.5</ele><time>2026-04-25T15:27:49.448Z</time></trkpt><trkpt lat="42.8864895" lon="12.9223533"><ele>635.0</ele><time>2026-04-25T15:27:50.449Z</time></trkpt><trkpt lat="42.8864314" lon="12.9222047"><ele>635.25</ele><time>2026-04-25T15:27:51.448Z</time></trkpt><trkpt lat="42.8863882" lon="12.9220676"><ele>635.5</ele><time>2026-04-25T15:27:52.448Z</time></trkpt><trkpt lat="42.8863408" lon="12.9219217"><ele>635.75</ele><time>2026-04-25T15:27:53.448Z</time></trkpt><trkpt lat="42.8863047" lon="12.9217648"><ele>636.0</ele><time>2026-04-25T15:27:54.448Z</time></trkpt><trkpt lat="42.8862638" lon="12.9216198"><ele>636.0</ele><time>2026-04-25T15:27:55.448Z</time></trkpt><trkpt lat="42.8862366" lon="12.9214658"><ele>636.0</ele><time>2026-04-25T15:27:56.448Z</time></trkpt><trkpt lat="42.8862177" lon="12.9213031"><ele>636.0</ele><time>2026-04-25T15:27:57.448Z</time></trkpt><trkpt lat="42.8862081" lon="12.921147"><ele>636.0</ele><time>2026-04-25T15:27:58.448Z</time></trkpt><trkpt lat="42.886205" lon="12.9209831"><ele>636.0</ele><time>2026-04-25T15:27:59.448Z</time></trkpt><trkpt lat="42.8861974" lon="12.9208283"><ele>636.0</ele><time>2026-04-25T15:28:00.448Z</time></trkpt><trkpt lat="42.886187" lon="12.9206691"><ele>636.0</ele><time>2026-04-25T15:28:01.448Z</time></trkpt><trkpt lat="42.8861798" lon="12.9205132"><ele>636.0</ele><time>2026-04-25T15:28:02.448Z</time></trkpt><trkpt lat="42.8861725" lon="12.9203462"><ele>636.0</ele><time>2026-04-25T15:28:03.448Z</time></trkpt><trkpt lat="42.8861676" lon="12.9201796"><ele>636.0</ele><time>2026-04-25T15:28:04.448Z</time></trkpt><trkpt lat="42.8861637" lon="12.9200089"><ele>636.0</ele><time>2026-04-25T15:28:05.448Z</time></trkpt><trkpt lat="42.8861609" lon="12.9198355"><ele>636.0</ele><time>2026-04-25T15:28:06.448Z</time></trkpt><trkpt lat="42.8861629" lon="12.9196591"><ele>636.5</ele><time>2026-04-25T15:28:07.448Z</time></trkpt><trkpt lat="42.8861609" lon="12.9194751"><ele>637.0</ele><time>2026-04-25T15:28:08.449Z</time></trkpt><trkpt lat="42.8861553" lon="12.9192963"><ele>637.5</ele><time>2026-04-25T15:28:09.448Z</time></trkpt><trkpt lat="42.8861517" lon="12.9191065"><ele>638.0</ele><time>2026-04-25T15:28:10.448Z</time></trkpt><trkpt lat="42.8861433" lon="12.9189231"><ele>638.75</ele><time>2026-04-25T15:28:11.449Z</time></trkpt><trkpt lat="42.8861354" lon="12.9187351"><ele>639.5</ele><time>2026-04-25T15:28:12.448Z</time></trkpt><trkpt lat="42.8861293" lon="12.9185546"><ele>640.25</ele><time>2026-04-25T15:28:13.449Z</time></trkpt><trkpt lat="42.8861457" lon="12.9183819"><ele>641.0</ele><time>2026-04-25T15:28:14.449Z</time></trkpt><trkpt lat="42.8861554" lon="12.9181982"><ele>641.5</ele><time>2026-04-25T15:28:15.448Z</time></trkpt><trkpt lat="42.8861738" lon="12.9180111"><ele>642.0</ele><time>2026-04-25T15:28:16.448Z</time></trkpt><trkpt lat="42.8862034" lon="12.9178305"><ele>642.5</ele><time>2026-04-25T15:28:17.449Z</time></trkpt><trkpt lat="42.8862407" lon="12.9176538"><ele>643.0</ele><time>2026-04-25T15:28:18.448Z</time></trkpt><trkpt lat="42.8862753" lon="12.9174684"><ele>643.25</ele><time>2026-04-25T15:28:19.448Z</time></trkpt><trkpt lat="42.8863107" lon="12.9172888"><ele>643.5</ele><time>2026-04-25T15:28:20.448Z</time></trkpt><trkpt lat="42.8863407" lon="12.9171246"><ele>643.75</ele><time>2026-04-25T15:28:21.448Z</time></trkpt><trkpt lat="42.886363" lon="12.9169749"><ele>644.0</ele><time>2026-04-25T15:28:22.448Z</time></trkpt><trkpt lat="42.8863572" lon="12.9168468"><ele>643.8000000000001</ele><time>2026-04-25T15:28:23.448Z</time></trkpt><trkpt lat="42.8863197" lon="12.9167326"><ele>643.6</ele><time>2026-04-25T15:28:24.448Z</time></trkpt><trkpt lat="42.8862494" lon="12.9166412"><ele>643.4</ele><time>2026-04-25T15:28:25.448Z</time></trkpt><trkpt lat="42.8861544" lon="12.9165757"><ele>643.2</ele><time>2026-04-25T15:28:26.448Z</time></trkpt><trkpt lat="42.8860503" lon="12.9165182"><ele>643.0</ele><time>2026-04-25T15:28:27.448Z</time></trkpt><trkpt lat="42.8859423" lon="12.9164635"><ele>650.25</ele><time>2026-04-25T15:28:28.448Z</time></trkpt><trkpt lat="42.8858273" lon="12.9163995"><ele>657.5</ele><time>2026-04-25T15:28:29.448Z</time></trkpt><trkpt lat="42.8857206" lon="12.9163193"><ele>664.75</ele><time>2026-04-25T15:28:30.448Z</time></trkpt><trkpt lat="42.8856186" lon="12.916213"><ele>672.0</ele><time>2026-04-25T15:28:31.448Z</time></trkpt><trkpt lat="42.8855386" lon="12.9160864"><ele>672.0</ele><time>2026-04-25T15:28:32.448Z</time></trkpt><trkpt lat="42.8854842" lon="12.9159376"><ele>672.0</ele><time>2026-04-25T15:28:33.448Z</time></trkpt><trkpt lat="42.8854423" lon="12.9157733"><ele>672.0</ele><time>2026-04-25T15:28:34.448Z</time></trkpt><trkpt lat="42.885424" lon="12.9156052"><ele>672.0</ele><time>2026-04-25T15:28:35.448Z</time></trkpt><trkpt lat="42.8854235" lon="12.9154451"><ele>670.75</ele><time>2026-04-25T15:28:36.448Z</time></trkpt><trkpt lat="42.885469" lon="12.9153076"><ele>669.5</ele><time>2026-04-25T15:28:37.448Z</time></trkpt><trkpt lat="42.8855336" lon="12.9151792"><ele>668.25</ele><time>2026-04-25T15:28:38.448Z</time></trkpt><trkpt lat="42.8855988" lon="12.9150342"><ele>667.0</ele><time>2026-04-25T15:28:39.448Z</time></trkpt><trkpt lat="42.8856671" lon="12.9148952"><ele>667.0</ele><time>2026-04-25T15:28:40.448Z</time></trkpt><trkpt lat="42.8857021" lon="12.9147233"><ele>667.0</ele><time>2026-04-25T15:28:41.448Z</time></trkpt><trkpt lat="42.8857302" lon="12.9145522"><ele>667.0</ele><time>2026-04-25T15:28:42.448Z</time></trkpt><trkpt lat="42.8857496" lon="12.9143597"><ele>667.0</ele><time>2026-04-25T15:28:43.448Z</time></trkpt><trkpt lat="42.8857654" lon="12.914168"><ele>668.5</ele><time>2026-04-25T15:28:44.448Z</time></trkpt><trkpt lat="42.8857736" lon="12.9139869"><ele>670.0</ele><time>2026-04-25T15:28:45.448Z</time></trkpt><trkpt lat="42.8857711" lon="12.9138116"><ele>671.5</ele><time>2026-04-25T15:28:46.448Z</time></trkpt><trkpt lat="42.8857478" lon="12.913649"><ele>673.0</ele><time>2026-04-25T15:28:47.448Z</time></trkpt><trkpt lat="42.8856969" lon="12.9134967"><ele>672.25</ele><time>2026-04-25T15:28:48.448Z</time></trkpt><trkpt lat="42.8856323" lon="12.9133575"><ele>671.5</ele><time>2026-04-25T15:28:49.448Z</time></trkpt><trkpt lat="42.8855582" lon="12.9132355"><ele>670.75</ele><time>2026-04-25T15:28:50.448Z</time></trkpt><trkpt lat="42.8854965" lon="12.9130908"><ele>670.0</ele><time>2026-04-25T15:28:51.448Z</time></trkpt><trkpt lat="42.8854804" lon="12.9129259"><ele>670.0</ele><time>2026-04-25T15:28:52.448Z</time></trkpt><trkpt lat="42.8854665" lon="12.9127628"><ele>670.0</ele><time>2026-04-25T15:28:53.448Z</time></trkpt><trkpt lat="42.8854607" lon="12.9126026"><ele>670.0</ele><time>2026-04-25T15:28:54.448Z</time></trkpt><trkpt lat="42.8854893" lon="12.9124119"><ele>670.0</ele><time>2026-04-25T15:28:55.448Z</time></trkpt><trkpt lat="42.8855147" lon="12.9122176"><ele>669.75</ele><time>2026-04-25T15:28:56.448Z</time></trkpt><trkpt lat="42.8855486" lon="12.9120104"><ele>669.5</ele><time>2026-04-25T15:28:57.448Z</time></trkpt><trkpt lat="42.8855695" lon="12.9118171"><ele>669.25</ele><time>2026-04-25T15:28:58.449Z</time></trkpt><trkpt lat="42.8855747" lon="12.9116172"><ele>669.0</ele><time>2026-04-25T15:28:59.448Z</time></trkpt><trkpt lat="42.8855829" lon="12.9114104"><ele>670.0</ele><time>2026-04-25T15:29:00.448Z</time></trkpt><trkpt lat="42.8855823" lon="12.9111899"><ele>671.0</ele><time>2026-04-25T15:29:01.448Z</time></trkpt><trkpt lat="42.8855779" lon="12.9109719"><ele>672.0</ele><time>2026-04-25T15:29:02.448Z</time></trkpt><trkpt lat="42.8855591" lon="12.9107561"><ele>675.0</ele><time>2026-04-25T15:29:03.448Z</time></trkpt><trkpt lat="42.8855417" lon="12.9105317"><ele>678.0</ele><time>2026-04-25T15:29:04.448Z</time></trkpt><trkpt lat="42.8855167" lon="12.9103174"><ele>681.0</ele><time>2026-04-25T15:29:05.448Z</time></trkpt><trkpt lat="42.8854858" lon="12.9101214"><ele>682.0</ele><time>2026-04-25T15:29:06.448Z</time></trkpt><trkpt lat="42.8854422" lon="12.9099428"><ele>683.0</ele><time>2026-04-25T15:29:07.448Z</time></trkpt><trkpt lat="42.885388" lon="12.9097606"><ele>684.0</ele><time>2026-04-25T15:29:08.448Z</time></trkpt><trkpt lat="42.8853365" lon="12.9095966"><ele>685.0</ele><time>2026-04-25T15:29:09.448Z</time></trkpt><trkpt lat="42.8852846" lon="12.9094498"><ele>685.0</ele><time>2026-04-25T15:29:10.448Z</time></trkpt><trkpt lat="42.8852438" lon="12.9093145"><ele>685.0</ele><time>2026-04-25T15:29:11.448Z</time></trkpt><trkpt lat="42.885205" lon="12.909183"><ele>685.0</ele><time>2026-04-25T15:29:12.448Z</time></trkpt><trkpt lat="42.8852074" lon="12.9090714"><ele>685.0</ele><time>2026-04-25T15:29:13.449Z</time></trkpt><trkpt lat="42.8852195" lon="12.9089638"><ele>685.0</ele><time>2026-04-25T15:29:14.449Z</time></trkpt><trkpt lat="42.8852509" lon="12.9088742"><ele>685.0</ele><time>2026-04-25T15:29:15.448Z</time></trkpt><trkpt lat="42.8853126" lon="12.9088208"><ele>685.6</ele><time>2026-04-25T15:29:16.448Z</time></trkpt><trkpt lat="42.8854221" lon="12.9088345"><ele>686.2</ele><time>2026-04-25T15:29:17.448Z</time></trkpt><trkpt lat="42.8855163" lon="12.9088783"><ele>686.8</ele><time>2026-04-25T15:29:18.449Z</time></trkpt><trkpt lat="42.8856134" lon="12.9089441"><ele>687.4</ele><time>2026-04-25T15:29:19.448Z</time></trkpt><trkpt lat="42.8857142" lon="12.9090151"><ele>688.0</ele><time>2026-04-25T15:29:20.448Z</time></trkpt><trkpt lat="42.8858027" lon="12.9091035"><ele>688.0</ele><time>2026-04-25T15:29:21.448Z</time></trkpt><trkpt lat="42.885878" lon="12.9092241"><ele>688.0</ele><time>2026-04-25T15:29:22.448Z</time></trkpt><trkpt lat="42.8859236" lon="12.9093626"><ele>688.0</ele><time>2026-04-25T15:29:23.448Z</time></trkpt><trkpt lat="42.8859519" lon="12.9095209"><ele>688.0</ele><time>2026-04-25T15:29:24.448Z</time></trkpt><trkpt lat="42.8859741" lon="12.9096929"><ele>690.5</ele><time>2026-04-25T15:29:25.448Z</time></trkpt><trkpt lat="42.8860063" lon="12.9098598"><ele>693.0</ele><time>2026-04-25T15:29:26.448Z</time></trkpt><trkpt lat="42.8860681" lon="12.9100184"><ele>695.5</ele><time>2026-04-25T15:29:27.448Z</time></trkpt><trkpt lat="42.8861366" lon="12.9101772"><ele>698.0</ele><time>2026-04-25T15:29:28.448Z</time></trkpt><trkpt lat="42.8862171" lon="12.9103399"><ele>698.0</ele><time>2026-04-25T15:29:29.449Z</time></trkpt><trkpt lat="42.8862993" lon="12.9105033"><ele>698.0</ele><time>2026-04-25T15:29:30.449Z</time></trkpt><trkpt lat="42.8863813" lon="12.9106694"><ele>698.0</ele><time>2026-04-25T15:29:31.448Z</time></trkpt><trkpt lat="42.8864663" lon="12.9108372"><ele>698.0</ele><time>2026-04-25T15:29:32.448Z</time></trkpt><trkpt lat="42.8865515" lon="12.9110147"><ele>703.0</ele><time>2026-04-25T15:29:33.448Z</time></trkpt><trkpt lat="42.8866441" lon="12.9111899"><ele>708.0</ele><time>2026-04-25T15:29:34.448Z</time></trkpt><trkpt lat="42.8867401" lon="12.9113579"><ele>713.0</ele><time>2026-04-25T15:29:35.448Z</time></trkpt><trkpt lat="42.8868537" lon="12.9115293"><ele>713.0</ele><time>2026-04-25T15:29:36.448Z</time></trkpt><trkpt lat="42.8869677" lon="12.9117005"><ele>713.0</ele><time>2026-04-25T15:29:37.448Z</time></trkpt><trkpt lat="42.8870866" lon="12.9118632"><ele>713.0</ele><time>2026-04-25T15:29:38.448Z</time></trkpt><trkpt lat="42.8872135" lon="12.912017"><ele>710.6666666666666</ele><time>2026-04-25T15:29:39.448Z</time></trkpt><trkpt lat="42.8873487" lon="12.9121634"><ele>708.3333333333334</ele><time>2026-04-25T15:29:40.448Z</time></trkpt><trkpt lat="42.8874902" lon="12.9123077"><ele>706.0</ele><time>2026-04-25T15:29:41.448Z</time></trkpt><trkpt lat="42.8876355" lon="12.9124425"><ele>702.3333333333334</ele><time>2026-04-25T15:29:42.448Z</time></trkpt><trkpt lat="42.8877781" lon="12.9125776"><ele>698.6666666666666</ele><time>2026-04-25T15:29:43.448Z</time></trkpt><trkpt lat="42.8879091" lon="12.9127052"><ele>695.0</ele><time>2026-04-25T15:29:44.448Z</time></trkpt><trkpt lat="42.8880419" lon="12.9128228"><ele>695.0</ele><time>2026-04-25T15:29:45.448Z</time></trkpt><trkpt lat="42.8881755" lon="12.9129274"><ele>695.0</ele><time>2026-04-25T15:29:46.448Z</time></trkpt><trkpt lat="42.8883101" lon="12.9130086"><ele>695.0</ele><time>2026-04-25T15:29:47.448Z</time></trkpt><trkpt lat="42.8884609" lon="12.9130533"><ele>696.6666666666666</ele><time>2026-04-25T15:29:48.448Z</time></trkpt><trkpt lat="42.8886201" lon="12.9130746"><ele>698.3333333333334</ele><time>2026-04-25T15:29:49.449Z</time></trkpt><trkpt lat="42.8887797" lon="12.9130766"><ele>700.0</ele><time>2026-04-25T15:29:50.448Z</time></trkpt><trkpt lat="42.8889466" lon="12.9130765"><ele>700.0</ele><time>2026-04-25T15:29:51.448Z</time></trkpt><trkpt lat="42.8891164" lon="12.9130831"><ele>700.0</ele><time>2026-04-25T15:29:52.449Z</time></trkpt><trkpt lat="42.8892955" lon="12.9130853"><ele>700.0</ele><time>2026-04-25T15:29:53.448Z</time></trkpt><trkpt lat="42.8894752" lon="12.9130876"><ele>700.6666666666667</ele><time>2026-04-25T15:29:54.448Z</time></trkpt><trkpt lat="42.8896558" lon="12.9130905"><ele>701.3333333333334</ele><time>2026-04-25T15:29:55.448Z</time></trkpt><trkpt lat="42.8898256" lon="12.9130993"><ele>702.0</ele><time>2026-04-25T15:29:56.448Z</time></trkpt><trkpt lat="42.8899917" lon="12.9131111"><ele>704.3333333333334</ele><time>2026-04-25T15:29:57.448Z</time></trkpt><trkpt lat="42.8901593" lon="12.9131082"><ele>706.6666666666667</ele><time>2026-04-25T15:29:58.448Z</time></trkpt><trkpt lat="42.8903305" lon="12.9131058"><ele>709.0</ele><time>2026-04-25T15:29:59.448Z</time></trkpt><trkpt lat="42.8905042" lon="12.9131008"><ele>709.0</ele><time>2026-04-25T15:30:00.448Z</time></trkpt><trkpt lat="42.8906829" lon="12.913099"><ele>709.0</ele><time>2026-04-25T15:30:01.448Z</time></trkpt><trkpt lat="42.8908586" lon="12.9130945"><ele>709.0</ele><time>2026-04-25T15:30:02.448Z</time></trkpt><trkpt lat="42.8910322" lon="12.9130961"><ele>709.8000000000001</ele><time>2026-04-25T15:30:03.448Z</time></trkpt><trkpt lat="42.8911773" lon="12.9130982"><ele>710.6</ele><time>2026-04-25T15:30:04.449Z</time></trkpt><trkpt lat="42.8912957" lon="12.9131005"><ele>711.4</ele><time>2026-04-25T15:30:05.448Z</time></trkpt><trkpt lat="42.8913951" lon="12.913102"><ele>712.2</ele><time>2026-04-25T15:30:06.448Z</time></trkpt><trkpt lat="42.8914763" lon="12.9130969"><ele>713.0</ele><time>2026-04-25T15:30:07.448Z</time></trkpt><trkpt lat="42.8915494" lon="12.9130739"><ele>713.0</ele><time>2026-04-25T15:30:08.448Z</time></trkpt><trkpt lat="42.8916191" lon="12.9130276"><ele>713.0</ele><time>2026-04-25T15:30:09.448Z</time></trkpt><trkpt lat="42.8916886" lon="12.9129549"><ele>713.0</ele><time>2026-04-25T15:30:10.448Z</time></trkpt><trkpt lat="42.8917477" lon="12.9128633"><ele>713.0</ele><time>2026-04-25T15:30:11.448Z</time></trkpt><trkpt lat="42.8917904" lon="12.9127428"><ele>713.0</ele><time>2026-04-25T15:30:12.448Z</time></trkpt><trkpt lat="42.8918334" lon="12.9125991"><ele>710.75</ele><time>2026-04-25T15:30:13.448Z</time></trkpt><trkpt lat="42.8918656" lon="12.9124382"><ele>708.5</ele><time>2026-04-25T15:30:14.448Z</time></trkpt><trkpt lat="42.8918861" lon="12.9122691"><ele>706.25</ele><time>2026-04-25T15:30:15.448Z</time></trkpt><trkpt lat="42.8919118" lon="12.9120962"><ele>704.0</ele><time>2026-04-25T15:30:16.448Z</time></trkpt><trkpt lat="42.8919362" lon="12.9119224"><ele>705.0</ele><time>2026-04-25T15:30:17.448Z</time></trkpt><trkpt lat="42.8919581" lon="12.9117284"><ele>706.0</ele><time>2026-04-25T15:30:18.448Z</time></trkpt><trkpt lat="42.8919894" lon="12.9115211"><ele>707.0</ele><time>2026-04-25T15:30:19.448Z</time></trkpt><trkpt lat="42.8920246" lon="12.9113112"><ele>707.0</ele><time>2026-04-25T15:30:20.448Z</time></trkpt><trkpt lat="42.8920554" lon="12.9110978"><ele>707.0</ele><time>2026-04-25T15:30:21.448Z</time></trkpt><trkpt lat="42.8920921" lon="12.9108893"><ele>707.0</ele><time>2026-04-25T15:30:22.448Z</time></trkpt><trkpt lat="42.8921362" lon="12.9106952"><ele>708.5</ele><time>2026-04-25T15:30:23.448Z</time></trkpt><trkpt lat="42.8921969" lon="12.9105083"><ele>710.0</ele><time>2026-04-25T15:30:24.448Z</time></trkpt><trkpt lat="42.8922851" lon="12.9103468"><ele>711.5</ele><time>2026-04-25T15:30:25.448Z</time></trkpt><trkpt lat="42.8923973" lon="12.9102142"><ele>713.0</ele><time>2026-04-25T15:30:26.448Z</time></trkpt><trkpt lat="42.8925202" lon="12.9101018"><ele>716.0</ele><time>2026-04-25T15:30:27.448Z</time></trkpt><trkpt lat="42.892655" lon="12.9100138"><ele>719.0</ele><time>2026-04-25T15:30:28.448Z</time></trkpt><trkpt lat="42.8928031" lon="12.9099335"><ele>722.0</ele><time>2026-04-25T15:30:29.448Z</time></trkpt><trkpt lat="42.8929533" lon="12.9098518"><ele>722.0</ele><time>2026-04-25T15:30:30.448Z</time></trkpt><trkpt lat="42.8930987" lon="12.9097661"><ele>722.0</ele><time>2026-04-25T15:30:31.448Z</time></trkpt><trkpt lat="42.8932423" lon="12.9096799"><ele>722.0</ele><time>2026-04-25T15:30:32.449Z</time></trkpt><trkpt lat="42.8933914" lon="12.9095956"><ele>721.0</ele><time>2026-04-25T15:30:33.448Z</time></trkpt><trkpt lat="42.8935425" lon="12.9095203"><ele>720.0</ele><time>2026-04-25T15:30:34.448Z</time></trkpt><trkpt lat="42.8936925" lon="12.9094292"><ele>719.0</ele><time>2026-04-25T15:30:35.448Z</time></trkpt><trkpt lat="42.8938398" lon="12.9093282"><ele>723.6666666666666</ele><time>2026-04-25T15:30:36.449Z</time></trkpt><trkpt lat="42.8939748" lon="12.9092011"><ele>728.3333333333334</ele><time>2026-04-25T15:30:37.448Z</time></trkpt><trkpt lat="42.8941046" lon="12.9090599"><ele>733.0</ele><time>2026-04-25T15:30:38.448Z</time></trkpt><trkpt lat="42.8942342" lon="12.9089193"><ele>730.75</ele><time>2026-04-25T15:30:39.448Z</time></trkpt><trkpt lat="42.894358" lon="12.9087888"><ele>728.5</ele><time>2026-04-25T15:30:40.448Z</time></trkpt><trkpt lat="42.894477" lon="12.9086692"><ele>726.25</ele><time>2026-04-25T15:30:41.448Z</time></trkpt><trkpt lat="42.8945936" lon="12.908568"><ele>724.0</ele><time>2026-04-25T15:30:42.448Z</time></trkpt><trkpt lat="42.8947278" lon="12.9084951"><ele>724.0</ele><time>2026-04-25T15:30:43.448Z</time></trkpt><trkpt lat="42.8948701" lon="12.9084996"><ele>724.0</ele><time>2026-04-25T15:30:44.449Z</time></trkpt><trkpt lat="42.8950132" lon="12.9085118"><ele>724.0</ele><time>2026-04-25T15:30:45.448Z</time></trkpt><trkpt lat="42.8951496" lon="12.908524"><ele>724.0</ele><time>2026-04-25T15:30:46.448Z</time></trkpt><trkpt lat="42.8952966" lon="12.9085447"><ele>724.3333333333334</ele><time>2026-04-25T15:30:47.448Z</time></trkpt><trkpt lat="42.8954463" lon="12.9085613"><ele>724.6666666666666</ele><time>2026-04-25T15:30:48.449Z</time></trkpt><trkpt lat="42.8956017" lon="12.908584"><ele>725.0</ele><time>2026-04-25T15:30:49.448Z</time></trkpt><trkpt lat="42.8957511" lon="12.9085865"><ele>725.0</ele><time>2026-04-25T15:30:50.448Z</time></trkpt><trkpt lat="42.8958948" lon="12.9085332"><ele>725.0</ele><time>2026-04-25T15:30:51.448Z</time></trkpt><trkpt lat="42.8960399" lon="12.9084451"><ele>725.0</ele><time>2026-04-25T15:30:52.448Z</time></trkpt><trkpt lat="42.8961764" lon="12.9083498"><ele>731.0</ele><time>2026-04-25T15:30:53.448Z</time></trkpt><trkpt lat="42.8963068" lon="12.9082534"><ele>737.0</ele><time>2026-04-25T15:30:54.448Z</time></trkpt><trkpt lat="42.8964183" lon="12.9081562"><ele>743.0</ele><time>2026-04-25T15:30:55.448Z</time></trkpt><trkpt lat="42.8965238" lon="12.9080912"><ele>749.0</ele><time>2026-04-25T15:30:56.448Z</time></trkpt><trkpt lat="42.8966366" lon="12.9080606"><ele>750.25</ele><time>2026-04-25T15:30:57.449Z</time></trkpt><trkpt lat="42.8967567" lon="12.9080808"><ele>751.5</ele><time>2026-04-25T15:30:58.448Z</time></trkpt><trkpt lat="42.8968785" lon="12.9081287"><ele>752.75</ele><time>2026-04-25T15:30:59.448Z</time></trkpt><trkpt lat="42.8970024" lon="12.9081998"><ele>754.0</ele><time>2026-04-25T15:31:00.448Z</time></trkpt><trkpt lat="42.8971352" lon="12.9082566"><ele>754.0</ele><time>2026-04-25T15:31:01.448Z</time></trkpt><trkpt lat="42.8972831" lon="12.9083051"><ele>754.0</ele><time>2026-04-25T15:31:02.448Z</time></trkpt><trkpt lat="42.8974269" lon="12.9083355"><ele>754.0</ele><time>2026-04-25T15:31:03.449Z</time></trkpt><trkpt lat="42.8975816" lon="12.9083322"><ele>753.3333333333334</ele><time>2026-04-25T15:31:04.449Z</time></trkpt><trkpt lat="42.8977432" lon="12.9082939"><ele>752.6666666666666</ele><time>2026-04-25T15:31:05.448Z</time></trkpt><trkpt lat="42.8979017" lon="12.9082545"><ele>752.0</ele><time>2026-04-25T15:31:06.448Z</time></trkpt><trkpt lat="42.8980486" lon="12.9081959"><ele>752.0</ele><time>2026-04-25T15:31:07.448Z</time></trkpt><trkpt lat="42.8981961" lon="12.9081367"><ele>752.0</ele><time>2026-04-25T15:31:08.448Z</time></trkpt><trkpt lat="42.8983568" lon="12.9080757"><ele>752.0</ele><time>2026-04-25T15:31:09.448Z</time></trkpt><trkpt lat="42.8985154" lon="12.9080178"><ele>747.0</ele><time>2026-04-25T15:31:10.448Z</time></trkpt><trkpt lat="42.8986837" lon="12.9079433"><ele>742.0</ele><time>2026-04-25T15:31:11.448Z</time></trkpt><trkpt lat="42.8988438" lon="12.9078505"><ele>737.0</ele><time>2026-04-25T15:31:12.449Z</time></trkpt><trkpt lat="42.8989994" lon="12.9077562"><ele>737.0</ele><time>2026-04-25T15:31:13.448Z</time></trkpt><trkpt lat="42.8991584" lon="12.9076583"><ele>737.0</ele><time>2026-04-25T15:31:14.448Z</time></trkpt><trkpt lat="42.8993247" lon="12.9075484"><ele>737.0</ele><time>2026-04-25T15:31:15.448Z</time></trkpt><trkpt lat="42.8994942" lon="12.9074438"><ele>742.6666666666666</ele><time>2026-04-25T15:31:16.448Z</time></trkpt><trkpt lat="42.8996599" lon="12.9073464"><ele>748.3333333333334</ele><time>2026-04-25T15:31:17.449Z</time></trkpt><trkpt lat="42.8998233" lon="12.9072369"><ele>754.0</ele><time>2026-04-25T15:31:18.448Z</time></trkpt><trkpt lat="42.8999874" lon="12.9071251"><ele>747.3333333333334</ele><time>2026-04-25T15:31:19.448Z</time></trkpt><trkpt lat="42.9001325" lon="12.9070187"><ele>740.6666666666666</ele><time>2026-04-25T15:31:20.449Z</time></trkpt><trkpt lat="42.9002649" lon="12.9069004"><ele>734.0</ele><time>2026-04-25T15:31:21.448Z</time></trkpt><trkpt lat="42.9003725" lon="12.9067588"><ele>742.5</ele><time>2026-04-25T15:31:22.448Z</time></trkpt><trkpt lat="42.9004643" lon="12.9066138"><ele>751.0</ele><time>2026-04-25T15:31:23.448Z</time></trkpt><trkpt lat="42.9005632" lon="12.9064838"><ele>759.5</ele><time>2026-04-25T15:31:24.448Z</time></trkpt><trkpt lat="42.9006627" lon="12.9063708"><ele>768.0</ele><time>2026-04-25T15:31:25.448Z</time></trkpt><trkpt lat="42.900783" lon="12.9063535"><ele>768.0</ele><time>2026-04-25T15:31:26.448Z</time></trkpt><trkpt lat="42.9009133" lon="12.906355"><ele>768.0</ele><time>2026-04-25T15:31:27.448Z</time></trkpt><trkpt lat="42.9010399" lon="12.9063535"><ele>768.0</ele><time>2026-04-25T15:31:28.448Z</time></trkpt><trkpt lat="42.9011778" lon="12.9063524"><ele>768.0</ele><time>2026-04-25T15:31:29.448Z</time></trkpt><trkpt lat="42.9013254" lon="12.9063428"><ele>765.3333333333334</ele><time>2026-04-25T15:31:30.449Z</time></trkpt><trkpt lat="42.9014713" lon="12.9063015"><ele>762.6666666666667</ele><time>2026-04-25T15:31:31.448Z</time></trkpt><trkpt lat="42.9016105" lon="12.9062256"><ele>760.0</ele><time>2026-04-25T15:31:32.448Z</time></trkpt><trkpt lat="42.90175" lon="12.9061282"><ele>763.6666666666667</ele><time>2026-04-25T15:31:33.448Z</time></trkpt><trkpt lat="42.9018694" lon="12.9059942"><ele>767.3333333333334</ele><time>2026-04-25T15:31:34.448Z</time></trkpt><trkpt lat="42.9019805" lon="12.9058506"><ele>771.0</ele><time>2026-04-25T15:31:35.448Z</time></trkpt><trkpt lat="42.9021093" lon="12.9057053"><ele>771.0</ele><time>2026-04-25T15:31:36.449Z</time></trkpt><trkpt lat="42.9022402" lon="12.9055746"><ele>771.0</ele><time>2026-04-25T15:31:37.448Z</time></trkpt><trkpt lat="42.9023813" lon="12.9054588"><ele>771.0</ele><time>2026-04-25T15:31:38.448Z</time></trkpt><trkpt lat="42.9025324" lon="12.9053287"><ele>774.3333333333333</ele><time>2026-04-25T15:31:39.449Z</time></trkpt><trkpt lat="42.9026785" lon="12.9051826"><ele>777.6666666666666</ele><time>2026-04-25T15:31:40.448Z</time></trkpt><trkpt lat="42.9028187" lon="12.905033"><ele>781.0</ele><time>2026-04-25T15:31:41.448Z</time></trkpt><trkpt lat="42.9029609" lon="12.9048725"><ele>781.0</ele><time>2026-04-25T15:31:42.448Z</time></trkpt><trkpt lat="42.9031001" lon="12.9047111"><ele>781.0</ele><time>2026-04-25T15:31:43.449Z</time></trkpt><trkpt lat="42.9032348" lon="12.9045614"><ele>781.0</ele><time>2026-04-25T15:31:44.448Z</time></trkpt><trkpt lat="42.9033586" lon="12.9044132"><ele>779.5</ele><time>2026-04-25T15:31:45.448Z</time></trkpt><trkpt lat="42.9034718" lon="12.9042822"><ele>778.0</ele><time>2026-04-25T15:31:46.448Z</time></trkpt><trkpt lat="42.9035705" lon="12.9041491"><ele>776.5</ele><time>2026-04-25T15:31:47.448Z</time></trkpt><trkpt lat="42.9036508" lon="12.9039889"><ele>775.0</ele><time>2026-04-25T15:31:48.448Z</time></trkpt><trkpt lat="42.9037133" lon="12.9038335"><ele>775.0</ele><time>2026-04-25T15:31:49.448Z</time></trkpt><trkpt lat="42.9037712" lon="12.9036762"><ele>775.0</ele><time>2026-04-25T15:31:50.448Z</time></trkpt><trkpt lat="42.9037809" lon="12.9034812"><ele>775.0</ele><time>2026-04-25T15:31:51.448Z</time></trkpt><trkpt lat="42.9038034" lon="12.9032725"><ele>775.0</ele><time>2026-04-25T15:31:52.448Z</time></trkpt><trkpt lat="42.9038293" lon="12.9030634"><ele>778.0</ele><time>2026-04-25T15:31:53.449Z</time></trkpt><trkpt lat="42.9038485" lon="12.9028625"><ele>781.0</ele><time>2026-04-25T15:31:54.448Z</time></trkpt><trkpt lat="42.9038796" lon="12.9026767"><ele>784.0</ele><time>2026-04-25T15:31:55.448Z</time></trkpt><trkpt lat="42.9039129" lon="12.9024986"><ele>787.0</ele><time>2026-04-25T15:31:56.448Z</time></trkpt><trkpt lat="42.9039676" lon="12.9023408"><ele>784.0</ele><time>2026-04-25T15:31:57.448Z</time></trkpt><trkpt lat="42.904044" lon="12.9022038"><ele>781.0</ele><time>2026-04-25T15:31:58.449Z</time></trkpt><trkpt lat="42.9041412" lon="12.902066"><ele>778.0</ele><time>2026-04-25T15:31:59.448Z</time></trkpt><trkpt lat="42.9042415" lon="12.9019189"><ele>775.0</ele><time>2026-04-25T15:32:00.448Z</time></trkpt><trkpt lat="42.9043532" lon="12.9017651"><ele>782.3333333333333</ele><time>2026-04-25T15:32:01.448Z</time></trkpt><trkpt lat="42.9044658" lon="12.9016011"><ele>789.6666666666667</ele><time>2026-04-25T15:32:02.449Z</time></trkpt><trkpt lat="42.9045823" lon="12.9014471"><ele>797.0</ele><time>2026-04-25T15:32:03.448Z</time></trkpt><trkpt lat="42.9046931" lon="12.9012915"><ele>797.0</ele><time>2026-04-25T15:32:04.448Z</time></trkpt><trkpt lat="42.9047872" lon="12.9011164"><ele>797.0</ele><time>2026-04-25T15:32:05.448Z</time></trkpt><trkpt lat="42.9048756" lon="12.9009297"><ele>797.0</ele><time>2026-04-25T15:32:06.448Z</time></trkpt><trkpt lat="42.9049514" lon="12.9007407"><ele>796.75</ele><time>2026-04-25T15:32:07.448Z</time></trkpt><trkpt lat="42.905021" lon="12.9005656"><ele>796.5</ele><time>2026-04-25T15:32:08.448Z</time></trkpt><trkpt lat="42.9050678" lon="12.9003946"><ele>796.25</ele><time>2026-04-25T15:32:09.448Z</time></trkpt><trkpt lat="42.9051034" lon="12.90024"><ele>796.0</ele><time>2026-04-25T15:32:10.448Z</time></trkpt><trkpt lat="42.9051109" lon="12.9000891"><ele>798.0</ele><time>2026-04-25T15:32:11.449Z</time></trkpt><trkpt lat="42.9050864" lon="12.8999443"><ele>800.0</ele><time>2026-04-25T15:32:12.448Z</time></trkpt><trkpt lat="42.905038" lon="12.8998072"><ele>802.0</ele><time>2026-04-25T15:32:13.448Z</time></trkpt><trkpt lat="42.9049465" lon="12.8997059"><ele>804.0</ele><time>2026-04-25T15:32:14.449Z</time></trkpt><trkpt lat="42.9048425" lon="12.8996299"><ele>806.75</ele><time>2026-04-25T15:32:15.448Z</time></trkpt><trkpt lat="42.9047136" lon="12.8996062"><ele>809.5</ele><time>2026-04-25T15:32:16.448Z</time></trkpt><trkpt lat="42.9045833" lon="12.8996135"><ele>812.25</ele><time>2026-04-25T15:32:17.448Z</time></trkpt><trkpt lat="42.9044679" lon="12.8996278"><ele>815.0</ele><time>2026-04-25T15:32:18.448Z</time></trkpt><trkpt lat="42.9043634" lon="12.8996468"><ele>815.0</ele><time>2026-04-25T15:32:19.448Z</time></trkpt><trkpt lat="42.9042681" lon="12.8996424"><ele>815.0</ele><time>2026-04-25T15:32:20.448Z</time></trkpt><trkpt lat="42.9041824" lon="12.8995875"><ele>815.0</ele><time>2026-04-25T15:32:21.448Z</time></trkpt><trkpt lat="42.9041169" lon="12.8995022"><ele>815.0</ele><time>2026-04-25T15:32:22.448Z</time></trkpt><trkpt lat="42.9040574" lon="12.8993988"><ele>815.0</ele><time>2026-04-25T15:32:23.448Z</time></trkpt><trkpt lat="42.9040608" lon="12.8992723"><ele>815.5</ele><time>2026-04-25T15:32:24.448Z</time></trkpt><trkpt lat="42.9040961" lon="12.8991501"><ele>816.0</ele><time>2026-04-25T15:32:25.448Z</time></trkpt><trkpt lat="42.9041691" lon="12.8990317"><ele>816.5</ele><time>2026-04-25T15:32:26.448Z</time></trkpt><trkpt lat="42.9042608" lon="12.8989218"><ele>817.0</ele><time>2026-04-25T15:32:27.449Z</time></trkpt><trkpt lat="42.9043752" lon="12.8988173"><ele>817.0</ele><time>2026-04-25T15:32:28.448Z</time></trkpt><trkpt lat="42.9044978" lon="12.8987294"><ele>817.0</ele><time>2026-04-25T15:32:29.448Z</time></trkpt><trkpt lat="42.9046132" lon="12.8986288"><ele>817.0</ele><time>2026-04-25T15:32:30.448Z</time></trkpt><trkpt lat="42.9047272" lon="12.8985303"><ele>817.0</ele><time>2026-04-25T15:32:31.449Z</time></trkpt><trkpt lat="42.9048513" lon="12.8984258"><ele>816.0</ele><time>2026-04-25T15:32:32.449Z</time></trkpt><trkpt lat="42.9049584" lon="12.8983076"><ele>815.0</ele><time>2026-04-25T15:32:33.448Z</time></trkpt><trkpt lat="42.9050459" lon="12.8981622"><ele>814.0</ele><time>2026-04-25T15:32:34.449Z</time></trkpt><trkpt lat="42.9051191" lon="12.89799"><ele>813.0</ele><time>2026-04-25T15:32:35.448Z</time></trkpt><trkpt lat="42.9051663" lon="12.8978023"><ele>813.0</ele><time>2026-04-25T15:32:36.448Z</time></trkpt><trkpt lat="42.9051899" lon="12.897613"><ele>813.0</ele><time>2026-04-25T15:32:37.448Z</time></trkpt><trkpt lat="42.9051791" lon="12.897421"><ele>813.0</ele><time>2026-04-25T15:32:38.448Z</time></trkpt><trkpt lat="42.905157" lon="12.8972382"><ele>813.0</ele><time>2026-04-25T15:32:39.448Z</time></trkpt><trkpt lat="42.9051281" lon="12.8970578"><ele>817.0</ele><time>2026-04-25T15:32:40.448Z</time></trkpt><trkpt lat="42.9050997" lon="12.8968694"><ele>821.0</ele><time>2026-04-25T15:32:41.449Z</time></trkpt><trkpt lat="42.9050738" lon="12.8966876"><ele>825.0</ele><time>2026-04-25T15:32:42.448Z</time></trkpt><trkpt lat="42.9050481" lon="12.896524"><ele>829.0</ele><time>2026-04-25T15:32:43.448Z</time></trkpt><trkpt lat="42.9050202" lon="12.896364"><ele>830.75</ele><time>2026-04-25T15:32:44.448Z</time></trkpt><trkpt lat="42.90499" lon="12.8962084"><ele>832.5</ele><time>2026-04-25T15:32:45.448Z</time></trkpt><trkpt lat="42.9049633" lon="12.8960524"><ele>834.25</ele><time>2026-04-25T15:32:46.448Z</time></trkpt><trkpt lat="42.9049455" lon="12.8958831"><ele>836.0</ele><time>2026-04-25T15:32:47.449Z</time></trkpt><trkpt lat="42.9049261" lon="12.8957139"><ele>836.0</ele><time>2026-04-25T15:32:48.448Z</time></trkpt><trkpt lat="42.9049057" lon="12.8955338"><ele>836.0</ele><time>2026-04-25T15:32:49.448Z</time></trkpt><trkpt lat="42.9048874" lon="12.8953465"><ele>836.0</ele><time>2026-04-25T15:32:50.448Z</time></trkpt><trkpt lat="42.9048734" lon="12.8951571"><ele>836.0</ele><time>2026-04-25T15:32:51.448Z</time></trkpt><trkpt lat="42.9048561" lon="12.8949552"><ele>835.6666666666667</ele><time>2026-04-25T15:32:52.448Z</time></trkpt><trkpt lat="42.9048398" lon="12.8947483"><ele>835.3333333333333</ele><time>2026-04-25T15:32:53.448Z</time></trkpt><trkpt lat="42.904827" lon="12.8945381"><ele>835.0</ele><time>2026-04-25T15:32:54.448Z</time></trkpt><trkpt lat="42.9048173" lon="12.8943248"><ele>835.3333333333333</ele><time>2026-04-25T15:32:55.448Z</time></trkpt><trkpt lat="42.9048006" lon="12.8941062"><ele>835.6666666666667</ele><time>2026-04-25T15:32:56.449Z</time></trkpt><trkpt lat="42.9047818" lon="12.8938733"><ele>836.0</ele><time>2026-04-25T15:32:57.448Z</time></trkpt><trkpt lat="42.9047676" lon="12.8936399"><ele>834.6666666666667</ele><time>2026-04-25T15:32:58.449Z</time></trkpt><trkpt lat="42.9047528" lon="12.8934061"><ele>833.3333333333333</ele><time>2026-04-25T15:32:59.448Z</time></trkpt><trkpt lat="42.9047373" lon="12.8931691"><ele>832.0</ele><time>2026-04-25T15:33:00.448Z</time></trkpt><trkpt lat="42.9047274" lon="12.8929196"><ele>832.0</ele><time>2026-04-25T15:33:01.448Z</time></trkpt><trkpt lat="42.9047069" lon="12.8926822"><ele>832.0</ele><time>2026-04-25T15:33:02.448Z</time></trkpt><trkpt lat="42.9046963" lon="12.8924444"><ele>832.0</ele><time>2026-04-25T15:33:03.448Z</time></trkpt><trkpt lat="42.904691" lon="12.8922298"><ele>831.6666666666666</ele><time>2026-04-25T15:33:04.448Z</time></trkpt><trkpt lat="42.9046798" lon="12.8920137"><ele>831.3333333333333</ele><time>2026-04-25T15:33:05.448Z</time></trkpt><trkpt lat="42.9046662" lon="12.8918004"><ele>831.0</ele><time>2026-04-25T15:33:06.448Z</time></trkpt><trkpt lat="42.9046526" lon="12.891594"><ele>831.0</ele><time>2026-04-25T15:33:07.448Z</time></trkpt><trkpt lat="42.904645" lon="12.8913974"><ele>831.0</ele><time>2026-04-25T15:33:08.448Z</time></trkpt><trkpt lat="42.904631" lon="12.8911885"><ele>831.0</ele><time>2026-04-25T15:33:09.448Z</time></trkpt><trkpt lat="42.9046149" lon="12.8909752"><ele>830.6666666666667</ele><time>2026-04-25T15:33:10.448Z</time></trkpt><trkpt lat="42.9046127" lon="12.8907572"><ele>830.3333333333334</ele><time>2026-04-25T15:33:11.448Z</time></trkpt><trkpt lat="42.9046299" lon="12.8905343"><ele>830.0</ele><time>2026-04-25T15:33:12.448Z</time></trkpt><trkpt lat="42.9046626" lon="12.890306"><ele>826.6666666666667</ele><time>2026-04-25T15:33:13.448Z</time></trkpt><trkpt lat="42.9047229" lon="12.8900855"><ele>823.3333333333333</ele><time>2026-04-25T15:33:14.448Z</time></trkpt><trkpt lat="42.9048034" lon="12.8899016"><ele>820.0</ele><time>2026-04-25T15:33:15.449Z</time></trkpt><trkpt lat="42.904902" lon="12.8897173"><ele>820.0</ele><time>2026-04-25T15:33:16.449Z</time></trkpt><trkpt lat="42.9050112" lon="12.8895506"><ele>820.0</ele><time>2026-04-25T15:33:17.448Z</time></trkpt><trkpt lat="42.9051519" lon="12.8893996"><ele>820.0</ele><time>2026-04-25T15:33:18.448Z</time></trkpt><trkpt lat="42.9052955" lon="12.8892892"><ele>816.0</ele><time>2026-04-25T15:33:19.448Z</time></trkpt><trkpt lat="42.9054537" lon="12.8892092"><ele>812.0</ele><time>2026-04-25T15:33:20.448Z</time></trkpt><trkpt lat="42.9056183" lon="12.8891366"><ele>808.0</ele><time>2026-04-25T15:33:21.448Z</time></trkpt><trkpt lat="42.9057832" lon="12.8890876"><ele>813.0</ele><time>2026-04-25T15:33:22.448Z</time></trkpt><trkpt lat="42.9059372" lon="12.8890332"><ele>818.0</ele><time>2026-04-25T15:33:23.448Z</time></trkpt><trkpt lat="42.9060979" lon="12.8889668"><ele>823.0</ele><time>2026-04-25T15:33:24.448Z</time></trkpt><trkpt lat="42.9062442" lon="12.8888601"><ele>823.0</ele><time>2026-04-25T15:33:25.448Z</time></trkpt><trkpt lat="42.9063761" lon="12.8887196"><ele>823.0</ele><time>2026-04-25T15:33:26.448Z</time></trkpt><trkpt lat="42.906501" lon="12.8885601"><ele>823.0</ele><time>2026-04-25T15:33:27.448Z</time></trkpt><trkpt lat="42.9066297" lon="12.8883951"><ele>828.6666666666666</ele><time>2026-04-25T15:33:28.448Z</time></trkpt><trkpt lat="42.9067638" lon="12.8882264"><ele>834.3333333333333</ele><time>2026-04-25T15:33:29.449Z</time></trkpt><trkpt lat="42.9068894" lon="12.8880545"><ele>840.0</ele><time>2026-04-25T15:33:30.448Z</time></trkpt><trkpt lat="42.9070213" lon="12.8878892"><ele>840.0</ele><time>2026-04-25T15:33:31.448Z</time></trkpt><trkpt lat="42.9071547" lon="12.8877192"><ele>840.0</ele><time>2026-04-25T15:33:32.448Z</time></trkpt><trkpt lat="42.9072831" lon="12.8875454"><ele>840.0</ele><time>2026-04-25T15:33:33.448Z</time></trkpt><trkpt lat="42.9073976" lon="12.8873847"><ele>835.6666666666667</ele><time>2026-04-25T15:33:34.448Z</time></trkpt><trkpt lat="42.9075173" lon="12.8872485"><ele>831.3333333333334</ele><time>2026-04-25T15:33:35.448Z</time></trkpt><trkpt lat="42.9076363" lon="12.887121"><ele>827.0</ele><time>2026-04-25T15:33:36.448Z</time></trkpt><trkpt lat="42.9077701" lon="12.8870346"><ele>827.0</ele><time>2026-04-25T15:33:37.448Z</time></trkpt><trkpt lat="42.9079037" lon="12.8869713"><ele>827.0</ele><time>2026-04-25T15:33:38.449Z</time></trkpt><trkpt lat="42.9080328" lon="12.8869429"><ele>827.0</ele><time>2026-04-25T15:33:39.448Z</time></trkpt><trkpt lat="42.9081797" lon="12.8869882"><ele>827.0</ele><time>2026-04-25T15:33:40.448Z</time></trkpt><trkpt lat="42.9083368" lon="12.8870195"><ele>825.3333333333334</ele><time>2026-04-25T15:33:41.448Z</time></trkpt><trkpt lat="42.9084807" lon="12.8870584"><ele>823.6666666666667</ele><time>2026-04-25T15:33:42.448Z</time></trkpt><trkpt lat="42.9086449" lon="12.8871048"><ele>822.0</ele><time>2026-04-25T15:33:43.448Z</time></trkpt><trkpt lat="42.9087984" lon="12.8871208"><ele>822.0</ele><time>2026-04-25T15:33:44.448Z</time></trkpt><trkpt lat="42.9089667" lon="12.8871304"><ele>822.0</ele><time>2026-04-25T15:33:45.448Z</time></trkpt><trkpt lat="42.9091365" lon="12.8871199"><ele>822.0</ele><time>2026-04-25T15:33:46.448Z</time></trkpt><trkpt lat="42.9093155" lon="12.8870909"><ele>822.0</ele><time>2026-04-25T15:33:47.448Z</time></trkpt><trkpt lat="42.9094847" lon="12.8870465"><ele>822.0</ele><time>2026-04-25T15:33:48.449Z</time></trkpt><trkpt lat="42.9096499" lon="12.8869994"><ele>822.0</ele><time>2026-04-25T15:33:49.449Z</time></trkpt><trkpt lat="42.9098092" lon="12.8869671"><ele>822.0</ele><time>2026-04-25T15:33:50.448Z</time></trkpt><trkpt lat="42.9099698" lon="12.8869297"><ele>822.0</ele><time>2026-04-25T15:33:51.448Z</time></trkpt><trkpt lat="42.9101185" lon="12.886904"><ele>822.0</ele><time>2026-04-25T15:33:52.449Z</time></trkpt><trkpt lat="42.9102649" lon="12.8868918"><ele>818.0</ele><time>2026-04-25T15:33:53.449Z</time></trkpt><trkpt lat="42.9104043" lon="12.8868936"><ele>814.0</ele><time>2026-04-25T15:33:54.448Z</time></trkpt><trkpt lat="42.9105344" lon="12.8869265"><ele>810.0</ele><time>2026-04-25T15:33:55.448Z</time></trkpt><trkpt lat="42.9106543" lon="12.8869997"><ele>806.0</ele><time>2026-04-25T15:33:56.448Z</time></trkpt><trkpt lat="42.9107623" lon="12.8870992"><ele>806.0</ele><time>2026-04-25T15:33:57.449Z</time></trkpt><trkpt lat="42.9108622" lon="12.8872354"><ele>806.0</ele><time>2026-04-25T15:33:58.448Z</time></trkpt><trkpt lat="42.91096" lon="12.8873709"><ele>806.0</ele><time>2026-04-25T15:33:59.448Z</time></trkpt><trkpt lat="42.9110547" lon="12.887497"><ele>806.0</ele><time>2026-04-25T15:34:00.448Z</time></trkpt><trkpt lat="42.9111373" lon="12.8876126"><ele>808.0</ele><time>2026-04-25T15:34:01.449Z</time></trkpt><trkpt lat="42.9112257" lon="12.8876941"><ele>810.0</ele><time>2026-04-25T15:34:02.448Z</time></trkpt><trkpt lat="42.9113351" lon="12.8877314"><ele>812.0</ele><time>2026-04-25T15:34:03.448Z</time></trkpt><trkpt lat="42.9114421" lon="12.8877227"><ele>814.0</ele><time>2026-04-25T15:34:04.448Z</time></trkpt><trkpt lat="42.9115538" lon="12.8876736"><ele>816.0</ele><time>2026-04-25T15:34:05.448Z</time></trkpt><trkpt lat="42.9116525" lon="12.8875694"><ele>815.5</ele><time>2026-04-25T15:34:06.448Z</time></trkpt><trkpt lat="42.9117407" lon="12.8874311"><ele>815.0</ele><time>2026-04-25T15:34:07.449Z</time></trkpt><trkpt lat="42.9118163" lon="12.8872727"><ele>814.5</ele><time>2026-04-25T15:34:08.449Z</time></trkpt><trkpt lat="42.9118904" lon="12.8871298"><ele>814.0</ele><time>2026-04-25T15:34:09.448Z</time></trkpt><trkpt lat="42.9119704" lon="12.886999"><ele>814.0</ele><time>2026-04-25T15:34:10.448Z</time></trkpt><trkpt lat="42.9120684" lon="12.8868831"><ele>814.0</ele><time>2026-04-25T15:34:11.448Z</time></trkpt><trkpt lat="42.9121768" lon="12.8867975"><ele>814.0</ele><time>2026-04-25T15:34:12.448Z</time></trkpt><trkpt lat="42.9122967" lon="12.8867229"><ele>814.0</ele><time>2026-04-25T15:34:13.448Z</time></trkpt><trkpt lat="42.9124473" lon="12.8866957"><ele>805.3333333333333</ele><time>2026-04-25T15:34:14.448Z</time></trkpt><trkpt lat="42.9125849" lon="12.8866521"><ele>796.6666666666667</ele><time>2026-04-25T15:34:15.449Z</time></trkpt><trkpt lat="42.9127351" lon="12.8866083"><ele>788.0</ele><time>2026-04-25T15:34:16.448Z</time></trkpt><trkpt lat="42.9128957" lon="12.886568"><ele>788.0</ele><time>2026-04-25T15:34:17.448Z</time></trkpt><trkpt lat="42.9130517" lon="12.8865219"><ele>788.0</ele><time>2026-04-25T15:34:18.448Z</time></trkpt><trkpt lat="42.913212" lon="12.8864803"><ele>788.0</ele><time>2026-04-25T15:34:19.448Z</time></trkpt><trkpt lat="42.9133601" lon="12.8864379"><ele>785.25</ele><time>2026-04-25T15:34:20.448Z</time></trkpt><trkpt lat="42.9135054" lon="12.8864108"><ele>782.5</ele><time>2026-04-25T15:34:21.448Z</time></trkpt><trkpt lat="42.9136436" lon="12.8864015"><ele>779.75</ele><time>2026-04-25T15:34:22.448Z</time></trkpt><trkpt lat="42.9137706" lon="12.886435"><ele>777.0</ele><time>2026-04-25T15:34:23.448Z</time></trkpt><trkpt lat="42.913899" lon="12.8865047"><ele>777.0</ele><time>2026-04-25T15:34:24.448Z</time></trkpt><trkpt lat="42.9140026" lon="12.8866375"><ele>777.0</ele><time>2026-04-25T15:34:25.448Z</time></trkpt><trkpt lat="42.914091" lon="12.8867658"><ele>777.0</ele><time>2026-04-25T15:34:26.448Z</time></trkpt><trkpt lat="42.9141739" lon="12.8868985"><ele>777.0</ele><time>2026-04-25T15:34:27.448Z</time></trkpt><trkpt lat="42.914259" lon="12.8869912"><ele>779.2</ele><time>2026-04-25T15:34:28.448Z</time></trkpt><trkpt lat="42.9143445" lon="12.887011"><ele>781.4000000000001</ele><time>2026-04-25T15:34:29.448Z</time></trkpt><trkpt lat="42.9144236" lon="12.8870082"><ele>783.5999999999999</ele><time>2026-04-25T15:34:30.449Z</time></trkpt><trkpt lat="42.9145073" lon="12.8869751"><ele>785.8</ele><time>2026-04-25T15:34:31.448Z</time></trkpt><trkpt lat="42.9145935" lon="12.8868907"><ele>788.0</ele><time>2026-04-25T15:34:32.448Z</time></trkpt><trkpt lat="42.91467" lon="12.8867541"><ele>788.0</ele><time>2026-04-25T15:34:33.448Z</time></trkpt><trkpt lat="42.9147361" lon="12.886603"><ele>788.0</ele><time>2026-04-25T15:34:34.448Z</time></trkpt><trkpt lat="42.9148035" lon="12.8864511"><ele>788.0</ele><time>2026-04-25T15:34:35.448Z</time></trkpt><trkpt lat="42.9148679" lon="12.8862923"><ele>788.0</ele><time>2026-04-25T15:34:36.448Z</time></trkpt><trkpt lat="42.914936" lon="12.8861452"><ele>788.0</ele><time>2026-04-25T15:34:37.448Z</time></trkpt><trkpt lat="42.9150076" lon="12.8860063"><ele>788.0</ele><time>2026-04-25T15:34:38.448Z</time></trkpt><trkpt lat="42.9150954" lon="12.885887"><ele>788.0</ele><time>2026-04-25T15:34:39.448Z</time></trkpt><trkpt lat="42.9151963" lon="12.8857909"><ele>788.0</ele><time>2026-04-25T15:34:40.449Z</time></trkpt><trkpt lat="42.9153253" lon="12.8857247"><ele>785.25</ele><time>2026-04-25T15:34:41.448Z</time></trkpt><trkpt lat="42.9154574" lon="12.8856841"><ele>782.5</ele><time>2026-04-25T15:34:42.448Z</time></trkpt><trkpt lat="42.9156022" lon="12.885655"><ele>779.75</ele><time>2026-04-25T15:34:43.448Z</time></trkpt><trkpt lat="42.9157467" lon="12.885618"><ele>777.0</ele><time>2026-04-25T15:34:44.449Z</time></trkpt><trkpt lat="42.9158928" lon="12.8855758"><ele>780.0</ele><time>2026-04-25T15:34:45.448Z</time></trkpt><trkpt lat="42.9160457" lon="12.8855268"><ele>783.0</ele><time>2026-04-25T15:34:46.448Z</time></trkpt><trkpt lat="42.9162001" lon="12.8854632"><ele>786.0</ele><time>2026-04-25T15:34:47.448Z</time></trkpt><trkpt lat="42.9163574" lon="12.8853793"><ele>786.0</ele><time>2026-04-25T15:34:48.448Z</time></trkpt><trkpt lat="42.9165155" lon="12.8852793"><ele>786.0</ele><time>2026-04-25T15:34:49.449Z</time></trkpt><trkpt lat="42.9166754" lon="12.8851691"><ele>786.0</ele><time>2026-04-25T15:34:50.448Z</time></trkpt><trkpt lat="42.9168405" lon="12.885068"><ele>780.6666666666667</ele><time>2026-04-25T15:34:51.448Z</time></trkpt><trkpt lat="42.9169907" lon="12.8849612"><ele>775.3333333333334</ele><time>2026-04-25T15:34:52.448Z</time></trkpt><trkpt lat="42.9171434" lon="12.8848572"><ele>770.0</ele><time>2026-04-25T15:34:53.449Z</time></trkpt><trkpt lat="42.9172866" lon="12.884751"><ele>770.0</ele><time>2026-04-25T15:34:54.449Z</time></trkpt><trkpt lat="42.9174217" lon="12.884647"><ele>770.0</ele><time>2026-04-25T15:34:55.448Z</time></trkpt><trkpt lat="42.9175578" lon="12.8845583"><ele>770.0</ele><time>2026-04-25T15:34:56.448Z</time></trkpt><trkpt lat="42.91768" lon="12.8844775"><ele>770.0</ele><time>2026-04-25T15:34:57.448Z</time></trkpt><trkpt lat="42.9177963" lon="12.8844421"><ele>766.25</ele><time>2026-04-25T15:34:58.448Z</time></trkpt><trkpt lat="42.9179205" lon="12.8844894"><ele>762.5</ele><time>2026-04-25T15:34:59.448Z</time></trkpt><trkpt lat="42.9180258" lon="12.8845627"><ele>758.75</ele><time>2026-04-25T15:35:00.449Z</time></trkpt><trkpt lat="42.9181049" lon="12.8846639"><ele>755.0</ele><time>2026-04-25T15:35:01.448Z</time></trkpt><trkpt lat="42.9181584" lon="12.8848034"><ele>755.0</ele><time>2026-04-25T15:35:02.448Z</time></trkpt><trkpt lat="42.91819" lon="12.8849407"><ele>755.0</ele><time>2026-04-25T15:35:03.448Z</time></trkpt><trkpt lat="42.9182007" lon="12.8850817"><ele>755.0</ele><time>2026-04-25T15:35:04.448Z</time></trkpt><trkpt lat="42.9182142" lon="12.8852251"><ele>755.0</ele><time>2026-04-25T15:35:05.449Z</time></trkpt><trkpt lat="42.9182329" lon="12.8853694"><ele>755.0</ele><time>2026-04-25T15:35:06.448Z</time></trkpt><trkpt lat="42.9182638" lon="12.8854942"><ele>757.6</ele><time>2026-04-25T15:35:07.448Z</time></trkpt><trkpt lat="42.9183171" lon="12.8855881"><ele>760.2</ele><time>2026-04-25T15:35:08.448Z</time></trkpt><trkpt lat="42.918372" lon="12.8856669"><ele>762.8</ele><time>2026-04-25T15:35:09.448Z</time></trkpt><trkpt lat="42.9184686" lon="12.885621"><ele>765.4</ele><time>2026-04-25T15:35:10.448Z</time></trkpt><trkpt lat="42.918553" lon="12.8855592"><ele>768.0</ele><time>2026-04-25T15:35:11.448Z</time></trkpt><trkpt lat="42.9186265" lon="12.8854614"><ele>769.5</ele><time>2026-04-25T15:35:12.448Z</time></trkpt><trkpt lat="42.9186852" lon="12.8853166"><ele>771.0</ele><time>2026-04-25T15:35:13.448Z</time></trkpt><trkpt lat="42.918746" lon="12.8851518"><ele>772.5</ele><time>2026-04-25T15:35:14.448Z</time></trkpt><trkpt lat="42.9188027" lon="12.8849953"><ele>774.0</ele><time>2026-04-25T15:35:15.448Z</time></trkpt><trkpt lat="42.9188648" lon="12.8848264"><ele>774.0</ele><time>2026-04-25T15:35:16.449Z</time></trkpt><trkpt lat="42.9189192" lon="12.8846426"><ele>774.0</ele><time>2026-04-25T15:35:17.448Z</time></trkpt><trkpt lat="42.918986" lon="12.88446"><ele>774.0</ele><time>2026-04-25T15:35:18.448Z</time></trkpt><trkpt lat="42.9190047" lon="12.8842581"><ele>774.0</ele><time>2026-04-25T15:35:19.448Z</time></trkpt><trkpt lat="42.9190113" lon="12.8840454"><ele>770.25</ele><time>2026-04-25T15:35:20.448Z</time></trkpt><trkpt lat="42.919011" lon="12.883827"><ele>766.5</ele><time>2026-04-25T15:35:21.448Z</time></trkpt><trkpt lat="42.9190048" lon="12.8836203"><ele>762.75</ele><time>2026-04-25T15:35:22.448Z</time></trkpt><trkpt lat="42.918998" lon="12.8834321"><ele>759.0</ele><time>2026-04-25T15:35:23.448Z</time></trkpt><trkpt lat="42.9189914" lon="12.8832542"><ele>756.25</ele><time>2026-04-25T15:35:24.448Z</time></trkpt><trkpt lat="42.9189952" lon="12.8830814"><ele>753.5</ele><time>2026-04-25T15:35:25.448Z</time></trkpt><trkpt lat="42.9190238" lon="12.8829247"><ele>750.75</ele><time>2026-04-25T15:35:26.448Z</time></trkpt><trkpt lat="42.9190801" lon="12.8827974"><ele>748.0</ele><time>2026-04-25T15:35:27.448Z</time></trkpt><trkpt lat="42.9191585" lon="12.882699"><ele>751.25</ele><time>2026-04-25T15:35:28.448Z</time></trkpt><trkpt lat="42.9192649" lon="12.8826445"><ele>754.5</ele><time>2026-04-25T15:35:29.448Z</time></trkpt><trkpt lat="42.9193762" lon="12.8826093"><ele>757.75</ele><time>2026-04-25T15:35:30.448Z</time></trkpt><trkpt lat="42.9194908" lon="12.8825987"><ele>761.0</ele><time>2026-04-25T15:35:31.448Z</time></trkpt><trkpt lat="42.9196123" lon="12.8826179"><ele>761.0</ele><time>2026-04-25T15:35:32.448Z</time></trkpt><trkpt lat="42.9197292" lon="12.8826746"><ele>761.0</ele><time>2026-04-25T15:35:33.449Z</time></trkpt><trkpt lat="42.9198304" lon="12.8827498"><ele>761.0</ele><time>2026-04-25T15:35:34.448Z</time></trkpt><trkpt lat="42.9199276" lon="12.8828124"><ele>761.0</ele><time>2026-04-25T15:35:35.448Z</time></trkpt><trkpt lat="42.9200217" lon="12.8828413"><ele>761.0</ele><time>2026-04-25T15:35:36.448Z</time></trkpt><trkpt lat="42.9201089" lon="12.8828123"><ele>763.0</ele><time>2026-04-25T15:35:37.448Z</time></trkpt><trkpt lat="42.9201776" lon="12.8827327"><ele>765.0</ele><time>2026-04-25T15:35:38.448Z</time></trkpt><trkpt lat="42.9202509" lon="12.88261"><ele>767.0</ele><time>2026-04-25T15:35:39.448Z</time></trkpt><trkpt lat="42.9203126" lon="12.8824691"><ele>769.0</ele><time>2026-04-25T15:35:40.448Z</time></trkpt><trkpt lat="42.9203899" lon="12.8823484"><ele>771.0</ele><time>2026-04-25T15:35:41.448Z</time></trkpt><trkpt lat="42.9204854" lon="12.882238"><ele>763.25</ele><time>2026-04-25T15:35:42.448Z</time></trkpt><trkpt lat="42.9205968" lon="12.882156"><ele>755.5</ele><time>2026-04-25T15:35:43.448Z</time></trkpt><trkpt lat="42.9207264" lon="12.8820859"><ele>747.75</ele><time>2026-04-25T15:35:44.449Z</time></trkpt><trkpt lat="42.9208523" lon="12.8820618"><ele>740.0</ele><time>2026-04-25T15:35:45.449Z</time></trkpt><trkpt lat="42.9209743" lon="12.8820695"><ele>738.0</ele><time>2026-04-25T15:35:46.448Z</time></trkpt><trkpt lat="42.9210969" lon="12.8821078"><ele>736.0</ele><time>2026-04-25T15:35:47.448Z</time></trkpt><trkpt lat="42.9212114" lon="12.8822146"><ele>734.0</ele><time>2026-04-25T15:35:48.448Z</time></trkpt><trkpt lat="42.9213159" lon="12.8823426"><ele>732.0</ele><time>2026-04-25T15:35:49.448Z</time></trkpt><trkpt lat="42.9214086" lon="12.8824798"><ele>736.2</ele><time>2026-04-25T15:35:50.449Z</time></trkpt><trkpt lat="42.9215001" lon="12.882601"><ele>740.4000000000001</ele><time>2026-04-25T15:35:51.449Z</time></trkpt><trkpt lat="42.9215933" lon="12.8826832"><ele>744.5999999999999</ele><time>2026-04-25T15:35:52.449Z</time></trkpt><trkpt lat="42.921689" lon="12.8827499"><ele>748.8</ele><time>2026-04-25T15:35:53.448Z</time></trkpt><trkpt lat="42.9217808" lon="12.8826873"><ele>753.0</ele><time>2026-04-25T15:35:54.448Z</time></trkpt><trkpt lat="42.9218663" lon="12.8826388"><ele>754.75</ele><time>2026-04-25T15:35:55.448Z</time></trkpt><trkpt lat="42.9219082" lon="12.8824562"><ele>756.5</ele><time>2026-04-25T15:35:56.448Z</time></trkpt><trkpt lat="42.9219372" lon="12.882301"><ele>758.25</ele><time>2026-04-25T15:35:57.448Z</time></trkpt><trkpt lat="42.9219548" lon="12.8821246"><ele>760.0</ele><time>2026-04-25T15:35:58.449Z</time></trkpt><trkpt lat="42.9219674" lon="12.8819412"><ele>755.5</ele><time>2026-04-25T15:35:59.448Z</time></trkpt><trkpt lat="42.9219858" lon="12.8817649"><ele>751.0</ele><time>2026-04-25T15:36:00.448Z</time></trkpt><trkpt lat="42.9220279" lon="12.8815976"><ele>746.5</ele><time>2026-04-25T15:36:01.448Z</time></trkpt><trkpt lat="42.9220924" lon="12.8814458"><ele>742.0</ele><time>2026-04-25T15:36:02.448Z</time></trkpt><trkpt lat="42.922179" lon="12.8813074"><ele>742.0</ele><time>2026-04-25T15:36:03.448Z</time></trkpt><trkpt lat="42.9222751" lon="12.8811802"><ele>742.0</ele><time>2026-04-25T15:36:04.448Z</time></trkpt><trkpt lat="42.9223924" lon="12.8810984"><ele>742.0</ele><time>2026-04-25T15:36:05.448Z</time></trkpt><trkpt lat="42.9225257" lon="12.8810337"><ele>742.0</ele><time>2026-04-25T15:36:06.448Z</time></trkpt><trkpt lat="42.9226585" lon="12.8809811"><ele>738.25</ele><time>2026-04-25T15:36:07.449Z</time></trkpt><trkpt lat="42.9227877" lon="12.8809126"><ele>734.5</ele><time>2026-04-25T15:36:08.448Z</time></trkpt><trkpt lat="42.922911" lon="12.880841"><ele>730.75</ele><time>2026-04-25T15:36:09.448Z</time></trkpt><trkpt lat="42.9230243" lon="12.8807474"><ele>727.0</ele><time>2026-04-25T15:36:10.448Z</time></trkpt><trkpt lat="42.9231243" lon="12.8806076"><ele>727.0</ele><time>2026-04-25T15:36:11.448Z</time></trkpt><trkpt lat="42.9232041" lon="12.8804614"><ele>727.0</ele><time>2026-04-25T15:36:12.448Z</time></trkpt><trkpt lat="42.9232747" lon="12.8803289"><ele>727.0</ele><time>2026-04-25T15:36:13.448Z</time></trkpt><trkpt lat="42.9233487" lon="12.8801966"><ele>727.0</ele><time>2026-04-25T15:36:14.448Z</time></trkpt><trkpt lat="42.9234346" lon="12.8801025"><ele>722.4000000000001</ele><time>2026-04-25T15:36:15.448Z</time></trkpt><trkpt lat="42.9235327" lon="12.8800254"><ele>717.8000000000001</ele><time>2026-04-25T15:36:16.448Z</time></trkpt><trkpt lat="42.9236406" lon="12.8799855"><ele>713.2</ele><time>2026-04-25T15:36:17.448Z</time></trkpt><trkpt lat="42.9237432" lon="12.8799712"><ele>708.6</ele><time>2026-04-25T15:36:18.448Z</time></trkpt><trkpt lat="42.9238563" lon="12.880024"><ele>704.0</ele><time>2026-04-25T15:36:19.448Z</time></trkpt><trkpt lat="42.9239747" lon="12.880093"><ele>707.0</ele><time>2026-04-25T15:36:20.448Z</time></trkpt><trkpt lat="42.9241044" lon="12.8801825"><ele>710.0</ele><time>2026-04-25T15:36:21.448Z</time></trkpt><trkpt lat="42.9242409" lon="12.8802733"><ele>713.0</ele><time>2026-04-25T15:36:22.448Z</time></trkpt><trkpt lat="42.9243782" lon="12.8803674"><ele>713.0</ele><time>2026-04-25T15:36:23.448Z</time></trkpt><trkpt lat="42.9245169" lon="12.8804731"><ele>713.0</ele><time>2026-04-25T15:36:24.449Z</time></trkpt><trkpt lat="42.9246623" lon="12.8805775"><ele>713.0</ele><time>2026-04-25T15:36:25.448Z</time></trkpt><trkpt lat="42.9248104" lon="12.8806671"><ele>713.0</ele><time>2026-04-25T15:36:26.448Z</time></trkpt><trkpt lat="42.9249489" lon="12.880762"><ele>713.0</ele><time>2026-04-25T15:36:27.448Z</time></trkpt><trkpt lat="42.9250772" lon="12.8808507"><ele>713.0</ele><time>2026-04-25T15:36:28.448Z</time></trkpt><trkpt lat="42.9251898" lon="12.8809241"><ele>713.0</ele><time>2026-04-25T15:36:29.448Z</time></trkpt><trkpt lat="42.9253017" lon="12.8809697"><ele>712.2</ele><time>2026-04-25T15:36:30.448Z</time></trkpt><trkpt lat="42.9253946" lon="12.8809502"><ele>711.4</ele><time>2026-04-25T15:36:31.448Z</time></trkpt><trkpt lat="42.9254853" lon="12.8809011"><ele>710.6</ele><time>2026-04-25T15:36:32.449Z</time></trkpt><trkpt lat="42.9255541" lon="12.8808145"><ele>709.8000000000001</ele><time>2026-04-25T15:36:33.448Z</time></trkpt><trkpt lat="42.9256087" lon="12.880695"><ele>709.0</ele><time>2026-04-25T15:36:34.448Z</time></trkpt><trkpt lat="42.9256288" lon="12.880558"><ele>709.8000000000001</ele><time>2026-04-25T15:36:35.449Z</time></trkpt><trkpt lat="42.9256177" lon="12.8804373"><ele>710.6</ele><time>2026-04-25T15:36:36.448Z</time></trkpt><trkpt lat="42.9255934" lon="12.8802948"><ele>711.4</ele><time>2026-04-25T15:36:37.449Z</time></trkpt><trkpt lat="42.925512" lon="12.8801796"><ele>712.2</ele><time>2026-04-25T15:36:38.448Z</time></trkpt><trkpt lat="42.9254158" lon="12.8800573"><ele>713.0</ele><time>2026-04-25T15:36:39.448Z</time></trkpt><trkpt lat="42.9253102" lon="12.8799405"><ele>713.0</ele><time>2026-04-25T15:36:40.448Z</time></trkpt><trkpt lat="42.9251883" lon="12.879816"><ele>713.0</ele><time>2026-04-25T15:36:41.449Z</time></trkpt><trkpt lat="42.92506" lon="12.8796956"><ele>713.0</ele><time>2026-04-25T15:36:42.448Z</time></trkpt><trkpt lat="42.924929" lon="12.8795696"><ele>710.0</ele><time>2026-04-25T15:36:43.449Z</time></trkpt><trkpt lat="42.9248006" lon="12.8794422"><ele>707.0</ele><time>2026-04-25T15:36:44.448Z</time></trkpt><trkpt lat="42.9246731" lon="12.8793032"><ele>704.0</ele><time>2026-04-25T15:36:45.449Z</time></trkpt><trkpt lat="42.9245377" lon="12.8791607"><ele>703.6666666666666</ele><time>2026-04-25T15:36:46.448Z</time></trkpt><trkpt lat="42.9244018" lon="12.8790212"><ele>703.3333333333334</ele><time>2026-04-25T15:36:47.448Z</time></trkpt><trkpt lat="42.9242638" lon="12.8788875"><ele>703.0</ele><time>2026-04-25T15:36:48.448Z</time></trkpt><trkpt lat="42.924127" lon="12.8787623"><ele>703.0</ele><time>2026-04-25T15:36:49.448Z</time></trkpt><trkpt lat="42.9239965" lon="12.8786337"><ele>703.0</ele><time>2026-04-25T15:36:50.448Z</time></trkpt><trkpt lat="42.9238776" lon="12.8785025"><ele>703.0</ele><time>2026-04-25T15:36:51.448Z</time></trkpt><trkpt lat="42.9237605" lon="12.8783788"><ele>708.6666666666667</ele><time>2026-04-25T15:36:52.448Z</time></trkpt><trkpt lat="42.923659" lon="12.8782335"><ele>714.3333333333334</ele><time>2026-04-25T15:36:53.448Z</time></trkpt><trkpt lat="42.9235611" lon="12.8780659"><ele>720.0</ele><time>2026-04-25T15:36:54.448Z</time></trkpt><trkpt lat="42.9234653" lon="12.8778957"><ele>716.0</ele><time>2026-04-25T15:36:55.448Z</time></trkpt><trkpt lat="42.923368" lon="12.8777215"><ele>712.0</ele><time>2026-04-25T15:36:56.448Z</time></trkpt><trkpt lat="42.923265" lon="12.8775486"><ele>708.0</ele><time>2026-04-25T15:36:57.448Z</time></trkpt><trkpt lat="42.9231641" lon="12.877372"><ele>708.0</ele><time>2026-04-25T15:36:58.448Z</time></trkpt><trkpt lat="42.9230697" lon="12.8771904"><ele>708.0</ele><time>2026-04-25T15:36:59.448Z</time></trkpt><trkpt lat="42.9229726" lon="12.8770141"><ele>708.0</ele><time>2026-04-25T15:37:00.448Z</time></trkpt><trkpt lat="42.9228884" lon="12.8768625"><ele>711.75</ele><time>2026-04-25T15:37:01.448Z</time></trkpt><trkpt lat="42.9228068" lon="12.8767046"><ele>715.5</ele><time>2026-04-25T15:37:02.448Z</time></trkpt><trkpt lat="42.9227413" lon="12.876543"><ele>719.25</ele><time>2026-04-25T15:37:03.449Z</time></trkpt><trkpt lat="42.9226952" lon="12.8763535"><ele>723.0</ele><time>2026-04-25T15:37:04.448Z</time></trkpt><trkpt lat="42.9226459" lon="12.8761545"><ele>723.0</ele><time>2026-04-25T15:37:05.448Z</time></trkpt><trkpt lat="42.9226064" lon="12.8759466"><ele>723.0</ele><time>2026-04-25T15:37:06.448Z</time></trkpt><trkpt lat="42.9225675" lon="12.8757364"><ele>723.0</ele><time>2026-04-25T15:37:07.448Z</time></trkpt><trkpt lat="42.9225361" lon="12.8755191"><ele>716.3333333333334</ele><time>2026-04-25T15:37:08.449Z</time></trkpt><trkpt lat="42.9225017" lon="12.8753091"><ele>709.6666666666667</ele><time>2026-04-25T15:37:09.448Z</time></trkpt><trkpt lat="42.9224717" lon="12.8750906"><ele>703.0</ele><time>2026-04-25T15:37:10.448Z</time></trkpt><trkpt lat="42.9224407" lon="12.8748825"><ele>703.0</ele><time>2026-04-25T15:37:11.448Z</time></trkpt><trkpt lat="42.9224131" lon="12.8746906"><ele>703.0</ele><time>2026-04-25T15:37:12.448Z</time></trkpt><trkpt lat="42.9223938" lon="12.8745157"><ele>703.0</ele><time>2026-04-25T15:37:13.448Z</time></trkpt><trkpt lat="42.9223791" lon="12.8743574"><ele>703.0</ele><time>2026-04-25T15:37:14.448Z</time></trkpt><trkpt lat="42.9223903" lon="12.8741927"><ele>701.75</ele><time>2026-04-25T15:37:15.448Z</time></trkpt><trkpt lat="42.9224217" lon="12.8740422"><ele>700.5</ele><time>2026-04-25T15:37:16.448Z</time></trkpt><trkpt lat="42.9224837" lon="12.8738866"><ele>699.25</ele><time>2026-04-25T15:37:17.448Z</time></trkpt><trkpt lat="42.9225678" lon="12.8737555"><ele>698.0</ele><time>2026-04-25T15:37:18.448Z</time></trkpt><trkpt lat="42.922675" lon="12.8736461"><ele>698.75</ele><time>2026-04-25T15:37:19.449Z</time></trkpt><trkpt lat="42.9227891" lon="12.8735315"><ele>699.5</ele><time>2026-04-25T15:37:20.449Z</time></trkpt><trkpt lat="42.9229135" lon="12.8734191"><ele>700.25</ele><time>2026-04-25T15:37:21.448Z</time></trkpt><trkpt lat="42.9230446" lon="12.8733118"><ele>701.0</ele><time>2026-04-25T15:37:22.448Z</time></trkpt><trkpt lat="42.9231751" lon="12.8731995"><ele>701.0</ele><time>2026-04-25T15:37:23.449Z</time></trkpt><trkpt lat="42.9233166" lon="12.8730988"><ele>701.0</ele><time>2026-04-25T15:37:24.448Z</time></trkpt><trkpt lat="42.9234627" lon="12.8730191"><ele>701.0</ele><time>2026-04-25T15:37:25.449Z</time></trkpt><trkpt lat="42.923613" lon="12.872972"><ele>704.6666666666666</ele><time>2026-04-25T15:37:26.448Z</time></trkpt><trkpt lat="42.9237749" lon="12.8729206"><ele>708.3333333333334</ele><time>2026-04-25T15:37:27.448Z</time></trkpt><trkpt lat="42.9239482" lon="12.8728736"><ele>712.0</ele><time>2026-04-25T15:37:28.449Z</time></trkpt><trkpt lat="42.9241252" lon="12.87283"><ele>713.6666666666667</ele><time>2026-04-25T15:37:29.448Z</time></trkpt><trkpt lat="42.9243093" lon="12.8727835"><ele>715.3333333333334</ele><time>2026-04-25T15:37:30.448Z</time></trkpt><trkpt lat="42.9244838" lon="12.8727405"><ele>717.0</ele><time>2026-04-25T15:37:31.448Z</time></trkpt><trkpt lat="42.9246575" lon="12.8726956"><ele>717.0</ele><time>2026-04-25T15:37:32.448Z</time></trkpt><trkpt lat="42.9248341" lon="12.8726463"><ele>717.0</ele><time>2026-04-25T15:37:33.448Z</time></trkpt><trkpt lat="42.9250124" lon="12.8726063"><ele>717.0</ele><time>2026-04-25T15:37:34.448Z</time></trkpt><trkpt lat="42.9251907" lon="12.872567"><ele>709.0</ele><time>2026-04-25T15:37:35.448Z</time></trkpt><trkpt lat="42.9253721" lon="12.8725276"><ele>701.0</ele><time>2026-04-25T15:37:36.448Z</time></trkpt><trkpt lat="42.9255529" lon="12.8724842"><ele>693.0</ele><time>2026-04-25T15:37:37.448Z</time></trkpt><trkpt lat="42.9257336" lon="12.8724393"><ele>696.3333333333334</ele><time>2026-04-25T15:37:38.448Z</time></trkpt><trkpt lat="42.9259116" lon="12.8723907"><ele>699.6666666666667</ele><time>2026-04-25T15:37:39.448Z</time></trkpt><trkpt lat="42.9260942" lon="12.8723302"><ele>703.0</ele><time>2026-04-25T15:37:40.448Z</time></trkpt><trkpt lat="42.9262704" lon="12.8722573"><ele>703.0</ele><time>2026-04-25T15:37:41.448Z</time></trkpt><trkpt lat="42.9264445" lon="12.8721565"><ele>703.0</ele><time>2026-04-25T15:37:42.449Z</time></trkpt><trkpt lat="42.9266119" lon="12.8720465"><ele>703.0</ele><time>2026-04-25T15:37:43.449Z</time></trkpt><trkpt lat="42.9267822" lon="12.8719499"><ele>707.3333333333334</ele><time>2026-04-25T15:37:44.448Z</time></trkpt><trkpt lat="42.9269503" lon="12.8718448"><ele>711.6666666666666</ele><time>2026-04-25T15:37:45.448Z</time></trkpt><trkpt lat="42.927119" lon="12.8717494"><ele>716.0</ele><time>2026-04-25T15:37:46.448Z</time></trkpt><trkpt lat="42.9272842" lon="12.8716361"><ele>709.0</ele><time>2026-04-25T15:37:47.448Z</time></trkpt><trkpt lat="42.9274495" lon="12.8715286"><ele>702.0</ele><time>2026-04-25T15:37:48.448Z</time></trkpt><trkpt lat="42.9276163" lon="12.8714235"><ele>695.0</ele><time>2026-04-25T15:37:49.448Z</time></trkpt><trkpt lat="42.9277851" lon="12.8713187"><ele>695.0</ele><time>2026-04-25T15:37:50.448Z</time></trkpt><trkpt lat="42.927946" lon="12.8711934"><ele>695.0</ele><time>2026-04-25T15:37:51.448Z</time></trkpt><trkpt lat="42.9281055" lon="12.8710642"><ele>695.0</ele><time>2026-04-25T15:37:52.448Z</time></trkpt><trkpt lat="42.9282633" lon="12.8709071"><ele>693.0</ele><time>2026-04-25T15:37:53.448Z</time></trkpt><trkpt lat="42.9284071" lon="12.8707492"><ele>691.0</ele><time>2026-04-25T15:37:54.448Z</time></trkpt><trkpt lat="42.9285374" lon="12.870567"><ele>689.0</ele><time>2026-04-25T15:37:55.449Z</time></trkpt><trkpt lat="42.9286532" lon="12.8703699"><ele>689.0</ele><time>2026-04-25T15:37:56.448Z</time></trkpt><trkpt lat="42.928754" lon="12.8701546"><ele>689.0</ele><time>2026-04-25T15:37:57.448Z</time></trkpt><trkpt lat="42.9288553" lon="12.8699428"><ele>689.0</ele><time>2026-04-25T15:37:58.448Z</time></trkpt><trkpt lat="42.9289428" lon="12.8697229"><ele>686.0</ele><time>2026-04-25T15:37:59.448Z</time></trkpt><trkpt lat="42.9290181" lon="12.8694898"><ele>683.0</ele><time>2026-04-25T15:38:00.448Z</time></trkpt><trkpt lat="42.929085" lon="12.8692463"><ele>680.0</ele><time>2026-04-25T15:38:01.448Z</time></trkpt><trkpt lat="42.9291504" lon="12.8689998"><ele>680.6666666666666</ele><time>2026-04-25T15:38:02.448Z</time></trkpt><trkpt lat="42.9292171" lon="12.8687595"><ele>681.3333333333334</ele><time>2026-04-25T15:38:03.448Z</time></trkpt><trkpt lat="42.9292853" lon="12.8685188"><ele>682.0</ele><time>2026-04-25T15:38:04.448Z</time></trkpt><trkpt lat="42.9293483" lon="12.8682718"><ele>682.0</ele><time>2026-04-25T15:38:05.448Z</time></trkpt><trkpt lat="42.9294222" lon="12.8680272"><ele>682.0</ele><time>2026-04-25T15:38:06.448Z</time></trkpt><trkpt lat="42.9294951" lon="12.8677766"><ele>682.0</ele><time>2026-04-25T15:38:07.449Z</time></trkpt><trkpt lat="42.9295642" lon="12.8675163"><ele>679.6666666666667</ele><time>2026-04-25T15:38:08.448Z</time></trkpt><trkpt lat="42.9296313" lon="12.8672664"><ele>677.3333333333334</ele><time>2026-04-25T15:38:09.448Z</time></trkpt><trkpt lat="42.9296976" lon="12.8670156"><ele>675.0</ele><time>2026-04-25T15:38:10.449Z</time></trkpt><trkpt lat="42.9297649" lon="12.866772"><ele>674.3333333333334</ele><time>2026-04-25T15:38:11.448Z</time></trkpt><trkpt lat="42.9298337" lon="12.8665245"><ele>673.6666666666667</ele><time>2026-04-25T15:38:12.449Z</time></trkpt><trkpt lat="42.9299018" lon="12.8662941"><ele>673.0</ele><time>2026-04-25T15:38:13.448Z</time></trkpt><trkpt lat="42.9299787" lon="12.866058"><ele>673.0</ele><time>2026-04-25T15:38:14.448Z</time></trkpt><trkpt lat="42.9300636" lon="12.8658433"><ele>673.0</ele><time>2026-04-25T15:38:15.448Z</time></trkpt><trkpt lat="42.9301551" lon="12.8656259"><ele>673.0</ele><time>2026-04-25T15:38:16.448Z</time></trkpt><trkpt lat="42.9302545" lon="12.8654229"><ele>673.0</ele><time>2026-04-25T15:38:17.448Z</time></trkpt><trkpt lat="42.9303622" lon="12.8652294"><ele>673.0</ele><time>2026-04-25T15:38:18.448Z</time></trkpt><trkpt lat="42.9304837" lon="12.8650346"><ele>673.0</ele><time>2026-04-25T15:38:19.448Z</time></trkpt><trkpt lat="42.9306206" lon="12.8648663"><ele>673.6666666666667</ele><time>2026-04-25T15:38:20.448Z</time></trkpt><trkpt lat="42.9307648" lon="12.8646995"><ele>674.3333333333334</ele><time>2026-04-25T15:38:21.448Z</time></trkpt><trkpt lat="42.9309163" lon="12.8645548"><ele>675.0</ele><time>2026-04-25T15:38:22.448Z</time></trkpt><trkpt lat="42.931067" lon="12.8644217"><ele>675.6666666666666</ele><time>2026-04-25T15:38:23.448Z</time></trkpt><trkpt lat="42.9312196" lon="12.8642851"><ele>676.3333333333333</ele><time>2026-04-25T15:38:24.448Z</time></trkpt><trkpt lat="42.9313804" lon="12.8641636"><ele>677.0</ele><time>2026-04-25T15:38:25.448Z</time></trkpt><trkpt lat="42.9315488" lon="12.8640415"><ele>677.0</ele><time>2026-04-25T15:38:26.448Z</time></trkpt><trkpt lat="42.9317081" lon="12.8639177"><ele>677.0</ele><time>2026-04-25T15:38:27.449Z</time></trkpt><trkpt lat="42.9318698" lon="12.8637948"><ele>677.0</ele><time>2026-04-25T15:38:28.449Z</time></trkpt><trkpt lat="42.932032" lon="12.8636691"><ele>677.0</ele><time>2026-04-25T15:38:29.448Z</time></trkpt><trkpt lat="42.9321951" lon="12.8635479"><ele>677.0</ele><time>2026-04-25T15:38:30.448Z</time></trkpt><trkpt lat="42.9323594" lon="12.8634184"><ele>677.0</ele><time>2026-04-25T15:38:31.448Z</time></trkpt><trkpt lat="42.9325244" lon="12.8632999"><ele>675.0</ele><time>2026-04-25T15:38:32.448Z</time></trkpt><trkpt lat="42.9326893" lon="12.8631863"><ele>673.0</ele><time>2026-04-25T15:38:33.448Z</time></trkpt><trkpt lat="42.9328626" lon="12.8630882"><ele>671.0</ele><time>2026-04-25T15:38:34.448Z</time></trkpt><trkpt lat="42.9330335" lon="12.8629915"><ele>671.0</ele><time>2026-04-25T15:38:35.448Z</time></trkpt><trkpt lat="42.9332107" lon="12.8629027"><ele>671.0</ele><time>2026-04-25T15:38:36.448Z</time></trkpt><trkpt lat="42.9333794" lon="12.8628062"><ele>671.0</ele><time>2026-04-25T15:38:37.448Z</time></trkpt><trkpt lat="42.9335385" lon="12.8627207"><ele>671.6666666666666</ele><time>2026-04-25T15:38:38.448Z</time></trkpt><trkpt lat="42.9336871" lon="12.862632"><ele>672.3333333333334</ele><time>2026-04-25T15:38:39.449Z</time></trkpt><trkpt lat="42.9338345" lon="12.8625509"><ele>673.0</ele><time>2026-04-25T15:38:40.448Z</time></trkpt><trkpt lat="42.9339755" lon="12.8624719"><ele>673.0</ele><time>2026-04-25T15:38:41.448Z</time></trkpt><trkpt lat="42.934111" lon="12.8623984"><ele>673.0</ele><time>2026-04-25T15:38:42.448Z</time></trkpt><trkpt lat="42.9342391" lon="12.8623331"><ele>673.0</ele><time>2026-04-25T15:38:43.448Z</time></trkpt><trkpt lat="42.9343592" lon="12.8622607"><ele>673.0</ele><time>2026-04-25T15:38:44.448Z</time></trkpt><trkpt lat="42.9344807" lon="12.8622048"><ele>672.75</ele><time>2026-04-25T15:38:45.448Z</time></trkpt><trkpt lat="42.9346017" lon="12.8621417"><ele>672.5</ele><time>2026-04-25T15:38:46.448Z</time></trkpt><trkpt lat="42.9347259" lon="12.8620847"><ele>672.25</ele><time>2026-04-25T15:38:47.448Z</time></trkpt><trkpt lat="42.9348592" lon="12.8620244"><ele>672.0</ele><time>2026-04-25T15:38:48.448Z</time></trkpt><trkpt lat="42.9349981" lon="12.8619826"><ele>670.75</ele><time>2026-04-25T15:38:49.448Z</time></trkpt><trkpt lat="42.9351337" lon="12.861932"><ele>669.5</ele><time>2026-04-25T15:38:50.449Z</time></trkpt><trkpt lat="42.9352727" lon="12.8618833"><ele>668.25</ele><time>2026-04-25T15:38:51.449Z</time></trkpt><trkpt lat="42.9354154" lon="12.8618318"><ele>667.0</ele><time>2026-04-25T15:38:52.448Z</time></trkpt><trkpt lat="42.9355647" lon="12.8617899"><ele>670.6666666666667</ele><time>2026-04-25T15:38:53.448Z</time></trkpt><trkpt lat="42.9357202" lon="12.8617529"><ele>674.3333333333334</ele><time>2026-04-25T15:38:54.448Z</time></trkpt><trkpt lat="42.9358732" lon="12.8617261"><ele>678.0</ele><time>2026-04-25T15:38:55.448Z</time></trkpt><trkpt lat="42.9360293" lon="12.8617092"><ele>678.0</ele><time>2026-04-25T15:38:56.448Z</time></trkpt><trkpt lat="42.9361947" lon="12.861701"><ele>678.0</ele><time>2026-04-25T15:38:57.448Z</time></trkpt><trkpt lat="42.9363667" lon="12.861699"><ele>678.0</ele><time>2026-04-25T15:38:58.448Z</time></trkpt><trkpt lat="42.9365354" lon="12.8616884"><ele>678.0</ele><time>2026-04-25T15:38:59.448Z</time></trkpt><trkpt lat="42.9367073" lon="12.8616811"><ele>678.0</ele><time>2026-04-25T15:39:00.448Z</time></trkpt><trkpt lat="42.9368797" lon="12.8616737"><ele>678.0</ele><time>2026-04-25T15:39:01.448Z</time></trkpt><trkpt lat="42.9370494" lon="12.861664"><ele>678.3333333333334</ele><time>2026-04-25T15:39:02.448Z</time></trkpt><trkpt lat="42.9372247" lon="12.8616613"><ele>678.6666666666667</ele><time>2026-04-25T15:39:03.448Z</time></trkpt><trkpt lat="42.937398" lon="12.861664"><ele>679.0</ele><time>2026-04-25T15:39:04.448Z</time></trkpt><trkpt lat="42.93758" lon="12.8616905"><ele>679.0</ele><time>2026-04-25T15:39:05.448Z</time></trkpt><trkpt lat="42.9377614" lon="12.8617334"><ele>679.0</ele><time>2026-04-25T15:39:06.448Z</time></trkpt><trkpt lat="42.9379465" lon="12.8617834"><ele>679.0</ele><time>2026-04-25T15:39:07.448Z</time></trkpt><trkpt lat="42.9381341" lon="12.861839"><ele>674.0</ele><time>2026-04-25T15:39:08.448Z</time></trkpt><trkpt lat="42.9383242" lon="12.8618911"><ele>669.0</ele><time>2026-04-25T15:39:09.449Z</time></trkpt><trkpt lat="42.9385151" lon="12.8619423"><ele>664.0</ele><time>2026-04-25T15:39:10.448Z</time></trkpt><trkpt lat="42.9387079" lon="12.8620052"><ele>664.0</ele><time>2026-04-25T15:39:11.449Z</time></trkpt><trkpt lat="42.9389051" lon="12.8620542"><ele>664.0</ele><time>2026-04-25T15:39:12.448Z</time></trkpt><trkpt lat="42.9391004" lon="12.8621067"><ele>664.0</ele><time>2026-04-25T15:39:13.448Z</time></trkpt><trkpt lat="42.939297" lon="12.8621619"><ele>666.0</ele><time>2026-04-25T15:39:14.448Z</time></trkpt><trkpt lat="42.9394996" lon="12.8622194"><ele>668.0</ele><time>2026-04-25T15:39:15.448Z</time></trkpt><trkpt lat="42.939697" lon="12.8622779"><ele>670.0</ele><time>2026-04-25T15:39:16.449Z</time></trkpt><trkpt lat="42.9398965" lon="12.8623299"><ele>672.6666666666667</ele><time>2026-04-25T15:39:17.449Z</time></trkpt><trkpt lat="42.9400979" lon="12.8623789"><ele>675.3333333333334</ele><time>2026-04-25T15:39:18.448Z</time></trkpt><trkpt lat="42.9402997" lon="12.8624296"><ele>678.0</ele><time>2026-04-25T15:39:19.448Z</time></trkpt><trkpt lat="42.9405011" lon="12.862487"><ele>678.0</ele><time>2026-04-25T15:39:20.448Z</time></trkpt><trkpt lat="42.9406876" lon="12.8625401"><ele>678.0</ele><time>2026-04-25T15:39:21.448Z</time></trkpt><trkpt lat="42.9408649" lon="12.8625931"><ele>678.0</ele><time>2026-04-25T15:39:22.448Z</time></trkpt><trkpt lat="42.9410274" lon="12.8626589"><ele>674.0</ele><time>2026-04-25T15:39:23.448Z</time></trkpt><trkpt lat="42.9411737" lon="12.8627476"><ele>670.0</ele><time>2026-04-25T15:39:24.449Z</time></trkpt><trkpt lat="42.9413017" lon="12.8628654"><ele>666.0</ele><time>2026-04-25T15:39:25.448Z</time></trkpt><trkpt lat="42.9414134" lon="12.8629925"><ele>666.0</ele><time>2026-04-25T15:39:26.449Z</time></trkpt><trkpt lat="42.9415172" lon="12.8631265"><ele>666.0</ele><time>2026-04-25T15:39:27.448Z</time></trkpt><trkpt lat="42.9416193" lon="12.8632667"><ele>666.0</ele><time>2026-04-25T15:39:28.448Z</time></trkpt><trkpt lat="42.9417407" lon="12.8633619"><ele>666.0</ele><time>2026-04-25T15:39:29.448Z</time></trkpt><trkpt lat="42.9418891" lon="12.8634149"><ele>669.0</ele><time>2026-04-25T15:39:30.448Z</time></trkpt><trkpt lat="42.9420374" lon="12.863442"><ele>672.0</ele><time>2026-04-25T15:39:31.449Z</time></trkpt><trkpt lat="42.942197" lon="12.8634426"><ele>675.0</ele><time>2026-04-25T15:39:32.448Z</time></trkpt><trkpt lat="42.942371" lon="12.8634245"><ele>675.3333333333334</ele><time>2026-04-25T15:39:33.448Z</time></trkpt><trkpt lat="42.9425545" lon="12.8634078"><ele>675.6666666666667</ele><time>2026-04-25T15:39:34.448Z</time></trkpt><trkpt lat="42.9427355" lon="12.8634012"><ele>676.0</ele><time>2026-04-25T15:39:35.449Z</time></trkpt><trkpt lat="42.9429239" lon="12.8634073"><ele>676.0</ele><time>2026-04-25T15:39:36.448Z</time></trkpt><trkpt lat="42.9431103" lon="12.8634182"><ele>676.0</ele><time>2026-04-25T15:39:37.448Z</time></trkpt><trkpt lat="42.9433023" lon="12.8634445"><ele>676.0</ele><time>2026-04-25T15:39:38.448Z</time></trkpt><trkpt lat="42.9434882" lon="12.8634709"><ele>667.6666666666667</ele><time>2026-04-25T15:39:39.448Z</time></trkpt><trkpt lat="42.9436819" lon="12.8634864"><ele>659.3333333333334</ele><time>2026-04-25T15:39:40.448Z</time></trkpt><trkpt lat="42.9438857" lon="12.8635028"><ele>651.0</ele><time>2026-04-25T15:39:41.448Z</time></trkpt><trkpt lat="42.9440822" lon="12.8635168"><ele>651.0</ele><time>2026-04-25T15:39:42.449Z</time></trkpt><trkpt lat="42.9442906" lon="12.8635363"><ele>651.0</ele><time>2026-04-25T15:39:43.448Z</time></trkpt><trkpt lat="42.9444943" lon="12.8635547"><ele>651.0</ele><time>2026-04-25T15:39:44.448Z</time></trkpt><trkpt lat="42.9446968" lon="12.8635764"><ele>651.0</ele><time>2026-04-25T15:39:45.448Z</time></trkpt><trkpt lat="42.9448997" lon="12.8635962"><ele>651.0</ele><time>2026-04-25T15:39:46.448Z</time></trkpt><trkpt lat="42.9450981" lon="12.8636158"><ele>651.0</ele><time>2026-04-25T15:39:47.448Z</time></trkpt><trkpt lat="42.9452948" lon="12.8636309"><ele>650.3333333333334</ele><time>2026-04-25T15:39:48.448Z</time></trkpt><trkpt lat="42.9454933" lon="12.8636468"><ele>649.6666666666667</ele><time>2026-04-25T15:39:49.448Z</time></trkpt><trkpt lat="42.9456803" lon="12.8636631"><ele>649.0</ele><time>2026-04-25T15:39:50.448Z</time></trkpt><trkpt lat="42.9458671" lon="12.8636824"><ele>649.6666666666667</ele><time>2026-04-25T15:39:51.448Z</time></trkpt><trkpt lat="42.9460501" lon="12.8637055"><ele>650.3333333333334</ele><time>2026-04-25T15:39:52.448Z</time></trkpt><trkpt lat="42.946227" lon="12.8637381"><ele>651.0</ele><time>2026-04-25T15:39:53.448Z</time></trkpt><trkpt lat="42.9464061" lon="12.8637864"><ele>651.0</ele><time>2026-04-25T15:39:54.448Z</time></trkpt><trkpt lat="42.9465812" lon="12.8638526"><ele>651.0</ele><time>2026-04-25T15:39:55.448Z</time></trkpt><trkpt lat="42.9467484" lon="12.8639285"><ele>651.0</ele><time>2026-04-25T15:39:56.448Z</time></trkpt><trkpt lat="42.9469171" lon="12.8640056"><ele>651.3333333333334</ele><time>2026-04-25T15:39:57.448Z</time></trkpt><trkpt lat="42.9470828" lon="12.8640731"><ele>651.6666666666667</ele><time>2026-04-25T15:39:58.448Z</time></trkpt><trkpt lat="42.9472386" lon="12.8641432"><ele>652.0</ele><time>2026-04-25T15:39:59.448Z</time></trkpt><trkpt lat="42.947394" lon="12.8642175"><ele>650.0</ele><time>2026-04-25T15:40:00.448Z</time></trkpt><trkpt lat="42.9475331" lon="12.8642871"><ele>648.0</ele><time>2026-04-25T15:40:01.448Z</time></trkpt><trkpt lat="42.9476796" lon="12.8643473"><ele>646.0</ele><time>2026-04-25T15:40:02.448Z</time></trkpt><trkpt lat="42.9478322" lon="12.8644043"><ele>646.0</ele><time>2026-04-25T15:40:03.448Z</time></trkpt><trkpt lat="42.9479889" lon="12.864447"><ele>646.0</ele><time>2026-04-25T15:40:04.448Z</time></trkpt><trkpt lat="42.9481483" lon="12.8644589"><ele>646.0</ele><time>2026-04-25T15:40:05.448Z</time></trkpt><trkpt lat="42.948315" lon="12.8644538"><ele>645.3333333333334</ele><time>2026-04-25T15:40:06.449Z</time></trkpt><trkpt lat="42.9484815" lon="12.864439"><ele>644.6666666666666</ele><time>2026-04-25T15:40:07.448Z</time></trkpt><trkpt lat="42.9486536" lon="12.8644165"><ele>644.0</ele><time>2026-04-25T15:40:08.448Z</time></trkpt><trkpt lat="42.9488276" lon="12.8643777"><ele>644.0</ele><time>2026-04-25T15:40:09.448Z</time></trkpt><trkpt lat="42.9490122" lon="12.8643384"><ele>644.0</ele><time>2026-04-25T15:40:10.448Z</time></trkpt><trkpt lat="42.9491964" lon="12.8643068"><ele>644.0</ele><time>2026-04-25T15:40:11.448Z</time></trkpt><trkpt lat="42.9493912" lon="12.8642719"><ele>644.6666666666666</ele><time>2026-04-25T15:40:12.449Z</time></trkpt><trkpt lat="42.9495789" lon="12.8642337"><ele>645.3333333333334</ele><time>2026-04-25T15:40:13.448Z</time></trkpt><trkpt lat="42.9497651" lon="12.8642017"><ele>646.0</ele><time>2026-04-25T15:40:14.449Z</time></trkpt><trkpt lat="42.9499393" lon="12.864163"><ele>644.0</ele><time>2026-04-25T15:40:15.449Z</time></trkpt><trkpt lat="42.9501013" lon="12.8640995"><ele>642.0</ele><time>2026-04-25T15:40:16.448Z</time></trkpt><trkpt lat="42.950247" lon="12.8640048"><ele>640.0</ele><time>2026-04-25T15:40:17.448Z</time></trkpt><trkpt lat="42.9503882" lon="12.8638726"><ele>640.0</ele><time>2026-04-25T15:40:18.449Z</time></trkpt><trkpt lat="42.9505207" lon="12.8637187"><ele>640.0</ele><time>2026-04-25T15:40:19.448Z</time></trkpt><trkpt lat="42.9506515" lon="12.8635606"><ele>640.0</ele><time>2026-04-25T15:40:20.449Z</time></trkpt><trkpt lat="42.9507806" lon="12.8634148"><ele>639.6666666666667</ele><time>2026-04-25T15:40:21.448Z</time></trkpt><trkpt lat="42.9509196" lon="12.8632875"><ele>639.3333333333334</ele><time>2026-04-25T15:40:22.448Z</time></trkpt><trkpt lat="42.9510635" lon="12.8631901"><ele>639.0</ele><time>2026-04-25T15:40:23.448Z</time></trkpt><trkpt lat="42.9512179" lon="12.8631074"><ele>639.0</ele><time>2026-04-25T15:40:24.448Z</time></trkpt><trkpt lat="42.9513828" lon="12.8630466"><ele>639.0</ele><time>2026-04-25T15:40:25.448Z</time></trkpt><trkpt lat="42.9515435" lon="12.8629732"><ele>639.0</ele><time>2026-04-25T15:40:26.448Z</time></trkpt><trkpt lat="42.9517075" lon="12.8629022"><ele>639.0</ele><time>2026-04-25T15:40:27.448Z</time></trkpt><trkpt lat="42.9518759" lon="12.8628365"><ele>639.0</ele><time>2026-04-25T15:40:28.448Z</time></trkpt><trkpt lat="42.952041" lon="12.8627712"><ele>639.0</ele><time>2026-04-25T15:40:29.448Z</time></trkpt><trkpt lat="42.952206" lon="12.8626984"><ele>639.0</ele><time>2026-04-25T15:40:30.448Z</time></trkpt><trkpt lat="42.9523674" lon="12.8626362"><ele>639.0</ele><time>2026-04-25T15:40:31.448Z</time></trkpt><trkpt lat="42.952529" lon="12.8625732"><ele>639.0</ele><time>2026-04-25T15:40:32.448Z</time></trkpt><trkpt lat="42.9526826" lon="12.862521"><ele>640.0</ele><time>2026-04-25T15:40:33.448Z</time></trkpt><trkpt lat="42.9528338" lon="12.8624665"><ele>641.0</ele><time>2026-04-25T15:40:34.448Z</time></trkpt><trkpt lat="42.9529714" lon="12.8624153"><ele>642.0</ele><time>2026-04-25T15:40:35.448Z</time></trkpt><trkpt lat="42.9531059" lon="12.8623634"><ele>643.0</ele><time>2026-04-25T15:40:36.448Z</time></trkpt><trkpt lat="42.9532262" lon="12.8623137"><ele>643.0</ele><time>2026-04-25T15:40:37.449Z</time></trkpt><trkpt lat="42.9533502" lon="12.8622693"><ele>643.0</ele><time>2026-04-25T15:40:38.448Z</time></trkpt><trkpt lat="42.953475" lon="12.8622212"><ele>643.0</ele><time>2026-04-25T15:40:39.449Z</time></trkpt><trkpt lat="42.9535975" lon="12.8621701"><ele>643.0</ele><time>2026-04-25T15:40:40.448Z</time></trkpt><trkpt lat="42.9537247" lon="12.86212"><ele>641.75</ele><time>2026-04-25T15:40:41.448Z</time></trkpt><trkpt lat="42.9538479" lon="12.862072"><ele>640.5</ele><time>2026-04-25T15:40:42.448Z</time></trkpt><trkpt lat="42.9539746" lon="12.8620327"><ele>639.25</ele><time>2026-04-25T15:40:43.448Z</time></trkpt><trkpt lat="42.9541157" lon="12.8620102"><ele>638.0</ele><time>2026-04-25T15:40:44.449Z</time></trkpt><trkpt lat="42.9542544" lon="12.8620145"><ele>637.75</ele><time>2026-04-25T15:40:45.448Z</time></trkpt><trkpt lat="42.9543987" lon="12.8620593"><ele>637.5</ele><time>2026-04-25T15:40:46.448Z</time></trkpt><trkpt lat="42.9545436" lon="12.8621123"><ele>637.25</ele><time>2026-04-25T15:40:47.448Z</time></trkpt><trkpt lat="42.9546854" lon="12.8621632"><ele>637.0</ele><time>2026-04-25T15:40:48.449Z</time></trkpt><trkpt lat="42.9548182" lon="12.862211"><ele>637.0</ele><time>2026-04-25T15:40:49.448Z</time></trkpt><trkpt lat="42.9549501" lon="12.8622451"><ele>637.0</ele><time>2026-04-25T15:40:50.448Z</time></trkpt><trkpt lat="42.9550717" lon="12.8622431"><ele>637.0</ele><time>2026-04-25T15:40:51.448Z</time></trkpt><trkpt lat="42.9551848" lon="12.8621791"><ele>637.0</ele><time>2026-04-25T15:40:52.448Z</time></trkpt><trkpt lat="42.9552878" lon="12.8620879"><ele>636.75</ele><time>2026-04-25T15:40:53.449Z</time></trkpt><trkpt lat="42.9553709" lon="12.861975"><ele>636.5</ele><time>2026-04-25T15:40:54.448Z</time></trkpt><trkpt lat="42.9554522" lon="12.8618505"><ele>636.25</ele><time>2026-04-25T15:40:55.448Z</time></trkpt><trkpt lat="42.9555188" lon="12.8617189"><ele>636.0</ele><time>2026-04-25T15:40:56.448Z</time></trkpt><trkpt lat="42.9555796" lon="12.8616092"><ele>636.0</ele><time>2026-04-25T15:40:57.448Z</time></trkpt><trkpt lat="42.9556212" lon="12.8614944"><ele>636.0</ele><time>2026-04-25T15:40:58.448Z</time></trkpt><trkpt lat="42.9556635" lon="12.8613791"><ele>636.0</ele><time>2026-04-25T15:40:59.448Z</time></trkpt><trkpt lat="42.9557037" lon="12.8612728"><ele>636.0</ele><time>2026-04-25T15:41:00.448Z</time></trkpt><trkpt lat="42.9557526" lon="12.8611802"><ele>636.0</ele><time>2026-04-25T15:41:01.448Z</time></trkpt><trkpt lat="42.9558036" lon="12.8610977"><ele>636.0</ele><time>2026-04-25T15:41:02.449Z</time></trkpt><trkpt lat="42.9558657" lon="12.8610416"><ele>636.0</ele><time>2026-04-25T15:41:03.448Z</time></trkpt><trkpt lat="42.9559377" lon="12.8609932"><ele>636.0</ele><time>2026-04-25T15:41:04.449Z</time></trkpt><trkpt lat="42.9560131" lon="12.8609701"><ele>636.0</ele><time>2026-04-25T15:41:05.448Z</time></trkpt><trkpt lat="42.9560849" lon="12.860964"><ele>636.0</ele><time>2026-04-25T15:41:06.448Z</time></trkpt><trkpt lat="42.9561623" lon="12.8609683"><ele>636.0</ele><time>2026-04-25T15:41:07.448Z</time></trkpt><trkpt lat="42.9562374" lon="12.8609805"><ele>636.0</ele><time>2026-04-25T15:41:08.449Z</time></trkpt><trkpt lat="42.9563129" lon="12.8609899"><ele>636.0</ele><time>2026-04-25T15:41:09.448Z</time></trkpt><trkpt lat="42.9563949" lon="12.8609984"><ele>636.0</ele><time>2026-04-25T15:41:10.448Z</time></trkpt><trkpt lat="42.9564597" lon="12.8610066"><ele>636.0</ele><time>2026-04-25T15:41:11.448Z</time></trkpt><trkpt lat="42.9565354" lon="12.8610295"><ele>636.0</ele><time>2026-04-25T15:41:12.448Z</time></trkpt><trkpt lat="42.9566095" lon="12.8610478"><ele>636.0</ele><time>2026-04-25T15:41:13.448Z</time></trkpt><trkpt lat="42.9566865" lon="12.8610623"><ele>636.0</ele><time>2026-04-25T15:41:14.448Z</time></trkpt><trkpt lat="42.9567572" lon="12.861085"><ele>636.0</ele><time>2026-04-25T15:41:15.449Z</time></trkpt><trkpt lat="42.9568298" lon="12.8610987"><ele>636.0</ele><time>2026-04-25T15:41:16.448Z</time></trkpt><trkpt lat="42.9569027" lon="12.8611037"><ele>636.0</ele><time>2026-04-25T15:41:17.448Z</time></trkpt><trkpt lat="42.9569755" lon="12.8611122"><ele>636.0</ele><time>2026-04-25T15:41:18.448Z</time></trkpt><trkpt lat="42.9570517" lon="12.8610893"><ele>636.0</ele><time>2026-04-25T15:41:19.448Z</time></trkpt><trkpt lat="42.957123" lon="12.8610719"><ele>636.0</ele><time>2026-04-25T15:41:20.448Z</time></trkpt><trkpt lat="42.9571924" lon="12.8610371"><ele>636.0</ele><time>2026-04-25T15:41:21.448Z</time></trkpt><trkpt lat="42.9572618" lon="12.8609999"><ele>636.0</ele><time>2026-04-25T15:41:22.448Z</time></trkpt><trkpt lat="42.957333" lon="12.8609559"><ele>636.0</ele><time>2026-04-25T15:41:23.448Z</time></trkpt><trkpt lat="42.9574005" lon="12.8609259"><ele>636.0</ele><time>2026-04-25T15:41:24.448Z</time></trkpt><trkpt lat="42.95747" lon="12.8608863"><ele>636.0</ele><time>2026-04-25T15:41:25.448Z</time></trkpt><trkpt lat="42.9575408" lon="12.8608507"><ele>636.0</ele><time>2026-04-25T15:41:26.448Z</time></trkpt><trkpt lat="42.957611" lon="12.860817"><ele>636.0</ele><time>2026-04-25T15:41:27.448Z</time></trkpt><trkpt lat="42.957668" lon="12.8607728"><ele>636.0</ele><time>2026-04-25T15:41:28.448Z</time></trkpt><trkpt lat="42.9577323" lon="12.860739"><ele>635.4285714285714</ele><time>2026-04-25T15:41:29.449Z</time></trkpt><trkpt lat="42.9577974" lon="12.8607045"><ele>634.8571428571429</ele><time>2026-04-25T15:41:30.448Z</time></trkpt><trkpt lat="42.9578652" lon="12.8606686"><ele>634.2857142857143</ele><time>2026-04-25T15:41:31.448Z</time></trkpt><trkpt lat="42.9579311" lon="12.8606317"><ele>633.7142857142858</ele><time>2026-04-25T15:41:32.448Z</time></trkpt><trkpt lat="42.9579887" lon="12.8605847"><ele>633.1428571428571</ele><time>2026-04-25T15:41:33.448Z</time></trkpt><trkpt lat="42.958051" lon="12.8605334"><ele>632.5714285714287</ele><time>2026-04-25T15:41:34.448Z</time></trkpt><trkpt lat="42.9581205" lon="12.860498"><ele>632.0</ele><time>2026-04-25T15:41:35.448Z</time></trkpt><trkpt lat="42.9581903" lon="12.8604607"><ele>632.0</ele><time>2026-04-25T15:41:36.448Z</time></trkpt><trkpt lat="42.9582555" lon="12.8604128"><ele>632.0</ele><time>2026-04-25T15:41:37.448Z</time></trkpt><trkpt lat="42.9583329" lon="12.8603654"><ele>632.0</ele><time>2026-04-25T15:41:38.448Z</time></trkpt><trkpt lat="42.9584197" lon="12.8603292"><ele>632.0</ele><time>2026-04-25T15:41:39.448Z</time></trkpt><trkpt lat="42.9584929" lon="12.8602642"><ele>632.0</ele><time>2026-04-25T15:41:40.448Z</time></trkpt><trkpt lat="42.9585679" lon="12.8601964"><ele>632.0</ele><time>2026-04-25T15:41:41.448Z</time></trkpt><trkpt lat="42.9586416" lon="12.8601206"><ele>632.4</ele><time>2026-04-25T15:41:42.448Z</time></trkpt><trkpt lat="42.9587196" lon="12.8600438"><ele>632.8000000000001</ele><time>2026-04-25T15:41:43.448Z</time></trkpt><trkpt lat="42.958799" lon="12.8599671"><ele>633.2</ele><time>2026-04-25T15:41:44.448Z</time></trkpt><trkpt lat="42.958881" lon="12.859902"><ele>633.6</ele><time>2026-04-25T15:41:45.448Z</time></trkpt><trkpt lat="42.9589649" lon="12.8598507"><ele>634.0</ele><time>2026-04-25T15:41:46.448Z</time></trkpt><trkpt lat="42.9590535" lon="12.8598016"><ele>634.0</ele><time>2026-04-25T15:41:47.448Z</time></trkpt><trkpt lat="42.9591336" lon="12.8597401"><ele>634.0</ele><time>2026-04-25T15:41:48.449Z</time></trkpt><trkpt lat="42.9591984" lon="12.8596659"><ele>634.0</ele><time>2026-04-25T15:41:49.448Z</time></trkpt><trkpt lat="42.9592315" lon="12.859571"><ele>634.0</ele><time>2026-04-25T15:41:50.448Z</time></trkpt><trkpt lat="42.9592482" lon="12.8594679"><ele>634.0</ele><time>2026-04-25T15:41:51.449Z</time></trkpt><trkpt lat="42.9592602" lon="12.8593683"><ele>634.0</ele><time>2026-04-25T15:41:52.448Z</time></trkpt><trkpt lat="42.959272" lon="12.8592671"><ele>639.6</ele><time>2026-04-25T15:41:53.448Z</time></trkpt><trkpt lat="42.959298" lon="12.8591416"><ele>645.2</ele><time>2026-04-25T15:41:54.449Z</time></trkpt><trkpt lat="42.9593224" lon="12.8590209"><ele>650.8000000000001</ele><time>2026-04-25T15:41:55.448Z</time></trkpt><trkpt lat="42.9593417" lon="12.8588802"><ele>656.4</ele><time>2026-04-25T15:41:56.448Z</time></trkpt><trkpt lat="42.959387" lon="12.8587575"><ele>662.0</ele><time>2026-04-25T15:41:57.448Z</time></trkpt><trkpt lat="42.9594376" lon="12.8586204"><ele>662.0</ele><time>2026-04-25T15:41:58.448Z</time></trkpt><trkpt lat="42.9595112" lon="12.8585048"><ele>662.0</ele><time>2026-04-25T15:41:59.449Z</time></trkpt><trkpt lat="42.9595749" lon="12.858383"><ele>662.0</ele><time>2026-04-25T15:42:00.448Z</time></trkpt><trkpt lat="42.9596303" lon="12.8582445"><ele>662.0</ele><time>2026-04-25T15:42:01.449Z</time></trkpt><trkpt lat="42.9596801" lon="12.8581049"><ele>656.0</ele><time>2026-04-25T15:42:02.448Z</time></trkpt><trkpt lat="42.9597488" lon="12.8579537"><ele>650.0</ele><time>2026-04-25T15:42:03.448Z</time></trkpt><trkpt lat="42.9598313" lon="12.8577947"><ele>644.0</ele><time>2026-04-25T15:42:04.449Z</time></trkpt><trkpt lat="42.9599251" lon="12.8576402"><ele>638.0</ele><time>2026-04-25T15:42:05.448Z</time></trkpt><trkpt lat="42.9600203" lon="12.8574785"><ele>635.75</ele><time>2026-04-25T15:42:06.448Z</time></trkpt><trkpt lat="42.9601134" lon="12.8573151"><ele>633.5</ele><time>2026-04-25T15:42:07.448Z</time></trkpt><trkpt lat="42.9602104" lon="12.8571533"><ele>631.25</ele><time>2026-04-25T15:42:08.448Z</time></trkpt><trkpt lat="42.9602945" lon="12.8569959"><ele>629.0</ele><time>2026-04-25T15:42:09.448Z</time></trkpt><trkpt lat="42.9603836" lon="12.8568587"><ele>627.25</ele><time>2026-04-25T15:42:10.448Z</time></trkpt><trkpt lat="42.9604666" lon="12.8567175"><ele>625.5</ele><time>2026-04-25T15:42:11.449Z</time></trkpt><trkpt lat="42.9605491" lon="12.8565809"><ele>623.75</ele><time>2026-04-25T15:42:12.448Z</time></trkpt><trkpt lat="42.9606296" lon="12.8564413"><ele>622.0</ele><time>2026-04-25T15:42:13.449Z</time></trkpt><trkpt lat="42.9607132" lon="12.8562994"><ele>622.0</ele><time>2026-04-25T15:42:14.448Z</time></trkpt><trkpt lat="42.9607954" lon="12.8561546"><ele>622.0</ele><time>2026-04-25T15:42:15.448Z</time></trkpt><trkpt lat="42.9608911" lon="12.8560258"><ele>622.0</ele><time>2026-04-25T15:42:16.448Z</time></trkpt><trkpt lat="42.9610017" lon="12.8559078"><ele>622.0</ele><time>2026-04-25T15:42:17.448Z</time></trkpt><trkpt lat="42.9611171" lon="12.8557892"><ele>624.3333333333334</ele><time>2026-04-25T15:42:18.448Z</time></trkpt><trkpt lat="42.961244" lon="12.8556696"><ele>626.6666666666666</ele><time>2026-04-25T15:42:19.448Z</time></trkpt><trkpt lat="42.9613764" lon="12.8555648"><ele>629.0</ele><time>2026-04-25T15:42:20.448Z</time></trkpt><trkpt lat="42.9615114" lon="12.8554405"><ele>629.0</ele><time>2026-04-25T15:42:21.449Z</time></trkpt><trkpt lat="42.9616486" lon="12.8553026"><ele>629.0</ele><time>2026-04-25T15:42:22.448Z</time></trkpt><trkpt lat="42.9617799" lon="12.8551587"><ele>629.0</ele><time>2026-04-25T15:42:23.449Z</time></trkpt><trkpt lat="42.9618981" lon="12.855009"><ele>630.0</ele><time>2026-04-25T15:42:24.448Z</time></trkpt><trkpt lat="42.9620176" lon="12.8548496"><ele>631.0</ele><time>2026-04-25T15:42:25.448Z</time></trkpt><trkpt lat="42.9621404" lon="12.8547129"><ele>632.0</ele><time>2026-04-25T15:42:26.448Z</time></trkpt><trkpt lat="42.9622544" lon="12.8545577"><ele>632.0</ele><time>2026-04-25T15:42:27.449Z</time></trkpt><trkpt lat="42.9623691" lon="12.8544133"><ele>632.0</ele><time>2026-04-25T15:42:28.448Z</time></trkpt><trkpt lat="42.9624778" lon="12.8542775"><ele>632.0</ele><time>2026-04-25T15:42:29.448Z</time></trkpt><trkpt lat="42.9625852" lon="12.8541456"><ele>632.0</ele><time>2026-04-25T15:42:30.448Z</time></trkpt><trkpt lat="42.962676" lon="12.8540104"><ele>632.0</ele><time>2026-04-25T15:42:31.448Z</time></trkpt><trkpt lat="42.9627527" lon="12.8538631"><ele>632.0</ele><time>2026-04-25T15:42:32.449Z</time></trkpt><trkpt lat="42.9628228" lon="12.8537094"><ele>632.0</ele><time>2026-04-25T15:42:33.449Z</time></trkpt><trkpt lat="42.9628862" lon="12.8535487"><ele>632.0</ele><time>2026-04-25T15:42:34.448Z</time></trkpt><trkpt lat="42.9629371" lon="12.8533927"><ele>627.25</ele><time>2026-04-25T15:42:35.448Z</time></trkpt><trkpt lat="42.9629969" lon="12.8532438"><ele>622.5</ele><time>2026-04-25T15:42:36.448Z</time></trkpt><trkpt lat="42.9630486" lon="12.8530958"><ele>617.75</ele><time>2026-04-25T15:42:37.448Z</time></trkpt><trkpt lat="42.9630995" lon="12.8529548"><ele>613.0</ele><time>2026-04-25T15:42:38.448Z</time></trkpt><trkpt lat="42.9631388" lon="12.8528179"><ele>613.0</ele><time>2026-04-25T15:42:39.449Z</time></trkpt><trkpt lat="42.9631513" lon="12.8526773"><ele>613.0</ele><time>2026-04-25T15:42:40.449Z</time></trkpt><trkpt lat="42.9631407" lon="12.8525374"><ele>613.0</ele><time>2026-04-25T15:42:41.448Z</time></trkpt><trkpt lat="42.9631087" lon="12.8523861"><ele>613.0</ele><time>2026-04-25T15:42:42.449Z</time></trkpt><trkpt lat="42.9630657" lon="12.8522508"><ele>613.0</ele><time>2026-04-25T15:42:43.448Z</time></trkpt><trkpt lat="42.9630174" lon="12.8521163"><ele>613.6</ele><time>2026-04-25T15:42:44.448Z</time></trkpt><trkpt lat="42.9629674" lon="12.8519798"><ele>614.1999999999999</ele><time>2026-04-25T15:42:45.448Z</time></trkpt><trkpt lat="42.9629203" lon="12.8518534"><ele>614.8</ele><time>2026-04-25T15:42:46.449Z</time></trkpt><trkpt lat="42.9628905" lon="12.8517409"><ele>615.4</ele><time>2026-04-25T15:42:47.448Z</time></trkpt><trkpt lat="42.962892" lon="12.8516288"><ele>616.0</ele><time>2026-04-25T15:42:48.448Z</time></trkpt><trkpt lat="42.9629298" lon="12.8515134"><ele>616.0</ele><time>2026-04-25T15:42:49.448Z</time></trkpt><trkpt lat="42.9629969" lon="12.8514302"><ele>616.0</ele><time>2026-04-25T15:42:50.448Z</time></trkpt><trkpt lat="42.9630654" lon="12.8513589"><ele>616.0</ele><time>2026-04-25T15:42:51.448Z</time></trkpt><trkpt lat="42.9631726" lon="12.8513102"><ele>616.0</ele><time>2026-04-25T15:42:52.448Z</time></trkpt><trkpt lat="42.9632766" lon="12.8512512"><ele>616.0</ele><time>2026-04-25T15:42:53.449Z</time></trkpt><trkpt lat="42.963394" lon="12.8511821"><ele>618.0</ele><time>2026-04-25T15:42:54.448Z</time></trkpt><trkpt lat="42.9635175" lon="12.851101"><ele>620.0</ele><time>2026-04-25T15:42:55.449Z</time></trkpt><trkpt lat="42.9636471" lon="12.8509569"><ele>622.0</ele><time>2026-04-25T15:42:56.449Z</time></trkpt><trkpt lat="42.9637802" lon="12.8508219"><ele>622.0</ele><time>2026-04-25T15:42:57.448Z</time></trkpt><trkpt lat="42.9639035" lon="12.8506757"><ele>622.0</ele><time>2026-04-25T15:42:58.448Z</time></trkpt><trkpt lat="42.9640263" lon="12.8505154"><ele>622.0</ele><time>2026-04-25T15:42:59.448Z</time></trkpt><trkpt lat="42.9641292" lon="12.85032"><ele>624.0</ele><time>2026-04-25T15:43:00.449Z</time></trkpt><trkpt lat="42.9642356" lon="12.8501459"><ele>626.0</ele><time>2026-04-25T15:43:01.448Z</time></trkpt><trkpt lat="42.9643226" lon="12.8499519"><ele>628.0</ele><time>2026-04-25T15:43:02.448Z</time></trkpt><trkpt lat="42.9644159" lon="12.8497752"><ele>628.0</ele><time>2026-04-25T15:43:03.448Z</time></trkpt><trkpt lat="42.9644972" lon="12.8496106"><ele>628.0</ele><time>2026-04-25T15:43:04.448Z</time></trkpt><trkpt lat="42.9645912" lon="12.8494667"><ele>628.0</ele><time>2026-04-25T15:43:05.448Z</time></trkpt><trkpt lat="42.9646669" lon="12.8493108"><ele>628.0</ele><time>2026-04-25T15:43:06.448Z</time></trkpt><trkpt lat="42.9647559" lon="12.8491949"><ele>621.0</ele><time>2026-04-25T15:43:07.448Z</time></trkpt><trkpt lat="42.9648523" lon="12.8490974"><ele>614.0</ele><time>2026-04-25T15:43:08.448Z</time></trkpt><trkpt lat="42.9649697" lon="12.8490467"><ele>607.0</ele><time>2026-04-25T15:43:09.448Z</time></trkpt><trkpt lat="42.9650863" lon="12.8490136"><ele>600.0</ele><time>2026-04-25T15:43:10.448Z</time></trkpt><trkpt lat="42.9652046" lon="12.8490067"><ele>599.75</ele><time>2026-04-25T15:43:11.448Z</time></trkpt><trkpt lat="42.9653406" lon="12.8490272"><ele>599.5</ele><time>2026-04-25T15:43:12.448Z</time></trkpt><trkpt lat="42.9654823" lon="12.8490774"><ele>599.25</ele><time>2026-04-25T15:43:13.448Z</time></trkpt><trkpt lat="42.9656258" lon="12.8491015"><ele>599.0</ele><time>2026-04-25T15:43:14.448Z</time></trkpt><trkpt lat="42.965777" lon="12.849121"><ele>597.0</ele><time>2026-04-25T15:43:15.448Z</time></trkpt><trkpt lat="42.9659389" lon="12.8491544"><ele>595.0</ele><time>2026-04-25T15:43:16.448Z</time></trkpt><trkpt lat="42.9661101" lon="12.8491867"><ele>593.0</ele><time>2026-04-25T15:43:17.448Z</time></trkpt><trkpt lat="42.9662933" lon="12.8492129"><ele>593.0</ele><time>2026-04-25T15:43:18.448Z</time></trkpt><trkpt lat="42.9664747" lon="12.8492524"><ele>593.0</ele><time>2026-04-25T15:43:19.448Z</time></trkpt><trkpt lat="42.966665" lon="12.8492781"><ele>593.0</ele><time>2026-04-25T15:43:20.448Z</time></trkpt><trkpt lat="42.9668547" lon="12.8493134"><ele>604.3333333333333</ele><time>2026-04-25T15:43:21.448Z</time></trkpt><trkpt lat="42.9670347" lon="12.8493323"><ele>615.6666666666666</ele><time>2026-04-25T15:43:22.448Z</time></trkpt><trkpt lat="42.9672171" lon="12.8493446"><ele>627.0</ele><time>2026-04-25T15:43:23.448Z</time></trkpt><trkpt lat="42.9674029" lon="12.8493223"><ele>616.6666666666666</ele><time>2026-04-25T15:43:24.448Z</time></trkpt><trkpt lat="42.9675917" lon="12.8492701"><ele>606.3333333333333</ele><time>2026-04-25T15:43:25.448Z</time></trkpt><trkpt lat="42.9677756" lon="12.849209"><ele>596.0</ele><time>2026-04-25T15:43:26.448Z</time></trkpt><trkpt lat="42.9679516" lon="12.8491497"><ele>596.0</ele><time>2026-04-25T15:43:27.448Z</time></trkpt><trkpt lat="42.968124" lon="12.8490852"><ele>596.0</ele><time>2026-04-25T15:43:28.448Z</time></trkpt><trkpt lat="42.9682921" lon="12.849026"><ele>596.0</ele><time>2026-04-25T15:43:29.448Z</time></trkpt><trkpt lat="42.9684617" lon="12.8489741"><ele>594.6666666666666</ele><time>2026-04-25T15:43:30.448Z</time></trkpt><trkpt lat="42.9686279" lon="12.8489273"><ele>593.3333333333334</ele><time>2026-04-25T15:43:31.448Z</time></trkpt><trkpt lat="42.9687911" lon="12.8488802"><ele>592.0</ele><time>2026-04-25T15:43:32.448Z</time></trkpt><trkpt lat="42.968957" lon="12.8488242"><ele>592.0</ele><time>2026-04-25T15:43:33.448Z</time></trkpt><trkpt lat="42.9691262" lon="12.8487787"><ele>592.0</ele><time>2026-04-25T15:43:34.448Z</time></trkpt><trkpt lat="42.9692978" lon="12.848733"><ele>592.0</ele><time>2026-04-25T15:43:35.448Z</time></trkpt><trkpt lat="42.9694614" lon="12.8486812"><ele>592.3333333333334</ele><time>2026-04-25T15:43:36.448Z</time></trkpt><trkpt lat="42.9696276" lon="12.8486221"><ele>592.6666666666666</ele><time>2026-04-25T15:43:37.448Z</time></trkpt><trkpt lat="42.969794" lon="12.8485637"><ele>593.0</ele><time>2026-04-25T15:43:38.448Z</time></trkpt><trkpt lat="42.9699558" lon="12.8485075"><ele>590.6666666666666</ele><time>2026-04-25T15:43:39.449Z</time></trkpt><trkpt lat="42.9701159" lon="12.8484513"><ele>588.3333333333334</ele><time>2026-04-25T15:43:40.448Z</time></trkpt><trkpt lat="42.9702676" lon="12.8483995"><ele>586.0</ele><time>2026-04-25T15:43:41.448Z</time></trkpt><trkpt lat="42.9704137" lon="12.8483452"><ele>586.0</ele><time>2026-04-25T15:43:42.448Z</time></trkpt><trkpt lat="42.9705548" lon="12.8482948"><ele>586.0</ele><time>2026-04-25T15:43:43.448Z</time></trkpt><trkpt lat="42.9706899" lon="12.8482487"><ele>586.0</ele><time>2026-04-25T15:43:44.448Z</time></trkpt><trkpt lat="42.9708255" lon="12.8482014"><ele>586.0</ele><time>2026-04-25T15:43:45.448Z</time></trkpt><trkpt lat="42.9709591" lon="12.8481561"><ele>587.25</ele><time>2026-04-25T15:43:46.448Z</time></trkpt><trkpt lat="42.9710952" lon="12.8481035"><ele>588.5</ele><time>2026-04-25T15:43:47.448Z</time></trkpt><trkpt lat="42.9712347" lon="12.8480537"><ele>589.75</ele><time>2026-04-25T15:43:48.449Z</time></trkpt><trkpt lat="42.9713781" lon="12.8479911"><ele>591.0</ele><time>2026-04-25T15:43:49.449Z</time></trkpt><trkpt lat="42.9715192" lon="12.847931"><ele>591.0</ele><time>2026-04-25T15:43:50.448Z</time></trkpt><trkpt lat="42.9716672" lon="12.8478695"><ele>591.0</ele><time>2026-04-25T15:43:51.448Z</time></trkpt><trkpt lat="42.9718182" lon="12.8477968"><ele>591.0</ele><time>2026-04-25T15:43:52.448Z</time></trkpt><trkpt lat="42.9719738" lon="12.8477119"><ele>598.3333333333334</ele><time>2026-04-25T15:43:53.448Z</time></trkpt><trkpt lat="42.9721199" lon="12.847617"><ele>605.6666666666667</ele><time>2026-04-25T15:43:54.448Z</time></trkpt><trkpt lat="42.9722646" lon="12.84752"><ele>613.0</ele><time>2026-04-25T15:43:55.449Z</time></trkpt><trkpt lat="42.972408" lon="12.8474197"><ele>576.0</ele><time>2026-04-25T15:43:56.448Z</time></trkpt><trkpt lat="42.9753335" lon="12.8443132"><ele>575.75</ele><time>2026-04-25T15:44:17.448Z</time></trkpt><trkpt lat="42.9754449" lon="12.8442351"><ele>575.5</ele><time>2026-04-25T15:44:18.448Z</time></trkpt><trkpt lat="42.9755531" lon="12.8441631"><ele>575.25</ele><time>2026-04-25T15:44:19.448Z</time></trkpt><trkpt lat="42.9756634" lon="12.8441214"><ele>575.0</ele><time>2026-04-25T15:44:20.448Z</time></trkpt><trkpt lat="42.975765" lon="12.844088"><ele>576.0</ele><time>2026-04-25T15:44:21.448Z</time></trkpt><trkpt lat="42.9758751" lon="12.8440903"><ele>577.0</ele><time>2026-04-25T15:44:22.448Z</time></trkpt><trkpt lat="42.9759658" lon="12.8440853"><ele>578.0</ele><time>2026-04-25T15:44:23.448Z</time></trkpt><trkpt lat="42.97605" lon="12.8440971"><ele>579.0</ele><time>2026-04-25T15:44:24.448Z</time></trkpt><trkpt lat="42.9761302" lon="12.8441147"><ele>580.0</ele><time>2026-04-25T15:44:25.448Z</time></trkpt><trkpt lat="42.9762044" lon="12.844136"><ele>581.0</ele><time>2026-04-25T15:44:26.448Z</time></trkpt><trkpt lat="42.9762753" lon="12.844158"><ele>581.0</ele><time>2026-04-25T15:44:27.448Z</time></trkpt><trkpt lat="42.9763482" lon="12.8441481"><ele>581.0</ele><time>2026-04-25T15:44:28.448Z</time></trkpt><trkpt lat="42.9764091" lon="12.8441253"><ele>581.0</ele><time>2026-04-25T15:44:29.448Z</time></trkpt><trkpt lat="42.9764716" lon="12.8441131"><ele>581.0</ele><time>2026-04-25T15:44:30.448Z</time></trkpt><trkpt lat="42.9765447" lon="12.8441051"><ele>581.0</ele><time>2026-04-25T15:44:31.448Z</time></trkpt><trkpt lat="42.9766411" lon="12.8441062"><ele>581.0</ele><time>2026-04-25T15:44:32.448Z</time></trkpt><trkpt lat="42.9767611" lon="12.8441112"><ele>583.5</ele><time>2026-04-25T15:44:33.448Z</time></trkpt><trkpt lat="42.9768755" lon="12.8441154"><ele>586.0</ele><time>2026-04-25T15:44:34.448Z</time></trkpt><trkpt lat="42.9770087" lon="12.8441292"><ele>588.5</ele><time>2026-04-25T15:44:35.448Z</time></trkpt><trkpt lat="42.9771583" lon="12.8441537"><ele>591.0</ele><time>2026-04-25T15:44:36.448Z</time></trkpt><trkpt lat="42.9773121" lon="12.8441832"><ele>591.0</ele><time>2026-04-25T15:44:37.449Z</time></trkpt><trkpt lat="42.9774672" lon="12.8442269"><ele>591.0</ele><time>2026-04-25T15:44:38.448Z</time></trkpt><trkpt lat="42.9776288" lon="12.8442833"><ele>591.0</ele><time>2026-04-25T15:44:39.448Z</time></trkpt><trkpt lat="42.977787" lon="12.8443604"><ele>588.3333333333334</ele><time>2026-04-25T15:44:40.448Z</time></trkpt><trkpt lat="42.9779488" lon="12.8444485"><ele>585.6666666666667</ele><time>2026-04-25T15:44:41.448Z</time></trkpt><trkpt lat="42.9781021" lon="12.844552"><ele>583.0</ele><time>2026-04-25T15:44:42.448Z</time></trkpt><trkpt lat="42.9782569" lon="12.8446647"><ele>587.6666666666667</ele><time>2026-04-25T15:44:43.448Z</time></trkpt><trkpt lat="42.9784136" lon="12.844781"><ele>592.3333333333334</ele><time>2026-04-25T15:44:44.448Z</time></trkpt><trkpt lat="42.9785721" lon="12.8449097"><ele>597.0</ele><time>2026-04-25T15:44:45.448Z</time></trkpt><trkpt lat="42.9787316" lon="12.8450299"><ele>596.6666666666666</ele><time>2026-04-25T15:44:46.448Z</time></trkpt><trkpt lat="42.9788883" lon="12.8451552"><ele>596.3333333333333</ele><time>2026-04-25T15:44:47.448Z</time></trkpt><trkpt lat="42.9790479" lon="12.8452864"><ele>596.0</ele><time>2026-04-25T15:44:48.449Z</time></trkpt><trkpt lat="42.979207" lon="12.8454218"><ele>596.0</ele><time>2026-04-25T15:44:49.448Z</time></trkpt><trkpt lat="42.979373" lon="12.8455586"><ele>596.0</ele><time>2026-04-25T15:44:50.448Z</time></trkpt><trkpt lat="42.979531" lon="12.8456892"><ele>596.0</ele><time>2026-04-25T15:44:51.448Z</time></trkpt><trkpt lat="42.9796842" lon="12.845818"><ele>596.0</ele><time>2026-04-25T15:44:52.448Z</time></trkpt><trkpt lat="42.9798349" lon="12.8459387"><ele>596.0</ele><time>2026-04-25T15:44:53.448Z</time></trkpt><trkpt lat="42.979953" lon="12.8460397"><ele>596.0</ele><time>2026-04-25T15:44:54.448Z</time></trkpt><trkpt lat="42.9800819" lon="12.84614"><ele>597.75</ele><time>2026-04-25T15:44:55.448Z</time></trkpt><trkpt lat="42.9802114" lon="12.846225"><ele>599.5</ele><time>2026-04-25T15:44:56.448Z</time></trkpt><trkpt lat="42.980331" lon="12.8463319"><ele>601.25</ele><time>2026-04-25T15:44:57.448Z</time></trkpt><trkpt lat="42.9804547" lon="12.8464358"><ele>603.0</ele><time>2026-04-25T15:44:58.448Z</time></trkpt><trkpt lat="42.9805764" lon="12.8465409"><ele>603.0</ele><time>2026-04-25T15:44:59.448Z</time></trkpt><trkpt lat="42.9806937" lon="12.846651"><ele>603.0</ele><time>2026-04-25T15:45:00.448Z</time></trkpt><trkpt lat="42.9807967" lon="12.8467684"><ele>603.0</ele><time>2026-04-25T15:45:01.448Z</time></trkpt><trkpt lat="42.9808912" lon="12.8468812"><ele>603.0</ele><time>2026-04-25T15:45:02.448Z</time></trkpt><trkpt lat="42.9809633" lon="12.8470014"><ele>603.0</ele><time>2026-04-25T15:45:03.448Z</time></trkpt><trkpt lat="42.9810189" lon="12.8471242"><ele>603.0</ele><time>2026-04-25T15:45:04.448Z</time></trkpt><trkpt lat="42.9810157" lon="12.8472426"><ele>603.0</ele><time>2026-04-25T15:45:05.448Z</time></trkpt><trkpt lat="42.981006" lon="12.8473604"><ele>603.0</ele><time>2026-04-25T15:45:06.448Z</time></trkpt><trkpt lat="42.9809814" lon="12.8474694"><ele>603.0</ele><time>2026-04-25T15:45:07.448Z</time></trkpt><trkpt lat="42.98093" lon="12.8475611"><ele>603.0</ele><time>2026-04-25T15:45:08.448Z</time></trkpt><trkpt lat="42.9808571" lon="12.8476477"><ele>602.8</ele><time>2026-04-25T15:45:09.448Z</time></trkpt><trkpt lat="42.9807555" lon="12.8476834"><ele>602.5999999999999</ele><time>2026-04-25T15:45:10.448Z</time></trkpt><trkpt lat="42.9806553" lon="12.8476859"><ele>602.4000000000001</ele><time>2026-04-25T15:45:11.448Z</time></trkpt><trkpt lat="42.9805416" lon="12.8476566"><ele>602.2</ele><time>2026-04-25T15:45:12.448Z</time></trkpt><trkpt lat="42.980433" lon="12.8475938"><ele>602.0</ele><time>2026-04-25T15:45:13.448Z</time></trkpt><trkpt lat="42.9803019" lon="12.8475087"><ele>601.3333333333333</ele><time>2026-04-25T15:45:14.448Z</time></trkpt><trkpt lat="42.9801681" lon="12.8473886"><ele>600.6666666666666</ele><time>2026-04-25T15:45:15.448Z</time></trkpt><trkpt lat="42.9800355" lon="12.8472633"><ele>600.0</ele><time>2026-04-25T15:45:16.448Z</time></trkpt><trkpt lat="42.9799117" lon="12.8471159"><ele>600.0</ele><time>2026-04-25T15:45:17.448Z</time></trkpt><trkpt lat="42.9797933" lon="12.8469397"><ele>600.0</ele><time>2026-04-25T15:45:18.448Z</time></trkpt><trkpt lat="42.9796776" lon="12.8467553"><ele>600.0</ele><time>2026-04-25T15:45:19.448Z</time></trkpt><trkpt lat="42.9795827" lon="12.8465482"><ele>598.6666666666666</ele><time>2026-04-25T15:45:20.449Z</time></trkpt><trkpt lat="42.979503" lon="12.8463189"><ele>597.3333333333333</ele><time>2026-04-25T15:45:21.448Z</time></trkpt><trkpt lat="42.979446" lon="12.8460707"><ele>596.0</ele><time>2026-04-25T15:45:22.449Z</time></trkpt><trkpt lat="42.9793968" lon="12.8458219"><ele>596.0</ele><time>2026-04-25T15:45:23.448Z</time></trkpt><trkpt lat="42.9793728" lon="12.8455677"><ele>596.0</ele><time>2026-04-25T15:45:24.448Z</time></trkpt><trkpt lat="42.9793706" lon="12.8453106"><ele>596.0</ele><time>2026-04-25T15:45:25.448Z</time></trkpt><trkpt lat="42.9793749" lon="12.8450559"><ele>595.6666666666666</ele><time>2026-04-25T15:45:26.448Z</time></trkpt><trkpt lat="42.9793901" lon="12.8448023"><ele>595.3333333333334</ele><time>2026-04-25T15:45:27.448Z</time></trkpt><trkpt lat="42.9794107" lon="12.8445499"><ele>595.0</ele><time>2026-04-25T15:45:28.448Z</time></trkpt><trkpt lat="42.9801141" lon="12.8356271"><ele>595.0</ele><time>2026-04-25T15:45:59.448Z</time></trkpt><trkpt lat="42.9801305" lon="12.8353715"><ele>595.0</ele><time>2026-04-25T15:46:00.448Z</time></trkpt><trkpt lat="42.9801427" lon="12.8351064"><ele>595.0</ele><time>2026-04-25T15:46:01.448Z</time></trkpt><trkpt lat="42.9801517" lon="12.8348394"><ele>594.0</ele><time>2026-04-25T15:46:02.448Z</time></trkpt><trkpt lat="42.9801516" lon="12.8345789"><ele>593.0</ele><time>2026-04-25T15:46:03.448Z</time></trkpt><trkpt lat="42.9801507" lon="12.8343174"><ele>592.0</ele><time>2026-04-25T15:46:04.448Z</time></trkpt><trkpt lat="42.9801513" lon="12.8340628"><ele>591.0</ele><time>2026-04-25T15:46:05.448Z</time></trkpt><trkpt lat="42.9801392" lon="12.8337988"><ele>590.0</ele><time>2026-04-25T15:46:06.448Z</time></trkpt><trkpt lat="42.9801297" lon="12.8335368"><ele>589.0</ele><time>2026-04-25T15:46:07.448Z</time></trkpt><trkpt lat="42.9801212" lon="12.8332875"><ele>590.3333333333334</ele><time>2026-04-25T15:46:08.448Z</time></trkpt><trkpt lat="42.9801184" lon="12.8330551"><ele>591.6666666666666</ele><time>2026-04-25T15:46:09.448Z</time></trkpt><trkpt lat="42.980107" lon="12.8328004"><ele>593.0</ele><time>2026-04-25T15:46:10.448Z</time></trkpt><trkpt lat="42.9800939" lon="12.8325465"><ele>593.0</ele><time>2026-04-25T15:46:11.448Z</time></trkpt><trkpt lat="42.9800858" lon="12.8323038"><ele>593.0</ele><time>2026-04-25T15:46:12.448Z</time></trkpt><trkpt lat="42.9800839" lon="12.8320623"><ele>593.0</ele><time>2026-04-25T15:46:13.448Z</time></trkpt><trkpt lat="42.980101" lon="12.8318217"><ele>587.6666666666666</ele><time>2026-04-25T15:46:14.449Z</time></trkpt><trkpt lat="42.9801346" lon="12.8315773"><ele>582.3333333333334</ele><time>2026-04-25T15:46:15.448Z</time></trkpt><trkpt lat="42.9801862" lon="12.8313301"><ele>577.0</ele><time>2026-04-25T15:46:16.448Z</time></trkpt><trkpt lat="42.980248" lon="12.8310705"><ele>571.3333333333334</ele><time>2026-04-25T15:46:17.448Z</time></trkpt><trkpt lat="42.9803073" lon="12.8308107"><ele>565.6666666666666</ele><time>2026-04-25T15:46:18.448Z</time></trkpt><trkpt lat="42.9803694" lon="12.8305431"><ele>560.0</ele><time>2026-04-25T15:46:19.449Z</time></trkpt><trkpt lat="42.9804238" lon="12.8302751"><ele>556.3333333333333</ele><time>2026-04-25T15:46:20.448Z</time></trkpt><trkpt lat="42.9804687" lon="12.8300073"><ele>552.6666666666666</ele><time>2026-04-25T15:46:21.448Z</time></trkpt><trkpt lat="42.980488" lon="12.8297279"><ele>549.0</ele><time>2026-04-25T15:46:22.448Z</time></trkpt><trkpt lat="42.9804934" lon="12.8294526"><ele>548.3333333333334</ele><time>2026-04-25T15:46:23.448Z</time></trkpt><trkpt lat="42.9804671" lon="12.8291906"><ele>547.6666666666667</ele><time>2026-04-25T15:46:24.448Z</time></trkpt><trkpt lat="42.9804306" lon="12.8289263"><ele>547.0</ele><time>2026-04-25T15:46:25.448Z</time></trkpt><trkpt lat="42.9803547" lon="12.8286847"><ele>546.6666666666667</ele><time>2026-04-25T15:46:26.448Z</time></trkpt><trkpt lat="42.9802661" lon="12.8284537"><ele>546.3333333333334</ele><time>2026-04-25T15:46:27.449Z</time></trkpt><trkpt lat="42.9801675" lon="12.8282276"><ele>546.0</ele><time>2026-04-25T15:46:28.448Z</time></trkpt><trkpt lat="42.9800343" lon="12.8280344"><ele>545.0</ele><time>2026-04-25T15:46:29.449Z</time></trkpt><trkpt lat="42.9798853" lon="12.8278524"><ele>544.0</ele><time>2026-04-25T15:46:30.448Z</time></trkpt><trkpt lat="42.9797207" lon="12.8276934"><ele>543.0</ele><time>2026-04-25T15:46:31.448Z</time></trkpt><trkpt lat="42.9795484" lon="12.8275655"><ele>543.0</ele><time>2026-04-25T15:46:32.448Z</time></trkpt><trkpt lat="42.9793536" lon="12.8274599"><ele>543.0</ele><time>2026-04-25T15:46:33.448Z</time></trkpt><trkpt lat="42.9791484" lon="12.8273553"><ele>543.0</ele><time>2026-04-25T15:46:34.449Z</time></trkpt><trkpt lat="42.978948" lon="12.8272474"><ele>544.6666666666666</ele><time>2026-04-25T15:46:35.448Z</time></trkpt><trkpt lat="42.9787439" lon="12.827137"><ele>546.3333333333333</ele><time>2026-04-25T15:46:36.449Z</time></trkpt><trkpt lat="42.9785422" lon="12.8270261"><ele>548.0</ele><time>2026-04-25T15:46:37.448Z</time></trkpt><trkpt lat="42.9783384" lon="12.8269077"><ele>546.0</ele><time>2026-04-25T15:46:38.448Z</time></trkpt><trkpt lat="42.9781472" lon="12.8267926"><ele>544.0</ele><time>2026-04-25T15:46:39.448Z</time></trkpt><trkpt lat="42.9779628" lon="12.8266579"><ele>542.0</ele><time>2026-04-25T15:46:40.448Z</time></trkpt><trkpt lat="42.9777925" lon="12.826504"><ele>542.0</ele><time>2026-04-25T15:46:41.448Z</time></trkpt><trkpt lat="42.9776385" lon="12.8263254"><ele>542.0</ele><time>2026-04-25T15:46:42.448Z</time></trkpt><trkpt lat="42.9774954" lon="12.8261273"><ele>542.0</ele><time>2026-04-25T15:46:43.449Z</time></trkpt><trkpt lat="42.9773702" lon="12.8259103"><ele>543.6666666666666</ele><time>2026-04-25T15:46:44.448Z</time></trkpt><trkpt lat="42.9772683" lon="12.8256747"><ele>545.3333333333334</ele><time>2026-04-25T15:46:45.448Z</time></trkpt><trkpt lat="42.9771806" lon="12.8254309"><ele>547.0</ele><time>2026-04-25T15:46:46.449Z</time></trkpt><trkpt lat="42.9771111" lon="12.8251764"><ele>545.3333333333334</ele><time>2026-04-25T15:46:47.448Z</time></trkpt><trkpt lat="42.9770496" lon="12.8249092"><ele>543.6666666666666</ele><time>2026-04-25T15:46:48.448Z</time></trkpt><trkpt lat="42.9770088" lon="12.8246428"><ele>542.0</ele><time>2026-04-25T15:46:49.448Z</time></trkpt><trkpt lat="42.9769614" lon="12.8243784"><ele>543.3333333333333</ele><time>2026-04-25T15:46:50.448Z</time></trkpt><trkpt lat="42.9769178" lon="12.8241188"><ele>544.6666666666666</ele><time>2026-04-25T15:46:51.448Z</time></trkpt><trkpt lat="42.9768746" lon="12.8238728"><ele>546.0</ele><time>2026-04-25T15:46:52.448Z</time></trkpt><trkpt lat="42.9768354" lon="12.8236253"><ele>547.3333333333334</ele><time>2026-04-25T15:46:53.448Z</time></trkpt><trkpt lat="42.9767831" lon="12.8233689"><ele>548.6666666666667</ele><time>2026-04-25T15:46:54.448Z</time></trkpt><trkpt lat="42.9767218" lon="12.8231189"><ele>550.0</ele><time>2026-04-25T15:46:55.448Z</time></trkpt><trkpt lat="42.9766476" lon="12.8228799"><ele>546.3333333333334</ele><time>2026-04-25T15:46:56.448Z</time></trkpt><trkpt lat="42.9765621" lon="12.8226414"><ele>542.6666666666666</ele><time>2026-04-25T15:46:57.448Z</time></trkpt><trkpt lat="42.9764536" lon="12.8224063"><ele>539.0</ele><time>2026-04-25T15:46:58.448Z</time></trkpt><trkpt lat="42.9763359" lon="12.8221727"><ele>539.0</ele><time>2026-04-25T15:46:59.448Z</time></trkpt><trkpt lat="42.9762111" lon="12.8219385"><ele>539.0</ele><time>2026-04-25T15:47:00.448Z</time></trkpt><trkpt lat="42.9760811" lon="12.8217002"><ele>539.0</ele><time>2026-04-25T15:47:01.449Z</time></trkpt><trkpt lat="42.9759555" lon="12.8214561"><ele>538.0</ele><time>2026-04-25T15:47:02.448Z</time></trkpt><trkpt lat="42.9758255" lon="12.821205"><ele>537.0</ele><time>2026-04-25T15:47:03.448Z</time></trkpt><trkpt lat="42.9756888" lon="12.8209566"><ele>539.0</ele><time>2026-04-25T15:47:04.448Z</time></trkpt><trkpt lat="42.9755628" lon="12.8207116"><ele>541.0</ele><time>2026-04-25T15:47:05.449Z</time></trkpt><trkpt lat="42.9754308" lon="12.820463"><ele>543.0</ele><time>2026-04-25T15:47:06.448Z</time></trkpt><trkpt lat="42.9752982" lon="12.8202198"><ele>543.0</ele><time>2026-04-25T15:47:07.448Z</time></trkpt><trkpt lat="42.9751658" lon="12.8199752"><ele>543.0</ele><time>2026-04-25T15:47:08.448Z</time></trkpt><trkpt lat="42.9750367" lon="12.8197249"><ele>543.0</ele><time>2026-04-25T15:47:09.448Z</time></trkpt><trkpt lat="42.9749111" lon="12.8194682"><ele>545.6666666666666</ele><time>2026-04-25T15:47:10.449Z</time></trkpt><trkpt lat="42.9747892" lon="12.819219"><ele>548.3333333333333</ele><time>2026-04-25T15:47:11.448Z</time></trkpt><trkpt lat="42.974674" lon="12.8189765"><ele>551.0</ele><time>2026-04-25T15:47:12.448Z</time></trkpt><trkpt lat="42.9745598" lon="12.8187461"><ele>551.0</ele><time>2026-04-25T15:47:13.448Z</time></trkpt><trkpt lat="42.9744565" lon="12.8185177"><ele>551.0</ele><time>2026-04-25T15:47:14.448Z</time></trkpt><trkpt lat="42.9743685" lon="12.8182733"><ele>551.0</ele><time>2026-04-25T15:47:15.448Z</time></trkpt><trkpt lat="42.9742842" lon="12.8180321"><ele>554.0</ele><time>2026-04-25T15:47:16.448Z</time></trkpt><trkpt lat="42.9742124" lon="12.8177932"><ele>557.0</ele><time>2026-04-25T15:47:17.448Z</time></trkpt><trkpt lat="42.974144" lon="12.8175463"><ele>560.0</ele><time>2026-04-25T15:47:18.448Z</time></trkpt><trkpt lat="42.9740805" lon="12.8173063"><ele>556.6666666666666</ele><time>2026-04-25T15:47:19.448Z</time></trkpt><trkpt lat="42.9740239" lon="12.8170772"><ele>553.3333333333334</ele><time>2026-04-25T15:47:20.448Z</time></trkpt><trkpt lat="42.9739698" lon="12.8168537"><ele>550.0</ele><time>2026-04-25T15:47:21.448Z</time></trkpt><trkpt lat="42.9739167" lon="12.816632"><ele>550.0</ele><time>2026-04-25T15:47:22.448Z</time></trkpt><trkpt lat="42.9738658" lon="12.8164229"><ele>550.0</ele><time>2026-04-25T15:47:23.448Z</time></trkpt><trkpt lat="42.9738201" lon="12.8162142"><ele>550.0</ele><time>2026-04-25T15:47:24.448Z</time></trkpt><trkpt lat="42.9737834" lon="12.8159975"><ele>550.6666666666667</ele><time>2026-04-25T15:47:25.448Z</time></trkpt><trkpt lat="42.9737501" lon="12.8157838"><ele>551.3333333333334</ele><time>2026-04-25T15:47:26.448Z</time></trkpt><trkpt lat="42.9737205" lon="12.8155741"><ele>552.0</ele><time>2026-04-25T15:47:27.449Z</time></trkpt><trkpt lat="42.9736936" lon="12.8153743"><ele>552.0</ele><time>2026-04-25T15:47:28.448Z</time></trkpt><trkpt lat="42.9736685" lon="12.8151765"><ele>552.0</ele><time>2026-04-25T15:47:29.448Z</time></trkpt><trkpt lat="42.9736437" lon="12.8149891"><ele>552.0</ele><time>2026-04-25T15:47:30.448Z</time></trkpt><trkpt lat="42.973617" lon="12.8147944"><ele>552.0</ele><time>2026-04-25T15:47:31.449Z</time></trkpt><trkpt lat="42.9735796" lon="12.8146126"><ele>552.0</ele><time>2026-04-25T15:47:32.449Z</time></trkpt><trkpt lat="42.9735352" lon="12.8144336"><ele>552.0</ele><time>2026-04-25T15:47:33.449Z</time></trkpt><trkpt lat="42.9734868" lon="12.8142632"><ele>552.0</ele><time>2026-04-25T15:47:34.448Z</time></trkpt><trkpt lat="42.9734396" lon="12.8140926"><ele>552.0</ele><time>2026-04-25T15:47:35.449Z</time></trkpt><trkpt lat="42.9733869" lon="12.8139187"><ele>548.0</ele><time>2026-04-25T15:47:36.448Z</time></trkpt><trkpt lat="42.9733314" lon="12.8137497"><ele>544.0</ele><time>2026-04-25T15:47:37.449Z</time></trkpt><trkpt lat="42.9732766" lon="12.8135717"><ele>540.0</ele><time>2026-04-25T15:47:38.448Z</time></trkpt><trkpt lat="42.9732331" lon="12.8133844"><ele>536.0</ele><time>2026-04-25T15:47:39.449Z</time></trkpt><trkpt lat="42.9731886" lon="12.8131888"><ele>536.0</ele><time>2026-04-25T15:47:40.448Z</time></trkpt><trkpt lat="42.973154" lon="12.8129884"><ele>536.0</ele><time>2026-04-25T15:47:41.448Z</time></trkpt><trkpt lat="42.9731267" lon="12.8127806"><ele>536.0</ele><time>2026-04-25T15:47:42.448Z</time></trkpt><trkpt lat="42.9731156" lon="12.8125634"><ele>536.0</ele><time>2026-04-25T15:47:43.448Z</time></trkpt><trkpt lat="42.973111" lon="12.8123586"><ele>536.0</ele><time>2026-04-25T15:47:44.448Z</time></trkpt><trkpt lat="42.9731061" lon="12.8121421"><ele>536.0</ele><time>2026-04-25T15:47:45.448Z</time></trkpt><trkpt lat="42.9731039" lon="12.8119262"><ele>536.25</ele><time>2026-04-25T15:47:46.448Z</time></trkpt><trkpt lat="42.973102" lon="12.811718"><ele>536.5</ele><time>2026-04-25T15:47:47.448Z</time></trkpt><trkpt lat="42.9731047" lon="12.811516"><ele>536.75</ele><time>2026-04-25T15:47:48.448Z</time></trkpt><trkpt lat="42.9731049" lon="12.8113246"><ele>537.0</ele><time>2026-04-25T15:47:49.448Z</time></trkpt><trkpt lat="42.9731014" lon="12.8111434"><ele>538.75</ele><time>2026-04-25T15:47:50.448Z</time></trkpt><trkpt lat="42.9730764" lon="12.8109539"><ele>540.5</ele><time>2026-04-25T15:47:51.449Z</time></trkpt><trkpt lat="42.9730543" lon="12.8107788"><ele>542.25</ele><time>2026-04-25T15:47:52.448Z</time></trkpt><trkpt lat="42.9730081" lon="12.8106049"><ele>544.0</ele><time>2026-04-25T15:47:53.448Z</time></trkpt><trkpt lat="42.972941" lon="12.810431"><ele>544.0</ele><time>2026-04-25T15:47:54.448Z</time></trkpt><trkpt lat="42.9728636" lon="12.8102686"><ele>544.0</ele><time>2026-04-25T15:47:55.448Z</time></trkpt><trkpt lat="42.9727864" lon="12.8101202"><ele>544.0</ele><time>2026-04-25T15:47:56.449Z</time></trkpt><trkpt lat="42.972712" lon="12.8099838"><ele>544.0</ele><time>2026-04-25T15:47:57.449Z</time></trkpt><trkpt lat="42.9726396" lon="12.8098608"><ele>545.8</ele><time>2026-04-25T15:47:58.448Z</time></trkpt><trkpt lat="42.9725664" lon="12.8097499"><ele>547.5999999999999</ele><time>2026-04-25T15:47:59.448Z</time></trkpt><trkpt lat="42.9724946" lon="12.8096529"><ele>549.4</ele><time>2026-04-25T15:48:00.449Z</time></trkpt><trkpt lat="42.9724295" lon="12.809558"><ele>551.1999999999999</ele><time>2026-04-25T15:48:01.448Z</time></trkpt><trkpt lat="42.9723697" lon="12.8094643"><ele>553.0</ele><time>2026-04-25T15:48:02.448Z</time></trkpt><trkpt lat="42.9723238" lon="12.8093589"><ele>548.8</ele><time>2026-04-25T15:48:03.448Z</time></trkpt><trkpt lat="42.9722938" lon="12.8092523"><ele>544.5999999999999</ele><time>2026-04-25T15:48:04.448Z</time></trkpt><trkpt lat="42.9723115" lon="12.8091255"><ele>540.4000000000001</ele><time>2026-04-25T15:48:05.449Z</time></trkpt><trkpt lat="42.9723298" lon="12.8090001"><ele>536.2</ele><time>2026-04-25T15:48:06.448Z</time></trkpt><trkpt lat="42.9723557" lon="12.8088571"><ele>532.0</ele><time>2026-04-25T15:48:07.448Z</time></trkpt><trkpt lat="42.9724017" lon="12.8087012"><ele>532.0</ele><time>2026-04-25T15:48:08.448Z</time></trkpt><trkpt lat="42.9724638" lon="12.8085333"><ele>532.0</ele><time>2026-04-25T15:48:09.448Z</time></trkpt><trkpt lat="42.9725264" lon="12.8083576"><ele>532.0</ele><time>2026-04-25T15:48:10.448Z</time></trkpt><trkpt lat="42.9725905" lon="12.8081838"><ele>532.0</ele><time>2026-04-25T15:48:11.448Z</time></trkpt><trkpt lat="42.9726589" lon="12.8080019"><ele>530.6666666666667</ele><time>2026-04-25T15:48:12.448Z</time></trkpt><trkpt lat="42.9727378" lon="12.8078268"><ele>529.3333333333334</ele><time>2026-04-25T15:48:13.449Z</time></trkpt><trkpt lat="42.9728162" lon="12.8076559"><ele>528.0</ele><time>2026-04-25T15:48:14.448Z</time></trkpt><trkpt lat="42.9729204" lon="12.8074718"><ele>528.0</ele><time>2026-04-25T15:48:15.448Z</time></trkpt><trkpt lat="42.9730211" lon="12.8072944"><ele>528.0</ele><time>2026-04-25T15:48:16.449Z</time></trkpt><trkpt lat="42.9731394" lon="12.8071177"><ele>528.0</ele><time>2026-04-25T15:48:17.448Z</time></trkpt><trkpt lat="42.9732578" lon="12.8069446"><ele>529.0</ele><time>2026-04-25T15:48:18.449Z</time></trkpt><trkpt lat="42.9733685" lon="12.8067794"><ele>530.0</ele><time>2026-04-25T15:48:19.448Z</time></trkpt><trkpt lat="42.9734813" lon="12.8066244"><ele>531.0</ele><time>2026-04-25T15:48:20.449Z</time></trkpt><trkpt lat="42.9735962" lon="12.8064831"><ele>531.0</ele><time>2026-04-25T15:48:21.449Z</time></trkpt><trkpt lat="42.9737103" lon="12.8063394"><ele>531.0</ele><time>2026-04-25T15:48:22.448Z</time></trkpt><trkpt lat="42.9738376" lon="12.8062011"><ele>531.0</ele><time>2026-04-25T15:48:23.448Z</time></trkpt><trkpt lat="42.9739722" lon="12.8060824"><ele>528.6666666666666</ele><time>2026-04-25T15:48:24.448Z</time></trkpt><trkpt lat="42.9741031" lon="12.8059779"><ele>526.3333333333333</ele><time>2026-04-25T15:48:25.448Z</time></trkpt><trkpt lat="42.9742436" lon="12.8058899"><ele>524.0</ele><time>2026-04-25T15:48:26.448Z</time></trkpt><trkpt lat="42.9743856" lon="12.805806"><ele>524.0</ele><time>2026-04-25T15:48:27.449Z</time></trkpt><trkpt lat="42.9745253" lon="12.8057292"><ele>524.0</ele><time>2026-04-25T15:48:28.448Z</time></trkpt><trkpt lat="42.974667" lon="12.8056471"><ele>524.0</ele><time>2026-04-25T15:48:29.448Z</time></trkpt><trkpt lat="42.9748019" lon="12.8055667"><ele>524.0</ele><time>2026-04-25T15:48:30.449Z</time></trkpt><trkpt lat="42.9749379" lon="12.8054634"><ele>524.0</ele><time>2026-04-25T15:48:31.448Z</time></trkpt><trkpt lat="42.9750657" lon="12.8053552"><ele>524.0</ele><time>2026-04-25T15:48:32.448Z</time></trkpt><trkpt lat="42.9751854" lon="12.8052298"><ele>528.0</ele><time>2026-04-25T15:48:33.448Z</time></trkpt><trkpt lat="42.9752988" lon="12.8050862"><ele>532.0</ele><time>2026-04-25T15:48:34.448Z</time></trkpt><trkpt lat="42.9754069" lon="12.8049232"><ele>536.0</ele><time>2026-04-25T15:48:35.448Z</time></trkpt><trkpt lat="42.9755062" lon="12.8047496"><ele>536.0</ele><time>2026-04-25T15:48:36.448Z</time></trkpt><trkpt lat="42.9756017" lon="12.8045457"><ele>536.0</ele><time>2026-04-25T15:48:37.449Z</time></trkpt><trkpt lat="42.9757036" lon="12.8043406"><ele>536.0</ele><time>2026-04-25T15:48:38.448Z</time></trkpt><trkpt lat="42.9758104" lon="12.8041103"><ele>537.0</ele><time>2026-04-25T15:48:39.448Z</time></trkpt><trkpt lat="42.9759247" lon="12.8038722"><ele>538.0</ele><time>2026-04-25T15:48:40.449Z</time></trkpt><trkpt lat="42.976035" lon="12.8036239"><ele>539.0</ele><time>2026-04-25T15:48:41.449Z</time></trkpt><trkpt lat="42.9761449" lon="12.8033746"><ele>539.0</ele><time>2026-04-25T15:48:42.448Z</time></trkpt><trkpt lat="42.9762518" lon="12.8031289"><ele>539.0</ele><time>2026-04-25T15:48:43.448Z</time></trkpt><trkpt lat="42.9763708" lon="12.8028763"><ele>539.0</ele><time>2026-04-25T15:48:44.448Z</time></trkpt><trkpt lat="42.9764868" lon="12.8026308"><ele>542.3333333333333</ele><time>2026-04-25T15:48:45.448Z</time></trkpt><trkpt lat="42.9766029" lon="12.8023734"><ele>545.6666666666666</ele><time>2026-04-25T15:48:46.448Z</time></trkpt><trkpt lat="42.976722" lon="12.8021201"><ele>549.0</ele><time>2026-04-25T15:48:47.448Z</time></trkpt><trkpt lat="42.9768385" lon="12.8018757"><ele>541.0</ele><time>2026-04-25T15:48:48.448Z</time></trkpt><trkpt lat="42.9769564" lon="12.8016267"><ele>533.0</ele><time>2026-04-25T15:48:49.448Z</time></trkpt><trkpt lat="42.9770764" lon="12.8013727"><ele>525.0</ele><time>2026-04-25T15:48:50.448Z</time></trkpt><trkpt lat="42.9771934" lon="12.801115"><ele>525.6666666666666</ele><time>2026-04-25T15:48:51.448Z</time></trkpt><trkpt lat="42.9772973" lon="12.800855"><ele>526.3333333333333</ele><time>2026-04-25T15:48:52.448Z</time></trkpt><trkpt lat="42.9774072" lon="12.8005947"><ele>527.0</ele><time>2026-04-25T15:48:53.448Z</time></trkpt><trkpt lat="42.9775222" lon="12.8003469"><ele>523.0</ele><time>2026-04-25T15:48:54.448Z</time></trkpt><trkpt lat="42.977634" lon="12.8001023"><ele>519.0</ele><time>2026-04-25T15:48:55.449Z</time></trkpt><trkpt lat="42.9777376" lon="12.7998617"><ele>515.0</ele><time>2026-04-25T15:48:56.448Z</time></trkpt><trkpt lat="42.9778437" lon="12.7996331"><ele>515.0</ele><time>2026-04-25T15:48:57.448Z</time></trkpt><trkpt lat="42.9779393" lon="12.799419"><ele>515.0</ele><time>2026-04-25T15:48:58.449Z</time></trkpt><trkpt lat="42.9780361" lon="12.7992016"><ele>515.0</ele><time>2026-04-25T15:48:59.448Z</time></trkpt><trkpt lat="42.978129" lon="12.7989779"><ele>517.0</ele><time>2026-04-25T15:49:00.448Z</time></trkpt><trkpt lat="42.9782171" lon="12.7987424"><ele>519.0</ele><time>2026-04-25T15:49:01.448Z</time></trkpt><trkpt lat="42.9782986" lon="12.7984957"><ele>521.0</ele><time>2026-04-25T15:49:02.448Z</time></trkpt><trkpt lat="42.9783625" lon="12.7982473"><ele>521.0</ele><time>2026-04-25T15:49:03.448Z</time></trkpt><trkpt lat="42.9784127" lon="12.797988"><ele>521.0</ele><time>2026-04-25T15:49:04.448Z</time></trkpt><trkpt lat="42.9784657" lon="12.797732"><ele>521.0</ele><time>2026-04-25T15:49:05.448Z</time></trkpt><trkpt lat="42.9785107" lon="12.7974596"><ele>523.6666666666666</ele><time>2026-04-25T15:49:06.449Z</time></trkpt><trkpt lat="42.978562" lon="12.7971979"><ele>526.3333333333334</ele><time>2026-04-25T15:49:07.448Z</time></trkpt><trkpt lat="42.9785969" lon="12.7969306"><ele>529.0</ele><time>2026-04-25T15:49:08.449Z</time></trkpt><trkpt lat="42.9786375" lon="12.7966659"><ele>529.6666666666667</ele><time>2026-04-25T15:49:09.448Z</time></trkpt><trkpt lat="42.978678" lon="12.7964058"><ele>530.3333333333334</ele><time>2026-04-25T15:49:10.449Z</time></trkpt><trkpt lat="42.9787216" lon="12.7961663"><ele>531.0</ele><time>2026-04-25T15:49:11.448Z</time></trkpt><trkpt lat="42.978765" lon="12.7959323"><ele>531.0</ele><time>2026-04-25T15:49:12.448Z</time></trkpt><trkpt lat="42.9788133" lon="12.7957076"><ele>531.0</ele><time>2026-04-25T15:49:13.448Z</time></trkpt><trkpt lat="42.9788476" lon="12.7954801"><ele>531.0</ele><time>2026-04-25T15:49:14.448Z</time></trkpt><trkpt lat="42.9788706" lon="12.7952499"><ele>530.6666666666666</ele><time>2026-04-25T15:49:15.448Z</time></trkpt><trkpt lat="42.9788588" lon="12.7950133"><ele>530.3333333333333</ele><time>2026-04-25T15:49:16.448Z</time></trkpt><trkpt lat="42.9788338" lon="12.7947702"><ele>530.0</ele><time>2026-04-25T15:49:17.448Z</time></trkpt><trkpt lat="42.9787932" lon="12.7945198"><ele>533.0</ele><time>2026-04-25T15:49:18.448Z</time></trkpt><trkpt lat="42.9787466" lon="12.7942897"><ele>536.0</ele><time>2026-04-25T15:49:19.448Z</time></trkpt><trkpt lat="42.97869" lon="12.7940806"><ele>539.0</ele><time>2026-04-25T15:49:20.449Z</time></trkpt><trkpt lat="42.9786086" lon="12.7938968"><ele>539.0</ele><time>2026-04-25T15:49:21.448Z</time></trkpt><trkpt lat="42.9785167" lon="12.7937319"><ele>539.0</ele><time>2026-04-25T15:49:22.449Z</time></trkpt><trkpt lat="42.9784266" lon="12.7935737"><ele>539.0</ele><time>2026-04-25T15:49:23.448Z</time></trkpt><trkpt lat="42.9783516" lon="12.793408"><ele>539.0</ele><time>2026-04-25T15:49:24.448Z</time></trkpt><trkpt lat="42.9782976" lon="12.7932259"><ele>539.25</ele><time>2026-04-25T15:49:25.448Z</time></trkpt><trkpt lat="42.9782643" lon="12.7930488"><ele>539.5</ele><time>2026-04-25T15:49:26.448Z</time></trkpt><trkpt lat="42.9782586" lon="12.7928622"><ele>539.75</ele><time>2026-04-25T15:49:27.448Z</time></trkpt><trkpt lat="42.97826" lon="12.7926682"><ele>540.0</ele><time>2026-04-25T15:49:28.448Z</time></trkpt><trkpt lat="42.9783769" lon="12.7925173"><ele>540.0</ele><time>2026-04-25T15:49:29.448Z</time></trkpt><trkpt lat="42.9784625" lon="12.7923549"><ele>540.0</ele><time>2026-04-25T15:49:30.448Z</time></trkpt><trkpt lat="42.9785518" lon="12.7921833"><ele>540.0</ele><time>2026-04-25T15:49:31.448Z</time></trkpt><trkpt lat="42.978662" lon="12.7919973"><ele>531.0</ele><time>2026-04-25T15:49:32.448Z</time></trkpt><trkpt lat="42.9787651" lon="12.7917969"><ele>522.0</ele><time>2026-04-25T15:49:33.449Z</time></trkpt><trkpt lat="42.9788827" lon="12.7915802"><ele>513.0</ele><time>2026-04-25T15:49:34.448Z</time></trkpt><trkpt lat="42.9790118" lon="12.7913525"><ele>513.0</ele><time>2026-04-25T15:49:35.448Z</time></trkpt><trkpt lat="42.9791473" lon="12.7911117"><ele>513.0</ele><time>2026-04-25T15:49:36.449Z</time></trkpt><trkpt lat="42.9792729" lon="12.7908635"><ele>513.0</ele><time>2026-04-25T15:49:37.448Z</time></trkpt><trkpt lat="42.9794056" lon="12.7906319"><ele>515.0</ele><time>2026-04-25T15:49:38.449Z</time></trkpt><trkpt lat="42.979529" lon="12.790392"><ele>517.0</ele><time>2026-04-25T15:49:39.449Z</time></trkpt><trkpt lat="42.9796465" lon="12.7901547"><ele>519.0</ele><time>2026-04-25T15:49:40.448Z</time></trkpt><trkpt lat="42.9797678" lon="12.7899147"><ele>519.0</ele><time>2026-04-25T15:49:41.448Z</time></trkpt><trkpt lat="42.9798687" lon="12.7896545"><ele>519.0</ele><time>2026-04-25T15:49:42.448Z</time></trkpt><trkpt lat="42.9799604" lon="12.789388"><ele>519.0</ele><time>2026-04-25T15:49:43.448Z</time></trkpt><trkpt lat="42.9800504" lon="12.7891238"><ele>520.3333333333334</ele><time>2026-04-25T15:49:44.448Z</time></trkpt><trkpt lat="42.9801385" lon="12.7888766"><ele>521.6666666666667</ele><time>2026-04-25T15:49:45.448Z</time></trkpt><trkpt lat="42.9802228" lon="12.7886241"><ele>523.0</ele><time>2026-04-25T15:49:46.448Z</time></trkpt><trkpt lat="42.9803132" lon="12.7883829"><ele>523.0</ele><time>2026-04-25T15:49:47.448Z</time></trkpt><trkpt lat="42.9804155" lon="12.7881574"><ele>523.0</ele><time>2026-04-25T15:49:48.448Z</time></trkpt><trkpt lat="42.9805228" lon="12.7879383"><ele>523.0</ele><time>2026-04-25T15:49:49.448Z</time></trkpt><trkpt lat="42.9806349" lon="12.7877208"><ele>526.0</ele><time>2026-04-25T15:49:50.449Z</time></trkpt><trkpt lat="42.9807427" lon="12.7875068"><ele>529.0</ele><time>2026-04-25T15:49:51.448Z</time></trkpt><trkpt lat="42.9808457" lon="12.7872983"><ele>532.0</ele><time>2026-04-25T15:49:52.448Z</time></trkpt><trkpt lat="42.98093" lon="12.7870943"><ele>532.0</ele><time>2026-04-25T15:49:53.448Z</time></trkpt><trkpt lat="42.9810102" lon="12.7868942"><ele>532.0</ele><time>2026-04-25T15:49:54.449Z</time></trkpt><trkpt lat="42.9810662" lon="12.786688"><ele>532.0</ele><time>2026-04-25T15:49:55.449Z</time></trkpt><trkpt lat="42.9811175" lon="12.7864772"><ele>524.3333333333334</ele><time>2026-04-25T15:49:56.449Z</time></trkpt><trkpt lat="42.9811502" lon="12.7862709"><ele>516.6666666666666</ele><time>2026-04-25T15:49:57.448Z</time></trkpt><trkpt lat="42.9811776" lon="12.7860594"><ele>509.0</ele><time>2026-04-25T15:49:58.448Z</time></trkpt><trkpt lat="42.9811933" lon="12.7858518"><ele>506.66666666666663</ele><time>2026-04-25T15:49:59.448Z</time></trkpt><trkpt lat="42.9811901" lon="12.7856436"><ele>504.33333333333337</ele><time>2026-04-25T15:50:00.449Z</time></trkpt><trkpt lat="42.9811832" lon="12.7854411"><ele>502.0</ele><time>2026-04-25T15:50:01.448Z</time></trkpt><trkpt lat="42.9811491" lon="12.7852417"><ele>501.25</ele><time>2026-04-25T15:50:02.448Z</time></trkpt><trkpt lat="42.9811097" lon="12.7850706"><ele>500.5</ele><time>2026-04-25T15:50:03.448Z</time></trkpt><trkpt lat="42.981045" lon="12.7848994"><ele>499.75</ele><time>2026-04-25T15:50:04.448Z</time></trkpt><trkpt lat="42.9809612" lon="12.7847383"><ele>499.0</ele><time>2026-04-25T15:50:05.448Z</time></trkpt><trkpt lat="42.980861" lon="12.7845886"><ele>498.0</ele><time>2026-04-25T15:50:06.448Z</time></trkpt><trkpt lat="42.9807467" lon="12.7844322"><ele>497.0</ele><time>2026-04-25T15:50:07.448Z</time></trkpt><trkpt lat="42.9806194" lon="12.7842828"><ele>496.0</ele><time>2026-04-25T15:50:08.448Z</time></trkpt><trkpt lat="42.9804706" lon="12.784116"><ele>495.6666666666667</ele><time>2026-04-25T15:50:09.448Z</time></trkpt><trkpt lat="42.9803182" lon="12.7839603"><ele>495.33333333333337</ele><time>2026-04-25T15:50:10.448Z</time></trkpt><trkpt lat="42.9801706" lon="12.7838125"><ele>495.0</ele><time>2026-04-25T15:50:11.448Z</time></trkpt><trkpt lat="42.9800329" lon="12.7836678"><ele>495.0</ele><time>2026-04-25T15:50:12.449Z</time></trkpt><trkpt lat="42.9799132" lon="12.7835268"><ele>495.0</ele><time>2026-04-25T15:50:13.448Z</time></trkpt><trkpt lat="42.9798148" lon="12.783382"><ele>495.0</ele><time>2026-04-25T15:50:14.448Z</time></trkpt><trkpt lat="42.9797427" lon="12.783232"><ele>495.0</ele><time>2026-04-25T15:50:15.449Z</time></trkpt><trkpt lat="42.9796927" lon="12.7830618"><ele>494.33333333333337</ele><time>2026-04-25T15:50:16.448Z</time></trkpt><trkpt lat="42.9796609" lon="12.7828637"><ele>493.6666666666667</ele><time>2026-04-25T15:50:17.448Z</time></trkpt><trkpt lat="42.9796414" lon="12.7826522"><ele>493.0</ele><time>2026-04-25T15:50:18.448Z</time></trkpt><trkpt lat="42.9796332" lon="12.7824336"><ele>493.0</ele><time>2026-04-25T15:50:19.448Z</time></trkpt><trkpt lat="42.9796399" lon="12.782214"><ele>493.0</ele><time>2026-04-25T15:50:20.448Z</time></trkpt><trkpt lat="42.9796616" lon="12.7820006"><ele>493.0</ele><time>2026-04-25T15:50:21.448Z</time></trkpt><trkpt lat="42.9796972" lon="12.781776"><ele>494.0</ele><time>2026-04-25T15:50:22.449Z</time></trkpt><trkpt lat="42.9797493" lon="12.7815487"><ele>495.0</ele><time>2026-04-25T15:50:23.448Z</time></trkpt><trkpt lat="42.9798055" lon="12.781328"><ele>496.0</ele><time>2026-04-25T15:50:24.448Z</time></trkpt><trkpt lat="42.9798682" lon="12.7811125"><ele>497.0</ele><time>2026-04-25T15:50:25.448Z</time></trkpt><trkpt lat="42.979944" lon="12.7809104"><ele>498.0</ele><time>2026-04-25T15:50:26.448Z</time></trkpt><trkpt lat="42.9800422" lon="12.7807224"><ele>499.0</ele><time>2026-04-25T15:50:27.448Z</time></trkpt><trkpt lat="42.980157" lon="12.7805542"><ele>496.33333333333337</ele><time>2026-04-25T15:50:28.448Z</time></trkpt><trkpt lat="42.9802855" lon="12.7803982"><ele>493.66666666666663</ele><time>2026-04-25T15:50:29.448Z</time></trkpt><trkpt lat="42.9804046" lon="12.7802343"><ele>491.0</ele><time>2026-04-25T15:50:30.448Z</time></trkpt><trkpt lat="42.9805164" lon="12.7800642"><ele>491.0</ele><time>2026-04-25T15:50:31.448Z</time></trkpt><trkpt lat="42.9806082" lon="12.779864"><ele>491.0</ele><time>2026-04-25T15:50:32.448Z</time></trkpt><trkpt lat="42.9806965" lon="12.7796508"><ele>491.0</ele><time>2026-04-25T15:50:33.449Z</time></trkpt><trkpt lat="42.9807769" lon="12.7794234"><ele>489.3333333333333</ele><time>2026-04-25T15:50:34.449Z</time></trkpt><trkpt lat="42.9808591" lon="12.7791923"><ele>487.66666666666663</ele><time>2026-04-25T15:50:35.448Z</time></trkpt><trkpt lat="42.9809388" lon="12.7789589"><ele>486.0</ele><time>2026-04-25T15:50:36.448Z</time></trkpt><trkpt lat="42.9810178" lon="12.7787268"><ele>486.66666666666663</ele><time>2026-04-25T15:50:37.448Z</time></trkpt><trkpt lat="42.9810764" lon="12.778485"><ele>487.3333333333333</ele><time>2026-04-25T15:50:38.448Z</time></trkpt><trkpt lat="42.9811186" lon="12.7782382"><ele>488.0</ele><time>2026-04-25T15:50:39.448Z</time></trkpt><trkpt lat="42.9811458" lon="12.777989"><ele>488.0</ele><time>2026-04-25T15:50:40.449Z</time></trkpt><trkpt lat="42.9811685" lon="12.7777364"><ele>488.0</ele><time>2026-04-25T15:50:41.449Z</time></trkpt><trkpt lat="42.981184" lon="12.7774846"><ele>488.0</ele><time>2026-04-25T15:50:42.448Z</time></trkpt><trkpt lat="42.9811945" lon="12.7772346"><ele>488.0</ele><time>2026-04-25T15:50:43.448Z</time></trkpt><trkpt lat="42.9812212" lon="12.7770039"><ele>488.0</ele><time>2026-04-25T15:50:44.449Z</time></trkpt><trkpt lat="42.9812549" lon="12.7767808"><ele>488.0</ele><time>2026-04-25T15:50:45.448Z</time></trkpt><trkpt lat="42.9812989" lon="12.7765673"><ele>488.0</ele><time>2026-04-25T15:50:46.448Z</time></trkpt><trkpt lat="42.9813495" lon="12.7763549"><ele>488.0</ele><time>2026-04-25T15:50:47.448Z</time></trkpt><trkpt lat="42.9813989" lon="12.7761576"><ele>488.0</ele><time>2026-04-25T15:50:48.448Z</time></trkpt><trkpt lat="42.9814288" lon="12.7759594"><ele>488.25</ele><time>2026-04-25T15:50:49.448Z</time></trkpt><trkpt lat="42.9814483" lon="12.7757658"><ele>488.5</ele><time>2026-04-25T15:50:50.448Z</time></trkpt><trkpt lat="42.9814338" lon="12.775553"><ele>488.75</ele><time>2026-04-25T15:50:51.448Z</time></trkpt><trkpt lat="42.9814052" lon="12.7753634"><ele>489.0</ele><time>2026-04-25T15:50:52.448Z</time></trkpt><trkpt lat="42.9813628" lon="12.7751925"><ele>487.75</ele><time>2026-04-25T15:50:53.449Z</time></trkpt><trkpt lat="42.9813086" lon="12.7750369"><ele>486.5</ele><time>2026-04-25T15:50:54.448Z</time></trkpt><trkpt lat="42.9812617" lon="12.7748861"><ele>485.25</ele><time>2026-04-25T15:50:55.448Z</time></trkpt><trkpt lat="42.9812079" lon="12.7747366"><ele>484.0</ele><time>2026-04-25T15:50:56.449Z</time></trkpt><trkpt lat="42.9811392" lon="12.7745873"><ele>484.0</ele><time>2026-04-25T15:50:57.448Z</time></trkpt><trkpt lat="42.9810588" lon="12.7744553"><ele>484.0</ele><time>2026-04-25T15:50:58.448Z</time></trkpt><trkpt lat="42.9809628" lon="12.7743299"><ele>484.0</ele><time>2026-04-25T15:50:59.448Z</time></trkpt><trkpt lat="42.9808327" lon="12.7742204"><ele>484.0</ele><time>2026-04-25T15:51:00.448Z</time></trkpt><trkpt lat="42.9806892" lon="12.7740963"><ele>484.6666666666667</ele><time>2026-04-25T15:51:01.448Z</time></trkpt><trkpt lat="42.9805282" lon="12.7739649"><ele>485.33333333333337</ele><time>2026-04-25T15:51:02.448Z</time></trkpt><trkpt lat="42.9803686" lon="12.7738109"><ele>486.0</ele><time>2026-04-25T15:51:03.449Z</time></trkpt><trkpt lat="42.9802089" lon="12.7736582"><ele>486.66666666666663</ele><time>2026-04-25T15:51:04.448Z</time></trkpt><trkpt lat="42.9800593" lon="12.7735103"><ele>487.3333333333333</ele><time>2026-04-25T15:51:05.448Z</time></trkpt><trkpt lat="42.9799162" lon="12.7733558"><ele>488.0</ele><time>2026-04-25T15:51:06.448Z</time></trkpt><trkpt lat="42.9797925" lon="12.7732089"><ele>488.0</ele><time>2026-04-25T15:51:07.449Z</time></trkpt><trkpt lat="42.9796911" lon="12.7730574"><ele>488.0</ele><time>2026-04-25T15:51:08.448Z</time></trkpt><trkpt lat="42.9796175" lon="12.7728977"><ele>488.0</ele><time>2026-04-25T15:51:09.448Z</time></trkpt><trkpt lat="42.9795666" lon="12.7727393"><ele>488.0</ele><time>2026-04-25T15:51:10.448Z</time></trkpt><trkpt lat="42.9795579" lon="12.7725851"><ele>484.0</ele><time>2026-04-25T15:51:11.448Z</time></trkpt><trkpt lat="42.9795832" lon="12.7724381"><ele>480.0</ele><time>2026-04-25T15:51:12.448Z</time></trkpt><trkpt lat="42.9796366" lon="12.7722926"><ele>476.0</ele><time>2026-04-25T15:51:13.448Z</time></trkpt><trkpt lat="42.979707" lon="12.7721518"><ele>472.0</ele><time>2026-04-25T15:51:14.448Z</time></trkpt><trkpt lat="42.979769" lon="12.7719857"><ele>471.75</ele><time>2026-04-25T15:51:15.449Z</time></trkpt><trkpt lat="42.979814" lon="12.7718022"><ele>471.5</ele><time>2026-04-25T15:51:16.448Z</time></trkpt><trkpt lat="42.9798569" lon="12.7716227"><ele>471.25</ele><time>2026-04-25T15:51:17.448Z</time></trkpt><trkpt lat="42.9798759" lon="12.7714511"><ele>471.0</ele><time>2026-04-25T15:51:18.448Z</time></trkpt><trkpt lat="42.9798645" lon="12.7712833"><ele>471.0</ele><time>2026-04-25T15:51:19.448Z</time></trkpt><trkpt lat="42.9798187" lon="12.771121"><ele>471.0</ele><time>2026-04-25T15:51:20.448Z</time></trkpt><trkpt lat="42.9797451" lon="12.7709594"><ele>471.0</ele><time>2026-04-25T15:51:21.448Z</time></trkpt><trkpt lat="42.9796534" lon="12.7707908"><ele>471.0</ele><time>2026-04-25T15:51:22.448Z</time></trkpt><trkpt lat="42.9795526" lon="12.770612"><ele>469.33333333333337</ele><time>2026-04-25T15:51:23.448Z</time></trkpt><trkpt lat="42.9794483" lon="12.7704311"><ele>467.6666666666667</ele><time>2026-04-25T15:51:24.448Z</time></trkpt><trkpt lat="42.9793343" lon="12.770237"><ele>466.0</ele><time>2026-04-25T15:51:25.448Z</time></trkpt><trkpt lat="42.9792218" lon="12.770051"><ele>471.6666666666667</ele><time>2026-04-25T15:51:26.448Z</time></trkpt><trkpt lat="42.979109" lon="12.76986"><ele>477.33333333333337</ele><time>2026-04-25T15:51:27.449Z</time></trkpt><trkpt lat="42.978995" lon="12.7696857"><ele>483.0</ele><time>2026-04-25T15:51:28.448Z</time></trkpt><trkpt lat="42.9788777" lon="12.7695268"><ele>483.0</ele><time>2026-04-25T15:51:29.448Z</time></trkpt><trkpt lat="42.978753" lon="12.769378"><ele>483.0</ele><time>2026-04-25T15:51:30.448Z</time></trkpt><trkpt lat="42.9786375" lon="12.7692293"><ele>483.0</ele><time>2026-04-25T15:51:31.449Z</time></trkpt><trkpt lat="42.9785403" lon="12.7690693"><ele>484.0</ele><time>2026-04-25T15:51:32.448Z</time></trkpt><trkpt lat="42.9784588" lon="12.768907"><ele>485.0</ele><time>2026-04-25T15:51:33.448Z</time></trkpt><trkpt lat="42.978393" lon="12.7687486"><ele>486.0</ele><time>2026-04-25T15:51:34.449Z</time></trkpt><trkpt lat="42.9783351" lon="12.7685922"><ele>487.0</ele><time>2026-04-25T15:51:35.448Z</time></trkpt><trkpt lat="42.9782648" lon="12.7684537"><ele>480.5</ele><time>2026-04-25T15:51:36.448Z</time></trkpt><trkpt lat="42.978178" lon="12.7683385"><ele>474.0</ele><time>2026-04-25T15:51:37.448Z</time></trkpt><trkpt lat="42.9780817" lon="12.7682516"><ele>467.5</ele><time>2026-04-25T15:51:38.449Z</time></trkpt><trkpt lat="42.9779749" lon="12.7681867"><ele>461.0</ele><time>2026-04-25T15:51:39.448Z</time></trkpt><trkpt lat="42.9778645" lon="12.7681276"><ele>461.0</ele><time>2026-04-25T15:51:40.448Z</time></trkpt><trkpt lat="42.9777468" lon="12.7680794"><ele>461.0</ele><time>2026-04-25T15:51:41.448Z</time></trkpt><trkpt lat="42.9776356" lon="12.7680226"><ele>461.0</ele><time>2026-04-25T15:51:42.448Z</time></trkpt><trkpt lat="42.9775283" lon="12.7679702"><ele>461.0</ele><time>2026-04-25T15:51:43.448Z</time></trkpt><trkpt lat="42.9774238" lon="12.7679168"><ele>459.8</ele><time>2026-04-25T15:51:44.448Z</time></trkpt><trkpt lat="42.9773283" lon="12.7678682"><ele>458.6</ele><time>2026-04-25T15:51:45.448Z</time></trkpt><trkpt lat="42.9772337" lon="12.7678139"><ele>457.4</ele><time>2026-04-25T15:51:46.448Z</time></trkpt><trkpt lat="42.9771493" lon="12.767769"><ele>456.2</ele><time>2026-04-25T15:51:47.448Z</time></trkpt><trkpt lat="42.9770673" lon="12.7677222"><ele>455.0</ele><time>2026-04-25T15:51:48.448Z</time></trkpt><trkpt lat="42.9770007" lon="12.7676729"><ele>454.99999999999994</ele><time>2026-04-25T15:51:49.448Z</time></trkpt><trkpt lat="42.9769368" lon="12.7676292"><ele>455.0</ele><time>2026-04-25T15:51:50.448Z</time></trkpt><trkpt lat="42.9768678" lon="12.7675035"><ele>455.0</ele><time>2026-04-25T15:51:52.448Z</time></trkpt><trkpt lat="42.9768485" lon="12.7674172"><ele>455.0</ele><time>2026-04-25T15:51:53.449Z</time></trkpt><trkpt lat="42.9768432" lon="12.7673251"><ele>454.99999999999994</ele><time>2026-04-25T15:51:54.448Z</time></trkpt><trkpt lat="42.9768476" lon="12.7672047"><ele>455.0</ele><time>2026-04-25T15:51:55.449Z</time></trkpt><trkpt lat="42.9768586" lon="12.7670782"><ele>455.0</ele><time>2026-04-25T15:51:56.448Z</time></trkpt><trkpt lat="42.9768751" lon="12.7669459"><ele>455.0</ele><time>2026-04-25T15:51:57.448Z</time></trkpt><trkpt lat="42.9768908" lon="12.7667918"><ele>455.0</ele><time>2026-04-25T15:51:58.448Z</time></trkpt><trkpt lat="42.9769171" lon="12.766642"><ele>455.0</ele><time>2026-04-25T15:51:59.448Z</time></trkpt><trkpt lat="42.9769664" lon="12.7665165"><ele>455.0</ele><time>2026-04-25T15:52:00.448Z</time></trkpt><trkpt lat="42.9770401" lon="12.7664036"><ele>454.5</ele><time>2026-04-25T15:52:01.448Z</time></trkpt><trkpt lat="42.9771145" lon="12.7662892"><ele>454.0</ele><time>2026-04-25T15:52:02.448Z</time></trkpt><trkpt lat="42.9771918" lon="12.7661806"><ele>453.5</ele><time>2026-04-25T15:52:03.448Z</time></trkpt><trkpt lat="42.977288" lon="12.7660994"><ele>453.0</ele><time>2026-04-25T15:52:04.448Z</time></trkpt><trkpt lat="42.9773795" lon="12.76599"><ele>451.25</ele><time>2026-04-25T15:52:05.448Z</time></trkpt><trkpt lat="42.9774786" lon="12.765877"><ele>449.5</ele><time>2026-04-25T15:52:06.448Z</time></trkpt><trkpt lat="42.9775842" lon="12.7657595"><ele>447.75</ele><time>2026-04-25T15:52:07.448Z</time></trkpt><trkpt lat="42.977688" lon="12.76565"><ele>446.0</ele><time>2026-04-25T15:52:08.448Z</time></trkpt><trkpt lat="42.977813" lon="12.7655603"><ele>446.0</ele><time>2026-04-25T15:52:09.448Z</time></trkpt><trkpt lat="42.9779342" lon="12.7654721"><ele>446.0</ele><time>2026-04-25T15:52:10.448Z</time></trkpt><trkpt lat="42.9780639" lon="12.7654035"><ele>446.0</ele><time>2026-04-25T15:52:11.448Z</time></trkpt><trkpt lat="42.9781803" lon="12.765336"><ele>446.0</ele><time>2026-04-25T15:52:12.448Z</time></trkpt><trkpt lat="42.9783159" lon="12.765308"><ele>450.25</ele><time>2026-04-25T15:52:13.449Z</time></trkpt><trkpt lat="42.9784416" lon="12.7652775"><ele>454.5</ele><time>2026-04-25T15:52:14.448Z</time></trkpt><trkpt lat="42.9785469" lon="12.7652365"><ele>458.75</ele><time>2026-04-25T15:52:15.448Z</time></trkpt><trkpt lat="42.9786504" lon="12.7651858"><ele>463.0</ele><time>2026-04-25T15:52:16.448Z</time></trkpt><trkpt lat="42.9787604" lon="12.7651543"><ele>463.0</ele><time>2026-04-25T15:52:17.448Z</time></trkpt><trkpt lat="42.9788667" lon="12.7651265"><ele>462.99999999999994</ele><time>2026-04-25T15:52:18.448Z</time></trkpt><trkpt lat="42.9789775" lon="12.7650827"><ele>462.99999999999994</ele><time>2026-04-25T15:52:19.448Z</time></trkpt><trkpt lat="42.9790711" lon="12.7650246"><ele>463.0</ele><time>2026-04-25T15:52:20.448Z</time></trkpt><trkpt lat="42.9791559" lon="12.7649537"><ele>463.0</ele><time>2026-04-25T15:52:21.448Z</time></trkpt><trkpt lat="42.9792323" lon="12.7648812"><ele>456.2</ele><time>2026-04-25T15:52:22.448Z</time></trkpt><trkpt lat="42.9792896" lon="12.7647839"><ele>449.4</ele><time>2026-04-25T15:52:23.448Z</time></trkpt><trkpt lat="42.9793291" lon="12.7646647"><ele>442.59999999999997</ele><time>2026-04-25T15:52:24.448Z</time></trkpt><trkpt lat="42.9793541" lon="12.7645457"><ele>435.79999999999995</ele><time>2026-04-25T15:52:25.448Z</time></trkpt><trkpt lat="42.9793628" lon="12.7644054"><ele>429.0</ele><time>2026-04-25T15:52:26.449Z</time></trkpt><trkpt lat="42.979352" lon="12.7642554"><ele>429.0</ele><time>2026-04-25T15:52:27.448Z</time></trkpt><trkpt lat="42.9793269" lon="12.7641058"><ele>429.0</ele><time>2026-04-25T15:52:28.449Z</time></trkpt><trkpt lat="42.9792937" lon="12.7639508"><ele>429.0</ele><time>2026-04-25T15:52:29.448Z</time></trkpt><trkpt lat="42.9792576" lon="12.7637877"><ele>429.0</ele><time>2026-04-25T15:52:30.448Z</time></trkpt><trkpt lat="42.979216" lon="12.7636307"><ele>439.25</ele><time>2026-04-25T15:52:31.448Z</time></trkpt><trkpt lat="42.9791748" lon="12.7634743"><ele>449.5</ele><time>2026-04-25T15:52:32.448Z</time></trkpt><trkpt lat="42.9791379" lon="12.7633143"><ele>459.75</ele><time>2026-04-25T15:52:33.448Z</time></trkpt><trkpt lat="42.9791006" lon="12.7631441"><ele>470.0</ele><time>2026-04-25T15:52:34.448Z</time></trkpt><trkpt lat="42.9790714" lon="12.762973"><ele>470.0</ele><time>2026-04-25T15:52:35.448Z</time></trkpt><trkpt lat="42.9790479" lon="12.7627955"><ele>470.0</ele><time>2026-04-25T15:52:36.448Z</time></trkpt><trkpt lat="42.9790302" lon="12.7626066"><ele>470.0</ele><time>2026-04-25T15:52:37.449Z</time></trkpt><trkpt lat="42.9790131" lon="12.7624084"><ele>470.0</ele><time>2026-04-25T15:52:38.448Z</time></trkpt><trkpt lat="42.978992" lon="12.7621958"><ele>466.3333333333333</ele><time>2026-04-25T15:52:39.449Z</time></trkpt><trkpt lat="42.9789689" lon="12.7619802"><ele>462.66666666666663</ele><time>2026-04-25T15:52:40.448Z</time></trkpt><trkpt lat="42.978949" lon="12.7617669"><ele>459.0</ele><time>2026-04-25T15:52:41.449Z</time></trkpt><trkpt lat="42.9789305" lon="12.7615639"><ele>456.66666666666663</ele><time>2026-04-25T15:52:42.448Z</time></trkpt><trkpt lat="42.9789175" lon="12.7613575"><ele>454.3333333333333</ele><time>2026-04-25T15:52:43.448Z</time></trkpt><trkpt lat="42.9788978" lon="12.7611475"><ele>452.0</ele><time>2026-04-25T15:52:44.448Z</time></trkpt><trkpt lat="42.9788799" lon="12.7609282"><ele>449.0</ele><time>2026-04-25T15:52:45.448Z</time></trkpt><trkpt lat="42.9788659" lon="12.7607102"><ele>446.0</ele><time>2026-04-25T15:52:46.448Z</time></trkpt><trkpt lat="42.9788531" lon="12.7604957"><ele>443.0</ele><time>2026-04-25T15:52:47.448Z</time></trkpt><trkpt lat="42.9788345" lon="12.7602883"><ele>441.0</ele><time>2026-04-25T15:52:48.448Z</time></trkpt><trkpt lat="42.978826" lon="12.7600871"><ele>439.0</ele><time>2026-04-25T15:52:49.449Z</time></trkpt><trkpt lat="42.9788102" lon="12.7599022"><ele>437.0</ele><time>2026-04-25T15:52:50.448Z</time></trkpt><trkpt lat="42.9787903" lon="12.7597208"><ele>435.0</ele><time>2026-04-25T15:52:51.448Z</time></trkpt><trkpt lat="42.9787722" lon="12.7595363"><ele>433.75</ele><time>2026-04-25T15:52:52.449Z</time></trkpt><trkpt lat="42.9787487" lon="12.7593605"><ele>432.5</ele><time>2026-04-25T15:52:53.448Z</time></trkpt><trkpt lat="42.9787048" lon="12.7591816"><ele>431.25</ele><time>2026-04-25T15:52:54.448Z</time></trkpt><trkpt lat="42.9786452" lon="12.7590007"><ele>430.0</ele><time>2026-04-25T15:52:55.448Z</time></trkpt><trkpt lat="42.9785709" lon="12.7588225"><ele>430.0</ele><time>2026-04-25T15:52:56.448Z</time></trkpt><trkpt lat="42.9784862" lon="12.7586475"><ele>430.0</ele><time>2026-04-25T15:52:57.448Z</time></trkpt><trkpt lat="42.9783935" lon="12.758478"><ele>430.0</ele><time>2026-04-25T15:52:58.448Z</time></trkpt><trkpt lat="42.9782974" lon="12.7583093"><ele>440.6666666666667</ele><time>2026-04-25T15:52:59.448Z</time></trkpt><trkpt lat="42.978203" lon="12.7581491"><ele>451.33333333333337</ele><time>2026-04-25T15:53:00.449Z</time></trkpt><trkpt lat="42.9781052" lon="12.7579831"><ele>462.0</ele><time>2026-04-25T15:53:01.448Z</time></trkpt><trkpt lat="42.9780062" lon="12.7578248"><ele>458.0</ele><time>2026-04-25T15:53:02.448Z</time></trkpt><trkpt lat="42.9779074" lon="12.7576735"><ele>454.0</ele><time>2026-04-25T15:53:03.448Z</time></trkpt><trkpt lat="42.9778068" lon="12.7575186"><ele>450.0</ele><time>2026-04-25T15:53:04.448Z</time></trkpt><trkpt lat="42.9777113" lon="12.7573651"><ele>446.0</ele><time>2026-04-25T15:53:05.448Z</time></trkpt><trkpt lat="42.9776088" lon="12.7572137"><ele>447.75</ele><time>2026-04-25T15:53:06.449Z</time></trkpt><trkpt lat="42.9775069" lon="12.7570678"><ele>449.5</ele><time>2026-04-25T15:53:07.449Z</time></trkpt><trkpt lat="42.9774072" lon="12.7569142"><ele>451.25</ele><time>2026-04-25T15:53:08.449Z</time></trkpt><trkpt lat="42.9773057" lon="12.7567646"><ele>453.0</ele><time>2026-04-25T15:53:09.448Z</time></trkpt><trkpt lat="42.9772029" lon="12.7566117"><ele>453.0</ele><time>2026-04-25T15:53:10.448Z</time></trkpt><trkpt lat="42.9770968" lon="12.7564656"><ele>453.0</ele><time>2026-04-25T15:53:11.448Z</time></trkpt><trkpt lat="42.9769826" lon="12.756336"><ele>453.0</ele><time>2026-04-25T15:53:12.448Z</time></trkpt><trkpt lat="42.9768649" lon="12.7562055"><ele>453.0</ele><time>2026-04-25T15:53:13.448Z</time></trkpt><trkpt lat="42.9767424" lon="12.7560797"><ele>453.0</ele><time>2026-04-25T15:53:14.449Z</time></trkpt><trkpt lat="42.9766205" lon="12.7559623"><ele>453.0</ele><time>2026-04-25T15:53:15.448Z</time></trkpt><trkpt lat="42.9764967" lon="12.7558483"><ele>453.0</ele><time>2026-04-25T15:53:16.449Z</time></trkpt><trkpt lat="42.9763652" lon="12.7557481"><ele>453.0</ele><time>2026-04-25T15:53:17.448Z</time></trkpt><trkpt lat="42.9762173" lon="12.7556457"><ele>453.0</ele><time>2026-04-25T15:53:18.448Z</time></trkpt><trkpt lat="42.9760761" lon="12.7555487"><ele>453.0</ele><time>2026-04-25T15:53:19.448Z</time></trkpt><trkpt lat="42.9759243" lon="12.7554565"><ele>453.0</ele><time>2026-04-25T15:53:20.448Z</time></trkpt><trkpt lat="42.9757677" lon="12.7553669"><ele>453.0</ele><time>2026-04-25T15:53:21.448Z</time></trkpt><trkpt lat="42.9756171" lon="12.7552889"><ele>450.66666666666663</ele><time>2026-04-25T15:53:22.448Z</time></trkpt><trkpt lat="42.9754741" lon="12.7552204"><ele>448.3333333333333</ele><time>2026-04-25T15:53:23.448Z</time></trkpt><trkpt lat="42.9753291" lon="12.7551611"><ele>446.0</ele><time>2026-04-25T15:53:24.448Z</time></trkpt><trkpt lat="42.9751818" lon="12.7551227"><ele>446.0</ele><time>2026-04-25T15:53:25.448Z</time></trkpt><trkpt lat="42.9750348" lon="12.7550877"><ele>446.0</ele><time>2026-04-25T15:53:26.448Z</time></trkpt><trkpt lat="42.9748874" lon="12.7550626"><ele>446.0</ele><time>2026-04-25T15:53:27.449Z</time></trkpt><trkpt lat="42.9747411" lon="12.7550546"><ele>446.0</ele><time>2026-04-25T15:53:28.448Z</time></trkpt><trkpt lat="42.974595" lon="12.7550716"><ele>448.75</ele><time>2026-04-25T15:53:29.448Z</time></trkpt><trkpt lat="42.9744613" lon="12.7551057"><ele>451.5</ele><time>2026-04-25T15:53:30.448Z</time></trkpt><trkpt lat="42.9743293" lon="12.755158"><ele>454.25</ele><time>2026-04-25T15:53:31.448Z</time></trkpt><trkpt lat="42.9741993" lon="12.7552098"><ele>457.0</ele><time>2026-04-25T15:53:32.448Z</time></trkpt><trkpt lat="42.9740703" lon="12.7552759"><ele>463.25</ele><time>2026-04-25T15:53:33.448Z</time></trkpt><trkpt lat="42.9739418" lon="12.7553447"><ele>469.5</ele><time>2026-04-25T15:53:34.449Z</time></trkpt><trkpt lat="42.9738103" lon="12.7554013"><ele>475.75</ele><time>2026-04-25T15:53:35.449Z</time></trkpt><trkpt lat="42.9736792" lon="12.7554598"><ele>482.0</ele><time>2026-04-25T15:53:36.449Z</time></trkpt><trkpt lat="42.9735514" lon="12.7555099"><ele>482.0</ele><time>2026-04-25T15:53:37.448Z</time></trkpt><trkpt lat="42.9734274" lon="12.7555603"><ele>482.0</ele><time>2026-04-25T15:53:38.448Z</time></trkpt><trkpt lat="42.9733031" lon="12.7555947"><ele>482.0</ele><time>2026-04-25T15:53:39.448Z</time></trkpt><trkpt lat="42.9731921" lon="12.7556061"><ele>482.0</ele><time>2026-04-25T15:53:40.448Z</time></trkpt><trkpt lat="42.9730866" lon="12.7555929"><ele>478.8</ele><time>2026-04-25T15:53:41.448Z</time></trkpt><trkpt lat="42.9729936" lon="12.7555602"><ele>475.6</ele><time>2026-04-25T15:53:42.448Z</time></trkpt><trkpt lat="42.9729108" lon="12.7554962"><ele>472.40000000000003</ele><time>2026-04-25T15:53:43.448Z</time></trkpt><trkpt lat="42.9728408" lon="12.7554035"><ele>469.20000000000005</ele><time>2026-04-25T15:53:44.449Z</time></trkpt><trkpt lat="42.9727792" lon="12.7552926"><ele>466.0</ele><time>2026-04-25T15:53:45.449Z</time></trkpt><trkpt lat="42.9727319" lon="12.7551615"><ele>458.25</ele><time>2026-04-25T15:53:46.448Z</time></trkpt><trkpt lat="42.9727009" lon="12.755017"><ele>450.5</ele><time>2026-04-25T15:53:47.449Z</time></trkpt><trkpt lat="42.9726789" lon="12.7548611"><ele>442.75</ele><time>2026-04-25T15:53:48.449Z</time></trkpt><trkpt lat="42.9726629" lon="12.7546945"><ele>435.0</ele><time>2026-04-25T15:53:49.448Z</time></trkpt><trkpt lat="42.9726554" lon="12.7545306"><ele>430.25</ele><time>2026-04-25T15:53:50.448Z</time></trkpt><trkpt lat="42.9726522" lon="12.7543704"><ele>425.5</ele><time>2026-04-25T15:53:51.448Z</time></trkpt><trkpt lat="42.9726642" lon="12.754209"><ele>420.75</ele><time>2026-04-25T15:53:52.449Z</time></trkpt><trkpt lat="42.9726646" lon="12.7540405"><ele>416.0</ele><time>2026-04-25T15:53:53.448Z</time></trkpt><trkpt lat="42.9726696" lon="12.7538654"><ele>416.0</ele><time>2026-04-25T15:53:54.448Z</time></trkpt><trkpt lat="42.9726597" lon="12.7536928"><ele>416.0</ele><time>2026-04-25T15:53:55.448Z</time></trkpt><trkpt lat="42.9726475" lon="12.7535188"><ele>416.0</ele><time>2026-04-25T15:53:56.448Z</time></trkpt><trkpt lat="42.9726274" lon="12.7533415"><ele>416.0</ele><time>2026-04-25T15:53:57.449Z</time></trkpt><trkpt lat="42.9725854" lon="12.7531873"><ele>413.25</ele><time>2026-04-25T15:53:58.448Z</time></trkpt><trkpt lat="42.9725403" lon="12.753032"><ele>410.5</ele><time>2026-04-25T15:53:59.448Z</time></trkpt><trkpt lat="42.9724902" lon="12.7528676"><ele>407.75</ele><time>2026-04-25T15:54:00.448Z</time></trkpt><trkpt lat="42.9724386" lon="12.752709"><ele>405.0</ele><time>2026-04-25T15:54:01.448Z</time></trkpt><trkpt lat="42.9723771" lon="12.7525415"><ele>412.25</ele><time>2026-04-25T15:54:02.449Z</time></trkpt><trkpt lat="42.9723152" lon="12.7523836"><ele>419.5</ele><time>2026-04-25T15:54:03.448Z</time></trkpt><trkpt lat="42.9722497" lon="12.7522306"><ele>426.75</ele><time>2026-04-25T15:54:04.449Z</time></trkpt><trkpt lat="42.9721845" lon="12.7520775"><ele>434.0</ele><time>2026-04-25T15:54:05.448Z</time></trkpt><trkpt lat="42.9721199" lon="12.7519239"><ele>430.75</ele><time>2026-04-25T15:54:06.448Z</time></trkpt><trkpt lat="42.9720517" lon="12.7517683"><ele>427.5</ele><time>2026-04-25T15:54:07.448Z</time></trkpt><trkpt lat="42.9719773" lon="12.7516117"><ele>424.25</ele><time>2026-04-25T15:54:08.448Z</time></trkpt><trkpt lat="42.971905" lon="12.751453"><ele>421.0</ele><time>2026-04-25T15:54:09.448Z</time></trkpt><trkpt lat="42.9718309" lon="12.7512841"><ele>421.0</ele><time>2026-04-25T15:54:10.448Z</time></trkpt><trkpt lat="42.9717626" lon="12.7511179"><ele>421.0</ele><time>2026-04-25T15:54:11.448Z</time></trkpt><trkpt lat="42.9716906" lon="12.7509623"><ele>421.0</ele><time>2026-04-25T15:54:12.448Z</time></trkpt><trkpt lat="42.9716166" lon="12.7508087"><ele>421.0</ele><time>2026-04-25T15:54:13.448Z</time></trkpt><trkpt lat="42.9715355" lon="12.7506669"><ele>421.75</ele><time>2026-04-25T15:54:14.448Z</time></trkpt><trkpt lat="42.9714443" lon="12.750538"><ele>422.5</ele><time>2026-04-25T15:54:15.449Z</time></trkpt><trkpt lat="42.9713245" lon="12.7504377"><ele>423.25</ele><time>2026-04-25T15:54:16.448Z</time></trkpt><trkpt lat="42.9712036" lon="12.7503519"><ele>424.0</ele><time>2026-04-25T15:54:17.448Z</time></trkpt><trkpt lat="42.9710822" lon="12.7502759"><ele>424.5</ele><time>2026-04-25T15:54:18.448Z</time></trkpt><trkpt lat="42.9709684" lon="12.7501966"><ele>425.0</ele><time>2026-04-25T15:54:19.448Z</time></trkpt><trkpt lat="42.970866" lon="12.7501034"><ele>425.5</ele><time>2026-04-25T15:54:20.448Z</time></trkpt><trkpt lat="42.9707744" lon="12.7499946"><ele>426.0</ele><time>2026-04-25T15:54:21.448Z</time></trkpt><trkpt lat="42.9707101" lon="12.7498533"><ele>426.0</ele><time>2026-04-25T15:54:22.448Z</time></trkpt><trkpt lat="42.9706414" lon="12.7497233"><ele>426.0</ele><time>2026-04-25T15:54:23.449Z</time></trkpt><trkpt lat="42.9705712" lon="12.7495949"><ele>426.0</ele><time>2026-04-25T15:54:24.448Z</time></trkpt><trkpt lat="42.9705001" lon="12.7494603"><ele>426.0</ele><time>2026-04-25T15:54:25.448Z</time></trkpt><trkpt lat="42.9704266" lon="12.7493277"><ele>422.0</ele><time>2026-04-25T15:54:26.449Z</time></trkpt><trkpt lat="42.9703571" lon="12.7491891"><ele>418.0</ele><time>2026-04-25T15:54:27.448Z</time></trkpt><trkpt lat="42.9702897" lon="12.7490434"><ele>414.0</ele><time>2026-04-25T15:54:28.448Z</time></trkpt><trkpt lat="42.9702349" lon="12.748892"><ele>410.0</ele><time>2026-04-25T15:54:29.448Z</time></trkpt><trkpt lat="42.9701882" lon="12.7487311"><ele>410.0</ele><time>2026-04-25T15:54:30.448Z</time></trkpt><trkpt lat="42.9701479" lon="12.7485721"><ele>410.0</ele><time>2026-04-25T15:54:31.448Z</time></trkpt><trkpt lat="42.9701163" lon="12.7484254"><ele>410.0</ele><time>2026-04-25T15:54:32.448Z</time></trkpt><trkpt lat="42.9700942" lon="12.7483015"><ele>410.0</ele><time>2026-04-25T15:54:33.449Z</time></trkpt><trkpt lat="42.9700698" lon="12.748184"><ele>410.0</ele><time>2026-04-25T15:54:34.448Z</time></trkpt><trkpt lat="42.9700311" lon="12.7480784"><ele>411.66666666666663</ele><time>2026-04-25T15:54:35.448Z</time></trkpt><trkpt lat="42.9699746" lon="12.7479927"><ele>413.3333333333333</ele><time>2026-04-25T15:54:36.448Z</time></trkpt><trkpt lat="42.9698991" lon="12.7479344"><ele>415.0</ele><time>2026-04-25T15:54:37.448Z</time></trkpt><trkpt lat="42.9698112" lon="12.7479009"><ele>416.66666666666663</ele><time>2026-04-25T15:54:38.448Z</time></trkpt><trkpt lat="42.969725" lon="12.747872"><ele>418.3333333333333</ele><time>2026-04-25T15:54:39.448Z</time></trkpt><trkpt lat="42.9696317" lon="12.747835"><ele>420.0</ele><time>2026-04-25T15:54:40.448Z</time></trkpt><trkpt lat="42.9695378" lon="12.7477875"><ele>420.0</ele><time>2026-04-25T15:54:41.448Z</time></trkpt><trkpt lat="42.9694453" lon="12.7477281"><ele>420.0</ele><time>2026-04-25T15:54:42.448Z</time></trkpt><trkpt lat="42.9693471" lon="12.7476578"><ele>420.0</ele><time>2026-04-25T15:54:43.448Z</time></trkpt><trkpt lat="42.9692495" lon="12.7475765"><ele>420.0</ele><time>2026-04-25T15:54:44.448Z</time></trkpt><trkpt lat="42.9691499" lon="12.7474826"><ele>420.0</ele><time>2026-04-25T15:54:45.449Z</time></trkpt><trkpt lat="42.9690438" lon="12.7473897"><ele>418.75</ele><time>2026-04-25T15:54:46.448Z</time></trkpt><trkpt lat="42.9689328" lon="12.7472941"><ele>417.5</ele><time>2026-04-25T15:54:47.448Z</time></trkpt><trkpt lat="42.9688249" lon="12.7471978"><ele>416.25</ele><time>2026-04-25T15:54:48.448Z</time></trkpt><trkpt lat="42.9687265" lon="12.7470936"><ele>415.0</ele><time>2026-04-25T15:54:49.449Z</time></trkpt><trkpt lat="42.9686309" lon="12.7469957"><ele>415.0</ele><time>2026-04-25T15:54:50.449Z</time></trkpt><trkpt lat="42.9685415" lon="12.7468812"><ele>415.0</ele><time>2026-04-25T15:54:51.449Z</time></trkpt><trkpt lat="42.9684607" lon="12.7467683"><ele>415.0</ele><time>2026-04-25T15:54:52.448Z</time></trkpt><trkpt lat="42.9683851" lon="12.7466551"><ele>415.0</ele><time>2026-04-25T15:54:53.448Z</time></trkpt><trkpt lat="42.968305" lon="12.7465424"><ele>414.25</ele><time>2026-04-25T15:54:54.448Z</time></trkpt><trkpt lat="42.9682258" lon="12.7464213"><ele>413.5</ele><time>2026-04-25T15:54:55.448Z</time></trkpt><trkpt lat="42.9681393" lon="12.7462941"><ele>412.75</ele><time>2026-04-25T15:54:56.448Z</time></trkpt><trkpt lat="42.9680497" lon="12.7461633"><ele>412.0</ele><time>2026-04-25T15:54:57.448Z</time></trkpt><trkpt lat="42.9679517" lon="12.7460419"><ele>410.75</ele><time>2026-04-25T15:54:58.448Z</time></trkpt><trkpt lat="42.9678432" lon="12.7459242"><ele>409.5</ele><time>2026-04-25T15:54:59.448Z</time></trkpt><trkpt lat="42.9677274" lon="12.7458101"><ele>408.25</ele><time>2026-04-25T15:55:00.449Z</time></trkpt><trkpt lat="42.9676042" lon="12.7457041"><ele>407.0</ele><time>2026-04-25T15:55:01.448Z</time></trkpt><trkpt lat="42.9674782" lon="12.7455954"><ele>407.0</ele><time>2026-04-25T15:55:02.448Z</time></trkpt><trkpt lat="42.9673512" lon="12.7454898"><ele>407.0</ele><time>2026-04-25T15:55:03.448Z</time></trkpt><trkpt lat="42.9672137" lon="12.7453881"><ele>407.0</ele><time>2026-04-25T15:55:04.448Z</time></trkpt><trkpt lat="42.9670812" lon="12.7452925"><ele>404.5</ele><time>2026-04-25T15:55:05.449Z</time></trkpt><trkpt lat="42.9669443" lon="12.7452104"><ele>402.0</ele><time>2026-04-25T15:55:06.448Z</time></trkpt><trkpt lat="42.9668029" lon="12.7451493"><ele>399.5</ele><time>2026-04-25T15:55:07.448Z</time></trkpt><trkpt lat="42.9666598" lon="12.745097"><ele>397.0</ele><time>2026-04-25T15:55:08.448Z</time></trkpt><trkpt lat="42.9665189" lon="12.7450508"><ele>397.0</ele><time>2026-04-25T15:55:09.448Z</time></trkpt><trkpt lat="42.966378" lon="12.745007"><ele>397.0</ele><time>2026-04-25T15:55:10.448Z</time></trkpt><trkpt lat="42.9662415" lon="12.7449641"><ele>397.0</ele><time>2026-04-25T15:55:11.449Z</time></trkpt><trkpt lat="42.9661192" lon="12.744926"><ele>397.0</ele><time>2026-04-25T15:55:12.448Z</time></trkpt><trkpt lat="42.9660063" lon="12.7448989"><ele>397.0</ele><time>2026-04-25T15:55:13.448Z</time></trkpt><trkpt lat="42.9658922" lon="12.7448803"><ele>397.0</ele><time>2026-04-25T15:55:14.449Z</time></trkpt><trkpt lat="42.9657753" lon="12.744891"><ele>397.0</ele><time>2026-04-25T15:55:15.448Z</time></trkpt><trkpt lat="42.9656731" lon="12.7449306"><ele>397.0</ele><time>2026-04-25T15:55:16.448Z</time></trkpt><trkpt lat="42.9655848" lon="12.7449913"><ele>397.0</ele><time>2026-04-25T15:55:17.448Z</time></trkpt><trkpt lat="42.9655097" lon="12.7450779"><ele>396.6</ele><time>2026-04-25T15:55:18.448Z</time></trkpt><trkpt lat="42.965436" lon="12.7451697"><ele>396.20000000000005</ele><time>2026-04-25T15:55:19.448Z</time></trkpt><trkpt lat="42.9653732" lon="12.7452874"><ele>395.8</ele><time>2026-04-25T15:55:20.448Z</time></trkpt><trkpt lat="42.9653415" lon="12.7454212"><ele>395.4</ele><time>2026-04-25T15:55:21.448Z</time></trkpt><trkpt lat="42.9653304" lon="12.7455562"><ele>395.0</ele><time>2026-04-25T15:55:22.448Z</time></trkpt><trkpt lat="42.9653272" lon="12.7456988"><ele>398.25</ele><time>2026-04-25T15:55:23.448Z</time></trkpt><trkpt lat="42.9653296" lon="12.7458592"><ele>401.5</ele><time>2026-04-25T15:55:24.448Z</time></trkpt><trkpt lat="42.9653294" lon="12.74602"><ele>404.75</ele><time>2026-04-25T15:55:25.448Z</time></trkpt><trkpt lat="42.965328" lon="12.7461754"><ele>408.0</ele><time>2026-04-25T15:55:26.448Z</time></trkpt><trkpt lat="42.9653259" lon="12.7463402"><ele>408.75</ele><time>2026-04-25T15:55:27.449Z</time></trkpt><trkpt lat="42.9653378" lon="12.746512"><ele>409.5</ele><time>2026-04-25T15:55:28.449Z</time></trkpt><trkpt lat="42.9653509" lon="12.7466799"><ele>410.25</ele><time>2026-04-25T15:55:29.448Z</time></trkpt><trkpt lat="42.9653577" lon="12.7468413"><ele>411.0</ele><time>2026-04-25T15:55:30.448Z</time></trkpt><trkpt lat="42.9653632" lon="12.7470023"><ele>411.0</ele><time>2026-04-25T15:55:31.448Z</time></trkpt><trkpt lat="42.9653638" lon="12.7471622"><ele>411.0</ele><time>2026-04-25T15:55:32.448Z</time></trkpt><trkpt lat="42.9653692" lon="12.7473149"><ele>411.0</ele><time>2026-04-25T15:55:33.448Z</time></trkpt><trkpt lat="42.9653763" lon="12.7474502"><ele>411.0</ele><time>2026-04-25T15:55:34.448Z</time></trkpt><trkpt lat="42.9653838" lon="12.7475759"><ele>411.0</ele><time>2026-04-25T15:55:35.448Z</time></trkpt><trkpt lat="42.9653867" lon="12.7476912"><ele>410.8333333333333</ele><time>2026-04-25T15:55:36.448Z</time></trkpt><trkpt lat="42.9653943" lon="12.7478017"><ele>410.66666666666663</ele><time>2026-04-25T15:55:37.448Z</time></trkpt><trkpt lat="42.965395" lon="12.7478981"><ele>410.5</ele><time>2026-04-25T15:55:38.448Z</time></trkpt><trkpt lat="42.9653825" lon="12.7479862"><ele>410.3333333333333</ele><time>2026-04-25T15:55:39.448Z</time></trkpt><trkpt lat="42.9653131" lon="12.7481227"><ele>410.16666666666663</ele><time>2026-04-25T15:55:41.448Z</time></trkpt><trkpt lat="42.9652545" lon="12.7481697"><ele>410.0</ele><time>2026-04-25T15:55:42.448Z</time></trkpt><trkpt lat="42.9651755" lon="12.7481887"><ele>409.99999999999994</ele><time>2026-04-25T15:55:43.448Z</time></trkpt><trkpt lat="42.9650975" lon="12.7481766"><ele>410.0</ele><time>2026-04-25T15:55:44.448Z</time></trkpt><trkpt lat="42.9650288" lon="12.748117"><ele>410.0</ele><time>2026-04-25T15:55:45.448Z</time></trkpt><trkpt lat="42.964964" lon="12.7480423"><ele>410.0</ele><time>2026-04-25T15:55:46.448Z</time></trkpt><trkpt lat="42.9649209" lon="12.7479417"><ele>409.99999999999994</ele><time>2026-04-25T15:55:47.448Z</time></trkpt><trkpt lat="42.9648798" lon="12.7478291"><ele>410.0</ele><time>2026-04-25T15:55:48.448Z</time></trkpt><trkpt lat="42.9648418" lon="12.7476994"><ele>405.5</ele><time>2026-04-25T15:55:49.448Z</time></trkpt><trkpt lat="42.964811" lon="12.7475463"><ele>401.0</ele><time>2026-04-25T15:55:50.448Z</time></trkpt><trkpt lat="42.9647779" lon="12.7473915"><ele>396.5</ele><time>2026-04-25T15:55:51.448Z</time></trkpt><trkpt lat="42.9647377" lon="12.7472473"><ele>392.0</ele><time>2026-04-25T15:55:52.449Z</time></trkpt><trkpt lat="42.9646884" lon="12.7470955"><ele>392.0</ele><time>2026-04-25T15:55:53.448Z</time></trkpt><trkpt lat="42.9646353" lon="12.7469403"><ele>392.0</ele><time>2026-04-25T15:55:54.448Z</time></trkpt><trkpt lat="42.9645825" lon="12.7467828"><ele>392.0</ele><time>2026-04-25T15:55:55.448Z</time></trkpt><trkpt lat="42.9645192" lon="12.7466183"><ele>392.0</ele><time>2026-04-25T15:55:56.448Z</time></trkpt><trkpt lat="42.9644469" lon="12.7464624"><ele>391.5</ele><time>2026-04-25T15:55:57.449Z</time></trkpt><trkpt lat="42.9643721" lon="12.7463075"><ele>391.0</ele><time>2026-04-25T15:55:58.448Z</time></trkpt><trkpt lat="42.9642883" lon="12.7461588"><ele>390.5</ele><time>2026-04-25T15:55:59.448Z</time></trkpt><trkpt lat="42.9642081" lon="12.7460233"><ele>390.0</ele><time>2026-04-25T15:56:00.448Z</time></trkpt><trkpt lat="42.9641119" lon="12.7458939"><ele>389.0</ele><time>2026-04-25T15:56:01.448Z</time></trkpt><trkpt lat="42.9640173" lon="12.7457874"><ele>388.0</ele><time>2026-04-25T15:56:02.448Z</time></trkpt><trkpt lat="42.963914" lon="12.7457016"><ele>387.0</ele><time>2026-04-25T15:56:03.448Z</time></trkpt><trkpt lat="42.9637964" lon="12.7456284"><ele>386.0</ele><time>2026-04-25T15:56:04.448Z</time></trkpt><trkpt lat="42.9636762" lon="12.7456021"><ele>386.0</ele><time>2026-04-25T15:56:05.448Z</time></trkpt><trkpt lat="42.9635572" lon="12.7456041"><ele>386.0</ele><time>2026-04-25T15:56:06.448Z</time></trkpt><trkpt lat="42.9634461" lon="12.7456481"><ele>386.0</ele><time>2026-04-25T15:56:07.448Z</time></trkpt><trkpt lat="42.9633445" lon="12.7457105"><ele>386.0</ele><time>2026-04-25T15:56:08.448Z</time></trkpt><trkpt lat="42.9632435" lon="12.7457751"><ele>386.6</ele><time>2026-04-25T15:56:09.448Z</time></trkpt><trkpt lat="42.9631449" lon="12.7458212"><ele>387.20000000000005</ele><time>2026-04-25T15:56:10.449Z</time></trkpt><trkpt lat="42.9630417" lon="12.7458315"><ele>387.79999999999995</ele><time>2026-04-25T15:56:11.448Z</time></trkpt><trkpt lat="42.9629485" lon="12.745794"><ele>388.4</ele><time>2026-04-25T15:56:12.448Z</time></trkpt><trkpt lat="42.9628625" lon="12.7457247"><ele>389.0</ele><time>2026-04-25T15:56:13.448Z</time></trkpt><trkpt lat="42.9627899" lon="12.7456306"><ele>389.0</ele><time>2026-04-25T15:56:14.448Z</time></trkpt><trkpt lat="42.9627221" lon="12.7455179"><ele>389.0</ele><time>2026-04-25T15:56:15.448Z</time></trkpt><trkpt lat="42.9626636" lon="12.7454138"><ele>389.0</ele><time>2026-04-25T15:56:16.449Z</time></trkpt><trkpt lat="42.9626103" lon="12.745306"><ele>389.0</ele><time>2026-04-25T15:56:17.448Z</time></trkpt><trkpt lat="42.9625523" lon="12.7451843"><ele>389.0</ele><time>2026-04-25T15:56:18.448Z</time></trkpt><trkpt lat="42.9624981" lon="12.7450719"><ele>389.0</ele><time>2026-04-25T15:56:19.449Z</time></trkpt><trkpt lat="42.9624424" lon="12.7449602"><ele>389.0</ele><time>2026-04-25T15:56:20.448Z</time></trkpt><trkpt lat="42.9623789" lon="12.7448468"><ele>389.0</ele><time>2026-04-25T15:56:21.448Z</time></trkpt><trkpt lat="42.9623" lon="12.7447403"><ele>389.0</ele><time>2026-04-25T15:56:22.449Z</time></trkpt><trkpt lat="42.96222" lon="12.7446425"><ele>389.0</ele><time>2026-04-25T15:56:23.448Z</time></trkpt><trkpt lat="42.9621315" lon="12.7445534"><ele>388.99999999999994</ele><time>2026-04-25T15:56:24.448Z</time></trkpt><trkpt lat="42.9620468" lon="12.7444743"><ele>389.0</ele><time>2026-04-25T15:56:25.448Z</time></trkpt><trkpt lat="42.9619708" lon="12.7444137"><ele>389.0</ele><time>2026-04-25T15:56:26.449Z</time></trkpt><trkpt lat="42.9619068" lon="12.7443354"><ele>389.0</ele><time>2026-04-25T15:56:27.448Z</time></trkpt><trkpt lat="42.9618595" lon="12.7442432"><ele>388.99999999999994</ele><time>2026-04-25T15:56:28.448Z</time></trkpt><trkpt lat="42.9618362" lon="12.7441494"><ele>389.0</ele><time>2026-04-25T15:56:29.448Z</time></trkpt><trkpt lat="42.9618305" lon="12.7440401"><ele>387.16666666666663</ele><time>2026-04-25T15:56:30.449Z</time></trkpt><trkpt lat="42.9618476" lon="12.7439414"><ele>385.3333333333333</ele><time>2026-04-25T15:56:31.448Z</time></trkpt><trkpt lat="42.9618856" lon="12.7438603"><ele>383.5</ele><time>2026-04-25T15:56:32.448Z</time></trkpt><trkpt lat="42.9619442" lon="12.7438035"><ele>381.66666666666663</ele><time>2026-04-25T15:56:33.448Z</time></trkpt><trkpt lat="42.9620165" lon="12.7437722"><ele>379.8333333333333</ele><time>2026-04-25T15:56:34.448Z</time></trkpt><trkpt lat="42.9620967" lon="12.7437636"><ele>378.0</ele><time>2026-04-25T15:56:35.448Z</time></trkpt><trkpt lat="42.9621839" lon="12.7437683"><ele>378.0</ele><time>2026-04-25T15:56:36.449Z</time></trkpt><trkpt lat="42.9622755" lon="12.7437876"><ele>378.0</ele><time>2026-04-25T15:56:37.448Z</time></trkpt><trkpt lat="42.9623759" lon="12.7438072"><ele>378.0</ele><time>2026-04-25T15:56:38.448Z</time></trkpt><trkpt lat="42.9624777" lon="12.7438264"><ele>378.0</ele><time>2026-04-25T15:56:39.448Z</time></trkpt><trkpt lat="42.9625797" lon="12.7438458"><ele>378.0</ele><time>2026-04-25T15:56:40.448Z</time></trkpt><trkpt lat="42.9626833" lon="12.7438634"><ele>375.8333333333333</ele><time>2026-04-25T15:56:41.449Z</time></trkpt><trkpt lat="42.962774" lon="12.7438728"><ele>373.6666666666667</ele><time>2026-04-25T15:56:42.448Z</time></trkpt><trkpt lat="42.9628612" lon="12.7438437"><ele>371.5</ele><time>2026-04-25T15:56:43.449Z</time></trkpt><trkpt lat="42.9629333" lon="12.7437902"><ele>369.33333333333337</ele><time>2026-04-25T15:56:44.448Z</time></trkpt><trkpt lat="42.9629868" lon="12.743708"><ele>367.1666666666667</ele><time>2026-04-25T15:56:45.448Z</time></trkpt><trkpt lat="42.9630123" lon="12.743599"><ele>365.0</ele><time>2026-04-25T15:56:46.448Z</time></trkpt><trkpt lat="42.9630071" lon="12.7434795"><ele>365.0</ele><time>2026-04-25T15:56:47.449Z</time></trkpt><trkpt lat="42.9629796" lon="12.7433587"><ele>365.0</ele><time>2026-04-25T15:56:48.448Z</time></trkpt><trkpt lat="42.9629337" lon="12.743228"><ele>365.0</ele><time>2026-04-25T15:56:49.448Z</time></trkpt><trkpt lat="42.962879" lon="12.7430956"><ele>365.0</ele><time>2026-04-25T15:56:50.449Z</time></trkpt><trkpt lat="42.9628233" lon="12.7429698"><ele>365.0</ele><time>2026-04-25T15:56:51.448Z</time></trkpt><trkpt lat="42.9627662" lon="12.7428435"><ele>363.5</ele><time>2026-04-25T15:56:52.448Z</time></trkpt><trkpt lat="42.9627072" lon="12.742714"><ele>362.0</ele><time>2026-04-25T15:56:53.448Z</time></trkpt><trkpt lat="42.9626487" lon="12.7425798"><ele>360.5</ele><time>2026-04-25T15:56:54.448Z</time></trkpt><trkpt lat="42.9625921" lon="12.7424403"><ele>359.0</ele><time>2026-04-25T15:56:55.449Z</time></trkpt><trkpt lat="42.9625295" lon="12.7422985"><ele>361.5</ele><time>2026-04-25T15:56:56.449Z</time></trkpt><trkpt lat="42.9624639" lon="12.7421546"><ele>364.0</ele><time>2026-04-25T15:56:57.448Z</time></trkpt><trkpt lat="42.9623968" lon="12.7420063"><ele>366.5</ele><time>2026-04-25T15:56:58.448Z</time></trkpt><trkpt lat="42.9623325" lon="12.7418502"><ele>369.0</ele><time>2026-04-25T15:56:59.449Z</time></trkpt><trkpt lat="42.9622711" lon="12.7416981"><ele>369.0</ele><time>2026-04-25T15:57:00.448Z</time></trkpt><trkpt lat="42.962214" lon="12.7415447"><ele>369.0</ele><time>2026-04-25T15:57:01.448Z</time></trkpt><trkpt lat="42.9621521" lon="12.7414012"><ele>369.0</ele><time>2026-04-25T15:57:02.448Z</time></trkpt><trkpt lat="42.9620883" lon="12.7412581"><ele>369.0</ele><time>2026-04-25T15:57:03.448Z</time></trkpt><trkpt lat="42.9620283" lon="12.7411224"><ele>367.4</ele><time>2026-04-25T15:57:04.448Z</time></trkpt><trkpt lat="42.9619713" lon="12.7409979"><ele>365.79999999999995</ele><time>2026-04-25T15:57:05.449Z</time></trkpt><trkpt lat="42.9619171" lon="12.7408775"><ele>364.20000000000005</ele><time>2026-04-25T15:57:06.448Z</time></trkpt><trkpt lat="42.9618755" lon="12.7407516"><ele>362.6</ele><time>2026-04-25T15:57:07.448Z</time></trkpt><trkpt lat="42.961848" lon="12.7406118"><ele>361.0</ele><time>2026-04-25T15:57:08.449Z</time></trkpt><trkpt lat="42.9618391" lon="12.7404631"><ele>361.0</ele><time>2026-04-25T15:57:09.448Z</time></trkpt><trkpt lat="42.9618533" lon="12.7403142"><ele>361.0</ele><time>2026-04-25T15:57:10.448Z</time></trkpt><trkpt lat="42.9618634" lon="12.7401668"><ele>361.0</ele><time>2026-04-25T15:57:11.448Z</time></trkpt><trkpt lat="42.9618721" lon="12.7400068"><ele>361.0</ele><time>2026-04-25T15:57:12.448Z</time></trkpt><trkpt lat="42.9618646" lon="12.7398549"><ele>361.0</ele><time>2026-04-25T15:57:13.448Z</time></trkpt><trkpt lat="42.9618515" lon="12.7397168"><ele>360.4</ele><time>2026-04-25T15:57:14.448Z</time></trkpt><trkpt lat="42.9618158" lon="12.7395902"><ele>359.8</ele><time>2026-04-25T15:57:15.448Z</time></trkpt><trkpt lat="42.9617637" lon="12.7394753"><ele>359.2</ele><time>2026-04-25T15:57:16.448Z</time></trkpt><trkpt lat="42.9616996" lon="12.7393645"><ele>358.59999999999997</ele><time>2026-04-25T15:57:17.448Z</time></trkpt><trkpt lat="42.9616337" lon="12.7392508"><ele>358.0</ele><time>2026-04-25T15:57:18.448Z</time></trkpt><trkpt lat="42.9615649" lon="12.7391378"><ele>362.0</ele><time>2026-04-25T15:57:19.449Z</time></trkpt><trkpt lat="42.9614921" lon="12.7390172"><ele>366.0</ele><time>2026-04-25T15:57:20.448Z</time></trkpt><trkpt lat="42.9614112" lon="12.7388908"><ele>370.0</ele><time>2026-04-25T15:57:21.448Z</time></trkpt><trkpt lat="42.9613301" lon="12.738767"><ele>374.0</ele><time>2026-04-25T15:57:22.448Z</time></trkpt><trkpt lat="42.9612534" lon="12.7386419"><ele>370.79999999999995</ele><time>2026-04-25T15:57:23.448Z</time></trkpt><trkpt lat="42.9611757" lon="12.7385236"><ele>367.59999999999997</ele><time>2026-04-25T15:57:24.448Z</time></trkpt><trkpt lat="42.9611041" lon="12.7384059"><ele>364.4</ele><time>2026-04-25T15:57:25.448Z</time></trkpt><trkpt lat="42.9610423" lon="12.7382874"><ele>361.2</ele><time>2026-04-25T15:57:26.448Z</time></trkpt><trkpt lat="42.9610043" lon="12.7381643"><ele>358.0</ele><time>2026-04-25T15:57:27.448Z</time></trkpt><trkpt lat="42.9609707" lon="12.7380397"><ele>358.0</ele><time>2026-04-25T15:57:28.448Z</time></trkpt><trkpt lat="42.9609424" lon="12.7379245"><ele>358.0</ele><time>2026-04-25T15:57:29.448Z</time></trkpt><trkpt lat="42.9609116" lon="12.7377977"><ele>358.0</ele><time>2026-04-25T15:57:30.448Z</time></trkpt><trkpt lat="42.9608674" lon="12.7376856"><ele>358.0</ele><time>2026-04-25T15:57:31.448Z</time></trkpt><trkpt lat="42.9608107" lon="12.7375793"><ele>358.0</ele><time>2026-04-25T15:57:32.448Z</time></trkpt><trkpt lat="42.9607406" lon="12.737476"><ele>359.79999999999995</ele><time>2026-04-25T15:57:33.448Z</time></trkpt><trkpt lat="42.9606594" lon="12.7373828"><ele>361.6</ele><time>2026-04-25T15:57:34.448Z</time></trkpt><trkpt lat="42.9605576" lon="12.7372946"><ele>363.4</ele><time>2026-04-25T15:57:35.448Z</time></trkpt><trkpt lat="42.9604612" lon="12.7372143"><ele>365.20000000000005</ele><time>2026-04-25T15:57:36.448Z</time></trkpt><trkpt lat="42.9603658" lon="12.7371396"><ele>367.0</ele><time>2026-04-25T15:57:37.448Z</time></trkpt><trkpt lat="42.960264" lon="12.7370658"><ele>367.0</ele><time>2026-04-25T15:57:38.448Z</time></trkpt><trkpt lat="42.9601627" lon="12.7370172"><ele>367.0</ele><time>2026-04-25T15:57:39.449Z</time></trkpt><trkpt lat="42.9600625" lon="12.7370033"><ele>367.0</ele><time>2026-04-25T15:57:40.449Z</time></trkpt><trkpt lat="42.9599617" lon="12.737006"><ele>367.0</ele><time>2026-04-25T15:57:41.448Z</time></trkpt><trkpt lat="42.9598614" lon="12.7370441"><ele>367.0</ele><time>2026-04-25T15:57:42.449Z</time></trkpt><trkpt lat="42.959767" lon="12.7370941"><ele>366.8</ele><time>2026-04-25T15:57:43.448Z</time></trkpt><trkpt lat="42.9596826" lon="12.7371688"><ele>366.6</ele><time>2026-04-25T15:57:44.448Z</time></trkpt><trkpt lat="42.9595965" lon="12.737244"><ele>366.40000000000003</ele><time>2026-04-25T15:57:45.449Z</time></trkpt><trkpt lat="42.9595055" lon="12.7372948"><ele>366.20000000000005</ele><time>2026-04-25T15:57:46.448Z</time></trkpt><trkpt lat="42.9594134" lon="12.7373237"><ele>366.0</ele><time>2026-04-25T15:57:47.448Z</time></trkpt><trkpt lat="42.959318" lon="12.7373336"><ele>366.0</ele><time>2026-04-25T15:57:48.448Z</time></trkpt><trkpt lat="42.9592199" lon="12.7373324"><ele>366.0</ele><time>2026-04-25T15:57:49.448Z</time></trkpt><trkpt lat="42.9591026" lon="12.7373116"><ele>366.0</ele><time>2026-04-25T15:57:50.449Z</time></trkpt><trkpt lat="42.9589913" lon="12.7372964"><ele>366.0</ele><time>2026-04-25T15:57:51.448Z</time></trkpt><trkpt lat="42.9588842" lon="12.7372682"><ele>366.0</ele><time>2026-04-25T15:57:52.449Z</time></trkpt><trkpt lat="42.9587769" lon="12.7372169"><ele>365.75</ele><time>2026-04-25T15:57:53.448Z</time></trkpt><trkpt lat="42.9586656" lon="12.7371554"><ele>365.5</ele><time>2026-04-25T15:57:54.448Z</time></trkpt><trkpt lat="42.9585538" lon="12.7370836"><ele>365.25</ele><time>2026-04-25T15:57:55.448Z</time></trkpt><trkpt lat="42.9584424" lon="12.7370046"><ele>365.0</ele><time>2026-04-25T15:57:56.448Z</time></trkpt><trkpt lat="42.9583398" lon="12.7369208"><ele>361.0</ele><time>2026-04-25T15:57:57.448Z</time></trkpt><trkpt lat="42.9582335" lon="12.7368449"><ele>357.0</ele><time>2026-04-25T15:57:58.449Z</time></trkpt><trkpt lat="42.9581268" lon="12.7367697"><ele>353.0</ele><time>2026-04-25T15:57:59.448Z</time></trkpt><trkpt lat="42.9580182" lon="12.7366929"><ele>349.0</ele><time>2026-04-25T15:58:00.448Z</time></trkpt><trkpt lat="42.9579142" lon="12.7366171"><ele>349.0</ele><time>2026-04-25T15:58:01.449Z</time></trkpt><trkpt lat="42.9578125" lon="12.7365376"><ele>349.0</ele><time>2026-04-25T15:58:02.448Z</time></trkpt><trkpt lat="42.9577118" lon="12.7364551"><ele>349.0</ele><time>2026-04-25T15:58:03.448Z</time></trkpt><trkpt lat="42.9576003" lon="12.7363912"><ele>349.0</ele><time>2026-04-25T15:58:04.448Z</time></trkpt><trkpt lat="42.9574811" lon="12.7363468"><ele>349.75</ele><time>2026-04-25T15:58:05.448Z</time></trkpt><trkpt lat="42.9573567" lon="12.7363227"><ele>350.5</ele><time>2026-04-25T15:58:06.449Z</time></trkpt><trkpt lat="42.9572254" lon="12.7363334"><ele>351.25</ele><time>2026-04-25T15:58:07.448Z</time></trkpt><trkpt lat="42.9571026" lon="12.7363548"><ele>352.0</ele><time>2026-04-25T15:58:08.448Z</time></trkpt><trkpt lat="42.9569756" lon="12.7363783"><ele>352.0</ele><time>2026-04-25T15:58:09.448Z</time></trkpt><trkpt lat="42.9568496" lon="12.7364151"><ele>352.0</ele><time>2026-04-25T15:58:10.448Z</time></trkpt><trkpt lat="42.9567397" lon="12.7364347"><ele>352.0</ele><time>2026-04-25T15:58:11.448Z</time></trkpt><trkpt lat="42.9566518" lon="12.736447"><ele>352.0</ele><time>2026-04-25T15:58:12.448Z</time></trkpt><trkpt lat="42.956572" lon="12.7364326"><ele>352.0</ele><time>2026-04-25T15:58:13.449Z</time></trkpt><trkpt lat="42.9565075" lon="12.7363763"><ele>351.66666666666663</ele><time>2026-04-25T15:58:14.449Z</time></trkpt><trkpt lat="42.9564599" lon="12.7363006"><ele>351.3333333333333</ele><time>2026-04-25T15:58:15.448Z</time></trkpt><trkpt lat="42.9564281" lon="12.7362065"><ele>351.0</ele><time>2026-04-25T15:58:16.448Z</time></trkpt><trkpt lat="42.9564131" lon="12.7361009"><ele>350.6666666666667</ele><time>2026-04-25T15:58:17.448Z</time></trkpt><trkpt lat="42.9564129" lon="12.735977"><ele>350.33333333333337</ele><time>2026-04-25T15:58:18.448Z</time></trkpt><trkpt lat="42.9564214" lon="12.7358565"><ele>350.0</ele><time>2026-04-25T15:58:19.449Z</time></trkpt><trkpt lat="42.9564304" lon="12.7357307"><ele>348.2</ele><time>2026-04-25T15:58:20.448Z</time></trkpt><trkpt lat="42.9564465" lon="12.7355888"><ele>346.4</ele><time>2026-04-25T15:58:21.448Z</time></trkpt><trkpt lat="42.9564627" lon="12.7354563"><ele>344.6</ele><time>2026-04-25T15:58:22.448Z</time></trkpt><trkpt lat="42.9564729" lon="12.735325"><ele>342.8</ele><time>2026-04-25T15:58:23.448Z</time></trkpt><trkpt lat="42.956471" lon="12.7351788"><ele>341.0</ele><time>2026-04-25T15:58:24.448Z</time></trkpt><trkpt lat="42.9564709" lon="12.7350466"><ele>339.20000000000005</ele><time>2026-04-25T15:58:25.448Z</time></trkpt><trkpt lat="42.9564421" lon="12.7349307"><ele>337.40000000000003</ele><time>2026-04-25T15:58:26.448Z</time></trkpt><trkpt lat="42.9563997" lon="12.7348357"><ele>335.6</ele><time>2026-04-25T15:58:27.448Z</time></trkpt><trkpt lat="42.9563271" lon="12.7347601"><ele>333.8</ele><time>2026-04-25T15:58:28.448Z</time></trkpt><trkpt lat="42.9562417" lon="12.734703"><ele>332.0</ele><time>2026-04-25T15:58:29.449Z</time></trkpt><trkpt lat="42.9561498" lon="12.734658"><ele>332.0</ele><time>2026-04-25T15:58:30.448Z</time></trkpt><trkpt lat="42.9560521" lon="12.7346183"><ele>332.0</ele><time>2026-04-25T15:58:31.448Z</time></trkpt><trkpt lat="42.9559506" lon="12.7345865"><ele>332.0</ele><time>2026-04-25T15:58:32.449Z</time></trkpt><trkpt lat="42.9558487" lon="12.734549"><ele>332.0</ele><time>2026-04-25T15:58:33.448Z</time></trkpt><trkpt lat="42.9557503" lon="12.7345141"><ele>332.0</ele><time>2026-04-25T15:58:34.448Z</time></trkpt><trkpt lat="42.9556557" lon="12.7344833"><ele>331.20000000000005</ele><time>2026-04-25T15:58:35.448Z</time></trkpt><trkpt lat="42.9555665" lon="12.7344507"><ele>330.4</ele><time>2026-04-25T15:58:36.448Z</time></trkpt><trkpt lat="42.9554789" lon="12.7344133"><ele>329.6</ele><time>2026-04-25T15:58:37.448Z</time></trkpt><trkpt lat="42.9553926" lon="12.7343664"><ele>328.79999999999995</ele><time>2026-04-25T15:58:38.448Z</time></trkpt><trkpt lat="42.955325" lon="12.7342898"><ele>328.0</ele><time>2026-04-25T15:58:39.448Z</time></trkpt><trkpt lat="42.9552685" lon="12.7341953"><ele>328.0</ele><time>2026-04-25T15:58:40.448Z</time></trkpt><trkpt lat="42.9552239" lon="12.7340904"><ele>328.0</ele><time>2026-04-25T15:58:41.448Z</time></trkpt><trkpt lat="42.9551952" lon="12.7339655"><ele>328.0</ele><time>2026-04-25T15:58:42.448Z</time></trkpt><trkpt lat="42.9551848" lon="12.7338273"><ele>328.0</ele><time>2026-04-25T15:58:43.448Z</time></trkpt><trkpt lat="42.9551771" lon="12.7336888"><ele>328.0</ele><time>2026-04-25T15:58:44.448Z</time></trkpt><trkpt lat="42.9551699" lon="12.733553"><ele>325.59999999999997</ele><time>2026-04-25T15:58:45.449Z</time></trkpt><trkpt lat="42.9551626" lon="12.73342"><ele>323.2</ele><time>2026-04-25T15:58:46.448Z</time></trkpt><trkpt lat="42.9551566" lon="12.7332863"><ele>320.8</ele><time>2026-04-25T15:58:47.448Z</time></trkpt><trkpt lat="42.9551506" lon="12.7331561"><ele>318.4</ele><time>2026-04-25T15:58:48.448Z</time></trkpt><trkpt lat="42.9551471" lon="12.7330278"><ele>316.0</ele><time>2026-04-25T15:58:49.448Z</time></trkpt><trkpt lat="42.9551037" lon="12.7326607"><ele>315.8</ele><time>2026-04-25T15:58:52.448Z</time></trkpt><trkpt lat="42.9550585" lon="12.7325701"><ele>315.6</ele><time>2026-04-25T15:58:53.448Z</time></trkpt><trkpt lat="42.9549872" lon="12.7324694"><ele>315.4</ele><time>2026-04-25T15:58:54.448Z</time></trkpt><trkpt lat="42.9549047" lon="12.7323825"><ele>315.2</ele><time>2026-04-25T15:58:55.449Z</time></trkpt><trkpt lat="42.9548159" lon="12.7323194"><ele>315.0</ele><time>2026-04-25T15:58:56.449Z</time></trkpt><trkpt lat="42.9547314" lon="12.7322565"><ele>314.8333333333333</ele><time>2026-04-25T15:58:57.448Z</time></trkpt><trkpt lat="42.9546513" lon="12.7321931"><ele>314.6666666666667</ele><time>2026-04-25T15:58:58.449Z</time></trkpt><trkpt lat="42.9545775" lon="12.7321298"><ele>314.5</ele><time>2026-04-25T15:58:59.448Z</time></trkpt><trkpt lat="42.9545115" lon="12.7320518"><ele>314.33333333333337</ele><time>2026-04-25T15:59:00.448Z</time></trkpt><trkpt lat="42.9544608" lon="12.7319655"><ele>314.1666666666667</ele><time>2026-04-25T15:59:01.449Z</time></trkpt><trkpt lat="42.9544194" lon="12.7318709"><ele>314.0</ele><time>2026-04-25T15:59:02.448Z</time></trkpt><trkpt lat="42.9543968" lon="12.7317632"><ele>313.4</ele><time>2026-04-25T15:59:03.448Z</time></trkpt><trkpt lat="42.9543894" lon="12.731655"><ele>312.79999999999995</ele><time>2026-04-25T15:59:04.448Z</time></trkpt><trkpt lat="42.9543996" lon="12.7315353"><ele>312.20000000000005</ele><time>2026-04-25T15:59:05.449Z</time></trkpt><trkpt lat="42.9544185" lon="12.7314109"><ele>311.6</ele><time>2026-04-25T15:59:06.448Z</time></trkpt><trkpt lat="42.9544451" lon="12.7312776"><ele>311.0</ele><time>2026-04-25T15:59:07.448Z</time></trkpt><trkpt lat="42.9544629" lon="12.7311403"><ele>310.8</ele><time>2026-04-25T15:59:08.449Z</time></trkpt><trkpt lat="42.954487" lon="12.7310011"><ele>310.6</ele><time>2026-04-25T15:59:09.449Z</time></trkpt><trkpt lat="42.9545172" lon="12.7308812"><ele>310.4</ele><time>2026-04-25T15:59:10.449Z</time></trkpt><trkpt lat="42.9545507" lon="12.7307475"><ele>310.2</ele><time>2026-04-25T15:59:11.448Z</time></trkpt><trkpt lat="42.9546018" lon="12.7306254"><ele>310.0</ele><time>2026-04-25T15:59:12.448Z</time></trkpt><trkpt lat="42.9546663" lon="12.730511"><ele>310.0</ele><time>2026-04-25T15:59:13.448Z</time></trkpt><trkpt lat="42.9547342" lon="12.7303937"><ele>310.0</ele><time>2026-04-25T15:59:14.448Z</time></trkpt><trkpt lat="42.9548032" lon="12.7302796"><ele>310.0</ele><time>2026-04-25T15:59:15.448Z</time></trkpt><trkpt lat="42.9548744" lon="12.7301676"><ele>310.0</ele><time>2026-04-25T15:59:16.448Z</time></trkpt><trkpt lat="42.9549433" lon="12.7300327"><ele>310.0</ele><time>2026-04-25T15:59:17.448Z</time></trkpt><trkpt lat="42.9550088" lon="12.7298883"><ele>310.75</ele><time>2026-04-25T15:59:18.448Z</time></trkpt><trkpt lat="42.9550601" lon="12.7297324"><ele>311.5</ele><time>2026-04-25T15:59:19.449Z</time></trkpt><trkpt lat="42.9551204" lon="12.7295726"><ele>312.25</ele><time>2026-04-25T15:59:20.448Z</time></trkpt><trkpt lat="42.9551738" lon="12.7294085"><ele>313.0</ele><time>2026-04-25T15:59:21.448Z</time></trkpt><trkpt lat="42.9552275" lon="12.7292451"><ele>313.0</ele><time>2026-04-25T15:59:22.449Z</time></trkpt><trkpt lat="42.9552609" lon="12.7290758"><ele>313.0</ele><time>2026-04-25T15:59:23.448Z</time></trkpt><trkpt lat="42.9552778" lon="12.7289098"><ele>313.0</ele><time>2026-04-25T15:59:24.448Z</time></trkpt><trkpt lat="42.9552895" lon="12.7287496"><ele>313.0</ele><time>2026-04-25T15:59:25.448Z</time></trkpt><trkpt lat="42.9553044" lon="12.7285927"><ele>310.6</ele><time>2026-04-25T15:59:26.448Z</time></trkpt><trkpt lat="42.9553079" lon="12.7284388"><ele>308.20000000000005</ele><time>2026-04-25T15:59:27.448Z</time></trkpt><trkpt lat="42.9553076" lon="12.72829"><ele>305.8</ele><time>2026-04-25T15:59:28.449Z</time></trkpt><trkpt lat="42.9553173" lon="12.72815"><ele>303.40000000000003</ele><time>2026-04-25T15:59:29.448Z</time></trkpt><trkpt lat="42.9553409" lon="12.7280105"><ele>301.0</ele><time>2026-04-25T15:59:30.448Z</time></trkpt><trkpt lat="42.9553783" lon="12.7278846"><ele>301.0</ele><time>2026-04-25T15:59:31.448Z</time></trkpt><trkpt lat="42.9554364" lon="12.7277698"><ele>301.0</ele><time>2026-04-25T15:59:32.448Z</time></trkpt><trkpt lat="42.955504" lon="12.7276623"><ele>301.0</ele><time>2026-04-25T15:59:33.448Z</time></trkpt><trkpt lat="42.9555775" lon="12.7275621"><ele>301.0</ele><time>2026-04-25T15:59:34.449Z</time></trkpt><trkpt lat="42.955673" lon="12.7274558"><ele>301.0</ele><time>2026-04-25T15:59:35.448Z</time></trkpt><trkpt lat="42.9557582" lon="12.7273412"><ele>300.25</ele><time>2026-04-25T15:59:36.449Z</time></trkpt><trkpt lat="42.9558491" lon="12.7272233"><ele>299.5</ele><time>2026-04-25T15:59:37.448Z</time></trkpt><trkpt lat="42.9559409" lon="12.7271061"><ele>298.75</ele><time>2026-04-25T15:59:38.448Z</time></trkpt><trkpt lat="42.95603" lon="12.7269923"><ele>298.0</ele><time>2026-04-25T15:59:39.448Z</time></trkpt><trkpt lat="42.9561136" lon="12.7268789"><ele>298.0</ele><time>2026-04-25T15:59:40.449Z</time></trkpt><trkpt lat="42.9561915" lon="12.7267736"><ele>298.0</ele><time>2026-04-25T15:59:41.448Z</time></trkpt><trkpt lat="42.9562712" lon="12.7266674"><ele>298.0</ele><time>2026-04-25T15:59:42.449Z</time></trkpt><trkpt lat="42.9563504" lon="12.7265598"><ele>298.0</ele><time>2026-04-25T15:59:43.448Z</time></trkpt><trkpt lat="42.9564299" lon="12.7264543"><ele>298.0</ele><time>2026-04-25T15:59:44.448Z</time></trkpt><trkpt lat="42.9565113" lon="12.7263371"><ele>298.0</ele><time>2026-04-25T15:59:45.449Z</time></trkpt><trkpt lat="42.9565921" lon="12.7262195"><ele>298.0</ele><time>2026-04-25T15:59:46.448Z</time></trkpt><trkpt lat="42.9566514" lon="12.7260842"><ele>298.0</ele><time>2026-04-25T15:59:47.449Z</time></trkpt><trkpt lat="42.956697" lon="12.7259626"><ele>298.0</ele><time>2026-04-25T15:59:48.448Z</time></trkpt><trkpt lat="42.9567139" lon="12.7258202"><ele>298.0</ele><time>2026-04-25T15:59:49.448Z</time></trkpt><trkpt lat="42.956711" lon="12.7256794"><ele>296.0</ele><time>2026-04-25T15:59:50.448Z</time></trkpt><trkpt lat="42.9566908" lon="12.7255452"><ele>294.0</ele><time>2026-04-25T15:59:51.449Z</time></trkpt><trkpt lat="42.9566683" lon="12.7254185"><ele>292.0</ele><time>2026-04-25T15:59:52.449Z</time></trkpt><trkpt lat="42.9566391" lon="12.7252962"><ele>290.0</ele><time>2026-04-25T15:59:53.448Z</time></trkpt><trkpt lat="42.9566041" lon="12.7251841"><ele>288.0</ele><time>2026-04-25T15:59:54.449Z</time></trkpt><trkpt lat="42.9565725" lon="12.7250589"><ele>287.0</ele><time>2026-04-25T15:59:55.448Z</time></trkpt><trkpt lat="42.956537" lon="12.7249349"><ele>286.0</ele><time>2026-04-25T15:59:56.448Z</time></trkpt><trkpt lat="42.956499" lon="12.7248039"><ele>285.0</ele><time>2026-04-25T15:59:57.448Z</time></trkpt><trkpt lat="42.9564602" lon="12.7246791"><ele>284.0</ele><time>2026-04-25T15:59:58.448Z</time></trkpt><trkpt lat="42.9564175" lon="12.7245496"><ele>283.0</ele><time>2026-04-25T15:59:59.449Z</time></trkpt><trkpt lat="42.9563847" lon="12.7244106"><ele>282.4</ele><time>2026-04-25T16:00:00.448Z</time></trkpt><trkpt lat="42.9563548" lon="12.7242818"><ele>281.8</ele><time>2026-04-25T16:00:01.448Z</time></trkpt><trkpt lat="42.9563206" lon="12.7241599"><ele>281.2</ele><time>2026-04-25T16:00:02.448Z</time></trkpt><trkpt lat="42.9562875" lon="12.7240361"><ele>280.6</ele><time>2026-04-25T16:00:03.448Z</time></trkpt><trkpt lat="42.956252" lon="12.7239151"><ele>280.0</ele><time>2026-04-25T16:00:04.449Z</time></trkpt><trkpt lat="42.9562188" lon="12.723792"><ele>280.0</ele><time>2026-04-25T16:00:05.448Z</time></trkpt><trkpt lat="42.9561855" lon="12.7236701"><ele>280.0</ele><time>2026-04-25T16:00:06.448Z</time></trkpt><trkpt lat="42.956152" lon="12.7235586"><ele>280.0</ele><time>2026-04-25T16:00:07.448Z</time></trkpt><trkpt lat="42.9561229" lon="12.7234458"><ele>280.0</ele><time>2026-04-25T16:00:08.448Z</time></trkpt><trkpt lat="42.9560951" lon="12.7233338"><ele>280.0</ele><time>2026-04-25T16:00:09.449Z</time></trkpt><trkpt lat="42.9560608" lon="12.7232321"><ele>280.0</ele><time>2026-04-25T16:00:10.448Z</time></trkpt><trkpt lat="42.956031" lon="12.7231212"><ele>279.0</ele><time>2026-04-25T16:00:11.448Z</time></trkpt><trkpt lat="42.9560124" lon="12.7230159"><ele>278.0</ele><time>2026-04-25T16:00:12.449Z</time></trkpt><trkpt lat="42.9559972" lon="12.7229109"><ele>277.0</ele><time>2026-04-25T16:00:13.448Z</time></trkpt><trkpt lat="42.9559972" lon="12.7228054"><ele>276.0</ele><time>2026-04-25T16:00:14.448Z</time></trkpt><trkpt lat="42.9560141" lon="12.7227091"><ele>275.0</ele><time>2026-04-25T16:00:15.448Z</time></trkpt><trkpt lat="42.9560473" lon="12.7226132"><ele>274.0</ele><time>2026-04-25T16:00:16.448Z</time></trkpt><trkpt lat="42.9560925" lon="12.7225174"><ele>273.4</ele><time>2026-04-25T16:00:17.449Z</time></trkpt><trkpt lat="42.9561621" lon="12.7224485"><ele>272.79999999999995</ele><time>2026-04-25T16:00:18.449Z</time></trkpt><trkpt lat="42.9562445" lon="12.7223903"><ele>272.20000000000005</ele><time>2026-04-25T16:00:19.449Z</time></trkpt><trkpt lat="42.9563474" lon="12.7223783"><ele>271.6</ele><time>2026-04-25T16:00:20.448Z</time></trkpt><trkpt lat="42.9564406" lon="12.722361"><ele>271.0</ele><time>2026-04-25T16:00:21.448Z</time></trkpt><trkpt lat="42.9565359" lon="12.7223488"><ele>271.0</ele><time>2026-04-25T16:00:22.448Z</time></trkpt><trkpt lat="42.9566361" lon="12.7223399"><ele>271.0</ele><time>2026-04-25T16:00:23.449Z</time></trkpt><trkpt lat="42.9567435" lon="12.7223276"><ele>271.0</ele><time>2026-04-25T16:00:24.448Z</time></trkpt><trkpt lat="42.9568599" lon="12.7223123"><ele>271.0</ele><time>2026-04-25T16:00:25.449Z</time></trkpt><trkpt lat="42.9569848" lon="12.7223083"><ele>270.75</ele><time>2026-04-25T16:00:26.448Z</time></trkpt><trkpt lat="42.9571085" lon="12.7223006"><ele>270.5</ele><time>2026-04-25T16:00:27.448Z</time></trkpt><trkpt lat="42.9572423" lon="12.7222905"><ele>270.25</ele><time>2026-04-25T16:00:28.448Z</time></trkpt><trkpt lat="42.9573719" lon="12.7222739"><ele>270.0</ele><time>2026-04-25T16:00:29.449Z</time></trkpt><trkpt lat="42.9574952" lon="12.7222603"><ele>270.0</ele><time>2026-04-25T16:00:30.448Z</time></trkpt><trkpt lat="42.9576167" lon="12.7222438"><ele>270.0</ele><time>2026-04-25T16:00:31.448Z</time></trkpt><trkpt lat="42.957737" lon="12.7222314"><ele>270.0</ele><time>2026-04-25T16:00:32.448Z</time></trkpt><trkpt lat="42.9578539" lon="12.7222172"><ele>270.0</ele><time>2026-04-25T16:00:33.448Z</time></trkpt><trkpt lat="42.9579703" lon="12.7221968"><ele>270.0</ele><time>2026-04-25T16:00:34.449Z</time></trkpt><trkpt lat="42.9580932" lon="12.7221732"><ele>270.0</ele><time>2026-04-25T16:00:35.448Z</time></trkpt><trkpt lat="42.9582129" lon="12.7221455"><ele>270.0</ele><time>2026-04-25T16:00:36.448Z</time></trkpt><trkpt lat="42.9583319" lon="12.7221176"><ele>270.0</ele><time>2026-04-25T16:00:37.448Z</time></trkpt><trkpt lat="42.9584511" lon="12.7220848"><ele>270.25</ele><time>2026-04-25T16:00:38.448Z</time></trkpt><trkpt lat="42.9585763" lon="12.7220384"><ele>270.5</ele><time>2026-04-25T16:00:39.448Z</time></trkpt><trkpt lat="42.9587019" lon="12.7220042"><ele>270.75</ele><time>2026-04-25T16:00:40.448Z</time></trkpt><trkpt lat="42.9588332" lon="12.7219587"><ele>271.0</ele><time>2026-04-25T16:00:41.448Z</time></trkpt><trkpt lat="42.9589772" lon="12.72191"><ele>269.0</ele><time>2026-04-25T16:00:42.448Z</time></trkpt><trkpt lat="42.9591292" lon="12.7218605"><ele>267.0</ele><time>2026-04-25T16:00:43.448Z</time></trkpt><trkpt lat="42.9592794" lon="12.7218159"><ele>265.0</ele><time>2026-04-25T16:00:44.448Z</time></trkpt><trkpt lat="42.9594355" lon="12.7217646"><ele>264.66666666666663</ele><time>2026-04-25T16:00:45.448Z</time></trkpt><trkpt lat="42.9595973" lon="12.7217092"><ele>264.3333333333333</ele><time>2026-04-25T16:00:46.448Z</time></trkpt><trkpt lat="42.9597579" lon="12.7216477"><ele>264.0</ele><time>2026-04-25T16:00:47.448Z</time></trkpt><trkpt lat="42.9599261" lon="12.7215927"><ele>262.3333333333333</ele><time>2026-04-25T16:00:48.449Z</time></trkpt><trkpt lat="42.9600993" lon="12.7215289"><ele>260.66666666666663</ele><time>2026-04-25T16:00:49.448Z</time></trkpt><trkpt lat="42.960268" lon="12.721454"><ele>259.0</ele><time>2026-04-25T16:00:50.448Z</time></trkpt><trkpt lat="42.9604487" lon="12.7213932"><ele>259.0</ele><time>2026-04-25T16:00:51.448Z</time></trkpt><trkpt lat="42.9606387" lon="12.7213432"><ele>259.0</ele><time>2026-04-25T16:00:52.448Z</time></trkpt><trkpt lat="42.9608353" lon="12.7212927"><ele>259.0</ele><time>2026-04-25T16:00:53.449Z</time></trkpt><trkpt lat="42.961036" lon="12.7212449"><ele>256.66666666666663</ele><time>2026-04-25T16:00:54.449Z</time></trkpt><trkpt lat="42.961243" lon="12.7211989"><ele>254.33333333333331</ele><time>2026-04-25T16:00:55.448Z</time></trkpt><trkpt lat="42.9614658" lon="12.7211475"><ele>252.0</ele><time>2026-04-25T16:00:56.448Z</time></trkpt><trkpt lat="42.9616896" lon="12.7210801"><ele>250.0</ele><time>2026-04-25T16:00:57.448Z</time></trkpt><trkpt lat="42.9619299" lon="12.7210044"><ele>248.0</ele><time>2026-04-25T16:00:58.448Z</time></trkpt><trkpt lat="42.9621686" lon="12.7209301"><ele>248.0</ele><time>2026-04-25T16:00:59.448Z</time></trkpt><trkpt lat="42.962406" lon="12.7208437"><ele>248.0</ele><time>2026-04-25T16:01:00.448Z</time></trkpt><trkpt lat="42.9626534" lon="12.7207727"><ele>248.0</ele><time>2026-04-25T16:01:01.448Z</time></trkpt><trkpt lat="42.962902" lon="12.7206966"><ele>248.0</ele><time>2026-04-25T16:01:02.448Z</time></trkpt><trkpt lat="42.9631414" lon="12.7205985"><ele>247.5</ele><time>2026-04-25T16:01:03.448Z</time></trkpt><trkpt lat="42.9633849" lon="12.7204863"><ele>247.0</ele><time>2026-04-25T16:01:04.449Z</time></trkpt><trkpt lat="42.9636239" lon="12.720371"><ele>247.0</ele><time>2026-04-25T16:01:05.448Z</time></trkpt><trkpt lat="42.9638549" lon="12.7202618"><ele>247.0</ele><time>2026-04-25T16:01:06.448Z</time></trkpt><trkpt lat="42.9640813" lon="12.7201494"><ele>247.0</ele><time>2026-04-25T16:01:07.448Z</time></trkpt><trkpt lat="42.9643131" lon="12.7200319"><ele>247.0</ele><time>2026-04-25T16:01:08.449Z</time></trkpt><trkpt lat="42.9645387" lon="12.719919"><ele>247.0</ele><time>2026-04-25T16:01:09.448Z</time></trkpt><trkpt lat="42.9647604" lon="12.7198087"><ele>247.0</ele><time>2026-04-25T16:01:10.448Z</time></trkpt><trkpt lat="42.964984" lon="12.7196919"><ele>246.0</ele><time>2026-04-25T16:01:11.448Z</time></trkpt><trkpt lat="42.965206" lon="12.7195769"><ele>245.0</ele><time>2026-04-25T16:01:12.448Z</time></trkpt><trkpt lat="42.9654312" lon="12.7194586"><ele>245.0</ele><time>2026-04-25T16:01:13.449Z</time></trkpt><trkpt lat="42.9656569" lon="12.7193441"><ele>245.0</ele><time>2026-04-25T16:01:14.448Z</time></trkpt><trkpt lat="42.9658834" lon="12.719244"><ele>246.0</ele><time>2026-04-25T16:01:15.448Z</time></trkpt><trkpt lat="42.9661142" lon="12.7191389"><ele>247.0</ele><time>2026-04-25T16:01:16.448Z</time></trkpt><trkpt lat="42.9663447" lon="12.7190313"><ele>247.0</ele><time>2026-04-25T16:01:17.448Z</time></trkpt><trkpt lat="42.9665749" lon="12.7189245"><ele>247.0</ele><time>2026-04-25T16:01:18.448Z</time></trkpt><trkpt lat="42.9668059" lon="12.7188201"><ele>246.0</ele><time>2026-04-25T16:01:19.448Z</time></trkpt><trkpt lat="42.9670316" lon="12.7187163"><ele>245.0</ele><time>2026-04-25T16:01:20.448Z</time></trkpt><trkpt lat="42.9672613" lon="12.7186065"><ele>244.5</ele><time>2026-04-25T16:01:21.449Z</time></trkpt><trkpt lat="42.9674939" lon="12.7185022"><ele>244.0</ele><time>2026-04-25T16:01:22.448Z</time></trkpt><trkpt lat="42.9677209" lon="12.7183906"><ele>244.0</ele><time>2026-04-25T16:01:23.448Z</time></trkpt><trkpt lat="42.967945" lon="12.7182887"><ele>244.0</ele><time>2026-04-25T16:01:24.448Z</time></trkpt><trkpt lat="42.9681739" lon="12.7181832"><ele>243.5</ele><time>2026-04-25T16:01:25.448Z</time></trkpt><trkpt lat="42.9683865" lon="12.7180787"><ele>243.0</ele><time>2026-04-25T16:01:26.448Z</time></trkpt><trkpt lat="42.9686034" lon="12.7179767"><ele>243.0</ele><time>2026-04-25T16:01:27.448Z</time></trkpt><trkpt lat="42.9688152" lon="12.7178831"><ele>243.0</ele><time>2026-04-25T16:01:28.448Z</time></trkpt><trkpt lat="42.969035" lon="12.7177746"><ele>244.0</ele><time>2026-04-25T16:01:29.448Z</time></trkpt><trkpt lat="42.9692435" lon="12.7176682"><ele>245.0</ele><time>2026-04-25T16:01:30.448Z</time></trkpt><trkpt lat="42.9694502" lon="12.717577"><ele>246.0</ele><time>2026-04-25T16:01:31.448Z</time></trkpt><trkpt lat="42.9696553" lon="12.7174743"><ele>246.0</ele><time>2026-04-25T16:01:32.448Z</time></trkpt><trkpt lat="42.9698557" lon="12.7173728"><ele>246.0</ele><time>2026-04-25T16:01:33.448Z</time></trkpt><trkpt lat="42.9700597" lon="12.7172748"><ele>246.0</ele><time>2026-04-25T16:01:34.449Z</time></trkpt><trkpt lat="42.9702666" lon="12.7171824"><ele>246.0</ele><time>2026-04-25T16:01:35.448Z</time></trkpt><trkpt lat="42.9704684" lon="12.717103"><ele>246.0</ele><time>2026-04-25T16:01:36.448Z</time></trkpt><trkpt lat="42.9706722" lon="12.7170125"><ele>246.0</ele><time>2026-04-25T16:01:37.449Z</time></trkpt><trkpt lat="42.9708674" lon="12.7169255"><ele>245.33333333333331</ele><time>2026-04-25T16:01:38.448Z</time></trkpt><trkpt lat="42.9710673" lon="12.716832"><ele>244.66666666666666</ele><time>2026-04-25T16:01:39.448Z</time></trkpt><trkpt lat="42.9712524" lon="12.716757"><ele>244.0</ele><time>2026-04-25T16:01:40.448Z</time></trkpt><trkpt lat="42.9714244" lon="12.7166821"><ele>244.0</ele><time>2026-04-25T16:01:41.448Z</time></trkpt><trkpt lat="42.971589" lon="12.7165946"><ele>244.0</ele><time>2026-04-25T16:01:42.449Z</time></trkpt><trkpt lat="42.9717397" lon="12.7165276"><ele>244.0</ele><time>2026-04-25T16:01:43.448Z</time></trkpt><trkpt lat="42.9718813" lon="12.7164782"><ele>244.0</ele><time>2026-04-25T16:01:44.448Z</time></trkpt><trkpt lat="42.9720211" lon="12.7164592"><ele>244.0</ele><time>2026-04-25T16:01:45.448Z</time></trkpt><trkpt lat="42.97216" lon="12.7164813"><ele>244.0</ele><time>2026-04-25T16:01:46.448Z</time></trkpt><trkpt lat="42.9722879" lon="12.7165264"><ele>244.0</ele><time>2026-04-25T16:01:47.448Z</time></trkpt><trkpt lat="42.9724175" lon="12.716585"><ele>244.33333333333331</ele><time>2026-04-25T16:01:48.448Z</time></trkpt><trkpt lat="42.9725495" lon="12.7166908"><ele>244.66666666666669</ele><time>2026-04-25T16:01:49.448Z</time></trkpt><trkpt lat="42.9726737" lon="12.7168168"><ele>245.0</ele><time>2026-04-25T16:01:50.448Z</time></trkpt><trkpt lat="42.9727999" lon="12.716943"><ele>245.0</ele><time>2026-04-25T16:01:51.448Z</time></trkpt><trkpt lat="42.9729205" lon="12.7170649"><ele>245.0</ele><time>2026-04-25T16:01:52.448Z</time></trkpt><trkpt lat="42.9730408" lon="12.7171825"><ele>245.0</ele><time>2026-04-25T16:01:53.448Z</time></trkpt><trkpt lat="42.9731635" lon="12.7172577"><ele>245.0</ele><time>2026-04-25T16:01:54.448Z</time></trkpt><trkpt lat="42.9732967" lon="12.7172966"><ele>245.75</ele><time>2026-04-25T16:01:55.448Z</time></trkpt><trkpt lat="42.9734318" lon="12.7172859"><ele>246.5</ele><time>2026-04-25T16:01:56.448Z</time></trkpt><trkpt lat="42.9735681" lon="12.7172478"><ele>247.25</ele><time>2026-04-25T16:01:57.448Z</time></trkpt><trkpt lat="42.9736929" lon="12.7171689"><ele>248.0</ele><time>2026-04-25T16:01:58.448Z</time></trkpt><trkpt lat="42.97379" lon="12.7170385"><ele>248.0</ele><time>2026-04-25T16:01:59.448Z</time></trkpt><trkpt lat="42.9738703" lon="12.7168721"><ele>248.0</ele><time>2026-04-25T16:02:00.448Z</time></trkpt><trkpt lat="42.9739305" lon="12.7166789"><ele>248.0</ele><time>2026-04-25T16:02:01.448Z</time></trkpt><trkpt lat="42.9739573" lon="12.7164574"><ele>248.0</ele><time>2026-04-25T16:02:02.449Z</time></trkpt><trkpt lat="42.9739693" lon="12.7162372"><ele>248.0</ele><time>2026-04-25T16:02:03.448Z</time></trkpt><trkpt lat="42.9739728" lon="12.7160077"><ele>248.0</ele><time>2026-04-25T16:02:04.448Z</time></trkpt><trkpt lat="42.9739759" lon="12.7157645"><ele>247.66666666666669</ele><time>2026-04-25T16:02:05.448Z</time></trkpt><trkpt lat="42.9739768" lon="12.7155185"><ele>247.33333333333331</ele><time>2026-04-25T16:02:06.448Z</time></trkpt><trkpt lat="42.9739768" lon="12.7152674"><ele>247.0</ele><time>2026-04-25T16:02:07.448Z</time></trkpt><trkpt lat="42.9739654" lon="12.7149988"><ele>246.66666666666666</ele><time>2026-04-25T16:02:08.448Z</time></trkpt><trkpt lat="42.9739327" lon="12.7147082"><ele>246.33333333333331</ele><time>2026-04-25T16:02:09.448Z</time></trkpt><trkpt lat="42.9739056" lon="12.7144325"><ele>246.0</ele><time>2026-04-25T16:02:10.448Z</time></trkpt><trkpt lat="42.973869" lon="12.7141575"><ele>245.66666666666669</ele><time>2026-04-25T16:02:11.449Z</time></trkpt><trkpt lat="42.9738287" lon="12.7138926"><ele>245.33333333333334</ele><time>2026-04-25T16:02:12.448Z</time></trkpt><trkpt lat="42.9737854" lon="12.7136274"><ele>245.0</ele><time>2026-04-25T16:02:13.449Z</time></trkpt><trkpt lat="42.9737509" lon="12.7133566"><ele>245.66666666666669</ele><time>2026-04-25T16:02:14.449Z</time></trkpt><trkpt lat="42.9737141" lon="12.7130787"><ele>246.33333333333331</ele><time>2026-04-25T16:02:15.448Z</time></trkpt><trkpt lat="42.9736711" lon="12.7127973"><ele>247.0</ele><time>2026-04-25T16:02:16.448Z</time></trkpt><trkpt lat="42.9736325" lon="12.7125116"><ele>247.0</ele><time>2026-04-25T16:02:17.448Z</time></trkpt><trkpt lat="42.973588" lon="12.7122239"><ele>247.0</ele><time>2026-04-25T16:02:18.448Z</time></trkpt><trkpt lat="42.9735377" lon="12.7119313"><ele>247.0</ele><time>2026-04-25T16:02:19.448Z</time></trkpt><trkpt lat="42.9734896" lon="12.7116347"><ele>247.66666666666666</ele><time>2026-04-25T16:02:20.448Z</time></trkpt><trkpt lat="42.973439" lon="12.7113367"><ele>248.33333333333331</ele><time>2026-04-25T16:02:21.448Z</time></trkpt><trkpt lat="42.9733883" lon="12.7110383"><ele>249.0</ele><time>2026-04-25T16:02:22.448Z</time></trkpt><trkpt lat="42.9733406" lon="12.710731"><ele>248.0</ele><time>2026-04-25T16:02:23.448Z</time></trkpt><trkpt lat="42.9732904" lon="12.7104273"><ele>247.0</ele><time>2026-04-25T16:02:24.448Z</time></trkpt><trkpt lat="42.9732397" lon="12.7101166"><ele>247.0</ele><time>2026-04-25T16:02:25.449Z</time></trkpt><trkpt lat="42.9731931" lon="12.7098135"><ele>247.0</ele><time>2026-04-25T16:02:26.448Z</time></trkpt><trkpt lat="42.973148" lon="12.7095052"><ele>247.0</ele><time>2026-04-25T16:02:27.448Z</time></trkpt><trkpt lat="42.9730945" lon="12.7092026"><ele>247.0</ele><time>2026-04-25T16:02:28.448Z</time></trkpt><trkpt lat="42.9730367" lon="12.7088989"><ele>247.0</ele><time>2026-04-25T16:02:29.448Z</time></trkpt><trkpt lat="42.972969" lon="12.7085915"><ele>247.0</ele><time>2026-04-25T16:02:30.449Z</time></trkpt><trkpt lat="42.9729004" lon="12.7082953"><ele>245.5</ele><time>2026-04-25T16:02:31.448Z</time></trkpt><trkpt lat="42.9728129" lon="12.707976"><ele>244.0</ele><time>2026-04-25T16:02:32.448Z</time></trkpt><trkpt lat="42.9727259" lon="12.7076725"><ele>243.5</ele><time>2026-04-25T16:02:33.448Z</time></trkpt><trkpt lat="42.9726265" lon="12.7073742"><ele>243.0</ele><time>2026-04-25T16:02:34.448Z</time></trkpt><trkpt lat="42.9725209" lon="12.7070773"><ele>242.0</ele><time>2026-04-25T16:02:35.449Z</time></trkpt><trkpt lat="42.9724093" lon="12.7067849"><ele>241.0</ele><time>2026-04-25T16:02:36.448Z</time></trkpt><trkpt lat="42.9722921" lon="12.7064904"><ele>241.0</ele><time>2026-04-25T16:02:37.448Z</time></trkpt><trkpt lat="42.9721719" lon="12.7062007"><ele>241.0</ele><time>2026-04-25T16:02:38.448Z</time></trkpt><trkpt lat="42.9720542" lon="12.7059063"><ele>244.5</ele><time>2026-04-25T16:02:39.448Z</time></trkpt><trkpt lat="42.9719328" lon="12.7056248"><ele>248.0</ele><time>2026-04-25T16:02:40.448Z</time></trkpt><trkpt lat="42.9718111" lon="12.7053377"><ele>247.0</ele><time>2026-04-25T16:02:41.449Z</time></trkpt><trkpt lat="42.9716897" lon="12.7050516"><ele>246.0</ele><time>2026-04-25T16:02:42.448Z</time></trkpt><trkpt lat="42.971567" lon="12.7047661"><ele>246.0</ele><time>2026-04-25T16:02:43.449Z</time></trkpt><trkpt lat="42.9714447" lon="12.7044865"><ele>246.0</ele><time>2026-04-25T16:02:44.448Z</time></trkpt><trkpt lat="42.9713151" lon="12.7042096"><ele>246.5</ele><time>2026-04-25T16:02:45.449Z</time></trkpt><trkpt lat="42.9711904" lon="12.7039237"><ele>247.0</ele><time>2026-04-25T16:02:46.449Z</time></trkpt><trkpt lat="42.9710657" lon="12.7036432"><ele>245.5</ele><time>2026-04-25T16:02:47.449Z</time></trkpt><trkpt lat="42.9709431" lon="12.7033668"><ele>244.0</ele><time>2026-04-25T16:02:48.448Z</time></trkpt><trkpt lat="42.9708247" lon="12.7030865"><ele>243.5</ele><time>2026-04-25T16:02:49.449Z</time></trkpt><trkpt lat="42.9707027" lon="12.7027989"><ele>243.0</ele><time>2026-04-25T16:02:50.448Z</time></trkpt><trkpt lat="42.9705835" lon="12.7025082"><ele>241.5</ele><time>2026-04-25T16:02:51.448Z</time></trkpt><trkpt lat="42.9704813" lon="12.7022143"><ele>240.0</ele><time>2026-04-25T16:02:52.449Z</time></trkpt><trkpt lat="42.9704017" lon="12.7019099"><ele>238.5</ele><time>2026-04-25T16:02:53.448Z</time></trkpt><trkpt lat="42.9703446" lon="12.7016017"><ele>237.0</ele><time>2026-04-25T16:02:54.448Z</time></trkpt><trkpt lat="42.970301" lon="12.7012943"><ele>237.0</ele><time>2026-04-25T16:02:55.448Z</time></trkpt><trkpt lat="42.9702707" lon="12.7009802"><ele>237.0</ele><time>2026-04-25T16:02:56.448Z</time></trkpt><trkpt lat="42.9702557" lon="12.7006569"><ele>237.0</ele><time>2026-04-25T16:02:57.448Z</time></trkpt><trkpt lat="42.970255" lon="12.7003434"><ele>237.0</ele><time>2026-04-25T16:02:58.448Z</time></trkpt><trkpt lat="42.9702699" lon="12.7000306"><ele>237.0</ele><time>2026-04-25T16:02:59.448Z</time></trkpt><trkpt lat="42.9703103" lon="12.6997193"><ele>237.0</ele><time>2026-04-25T16:03:00.448Z</time></trkpt><trkpt lat="42.9703651" lon="12.6994121"><ele>237.5</ele><time>2026-04-25T16:03:01.448Z</time></trkpt><trkpt lat="42.9704389" lon="12.6991175"><ele>238.0</ele><time>2026-04-25T16:03:02.449Z</time></trkpt><trkpt lat="42.9705236" lon="12.6988336"><ele>237.33333333333331</ele><time>2026-04-25T16:03:03.448Z</time></trkpt><trkpt lat="42.9706112" lon="12.6985549"><ele>236.66666666666669</ele><time>2026-04-25T16:03:04.448Z</time></trkpt><trkpt lat="42.9707159" lon="12.698279"><ele>236.0</ele><time>2026-04-25T16:03:05.448Z</time></trkpt><trkpt lat="42.970815" lon="12.6979911"><ele>236.0</ele><time>2026-04-25T16:03:06.448Z</time></trkpt><trkpt lat="42.9709161" lon="12.6977068"><ele>236.0</ele><time>2026-04-25T16:03:07.448Z</time></trkpt><trkpt lat="42.9710223" lon="12.6974218"><ele>236.0</ele><time>2026-04-25T16:03:08.449Z</time></trkpt><trkpt lat="42.9711263" lon="12.6971334"><ele>236.0</ele><time>2026-04-25T16:03:09.448Z</time></trkpt><trkpt lat="42.9712277" lon="12.6968384"><ele>236.5</ele><time>2026-04-25T16:03:10.448Z</time></trkpt><trkpt lat="42.9713322" lon="12.6965499"><ele>237.0</ele><time>2026-04-25T16:03:11.448Z</time></trkpt><trkpt lat="42.9714333" lon="12.6962605"><ele>235.0</ele><time>2026-04-25T16:03:12.448Z</time></trkpt><trkpt lat="42.9715321" lon="12.6959712"><ele>233.0</ele><time>2026-04-25T16:03:13.448Z</time></trkpt><trkpt lat="42.9716228" lon="12.6956799"><ele>233.0</ele><time>2026-04-25T16:03:14.448Z</time></trkpt><trkpt lat="42.9717174" lon="12.695393"><ele>233.0</ele><time>2026-04-25T16:03:15.448Z</time></trkpt><trkpt lat="42.9718136" lon="12.695103"><ele>233.0</ele><time>2026-04-25T16:03:16.448Z</time></trkpt><trkpt lat="42.9719104" lon="12.694821"><ele>233.0</ele><time>2026-04-25T16:03:17.448Z</time></trkpt><trkpt lat="42.9720097" lon="12.694543"><ele>233.5</ele><time>2026-04-25T16:03:18.448Z</time></trkpt><trkpt lat="42.9721104" lon="12.6942551"><ele>234.0</ele><time>2026-04-25T16:03:19.449Z</time></trkpt><trkpt lat="42.9722166" lon="12.6939672"><ele>234.0</ele><time>2026-04-25T16:03:20.448Z</time></trkpt><trkpt lat="42.9723229" lon="12.6936814"><ele>234.0</ele><time>2026-04-25T16:03:21.449Z</time></trkpt><trkpt lat="42.9724307" lon="12.6933884"><ele>234.0</ele><time>2026-04-25T16:03:22.448Z</time></trkpt><trkpt lat="42.9725371" lon="12.693102"><ele>234.0</ele><time>2026-04-25T16:03:23.448Z</time></trkpt><trkpt lat="42.9726451" lon="12.6928103"><ele>234.0</ele><time>2026-04-25T16:03:24.448Z</time></trkpt><trkpt lat="42.9727627" lon="12.6925351"><ele>234.0</ele><time>2026-04-25T16:03:25.448Z</time></trkpt><trkpt lat="42.9728868" lon="12.692258"><ele>234.0</ele><time>2026-04-25T16:03:26.448Z</time></trkpt><trkpt lat="42.9730154" lon="12.6919822"><ele>234.0</ele><time>2026-04-25T16:03:27.448Z</time></trkpt><trkpt lat="42.9731418" lon="12.691703"><ele>234.0</ele><time>2026-04-25T16:03:28.448Z</time></trkpt><trkpt lat="42.9732638" lon="12.6914227"><ele>234.0</ele><time>2026-04-25T16:03:29.448Z</time></trkpt><trkpt lat="42.9733886" lon="12.6911443"><ele>236.0</ele><time>2026-04-25T16:03:30.448Z</time></trkpt><trkpt lat="42.9735186" lon="12.6908777"><ele>238.0</ele><time>2026-04-25T16:03:31.448Z</time></trkpt><trkpt lat="42.9736437" lon="12.6906042"><ele>238.0</ele><time>2026-04-25T16:03:32.448Z</time></trkpt><trkpt lat="42.9737701" lon="12.6903374"><ele>238.0</ele><time>2026-04-25T16:03:33.448Z</time></trkpt><trkpt lat="42.9738984" lon="12.6900673"><ele>236.5</ele><time>2026-04-25T16:03:34.448Z</time></trkpt><trkpt lat="42.9740197" lon="12.689801"><ele>235.0</ele><time>2026-04-25T16:03:35.448Z</time></trkpt><trkpt lat="42.9741454" lon="12.6895326"><ele>233.5</ele><time>2026-04-25T16:03:36.449Z</time></trkpt><trkpt lat="42.9742699" lon="12.6892681"><ele>232.0</ele><time>2026-04-25T16:03:37.448Z</time></trkpt><trkpt lat="42.9743974" lon="12.6890046"><ele>232.0</ele><time>2026-04-25T16:03:38.448Z</time></trkpt><trkpt lat="42.9745127" lon="12.6887377"><ele>232.0</ele><time>2026-04-25T16:03:39.448Z</time></trkpt><trkpt lat="42.9746326" lon="12.6884819"><ele>232.0</ele><time>2026-04-25T16:03:40.449Z</time></trkpt><trkpt lat="42.9747549" lon="12.6882171"><ele>231.0</ele><time>2026-04-25T16:03:41.449Z</time></trkpt><trkpt lat="42.9748792" lon="12.6879546"><ele>230.0</ele><time>2026-04-25T16:03:42.449Z</time></trkpt><trkpt lat="42.9749947" lon="12.6876933"><ele>229.33333333333334</ele><time>2026-04-25T16:03:43.448Z</time></trkpt><trkpt lat="42.9751204" lon="12.6874409"><ele>228.66666666666669</ele><time>2026-04-25T16:03:44.448Z</time></trkpt><trkpt lat="42.9752444" lon="12.6871885"><ele>228.0</ele><time>2026-04-25T16:03:45.448Z</time></trkpt><trkpt lat="42.975366" lon="12.6869257"><ele>227.33333333333331</ele><time>2026-04-25T16:03:46.448Z</time></trkpt><trkpt lat="42.9754851" lon="12.6866712"><ele>226.66666666666666</ele><time>2026-04-25T16:03:47.448Z</time></trkpt><trkpt lat="42.9756085" lon="12.6864138"><ele>226.0</ele><time>2026-04-25T16:03:48.448Z</time></trkpt><trkpt lat="42.9757315" lon="12.6861497"><ele>228.0</ele><time>2026-04-25T16:03:49.448Z</time></trkpt><trkpt lat="42.9758551" lon="12.6858827"><ele>230.0</ele><time>2026-04-25T16:03:50.448Z</time></trkpt><trkpt lat="42.9759766" lon="12.6856088"><ele>230.0</ele><time>2026-04-25T16:03:51.449Z</time></trkpt><trkpt lat="42.9761006" lon="12.6853502"><ele>230.0</ele><time>2026-04-25T16:03:52.448Z</time></trkpt><trkpt lat="42.9762231" lon="12.6850847"><ele>229.0</ele><time>2026-04-25T16:03:53.448Z</time></trkpt><trkpt lat="42.9763492" lon="12.6848135"><ele>228.0</ele><time>2026-04-25T16:03:54.448Z</time></trkpt><trkpt lat="42.9764734" lon="12.6845412"><ele>227.0</ele><time>2026-04-25T16:03:55.448Z</time></trkpt><trkpt lat="42.9765958" lon="12.6842697"><ele>226.0</ele><time>2026-04-25T16:03:56.448Z</time></trkpt><trkpt lat="42.9767203" lon="12.6839878"><ele>226.0</ele><time>2026-04-25T16:03:57.448Z</time></trkpt><trkpt lat="42.9768473" lon="12.683719"><ele>226.0</ele><time>2026-04-25T16:03:58.448Z</time></trkpt><trkpt lat="42.9769748" lon="12.6834415"><ele>226.5</ele><time>2026-04-25T16:03:59.449Z</time></trkpt><trkpt lat="42.9771015" lon="12.6831662"><ele>227.0</ele><time>2026-04-25T16:04:00.449Z</time></trkpt><trkpt lat="42.9772285" lon="12.6828904"><ele>226.0</ele><time>2026-04-25T16:04:01.448Z</time></trkpt><trkpt lat="42.977357" lon="12.6826191"><ele>225.0</ele><time>2026-04-25T16:04:02.448Z</time></trkpt><trkpt lat="42.9774896" lon="12.6823453"><ele>225.0</ele><time>2026-04-25T16:04:03.448Z</time></trkpt><trkpt lat="42.9776217" lon="12.6820771"><ele>225.0</ele><time>2026-04-25T16:04:04.448Z</time></trkpt><trkpt lat="42.9777435" lon="12.6817992"><ele>224.5</ele><time>2026-04-25T16:04:05.448Z</time></trkpt><trkpt lat="42.9778734" lon="12.6815204"><ele>224.0</ele><time>2026-04-25T16:04:06.448Z</time></trkpt><trkpt lat="42.9779953" lon="12.6812453"><ele>223.5</ele><time>2026-04-25T16:04:07.448Z</time></trkpt><trkpt lat="42.9781249" lon="12.6809656"><ele>223.0</ele><time>2026-04-25T16:04:08.448Z</time></trkpt><trkpt lat="42.9782521" lon="12.6806894"><ele>224.0</ele><time>2026-04-25T16:04:09.449Z</time></trkpt><trkpt lat="42.9783807" lon="12.6804163"><ele>225.0</ele><time>2026-04-25T16:04:10.448Z</time></trkpt><trkpt lat="42.9785075" lon="12.6801364"><ele>225.0</ele><time>2026-04-25T16:04:11.448Z</time></trkpt><trkpt lat="42.9786347" lon="12.6798606"><ele>225.0</ele><time>2026-04-25T16:04:12.448Z</time></trkpt><trkpt lat="42.9787618" lon="12.6795855"><ele>223.5</ele><time>2026-04-25T16:04:13.448Z</time></trkpt><trkpt lat="42.9788889" lon="12.6793067"><ele>222.0</ele><time>2026-04-25T16:04:14.448Z</time></trkpt><trkpt lat="42.9790194" lon="12.679034"><ele>222.0</ele><time>2026-04-25T16:04:15.448Z</time></trkpt><trkpt lat="42.9791532" lon="12.6787599"><ele>222.0</ele><time>2026-04-25T16:04:16.448Z</time></trkpt><trkpt lat="42.9792871" lon="12.6784928"><ele>222.5</ele><time>2026-04-25T16:04:17.448Z</time></trkpt><trkpt lat="42.9794212" lon="12.6782187"><ele>223.0</ele><time>2026-04-25T16:04:18.448Z</time></trkpt><trkpt lat="42.9795612" lon="12.6779557"><ele>222.0</ele><time>2026-04-25T16:04:19.448Z</time></trkpt><trkpt lat="42.9797065" lon="12.677701"><ele>221.0</ele><time>2026-04-25T16:04:20.448Z</time></trkpt><trkpt lat="42.9798595" lon="12.6774478"><ele>221.0</ele><time>2026-04-25T16:04:21.448Z</time></trkpt><trkpt lat="42.9800091" lon="12.6771934"><ele>221.0</ele><time>2026-04-25T16:04:22.448Z</time></trkpt><trkpt lat="42.9801685" lon="12.676946"><ele>222.0</ele><time>2026-04-25T16:04:23.448Z</time></trkpt><trkpt lat="42.9803282" lon="12.6767029"><ele>223.0</ele><time>2026-04-25T16:04:24.448Z</time></trkpt><trkpt lat="42.9804952" lon="12.6764655"><ele>223.0</ele><time>2026-04-25T16:04:25.449Z</time></trkpt><trkpt lat="42.9806684" lon="12.6762371"><ele>223.0</ele><time>2026-04-25T16:04:26.448Z</time></trkpt><trkpt lat="42.9808412" lon="12.676004"><ele>222.5</ele><time>2026-04-25T16:04:27.448Z</time></trkpt><trkpt lat="42.9810146" lon="12.6757703"><ele>222.0</ele><time>2026-04-25T16:04:28.448Z</time></trkpt><trkpt lat="42.9811835" lon="12.6755329"><ele>222.0</ele><time>2026-04-25T16:04:29.448Z</time></trkpt><trkpt lat="42.9813568" lon="12.6753"><ele>222.0</ele><time>2026-04-25T16:04:30.448Z</time></trkpt><trkpt lat="42.9815271" lon="12.6750688"><ele>222.5</ele><time>2026-04-25T16:04:31.449Z</time></trkpt><trkpt lat="42.9816942" lon="12.6748421"><ele>223.0</ele><time>2026-04-25T16:04:32.448Z</time></trkpt><trkpt lat="42.9818599" lon="12.6746159"><ele>222.0</ele><time>2026-04-25T16:04:33.448Z</time></trkpt><trkpt lat="42.9820299" lon="12.6743957"><ele>221.0</ele><time>2026-04-25T16:04:34.448Z</time></trkpt><trkpt lat="42.982196" lon="12.674169"><ele>221.0</ele><time>2026-04-25T16:04:35.448Z</time></trkpt><trkpt lat="42.9823591" lon="12.6739314"><ele>221.0</ele><time>2026-04-25T16:04:36.448Z</time></trkpt><trkpt lat="42.9825269" lon="12.6737075"><ele>223.0</ele><time>2026-04-25T16:04:37.448Z</time></trkpt><trkpt lat="42.9826957" lon="12.673482"><ele>225.0</ele><time>2026-04-25T16:04:38.448Z</time></trkpt><trkpt lat="42.982865" lon="12.6732597"><ele>225.0</ele><time>2026-04-25T16:04:39.448Z</time></trkpt><trkpt lat="42.9830357" lon="12.6730387"><ele>225.0</ele><time>2026-04-25T16:04:40.449Z</time></trkpt><trkpt lat="42.9832007" lon="12.6728134"><ele>224.5</ele><time>2026-04-25T16:04:41.448Z</time></trkpt><trkpt lat="42.983369" lon="12.6725858"><ele>224.0</ele><time>2026-04-25T16:04:42.448Z</time></trkpt><trkpt lat="42.9835338" lon="12.6723603"><ele>224.0</ele><time>2026-04-25T16:04:43.448Z</time></trkpt><trkpt lat="42.9837069" lon="12.6721424"><ele>224.0</ele><time>2026-04-25T16:04:44.448Z</time></trkpt><trkpt lat="42.9838776" lon="12.6719317"><ele>223.5</ele><time>2026-04-25T16:04:45.448Z</time></trkpt><trkpt lat="42.9840482" lon="12.6717213"><ele>223.0</ele><time>2026-04-25T16:04:46.449Z</time></trkpt><trkpt lat="42.9842102" lon="12.6714988"><ele>223.0</ele><time>2026-04-25T16:04:47.448Z</time></trkpt><trkpt lat="42.9843795" lon="12.6712792"><ele>223.0</ele><time>2026-04-25T16:04:48.448Z</time></trkpt><trkpt lat="42.9845444" lon="12.6710532"><ele>222.5</ele><time>2026-04-25T16:04:49.448Z</time></trkpt><trkpt lat="42.984709" lon="12.6708284"><ele>222.0</ele><time>2026-04-25T16:04:50.448Z</time></trkpt><trkpt lat="42.9848764" lon="12.6706029"><ele>222.5</ele><time>2026-04-25T16:04:51.449Z</time></trkpt><trkpt lat="42.9850429" lon="12.6703788"><ele>223.0</ele><time>2026-04-25T16:04:52.448Z</time></trkpt><trkpt lat="42.9852109" lon="12.6701617"><ele>224.0</ele><time>2026-04-25T16:04:53.448Z</time></trkpt><trkpt lat="42.9853762" lon="12.669935"><ele>225.0</ele><time>2026-04-25T16:04:54.449Z</time></trkpt><trkpt lat="42.9855433" lon="12.669715"><ele>225.0</ele><time>2026-04-25T16:04:55.449Z</time></trkpt><trkpt lat="42.9857085" lon="12.6694928"><ele>225.0</ele><time>2026-04-25T16:04:56.448Z</time></trkpt><trkpt lat="42.9858725" lon="12.669278"><ele>224.5</ele><time>2026-04-25T16:04:57.448Z</time></trkpt><trkpt lat="42.9860333" lon="12.6690519"><ele>224.0</ele><time>2026-04-25T16:04:58.448Z</time></trkpt><trkpt lat="42.9862027" lon="12.6688323"><ele>224.0</ele><time>2026-04-25T16:04:59.448Z</time></trkpt><trkpt lat="42.986366" lon="12.6686121"><ele>224.0</ele><time>2026-04-25T16:05:00.448Z</time></trkpt><trkpt lat="42.9865279" lon="12.6684063"><ele>224.33333333333334</ele><time>2026-04-25T16:05:01.448Z</time></trkpt><trkpt lat="42.9866753" lon="12.6682037"><ele>224.66666666666669</ele><time>2026-04-25T16:05:02.448Z</time></trkpt><trkpt lat="42.9868183" lon="12.6680133"><ele>225.0</ele><time>2026-04-25T16:05:03.448Z</time></trkpt><trkpt lat="42.9869614" lon="12.667838"><ele>223.66666666666669</ele><time>2026-04-25T16:05:04.448Z</time></trkpt><trkpt lat="42.9871118" lon="12.6676639"><ele>222.33333333333334</ele><time>2026-04-25T16:05:05.448Z</time></trkpt><trkpt lat="42.9872709" lon="12.6674891"><ele>221.0</ele><time>2026-04-25T16:05:06.448Z</time></trkpt><trkpt lat="42.9874397" lon="12.6673128"><ele>220.33333333333334</ele><time>2026-04-25T16:05:07.449Z</time></trkpt><trkpt lat="42.987613" lon="12.6671531"><ele>219.66666666666669</ele><time>2026-04-25T16:05:08.448Z</time></trkpt><trkpt lat="42.9878061" lon="12.6670044"><ele>219.0</ele><time>2026-04-25T16:05:09.448Z</time></trkpt><trkpt lat="42.988009" lon="12.6668586"><ele>218.0</ele><time>2026-04-25T16:05:10.448Z</time></trkpt><trkpt lat="42.9882183" lon="12.6667178"><ele>217.0</ele><time>2026-04-25T16:05:11.448Z</time></trkpt><trkpt lat="42.988434" lon="12.6665757"><ele>216.0</ele><time>2026-04-25T16:05:12.448Z</time></trkpt><trkpt lat="42.9886548" lon="12.6664423"><ele>215.0</ele><time>2026-04-25T16:05:13.448Z</time></trkpt><trkpt lat="42.9888752" lon="12.6663163"><ele>215.0</ele><time>2026-04-25T16:05:14.448Z</time></trkpt><trkpt lat="42.9890972" lon="12.6661782"><ele>215.0</ele><time>2026-04-25T16:05:15.448Z</time></trkpt><trkpt lat="42.989323" lon="12.6660468"><ele>215.0</ele><time>2026-04-25T16:05:16.448Z</time></trkpt><trkpt lat="42.9895478" lon="12.6659094"><ele>215.0</ele><time>2026-04-25T16:05:17.449Z</time></trkpt><trkpt lat="42.9897868" lon="12.6657692"><ele>215.0</ele><time>2026-04-25T16:05:18.448Z</time></trkpt><trkpt lat="42.9900217" lon="12.665638"><ele>215.0</ele><time>2026-04-25T16:05:19.448Z</time></trkpt><trkpt lat="42.9902586" lon="12.6655047"><ele>215.0</ele><time>2026-04-25T16:05:20.448Z</time></trkpt><trkpt lat="42.9904957" lon="12.6653667"><ele>215.0</ele><time>2026-04-25T16:05:21.448Z</time></trkpt><trkpt lat="42.9907378" lon="12.6652259"><ele>214.0</ele><time>2026-04-25T16:05:22.448Z</time></trkpt><trkpt lat="42.990978" lon="12.6650856"><ele>213.0</ele><time>2026-04-25T16:05:23.448Z</time></trkpt><trkpt lat="42.9912146" lon="12.6649418"><ele>213.0</ele><time>2026-04-25T16:05:24.448Z</time></trkpt><trkpt lat="42.9914555" lon="12.6647988"><ele>213.0</ele><time>2026-04-25T16:05:25.448Z</time></trkpt><trkpt lat="42.9916965" lon="12.6646486"><ele>212.0</ele><time>2026-04-25T16:05:26.449Z</time></trkpt><trkpt lat="42.9919386" lon="12.6645022"><ele>211.0</ele><time>2026-04-25T16:05:27.449Z</time></trkpt><trkpt lat="42.9921804" lon="12.6643607"><ele>211.0</ele><time>2026-04-25T16:05:28.449Z</time></trkpt><trkpt lat="42.9924339" lon="12.6642197"><ele>211.0</ele><time>2026-04-25T16:05:29.449Z</time></trkpt><trkpt lat="42.9926825" lon="12.6640811"><ele>210.5</ele><time>2026-04-25T16:05:30.448Z</time></trkpt><trkpt lat="42.9929282" lon="12.6639355"><ele>210.0</ele><time>2026-04-25T16:05:31.448Z</time></trkpt><trkpt lat="42.9931735" lon="12.6637818"><ele>210.0</ele><time>2026-04-25T16:05:32.448Z</time></trkpt><trkpt lat="42.993415" lon="12.6636417"><ele>210.0</ele><time>2026-04-25T16:05:33.448Z</time></trkpt><trkpt lat="42.9936656" lon="12.6634982"><ele>209.5</ele><time>2026-04-25T16:05:34.448Z</time></trkpt><trkpt lat="42.9939146" lon="12.6633544"><ele>209.0</ele><time>2026-04-25T16:05:35.448Z</time></trkpt><trkpt lat="42.994165" lon="12.6632112"><ele>209.0</ele><time>2026-04-25T16:05:36.448Z</time></trkpt><trkpt lat="42.9944142" lon="12.663066"><ele>209.0</ele><time>2026-04-25T16:05:37.449Z</time></trkpt><trkpt lat="42.9946606" lon="12.6629249"><ele>209.0</ele><time>2026-04-25T16:05:38.448Z</time></trkpt><trkpt lat="42.9949077" lon="12.6627778"><ele>209.0</ele><time>2026-04-25T16:05:39.448Z</time></trkpt><trkpt lat="42.9951606" lon="12.6626688"><ele>209.0</ele><time>2026-04-25T16:05:40.449Z</time></trkpt><trkpt lat="42.9954096" lon="12.6625404"><ele>209.0</ele><time>2026-04-25T16:05:41.448Z</time></trkpt><trkpt lat="42.9956624" lon="12.662423"><ele>208.5</ele><time>2026-04-25T16:05:42.448Z</time></trkpt><trkpt lat="42.9959144" lon="12.6623143"><ele>208.0</ele><time>2026-04-25T16:05:43.448Z</time></trkpt><trkpt lat="42.9961727" lon="12.6622157"><ele>208.0</ele><time>2026-04-25T16:05:44.448Z</time></trkpt><trkpt lat="42.9964355" lon="12.6621319"><ele>208.0</ele><time>2026-04-25T16:05:45.448Z</time></trkpt><trkpt lat="42.9966995" lon="12.6620748"><ele>208.0</ele><time>2026-04-25T16:05:46.448Z</time></trkpt><trkpt lat="42.9969632" lon="12.6620044"><ele>208.0</ele><time>2026-04-25T16:05:47.448Z</time></trkpt><trkpt lat="42.997224" lon="12.6619391"><ele>208.0</ele><time>2026-04-25T16:05:48.448Z</time></trkpt><trkpt lat="42.9974839" lon="12.6618796"><ele>208.0</ele><time>2026-04-25T16:05:49.449Z</time></trkpt><trkpt lat="42.9977425" lon="12.6618124"><ele>209.0</ele><time>2026-04-25T16:05:50.449Z</time></trkpt><trkpt lat="42.9980055" lon="12.6617466"><ele>210.0</ele><time>2026-04-25T16:05:51.448Z</time></trkpt><trkpt lat="42.9982686" lon="12.6616777"><ele>209.5</ele><time>2026-04-25T16:05:52.449Z</time></trkpt><trkpt lat="42.9985309" lon="12.6616148"><ele>209.0</ele><time>2026-04-25T16:05:53.448Z</time></trkpt><trkpt lat="42.9987881" lon="12.6615597"><ele>209.0</ele><time>2026-04-25T16:05:54.448Z</time></trkpt><trkpt lat="42.9990443" lon="12.6614969"><ele>209.0</ele><time>2026-04-25T16:05:55.448Z</time></trkpt><trkpt lat="42.9993059" lon="12.6614354"><ele>209.0</ele><time>2026-04-25T16:05:56.448Z</time></trkpt><trkpt lat="42.999565" lon="12.6613714"><ele>209.0</ele><time>2026-04-25T16:05:57.449Z</time></trkpt><trkpt lat="42.9998181" lon="12.661308"><ele>209.0</ele><time>2026-04-25T16:05:58.448Z</time></trkpt><trkpt lat="43.0000739" lon="12.661252"><ele>209.0</ele><time>2026-04-25T16:05:59.448Z</time></trkpt><trkpt lat="43.0003283" lon="12.6611948"><ele>209.0</ele><time>2026-04-25T16:06:00.448Z</time></trkpt><trkpt lat="43.0005837" lon="12.6611332"><ele>209.0</ele><time>2026-04-25T16:06:01.448Z</time></trkpt><trkpt lat="43.0008362" lon="12.6610688"><ele>208.5</ele><time>2026-04-25T16:06:02.448Z</time></trkpt><trkpt lat="43.001095" lon="12.6610167"><ele>208.0</ele><time>2026-04-25T16:06:03.448Z</time></trkpt><trkpt lat="43.0013507" lon="12.6609636"><ele>208.0</ele><time>2026-04-25T16:06:04.448Z</time></trkpt><trkpt lat="43.0016093" lon="12.6609046"><ele>208.0</ele><time>2026-04-25T16:06:05.448Z</time></trkpt><trkpt lat="43.0018697" lon="12.6608397"><ele>206.5</ele><time>2026-04-25T16:06:06.448Z</time></trkpt><trkpt lat="43.002125" lon="12.6607845"><ele>205.0</ele><time>2026-04-25T16:06:07.449Z</time></trkpt><trkpt lat="43.0023864" lon="12.660725"><ele>205.0</ele><time>2026-04-25T16:06:08.448Z</time></trkpt><trkpt lat="43.0026475" lon="12.6606709"><ele>205.0</ele><time>2026-04-25T16:06:09.448Z</time></trkpt><trkpt lat="43.0029033" lon="12.6606099"><ele>205.0</ele><time>2026-04-25T16:06:10.448Z</time></trkpt><trkpt lat="43.0031554" lon="12.6605283"><ele>205.0</ele><time>2026-04-25T16:06:11.448Z</time></trkpt><trkpt lat="43.0034012" lon="12.6604444"><ele>206.5</ele><time>2026-04-25T16:06:12.448Z</time></trkpt><trkpt lat="43.0036572" lon="12.6603416"><ele>208.0</ele><time>2026-04-25T16:06:13.448Z</time></trkpt><trkpt lat="43.00391" lon="12.6602483"><ele>206.0</ele><time>2026-04-25T16:06:14.448Z</time></trkpt><trkpt lat="43.0041586" lon="12.6601349"><ele>204.0</ele><time>2026-04-25T16:06:15.448Z</time></trkpt><trkpt lat="43.0044042" lon="12.6600095"><ele>204.0</ele><time>2026-04-25T16:06:16.448Z</time></trkpt><trkpt lat="43.004648" lon="12.6598835"><ele>204.0</ele><time>2026-04-25T16:06:17.449Z</time></trkpt><trkpt lat="43.0048947" lon="12.6597546"><ele>207.0</ele><time>2026-04-25T16:06:18.448Z</time></trkpt><trkpt lat="43.0051321" lon="12.6596223"><ele>210.0</ele><time>2026-04-25T16:06:19.448Z</time></trkpt><trkpt lat="43.0053704" lon="12.6594747"><ele>209.0</ele><time>2026-04-25T16:06:20.448Z</time></trkpt><trkpt lat="43.0055957" lon="12.6593158"><ele>208.0</ele><time>2026-04-25T16:06:21.448Z</time></trkpt><trkpt lat="43.0058287" lon="12.6591469"><ele>208.0</ele><time>2026-04-25T16:06:22.449Z</time></trkpt><trkpt lat="43.0060492" lon="12.6589722"><ele>208.0</ele><time>2026-04-25T16:06:23.448Z</time></trkpt><trkpt lat="43.0062642" lon="12.6587894"><ele>207.5</ele><time>2026-04-25T16:06:24.448Z</time></trkpt><trkpt lat="43.0064847" lon="12.6586044"><ele>207.0</ele><time>2026-04-25T16:06:25.448Z</time></trkpt><trkpt lat="43.0067024" lon="12.6584185"><ele>207.0</ele><time>2026-04-25T16:06:26.448Z</time></trkpt><trkpt lat="43.0069171" lon="12.6582282"><ele>207.0</ele><time>2026-04-25T16:06:27.448Z</time></trkpt><trkpt lat="43.0071268" lon="12.6580402"><ele>207.0</ele><time>2026-04-25T16:06:28.448Z</time></trkpt><trkpt lat="43.0073398" lon="12.6578436"><ele>207.0</ele><time>2026-04-25T16:06:29.449Z</time></trkpt><trkpt lat="43.0075533" lon="12.6576431"><ele>205.0</ele><time>2026-04-25T16:06:30.449Z</time></trkpt><trkpt lat="43.007761" lon="12.6574414"><ele>203.0</ele><time>2026-04-25T16:06:31.448Z</time></trkpt><trkpt lat="43.0079711" lon="12.6572481"><ele>203.0</ele><time>2026-04-25T16:06:32.449Z</time></trkpt><trkpt lat="43.0081855" lon="12.6570519"><ele>203.0</ele><time>2026-04-25T16:06:33.448Z</time></trkpt><trkpt lat="43.008404" lon="12.6568491"><ele>203.0</ele><time>2026-04-25T16:06:34.448Z</time></trkpt><trkpt lat="43.0086192" lon="12.6566527"><ele>203.0</ele><time>2026-04-25T16:06:35.448Z</time></trkpt><trkpt lat="43.0088324" lon="12.6564544"><ele>203.0</ele><time>2026-04-25T16:06:36.448Z</time></trkpt><trkpt lat="43.0090435" lon="12.6562525"><ele>203.0</ele><time>2026-04-25T16:06:37.448Z</time></trkpt><trkpt lat="43.0092595" lon="12.656059"><ele>202.5</ele><time>2026-04-25T16:06:38.448Z</time></trkpt><trkpt lat="43.0094788" lon="12.6558813"><ele>202.0</ele><time>2026-04-25T16:06:39.448Z</time></trkpt><trkpt lat="43.0096986" lon="12.6556952"><ele>202.0</ele><time>2026-04-25T16:06:40.448Z</time></trkpt><trkpt lat="43.0099263" lon="12.6555242"><ele>202.0</ele><time>2026-04-25T16:06:41.448Z</time></trkpt><trkpt lat="43.0101498" lon="12.6553461"><ele>201.5</ele><time>2026-04-25T16:06:42.448Z</time></trkpt><trkpt lat="43.0103703" lon="12.6551626"><ele>201.0</ele><time>2026-04-25T16:06:43.448Z</time></trkpt><trkpt lat="43.0105877" lon="12.6549725"><ele>201.0</ele><time>2026-04-25T16:06:44.448Z</time></trkpt><trkpt lat="43.010805" lon="12.6547937"><ele>201.0</ele><time>2026-04-25T16:06:45.448Z</time></trkpt><trkpt lat="43.0110208" lon="12.6546083"><ele>201.0</ele><time>2026-04-25T16:06:46.448Z</time></trkpt><trkpt lat="43.0112377" lon="12.6544065"><ele>201.0</ele><time>2026-04-25T16:06:47.448Z</time></trkpt><trkpt lat="43.0114545" lon="12.6542153"><ele>201.5</ele><time>2026-04-25T16:06:48.448Z</time></trkpt><trkpt lat="43.0116723" lon="12.65402"><ele>202.0</ele><time>2026-04-25T16:06:49.449Z</time></trkpt><trkpt lat="43.0118907" lon="12.6538296"><ele>202.0</ele><time>2026-04-25T16:06:50.448Z</time></trkpt><trkpt lat="43.0121069" lon="12.6536389"><ele>202.0</ele><time>2026-04-25T16:06:51.448Z</time></trkpt><trkpt lat="43.0123211" lon="12.653448"><ele>201.5</ele><time>2026-04-25T16:06:52.448Z</time></trkpt><trkpt lat="43.0125227" lon="12.6532568"><ele>201.0</ele><time>2026-04-25T16:06:53.448Z</time></trkpt><trkpt lat="43.0127267" lon="12.6530615"><ele>201.0</ele><time>2026-04-25T16:06:54.448Z</time></trkpt><trkpt lat="43.0129311" lon="12.6528693"><ele>201.0</ele><time>2026-04-25T16:06:55.448Z</time></trkpt><trkpt lat="43.0131387" lon="12.6526792"><ele>201.0</ele><time>2026-04-25T16:06:56.448Z</time></trkpt><trkpt lat="43.0133372" lon="12.6524727"><ele>201.0</ele><time>2026-04-25T16:06:57.448Z</time></trkpt><trkpt lat="43.0135352" lon="12.652257"><ele>201.0</ele><time>2026-04-25T16:06:58.448Z</time></trkpt><trkpt lat="43.0137253" lon="12.6520458"><ele>201.0</ele><time>2026-04-25T16:06:59.448Z</time></trkpt><trkpt lat="43.0139107" lon="12.6518346"><ele>200.5</ele><time>2026-04-25T16:07:00.448Z</time></trkpt><trkpt lat="43.0140966" lon="12.6516221"><ele>200.0</ele><time>2026-04-25T16:07:01.448Z</time></trkpt><trkpt lat="43.0142784" lon="12.6513931"><ele>201.0</ele><time>2026-04-25T16:07:02.448Z</time></trkpt><trkpt lat="43.0144663" lon="12.6511697"><ele>202.0</ele><time>2026-04-25T16:07:03.449Z</time></trkpt><trkpt lat="43.0146452" lon="12.6509426"><ele>202.0</ele><time>2026-04-25T16:07:04.448Z</time></trkpt><trkpt lat="43.0148187" lon="12.6506997"><ele>202.0</ele><time>2026-04-25T16:07:05.449Z</time></trkpt><trkpt lat="43.0149954" lon="12.6504536"><ele>203.0</ele><time>2026-04-25T16:07:06.448Z</time></trkpt><trkpt lat="43.0151738" lon="12.6502161"><ele>204.0</ele><time>2026-04-25T16:07:07.448Z</time></trkpt><trkpt lat="43.0153512" lon="12.6499736"><ele>204.0</ele><time>2026-04-25T16:07:08.448Z</time></trkpt><trkpt lat="43.015524" lon="12.6497232"><ele>204.0</ele><time>2026-04-25T16:07:09.448Z</time></trkpt><trkpt lat="43.0157034" lon="12.6494746"><ele>205.5</ele><time>2026-04-25T16:07:10.449Z</time></trkpt><trkpt lat="43.0158856" lon="12.6492291"><ele>207.0</ele><time>2026-04-25T16:07:11.448Z</time></trkpt><trkpt lat="43.0160622" lon="12.6489746"><ele>207.0</ele><time>2026-04-25T16:07:12.448Z</time></trkpt><trkpt lat="43.0162367" lon="12.6487144"><ele>207.0</ele><time>2026-04-25T16:07:13.449Z</time></trkpt><trkpt lat="43.0164154" lon="12.6484629"><ele>207.0</ele><time>2026-04-25T16:07:14.448Z</time></trkpt><trkpt lat="43.016591" lon="12.6482119"><ele>207.0</ele><time>2026-04-25T16:07:15.448Z</time></trkpt><trkpt lat="43.0167732" lon="12.6479628"><ele>207.0</ele><time>2026-04-25T16:07:16.449Z</time></trkpt><trkpt lat="43.0169551" lon="12.6477097"><ele>207.0</ele><time>2026-04-25T16:07:17.448Z</time></trkpt><trkpt lat="43.0171358" lon="12.6474561"><ele>207.0</ele><time>2026-04-25T16:07:18.448Z</time></trkpt><trkpt lat="43.0173153" lon="12.6472042"><ele>207.0</ele><time>2026-04-25T16:07:19.448Z</time></trkpt><trkpt lat="43.017503" lon="12.6469522"><ele>208.0</ele><time>2026-04-25T16:07:20.448Z</time></trkpt><trkpt lat="43.0176861" lon="12.6467044"><ele>209.0</ele><time>2026-04-25T16:07:21.448Z</time></trkpt><trkpt lat="43.0178698" lon="12.6464501"><ele>209.0</ele><time>2026-04-25T16:07:22.448Z</time></trkpt><trkpt lat="43.0180527" lon="12.6461891"><ele>209.0</ele><time>2026-04-25T16:07:23.448Z</time></trkpt><trkpt lat="43.0182369" lon="12.6459421"><ele>209.5</ele><time>2026-04-25T16:07:24.448Z</time></trkpt><trkpt lat="43.018424" lon="12.6456818"><ele>210.0</ele><time>2026-04-25T16:07:25.448Z</time></trkpt><trkpt lat="43.0186086" lon="12.6454165"><ele>209.5</ele><time>2026-04-25T16:07:26.449Z</time></trkpt><trkpt lat="43.0188015" lon="12.6451648"><ele>209.0</ele><time>2026-04-25T16:07:27.448Z</time></trkpt><trkpt lat="43.0189984" lon="12.6449034"><ele>209.0</ele><time>2026-04-25T16:07:28.448Z</time></trkpt><trkpt lat="43.0191845" lon="12.6446484"><ele>209.0</ele><time>2026-04-25T16:07:29.448Z</time></trkpt><trkpt lat="43.0193798" lon="12.644386"><ele>209.0</ele><time>2026-04-25T16:07:30.448Z</time></trkpt><trkpt lat="43.0195733" lon="12.6441423"><ele>209.0</ele><time>2026-04-25T16:07:31.449Z</time></trkpt><trkpt lat="43.0197715" lon="12.6438932"><ele>208.5</ele><time>2026-04-25T16:07:32.448Z</time></trkpt><trkpt lat="43.0199633" lon="12.6436291"><ele>208.0</ele><time>2026-04-25T16:07:33.448Z</time></trkpt><trkpt lat="43.0201511" lon="12.6433646"><ele>209.5</ele><time>2026-04-25T16:07:34.448Z</time></trkpt><trkpt lat="43.0203441" lon="12.6430987"><ele>211.0</ele><time>2026-04-25T16:07:35.448Z</time></trkpt><trkpt lat="43.0205404" lon="12.6428386"><ele>210.5</ele><time>2026-04-25T16:07:36.448Z</time></trkpt><trkpt lat="43.0207286" lon="12.6425776"><ele>210.0</ele><time>2026-04-25T16:07:37.449Z</time></trkpt><trkpt lat="43.0209221" lon="12.6423222"><ele>210.0</ele><time>2026-04-25T16:07:38.449Z</time></trkpt><trkpt lat="43.0211127" lon="12.6420681"><ele>210.0</ele><time>2026-04-25T16:07:39.448Z</time></trkpt><trkpt lat="43.0213103" lon="12.6418206"><ele>209.5</ele><time>2026-04-25T16:07:40.448Z</time></trkpt><trkpt lat="43.0215203" lon="12.6416019"><ele>209.0</ele><time>2026-04-25T16:07:41.448Z</time></trkpt><trkpt lat="43.0217332" lon="12.6413696"><ele>208.0</ele><time>2026-04-25T16:07:42.448Z</time></trkpt><trkpt lat="43.0219473" lon="12.6411502"><ele>207.0</ele><time>2026-04-25T16:07:43.448Z</time></trkpt><trkpt lat="43.0221679" lon="12.6409461"><ele>206.0</ele><time>2026-04-25T16:07:44.449Z</time></trkpt><trkpt lat="43.0223914" lon="12.6407349"><ele>205.0</ele><time>2026-04-25T16:07:45.448Z</time></trkpt><trkpt lat="43.0226184" lon="12.6405168"><ele>205.0</ele><time>2026-04-25T16:07:46.448Z</time></trkpt><trkpt lat="43.0228396" lon="12.6403264"><ele>205.0</ele><time>2026-04-25T16:07:47.448Z</time></trkpt><trkpt lat="43.0230662" lon="12.6401214"><ele>204.0</ele><time>2026-04-25T16:07:48.448Z</time></trkpt><trkpt lat="43.0232949" lon="12.63991"><ele>203.0</ele><time>2026-04-25T16:07:49.448Z</time></trkpt><trkpt lat="43.0235193" lon="12.6397043"><ele>202.5</ele><time>2026-04-25T16:07:50.448Z</time></trkpt><trkpt lat="43.0237353" lon="12.6394969"><ele>202.0</ele><time>2026-04-25T16:07:51.448Z</time></trkpt><trkpt lat="43.0239649" lon="12.6392903"><ele>202.0</ele><time>2026-04-25T16:07:52.448Z</time></trkpt><trkpt lat="43.0241823" lon="12.6390766"><ele>202.0</ele><time>2026-04-25T16:07:53.448Z</time></trkpt><trkpt lat="43.0244059" lon="12.6388754"><ele>202.0</ele><time>2026-04-25T16:07:54.448Z</time></trkpt><trkpt lat="43.0246255" lon="12.6386738"><ele>202.0</ele><time>2026-04-25T16:07:55.448Z</time></trkpt><trkpt lat="43.0248468" lon="12.6384702"><ele>201.0</ele><time>2026-04-25T16:07:56.448Z</time></trkpt><trkpt lat="43.0250622" lon="12.6382588"><ele>200.0</ele><time>2026-04-25T16:07:57.448Z</time></trkpt><trkpt lat="43.0252863" lon="12.6380594"><ele>200.0</ele><time>2026-04-25T16:07:58.449Z</time></trkpt><trkpt lat="43.0255059" lon="12.6378595"><ele>200.0</ele><time>2026-04-25T16:07:59.448Z</time></trkpt><trkpt lat="43.0257227" lon="12.6376621"><ele>198.5</ele><time>2026-04-25T16:08:00.448Z</time></trkpt><trkpt lat="43.0259385" lon="12.6374608"><ele>197.0</ele><time>2026-04-25T16:08:01.448Z</time></trkpt><trkpt lat="43.0261539" lon="12.6372599"><ele>197.0</ele><time>2026-04-25T16:08:02.448Z</time></trkpt><trkpt lat="43.0263676" lon="12.6370662"><ele>197.0</ele><time>2026-04-25T16:08:03.448Z</time></trkpt><trkpt lat="43.0265794" lon="12.6368787"><ele>198.5</ele><time>2026-04-25T16:08:04.449Z</time></trkpt><trkpt lat="43.0267921" lon="12.6366807"><ele>200.0</ele><time>2026-04-25T16:08:05.448Z</time></trkpt><trkpt lat="43.027" lon="12.6364946"><ele>200.0</ele><time>2026-04-25T16:08:06.448Z</time></trkpt><trkpt lat="43.0272078" lon="12.636309"><ele>200.0</ele><time>2026-04-25T16:08:07.449Z</time></trkpt><trkpt lat="43.0274153" lon="12.636118"><ele>199.5</ele><time>2026-04-25T16:08:08.448Z</time></trkpt><trkpt lat="43.0276116" lon="12.6359273"><ele>199.0</ele><time>2026-04-25T16:08:09.448Z</time></trkpt><trkpt lat="43.0278208" lon="12.6357352"><ele>199.0</ele><time>2026-04-25T16:08:10.448Z</time></trkpt><trkpt lat="43.0280258" lon="12.6355513"><ele>199.0</ele><time>2026-04-25T16:08:11.448Z</time></trkpt><trkpt lat="43.0282243" lon="12.6353621"><ele>200.0</ele><time>2026-04-25T16:08:12.448Z</time></trkpt><trkpt lat="43.0284251" lon="12.6351754"><ele>201.0</ele><time>2026-04-25T16:08:13.449Z</time></trkpt><trkpt lat="43.028628" lon="12.6349889"><ele>201.0</ele><time>2026-04-25T16:08:14.448Z</time></trkpt><trkpt lat="43.0288339" lon="12.6347976"><ele>201.0</ele><time>2026-04-25T16:08:15.448Z</time></trkpt><trkpt lat="43.0290364" lon="12.6346032"><ele>202.0</ele><time>2026-04-25T16:08:16.448Z</time></trkpt><trkpt lat="43.0292371" lon="12.6344156"><ele>203.0</ele><time>2026-04-25T16:08:17.448Z</time></trkpt><trkpt lat="43.0294429" lon="12.6342264"><ele>203.0</ele><time>2026-04-25T16:08:18.448Z</time></trkpt><trkpt lat="43.0296495" lon="12.6340452"><ele>203.0</ele><time>2026-04-25T16:08:19.448Z</time></trkpt><trkpt lat="43.0298524" lon="12.6338635"><ele>203.0</ele><time>2026-04-25T16:08:20.449Z</time></trkpt><trkpt lat="43.0300599" lon="12.6336747"><ele>203.0</ele><time>2026-04-25T16:08:21.449Z</time></trkpt><trkpt lat="43.0302644" lon="12.6334846"><ele>203.0</ele><time>2026-04-25T16:08:22.448Z</time></trkpt><trkpt lat="43.030467" lon="12.6333061"><ele>203.0</ele><time>2026-04-25T16:08:23.448Z</time></trkpt><trkpt lat="43.0306686" lon="12.6331158"><ele>203.5</ele><time>2026-04-25T16:08:24.448Z</time></trkpt><trkpt lat="43.0308686" lon="12.6329398"><ele>204.0</ele><time>2026-04-25T16:08:25.448Z</time></trkpt><trkpt lat="43.0310603" lon="12.6327573"><ele>204.0</ele><time>2026-04-25T16:08:26.449Z</time></trkpt><trkpt lat="43.0312578" lon="12.6325737"><ele>204.0</ele><time>2026-04-25T16:08:27.448Z</time></trkpt><trkpt lat="43.0314533" lon="12.6323853"><ele>205.5</ele><time>2026-04-25T16:08:28.448Z</time></trkpt><trkpt lat="43.0316417" lon="12.632208"><ele>207.0</ele><time>2026-04-25T16:08:29.448Z</time></trkpt><trkpt lat="43.0318339" lon="12.6320117"><ele>205.0</ele><time>2026-04-25T16:08:30.448Z</time></trkpt><trkpt lat="43.0320343" lon="12.6318172"><ele>203.0</ele><time>2026-04-25T16:08:31.448Z</time></trkpt><trkpt lat="43.0322407" lon="12.6316246"><ele>203.0</ele><time>2026-04-25T16:08:32.448Z</time></trkpt><trkpt lat="43.0324377" lon="12.6314251"><ele>203.0</ele><time>2026-04-25T16:08:33.448Z</time></trkpt><trkpt lat="43.0326457" lon="12.6312348"><ele>203.5</ele><time>2026-04-25T16:08:34.449Z</time></trkpt><trkpt lat="43.0328553" lon="12.6310487"><ele>204.0</ele><time>2026-04-25T16:08:35.448Z</time></trkpt><trkpt lat="43.0330594" lon="12.6308666"><ele>204.0</ele><time>2026-04-25T16:08:36.448Z</time></trkpt><trkpt lat="43.0332626" lon="12.6306816"><ele>204.0</ele><time>2026-04-25T16:08:37.449Z</time></trkpt><trkpt lat="43.0334753" lon="12.6304843"><ele>205.0</ele><time>2026-04-25T16:08:38.448Z</time></trkpt><trkpt lat="43.033688" lon="12.6302842"><ele>206.0</ele><time>2026-04-25T16:08:39.448Z</time></trkpt><trkpt lat="43.0339052" lon="12.6300842"><ele>206.0</ele><time>2026-04-25T16:08:40.448Z</time></trkpt><trkpt lat="43.0341205" lon="12.6298907"><ele>206.0</ele><time>2026-04-25T16:08:41.448Z</time></trkpt><trkpt lat="43.0343353" lon="12.6296878"><ele>207.0</ele><time>2026-04-25T16:08:42.449Z</time></trkpt><trkpt lat="43.0345471" lon="12.6294774"><ele>208.0</ele><time>2026-04-25T16:08:43.448Z</time></trkpt><trkpt lat="43.0347486" lon="12.6292555"><ele>208.0</ele><time>2026-04-25T16:08:44.448Z</time></trkpt><trkpt lat="43.0349452" lon="12.6290224"><ele>208.0</ele><time>2026-04-25T16:08:45.448Z</time></trkpt><trkpt lat="43.0351288" lon="12.6287745"><ele>208.0</ele><time>2026-04-25T16:08:46.448Z</time></trkpt><trkpt lat="43.0353013" lon="12.6285192"><ele>208.0</ele><time>2026-04-25T16:08:47.448Z</time></trkpt><trkpt lat="43.0354616" lon="12.6282498"><ele>208.0</ele><time>2026-04-25T16:08:48.448Z</time></trkpt><trkpt lat="43.0356144" lon="12.6279638"><ele>208.0</ele><time>2026-04-25T16:08:49.448Z</time></trkpt><trkpt lat="43.0357641" lon="12.6276737"><ele>209.0</ele><time>2026-04-25T16:08:50.448Z</time></trkpt><trkpt lat="43.035906" lon="12.627377"><ele>210.0</ele><time>2026-04-25T16:08:51.448Z</time></trkpt><trkpt lat="43.0360475" lon="12.627083"><ele>210.0</ele><time>2026-04-25T16:08:52.448Z</time></trkpt><trkpt lat="43.0361894" lon="12.6267844"><ele>210.0</ele><time>2026-04-25T16:08:53.448Z</time></trkpt><trkpt lat="43.036328" lon="12.6264937"><ele>210.0</ele><time>2026-04-25T16:08:54.448Z</time></trkpt><trkpt lat="43.0364671" lon="12.626197"><ele>210.0</ele><time>2026-04-25T16:08:55.448Z</time></trkpt><trkpt lat="43.0365988" lon="12.6259104"><ele>211.0</ele><time>2026-04-25T16:08:56.448Z</time></trkpt><trkpt lat="43.0367353" lon="12.6256143"><ele>212.0</ele><time>2026-04-25T16:08:57.449Z</time></trkpt><trkpt lat="43.036877" lon="12.6253254"><ele>210.0</ele><time>2026-04-25T16:08:58.448Z</time></trkpt><trkpt lat="43.0370169" lon="12.6250302"><ele>208.0</ele><time>2026-04-25T16:08:59.448Z</time></trkpt><trkpt lat="43.0371581" lon="12.6247342"><ele>207.5</ele><time>2026-04-25T16:09:00.448Z</time></trkpt><trkpt lat="43.0372972" lon="12.6244513"><ele>207.0</ele><time>2026-04-25T16:09:01.448Z</time></trkpt><trkpt lat="43.0374392" lon="12.6241419"><ele>208.0</ele><time>2026-04-25T16:09:02.448Z</time></trkpt><trkpt lat="43.037575" lon="12.6238532"><ele>209.0</ele><time>2026-04-25T16:09:03.448Z</time></trkpt><trkpt lat="43.0377217" lon="12.6235505"><ele>209.0</ele><time>2026-04-25T16:09:04.448Z</time></trkpt><trkpt lat="43.0378615" lon="12.623255"><ele>209.0</ele><time>2026-04-25T16:09:05.448Z</time></trkpt><trkpt lat="43.0380017" lon="12.6229553"><ele>208.0</ele><time>2026-04-25T16:09:06.449Z</time></trkpt><trkpt lat="43.0381443" lon="12.6226638"><ele>207.0</ele><time>2026-04-25T16:09:07.448Z</time></trkpt><trkpt lat="43.0382846" lon="12.6223689"><ele>207.0</ele><time>2026-04-25T16:09:08.449Z</time></trkpt><trkpt lat="43.0384258" lon="12.6220694"><ele>207.0</ele><time>2026-04-25T16:09:09.449Z</time></trkpt><trkpt lat="43.0385631" lon="12.6217635"><ele>207.0</ele><time>2026-04-25T16:09:10.448Z</time></trkpt><trkpt lat="43.0387056" lon="12.6214666"><ele>207.0</ele><time>2026-04-25T16:09:11.448Z</time></trkpt><trkpt lat="43.0388485" lon="12.6211673"><ele>206.5</ele><time>2026-04-25T16:09:12.448Z</time></trkpt><trkpt lat="43.0389835" lon="12.6208676"><ele>206.0</ele><time>2026-04-25T16:09:13.449Z</time></trkpt><trkpt lat="43.0391255" lon="12.6205725"><ele>206.5</ele><time>2026-04-25T16:09:14.448Z</time></trkpt><trkpt lat="43.0392665" lon="12.6202811"><ele>207.0</ele><time>2026-04-25T16:09:15.449Z</time></trkpt><trkpt lat="43.0394047" lon="12.6199924"><ele>207.0</ele><time>2026-04-25T16:09:16.448Z</time></trkpt><trkpt lat="43.0395434" lon="12.6196938"><ele>207.0</ele><time>2026-04-25T16:09:17.449Z</time></trkpt><trkpt lat="43.0396839" lon="12.6194038"><ele>205.5</ele><time>2026-04-25T16:09:18.448Z</time></trkpt><trkpt lat="43.0398196" lon="12.6191122"><ele>204.0</ele><time>2026-04-25T16:09:19.448Z</time></trkpt><trkpt lat="43.0399581" lon="12.6188174"><ele>205.5</ele><time>2026-04-25T16:09:20.448Z</time></trkpt><trkpt lat="43.0400953" lon="12.6185289"><ele>207.0</ele><time>2026-04-25T16:09:21.448Z</time></trkpt><trkpt lat="43.0402361" lon="12.6182351"><ele>207.0</ele><time>2026-04-25T16:09:22.448Z</time></trkpt><trkpt lat="43.0403693" lon="12.6179372"><ele>207.0</ele><time>2026-04-25T16:09:23.448Z</time></trkpt><trkpt lat="43.0405112" lon="12.6176419"><ele>206.0</ele><time>2026-04-25T16:09:24.448Z</time></trkpt><trkpt lat="43.0406543" lon="12.6173445"><ele>205.0</ele><time>2026-04-25T16:09:25.448Z</time></trkpt><trkpt lat="43.0407992" lon="12.617055"><ele>205.0</ele><time>2026-04-25T16:09:26.448Z</time></trkpt><trkpt lat="43.0409411" lon="12.6167569"><ele>205.0</ele><time>2026-04-25T16:09:27.448Z</time></trkpt><trkpt lat="43.0410859" lon="12.6164575"><ele>205.0</ele><time>2026-04-25T16:09:28.448Z</time></trkpt><trkpt lat="43.0412279" lon="12.6161606"><ele>205.0</ele><time>2026-04-25T16:09:29.448Z</time></trkpt><trkpt lat="43.0413706" lon="12.6158651"><ele>205.0</ele><time>2026-04-25T16:09:30.448Z</time></trkpt><trkpt lat="43.0415083" lon="12.6155696"><ele>205.0</ele><time>2026-04-25T16:09:31.448Z</time></trkpt><trkpt lat="43.0416489" lon="12.6152731"><ele>205.0</ele><time>2026-04-25T16:09:32.448Z</time></trkpt><trkpt lat="43.0417897" lon="12.6149963"><ele>205.0</ele><time>2026-04-25T16:09:33.448Z</time></trkpt><trkpt lat="43.0419335" lon="12.6146939"><ele>204.5</ele><time>2026-04-25T16:09:34.448Z</time></trkpt><trkpt lat="43.0420769" lon="12.614399"><ele>204.0</ele><time>2026-04-25T16:09:35.448Z</time></trkpt><trkpt lat="43.0422161" lon="12.6140974"><ele>204.0</ele><time>2026-04-25T16:09:36.448Z</time></trkpt><trkpt lat="43.0423587" lon="12.6137994"><ele>204.0</ele><time>2026-04-25T16:09:37.449Z</time></trkpt><trkpt lat="43.0424942" lon="12.6134984"><ele>205.5</ele><time>2026-04-25T16:09:38.448Z</time></trkpt><trkpt lat="43.0426365" lon="12.6132066"><ele>207.0</ele><time>2026-04-25T16:09:39.449Z</time></trkpt><trkpt lat="43.0427757" lon="12.6129102"><ele>206.5</ele><time>2026-04-25T16:09:40.448Z</time></trkpt><trkpt lat="43.0429135" lon="12.6126086"><ele>206.0</ele><time>2026-04-25T16:09:41.448Z</time></trkpt><trkpt lat="43.0430584" lon="12.6123084"><ele>206.0</ele><time>2026-04-25T16:09:42.448Z</time></trkpt><trkpt lat="43.0431949" lon="12.6120065"><ele>206.0</ele><time>2026-04-25T16:09:43.449Z</time></trkpt><trkpt lat="43.0433354" lon="12.6116998"><ele>208.0</ele><time>2026-04-25T16:09:44.448Z</time></trkpt><trkpt lat="43.0434733" lon="12.6113998"><ele>210.0</ele><time>2026-04-25T16:09:45.448Z</time></trkpt><trkpt lat="43.0436174" lon="12.6110967"><ele>210.0</ele><time>2026-04-25T16:09:46.448Z</time></trkpt><trkpt lat="43.0437551" lon="12.6107999"><ele>210.0</ele><time>2026-04-25T16:09:47.448Z</time></trkpt><trkpt lat="43.0439027" lon="12.6105174"><ele>210.0</ele><time>2026-04-25T16:09:48.448Z</time></trkpt><trkpt lat="43.0440394" lon="12.6102184"><ele>210.0</ele><time>2026-04-25T16:09:49.448Z</time></trkpt><trkpt lat="43.0441793" lon="12.609924"><ele>210.0</ele><time>2026-04-25T16:09:50.448Z</time></trkpt><trkpt lat="43.0443204" lon="12.6096279"><ele>210.0</ele><time>2026-04-25T16:09:51.448Z</time></trkpt><trkpt lat="43.0444593" lon="12.6093265"><ele>210.5</ele><time>2026-04-25T16:09:52.448Z</time></trkpt><trkpt lat="43.0446051" lon="12.6090267"><ele>211.0</ele><time>2026-04-25T16:09:53.448Z</time></trkpt><trkpt lat="43.0447492" lon="12.6087322"><ele>211.0</ele><time>2026-04-25T16:09:54.449Z</time></trkpt><trkpt lat="43.044894" lon="12.608431"><ele>211.0</ele><time>2026-04-25T16:09:55.448Z</time></trkpt><trkpt lat="43.0450403" lon="12.6081371"><ele>211.5</ele><time>2026-04-25T16:09:56.449Z</time></trkpt><trkpt lat="43.0451871" lon="12.6078404"><ele>212.0</ele><time>2026-04-25T16:09:57.449Z</time></trkpt><trkpt lat="43.0453284" lon="12.6075372"><ele>212.0</ele><time>2026-04-25T16:09:58.448Z</time></trkpt><trkpt lat="43.045468" lon="12.6072305"><ele>212.0</ele><time>2026-04-25T16:09:59.448Z</time></trkpt><trkpt lat="43.045615" lon="12.6069337"><ele>212.0</ele><time>2026-04-25T16:10:00.449Z</time></trkpt><trkpt lat="43.0457536" lon="12.6066265"><ele>212.0</ele><time>2026-04-25T16:10:01.448Z</time></trkpt><trkpt lat="43.0458954" lon="12.6063199"><ele>212.5</ele><time>2026-04-25T16:10:02.448Z</time></trkpt><trkpt lat="43.0460372" lon="12.6060078"><ele>213.0</ele><time>2026-04-25T16:10:03.448Z</time></trkpt><trkpt lat="43.0461761" lon="12.6057048"><ele>213.0</ele><time>2026-04-25T16:10:04.448Z</time></trkpt><trkpt lat="43.0463197" lon="12.6054023"><ele>213.0</ele><time>2026-04-25T16:10:05.448Z</time></trkpt><trkpt lat="43.0464632" lon="12.6050985"><ele>213.5</ele><time>2026-04-25T16:10:06.448Z</time></trkpt><trkpt lat="43.0466068" lon="12.6047991"><ele>214.0</ele><time>2026-04-25T16:10:07.449Z</time></trkpt><trkpt lat="43.046749" lon="12.6044916"><ele>214.0</ele><time>2026-04-25T16:10:08.448Z</time></trkpt><trkpt lat="43.0468925" lon="12.6041858"><ele>214.0</ele><time>2026-04-25T16:10:09.448Z</time></trkpt><trkpt lat="43.0470354" lon="12.6038868"><ele>213.0</ele><time>2026-04-25T16:10:10.448Z</time></trkpt><trkpt lat="43.0471789" lon="12.6035852"><ele>212.0</ele><time>2026-04-25T16:10:11.448Z</time></trkpt><trkpt lat="43.0473206" lon="12.6032933"><ele>212.0</ele><time>2026-04-25T16:10:12.448Z</time></trkpt><trkpt lat="43.0474652" lon="12.6029978"><ele>212.0</ele><time>2026-04-25T16:10:13.448Z</time></trkpt><trkpt lat="43.0476031" lon="12.6026936"><ele>211.5</ele><time>2026-04-25T16:10:14.448Z</time></trkpt><trkpt lat="43.0477357" lon="12.6023867"><ele>211.0</ele><time>2026-04-25T16:10:15.449Z</time></trkpt><trkpt lat="43.0478666" lon="12.6020709"><ele>212.0</ele><time>2026-04-25T16:10:16.449Z</time></trkpt><trkpt lat="43.0479875" lon="12.601755"><ele>213.0</ele><time>2026-04-25T16:10:17.448Z</time></trkpt><trkpt lat="43.0480925" lon="12.6014362"><ele>213.0</ele><time>2026-04-25T16:10:18.448Z</time></trkpt><trkpt lat="43.0481946" lon="12.6011107"><ele>213.0</ele><time>2026-04-25T16:10:19.448Z</time></trkpt><trkpt lat="43.0482869" lon="12.6007889"><ele>215.0</ele><time>2026-04-25T16:10:20.448Z</time></trkpt><trkpt lat="43.0483782" lon="12.6004573"><ele>217.0</ele><time>2026-04-25T16:10:21.448Z</time></trkpt><trkpt lat="43.0484639" lon="12.6001288"><ele>217.0</ele><time>2026-04-25T16:10:22.448Z</time></trkpt><trkpt lat="43.0485477" lon="12.5997979"><ele>217.0</ele><time>2026-04-25T16:10:23.448Z</time></trkpt><trkpt lat="43.0486303" lon="12.599472"><ele>217.0</ele><time>2026-04-25T16:10:24.448Z</time></trkpt><trkpt lat="43.0487091" lon="12.599141"><ele>217.0</ele><time>2026-04-25T16:10:25.449Z</time></trkpt><trkpt lat="43.0487905" lon="12.5988149"><ele>215.5</ele><time>2026-04-25T16:10:26.448Z</time></trkpt><trkpt lat="43.0488697" lon="12.5984868"><ele>214.0</ele><time>2026-04-25T16:10:27.448Z</time></trkpt><trkpt lat="43.0489479" lon="12.5981548"><ele>214.5</ele><time>2026-04-25T16:10:28.448Z</time></trkpt><trkpt lat="43.0490266" lon="12.5978186"><ele>215.0</ele><time>2026-04-25T16:10:29.449Z</time></trkpt><trkpt lat="43.0491066" lon="12.5974806"><ele>216.0</ele><time>2026-04-25T16:10:30.448Z</time></trkpt><trkpt lat="43.0491878" lon="12.5971338"><ele>217.0</ele><time>2026-04-25T16:10:31.448Z</time></trkpt><trkpt lat="43.0492649" lon="12.5967938"><ele>217.5</ele><time>2026-04-25T16:10:32.448Z</time></trkpt><trkpt lat="43.0493389" lon="12.5964451"><ele>218.0</ele><time>2026-04-25T16:10:33.448Z</time></trkpt><trkpt lat="43.049414" lon="12.5960969"><ele>217.0</ele><time>2026-04-25T16:10:34.448Z</time></trkpt><trkpt lat="43.0494902" lon="12.5957482"><ele>216.0</ele><time>2026-04-25T16:10:35.448Z</time></trkpt><trkpt lat="43.0495711" lon="12.5954031"><ele>216.5</ele><time>2026-04-25T16:10:36.449Z</time></trkpt><trkpt lat="43.049654" lon="12.5950594"><ele>217.0</ele><time>2026-04-25T16:10:37.448Z</time></trkpt><trkpt lat="43.0497383" lon="12.5947097"><ele>216.0</ele><time>2026-04-25T16:10:38.448Z</time></trkpt><trkpt lat="43.0498187" lon="12.5943655"><ele>215.0</ele><time>2026-04-25T16:10:39.449Z</time></trkpt><trkpt lat="43.0499054" lon="12.5940241"><ele>215.5</ele><time>2026-04-25T16:10:40.448Z</time></trkpt><trkpt lat="43.0499956" lon="12.5936831"><ele>216.0</ele><time>2026-04-25T16:10:41.448Z</time></trkpt><trkpt lat="43.0500869" lon="12.5933408"><ele>216.5</ele><time>2026-04-25T16:10:42.448Z</time></trkpt><trkpt lat="43.0501765" lon="12.5929981"><ele>217.0</ele><time>2026-04-25T16:10:43.448Z</time></trkpt><trkpt lat="43.0502635" lon="12.5926522"><ele>216.0</ele><time>2026-04-25T16:10:44.449Z</time></trkpt><trkpt lat="43.0503484" lon="12.5923049"><ele>215.0</ele><time>2026-04-25T16:10:45.448Z</time></trkpt><trkpt lat="43.0504321" lon="12.5919551"><ele>214.0</ele><time>2026-04-25T16:10:46.448Z</time></trkpt><trkpt lat="43.0505177" lon="12.5916043"><ele>213.0</ele><time>2026-04-25T16:10:47.448Z</time></trkpt><trkpt lat="43.0506065" lon="12.591258"><ele>214.0</ele><time>2026-04-25T16:10:48.449Z</time></trkpt><trkpt lat="43.0506928" lon="12.5909087"><ele>215.0</ele><time>2026-04-25T16:10:49.449Z</time></trkpt><trkpt lat="43.0507739" lon="12.5905601"><ele>215.0</ele><time>2026-04-25T16:10:50.448Z</time></trkpt><trkpt lat="43.0508575" lon="12.5902151"><ele>215.0</ele><time>2026-04-25T16:10:51.448Z</time></trkpt><trkpt lat="43.0509421" lon="12.5898724"><ele>215.0</ele><time>2026-04-25T16:10:52.448Z</time></trkpt><trkpt lat="43.0510271" lon="12.5895352"><ele>215.0</ele><time>2026-04-25T16:10:53.448Z</time></trkpt><trkpt lat="43.0511071" lon="12.5891896"><ele>213.5</ele><time>2026-04-25T16:10:54.448Z</time></trkpt><trkpt lat="43.051191" lon="12.5888527"><ele>212.0</ele><time>2026-04-25T16:10:55.448Z</time></trkpt><trkpt lat="43.0512758" lon="12.5885121"><ele>211.5</ele><time>2026-04-25T16:10:56.448Z</time></trkpt><trkpt lat="43.0513587" lon="12.5881738"><ele>211.0</ele><time>2026-04-25T16:10:57.449Z</time></trkpt><trkpt lat="43.0514398" lon="12.5878406"><ele>211.0</ele><time>2026-04-25T16:10:58.448Z</time></trkpt><trkpt lat="43.0515205" lon="12.5875095"><ele>211.0</ele><time>2026-04-25T16:10:59.448Z</time></trkpt><trkpt lat="43.0516028" lon="12.5871821"><ele>212.0</ele><time>2026-04-25T16:11:00.448Z</time></trkpt><trkpt lat="43.051681" lon="12.5868444"><ele>213.0</ele><time>2026-04-25T16:11:01.448Z</time></trkpt><trkpt lat="43.0517583" lon="12.5865057"><ele>214.0</ele><time>2026-04-25T16:11:02.448Z</time></trkpt><trkpt lat="43.0518424" lon="12.5861708"><ele>215.0</ele><time>2026-04-25T16:11:03.449Z</time></trkpt><trkpt lat="43.0519307" lon="12.5858582"><ele>215.0</ele><time>2026-04-25T16:11:04.448Z</time></trkpt><trkpt lat="43.0520142" lon="12.5855233"><ele>215.0</ele><time>2026-04-25T16:11:05.448Z</time></trkpt><trkpt lat="43.0520913" lon="12.5851908"><ele>214.5</ele><time>2026-04-25T16:11:06.448Z</time></trkpt><trkpt lat="43.0521736" lon="12.5848545"><ele>214.0</ele><time>2026-04-25T16:11:07.449Z</time></trkpt><trkpt lat="43.0522523" lon="12.5845231"><ele>213.0</ele><time>2026-04-25T16:11:08.448Z</time></trkpt><trkpt lat="43.0523321" lon="12.5841939"><ele>212.0</ele><time>2026-04-25T16:11:09.448Z</time></trkpt><trkpt lat="43.0524131" lon="12.5838573"><ele>212.0</ele><time>2026-04-25T16:11:10.448Z</time></trkpt><trkpt lat="43.0524899" lon="12.5835235"><ele>212.0</ele><time>2026-04-25T16:11:11.448Z</time></trkpt><trkpt lat="43.0525721" lon="12.583191"><ele>212.0</ele><time>2026-04-25T16:11:12.448Z</time></trkpt><trkpt lat="43.0526536" lon="12.5828631"><ele>212.0</ele><time>2026-04-25T16:11:13.448Z</time></trkpt><trkpt lat="43.0527285" lon="12.5825349"><ele>212.5</ele><time>2026-04-25T16:11:14.448Z</time></trkpt><trkpt lat="43.0528081" lon="12.5822083"><ele>213.0</ele><time>2026-04-25T16:11:15.448Z</time></trkpt><trkpt lat="43.0528849" lon="12.5818783"><ele>213.0</ele><time>2026-04-25T16:11:16.448Z</time></trkpt><trkpt lat="43.0529509" lon="12.5815515"><ele>213.0</ele><time>2026-04-25T16:11:17.448Z</time></trkpt><trkpt lat="43.0529999" lon="12.5812192"><ele>211.5</ele><time>2026-04-25T16:11:18.448Z</time></trkpt><trkpt lat="43.0530412" lon="12.5808902"><ele>210.0</ele><time>2026-04-25T16:11:19.448Z</time></trkpt><trkpt lat="43.0530692" lon="12.5805563"><ele>210.0</ele><time>2026-04-25T16:11:20.449Z</time></trkpt><trkpt lat="43.0530832" lon="12.5802192"><ele>210.0</ele><time>2026-04-25T16:11:21.449Z</time></trkpt><trkpt lat="43.0530869" lon="12.5798776"><ele>210.0</ele><time>2026-04-25T16:11:22.448Z</time></trkpt><trkpt lat="43.0530837" lon="12.5795328"><ele>210.0</ele><time>2026-04-25T16:11:23.448Z</time></trkpt><trkpt lat="43.0530689" lon="12.5791913"><ele>210.0</ele><time>2026-04-25T16:11:24.448Z</time></trkpt><trkpt lat="43.0530523" lon="12.5788478"><ele>210.0</ele><time>2026-04-25T16:11:25.448Z</time></trkpt><trkpt lat="43.0530365" lon="12.578506"><ele>210.0</ele><time>2026-04-25T16:11:26.448Z</time></trkpt><trkpt lat="43.0530245" lon="12.5781568"><ele>210.0</ele><time>2026-04-25T16:11:27.448Z</time></trkpt><trkpt lat="43.0530104" lon="12.5778081"><ele>209.5</ele><time>2026-04-25T16:11:28.448Z</time></trkpt><trkpt lat="43.052995" lon="12.5774587"><ele>209.0</ele><time>2026-04-25T16:11:29.448Z</time></trkpt><trkpt lat="43.0529795" lon="12.577106"><ele>209.0</ele><time>2026-04-25T16:11:30.448Z</time></trkpt><trkpt lat="43.0529634" lon="12.5767537"><ele>209.0</ele><time>2026-04-25T16:11:31.449Z</time></trkpt><trkpt lat="43.0529464" lon="12.5763967"><ele>209.0</ele><time>2026-04-25T16:11:32.449Z</time></trkpt><trkpt lat="43.0529291" lon="12.5760407"><ele>209.0</ele><time>2026-04-25T16:11:33.448Z</time></trkpt><trkpt lat="43.0529112" lon="12.5756822"><ele>208.5</ele><time>2026-04-25T16:11:34.448Z</time></trkpt><trkpt lat="43.0528972" lon="12.5753226"><ele>208.0</ele><time>2026-04-25T16:11:35.449Z</time></trkpt><trkpt lat="43.0528792" lon="12.5749644"><ele>208.0</ele><time>2026-04-25T16:11:36.448Z</time></trkpt><trkpt lat="43.0528624" lon="12.5746042"><ele>208.0</ele><time>2026-04-25T16:11:37.449Z</time></trkpt><trkpt lat="43.0528419" lon="12.5742374"><ele>208.5</ele><time>2026-04-25T16:11:38.448Z</time></trkpt><trkpt lat="43.0528296" lon="12.5738787"><ele>209.0</ele><time>2026-04-25T16:11:39.448Z</time></trkpt><trkpt lat="43.0528104" lon="12.5735231"><ele>209.0</ele><time>2026-04-25T16:11:40.448Z</time></trkpt><trkpt lat="43.0527961" lon="12.5731627"><ele>209.0</ele><time>2026-04-25T16:11:41.448Z</time></trkpt><trkpt lat="43.0527777" lon="12.5728028"><ele>208.5</ele><time>2026-04-25T16:11:42.448Z</time></trkpt><trkpt lat="43.0527654" lon="12.5724407"><ele>208.0</ele><time>2026-04-25T16:11:43.449Z</time></trkpt><trkpt lat="43.0527536" lon="12.5720813"><ele>207.0</ele><time>2026-04-25T16:11:44.448Z</time></trkpt><trkpt lat="43.052748" lon="12.5717249"><ele>206.0</ele><time>2026-04-25T16:11:45.448Z</time></trkpt><trkpt lat="43.0527523" lon="12.5713674"><ele>205.0</ele><time>2026-04-25T16:11:46.448Z</time></trkpt><trkpt lat="43.0527639" lon="12.5710036"><ele>204.0</ele><time>2026-04-25T16:11:47.448Z</time></trkpt><trkpt lat="43.0527914" lon="12.5706407"><ele>204.5</ele><time>2026-04-25T16:11:48.448Z</time></trkpt><trkpt lat="43.0528442" lon="12.5702886"><ele>205.0</ele><time>2026-04-25T16:11:49.448Z</time></trkpt><trkpt lat="43.0529062" lon="12.5699436"><ele>205.0</ele><time>2026-04-25T16:11:50.448Z</time></trkpt><trkpt lat="43.0529851" lon="12.5696042"><ele>205.0</ele><time>2026-04-25T16:11:51.448Z</time></trkpt><trkpt lat="43.0530787" lon="12.569278"><ele>205.0</ele><time>2026-04-25T16:11:52.448Z</time></trkpt><trkpt lat="43.053184" lon="12.5689534"><ele>205.0</ele><time>2026-04-25T16:11:53.448Z</time></trkpt><trkpt lat="43.0533" lon="12.5686387"><ele>205.5</ele><time>2026-04-25T16:11:54.448Z</time></trkpt><trkpt lat="43.0534184" lon="12.5683211"><ele>206.0</ele><time>2026-04-25T16:11:55.449Z</time></trkpt><trkpt lat="43.0535428" lon="12.5680067"><ele>205.5</ele><time>2026-04-25T16:11:56.448Z</time></trkpt><trkpt lat="43.0536672" lon="12.5677031"><ele>205.0</ele><time>2026-04-25T16:11:57.448Z</time></trkpt><trkpt lat="43.0537919" lon="12.5674006"><ele>205.0</ele><time>2026-04-25T16:11:58.449Z</time></trkpt><trkpt lat="43.053917" lon="12.5670953"><ele>205.0</ele><time>2026-04-25T16:11:59.448Z</time></trkpt><trkpt lat="43.0540418" lon="12.5667898"><ele>204.0</ele><time>2026-04-25T16:12:00.449Z</time></trkpt></trkseg></trk></gpx>